<?xml version='1.0' encoding='UTF-8'?><gpx version="1.1" creator="JPX - https://github.com/jenetics/jpx" xmlns="http://www.topografix.com/GPX/1/1"><trk><trkseg><trkpt lat="45.0571983" lon="9.4906"><ele>72.0</ele><time>2026-04-04T10:09:13.191Z</time></trkpt><trkpt lat="45.0573083" lon="9.4906067"><ele>72.0</ele><time>2026-04-04T10:09:15.189Z</time></trkpt><trkpt lat="45.0573967" lon="9.49062"><ele>72.0</ele><time>2026-04-04T10:09:16.19Z</time></trkpt><trkpt lat="45.0574917" lon="9.4906467"><ele>72.0</ele><time>2026-04-04T10:09:17.191Z</time></trkpt><trkpt lat="45.057585" lon="9.4906667"><ele>72.0</ele><time>2026-04-04T10:09:18.189Z</time></trkpt><trkpt lat="45.0576583" lon="9.4906883"><ele>72.2</ele><time>2026-04-04T10:09:19.19Z</time></trkpt><trkpt lat="45.05772" lon="9.49071"><ele>72.4</ele><time>2026-04-04T10:09:20.191Z</time></trkpt><trkpt lat="45.0578233" lon="9.49074"><ele>72.6</ele><time>2026-04-04T10:09:22.189Z</time></trkpt><trkpt lat="45.0579383" lon="9.4907633"><ele>72.8</ele><time>2026-04-04T10:09:24.189Z</time></trkpt><trkpt lat="45.05806" lon="9.490805"><ele>73.0</ele><time>2026-04-04T10:09:26.19Z</time></trkpt><trkpt lat="45.058125" lon="9.490825"><ele>73.0</ele><time>2026-04-04T10:09:27.189Z</time></trkpt><trkpt lat="45.058195" lon="9.4908483"><ele>73.0</ele><time>2026-04-04T10:09:28.189Z</time></trkpt><trkpt lat="45.0582683" lon="9.4908833"><ele>73.0</ele><time>2026-04-04T10:09:29.19Z</time></trkpt><trkpt lat="45.05835" lon="9.4909183"><ele>73.0</ele><time>2026-04-04T10:09:30.19Z</time></trkpt><trkpt lat="45.058435" lon="9.49095"><ele>73.0</ele><time>2026-04-04T10:09:31.19Z</time></trkpt><trkpt lat="45.0585233" lon="9.4909833"><ele>73.0</ele><time>2026-04-04T10:09:32.19Z</time></trkpt><trkpt lat="45.058615" lon="9.4910217"><ele>72.6</ele><time>2026-04-04T10:09:33.189Z</time></trkpt><trkpt lat="45.0587117" lon="9.4910567"><ele>72.19999999999999</ele><time>2026-04-04T10:09:34.191Z</time></trkpt><trkpt lat="45.0588067" lon="9.491105"><ele>71.8</ele><time>2026-04-04T10:09:35.188Z</time></trkpt><trkpt lat="45.0589" lon="9.4911417"><ele>71.39999999999999</ele><time>2026-04-04T10:09:36.19Z</time></trkpt><trkpt lat="45.058985" lon="9.4911683"><ele>71.0</ele><time>2026-04-04T10:09:37.19Z</time></trkpt><trkpt lat="45.0590583" lon="9.4911917"><ele>70.8</ele><time>2026-04-04T10:09:38.191Z</time></trkpt><trkpt lat="45.059125" lon="9.4912117"><ele>70.6</ele><time>2026-04-04T10:09:39.189Z</time></trkpt><trkpt lat="45.0592133" lon="9.4912317"><ele>70.4</ele><time>2026-04-04T10:09:41.19Z</time></trkpt><trkpt lat="45.059305" lon="9.491265"><ele>70.2</ele><time>2026-04-04T10:09:43.19Z</time></trkpt><trkpt lat="45.059405" lon="9.49131"><ele>70.0</ele><time>2026-04-04T10:09:45.19Z</time></trkpt><trkpt lat="45.0594983" lon="9.4913867"><ele>69.83333333333333</ele><time>2026-04-04T10:09:47.188Z</time></trkpt><trkpt lat="45.05954" lon="9.4914583"><ele>69.66666666666666</ele><time>2026-04-04T10:09:48.188Z</time></trkpt><trkpt lat="45.0595783" lon="9.4915383"><ele>69.5</ele><time>2026-04-04T10:09:49.189Z</time></trkpt><trkpt lat="45.0596067" lon="9.49163"><ele>69.33333333333333</ele><time>2026-04-04T10:09:50.19Z</time></trkpt><trkpt lat="45.059615" lon="9.4917433"><ele>69.16666666666667</ele><time>2026-04-04T10:09:51.188Z</time></trkpt><trkpt lat="45.059605" lon="9.4918717"><ele>69.0</ele><time>2026-04-04T10:09:52.192Z</time></trkpt><trkpt lat="45.0595833" lon="9.4920183"><ele>68.5</ele><time>2026-04-04T10:09:53.189Z</time></trkpt><trkpt lat="45.0595433" lon="9.4921933"><ele>68.0</ele><time>2026-04-04T10:09:54.19Z</time></trkpt><trkpt lat="45.0595117" lon="9.4923717"><ele>67.5</ele><time>2026-04-04T10:09:55.189Z</time></trkpt><trkpt lat="45.0594817" lon="9.49255"><ele>67.0</ele><time>2026-04-04T10:09:56.188Z</time></trkpt><trkpt lat="45.0594533" lon="9.4927283"><ele>67.0</ele><time>2026-04-04T10:09:57.188Z</time></trkpt><trkpt lat="45.0594233" lon="9.492905"><ele>67.0</ele><time>2026-04-04T10:09:58.189Z</time></trkpt><trkpt lat="45.059385" lon="9.4930767"><ele>67.0</ele><time>2026-04-04T10:09:59.188Z</time></trkpt><trkpt lat="45.0593467" lon="9.4932467"><ele>67.0</ele><time>2026-04-04T10:10:00.189Z</time></trkpt><trkpt lat="45.05931" lon="9.493415"><ele>66.83333333333333</ele><time>2026-04-04T10:10:01.189Z</time></trkpt><trkpt lat="45.059275" lon="9.4935683"><ele>66.66666666666666</ele><time>2026-04-04T10:10:02.194Z</time></trkpt><trkpt lat="45.0592517" lon="9.4936883"><ele>66.5</ele><time>2026-04-04T10:10:03.19Z</time></trkpt><trkpt lat="45.0592333" lon="9.4937967"><ele>66.33333333333333</ele><time>2026-04-04T10:10:04.189Z</time></trkpt><trkpt lat="45.0592117" lon="9.4939"><ele>66.16666666666667</ele><time>2026-04-04T10:10:05.189Z</time></trkpt><trkpt lat="45.0591933" lon="9.4940033"><ele>66.0</ele><time>2026-04-04T10:10:06.188Z</time></trkpt><trkpt lat="45.0591817" lon="9.4940967"><ele>66.0</ele><time>2026-04-04T10:10:07.189Z</time></trkpt><trkpt lat="45.0592083" lon="9.4942467"><ele>66.0</ele><time>2026-04-04T10:10:09.192Z</time></trkpt><trkpt lat="45.05931" lon="9.494335"><ele>66.0</ele><time>2026-04-04T10:10:11.188Z</time></trkpt><trkpt lat="45.0593717" lon="9.4943733"><ele>66.0</ele><time>2026-04-04T10:10:12.189Z</time></trkpt><trkpt lat="45.0594467" lon="9.494415"><ele>66.0</ele><time>2026-04-04T10:10:13.188Z</time></trkpt><trkpt lat="45.0595383" lon="9.4944583"><ele>66.0</ele><time>2026-04-04T10:10:14.184Z</time></trkpt><trkpt lat="45.0596233" lon="9.4945067"><ele>66.0</ele><time>2026-04-04T10:10:15.188Z</time></trkpt><trkpt lat="45.059715" lon="9.4945567"><ele>66.0</ele><time>2026-04-04T10:10:16.188Z</time></trkpt><trkpt lat="45.0597967" lon="9.4946183"><ele>66.0</ele><time>2026-04-04T10:10:17.188Z</time></trkpt><trkpt lat="45.0598717" lon="9.494695"><ele>66.0</ele><time>2026-04-04T10:10:18.188Z</time></trkpt><trkpt lat="45.0599417" lon="9.4947717"><ele>65.83333333333333</ele><time>2026-04-04T10:10:19.188Z</time></trkpt><trkpt lat="45.059995" lon="9.4948683"><ele>65.66666666666667</ele><time>2026-04-04T10:10:20.188Z</time></trkpt><trkpt lat="45.0600417" lon="9.4949683"><ele>65.5</ele><time>2026-04-04T10:10:21.188Z</time></trkpt><trkpt lat="45.060075" lon="9.4950933"><ele>65.33333333333334</ele><time>2026-04-04T10:10:22.189Z</time></trkpt><trkpt lat="45.060105" lon="9.495215"><ele>65.16666666666667</ele><time>2026-04-04T10:10:23.189Z</time></trkpt><trkpt lat="45.0601483" lon="9.4953267"><ele>65.0</ele><time>2026-04-04T10:10:24.189Z</time></trkpt><trkpt lat="45.0602" lon="9.4954333"><ele>65.0</ele><time>2026-04-04T10:10:25.188Z</time></trkpt><trkpt lat="45.060265" lon="9.4955367"><ele>65.0</ele><time>2026-04-04T10:10:26.19Z</time></trkpt><trkpt lat="45.0603383" lon="9.4956217"><ele>65.0</ele><time>2026-04-04T10:10:27.189Z</time></trkpt><trkpt lat="45.0604317" lon="9.4956717"><ele>65.0</ele><time>2026-04-04T10:10:28.189Z</time></trkpt><trkpt lat="45.060525" lon="9.4957217"><ele>65.0</ele><time>2026-04-04T10:10:29.19Z</time></trkpt><trkpt lat="45.060625" lon="9.4957583"><ele>65.0</ele><time>2026-04-04T10:10:30.188Z</time></trkpt><trkpt lat="45.060715" lon="9.4958067"><ele>65.0</ele><time>2026-04-04T10:10:31.188Z</time></trkpt><trkpt lat="45.0608" lon="9.4958517"><ele>65.0</ele><time>2026-04-04T10:10:32.189Z</time></trkpt><trkpt lat="45.060875" lon="9.4958917"><ele>65.0</ele><time>2026-04-04T10:10:33.188Z</time></trkpt><trkpt lat="45.0609433" lon="9.495935"><ele>65.0</ele><time>2026-04-04T10:10:34.189Z</time></trkpt><trkpt lat="45.0609883" lon="9.4960033"><ele>65.0</ele><time>2026-04-04T10:10:35.188Z</time></trkpt><trkpt lat="45.0610233" lon="9.49609"><ele>64.66666666666667</ele><time>2026-04-04T10:10:36.188Z</time></trkpt><trkpt lat="45.0610467" lon="9.4962"><ele>64.33333333333334</ele><time>2026-04-04T10:10:37.188Z</time></trkpt><trkpt lat="45.0610717" lon="9.49632"><ele>64.0</ele><time>2026-04-04T10:10:38.188Z</time></trkpt><trkpt lat="45.0610867" lon="9.496445"><ele>63.66666666666667</ele><time>2026-04-04T10:10:39.188Z</time></trkpt><trkpt lat="45.0611067" lon="9.4965633"><ele>63.333333333333336</ele><time>2026-04-04T10:10:40.189Z</time></trkpt><trkpt lat="45.06112" lon="9.496685"><ele>63.0</ele><time>2026-04-04T10:10:41.188Z</time></trkpt><trkpt lat="45.0611267" lon="9.49681"><ele>62.5</ele><time>2026-04-04T10:10:42.188Z</time></trkpt><trkpt lat="45.0611267" lon="9.496945"><ele>62.0</ele><time>2026-04-04T10:10:43.188Z</time></trkpt><trkpt lat="45.061125" lon="9.497095"><ele>61.5</ele><time>2026-04-04T10:10:44.19Z</time></trkpt><trkpt lat="45.0611183" lon="9.4972667"><ele>61.0</ele><time>2026-04-04T10:10:45.188Z</time></trkpt><trkpt lat="45.0611083" lon="9.4974583"><ele>60.75</ele><time>2026-04-04T10:10:46.188Z</time></trkpt><trkpt lat="45.061095" lon="9.4976433"><ele>60.5</ele><time>2026-04-04T10:10:47.188Z</time></trkpt><trkpt lat="45.0610833" lon="9.4978183"><ele>60.25</ele><time>2026-04-04T10:10:48.188Z</time></trkpt><trkpt lat="45.06107" lon="9.49798"><ele>60.0</ele><time>2026-04-04T10:10:49.189Z</time></trkpt><trkpt lat="45.0610567" lon="9.4981333"><ele>59.8</ele><time>2026-04-04T10:10:50.189Z</time></trkpt><trkpt lat="45.0610433" lon="9.4982633"><ele>59.6</ele><time>2026-04-04T10:10:51.19Z</time></trkpt><trkpt lat="45.0610317" lon="9.4983717"><ele>59.400000000000006</ele><time>2026-04-04T10:10:52.19Z</time></trkpt><trkpt lat="45.0609833" lon="9.4985233"><ele>59.2</ele><time>2026-04-04T10:10:54.189Z</time></trkpt><trkpt lat="45.0608833" lon="9.4985483"><ele>59.0</ele><time>2026-04-04T10:10:56.188Z</time></trkpt><trkpt lat="45.0608033" lon="9.498525"><ele>58.6</ele><time>2026-04-04T10:10:57.189Z</time></trkpt><trkpt lat="45.0606967" lon="9.49848"><ele>58.2</ele><time>2026-04-04T10:10:58.188Z</time></trkpt><trkpt lat="45.060595" lon="9.4984367"><ele>57.800000000000004</ele><time>2026-04-04T10:10:59.189Z</time></trkpt><trkpt lat="45.060505" lon="9.4984033"><ele>57.400000000000006</ele><time>2026-04-04T10:11:00.188Z</time></trkpt><trkpt lat="45.06042" lon="9.498375"><ele>57.0</ele><time>2026-04-04T10:11:01.188Z</time></trkpt><trkpt lat="45.0603467" lon="9.4983417"><ele>57.0</ele><time>2026-04-04T10:11:02.188Z</time></trkpt><trkpt lat="45.0602933" lon="9.4982933"><ele>57.0</ele><time>2026-04-04T10:11:03.188Z</time></trkpt><trkpt lat="45.0602683" lon="9.498125"><ele>57.0</ele><time>2026-04-04T10:11:05.188Z</time></trkpt><trkpt lat="45.060275" lon="9.4979833"><ele>57.0</ele><time>2026-04-04T10:11:06.189Z</time></trkpt><trkpt lat="45.0603167" lon="9.4978183"><ele>57.0</ele><time>2026-04-04T10:11:07.188Z</time></trkpt><trkpt lat="45.0603417" lon="9.4976983"><ele>57.5</ele><time>2026-04-04T10:11:08.188Z</time></trkpt><trkpt lat="45.0603217" lon="9.4975417"><ele>58.0</ele><time>2026-04-04T10:11:10.19Z</time></trkpt><trkpt lat="45.06023" lon="9.4974917"><ele>58.5</ele><time>2026-04-04T10:11:11.189Z</time></trkpt><trkpt lat="45.060125" lon="9.49744"><ele>59.0</ele><time>2026-04-04T10:11:12.188Z</time></trkpt><trkpt lat="45.05999" lon="9.4973933"><ele>59.0</ele><time>2026-04-04T10:11:13.188Z</time></trkpt><trkpt lat="45.0598433" lon="9.497345"><ele>59.0</ele><time>2026-04-04T10:11:14.188Z</time></trkpt><trkpt lat="45.0596983" lon="9.4972983"><ele>59.0</ele><time>2026-04-04T10:11:15.188Z</time></trkpt><trkpt lat="45.0595633" lon="9.4972533"><ele>59.0</ele><time>2026-04-04T10:11:16.19Z</time></trkpt><trkpt lat="45.059445" lon="9.4972133"><ele>59.0</ele><time>2026-04-04T10:11:17.189Z</time></trkpt><trkpt lat="45.05935" lon="9.4971817"><ele>59.00000000000001</ele><time>2026-04-04T10:11:18.19Z</time></trkpt><trkpt lat="45.0592633" lon="9.4971667"><ele>59.00000000000001</ele><time>2026-04-04T10:11:19.191Z</time></trkpt><trkpt lat="45.0591917" lon="9.4971783"><ele>59.0</ele><time>2026-04-04T10:11:20.19Z</time></trkpt><trkpt lat="45.05911" lon="9.4973383"><ele>59.0</ele><time>2026-04-04T10:11:22.188Z</time></trkpt><trkpt lat="45.0590767" lon="9.4974883"><ele>59.800000000000004</ele><time>2026-04-04T10:11:23.188Z</time></trkpt><trkpt lat="45.0590567" lon="9.4976483"><ele>60.60000000000001</ele><time>2026-04-04T10:11:24.189Z</time></trkpt><trkpt lat="45.05904" lon="9.49779"><ele>61.4</ele><time>2026-04-04T10:11:25.189Z</time></trkpt><trkpt lat="45.0590233" lon="9.4978983"><ele>62.2</ele><time>2026-04-04T10:11:26.188Z</time></trkpt><trkpt lat="45.0589783" lon="9.4980317"><ele>63.0</ele><time>2026-04-04T10:11:28.188Z</time></trkpt><trkpt lat="45.0588967" lon="9.4980317"><ele>63.0</ele><time>2026-04-04T10:11:30.188Z</time></trkpt><trkpt lat="45.058825" lon="9.4979767"><ele>63.0</ele><time>2026-04-04T10:11:31.19Z</time></trkpt><trkpt lat="45.0587483" lon="9.4979117"><ele>63.0</ele><time>2026-04-04T10:11:32.188Z</time></trkpt><trkpt lat="45.0586483" lon="9.4978167"><ele>63.0</ele><time>2026-04-04T10:11:33.189Z</time></trkpt><trkpt lat="45.05855" lon="9.4977217"><ele>63.0</ele><time>2026-04-04T10:11:34.188Z</time></trkpt><trkpt lat="45.0584617" lon="9.49764"><ele>63.0</ele><time>2026-04-04T10:11:35.188Z</time></trkpt><trkpt lat="45.0583883" lon="9.4975733"><ele>63.0</ele><time>2026-04-04T10:11:36.189Z</time></trkpt><trkpt lat="45.058335" lon="9.497525"><ele>63.0</ele><time>2026-04-04T10:11:37.188Z</time></trkpt><trkpt lat="45.0582683" lon="9.4974783"><ele>63.0</ele><time>2026-04-04T10:11:39.188Z</time></trkpt><trkpt lat="45.0581983" lon="9.497505"><ele>63.0</ele><time>2026-04-04T10:11:43.188Z</time></trkpt><trkpt lat="45.05815" lon="9.4975917"><ele>63.0</ele><time>2026-04-04T10:11:44.189Z</time></trkpt><trkpt lat="45.058105" lon="9.49771"><ele>63.25</ele><time>2026-04-04T10:11:45.188Z</time></trkpt><trkpt lat="45.0580317" lon="9.497875"><ele>63.5</ele><time>2026-04-04T10:11:46.188Z</time></trkpt><trkpt lat="45.05796" lon="9.4980483"><ele>63.75</ele><time>2026-04-04T10:11:47.188Z</time></trkpt><trkpt lat="45.0578833" lon="9.49823"><ele>64.0</ele><time>2026-04-04T10:11:48.189Z</time></trkpt><trkpt lat="45.057805" lon="9.4984117"><ele>64.5</ele><time>2026-04-04T10:11:49.189Z</time></trkpt><trkpt lat="45.0577317" lon="9.4985933"><ele>65.0</ele><time>2026-04-04T10:11:50.189Z</time></trkpt><trkpt lat="45.0576567" lon="9.49877"><ele>65.5</ele><time>2026-04-04T10:11:51.19Z</time></trkpt><trkpt lat="45.0575833" lon="9.4989467"><ele>66.0</ele><time>2026-04-04T10:11:52.191Z</time></trkpt><trkpt lat="45.0575133" lon="9.49912"><ele>66.5</ele><time>2026-04-04T10:11:53.19Z</time></trkpt><trkpt lat="45.0574433" lon="9.499295"><ele>67.0</ele><time>2026-04-04T10:11:54.189Z</time></trkpt><trkpt lat="45.0573733" lon="9.4994633"><ele>67.5</ele><time>2026-04-04T10:11:55.188Z</time></trkpt><trkpt lat="45.0573017" lon="9.4996383"><ele>68.0</ele><time>2026-04-04T10:11:56.188Z</time></trkpt><trkpt lat="45.0572317" lon="9.4998083"><ele>68.0</ele><time>2026-04-04T10:11:57.188Z</time></trkpt><trkpt lat="45.0571583" lon="9.49997"><ele>68.0</ele><time>2026-04-04T10:11:58.189Z</time></trkpt><trkpt lat="45.0570917" lon="9.5001117"><ele>68.0</ele><time>2026-04-04T10:11:59.188Z</time></trkpt><trkpt lat="45.057025" lon="9.5002333"><ele>68.0</ele><time>2026-04-04T10:12:00.188Z</time></trkpt><trkpt lat="45.0569483" lon="9.5003267"><ele>68.0</ele><time>2026-04-04T10:12:01.188Z</time></trkpt><trkpt lat="45.0568617" lon="9.5003767"><ele>68.0</ele><time>2026-04-04T10:12:02.189Z</time></trkpt><trkpt lat="45.0567483" lon="9.5003983"><ele>68.0</ele><time>2026-04-04T10:12:03.188Z</time></trkpt><trkpt lat="45.0566083" lon="9.5004067"><ele>68.0</ele><time>2026-04-04T10:12:04.188Z</time></trkpt><trkpt lat="45.05644" lon="9.5004183"><ele>68.0</ele><time>2026-04-04T10:12:05.188Z</time></trkpt><trkpt lat="45.0562533" lon="9.500435"><ele>68.0</ele><time>2026-04-04T10:12:06.188Z</time></trkpt><trkpt lat="45.056065" lon="9.5004483"><ele>68.0</ele><time>2026-04-04T10:12:07.189Z</time></trkpt><trkpt lat="45.0558933" lon="9.50046"><ele>67.5</ele><time>2026-04-04T10:12:08.188Z</time></trkpt><trkpt lat="45.0557333" lon="9.5004717"><ele>67.0</ele><time>2026-04-04T10:12:09.188Z</time></trkpt><trkpt lat="45.0555883" lon="9.500485"><ele>66.5</ele><time>2026-04-04T10:12:10.188Z</time></trkpt><trkpt lat="45.0554617" lon="9.5004983"><ele>66.0</ele><time>2026-04-04T10:12:11.188Z</time></trkpt><trkpt lat="45.0553583" lon="9.50051"><ele>66.0</ele><time>2026-04-04T10:12:12.188Z</time></trkpt><trkpt lat="45.0552817" lon="9.5005167"><ele>66.0</ele><time>2026-04-04T10:12:13.188Z</time></trkpt><trkpt lat="45.0551933" lon="9.5005283"><ele>66.0</ele><time>2026-04-04T10:12:15.189Z</time></trkpt><trkpt lat="45.0551367" lon="9.5006033"><ele>66.0</ele><time>2026-04-04T10:12:17.191Z</time></trkpt><trkpt lat="45.055125" lon="9.500805"><ele>66.0</ele><time>2026-04-04T10:12:19.195Z</time></trkpt><trkpt lat="45.05513" lon="9.5009683"><ele>66.0</ele><time>2026-04-04T10:12:20.19Z</time></trkpt><trkpt lat="45.055145" lon="9.501175"><ele>66.0</ele><time>2026-04-04T10:12:21.19Z</time></trkpt><trkpt lat="45.05516" lon="9.5013933"><ele>66.0</ele><time>2026-04-04T10:12:22.189Z</time></trkpt><trkpt lat="45.055175" lon="9.501615"><ele>66.0</ele><time>2026-04-04T10:12:23.192Z</time></trkpt><trkpt lat="45.05519" lon="9.5018483"><ele>66.0</ele><time>2026-04-04T10:12:24.19Z</time></trkpt><trkpt lat="45.0552067" lon="9.5021033"><ele>66.0</ele><time>2026-04-04T10:12:25.189Z</time></trkpt><trkpt lat="45.0552233" lon="9.5023783"><ele>65.66666666666667</ele><time>2026-04-04T10:12:26.189Z</time></trkpt><trkpt lat="45.0552383" lon="9.50265"><ele>65.33333333333334</ele><time>2026-04-04T10:12:27.191Z</time></trkpt><trkpt lat="45.055255" lon="9.50293"><ele>65.0</ele><time>2026-04-04T10:12:28.188Z</time></trkpt><trkpt lat="45.0552683" lon="9.5032067"><ele>65.66666666666667</ele><time>2026-04-04T10:12:29.188Z</time></trkpt><trkpt lat="45.055285" lon="9.5034817"><ele>66.33333333333333</ele><time>2026-04-04T10:12:30.188Z</time></trkpt><trkpt lat="45.0553" lon="9.503755"><ele>67.0</ele><time>2026-04-04T10:12:31.189Z</time></trkpt><trkpt lat="45.055315" lon="9.504025"><ele>68.0</ele><time>2026-04-04T10:12:32.19Z</time></trkpt><trkpt lat="45.05533" lon="9.50429"><ele>69.0</ele><time>2026-04-04T10:12:33.188Z</time></trkpt><trkpt lat="45.0553433" lon="9.5045483"><ele>70.0</ele><time>2026-04-04T10:12:34.189Z</time></trkpt><trkpt lat="45.0553533" lon="9.5047917"><ele>71.25</ele><time>2026-04-04T10:12:35.188Z</time></trkpt><trkpt lat="45.055365" lon="9.5050183"><ele>72.5</ele><time>2026-04-04T10:12:36.189Z</time></trkpt><trkpt lat="45.05538" lon="9.50523"><ele>73.75</ele><time>2026-04-04T10:12:37.188Z</time></trkpt><trkpt lat="45.055395" lon="9.505425"><ele>75.0</ele><time>2026-04-04T10:12:38.189Z</time></trkpt><trkpt lat="45.0554067" lon="9.50561"><ele>75.2</ele><time>2026-04-04T10:12:39.189Z</time></trkpt><trkpt lat="45.055415" lon="9.5057783"><ele>75.4</ele><time>2026-04-04T10:12:40.188Z</time></trkpt><trkpt lat="45.0554183" lon="9.5059367"><ele>75.6</ele><time>2026-04-04T10:12:41.19Z</time></trkpt><trkpt lat="45.055415" lon="9.5060817"><ele>75.8</ele><time>2026-04-04T10:12:42.188Z</time></trkpt><trkpt lat="45.0553967" lon="9.50622"><ele>76.0</ele><time>2026-04-04T10:12:43.188Z</time></trkpt><trkpt lat="45.0553683" lon="9.5063533"><ele>74.6</ele><time>2026-04-04T10:12:44.188Z</time></trkpt><trkpt lat="45.0553567" lon="9.5064817"><ele>73.19999999999999</ele><time>2026-04-04T10:12:45.188Z</time></trkpt><trkpt lat="45.055375" lon="9.5066083"><ele>71.80000000000001</ele><time>2026-04-04T10:12:46.188Z</time></trkpt><trkpt lat="45.0554133" lon="9.50675"><ele>70.4</ele><time>2026-04-04T10:12:47.188Z</time></trkpt><trkpt lat="45.0554517" lon="9.5069133"><ele>69.0</ele><time>2026-04-04T10:12:48.189Z</time></trkpt><trkpt lat="45.0554767" lon="9.5071017"><ele>68.33333333333333</ele><time>2026-04-04T10:12:49.188Z</time></trkpt><trkpt lat="45.0554933" lon="9.50731"><ele>67.66666666666666</ele><time>2026-04-04T10:12:50.192Z</time></trkpt><trkpt lat="45.055515" lon="9.5075483"><ele>67.0</ele><time>2026-04-04T10:12:51.19Z</time></trkpt><trkpt lat="45.0555317" lon="9.507825"><ele>67.0</ele><time>2026-04-04T10:12:52.19Z</time></trkpt><trkpt lat="45.0555417" lon="9.508125"><ele>67.0</ele><time>2026-04-04T10:12:53.191Z</time></trkpt><trkpt lat="45.05555" lon="9.5084383"><ele>67.0</ele><time>2026-04-04T10:12:54.19Z</time></trkpt><trkpt lat="45.055555" lon="9.5087567"><ele>66.5</ele><time>2026-04-04T10:12:55.191Z</time></trkpt><trkpt lat="45.05557" lon="9.5090817"><ele>66.0</ele><time>2026-04-04T10:12:56.188Z</time></trkpt><trkpt lat="45.0555867" lon="9.5094067"><ele>66.5</ele><time>2026-04-04T10:12:57.189Z</time></trkpt><trkpt lat="45.0556017" lon="9.5097267"><ele>67.0</ele><time>2026-04-04T10:12:58.189Z</time></trkpt><trkpt lat="45.0556167" lon="9.5100417"><ele>67.0</ele><time>2026-04-04T10:12:59.188Z</time></trkpt><trkpt lat="45.0556317" lon="9.5103583"><ele>67.0</ele><time>2026-04-04T10:13:00.189Z</time></trkpt><trkpt lat="45.055645" lon="9.51067"><ele>67.0</ele><time>2026-04-04T10:13:01.188Z</time></trkpt><trkpt lat="45.0556633" lon="9.5109817"><ele>67.0</ele><time>2026-04-04T10:13:02.189Z</time></trkpt><trkpt lat="45.0556783" lon="9.51129"><ele>67.0</ele><time>2026-04-04T10:13:03.188Z</time></trkpt><trkpt lat="45.0556933" lon="9.5115917"><ele>67.0</ele><time>2026-04-04T10:13:04.188Z</time></trkpt><trkpt lat="45.0557067" lon="9.5118967"><ele>66.66666666666666</ele><time>2026-04-04T10:13:05.189Z</time></trkpt><trkpt lat="45.0557217" lon="9.5122017"><ele>66.33333333333333</ele><time>2026-04-04T10:13:06.188Z</time></trkpt><trkpt lat="45.0557367" lon="9.5125083"><ele>66.0</ele><time>2026-04-04T10:13:07.189Z</time></trkpt><trkpt lat="45.0557517" lon="9.5128217"><ele>66.0</ele><time>2026-04-04T10:13:08.188Z</time></trkpt><trkpt lat="45.05577" lon="9.513135"><ele>66.0</ele><time>2026-04-04T10:13:09.188Z</time></trkpt><trkpt lat="45.0557867" lon="9.5134467"><ele>66.0</ele><time>2026-04-04T10:13:10.188Z</time></trkpt><trkpt lat="45.0558017" lon="9.5137633"><ele>66.0</ele><time>2026-04-04T10:13:11.189Z</time></trkpt><trkpt lat="45.05582" lon="9.5140783"><ele>66.0</ele><time>2026-04-04T10:13:12.188Z</time></trkpt><trkpt lat="45.0558367" lon="9.5143917"><ele>66.0</ele><time>2026-04-04T10:13:13.188Z</time></trkpt><trkpt lat="45.0558533" lon="9.5147083"><ele>65.33333333333333</ele><time>2026-04-04T10:13:14.19Z</time></trkpt><trkpt lat="45.0558683" lon="9.515025"><ele>64.66666666666666</ele><time>2026-04-04T10:13:15.188Z</time></trkpt><trkpt lat="45.055885" lon="9.5153367"><ele>64.0</ele><time>2026-04-04T10:13:16.188Z</time></trkpt><trkpt lat="45.0559" lon="9.5156467"><ele>63.666666666666664</ele><time>2026-04-04T10:13:17.189Z</time></trkpt><trkpt lat="45.0559167" lon="9.5159533"><ele>63.33333333333333</ele><time>2026-04-04T10:13:18.189Z</time></trkpt><trkpt lat="45.05593" lon="9.5162583"><ele>63.0</ele><time>2026-04-04T10:13:19.189Z</time></trkpt><trkpt lat="45.055945" lon="9.516565"><ele>62.66666666666667</ele><time>2026-04-04T10:13:20.191Z</time></trkpt><trkpt lat="45.0559583" lon="9.5168633"><ele>62.333333333333336</ele><time>2026-04-04T10:13:21.19Z</time></trkpt><trkpt lat="45.0559733" lon="9.51716"><ele>62.0</ele><time>2026-04-04T10:13:22.189Z</time></trkpt><trkpt lat="45.0559867" lon="9.517455"><ele>62.0</ele><time>2026-04-04T10:13:23.189Z</time></trkpt><trkpt lat="45.056" lon="9.51775"><ele>62.0</ele><time>2026-04-04T10:13:24.19Z</time></trkpt><trkpt lat="45.056015" lon="9.5180467"><ele>62.0</ele><time>2026-04-04T10:13:25.188Z</time></trkpt><trkpt lat="45.05603" lon="9.5183417"><ele>61.66666666666667</ele><time>2026-04-04T10:13:26.19Z</time></trkpt><trkpt lat="45.0560417" lon="9.5186383"><ele>61.33333333333333</ele><time>2026-04-04T10:13:27.189Z</time></trkpt><trkpt lat="45.0560567" lon="9.51894"><ele>61.0</ele><time>2026-04-04T10:13:28.189Z</time></trkpt><trkpt lat="45.0560733" lon="9.51924"><ele>61.0</ele><time>2026-04-04T10:13:29.188Z</time></trkpt><trkpt lat="45.056085" lon="9.51954"><ele>61.0</ele><time>2026-04-04T10:13:30.188Z</time></trkpt><trkpt lat="45.056095" lon="9.5198383"><ele>61.0</ele><time>2026-04-04T10:13:31.19Z</time></trkpt><trkpt lat="45.05611" lon="9.5201383"><ele>61.33333333333333</ele><time>2026-04-04T10:13:32.189Z</time></trkpt><trkpt lat="45.056125" lon="9.5204367"><ele>61.66666666666667</ele><time>2026-04-04T10:13:33.189Z</time></trkpt><trkpt lat="45.0561383" lon="9.5207367"><ele>62.0</ele><time>2026-04-04T10:13:34.189Z</time></trkpt><trkpt lat="45.05615" lon="9.5210317"><ele>62.0</ele><time>2026-04-04T10:13:35.188Z</time></trkpt><trkpt lat="45.0561633" lon="9.521335"><ele>62.0</ele><time>2026-04-04T10:13:36.189Z</time></trkpt><trkpt lat="45.0561767" lon="9.521635"><ele>62.0</ele><time>2026-04-04T10:13:37.189Z</time></trkpt><trkpt lat="45.0561917" lon="9.52194"><ele>61.66666666666667</ele><time>2026-04-04T10:13:38.188Z</time></trkpt><trkpt lat="45.0562067" lon="9.522235"><ele>61.33333333333333</ele><time>2026-04-04T10:13:39.188Z</time></trkpt><trkpt lat="45.05622" lon="9.5225233"><ele>61.0</ele><time>2026-04-04T10:13:40.189Z</time></trkpt><trkpt lat="45.0562333" lon="9.5228017"><ele>61.33333333333333</ele><time>2026-04-04T10:13:41.188Z</time></trkpt><trkpt lat="45.056245" lon="9.5230617"><ele>61.66666666666667</ele><time>2026-04-04T10:13:42.188Z</time></trkpt><trkpt lat="45.056255" lon="9.523305"><ele>62.0</ele><time>2026-04-04T10:13:43.189Z</time></trkpt><trkpt lat="45.0562667" lon="9.5235317"><ele>63.0</ele><time>2026-04-04T10:13:44.189Z</time></trkpt><trkpt lat="45.0562767" lon="9.5237383"><ele>64.0</ele><time>2026-04-04T10:13:45.19Z</time></trkpt><trkpt lat="45.0562867" lon="9.5239183"><ele>65.0</ele><time>2026-04-04T10:13:46.192Z</time></trkpt><trkpt lat="45.0562917" lon="9.524065"><ele>66.0</ele><time>2026-04-04T10:13:47.19Z</time></trkpt><trkpt lat="45.056285" lon="9.5241667"><ele>66.0</ele><time>2026-04-04T10:13:48.19Z</time></trkpt><trkpt lat="45.056225" lon="9.52427"><ele>66.0</ele><time>2026-04-04T10:13:50.188Z</time></trkpt><trkpt lat="45.0561017" lon="9.5242467"><ele>66.0</ele><time>2026-04-04T10:13:52.188Z</time></trkpt><trkpt lat="45.055985" lon="9.52419"><ele>66.0</ele><time>2026-04-04T10:13:53.188Z</time></trkpt><trkpt lat="45.0558567" lon="9.524135"><ele>67.66666666666667</ele><time>2026-04-04T10:13:54.188Z</time></trkpt><trkpt lat="45.0557117" lon="9.5240717"><ele>69.33333333333334</ele><time>2026-04-04T10:13:55.189Z</time></trkpt><trkpt lat="45.0555567" lon="9.52401"><ele>71.0</ele><time>2026-04-04T10:13:56.189Z</time></trkpt><trkpt lat="45.0553867" lon="9.5239467"><ele>71.0</ele><time>2026-04-04T10:13:57.189Z</time></trkpt><trkpt lat="45.05521" lon="9.5238817"><ele>71.0</ele><time>2026-04-04T10:13:58.188Z</time></trkpt><trkpt lat="45.0550217" lon="9.5238133"><ele>71.0</ele><time>2026-04-04T10:13:59.189Z</time></trkpt><trkpt lat="45.05483" lon="9.5237383"><ele>68.66666666666667</ele><time>2026-04-04T10:14:00.188Z</time></trkpt><trkpt lat="45.0546333" lon="9.523665"><ele>66.33333333333333</ele><time>2026-04-04T10:14:01.189Z</time></trkpt><trkpt lat="45.0544317" lon="9.52359"><ele>64.0</ele><time>2026-04-04T10:14:02.189Z</time></trkpt><trkpt lat="45.05423" lon="9.5235133"><ele>65.66666666666666</ele><time>2026-04-04T10:14:03.188Z</time></trkpt><trkpt lat="45.0540233" lon="9.5234333"><ele>67.33333333333333</ele><time>2026-04-04T10:14:04.188Z</time></trkpt><trkpt lat="45.0538183" lon="9.523355"><ele>69.0</ele><time>2026-04-04T10:14:05.189Z</time></trkpt><trkpt lat="45.05361" lon="9.523275"><ele>69.0</ele><time>2026-04-04T10:14:06.189Z</time></trkpt><trkpt lat="45.0534017" lon="9.5231967"><ele>69.0</ele><time>2026-04-04T10:14:07.188Z</time></trkpt><trkpt lat="45.0531933" lon="9.5231217"><ele>69.0</ele><time>2026-04-04T10:14:08.189Z</time></trkpt><trkpt lat="45.0529867" lon="9.5230433"><ele>68.0</ele><time>2026-04-04T10:14:09.188Z</time></trkpt><trkpt lat="45.0527767" lon="9.5229633"><ele>67.0</ele><time>2026-04-04T10:14:10.189Z</time></trkpt><trkpt lat="45.052565" lon="9.5228833"><ele>66.0</ele><time>2026-04-04T10:14:11.189Z</time></trkpt><trkpt lat="45.0523533" lon="9.522805"><ele>65.0</ele><time>2026-04-04T10:14:12.188Z</time></trkpt><trkpt lat="45.0521433" lon="9.5227267"><ele>64.0</ele><time>2026-04-04T10:14:13.188Z</time></trkpt><trkpt lat="45.0519367" lon="9.5226467"><ele>63.0</ele><time>2026-04-04T10:14:14.189Z</time></trkpt><trkpt lat="45.0517283" lon="9.5225667"><ele>63.0</ele><time>2026-04-04T10:14:15.188Z</time></trkpt><trkpt lat="45.0515217" lon="9.52249"><ele>63.0</ele><time>2026-04-04T10:14:16.188Z</time></trkpt><trkpt lat="45.0513167" lon="9.5224133"><ele>63.0</ele><time>2026-04-04T10:14:17.189Z</time></trkpt><trkpt lat="45.0511133" lon="9.52234"><ele>63.0</ele><time>2026-04-04T10:14:18.195Z</time></trkpt><trkpt lat="45.0509117" lon="9.522265"><ele>63.0</ele><time>2026-04-04T10:14:19.188Z</time></trkpt><trkpt lat="45.05071" lon="9.5221933"><ele>63.0</ele><time>2026-04-04T10:14:20.188Z</time></trkpt><trkpt lat="45.05051" lon="9.52212"><ele>63.0</ele><time>2026-04-04T10:14:21.19Z</time></trkpt><trkpt lat="45.0503083" lon="9.522045"><ele>63.0</ele><time>2026-04-04T10:14:22.188Z</time></trkpt><trkpt lat="45.050105" lon="9.5219683"><ele>63.0</ele><time>2026-04-04T10:14:23.189Z</time></trkpt><trkpt lat="45.0499033" lon="9.5218933"><ele>63.33333333333333</ele><time>2026-04-04T10:14:24.188Z</time></trkpt><trkpt lat="45.0497033" lon="9.52182"><ele>63.666666666666664</ele><time>2026-04-04T10:14:25.188Z</time></trkpt><trkpt lat="45.0495" lon="9.521745"><ele>64.0</ele><time>2026-04-04T10:14:26.191Z</time></trkpt><trkpt lat="45.049295" lon="9.5216683"><ele>64.0</ele><time>2026-04-04T10:14:27.189Z</time></trkpt><trkpt lat="45.0488767" lon="9.5215167"><ele>64.0</ele><time>2026-04-04T10:14:29.188Z</time></trkpt><trkpt lat="45.048665" lon="9.5214383"><ele>64.0</ele><time>2026-04-04T10:14:30.188Z</time></trkpt><trkpt lat="45.0484533" lon="9.5213583"><ele>64.0</ele><time>2026-04-04T10:14:31.188Z</time></trkpt><trkpt lat="45.0482367" lon="9.52128"><ele>64.0</ele><time>2026-04-04T10:14:32.189Z</time></trkpt><trkpt lat="45.04802" lon="9.5211983"><ele>64.0</ele><time>2026-04-04T10:14:33.188Z</time></trkpt><trkpt lat="45.0478" lon="9.5211183"><ele>64.0</ele><time>2026-04-04T10:14:34.188Z</time></trkpt><trkpt lat="45.0475783" lon="9.5210333"><ele>64.5</ele><time>2026-04-04T10:14:35.188Z</time></trkpt><trkpt lat="45.0473567" lon="9.5209483"><ele>65.0</ele><time>2026-04-04T10:14:36.188Z</time></trkpt><trkpt lat="45.0471383" lon="9.520865"><ele>65.0</ele><time>2026-04-04T10:14:37.188Z</time></trkpt><trkpt lat="45.046925" lon="9.5207867"><ele>65.0</ele><time>2026-04-04T10:14:38.188Z</time></trkpt><trkpt lat="45.0467133" lon="9.52071"><ele>65.0</ele><time>2026-04-04T10:14:39.188Z</time></trkpt><trkpt lat="45.0465067" lon="9.520635"><ele>65.0</ele><time>2026-04-04T10:14:40.188Z</time></trkpt><trkpt lat="45.046305" lon="9.5205567"><ele>65.0</ele><time>2026-04-04T10:14:41.188Z</time></trkpt><trkpt lat="45.0461" lon="9.5204817"><ele>65.0</ele><time>2026-04-04T10:14:42.188Z</time></trkpt><trkpt lat="45.04589" lon="9.5204033"><ele>65.0</ele><time>2026-04-04T10:14:43.188Z</time></trkpt><trkpt lat="45.0456783" lon="9.5203267"><ele>65.0</ele><time>2026-04-04T10:14:44.189Z</time></trkpt><trkpt lat="45.04547" lon="9.52025"><ele>65.0</ele><time>2026-04-04T10:14:45.189Z</time></trkpt><trkpt lat="45.045265" lon="9.5201733"><ele>65.0</ele><time>2026-04-04T10:14:46.193Z</time></trkpt><trkpt lat="45.0450683" lon="9.5200983"><ele>65.0</ele><time>2026-04-04T10:14:47.189Z</time></trkpt><trkpt lat="45.0448867" lon="9.5200267"><ele>65.0</ele><time>2026-04-04T10:14:48.188Z</time></trkpt><trkpt lat="45.04471" lon="9.5199617"><ele>64.66666666666667</ele><time>2026-04-04T10:14:49.188Z</time></trkpt><trkpt lat="45.044535" lon="9.5198983"><ele>64.33333333333333</ele><time>2026-04-04T10:14:50.19Z</time></trkpt><trkpt lat="45.044365" lon="9.5198383"><ele>64.0</ele><time>2026-04-04T10:14:51.19Z</time></trkpt><trkpt lat="45.0442033" lon="9.5197817"><ele>65.0</ele><time>2026-04-04T10:14:52.188Z</time></trkpt><trkpt lat="45.0440467" lon="9.519725"><ele>66.0</ele><time>2026-04-04T10:14:53.188Z</time></trkpt><trkpt lat="45.0438917" lon="9.5196683"><ele>67.0</ele><time>2026-04-04T10:14:54.189Z</time></trkpt><trkpt lat="45.0437433" lon="9.51961"><ele>66.75</ele><time>2026-04-04T10:14:55.189Z</time></trkpt><trkpt lat="45.0436017" lon="9.5195533"><ele>66.5</ele><time>2026-04-04T10:14:56.189Z</time></trkpt><trkpt lat="45.0434633" lon="9.5195033"><ele>66.25</ele><time>2026-04-04T10:14:57.188Z</time></trkpt><trkpt lat="45.0433283" lon="9.519455"><ele>66.0</ele><time>2026-04-04T10:14:58.188Z</time></trkpt><trkpt lat="45.0432" lon="9.51941"><ele>66.8</ele><time>2026-04-04T10:14:59.189Z</time></trkpt><trkpt lat="45.0430783" lon="9.5193717"><ele>67.6</ele><time>2026-04-04T10:15:00.188Z</time></trkpt><trkpt lat="45.04297" lon="9.5193367"><ele>68.4</ele><time>2026-04-04T10:15:01.188Z</time></trkpt><trkpt lat="45.04287" lon="9.519305"><ele>69.2</ele><time>2026-04-04T10:15:02.19Z</time></trkpt><trkpt lat="45.0427817" lon="9.5192733"><ele>70.0</ele><time>2026-04-04T10:15:03.188Z</time></trkpt><trkpt lat="45.0427017" lon="9.5192433"><ele>70.0</ele><time>2026-04-04T10:15:04.189Z</time></trkpt><trkpt lat="45.0426333" lon="9.51921"><ele>70.0</ele><time>2026-04-04T10:15:05.188Z</time></trkpt><trkpt lat="45.04255" lon="9.5190983"><ele>70.0</ele><time>2026-04-04T10:15:07.19Z</time></trkpt><trkpt lat="45.0425783" lon="9.5188283"><ele>70.0</ele><time>2026-04-04T10:15:10.19Z</time></trkpt><trkpt lat="45.0425783" lon="9.5186933"><ele>70.0</ele><time>2026-04-04T10:15:12.189Z</time></trkpt><trkpt lat="45.0424817" lon="9.5185783"><ele>70.0</ele><time>2026-04-04T10:15:14.189Z</time></trkpt><trkpt lat="45.0423967" lon="9.5185367"><ele>70.0</ele><time>2026-04-04T10:15:15.188Z</time></trkpt><trkpt lat="45.0423067" lon="9.51849"><ele>70.0</ele><time>2026-04-04T10:15:16.188Z</time></trkpt><trkpt lat="45.0422117" lon="9.5184517"><ele>70.0</ele><time>2026-04-04T10:15:17.19Z</time></trkpt><trkpt lat="45.0421217" lon="9.51842"><ele>70.0</ele><time>2026-04-04T10:15:18.189Z</time></trkpt><trkpt lat="45.0420117" lon="9.5184167"><ele>70.0</ele><time>2026-04-04T10:15:19.191Z</time></trkpt><trkpt lat="45.0418917" lon="9.518425"><ele>70.0</ele><time>2026-04-04T10:15:20.19Z</time></trkpt><trkpt lat="45.0417667" lon="9.5184467"><ele>70.0</ele><time>2026-04-04T10:15:21.188Z</time></trkpt><trkpt lat="45.0416483" lon="9.5184633"><ele>69.25</ele><time>2026-04-04T10:15:22.188Z</time></trkpt><trkpt lat="45.041535" lon="9.5184783"><ele>68.5</ele><time>2026-04-04T10:15:23.188Z</time></trkpt><trkpt lat="45.04142" lon="9.5184833"><ele>67.75</ele><time>2026-04-04T10:15:24.188Z</time></trkpt><trkpt lat="45.041305" lon="9.5184833"><ele>67.0</ele><time>2026-04-04T10:15:25.188Z</time></trkpt><trkpt lat="45.0411883" lon="9.5184733"><ele>67.0</ele><time>2026-04-04T10:15:26.188Z</time></trkpt><trkpt lat="45.0410583" lon="9.518455"><ele>67.0</ele><time>2026-04-04T10:15:27.189Z</time></trkpt><trkpt lat="45.0409133" lon="9.5184233"><ele>67.0</ele><time>2026-04-04T10:15:28.189Z</time></trkpt><trkpt lat="45.040755" lon="9.5183733"><ele>67.0</ele><time>2026-04-04T10:15:29.188Z</time></trkpt><trkpt lat="45.0405833" lon="9.5183167"><ele>67.33333333333333</ele><time>2026-04-04T10:15:30.188Z</time></trkpt><trkpt lat="45.040405" lon="9.5182583"><ele>67.66666666666667</ele><time>2026-04-04T10:15:31.19Z</time></trkpt><trkpt lat="45.0402233" lon="9.518205"><ele>68.0</ele><time>2026-04-04T10:15:32.188Z</time></trkpt><trkpt lat="45.04004" lon="9.51815"><ele>68.0</ele><time>2026-04-04T10:15:33.188Z</time></trkpt><trkpt lat="45.0398583" lon="9.518095"><ele>68.0</ele><time>2026-04-04T10:15:34.188Z</time></trkpt><trkpt lat="45.039685" lon="9.518035"><ele>68.0</ele><time>2026-04-04T10:15:35.189Z</time></trkpt><trkpt lat="45.0395083" lon="9.5179733"><ele>68.0</ele><time>2026-04-04T10:15:36.188Z</time></trkpt><trkpt lat="45.039335" lon="9.517915"><ele>68.0</ele><time>2026-04-04T10:15:37.188Z</time></trkpt><trkpt lat="45.0391717" lon="9.5178583"><ele>68.0</ele><time>2026-04-04T10:15:38.188Z</time></trkpt><trkpt lat="45.0390167" lon="9.5178033"><ele>68.75</ele><time>2026-04-04T10:15:39.19Z</time></trkpt><trkpt lat="45.0388733" lon="9.5177433"><ele>69.5</ele><time>2026-04-04T10:15:40.189Z</time></trkpt><trkpt lat="45.038735" lon="9.517675"><ele>70.25</ele><time>2026-04-04T10:15:41.189Z</time></trkpt><trkpt lat="45.0385967" lon="9.517595"><ele>71.0</ele><time>2026-04-04T10:15:42.188Z</time></trkpt><trkpt lat="45.0384533" lon="9.517495"><ele>71.0</ele><time>2026-04-04T10:15:43.188Z</time></trkpt><trkpt lat="45.03831" lon="9.517375"><ele>71.0</ele><time>2026-04-04T10:15:44.189Z</time></trkpt><trkpt lat="45.0381617" lon="9.51725"><ele>71.0</ele><time>2026-04-04T10:15:45.189Z</time></trkpt><trkpt lat="45.0380183" lon="9.5171317"><ele>70.66666666666667</ele><time>2026-04-04T10:15:46.188Z</time></trkpt><trkpt lat="45.0378767" lon="9.5170217"><ele>70.33333333333333</ele><time>2026-04-04T10:15:47.19Z</time></trkpt><trkpt lat="45.0377267" lon="9.5169217"><ele>70.0</ele><time>2026-04-04T10:15:48.188Z</time></trkpt><trkpt lat="45.0375617" lon="9.516835"><ele>70.33333333333333</ele><time>2026-04-04T10:15:49.19Z</time></trkpt><trkpt lat="45.037385" lon="9.516765"><ele>70.66666666666667</ele><time>2026-04-04T10:15:50.19Z</time></trkpt><trkpt lat="45.0372017" lon="9.5167017"><ele>71.0</ele><time>2026-04-04T10:15:51.188Z</time></trkpt><trkpt lat="45.0370167" lon="9.5166467"><ele>71.0</ele><time>2026-04-04T10:15:52.189Z</time></trkpt><trkpt lat="45.0368383" lon="9.516595"><ele>71.0</ele><time>2026-04-04T10:15:53.19Z</time></trkpt><trkpt lat="45.0366617" lon="9.5165483"><ele>71.0</ele><time>2026-04-04T10:15:54.19Z</time></trkpt><trkpt lat="45.0364833" lon="9.5165033"><ele>71.33333333333334</ele><time>2026-04-04T10:15:55.189Z</time></trkpt><trkpt lat="45.036305" lon="9.5164583"><ele>71.66666666666667</ele><time>2026-04-04T10:15:56.189Z</time></trkpt><trkpt lat="45.0361267" lon="9.5164183"><ele>72.0</ele><time>2026-04-04T10:15:57.188Z</time></trkpt><trkpt lat="45.03595" lon="9.51638"><ele>72.0</ele><time>2026-04-04T10:15:58.19Z</time></trkpt><trkpt lat="45.0357733" lon="9.5163383"><ele>72.0</ele><time>2026-04-04T10:15:59.188Z</time></trkpt><trkpt lat="45.035595" lon="9.5162933"><ele>72.0</ele><time>2026-04-04T10:16:00.188Z</time></trkpt><trkpt lat="45.0354183" lon="9.5162483"><ele>72.33333333333333</ele><time>2026-04-04T10:16:01.189Z</time></trkpt><trkpt lat="45.0352383" lon="9.5161983"><ele>72.66666666666666</ele><time>2026-04-04T10:16:02.188Z</time></trkpt><trkpt lat="45.035065" lon="9.5161467"><ele>73.0</ele><time>2026-04-04T10:16:03.188Z</time></trkpt><trkpt lat="45.0349017" lon="9.5161033"><ele>73.25</ele><time>2026-04-04T10:16:04.189Z</time></trkpt><trkpt lat="45.0347483" lon="9.51606"><ele>73.5</ele><time>2026-04-04T10:16:05.19Z</time></trkpt><trkpt lat="45.0346067" lon="9.5160183"><ele>73.75</ele><time>2026-04-04T10:16:06.19Z</time></trkpt><trkpt lat="45.0344783" lon="9.51598"><ele>74.0</ele><time>2026-04-04T10:16:07.188Z</time></trkpt><trkpt lat="45.0343617" lon="9.5159483"><ele>74.0</ele><time>2026-04-04T10:16:08.189Z</time></trkpt><trkpt lat="45.03427" lon="9.51592"><ele>74.0</ele><time>2026-04-04T10:16:09.189Z</time></trkpt><trkpt lat="45.034195" lon="9.5158967"><ele>74.0</ele><time>2026-04-04T10:16:10.188Z</time></trkpt><trkpt lat="45.03413" lon="9.5158883"><ele>74.0</ele><time>2026-04-04T10:16:11.188Z</time></trkpt><trkpt lat="45.03405" lon="9.5159317"><ele>74.0</ele><time>2026-04-04T10:16:13.189Z</time></trkpt><trkpt lat="45.03401" lon="9.5160417"><ele>74.0</ele><time>2026-04-04T10:16:15.188Z</time></trkpt><trkpt lat="45.0340067" lon="9.5161483"><ele>74.25</ele><time>2026-04-04T10:16:16.188Z</time></trkpt><trkpt lat="45.0339967" lon="9.5162783"><ele>74.5</ele><time>2026-04-04T10:16:17.188Z</time></trkpt><trkpt lat="45.0339817" lon="9.5164533"><ele>74.75</ele><time>2026-04-04T10:16:18.189Z</time></trkpt><trkpt lat="45.0339533" lon="9.516645"><ele>75.0</ele><time>2026-04-04T10:16:19.189Z</time></trkpt><trkpt lat="45.033925" lon="9.51684"><ele>75.0</ele><time>2026-04-04T10:16:20.19Z</time></trkpt><trkpt lat="45.0338967" lon="9.517035"><ele>75.0</ele><time>2026-04-04T10:16:21.19Z</time></trkpt><trkpt lat="45.0338683" lon="9.5172217"><ele>75.0</ele><time>2026-04-04T10:16:22.19Z</time></trkpt><trkpt lat="45.0338417" lon="9.5174083"><ele>75.0</ele><time>2026-04-04T10:16:23.191Z</time></trkpt><trkpt lat="45.033815" lon="9.5175883"><ele>75.0</ele><time>2026-04-04T10:16:24.19Z</time></trkpt><trkpt lat="45.03379" lon="9.517765"><ele>75.0</ele><time>2026-04-04T10:16:25.19Z</time></trkpt><trkpt lat="45.0337667" lon="9.5179333"><ele>75.0</ele><time>2026-04-04T10:16:26.19Z</time></trkpt><trkpt lat="45.0337433" lon="9.5180917"><ele>75.0</ele><time>2026-04-04T10:16:27.19Z</time></trkpt><trkpt lat="45.0337233" lon="9.5182467"><ele>75.0</ele><time>2026-04-04T10:16:28.19Z</time></trkpt><trkpt lat="45.033705" lon="9.5184033"><ele>75.0</ele><time>2026-04-04T10:16:29.189Z</time></trkpt><trkpt lat="45.0336933" lon="9.5185583"><ele>75.0</ele><time>2026-04-04T10:16:30.188Z</time></trkpt><trkpt lat="45.0336833" lon="9.5187083"><ele>75.0</ele><time>2026-04-04T10:16:31.188Z</time></trkpt><trkpt lat="45.0336733" lon="9.51885"><ele>75.0</ele><time>2026-04-04T10:16:32.189Z</time></trkpt><trkpt lat="45.0336633" lon="9.518985"><ele>75.0</ele><time>2026-04-04T10:16:33.188Z</time></trkpt><trkpt lat="45.0336517" lon="9.5191067"><ele>75.0</ele><time>2026-04-04T10:16:34.188Z</time></trkpt><trkpt lat="45.0336333" lon="9.5192217"><ele>75.0</ele><time>2026-04-04T10:16:35.188Z</time></trkpt><trkpt lat="45.03361" lon="9.5193317"><ele>75.0</ele><time>2026-04-04T10:16:36.188Z</time></trkpt><trkpt lat="45.033585" lon="9.5194567"><ele>75.0</ele><time>2026-04-04T10:16:37.189Z</time></trkpt><trkpt lat="45.0335583" lon="9.5195933"><ele>75.0</ele><time>2026-04-04T10:16:38.192Z</time></trkpt><trkpt lat="45.0335367" lon="9.5197317"><ele>75.0</ele><time>2026-04-04T10:16:39.19Z</time></trkpt><trkpt lat="45.0335183" lon="9.5198733"><ele>75.0</ele><time>2026-04-04T10:16:40.188Z</time></trkpt><trkpt lat="45.033505" lon="9.5200117"><ele>75.0</ele><time>2026-04-04T10:16:41.189Z</time></trkpt><trkpt lat="45.0334933" lon="9.52014"><ele>75.0</ele><time>2026-04-04T10:16:42.188Z</time></trkpt><trkpt lat="45.03348" lon="9.52026"><ele>75.0</ele><time>2026-04-04T10:16:43.188Z</time></trkpt><trkpt lat="45.03347" lon="9.5203683"><ele>75.0</ele><time>2026-04-04T10:16:44.189Z</time></trkpt><trkpt lat="45.0334617" lon="9.5204733"><ele>75.0</ele><time>2026-04-04T10:16:45.188Z</time></trkpt><trkpt lat="45.033455" lon="9.5205783"><ele>75.0</ele><time>2026-04-04T10:16:46.188Z</time></trkpt><trkpt lat="45.03345" lon="9.5206833"><ele>75.0</ele><time>2026-04-04T10:16:47.19Z</time></trkpt><trkpt lat="45.0334417" lon="9.5207933"><ele>75.0</ele><time>2026-04-04T10:16:48.189Z</time></trkpt><trkpt lat="45.0334283" lon="9.5209017"><ele>75.0</ele><time>2026-04-04T10:16:49.191Z</time></trkpt><trkpt lat="45.0334133" lon="9.5210083"><ele>75.0</ele><time>2026-04-04T10:16:50.19Z</time></trkpt><trkpt lat="45.0334017" lon="9.5211133"><ele>75.0</ele><time>2026-04-04T10:16:51.19Z</time></trkpt><trkpt lat="45.03339" lon="9.521215"><ele>75.0</ele><time>2026-04-04T10:16:52.188Z</time></trkpt><trkpt lat="45.033375" lon="9.5213117"><ele>75.0</ele><time>2026-04-04T10:16:53.188Z</time></trkpt><trkpt lat="45.03336" lon="9.5214033"><ele>75.0</ele><time>2026-04-04T10:16:54.189Z</time></trkpt><trkpt lat="45.033335" lon="9.5215717"><ele>75.0</ele><time>2026-04-04T10:16:56.189Z</time></trkpt><trkpt lat="45.0333267" lon="9.521665"><ele>75.0</ele><time>2026-04-04T10:16:57.189Z</time></trkpt><trkpt lat="45.0333167" lon="9.52177"><ele>75.0</ele><time>2026-04-04T10:16:58.189Z</time></trkpt><trkpt lat="45.0333067" lon="9.521875"><ele>75.0</ele><time>2026-04-04T10:16:59.188Z</time></trkpt><trkpt lat="45.0332967" lon="9.5219817"><ele>75.0</ele><time>2026-04-04T10:17:00.188Z</time></trkpt><trkpt lat="45.033285" lon="9.5220933"><ele>75.0</ele><time>2026-04-04T10:17:01.189Z</time></trkpt><trkpt lat="45.0332683" lon="9.5222017"><ele>75.0</ele><time>2026-04-04T10:17:02.189Z</time></trkpt><trkpt lat="45.0332517" lon="9.5223183"><ele>75.16666666666667</ele><time>2026-04-04T10:17:03.189Z</time></trkpt><trkpt lat="45.033235" lon="9.5224283"><ele>75.33333333333333</ele><time>2026-04-04T10:17:04.188Z</time></trkpt><trkpt lat="45.03322" lon="9.5225417"><ele>75.5</ele><time>2026-04-04T10:17:05.188Z</time></trkpt><trkpt lat="45.0332033" lon="9.5226483"><ele>75.66666666666666</ele><time>2026-04-04T10:17:06.189Z</time></trkpt><trkpt lat="45.0331883" lon="9.52275"><ele>75.83333333333333</ele><time>2026-04-04T10:17:07.189Z</time></trkpt><trkpt lat="45.0331733" lon="9.5228567"><ele>76.0</ele><time>2026-04-04T10:17:08.188Z</time></trkpt><trkpt lat="45.03316" lon="9.5229617"><ele>75.5</ele><time>2026-04-04T10:17:09.189Z</time></trkpt><trkpt lat="45.033145" lon="9.5230683"><ele>75.0</ele><time>2026-04-04T10:17:10.189Z</time></trkpt><trkpt lat="45.03313" lon="9.5231683"><ele>74.5</ele><time>2026-04-04T10:17:11.191Z</time></trkpt><trkpt lat="45.0331133" lon="9.5232633"><ele>74.0</ele><time>2026-04-04T10:17:12.189Z</time></trkpt><trkpt lat="45.0330967" lon="9.523355"><ele>73.5</ele><time>2026-04-04T10:17:13.188Z</time></trkpt><trkpt lat="45.0330817" lon="9.5234417"><ele>73.0</ele><time>2026-04-04T10:17:14.189Z</time></trkpt><trkpt lat="45.0330617" lon="9.5236067"><ele>72.8</ele><time>2026-04-04T10:17:16.188Z</time></trkpt><trkpt lat="45.0330383" lon="9.5237467"><ele>72.6</ele><time>2026-04-04T10:17:18.188Z</time></trkpt><trkpt lat="45.03303" lon="9.523875"><ele>72.4</ele><time>2026-04-04T10:17:20.189Z</time></trkpt><trkpt lat="45.032995" lon="9.523985"><ele>72.2</ele><time>2026-04-04T10:17:22.188Z</time></trkpt><trkpt lat="45.0329267" lon="9.52404"><ele>72.0</ele><time>2026-04-04T10:17:24.188Z</time></trkpt><trkpt lat="45.032795" lon="9.5240217"><ele>72.0</ele><time>2026-04-04T10:17:26.189Z</time></trkpt><trkpt lat="45.0326983" lon="9.5239883"><ele>72.0</ele><time>2026-04-04T10:17:27.188Z</time></trkpt><trkpt lat="45.0325967" lon="9.5239617"><ele>72.0</ele><time>2026-04-04T10:17:28.189Z</time></trkpt><trkpt lat="45.0324933" lon="9.523935"><ele>72.0</ele><time>2026-04-04T10:17:29.188Z</time></trkpt><trkpt lat="45.0323833" lon="9.5239083"><ele>72.0</ele><time>2026-04-04T10:17:30.188Z</time></trkpt><trkpt lat="45.0322683" lon="9.523885"><ele>72.0</ele><time>2026-04-04T10:17:31.188Z</time></trkpt><trkpt lat="45.0321483" lon="9.52386"><ele>72.0</ele><time>2026-04-04T10:17:32.189Z</time></trkpt><trkpt lat="45.0320217" lon="9.523835"><ele>72.0</ele><time>2026-04-04T10:17:33.189Z</time></trkpt><trkpt lat="45.0318933" lon="9.5238067"><ele>72.0</ele><time>2026-04-04T10:17:34.189Z</time></trkpt><trkpt lat="45.0317683" lon="9.52378"><ele>72.0</ele><time>2026-04-04T10:17:35.188Z</time></trkpt><trkpt lat="45.0316467" lon="9.523755"><ele>72.0</ele><time>2026-04-04T10:17:36.189Z</time></trkpt><trkpt lat="45.0315317" lon="9.5237333"><ele>72.0</ele><time>2026-04-04T10:17:37.189Z</time></trkpt><trkpt lat="45.031415" lon="9.5237133"><ele>72.0</ele><time>2026-04-04T10:17:38.188Z</time></trkpt><trkpt lat="45.031295" lon="9.52369"><ele>72.75</ele><time>2026-04-04T10:17:39.193Z</time></trkpt><trkpt lat="45.0311717" lon="9.5236683"><ele>73.5</ele><time>2026-04-04T10:17:40.189Z</time></trkpt><trkpt lat="45.031055" lon="9.5236517"><ele>74.25</ele><time>2026-04-04T10:17:41.189Z</time></trkpt><trkpt lat="45.0309283" lon="9.52363"><ele>75.0</ele><time>2026-04-04T10:17:42.188Z</time></trkpt><trkpt lat="45.0307983" lon="9.5236067"><ele>75.0</ele><time>2026-04-04T10:17:43.189Z</time></trkpt><trkpt lat="45.0306633" lon="9.52358"><ele>75.0</ele><time>2026-04-04T10:17:44.189Z</time></trkpt><trkpt lat="45.03053" lon="9.5235517"><ele>75.0</ele><time>2026-04-04T10:17:45.188Z</time></trkpt><trkpt lat="45.0304" lon="9.523525"><ele>75.0</ele><time>2026-04-04T10:17:46.188Z</time></trkpt><trkpt lat="45.0302683" lon="9.5234983"><ele>75.0</ele><time>2026-04-04T10:17:47.188Z</time></trkpt><trkpt lat="45.0301367" lon="9.5234717"><ele>75.0</ele><time>2026-04-04T10:17:48.188Z</time></trkpt><trkpt lat="45.0300017" lon="9.5234433"><ele>75.0</ele><time>2026-04-04T10:17:49.188Z</time></trkpt><trkpt lat="45.029865" lon="9.5234133"><ele>75.0</ele><time>2026-04-04T10:17:50.189Z</time></trkpt><trkpt lat="45.029735" lon="9.5233833"><ele>75.5</ele><time>2026-04-04T10:17:51.188Z</time></trkpt><trkpt lat="45.0296067" lon="9.5233583"><ele>76.0</ele><time>2026-04-04T10:17:52.189Z</time></trkpt><trkpt lat="45.0294733" lon="9.523335"><ele>76.5</ele><time>2026-04-04T10:17:53.19Z</time></trkpt><trkpt lat="45.0293433" lon="9.5233133"><ele>77.0</ele><time>2026-04-04T10:17:54.189Z</time></trkpt><trkpt lat="45.02921" lon="9.52329"><ele>77.25</ele><time>2026-04-04T10:17:55.188Z</time></trkpt><trkpt lat="45.029075" lon="9.523265"><ele>77.5</ele><time>2026-04-04T10:17:56.19Z</time></trkpt><trkpt lat="45.028945" lon="9.5232417"><ele>77.75</ele><time>2026-04-04T10:17:57.189Z</time></trkpt><trkpt lat="45.0288283" lon="9.5232167"><ele>78.0</ele><time>2026-04-04T10:17:58.188Z</time></trkpt><trkpt lat="45.0287267" lon="9.5231983"><ele>78.0</ele><time>2026-04-04T10:17:59.188Z</time></trkpt><trkpt lat="45.0286383" lon="9.52318"><ele>78.0</ele><time>2026-04-04T10:18:00.188Z</time></trkpt><trkpt lat="45.0285683" lon="9.5231567"><ele>78.0</ele><time>2026-04-04T10:18:01.19Z</time></trkpt><trkpt lat="45.0285033" lon="9.523145"><ele>78.0</ele><time>2026-04-04T10:18:02.188Z</time></trkpt><trkpt lat="45.0284" lon="9.523155"><ele>78.0</ele><time>2026-04-04T10:18:04.279Z</time></trkpt><trkpt lat="45.0283217" lon="9.5232467"><ele>78.0</ele><time>2026-04-04T10:18:06.188Z</time></trkpt><trkpt lat="45.0282783" lon="9.5233333"><ele>77.75</ele><time>2026-04-04T10:18:07.19Z</time></trkpt><trkpt lat="45.02822" lon="9.5234583"><ele>77.5</ele><time>2026-04-04T10:18:08.188Z</time></trkpt><trkpt lat="45.0281567" lon="9.523625"><ele>77.25</ele><time>2026-04-04T10:18:09.188Z</time></trkpt><trkpt lat="45.0280667" lon="9.5238383"><ele>77.0</ele><time>2026-04-04T10:18:10.189Z</time></trkpt><trkpt lat="45.0279583" lon="9.5240767"><ele>77.0</ele><time>2026-04-04T10:18:11.189Z</time></trkpt><trkpt lat="45.0278617" lon="9.5243017"><ele>77.0</ele><time>2026-04-04T10:18:12.188Z</time></trkpt><trkpt lat="45.0277767" lon="9.5245117"><ele>77.0</ele><time>2026-04-04T10:18:13.188Z</time></trkpt><trkpt lat="45.0277" lon="9.524705"><ele>77.0</ele><time>2026-04-04T10:18:14.189Z</time></trkpt><trkpt lat="45.02763" lon="9.5248767"><ele>77.0</ele><time>2026-04-04T10:18:15.188Z</time></trkpt><trkpt lat="45.0275667" lon="9.5250283"><ele>77.0</ele><time>2026-04-04T10:18:16.189Z</time></trkpt><trkpt lat="45.02751" lon="9.525165"><ele>77.0</ele><time>2026-04-04T10:18:17.188Z</time></trkpt><trkpt lat="45.027455" lon="9.5252967"><ele>77.25</ele><time>2026-04-04T10:18:18.188Z</time></trkpt><trkpt lat="45.0273467" lon="9.525555"><ele>77.5</ele><time>2026-04-04T10:18:20.189Z</time></trkpt><trkpt lat="45.0272983" lon="9.5256683"><ele>77.75</ele><time>2026-04-04T10:18:21.188Z</time></trkpt><trkpt lat="45.0272567" lon="9.52577"><ele>78.0</ele><time>2026-04-04T10:18:22.188Z</time></trkpt><trkpt lat="45.0272217" lon="9.525855"><ele>78.0</ele><time>2026-04-04T10:18:23.188Z</time></trkpt><trkpt lat="45.0271733" lon="9.5259367"><ele>78.0</ele><time>2026-04-04T10:18:25.189Z</time></trkpt><trkpt lat="45.0271083" lon="9.52595"><ele>78.0</ele><time>2026-04-04T10:18:27.19Z</time></trkpt><trkpt lat="45.02699" lon="9.5258633"><ele>78.0</ele><time>2026-04-04T10:18:29.188Z</time></trkpt><trkpt lat="45.026895" lon="9.5257933"><ele>78.0</ele><time>2026-04-04T10:18:30.188Z</time></trkpt><trkpt lat="45.026775" lon="9.5257083"><ele>78.0</ele><time>2026-04-04T10:18:31.187Z</time></trkpt><trkpt lat="45.0266633" lon="9.525635"><ele>78.0</ele><time>2026-04-04T10:18:32.187Z</time></trkpt><trkpt lat="45.02656" lon="9.5255683"><ele>78.0</ele><time>2026-04-04T10:18:33.187Z</time></trkpt><trkpt lat="45.026455" lon="9.5255017"><ele>78.0</ele><time>2026-04-04T10:18:34.188Z</time></trkpt><trkpt lat="45.0263533" lon="9.5254333"><ele>77.75</ele><time>2026-04-04T10:18:35.19Z</time></trkpt><trkpt lat="45.0262517" lon="9.52536"><ele>77.5</ele><time>2026-04-04T10:18:36.188Z</time></trkpt><trkpt lat="45.0261417" lon="9.5252833"><ele>77.25</ele><time>2026-04-04T10:18:37.19Z</time></trkpt><trkpt lat="45.026025" lon="9.5252067"><ele>77.0</ele><time>2026-04-04T10:18:38.188Z</time></trkpt><trkpt lat="45.0259117" lon="9.5251317"><ele>77.0</ele><time>2026-04-04T10:18:39.189Z</time></trkpt><trkpt lat="45.0258" lon="9.5250583"><ele>77.0</ele><time>2026-04-04T10:18:40.188Z</time></trkpt><trkpt lat="45.0256917" lon="9.524985"><ele>77.0</ele><time>2026-04-04T10:18:41.189Z</time></trkpt><trkpt lat="45.025585" lon="9.5249117"><ele>77.0</ele><time>2026-04-04T10:18:42.188Z</time></trkpt><trkpt lat="45.0254833" lon="9.5248433"><ele>77.0</ele><time>2026-04-04T10:18:43.187Z</time></trkpt><trkpt lat="45.0253767" lon="9.5247717"><ele>77.0</ele><time>2026-04-04T10:18:44.188Z</time></trkpt><trkpt lat="45.0252683" lon="9.5247"><ele>77.0</ele><time>2026-04-04T10:18:45.188Z</time></trkpt><trkpt lat="45.025165" lon="9.5246283"><ele>77.0</ele><time>2026-04-04T10:18:46.187Z</time></trkpt><trkpt lat="45.02506" lon="9.5245583"><ele>77.0</ele><time>2026-04-04T10:18:47.187Z</time></trkpt><trkpt lat="45.0249533" lon="9.5244867"><ele>77.0</ele><time>2026-04-04T10:18:48.189Z</time></trkpt><trkpt lat="45.0248467" lon="9.524415"><ele>77.0</ele><time>2026-04-04T10:18:49.187Z</time></trkpt><trkpt lat="45.0247417" lon="9.5243433"><ele>77.0</ele><time>2026-04-04T10:18:50.187Z</time></trkpt><trkpt lat="45.0246367" lon="9.52427"><ele>77.0</ele><time>2026-04-04T10:18:51.187Z</time></trkpt><trkpt lat="45.0245333" lon="9.5241967"><ele>77.0</ele><time>2026-04-04T10:18:52.187Z</time></trkpt><trkpt lat="45.0244283" lon="9.5241233"><ele>77.0</ele><time>2026-04-04T10:18:53.187Z</time></trkpt><trkpt lat="45.0243317" lon="9.5240583"><ele>77.0</ele><time>2026-04-04T10:18:54.188Z</time></trkpt><trkpt lat="45.02425" lon="9.5240017"><ele>77.0</ele><time>2026-04-04T10:18:55.189Z</time></trkpt><trkpt lat="45.024175" lon="9.5239517"><ele>77.4</ele><time>2026-04-04T10:18:56.188Z</time></trkpt><trkpt lat="45.0240933" lon="9.5239083"><ele>77.80000000000001</ele><time>2026-04-04T10:18:57.188Z</time></trkpt><trkpt lat="45.0240033" lon="9.5238667"><ele>78.2</ele><time>2026-04-04T10:18:58.187Z</time></trkpt><trkpt lat="45.0239033" lon="9.5238233"><ele>78.60000000000001</ele><time>2026-04-04T10:18:59.187Z</time></trkpt><trkpt lat="45.0237967" lon="9.523775"><ele>79.0</ele><time>2026-04-04T10:19:00.189Z</time></trkpt><trkpt lat="45.023685" lon="9.5237267"><ele>79.2</ele><time>2026-04-04T10:19:01.188Z</time></trkpt><trkpt lat="45.0235733" lon="9.5236783"><ele>79.4</ele><time>2026-04-04T10:19:02.188Z</time></trkpt><trkpt lat="45.0234667" lon="9.5236317"><ele>79.6</ele><time>2026-04-04T10:19:03.187Z</time></trkpt><trkpt lat="45.0233667" lon="9.52359"><ele>79.8</ele><time>2026-04-04T10:19:04.189Z</time></trkpt><trkpt lat="45.023275" lon="9.5235517"><ele>80.0</ele><time>2026-04-04T10:19:05.187Z</time></trkpt><trkpt lat="45.0231883" lon="9.5235133"><ele>80.16666666666667</ele><time>2026-04-04T10:19:06.187Z</time></trkpt><trkpt lat="45.0231033" lon="9.5234783"><ele>80.33333333333334</ele><time>2026-04-04T10:19:07.187Z</time></trkpt><trkpt lat="45.0230117" lon="9.52344"><ele>80.5</ele><time>2026-04-04T10:19:08.188Z</time></trkpt><trkpt lat="45.0229283" lon="9.523395"><ele>80.66666666666667</ele><time>2026-04-04T10:19:09.187Z</time></trkpt><trkpt lat="45.0228533" lon="9.5233417"><ele>80.83333333333333</ele><time>2026-04-04T10:19:10.189Z</time></trkpt><trkpt lat="45.0227883" lon="9.523275"><ele>81.0</ele><time>2026-04-04T10:19:11.189Z</time></trkpt><trkpt lat="45.0227233" lon="9.5231983"><ele>81.0</ele><time>2026-04-04T10:19:12.187Z</time></trkpt><trkpt lat="45.0226633" lon="9.5231017"><ele>81.0</ele><time>2026-04-04T10:19:13.187Z</time></trkpt><trkpt lat="45.0226083" lon="9.5229817"><ele>81.0</ele><time>2026-04-04T10:19:14.188Z</time></trkpt><trkpt lat="45.0225483" lon="9.5228417"><ele>81.0</ele><time>2026-04-04T10:19:15.189Z</time></trkpt><trkpt lat="45.0224867" lon="9.5226883"><ele>81.0</ele><time>2026-04-04T10:19:16.188Z</time></trkpt><trkpt lat="45.02242" lon="9.52253"><ele>80.75</ele><time>2026-04-04T10:19:17.188Z</time></trkpt><trkpt lat="45.02235" lon="9.52237"><ele>80.5</ele><time>2026-04-04T10:19:18.187Z</time></trkpt><trkpt lat="45.0222783" lon="9.5222117"><ele>80.25</ele><time>2026-04-04T10:19:19.187Z</time></trkpt><trkpt lat="45.0222083" lon="9.52205"><ele>80.0</ele><time>2026-04-04T10:19:20.189Z</time></trkpt><trkpt lat="45.0221433" lon="9.5218867"><ele>80.0</ele><time>2026-04-04T10:19:21.187Z</time></trkpt><trkpt lat="45.02208" lon="9.521725"><ele>80.0</ele><time>2026-04-04T10:19:22.189Z</time></trkpt><trkpt lat="45.022015" lon="9.521565"><ele>80.0</ele><time>2026-04-04T10:19:23.188Z</time></trkpt><trkpt lat="45.02195" lon="9.5214083"><ele>80.0</ele><time>2026-04-04T10:19:24.188Z</time></trkpt><trkpt lat="45.02188" lon="9.5212617"><ele>80.25</ele><time>2026-04-04T10:19:25.187Z</time></trkpt><trkpt lat="45.0218017" lon="9.5211133"><ele>80.5</ele><time>2026-04-04T10:19:26.188Z</time></trkpt><trkpt lat="45.0217217" lon="9.52097"><ele>80.75</ele><time>2026-04-04T10:19:27.187Z</time></trkpt><trkpt lat="45.0216533" lon="9.5208317"><ele>81.0</ele><time>2026-04-04T10:19:28.19Z</time></trkpt><trkpt lat="45.0215967" lon="9.5207017"><ele>81.0</ele><time>2026-04-04T10:19:29.187Z</time></trkpt><trkpt lat="45.0215483" lon="9.5205783"><ele>81.0</ele><time>2026-04-04T10:19:30.188Z</time></trkpt><trkpt lat="45.021505" lon="9.520465"><ele>81.0</ele><time>2026-04-04T10:19:31.188Z</time></trkpt><trkpt lat="45.02146" lon="9.5203633"><ele>81.0</ele><time>2026-04-04T10:19:32.189Z</time></trkpt><trkpt lat="45.0214017" lon="9.52027"><ele>81.0</ele><time>2026-04-04T10:19:33.188Z</time></trkpt><trkpt lat="45.0213183" lon="9.52018"><ele>81.0</ele><time>2026-04-04T10:19:34.188Z</time></trkpt><trkpt lat="45.0212217" lon="9.5200833"><ele>81.0</ele><time>2026-04-04T10:19:35.188Z</time></trkpt><trkpt lat="45.0211133" lon="9.5199717"><ele>81.0</ele><time>2026-04-04T10:19:36.187Z</time></trkpt><trkpt lat="45.0210017" lon="9.5198483"><ele>81.0</ele><time>2026-04-04T10:19:37.187Z</time></trkpt><trkpt lat="45.0208817" lon="9.5197267"><ele>81.0</ele><time>2026-04-04T10:19:38.188Z</time></trkpt><trkpt lat="45.0207483" lon="9.5196083"><ele>81.0</ele><time>2026-04-04T10:19:39.187Z</time></trkpt><trkpt lat="45.02061" lon="9.5194983"><ele>81.0</ele><time>2026-04-04T10:19:40.187Z</time></trkpt><trkpt lat="45.0204717" lon="9.5193933"><ele>81.0</ele><time>2026-04-04T10:19:41.187Z</time></trkpt><trkpt lat="45.0203367" lon="9.5192967"><ele>81.0</ele><time>2026-04-04T10:19:42.187Z</time></trkpt><trkpt lat="45.0202083" lon="9.5192083"><ele>81.0</ele><time>2026-04-04T10:19:43.188Z</time></trkpt><trkpt lat="45.0200833" lon="9.5191217"><ele>81.0</ele><time>2026-04-04T10:19:44.188Z</time></trkpt><trkpt lat="45.0199683" lon="9.5190383"><ele>81.0</ele><time>2026-04-04T10:19:45.188Z</time></trkpt><trkpt lat="45.0198583" lon="9.5189567"><ele>81.0</ele><time>2026-04-04T10:19:46.188Z</time></trkpt><trkpt lat="45.01974" lon="9.5188733"><ele>81.0</ele><time>2026-04-04T10:19:47.188Z</time></trkpt><trkpt lat="45.01962" lon="9.5187917"><ele>81.0</ele><time>2026-04-04T10:19:48.188Z</time></trkpt><trkpt lat="45.019495" lon="9.5187133"><ele>81.0</ele><time>2026-04-04T10:19:49.188Z</time></trkpt><trkpt lat="45.0193683" lon="9.5186367"><ele>81.0</ele><time>2026-04-04T10:19:50.189Z</time></trkpt><trkpt lat="45.01925" lon="9.518565"><ele>81.0</ele><time>2026-04-04T10:19:51.188Z</time></trkpt><trkpt lat="45.0191333" lon="9.5184967"><ele>81.0</ele><time>2026-04-04T10:19:52.188Z</time></trkpt><trkpt lat="45.019015" lon="9.518425"><ele>81.0</ele><time>2026-04-04T10:19:53.187Z</time></trkpt><trkpt lat="45.018895" lon="9.5183583"><ele>81.0</ele><time>2026-04-04T10:19:54.188Z</time></trkpt><trkpt lat="45.01876" lon="9.518295"><ele>81.0</ele><time>2026-04-04T10:19:55.188Z</time></trkpt><trkpt lat="45.0186267" lon="9.51823"><ele>81.0</ele><time>2026-04-04T10:19:56.188Z</time></trkpt><trkpt lat="45.0184917" lon="9.518165"><ele>81.0</ele><time>2026-04-04T10:19:57.188Z</time></trkpt><trkpt lat="45.018375" lon="9.5181083"><ele>81.0</ele><time>2026-04-04T10:19:58.189Z</time></trkpt><trkpt lat="45.0182583" lon="9.51805"><ele>81.0</ele><time>2026-04-04T10:19:59.191Z</time></trkpt><trkpt lat="45.0181433" lon="9.5179917"><ele>81.0</ele><time>2026-04-04T10:20:00.189Z</time></trkpt><trkpt lat="45.0180367" lon="9.51793"><ele>81.6</ele><time>2026-04-04T10:20:01.189Z</time></trkpt><trkpt lat="45.017935" lon="9.51787"><ele>82.19999999999999</ele><time>2026-04-04T10:20:02.188Z</time></trkpt><trkpt lat="45.0178367" lon="9.517815"><ele>82.80000000000001</ele><time>2026-04-04T10:20:03.188Z</time></trkpt><trkpt lat="45.01775" lon="9.5177717"><ele>83.4</ele><time>2026-04-04T10:20:04.188Z</time></trkpt><trkpt lat="45.01767" lon="9.5177383"><ele>84.0</ele><time>2026-04-04T10:20:05.188Z</time></trkpt><trkpt lat="45.0175817" lon="9.5177217"><ele>84.2</ele><time>2026-04-04T10:20:06.188Z</time></trkpt><trkpt lat="45.0174833" lon="9.5177167"><ele>84.4</ele><time>2026-04-04T10:20:07.189Z</time></trkpt><trkpt lat="45.0173783" lon="9.5177167"><ele>84.6</ele><time>2026-04-04T10:20:08.188Z</time></trkpt><trkpt lat="45.01727" lon="9.5177133"><ele>84.8</ele><time>2026-04-04T10:20:09.187Z</time></trkpt><trkpt lat="45.0171533" lon="9.5177083"><ele>85.0</ele><time>2026-04-04T10:20:10.187Z</time></trkpt><trkpt lat="45.017045" lon="9.5177017"><ele>85.0</ele><time>2026-04-04T10:20:11.187Z</time></trkpt><trkpt lat="45.0169467" lon="9.5176917"><ele>85.0</ele><time>2026-04-04T10:20:12.187Z</time></trkpt><trkpt lat="45.0168583" lon="9.5176817"><ele>85.0</ele><time>2026-04-04T10:20:13.187Z</time></trkpt><trkpt lat="45.016785" lon="9.5176683"><ele>85.0</ele><time>2026-04-04T10:20:14.188Z</time></trkpt><trkpt lat="45.0166833" lon="9.5176383"><ele>85.0</ele><time>2026-04-04T10:20:16.188Z</time></trkpt><trkpt lat="45.0165733" lon="9.5176467"><ele>85.0</ele><time>2026-04-04T10:20:31.192Z</time></trkpt><trkpt lat="45.0165067" lon="9.5177267"><ele>85.0</ele><time>2026-04-04T10:20:32.189Z</time></trkpt><trkpt lat="45.0164383" lon="9.51784"><ele>85.0</ele><time>2026-04-04T10:20:33.187Z</time></trkpt><trkpt lat="45.01635" lon="9.51801"><ele>85.0</ele><time>2026-04-04T10:20:34.188Z</time></trkpt><trkpt lat="45.0162467" lon="9.5181917"><ele>84.0</ele><time>2026-04-04T10:20:35.189Z</time></trkpt><trkpt lat="45.016135" lon="9.5183917"><ele>83.0</ele><time>2026-04-04T10:20:36.188Z</time></trkpt><trkpt lat="45.01603" lon="9.51859"><ele>82.0</ele><time>2026-04-04T10:20:37.187Z</time></trkpt><trkpt lat="45.0159333" lon="9.5187783"><ele>82.0</ele><time>2026-04-04T10:20:38.188Z</time></trkpt><trkpt lat="45.015835" lon="9.5189617"><ele>82.0</ele><time>2026-04-04T10:20:39.187Z</time></trkpt><trkpt lat="45.0157367" lon="9.51915"><ele>82.0</ele><time>2026-04-04T10:20:40.188Z</time></trkpt><trkpt lat="45.0156283" lon="9.5193517"><ele>82.0</ele><time>2026-04-04T10:20:41.187Z</time></trkpt><trkpt lat="45.0155117" lon="9.51956"><ele>82.0</ele><time>2026-04-04T10:20:42.188Z</time></trkpt><trkpt lat="45.0153917" lon="9.5197717"><ele>82.0</ele><time>2026-04-04T10:20:43.187Z</time></trkpt><trkpt lat="45.0152733" lon="9.5199867"><ele>81.66666666666666</ele><time>2026-04-04T10:20:44.188Z</time></trkpt><trkpt lat="45.0151667" lon="9.5201883"><ele>81.33333333333333</ele><time>2026-04-04T10:20:45.188Z</time></trkpt><trkpt lat="45.0150683" lon="9.52038"><ele>81.0</ele><time>2026-04-04T10:20:46.189Z</time></trkpt><trkpt lat="45.014985" lon="9.52056"><ele>81.0</ele><time>2026-04-04T10:20:47.188Z</time></trkpt><trkpt lat="45.0149233" lon="9.5207433"><ele>81.0</ele><time>2026-04-04T10:20:48.187Z</time></trkpt><trkpt lat="45.014885" lon="9.520915"><ele>81.0</ele><time>2026-04-04T10:20:49.188Z</time></trkpt><trkpt lat="45.0148667" lon="9.52106"><ele>81.0</ele><time>2026-04-04T10:20:50.188Z</time></trkpt><trkpt lat="45.0148517" lon="9.521175"><ele>81.19999999999999</ele><time>2026-04-04T10:20:51.187Z</time></trkpt><trkpt lat="45.0148283" lon="9.521275"><ele>81.39999999999999</ele><time>2026-04-04T10:20:52.187Z</time></trkpt><trkpt lat="45.0147817" lon="9.5213517"><ele>81.6</ele><time>2026-04-04T10:20:53.187Z</time></trkpt><trkpt lat="45.0146717" lon="9.5214167"><ele>81.8</ele><time>2026-04-04T10:20:55.187Z</time></trkpt><trkpt lat="45.0146067" lon="9.5214167"><ele>82.0</ele><time>2026-04-04T10:20:56.188Z</time></trkpt><trkpt lat="45.0144867" lon="9.5214017"><ele>82.0</ele><time>2026-04-04T10:20:58.187Z</time></trkpt><trkpt lat="45.0143883" lon="9.5213983"><ele>82.0</ele><time>2026-04-04T10:21:00.187Z</time></trkpt><trkpt lat="45.0143083" lon="9.5214067"><ele>82.0</ele><time>2026-04-04T10:21:03.189Z</time></trkpt><trkpt lat="45.014245" lon="9.5213983"><ele>82.0</ele><time>2026-04-04T10:21:04.187Z</time></trkpt><trkpt lat="45.0141417" lon="9.5213767"><ele>82.0</ele><time>2026-04-04T10:21:05.188Z</time></trkpt><trkpt lat="45.0139967" lon="9.5213633"><ele>82.33333333333333</ele><time>2026-04-04T10:21:06.187Z</time></trkpt><trkpt lat="45.0138283" lon="9.5213483"><ele>82.66666666666667</ele><time>2026-04-04T10:21:07.188Z</time></trkpt><trkpt lat="45.0136417" lon="9.521335"><ele>83.0</ele><time>2026-04-04T10:21:08.188Z</time></trkpt><trkpt lat="45.0134433" lon="9.52132"><ele>82.33333333333334</ele><time>2026-04-04T10:21:09.188Z</time></trkpt><trkpt lat="45.0132317" lon="9.5213033"><ele>81.66666666666667</ele><time>2026-04-04T10:21:10.187Z</time></trkpt><trkpt lat="45.01301" lon="9.5212867"><ele>81.0</ele><time>2026-04-04T10:21:11.189Z</time></trkpt><trkpt lat="45.0127883" lon="9.52127"><ele>81.0</ele><time>2026-04-04T10:21:12.187Z</time></trkpt><trkpt lat="45.0125633" lon="9.521255"><ele>81.0</ele><time>2026-04-04T10:21:13.187Z</time></trkpt><trkpt lat="45.0123417" lon="9.5212383"><ele>81.0</ele><time>2026-04-04T10:21:14.187Z</time></trkpt><trkpt lat="45.0121217" lon="9.5212233"><ele>82.0</ele><time>2026-04-04T10:21:15.187Z</time></trkpt><trkpt lat="45.0119017" lon="9.5212083"><ele>83.0</ele><time>2026-04-04T10:21:16.188Z</time></trkpt><trkpt lat="45.01168" lon="9.521195"><ele>84.0</ele><time>2026-04-04T10:21:17.187Z</time></trkpt><trkpt lat="45.0114633" lon="9.52118"><ele>84.33333333333333</ele><time>2026-04-04T10:21:18.187Z</time></trkpt><trkpt lat="45.0112467" lon="9.5211633"><ele>84.66666666666666</ele><time>2026-04-04T10:21:19.187Z</time></trkpt><trkpt lat="45.0110317" lon="9.521145"><ele>85.0</ele><time>2026-04-04T10:21:20.188Z</time></trkpt><trkpt lat="45.0108167" lon="9.5211283"><ele>85.0</ele><time>2026-04-04T10:21:21.189Z</time></trkpt><trkpt lat="45.0105983" lon="9.5211117"><ele>85.0</ele><time>2026-04-04T10:21:22.187Z</time></trkpt><trkpt lat="45.0103817" lon="9.521095"><ele>85.0</ele><time>2026-04-04T10:21:23.187Z</time></trkpt><trkpt lat="45.0101683" lon="9.5210783"><ele>85.66666666666666</ele><time>2026-04-04T10:21:24.189Z</time></trkpt><trkpt lat="45.00995" lon="9.5210617"><ele>86.33333333333333</ele><time>2026-04-04T10:21:25.187Z</time></trkpt><trkpt lat="45.0097283" lon="9.521045"><ele>87.0</ele><time>2026-04-04T10:21:26.188Z</time></trkpt><trkpt lat="45.0095067" lon="9.5210283"><ele>87.0</ele><time>2026-04-04T10:21:27.187Z</time></trkpt><trkpt lat="45.0092833" lon="9.5210117"><ele>87.0</ele><time>2026-04-04T10:21:28.187Z</time></trkpt><trkpt lat="45.0090633" lon="9.520995"><ele>87.0</ele><time>2026-04-04T10:21:29.194Z</time></trkpt><trkpt lat="45.0088517" lon="9.5209783"><ele>87.0</ele><time>2026-04-04T10:21:30.187Z</time></trkpt><trkpt lat="45.0086533" lon="9.52096"><ele>87.0</ele><time>2026-04-04T10:21:31.188Z</time></trkpt><trkpt lat="45.00847" lon="9.5209483"><ele>87.0</ele><time>2026-04-04T10:21:32.189Z</time></trkpt><trkpt lat="45.0083033" lon="9.5209367"><ele>86.75</ele><time>2026-04-04T10:21:33.188Z</time></trkpt><trkpt lat="45.008155" lon="9.520925"><ele>86.5</ele><time>2026-04-04T10:21:34.187Z</time></trkpt><trkpt lat="45.0080133" lon="9.5209133"><ele>86.25</ele><time>2026-04-04T10:21:35.189Z</time></trkpt><trkpt lat="45.007875" lon="9.5209067"><ele>86.0</ele><time>2026-04-04T10:21:36.188Z</time></trkpt><trkpt lat="45.0077317" lon="9.5209267"><ele>86.0</ele><time>2026-04-04T10:21:37.187Z</time></trkpt><trkpt lat="45.00758" lon="9.5209817"><ele>86.0</ele><time>2026-04-04T10:21:38.189Z</time></trkpt><trkpt lat="45.007425" lon="9.521075"><ele>86.0</ele><time>2026-04-04T10:21:39.188Z</time></trkpt><trkpt lat="45.0072667" lon="9.5212117"><ele>86.0</ele><time>2026-04-04T10:21:40.187Z</time></trkpt><trkpt lat="45.0071017" lon="9.5214"><ele>86.0</ele><time>2026-04-04T10:21:41.188Z</time></trkpt><trkpt lat="45.00693" lon="9.521625"><ele>86.0</ele><time>2026-04-04T10:21:42.189Z</time></trkpt><trkpt lat="45.0067483" lon="9.5218683"><ele>86.5</ele><time>2026-04-04T10:21:43.187Z</time></trkpt><trkpt lat="45.0065717" lon="9.5221133"><ele>87.0</ele><time>2026-04-04T10:21:44.188Z</time></trkpt><trkpt lat="45.0063933" lon="9.5223517"><ele>87.0</ele><time>2026-04-04T10:21:45.19Z</time></trkpt><trkpt lat="45.0062167" lon="9.52259"><ele>87.0</ele><time>2026-04-04T10:21:46.188Z</time></trkpt><trkpt lat="45.0060383" lon="9.5228233"><ele>87.0</ele><time>2026-04-04T10:21:47.188Z</time></trkpt><trkpt lat="45.0058583" lon="9.523055"><ele>87.0</ele><time>2026-04-04T10:21:48.187Z</time></trkpt><trkpt lat="45.0056833" lon="9.523285"><ele>87.5</ele><time>2026-04-04T10:21:49.189Z</time></trkpt><trkpt lat="45.0055083" lon="9.523515"><ele>88.0</ele><time>2026-04-04T10:21:50.188Z</time></trkpt><trkpt lat="45.005335" lon="9.5237417"><ele>88.5</ele><time>2026-04-04T10:21:51.187Z</time></trkpt><trkpt lat="45.00516" lon="9.5239683"><ele>89.0</ele><time>2026-04-04T10:21:52.187Z</time></trkpt><trkpt lat="45.0049867" lon="9.5241967"><ele>88.5</ele><time>2026-04-04T10:21:53.187Z</time></trkpt><trkpt lat="45.0048183" lon="9.5244233"><ele>88.0</ele><time>2026-04-04T10:21:54.188Z</time></trkpt><trkpt lat="45.004655" lon="9.52465"><ele>88.0</ele><time>2026-04-04T10:21:55.189Z</time></trkpt><trkpt lat="45.00449" lon="9.524875"><ele>88.0</ele><time>2026-04-04T10:21:56.188Z</time></trkpt><trkpt lat="45.004325" lon="9.5250967"><ele>88.0</ele><time>2026-04-04T10:21:57.192Z</time></trkpt><trkpt lat="45.0041533" lon="9.5253117"><ele>88.0</ele><time>2026-04-04T10:21:58.188Z</time></trkpt><trkpt lat="45.0039867" lon="9.5255333"><ele>88.0</ele><time>2026-04-04T10:21:59.189Z</time></trkpt><trkpt lat="45.0038183" lon="9.5257533"><ele>88.0</ele><time>2026-04-04T10:22:00.19Z</time></trkpt><trkpt lat="45.0036467" lon="9.5259783"><ele>88.0</ele><time>2026-04-04T10:22:01.189Z</time></trkpt><trkpt lat="45.0034783" lon="9.526205"><ele>88.0</ele><time>2026-04-04T10:22:02.19Z</time></trkpt><trkpt lat="45.0033117" lon="9.526435"><ele>88.5</ele><time>2026-04-04T10:22:03.189Z</time></trkpt><trkpt lat="45.003145" lon="9.5266617"><ele>89.0</ele><time>2026-04-04T10:22:04.189Z</time></trkpt><trkpt lat="45.0029783" lon="9.5268867"><ele>87.5</ele><time>2026-04-04T10:22:05.189Z</time></trkpt><trkpt lat="45.0028117" lon="9.5271067"><ele>86.0</ele><time>2026-04-04T10:22:06.189Z</time></trkpt><trkpt lat="45.0026483" lon="9.52732"><ele>86.33333333333334</ele><time>2026-04-04T10:22:07.19Z</time></trkpt><trkpt lat="45.0024917" lon="9.5275283"><ele>86.66666666666667</ele><time>2026-04-04T10:22:08.19Z</time></trkpt><trkpt lat="45.0023333" lon="9.5277383"><ele>87.0</ele><time>2026-04-04T10:22:09.19Z</time></trkpt><trkpt lat="45.0021767" lon="9.5279433"><ele>87.33333333333333</ele><time>2026-04-04T10:22:10.189Z</time></trkpt><trkpt lat="45.00202" lon="9.5281517"><ele>87.66666666666666</ele><time>2026-04-04T10:22:11.19Z</time></trkpt><trkpt lat="45.0018633" lon="9.5283617"><ele>88.0</ele><time>2026-04-04T10:22:12.19Z</time></trkpt><trkpt lat="45.001705" lon="9.5285733"><ele>87.0</ele><time>2026-04-04T10:22:13.19Z</time></trkpt><trkpt lat="45.001545" lon="9.52879"><ele>86.0</ele><time>2026-04-04T10:22:14.189Z</time></trkpt><trkpt lat="45.0013867" lon="9.5290033"><ele>85.0</ele><time>2026-04-04T10:22:15.189Z</time></trkpt><trkpt lat="45.0012317" lon="9.5292083"><ele>85.0</ele><time>2026-04-04T10:22:16.189Z</time></trkpt><trkpt lat="45.0010817" lon="9.5294117"><ele>85.0</ele><time>2026-04-04T10:22:17.188Z</time></trkpt><trkpt lat="45.000935" lon="9.529605"><ele>85.0</ele><time>2026-04-04T10:22:18.188Z</time></trkpt><trkpt lat="45.0007933" lon="9.529795"><ele>86.33333333333333</ele><time>2026-04-04T10:22:19.189Z</time></trkpt><trkpt lat="45.0006617" lon="9.5299717"><ele>87.66666666666667</ele><time>2026-04-04T10:22:20.19Z</time></trkpt><trkpt lat="45.0005367" lon="9.5301367"><ele>89.0</ele><time>2026-04-04T10:22:21.189Z</time></trkpt><trkpt lat="45.0004183" lon="9.5302933"><ele>89.0</ele><time>2026-04-04T10:22:22.19Z</time></trkpt><trkpt lat="45.0003083" lon="9.530445"><ele>89.0</ele><time>2026-04-04T10:22:23.189Z</time></trkpt><trkpt lat="45.0002067" lon="9.5305817"><ele>89.0</ele><time>2026-04-04T10:22:24.189Z</time></trkpt><trkpt lat="45.0001117" lon="9.5306983"><ele>89.0</ele><time>2026-04-04T10:22:25.19Z</time></trkpt><trkpt lat="45.0000133" lon="9.5307917"><ele>89.0</ele><time>2026-04-04T10:22:26.189Z</time></trkpt><trkpt lat="44.9999083" lon="9.5308683"><ele>89.0</ele><time>2026-04-04T10:22:27.187Z</time></trkpt><trkpt lat="44.999795" lon="9.5309283"><ele>89.0</ele><time>2026-04-04T10:22:28.189Z</time></trkpt><trkpt lat="44.9996867" lon="9.5309783"><ele>89.0</ele><time>2026-04-04T10:22:29.191Z</time></trkpt><trkpt lat="44.9995767" lon="9.5310283"><ele>89.0</ele><time>2026-04-04T10:22:30.187Z</time></trkpt><trkpt lat="44.9994633" lon="9.5310783"><ele>89.0</ele><time>2026-04-04T10:22:31.188Z</time></trkpt><trkpt lat="44.999345" lon="9.53113"><ele>89.0</ele><time>2026-04-04T10:22:32.187Z</time></trkpt><trkpt lat="44.9992333" lon="9.531195"><ele>89.0</ele><time>2026-04-04T10:22:33.187Z</time></trkpt><trkpt lat="44.99912" lon="9.5312817"><ele>89.75</ele><time>2026-04-04T10:22:34.187Z</time></trkpt><trkpt lat="44.9990033" lon="9.5313833"><ele>90.5</ele><time>2026-04-04T10:22:35.187Z</time></trkpt><trkpt lat="44.998895" lon="9.531485"><ele>91.25</ele><time>2026-04-04T10:22:36.187Z</time></trkpt><trkpt lat="44.9988017" lon="9.5315667"><ele>92.0</ele><time>2026-04-04T10:22:37.187Z</time></trkpt><trkpt lat="44.99871" lon="9.5316333"><ele>92.0</ele><time>2026-04-04T10:22:38.189Z</time></trkpt><trkpt lat="44.9986267" lon="9.5316833"><ele>92.0</ele><time>2026-04-04T10:22:39.188Z</time></trkpt><trkpt lat="44.9985417" lon="9.5317183"><ele>92.0</ele><time>2026-04-04T10:22:40.187Z</time></trkpt><trkpt lat="44.9984583" lon="9.5317333"><ele>92.0</ele><time>2026-04-04T10:22:41.188Z</time></trkpt><trkpt lat="44.9983633" lon="9.5317617"><ele>92.0</ele><time>2026-04-04T10:22:43.188Z</time></trkpt><trkpt lat="44.9982883" lon="9.53172"><ele>92.0</ele><time>2026-04-04T10:22:46.188Z</time></trkpt><trkpt lat="44.9982267" lon="9.53165"><ele>91.75</ele><time>2026-04-04T10:22:47.188Z</time></trkpt><trkpt lat="44.9981517" lon="9.53154"><ele>91.5</ele><time>2026-04-04T10:22:48.189Z</time></trkpt><trkpt lat="44.998065" lon="9.5314033"><ele>91.25</ele><time>2026-04-04T10:22:49.188Z</time></trkpt><trkpt lat="44.9979817" lon="9.5312733"><ele>91.0</ele><time>2026-04-04T10:22:50.189Z</time></trkpt><trkpt lat="44.9979017" lon="9.531145"><ele>90.75</ele><time>2026-04-04T10:22:51.189Z</time></trkpt><trkpt lat="44.9978217" lon="9.5310167"><ele>90.5</ele><time>2026-04-04T10:22:52.193Z</time></trkpt><trkpt lat="44.9977517" lon="9.530885"><ele>90.25</ele><time>2026-04-04T10:22:53.189Z</time></trkpt><trkpt lat="44.99768" lon="9.5307583"><ele>90.0</ele><time>2026-04-04T10:22:54.187Z</time></trkpt><trkpt lat="44.9976083" lon="9.530635"><ele>90.0</ele><time>2026-04-04T10:22:55.187Z</time></trkpt><trkpt lat="44.997535" lon="9.5305067"><ele>90.0</ele><time>2026-04-04T10:22:56.189Z</time></trkpt><trkpt lat="44.9974567" lon="9.5303717"><ele>90.0</ele><time>2026-04-04T10:22:57.188Z</time></trkpt><trkpt lat="44.9973783" lon="9.5302333"><ele>90.0</ele><time>2026-04-04T10:22:58.19Z</time></trkpt><trkpt lat="44.9973" lon="9.5300883"><ele>90.0</ele><time>2026-04-04T10:22:59.187Z</time></trkpt><trkpt lat="44.9972233" lon="9.5299433"><ele>90.0</ele><time>2026-04-04T10:23:00.188Z</time></trkpt><trkpt lat="44.9971533" lon="9.529795"><ele>90.0</ele><time>2026-04-04T10:23:01.188Z</time></trkpt><trkpt lat="44.9970767" lon="9.529655"><ele>90.0</ele><time>2026-04-04T10:23:02.189Z</time></trkpt><trkpt lat="44.9970033" lon="9.5295117"><ele>90.0</ele><time>2026-04-04T10:23:03.189Z</time></trkpt><trkpt lat="44.99693" lon="9.52937"><ele>90.0</ele><time>2026-04-04T10:23:04.187Z</time></trkpt><trkpt lat="44.9968633" lon="9.52924"><ele>90.0</ele><time>2026-04-04T10:23:05.188Z</time></trkpt><trkpt lat="44.9968" lon="9.5291117"><ele>90.0</ele><time>2026-04-04T10:23:06.187Z</time></trkpt><trkpt lat="44.9967333" lon="9.5289783"><ele>90.0</ele><time>2026-04-04T10:23:07.187Z</time></trkpt><trkpt lat="44.9966617" lon="9.5288367"><ele>90.0</ele><time>2026-04-04T10:23:08.188Z</time></trkpt><trkpt lat="44.996585" lon="9.5286833"><ele>90.0</ele><time>2026-04-04T10:23:09.188Z</time></trkpt><trkpt lat="44.9965067" lon="9.5285217"><ele>90.0</ele><time>2026-04-04T10:23:10.187Z</time></trkpt><trkpt lat="44.9964267" lon="9.5283567"><ele>90.0</ele><time>2026-04-04T10:23:11.187Z</time></trkpt><trkpt lat="44.9963417" lon="9.5281833"><ele>90.0</ele><time>2026-04-04T10:23:12.188Z</time></trkpt><trkpt lat="44.9962533" lon="9.5280033"><ele>90.0</ele><time>2026-04-04T10:23:13.188Z</time></trkpt><trkpt lat="44.9961667" lon="9.527825"><ele>90.0</ele><time>2026-04-04T10:23:14.188Z</time></trkpt><trkpt lat="44.9960817" lon="9.5276583"><ele>90.0</ele><time>2026-04-04T10:23:15.187Z</time></trkpt><trkpt lat="44.996005" lon="9.5275033"><ele>90.0</ele><time>2026-04-04T10:23:16.189Z</time></trkpt><trkpt lat="44.9959317" lon="9.5273533"><ele>90.0</ele><time>2026-04-04T10:23:17.189Z</time></trkpt><trkpt lat="44.9958633" lon="9.5272083"><ele>90.2</ele><time>2026-04-04T10:23:18.189Z</time></trkpt><trkpt lat="44.9958017" lon="9.5270733"><ele>90.4</ele><time>2026-04-04T10:23:19.19Z</time></trkpt><trkpt lat="44.99574" lon="9.5269533"><ele>90.6</ele><time>2026-04-04T10:23:20.189Z</time></trkpt><trkpt lat="44.9956683" lon="9.52686"><ele>90.8</ele><time>2026-04-04T10:23:21.189Z</time></trkpt><trkpt lat="44.99558" lon="9.5267983"><ele>91.0</ele><time>2026-04-04T10:23:22.19Z</time></trkpt><trkpt lat="44.9954717" lon="9.5267683"><ele>91.33333333333333</ele><time>2026-04-04T10:23:23.189Z</time></trkpt><trkpt lat="44.995335" lon="9.5267667"><ele>91.66666666666667</ele><time>2026-04-04T10:23:24.189Z</time></trkpt><trkpt lat="44.9951833" lon="9.526775"><ele>92.0</ele><time>2026-04-04T10:23:25.188Z</time></trkpt><trkpt lat="44.9950217" lon="9.526785"><ele>92.33333333333334</ele><time>2026-04-04T10:23:26.188Z</time></trkpt><trkpt lat="44.9948633" lon="9.5267933"><ele>92.66666666666667</ele><time>2026-04-04T10:23:27.188Z</time></trkpt><trkpt lat="44.9947033" lon="9.5267983"><ele>93.0</ele><time>2026-04-04T10:23:28.187Z</time></trkpt><trkpt lat="44.99454" lon="9.5267933"><ele>93.0</ele><time>2026-04-04T10:23:29.188Z</time></trkpt><trkpt lat="44.9943783" lon="9.5267717"><ele>93.0</ele><time>2026-04-04T10:23:30.188Z</time></trkpt><trkpt lat="44.9942233" lon="9.5267483"><ele>93.0</ele><time>2026-04-04T10:23:31.187Z</time></trkpt><trkpt lat="44.9940667" lon="9.526725"><ele>93.66666666666667</ele><time>2026-04-04T10:23:32.188Z</time></trkpt><trkpt lat="44.9939067" lon="9.5267017"><ele>94.33333333333334</ele><time>2026-04-04T10:23:33.187Z</time></trkpt><trkpt lat="44.993745" lon="9.526675"><ele>95.0</ele><time>2026-04-04T10:23:34.188Z</time></trkpt><trkpt lat="44.993585" lon="9.52664"><ele>95.0</ele><time>2026-04-04T10:23:35.189Z</time></trkpt><trkpt lat="44.9934283" lon="9.5265967"><ele>95.0</ele><time>2026-04-04T10:23:36.187Z</time></trkpt><trkpt lat="44.993275" lon="9.52655"><ele>95.0</ele><time>2026-04-04T10:23:37.188Z</time></trkpt><trkpt lat="44.9931183" lon="9.5265"><ele>95.33333333333334</ele><time>2026-04-04T10:23:38.187Z</time></trkpt><trkpt lat="44.99296" lon="9.52645"><ele>95.66666666666667</ele><time>2026-04-04T10:23:39.187Z</time></trkpt><trkpt lat="44.992795" lon="9.5264017"><ele>96.0</ele><time>2026-04-04T10:23:40.188Z</time></trkpt><trkpt lat="44.9926333" lon="9.5263517"><ele>95.33333333333333</ele><time>2026-04-04T10:23:41.187Z</time></trkpt><trkpt lat="44.9924767" lon="9.5262983"><ele>94.66666666666666</ele><time>2026-04-04T10:23:42.188Z</time></trkpt><trkpt lat="44.9923233" lon="9.5262417"><ele>94.0</ele><time>2026-04-04T10:23:43.187Z</time></trkpt><trkpt lat="44.99218" lon="9.526175"><ele>93.66666666666666</ele><time>2026-04-04T10:23:44.189Z</time></trkpt><trkpt lat="44.9920483" lon="9.5260817"><ele>93.33333333333333</ele><time>2026-04-04T10:23:45.187Z</time></trkpt><trkpt lat="44.99192" lon="9.52596"><ele>93.0</ele><time>2026-04-04T10:23:46.187Z</time></trkpt><trkpt lat="44.9917983" lon="9.525815"><ele>93.0</ele><time>2026-04-04T10:23:47.19Z</time></trkpt><trkpt lat="44.99168" lon="9.525655"><ele>93.0</ele><time>2026-04-04T10:23:48.188Z</time></trkpt><trkpt lat="44.9915667" lon="9.5254833"><ele>93.0</ele><time>2026-04-04T10:23:49.188Z</time></trkpt><trkpt lat="44.991445" lon="9.5253067"><ele>94.0</ele><time>2026-04-04T10:23:50.188Z</time></trkpt><trkpt lat="44.9913217" lon="9.52513"><ele>95.0</ele><time>2026-04-04T10:23:51.188Z</time></trkpt><trkpt lat="44.9911967" lon="9.524955"><ele>96.0</ele><time>2026-04-04T10:23:52.187Z</time></trkpt><trkpt lat="44.9910683" lon="9.5247817"><ele>96.0</ele><time>2026-04-04T10:23:53.188Z</time></trkpt><trkpt lat="44.9909483" lon="9.52461"><ele>96.0</ele><time>2026-04-04T10:23:54.188Z</time></trkpt><trkpt lat="44.9908317" lon="9.5244433"><ele>96.0</ele><time>2026-04-04T10:23:55.188Z</time></trkpt><trkpt lat="44.990715" lon="9.5242783"><ele>96.0</ele><time>2026-04-04T10:23:56.189Z</time></trkpt><trkpt lat="44.9906067" lon="9.524115"><ele>96.0</ele><time>2026-04-04T10:23:57.189Z</time></trkpt><trkpt lat="44.9905017" lon="9.52396"><ele>96.0</ele><time>2026-04-04T10:23:58.19Z</time></trkpt><trkpt lat="44.9904" lon="9.5238233"><ele>96.5</ele><time>2026-04-04T10:23:59.188Z</time></trkpt><trkpt lat="44.9903133" lon="9.5237067"><ele>97.0</ele><time>2026-04-04T10:24:00.188Z</time></trkpt><trkpt lat="44.9902217" lon="9.5236"><ele>97.5</ele><time>2026-04-04T10:24:01.187Z</time></trkpt><trkpt lat="44.9901133" lon="9.523505"><ele>98.0</ele><time>2026-04-04T10:24:02.19Z</time></trkpt><trkpt lat="44.9899833" lon="9.5234283"><ele>98.0</ele><time>2026-04-04T10:24:03.188Z</time></trkpt><trkpt lat="44.9898383" lon="9.52336"><ele>98.0</ele><time>2026-04-04T10:24:04.189Z</time></trkpt><trkpt lat="44.989685" lon="9.5232967"><ele>98.0</ele><time>2026-04-04T10:24:05.189Z</time></trkpt><trkpt lat="44.9895283" lon="9.523235"><ele>98.0</ele><time>2026-04-04T10:24:06.189Z</time></trkpt><trkpt lat="44.9893667" lon="9.5231767"><ele>98.0</ele><time>2026-04-04T10:24:07.187Z</time></trkpt><trkpt lat="44.9892083" lon="9.523115"><ele>98.0</ele><time>2026-04-04T10:24:08.188Z</time></trkpt><trkpt lat="44.98905" lon="9.52306"><ele>97.66666666666666</ele><time>2026-04-04T10:24:09.188Z</time></trkpt><trkpt lat="44.9888917" lon="9.5229983"><ele>97.33333333333334</ele><time>2026-04-04T10:24:10.187Z</time></trkpt><trkpt lat="44.988735" lon="9.522935"><ele>97.0</ele><time>2026-04-04T10:24:11.187Z</time></trkpt><trkpt lat="44.9885783" lon="9.5228717"><ele>96.66666666666667</ele><time>2026-04-04T10:24:12.187Z</time></trkpt><trkpt lat="44.9884183" lon="9.5228067"><ele>96.33333333333334</ele><time>2026-04-04T10:24:13.188Z</time></trkpt><trkpt lat="44.988255" lon="9.5227383"><ele>96.0</ele><time>2026-04-04T10:24:14.187Z</time></trkpt><trkpt lat="44.988085" lon="9.5226667"><ele>97.0</ele><time>2026-04-04T10:24:15.188Z</time></trkpt><trkpt lat="44.9879083" lon="9.522595"><ele>98.0</ele><time>2026-04-04T10:24:16.187Z</time></trkpt><trkpt lat="44.98773" lon="9.5225283"><ele>99.0</ele><time>2026-04-04T10:24:17.188Z</time></trkpt><trkpt lat="44.987555" lon="9.5224733"><ele>98.66666666666666</ele><time>2026-04-04T10:24:18.191Z</time></trkpt><trkpt lat="44.98738" lon="9.52243"><ele>98.33333333333333</ele><time>2026-04-04T10:24:19.189Z</time></trkpt><trkpt lat="44.987205" lon="9.522395"><ele>98.0</ele><time>2026-04-04T10:24:20.189Z</time></trkpt><trkpt lat="44.987025" lon="9.5223633"><ele>98.0</ele><time>2026-04-04T10:24:21.189Z</time></trkpt><trkpt lat="44.9868417" lon="9.522335"><ele>98.0</ele><time>2026-04-04T10:24:22.19Z</time></trkpt><trkpt lat="44.986655" lon="9.52231"><ele>98.0</ele><time>2026-04-04T10:24:23.189Z</time></trkpt><trkpt lat="44.9864667" lon="9.5222867"><ele>97.33333333333333</ele><time>2026-04-04T10:24:24.188Z</time></trkpt><trkpt lat="44.986275" lon="9.522265"><ele>96.66666666666666</ele><time>2026-04-04T10:24:25.188Z</time></trkpt><trkpt lat="44.9860883" lon="9.5222417"><ele>96.0</ele><time>2026-04-04T10:24:26.188Z</time></trkpt><trkpt lat="44.9859067" lon="9.5222167"><ele>96.66666666666666</ele><time>2026-04-04T10:24:27.187Z</time></trkpt><trkpt lat="44.9857283" lon="9.52219"><ele>97.33333333333333</ele><time>2026-04-04T10:24:28.188Z</time></trkpt><trkpt lat="44.9855583" lon="9.52216"><ele>98.0</ele><time>2026-04-04T10:24:29.188Z</time></trkpt><trkpt lat="44.985395" lon="9.5221283"><ele>98.0</ele><time>2026-04-04T10:24:30.187Z</time></trkpt><trkpt lat="44.9852367" lon="9.5221017"><ele>98.0</ele><time>2026-04-04T10:24:31.187Z</time></trkpt><trkpt lat="44.9850817" lon="9.5220833"><ele>98.0</ele><time>2026-04-04T10:24:32.189Z</time></trkpt><trkpt lat="44.9849283" lon="9.5220833"><ele>98.33333333333333</ele><time>2026-04-04T10:24:33.187Z</time></trkpt><trkpt lat="44.98477" lon="9.5221083"><ele>98.66666666666666</ele><time>2026-04-04T10:24:34.188Z</time></trkpt><trkpt lat="44.9846017" lon="9.5221533"><ele>99.0</ele><time>2026-04-04T10:24:35.188Z</time></trkpt><trkpt lat="44.98443" lon="9.522205"><ele>99.0</ele><time>2026-04-04T10:24:36.189Z</time></trkpt><trkpt lat="44.9842583" lon="9.5222583"><ele>99.0</ele><time>2026-04-04T10:24:37.187Z</time></trkpt><trkpt lat="44.9840867" lon="9.5223083"><ele>99.0</ele><time>2026-04-04T10:24:38.188Z</time></trkpt><trkpt lat="44.98392" lon="9.522345"><ele>99.33333333333334</ele><time>2026-04-04T10:24:39.187Z</time></trkpt><trkpt lat="44.983755" lon="9.5223733"><ele>99.66666666666667</ele><time>2026-04-04T10:24:40.187Z</time></trkpt><trkpt lat="44.98359" lon="9.5223983"><ele>100.0</ele><time>2026-04-04T10:24:41.187Z</time></trkpt><trkpt lat="44.98342" lon="9.5224233"><ele>99.66666666666667</ele><time>2026-04-04T10:24:42.187Z</time></trkpt><trkpt lat="44.9832517" lon="9.522435"><ele>99.33333333333334</ele><time>2026-04-04T10:24:43.187Z</time></trkpt><trkpt lat="44.9830817" lon="9.5224333"><ele>99.0</ele><time>2026-04-04T10:24:44.188Z</time></trkpt><trkpt lat="44.98291" lon="9.522415"><ele>99.0</ele><time>2026-04-04T10:24:45.188Z</time></trkpt><trkpt lat="44.9827433" lon="9.5223783"><ele>99.0</ele><time>2026-04-04T10:24:46.188Z</time></trkpt><trkpt lat="44.9825833" lon="9.5223367"><ele>99.0</ele><time>2026-04-04T10:24:47.189Z</time></trkpt><trkpt lat="44.9824383" lon="9.5222833"><ele>99.0</ele><time>2026-04-04T10:24:48.189Z</time></trkpt><trkpt lat="44.9823" lon="9.5222183"><ele>99.0</ele><time>2026-04-04T10:24:49.189Z</time></trkpt><trkpt lat="44.9821683" lon="9.5221433"><ele>99.0</ele><time>2026-04-04T10:24:50.196Z</time></trkpt><trkpt lat="44.982045" lon="9.5220633"><ele>99.0</ele><time>2026-04-04T10:24:51.189Z</time></trkpt><trkpt lat="44.9819217" lon="9.5219783"><ele>99.0</ele><time>2026-04-04T10:24:52.19Z</time></trkpt><trkpt lat="44.9818017" lon="9.5219"><ele>99.0</ele><time>2026-04-04T10:24:53.189Z</time></trkpt><trkpt lat="44.9816833" lon="9.52183"><ele>99.0</ele><time>2026-04-04T10:24:54.189Z</time></trkpt><trkpt lat="44.9815567" lon="9.5217783"><ele>99.0</ele><time>2026-04-04T10:24:55.189Z</time></trkpt><trkpt lat="44.98142" lon="9.5217533"><ele>99.25</ele><time>2026-04-04T10:24:56.189Z</time></trkpt><trkpt lat="44.9812783" lon="9.521755"><ele>99.5</ele><time>2026-04-04T10:24:57.187Z</time></trkpt><trkpt lat="44.9811367" lon="9.5217783"><ele>99.75</ele><time>2026-04-04T10:24:58.187Z</time></trkpt><trkpt lat="44.9809933" lon="9.5218083"><ele>100.0</ele><time>2026-04-04T10:24:59.188Z</time></trkpt><trkpt lat="44.980845" lon="9.52184"><ele>100.0</ele><time>2026-04-04T10:25:00.188Z</time></trkpt><trkpt lat="44.9806883" lon="9.52188"><ele>100.0</ele><time>2026-04-04T10:25:01.188Z</time></trkpt><trkpt lat="44.9805367" lon="9.5219267"><ele>100.0</ele><time>2026-04-04T10:25:02.188Z</time></trkpt><trkpt lat="44.9803867" lon="9.521985"><ele>100.0</ele><time>2026-04-04T10:25:03.189Z</time></trkpt><trkpt lat="44.9802367" lon="9.5220583"><ele>100.0</ele><time>2026-04-04T10:25:04.188Z</time></trkpt><trkpt lat="44.9800917" lon="9.522155"><ele>100.0</ele><time>2026-04-04T10:25:05.187Z</time></trkpt><trkpt lat="44.9799517" lon="9.5222617"><ele>100.66666666666667</ele><time>2026-04-04T10:25:06.188Z</time></trkpt><trkpt lat="44.979805" lon="9.5223533"><ele>101.33333333333334</ele><time>2026-04-04T10:25:07.19Z</time></trkpt><trkpt lat="44.9796467" lon="9.5224267"><ele>102.0</ele><time>2026-04-04T10:25:08.188Z</time></trkpt><trkpt lat="44.97948" lon="9.5224783"><ele>102.0</ele><time>2026-04-04T10:25:09.188Z</time></trkpt><trkpt lat="44.9793067" lon="9.5225167"><ele>102.0</ele><time>2026-04-04T10:25:10.187Z</time></trkpt><trkpt lat="44.9791283" lon="9.52255"><ele>102.0</ele><time>2026-04-04T10:25:11.188Z</time></trkpt><trkpt lat="44.978945" lon="9.5225833"><ele>101.33333333333334</ele><time>2026-04-04T10:25:12.187Z</time></trkpt><trkpt lat="44.9787683" lon="9.5226133"><ele>100.66666666666667</ele><time>2026-04-04T10:25:13.188Z</time></trkpt><trkpt lat="44.9785983" lon="9.5226333"><ele>100.0</ele><time>2026-04-04T10:25:14.187Z</time></trkpt><trkpt lat="44.9784267" lon="9.522635"><ele>100.66666666666667</ele><time>2026-04-04T10:25:15.188Z</time></trkpt><trkpt lat="44.97825" lon="9.52261"><ele>101.33333333333334</ele><time>2026-04-04T10:25:16.187Z</time></trkpt><trkpt lat="44.9780667" lon="9.52256"><ele>102.0</ele><time>2026-04-04T10:25:17.188Z</time></trkpt><trkpt lat="44.9778717" lon="9.5225"><ele>102.0</ele><time>2026-04-04T10:25:18.188Z</time></trkpt><trkpt lat="44.9776717" lon="9.5224367"><ele>102.0</ele><time>2026-04-04T10:25:19.19Z</time></trkpt><trkpt lat="44.9774717" lon="9.5223783"><ele>102.0</ele><time>2026-04-04T10:25:20.189Z</time></trkpt><trkpt lat="44.977275" lon="9.5223183"><ele>102.33333333333334</ele><time>2026-04-04T10:25:21.188Z</time></trkpt><trkpt lat="44.9770833" lon="9.5222583"><ele>102.66666666666667</ele><time>2026-04-04T10:25:22.188Z</time></trkpt><trkpt lat="44.9768967" lon="9.5221983"><ele>103.0</ele><time>2026-04-04T10:25:23.188Z</time></trkpt><trkpt lat="44.97671" lon="9.5221417"><ele>103.33333333333334</ele><time>2026-04-04T10:25:24.188Z</time></trkpt><trkpt lat="44.97653" lon="9.5220817"><ele>103.66666666666666</ele><time>2026-04-04T10:25:25.188Z</time></trkpt><trkpt lat="44.9763517" lon="9.5220233"><ele>104.0</ele><time>2026-04-04T10:25:26.188Z</time></trkpt><trkpt lat="44.9761783" lon="9.5219683"><ele>104.0</ele><time>2026-04-04T10:25:27.187Z</time></trkpt><trkpt lat="44.976015" lon="9.5219167"><ele>104.0</ele><time>2026-04-04T10:25:28.187Z</time></trkpt><trkpt lat="44.9758583" lon="9.5218683"><ele>104.0</ele><time>2026-04-04T10:25:29.188Z</time></trkpt><trkpt lat="44.9757167" lon="9.521825"><ele>104.2</ele><time>2026-04-04T10:25:30.188Z</time></trkpt><trkpt lat="44.9755883" lon="9.521785"><ele>104.4</ele><time>2026-04-04T10:25:31.188Z</time></trkpt><trkpt lat="44.975475" lon="9.5217533"><ele>104.6</ele><time>2026-04-04T10:25:32.188Z</time></trkpt><trkpt lat="44.975375" lon="9.521725"><ele>104.8</ele><time>2026-04-04T10:25:33.187Z</time></trkpt><trkpt lat="44.9752867" lon="9.521705"><ele>105.0</ele><time>2026-04-04T10:25:34.187Z</time></trkpt><trkpt lat="44.97521" lon="9.521685"><ele>105.0</ele><time>2026-04-04T10:25:35.188Z</time></trkpt><trkpt lat="44.9751467" lon="9.5216633"><ele>105.0</ele><time>2026-04-04T10:25:36.187Z</time></trkpt><trkpt lat="44.9750717" lon="9.52164"><ele>105.0</ele><time>2026-04-04T10:25:38.188Z</time></trkpt><trkpt lat="44.97501" lon="9.52167"><ele>105.0</ele><time>2026-04-04T10:25:44.19Z</time></trkpt><trkpt lat="44.9749417" lon="9.5218417"><ele>105.0</ele><time>2026-04-04T10:25:46.189Z</time></trkpt><trkpt lat="44.9749117" lon="9.52199"><ele>106.25</ele><time>2026-04-04T10:25:47.187Z</time></trkpt><trkpt lat="44.9748883" lon="9.5221633"><ele>107.5</ele><time>2026-04-04T10:25:48.187Z</time></trkpt><trkpt lat="44.9748667" lon="9.5223417"><ele>108.75</ele><time>2026-04-04T10:25:49.192Z</time></trkpt><trkpt lat="44.9748467" lon="9.5225167"><ele>110.0</ele><time>2026-04-04T10:25:50.189Z</time></trkpt><trkpt lat="44.9748283" lon="9.522695"><ele>110.0</ele><time>2026-04-04T10:25:51.188Z</time></trkpt><trkpt lat="44.9748133" lon="9.52289"><ele>110.0</ele><time>2026-04-04T10:25:52.195Z</time></trkpt><trkpt lat="44.9747967" lon="9.5231"><ele>110.0</ele><time>2026-04-04T10:25:53.189Z</time></trkpt><trkpt lat="44.974775" lon="9.5233133"><ele>110.0</ele><time>2026-04-04T10:25:54.187Z</time></trkpt><trkpt lat="44.97475" lon="9.523535"><ele>111.75</ele><time>2026-04-04T10:25:55.188Z</time></trkpt><trkpt lat="44.974725" lon="9.5237583"><ele>113.5</ele><time>2026-04-04T10:25:56.188Z</time></trkpt><trkpt lat="44.9747" lon="9.5239617"><ele>115.25</ele><time>2026-04-04T10:25:57.187Z</time></trkpt><trkpt lat="44.974675" lon="9.5241367"><ele>117.0</ele><time>2026-04-04T10:25:58.188Z</time></trkpt><trkpt lat="44.97464" lon="9.5242817"><ele>117.0</ele><time>2026-04-04T10:25:59.189Z</time></trkpt><trkpt lat="44.974595" lon="9.5243983"><ele>117.0</ele><time>2026-04-04T10:26:00.189Z</time></trkpt><trkpt lat="44.9745417" lon="9.524495"><ele>117.0</ele><time>2026-04-04T10:26:01.189Z</time></trkpt><trkpt lat="44.97448" lon="9.5245717"><ele>117.0</ele><time>2026-04-04T10:26:02.188Z</time></trkpt><trkpt lat="44.9744117" lon="9.52462"><ele>117.0</ele><time>2026-04-04T10:26:03.187Z</time></trkpt><trkpt lat="44.9743233" lon="9.5246333"><ele>117.0</ele><time>2026-04-04T10:26:04.188Z</time></trkpt><trkpt lat="44.9742183" lon="9.52461"><ele>117.5</ele><time>2026-04-04T10:26:05.187Z</time></trkpt><trkpt lat="44.9741067" lon="9.52457"><ele>118.0</ele><time>2026-04-04T10:26:06.188Z</time></trkpt><trkpt lat="44.9739933" lon="9.5245317"><ele>118.5</ele><time>2026-04-04T10:26:07.187Z</time></trkpt><trkpt lat="44.9738733" lon="9.5244967"><ele>119.0</ele><time>2026-04-04T10:26:08.188Z</time></trkpt><trkpt lat="44.9737517" lon="9.5244583"><ele>119.0</ele><time>2026-04-04T10:26:09.187Z</time></trkpt><trkpt lat="44.973625" lon="9.5244133"><ele>119.0</ele><time>2026-04-04T10:26:10.187Z</time></trkpt><trkpt lat="44.9734917" lon="9.5243683"><ele>119.0</ele><time>2026-04-04T10:26:11.188Z</time></trkpt><trkpt lat="44.9733517" lon="9.5243267"><ele>119.0</ele><time>2026-04-04T10:26:12.188Z</time></trkpt><trkpt lat="44.9732" lon="9.5242833"><ele>120.0</ele><time>2026-04-04T10:26:13.187Z</time></trkpt><trkpt lat="44.9730467" lon="9.5242383"><ele>121.0</ele><time>2026-04-04T10:26:14.188Z</time></trkpt><trkpt lat="44.9728917" lon="9.5241933"><ele>122.0</ele><time>2026-04-04T10:26:15.187Z</time></trkpt><trkpt lat="44.9727467" lon="9.5241483"><ele>122.0</ele><time>2026-04-04T10:26:16.187Z</time></trkpt><trkpt lat="44.9726033" lon="9.524105"><ele>122.0</ele><time>2026-04-04T10:26:17.188Z</time></trkpt><trkpt lat="44.9724517" lon="9.52406"><ele>122.0</ele><time>2026-04-04T10:26:18.187Z</time></trkpt><trkpt lat="44.972295" lon="9.524015"><ele>122.66666666666666</ele><time>2026-04-04T10:26:19.187Z</time></trkpt><trkpt lat="44.9721283" lon="9.52396"><ele>123.33333333333334</ele><time>2026-04-04T10:26:20.188Z</time></trkpt><trkpt lat="44.97196" lon="9.5238983"><ele>124.0</ele><time>2026-04-04T10:26:21.189Z</time></trkpt><trkpt lat="44.9717933" lon="9.5238283"><ele>125.33333333333334</ele><time>2026-04-04T10:26:22.187Z</time></trkpt><trkpt lat="44.9716367" lon="9.5237583"><ele>126.66666666666666</ele><time>2026-04-04T10:26:23.188Z</time></trkpt><trkpt lat="44.9714883" lon="9.5236933"><ele>128.0</ele><time>2026-04-04T10:26:24.188Z</time></trkpt><trkpt lat="44.97134" lon="9.5236317"><ele>128.5</ele><time>2026-04-04T10:26:25.188Z</time></trkpt><trkpt lat="44.9712" lon="9.52357"><ele>129.0</ele><time>2026-04-04T10:26:26.188Z</time></trkpt><trkpt lat="44.97107" lon="9.523515"><ele>129.5</ele><time>2026-04-04T10:26:27.188Z</time></trkpt><trkpt lat="44.9709567" lon="9.5234717"><ele>130.0</ele><time>2026-04-04T10:26:28.187Z</time></trkpt><trkpt lat="44.9708667" lon="9.5234383"><ele>130.0</ele><time>2026-04-04T10:26:29.187Z</time></trkpt><trkpt lat="44.9707933" lon="9.5234183"><ele>130.0</ele><time>2026-04-04T10:26:30.188Z</time></trkpt><trkpt lat="44.970705" lon="9.5234333"><ele>130.0</ele><time>2026-04-04T10:26:32.188Z</time></trkpt><trkpt lat="44.97066" lon="9.5235483"><ele>130.0</ele><time>2026-04-04T10:26:34.189Z</time></trkpt><trkpt lat="44.9706383" lon="9.5236783"><ele>130.0</ele><time>2026-04-04T10:26:36.187Z</time></trkpt><trkpt lat="44.970645" lon="9.5238017"><ele>130.0</ele><time>2026-04-04T10:28:30.194Z</time></trkpt><trkpt lat="44.9706233" lon="9.5239767"><ele>129.66666666666669</ele><time>2026-04-04T10:28:32.189Z</time></trkpt><trkpt lat="44.9706067" lon="9.5241433"><ele>129.33333333333334</ele><time>2026-04-04T10:28:34.188Z</time></trkpt><trkpt lat="44.9705967" lon="9.5242467"><ele>129.0</ele><time>2026-04-04T10:28:35.188Z</time></trkpt><trkpt lat="44.9705833" lon="9.5243633"><ele>128.66666666666666</ele><time>2026-04-04T10:28:36.19Z</time></trkpt><trkpt lat="44.9705683" lon="9.5244783"><ele>128.33333333333331</ele><time>2026-04-04T10:28:37.188Z</time></trkpt><trkpt lat="44.970555" lon="9.5245867"><ele>128.0</ele><time>2026-04-04T10:28:38.189Z</time></trkpt><trkpt lat="44.9705417" lon="9.524695"><ele>127.66666666666666</ele><time>2026-04-04T10:28:39.188Z</time></trkpt><trkpt lat="44.97053" lon="9.52481"><ele>127.33333333333333</ele><time>2026-04-04T10:28:40.192Z</time></trkpt><trkpt lat="44.9705183" lon="9.52492"><ele>127.0</ele><time>2026-04-04T10:28:41.189Z</time></trkpt><trkpt lat="44.9705117" lon="9.5250233"><ele>126.66666666666666</ele><time>2026-04-04T10:28:42.187Z</time></trkpt><trkpt lat="44.9705183" lon="9.5251383"><ele>126.33333333333333</ele><time>2026-04-04T10:28:43.189Z</time></trkpt><trkpt lat="44.9705267" lon="9.5252617"><ele>126.0</ele><time>2026-04-04T10:28:44.189Z</time></trkpt><trkpt lat="44.9705433" lon="9.525395"><ele>125.19999999999999</ele><time>2026-04-04T10:28:45.188Z</time></trkpt><trkpt lat="44.9705667" lon="9.5255367"><ele>124.39999999999999</ele><time>2026-04-04T10:28:46.189Z</time></trkpt><trkpt lat="44.9705917" lon="9.5256867"><ele>123.6</ele><time>2026-04-04T10:28:47.188Z</time></trkpt><trkpt lat="44.9706167" lon="9.5258317"><ele>122.8</ele><time>2026-04-04T10:28:48.188Z</time></trkpt><trkpt lat="44.9706383" lon="9.52597"><ele>122.0</ele><time>2026-04-04T10:28:49.188Z</time></trkpt><trkpt lat="44.97066" lon="9.5261083"><ele>121.0</ele><time>2026-04-04T10:28:50.188Z</time></trkpt><trkpt lat="44.97068" lon="9.5262533"><ele>119.99999999999999</ele><time>2026-04-04T10:28:51.188Z</time></trkpt><trkpt lat="44.9707017" lon="9.5264"><ele>118.99999999999999</ele><time>2026-04-04T10:28:52.188Z</time></trkpt><trkpt lat="44.9707267" lon="9.52656"><ele>118.0</ele><time>2026-04-04T10:28:53.189Z</time></trkpt><trkpt lat="44.9707483" lon="9.5267183"><ele>117.0</ele><time>2026-04-04T10:28:54.188Z</time></trkpt><trkpt lat="44.9707683" lon="9.5268767"><ele>117.0</ele><time>2026-04-04T10:28:55.188Z</time></trkpt><trkpt lat="44.97079" lon="9.527025"><ele>116.99999999999999</ele><time>2026-04-04T10:28:56.189Z</time></trkpt><trkpt lat="44.9708133" lon="9.5271667"><ele>116.99999999999999</ele><time>2026-04-04T10:28:57.188Z</time></trkpt><trkpt lat="44.970835" lon="9.5273033"><ele>117.0</ele><time>2026-04-04T10:28:58.188Z</time></trkpt><trkpt lat="44.9708517" lon="9.52743"><ele>117.0</ele><time>2026-04-04T10:28:59.188Z</time></trkpt><trkpt lat="44.970855" lon="9.5275517"><ele>117.8</ele><time>2026-04-04T10:29:00.187Z</time></trkpt><trkpt lat="44.97085" lon="9.5276717"><ele>118.6</ele><time>2026-04-04T10:29:01.188Z</time></trkpt><trkpt lat="44.97083" lon="9.5277883"><ele>119.39999999999999</ele><time>2026-04-04T10:29:02.189Z</time></trkpt><trkpt lat="44.9708067" lon="9.52792"><ele>120.19999999999999</ele><time>2026-04-04T10:29:03.189Z</time></trkpt><trkpt lat="44.9707783" lon="9.52806"><ele>121.0</ele><time>2026-04-04T10:29:04.188Z</time></trkpt><trkpt lat="44.9707417" lon="9.5282033"><ele>122.0</ele><time>2026-04-04T10:29:05.188Z</time></trkpt><trkpt lat="44.9707017" lon="9.528355"><ele>123.0</ele><time>2026-04-04T10:29:06.188Z</time></trkpt><trkpt lat="44.9706567" lon="9.52851"><ele>124.0</ele><time>2026-04-04T10:29:07.189Z</time></trkpt><trkpt lat="44.9706117" lon="9.528665"><ele>125.0</ele><time>2026-04-04T10:29:08.189Z</time></trkpt><trkpt lat="44.970565" lon="9.52882"><ele>125.0</ele><time>2026-04-04T10:29:09.19Z</time></trkpt><trkpt lat="44.97052" lon="9.5289783"><ele>125.0</ele><time>2026-04-04T10:29:10.189Z</time></trkpt><trkpt lat="44.9704633" lon="9.5291433"><ele>125.0</ele><time>2026-04-04T10:29:11.189Z</time></trkpt><trkpt lat="44.9704133" lon="9.5293267"><ele>125.0</ele><time>2026-04-04T10:29:12.188Z</time></trkpt><trkpt lat="44.970355" lon="9.5295267"><ele>124.66666666666666</ele><time>2026-04-04T10:29:13.188Z</time></trkpt><trkpt lat="44.9703" lon="9.5297317"><ele>124.33333333333334</ele><time>2026-04-04T10:29:14.188Z</time></trkpt><trkpt lat="44.9702467" lon="9.529935"><ele>124.0</ele><time>2026-04-04T10:29:15.187Z</time></trkpt><trkpt lat="44.9701933" lon="9.5301233"><ele>124.0</ele><time>2026-04-04T10:29:16.187Z</time></trkpt><trkpt lat="44.9701433" lon="9.5303"><ele>124.0</ele><time>2026-04-04T10:29:17.187Z</time></trkpt><trkpt lat="44.970095" lon="9.5304683"><ele>124.0</ele><time>2026-04-04T10:29:18.188Z</time></trkpt><trkpt lat="44.9700483" lon="9.5306383"><ele>124.0</ele><time>2026-04-04T10:29:19.187Z</time></trkpt><trkpt lat="44.9700033" lon="9.5308067"><ele>124.0</ele><time>2026-04-04T10:29:20.188Z</time></trkpt><trkpt lat="44.96996" lon="9.5309633"><ele>124.0</ele><time>2026-04-04T10:29:21.188Z</time></trkpt><trkpt lat="44.9699183" lon="9.5311133"><ele>124.0</ele><time>2026-04-04T10:29:22.187Z</time></trkpt><trkpt lat="44.9698767" lon="9.5312633"><ele>124.0</ele><time>2026-04-04T10:29:23.189Z</time></trkpt><trkpt lat="44.9698383" lon="9.53141"><ele>124.0</ele><time>2026-04-04T10:29:24.188Z</time></trkpt><trkpt lat="44.9698017" lon="9.5315533"><ele>124.0</ele><time>2026-04-04T10:29:25.188Z</time></trkpt><trkpt lat="44.969765" lon="9.5316967"><ele>124.0</ele><time>2026-04-04T10:29:26.189Z</time></trkpt><trkpt lat="44.96972" lon="9.531845"><ele>124.0</ele><time>2026-04-04T10:29:27.188Z</time></trkpt><trkpt lat="44.9696833" lon="9.5319933"><ele>124.0</ele><time>2026-04-04T10:29:28.188Z</time></trkpt><trkpt lat="44.9696533" lon="9.53213"><ele>123.75</ele><time>2026-04-04T10:29:29.187Z</time></trkpt><trkpt lat="44.969615" lon="9.532275"><ele>123.5</ele><time>2026-04-04T10:29:30.188Z</time></trkpt><trkpt lat="44.969575" lon="9.5324333"><ele>123.25</ele><time>2026-04-04T10:29:31.187Z</time></trkpt><trkpt lat="44.969535" lon="9.5325933"><ele>123.0</ele><time>2026-04-04T10:29:32.19Z</time></trkpt><trkpt lat="44.9694917" lon="9.5327483"><ele>122.0</ele><time>2026-04-04T10:29:33.189Z</time></trkpt><trkpt lat="44.969445" lon="9.5329083"><ele>121.0</ele><time>2026-04-04T10:29:34.189Z</time></trkpt><trkpt lat="44.9693967" lon="9.533075"><ele>120.0</ele><time>2026-04-04T10:29:35.188Z</time></trkpt><trkpt lat="44.96935" lon="9.5332433"><ele>119.0</ele><time>2026-04-04T10:29:36.188Z</time></trkpt><trkpt lat="44.969305" lon="9.5334067"><ele>119.0</ele><time>2026-04-04T10:29:37.189Z</time></trkpt><trkpt lat="44.969265" lon="9.533555"><ele>119.0</ele><time>2026-04-04T10:29:38.188Z</time></trkpt><trkpt lat="44.9692283" lon="9.5336833"><ele>119.0</ele><time>2026-04-04T10:29:39.19Z</time></trkpt><trkpt lat="44.96919" lon="9.53379"><ele>119.0</ele><time>2026-04-04T10:29:40.187Z</time></trkpt><trkpt lat="44.96916" lon="9.533875"><ele>119.0</ele><time>2026-04-04T10:29:41.188Z</time></trkpt><trkpt lat="44.969095" lon="9.5339867"><ele>119.2</ele><time>2026-04-04T10:29:43.188Z</time></trkpt><trkpt lat="44.9690267" lon="9.5339967"><ele>119.4</ele><time>2026-04-04T10:29:46.189Z</time></trkpt><trkpt lat="44.9689783" lon="9.5338583"><ele>119.6</ele><time>2026-04-04T10:29:56.189Z</time></trkpt><trkpt lat="44.9689383" lon="9.5337533"><ele>119.8</ele><time>2026-04-04T10:29:58.19Z</time></trkpt><trkpt lat="44.9689717" lon="9.533905"><ele>120.0</ele><time>2026-04-04T10:30:21.187Z</time></trkpt><trkpt lat="44.9689933" lon="9.5340217"><ele>120.0</ele><time>2026-04-04T10:30:23.188Z</time></trkpt><trkpt lat="44.969" lon="9.53412"><ele>120.0</ele><time>2026-04-04T10:30:25.188Z</time></trkpt><trkpt lat="44.9690167" lon="9.53421"><ele>120.0</ele><time>2026-04-04T10:30:27.189Z</time></trkpt><trkpt lat="44.9690417" lon="9.534305"><ele>120.0</ele><time>2026-04-04T10:30:29.189Z</time></trkpt><trkpt lat="44.9690567" lon="9.53441"><ele>120.0</ele><time>2026-04-04T10:30:31.188Z</time></trkpt><trkpt lat="44.9690717" lon="9.5345167"><ele>120.0</ele><time>2026-04-04T10:30:33.188Z</time></trkpt><trkpt lat="44.9690783" lon="9.5346167"><ele>120.0</ele><time>2026-04-04T10:30:35.189Z</time></trkpt><trkpt lat="44.9691067" lon="9.5347033"><ele>120.0</ele><time>2026-04-04T10:30:38.188Z</time></trkpt><trkpt lat="44.9690583" lon="9.5345933"><ele>120.0</ele><time>2026-04-04T10:30:50.189Z</time></trkpt><trkpt lat="44.9690367" lon="9.5344417"><ele>120.0</ele><time>2026-04-04T10:30:52.188Z</time></trkpt><trkpt lat="44.9690233" lon="9.5342717"><ele>120.0</ele><time>2026-04-04T10:30:54.188Z</time></trkpt><trkpt lat="44.9690183" lon="9.534175"><ele>120.0</ele><time>2026-04-04T10:30:55.188Z</time></trkpt><trkpt lat="44.9690117" lon="9.5340717"><ele>120.0</ele><time>2026-04-04T10:30:56.188Z</time></trkpt><trkpt lat="44.9689967" lon="9.53397"><ele>120.0</ele><time>2026-04-04T10:30:57.188Z</time></trkpt><trkpt lat="44.968975" lon="9.5338733"><ele>120.0</ele><time>2026-04-04T10:30:58.188Z</time></trkpt><trkpt lat="44.9689433" lon="9.5337767"><ele>120.0</ele><time>2026-04-04T10:30:59.189Z</time></trkpt><trkpt lat="44.9689" lon="9.5336883"><ele>120.0</ele><time>2026-04-04T10:31:00.189Z</time></trkpt><trkpt lat="44.9688333" lon="9.5336117"><ele>120.0</ele><time>2026-04-04T10:31:01.191Z</time></trkpt><trkpt lat="44.9687433" lon="9.53355"><ele>120.5</ele><time>2026-04-04T10:31:02.188Z</time></trkpt><trkpt lat="44.96863" lon="9.5335017"><ele>121.0</ele><time>2026-04-04T10:31:03.189Z</time></trkpt><trkpt lat="44.9685167" lon="9.533455"><ele>121.5</ele><time>2026-04-04T10:31:04.188Z</time></trkpt><trkpt lat="44.9684067" lon="9.5334"><ele>122.0</ele><time>2026-04-04T10:31:05.189Z</time></trkpt><trkpt lat="44.968295" lon="9.5333333"><ele>122.0</ele><time>2026-04-04T10:31:06.188Z</time></trkpt><trkpt lat="44.968175" lon="9.533255"><ele>122.0</ele><time>2026-04-04T10:31:07.191Z</time></trkpt><trkpt lat="44.9680517" lon="9.5331667"><ele>122.0</ele><time>2026-04-04T10:31:08.189Z</time></trkpt><trkpt lat="44.9679217" lon="9.533075"><ele>122.0</ele><time>2026-04-04T10:31:09.188Z</time></trkpt><trkpt lat="44.9677933" lon="9.53298"><ele>122.75</ele><time>2026-04-04T10:31:10.188Z</time></trkpt><trkpt lat="44.9676633" lon="9.53288"><ele>123.5</ele><time>2026-04-04T10:31:11.189Z</time></trkpt><trkpt lat="44.9675333" lon="9.5327733"><ele>124.25</ele><time>2026-04-04T10:31:12.188Z</time></trkpt><trkpt lat="44.9674183" lon="9.5326683"><ele>125.0</ele><time>2026-04-04T10:31:13.188Z</time></trkpt><trkpt lat="44.9673183" lon="9.5325617"><ele>125.0</ele><time>2026-04-04T10:31:14.188Z</time></trkpt><trkpt lat="44.967225" lon="9.5324683"><ele>125.0</ele><time>2026-04-04T10:31:15.188Z</time></trkpt><trkpt lat="44.9671267" lon="9.532395"><ele>125.0</ele><time>2026-04-04T10:31:16.188Z</time></trkpt><trkpt lat="44.9670183" lon="9.5323383"><ele>125.0</ele><time>2026-04-04T10:31:17.188Z</time></trkpt><trkpt lat="44.9668967" lon="9.5323133"><ele>125.0</ele><time>2026-04-04T10:31:18.188Z</time></trkpt><trkpt lat="44.9667617" lon="9.5323233"><ele>125.0</ele><time>2026-04-04T10:31:19.188Z</time></trkpt><trkpt lat="44.9666233" lon="9.532345"><ele>125.0</ele><time>2026-04-04T10:31:20.188Z</time></trkpt><trkpt lat="44.9664917" lon="9.532365"><ele>125.0</ele><time>2026-04-04T10:31:21.189Z</time></trkpt><trkpt lat="44.9663667" lon="9.5323683"><ele>124.5</ele><time>2026-04-04T10:31:22.189Z</time></trkpt><trkpt lat="44.966235" lon="9.532345"><ele>124.0</ele><time>2026-04-04T10:31:23.188Z</time></trkpt><trkpt lat="44.9661017" lon="9.5322983"><ele>123.5</ele><time>2026-04-04T10:31:24.187Z</time></trkpt><trkpt lat="44.9659783" lon="9.5322483"><ele>123.0</ele><time>2026-04-04T10:31:25.188Z</time></trkpt><trkpt lat="44.9658583" lon="9.532225"><ele>124.66666666666666</ele><time>2026-04-04T10:31:26.192Z</time></trkpt><trkpt lat="44.9657233" lon="9.5322283"><ele>126.33333333333333</ele><time>2026-04-04T10:31:27.187Z</time></trkpt><trkpt lat="44.9655717" lon="9.5322567"><ele>128.0</ele><time>2026-04-04T10:31:28.189Z</time></trkpt><trkpt lat="44.9654117" lon="9.5322983"><ele>128.0</ele><time>2026-04-04T10:31:29.188Z</time></trkpt><trkpt lat="44.9652567" lon="9.53234"><ele>128.0</ele><time>2026-04-04T10:31:30.191Z</time></trkpt><trkpt lat="44.9651117" lon="9.53236"><ele>128.0</ele><time>2026-04-04T10:31:31.188Z</time></trkpt><trkpt lat="44.964965" lon="9.5323567"><ele>130.33333333333331</ele><time>2026-04-04T10:31:32.188Z</time></trkpt><trkpt lat="44.9648033" lon="9.5323383"><ele>132.66666666666666</ele><time>2026-04-04T10:31:33.189Z</time></trkpt><trkpt lat="44.9646367" lon="9.5323083"><ele>135.0</ele><time>2026-04-04T10:31:34.188Z</time></trkpt><trkpt lat="44.964455" lon="9.5322733"><ele>135.0</ele><time>2026-04-04T10:31:35.188Z</time></trkpt><trkpt lat="44.964265" lon="9.5322383"><ele>135.0</ele><time>2026-04-04T10:31:36.188Z</time></trkpt><trkpt lat="44.9640683" lon="9.5322033"><ele>135.0</ele><time>2026-04-04T10:31:37.188Z</time></trkpt><trkpt lat="44.96387" lon="9.5321683"><ele>135.66666666666666</ele><time>2026-04-04T10:31:38.189Z</time></trkpt><trkpt lat="44.9636717" lon="9.53213"><ele>136.33333333333331</ele><time>2026-04-04T10:31:39.189Z</time></trkpt><trkpt lat="44.963475" lon="9.53209"><ele>137.0</ele><time>2026-04-04T10:31:40.189Z</time></trkpt><trkpt lat="44.963275" lon="9.5320517"><ele>137.33333333333331</ele><time>2026-04-04T10:31:41.188Z</time></trkpt><trkpt lat="44.9630783" lon="9.5320183"><ele>137.66666666666666</ele><time>2026-04-04T10:31:42.188Z</time></trkpt><trkpt lat="44.962885" lon="9.5319867"><ele>138.0</ele><time>2026-04-04T10:31:43.188Z</time></trkpt><trkpt lat="44.962695" lon="9.5319583"><ele>138.66666666666666</ele><time>2026-04-04T10:31:44.189Z</time></trkpt><trkpt lat="44.9625033" lon="9.53193"><ele>139.33333333333331</ele><time>2026-04-04T10:31:45.188Z</time></trkpt><trkpt lat="44.962315" lon="9.5319"><ele>140.0</ele><time>2026-04-04T10:31:46.188Z</time></trkpt><trkpt lat="44.9621267" lon="9.5318683"><ele>140.0</ele><time>2026-04-04T10:31:47.188Z</time></trkpt><trkpt lat="44.961935" lon="9.531835"><ele>140.0</ele><time>2026-04-04T10:31:48.188Z</time></trkpt><trkpt lat="44.9617433" lon="9.5318"><ele>140.0</ele><time>2026-04-04T10:31:49.188Z</time></trkpt><trkpt lat="44.9615483" lon="9.5317633"><ele>141.0</ele><time>2026-04-04T10:31:50.188Z</time></trkpt><trkpt lat="44.9613533" lon="9.53173"><ele>142.0</ele><time>2026-04-04T10:31:51.188Z</time></trkpt><trkpt lat="44.9611533" lon="9.531695"><ele>143.0</ele><time>2026-04-04T10:31:52.189Z</time></trkpt><trkpt lat="44.9609567" lon="9.53166"><ele>143.33333333333331</ele><time>2026-04-04T10:31:53.188Z</time></trkpt><trkpt lat="44.9607583" lon="9.5316233"><ele>143.66666666666666</ele><time>2026-04-04T10:31:54.188Z</time></trkpt><trkpt lat="44.96056" lon="9.5315867"><ele>144.0</ele><time>2026-04-04T10:31:55.189Z</time></trkpt><trkpt lat="44.96036" lon="9.53155"><ele>144.0</ele><time>2026-04-04T10:31:56.189Z</time></trkpt><trkpt lat="44.96016" lon="9.5315117"><ele>144.0</ele><time>2026-04-04T10:31:57.19Z</time></trkpt><trkpt lat="44.9599583" lon="9.5314767"><ele>144.0</ele><time>2026-04-04T10:31:58.188Z</time></trkpt><trkpt lat="44.9597567" lon="9.5314417"><ele>144.66666666666666</ele><time>2026-04-04T10:31:59.188Z</time></trkpt><trkpt lat="44.95956" lon="9.5314083"><ele>145.33333333333331</ele><time>2026-04-04T10:32:00.188Z</time></trkpt><trkpt lat="44.95936" lon="9.5313733"><ele>146.0</ele><time>2026-04-04T10:32:01.192Z</time></trkpt><trkpt lat="44.9591633" lon="9.53134"><ele>146.33333333333331</ele><time>2026-04-04T10:32:02.189Z</time></trkpt><trkpt lat="44.958965" lon="9.5313033"><ele>146.66666666666666</ele><time>2026-04-04T10:32:03.191Z</time></trkpt><trkpt lat="44.95877" lon="9.5312667"><ele>147.0</ele><time>2026-04-04T10:32:04.195Z</time></trkpt><trkpt lat="44.95859" lon="9.53123"><ele>146.66666666666666</ele><time>2026-04-04T10:32:05.19Z</time></trkpt><trkpt lat="44.9584217" lon="9.5312"><ele>146.33333333333331</ele><time>2026-04-04T10:32:06.188Z</time></trkpt><trkpt lat="44.9582633" lon="9.5311733"><ele>146.0</ele><time>2026-04-04T10:32:07.188Z</time></trkpt><trkpt lat="44.958115" lon="9.5311417"><ele>147.66666666666666</ele><time>2026-04-04T10:32:08.189Z</time></trkpt><trkpt lat="44.9579683" lon="9.5310883"><ele>149.33333333333334</ele><time>2026-04-04T10:32:09.188Z</time></trkpt><trkpt lat="44.957815" lon="9.5309983"><ele>151.0</ele><time>2026-04-04T10:32:10.188Z</time></trkpt><trkpt lat="44.9576483" lon="9.5309"><ele>150.0</ele><time>2026-04-04T10:32:11.188Z</time></trkpt><trkpt lat="44.95747" lon="9.5307883"><ele>149.0</ele><time>2026-04-04T10:32:12.189Z</time></trkpt><trkpt lat="44.957285" lon="9.5306633"><ele>148.0</ele><time>2026-04-04T10:32:13.188Z</time></trkpt><trkpt lat="44.9570967" lon="9.5305367"><ele>148.0</ele><time>2026-04-04T10:32:14.189Z</time></trkpt><trkpt lat="44.9569117" lon="9.5304167"><ele>148.0</ele><time>2026-04-04T10:32:15.189Z</time></trkpt><trkpt lat="44.9567333" lon="9.5303"><ele>148.0</ele><time>2026-04-04T10:32:16.189Z</time></trkpt><trkpt lat="44.95656" lon="9.53019"><ele>149.0</ele><time>2026-04-04T10:32:17.189Z</time></trkpt><trkpt lat="44.9563967" lon="9.530085"><ele>150.0</ele><time>2026-04-04T10:32:18.189Z</time></trkpt><trkpt lat="44.95625" lon="9.5299933"><ele>151.0</ele><time>2026-04-04T10:32:19.188Z</time></trkpt><trkpt lat="44.956115" lon="9.5299167"><ele>151.0</ele><time>2026-04-04T10:32:20.189Z</time></trkpt><trkpt lat="44.9559833" lon="9.5298717"><ele>151.0</ele><time>2026-04-04T10:32:21.189Z</time></trkpt><trkpt lat="44.955855" lon="9.5298633"><ele>151.0</ele><time>2026-04-04T10:32:22.189Z</time></trkpt><trkpt lat="44.9557317" lon="9.52988"><ele>151.0</ele><time>2026-04-04T10:32:23.188Z</time></trkpt><trkpt lat="44.9556083" lon="9.5299"><ele>151.25</ele><time>2026-04-04T10:32:24.189Z</time></trkpt><trkpt lat="44.9554783" lon="9.52992"><ele>151.5</ele><time>2026-04-04T10:32:25.189Z</time></trkpt><trkpt lat="44.9553483" lon="9.5299267"><ele>151.75</ele><time>2026-04-04T10:32:26.19Z</time></trkpt><trkpt lat="44.9552183" lon="9.529925"><ele>152.0</ele><time>2026-04-04T10:32:27.188Z</time></trkpt><trkpt lat="44.9550967" lon="9.52991"><ele>153.0</ele><time>2026-04-04T10:32:28.188Z</time></trkpt><trkpt lat="44.9549817" lon="9.5298717"><ele>154.0</ele><time>2026-04-04T10:32:29.191Z</time></trkpt><trkpt lat="44.9548767" lon="9.5298033"><ele>155.0</ele><time>2026-04-04T10:32:30.188Z</time></trkpt><trkpt lat="44.9547633" lon="9.5297133"><ele>156.0</ele><time>2026-04-04T10:32:31.189Z</time></trkpt><trkpt lat="44.954635" lon="9.5296"><ele>156.0</ele><time>2026-04-04T10:32:32.188Z</time></trkpt><trkpt lat="44.95449" lon="9.52947"><ele>156.0</ele><time>2026-04-04T10:32:33.188Z</time></trkpt><trkpt lat="44.9543283" lon="9.5293283"><ele>156.0</ele><time>2026-04-04T10:32:34.188Z</time></trkpt><trkpt lat="44.9541483" lon="9.5291717"><ele>156.0</ele><time>2026-04-04T10:32:35.188Z</time></trkpt><trkpt lat="44.953955" lon="9.529005"><ele>156.0</ele><time>2026-04-04T10:32:36.189Z</time></trkpt><trkpt lat="44.9537617" lon="9.5288433"><ele>157.0</ele><time>2026-04-04T10:32:37.188Z</time></trkpt><trkpt lat="44.9535717" lon="9.5286867"><ele>158.0</ele><time>2026-04-04T10:32:38.189Z</time></trkpt><trkpt lat="44.9533867" lon="9.5285317"><ele>159.0</ele><time>2026-04-04T10:32:39.188Z</time></trkpt><trkpt lat="44.95321" lon="9.5283817"><ele>159.0</ele><time>2026-04-04T10:32:40.189Z</time></trkpt><trkpt lat="44.9530417" lon="9.5282417"><ele>159.0</ele><time>2026-04-04T10:32:41.189Z</time></trkpt><trkpt lat="44.952885" lon="9.5281083"><ele>159.0</ele><time>2026-04-04T10:32:42.188Z</time></trkpt><trkpt lat="44.9527317" lon="9.52798"><ele>159.66666666666666</ele><time>2026-04-04T10:32:43.189Z</time></trkpt><trkpt lat="44.9525867" lon="9.5278567"><ele>160.33333333333331</ele><time>2026-04-04T10:32:44.189Z</time></trkpt><trkpt lat="44.95246" lon="9.5277417"><ele>161.0</ele><time>2026-04-04T10:32:45.189Z</time></trkpt><trkpt lat="44.9523417" lon="9.5276183"><ele>161.0</ele><time>2026-04-04T10:32:46.188Z</time></trkpt><trkpt lat="44.9522317" lon="9.5274717"><ele>161.0</ele><time>2026-04-04T10:32:47.188Z</time></trkpt><trkpt lat="44.9521267" lon="9.5273"><ele>161.0</ele><time>2026-04-04T10:32:48.188Z</time></trkpt><trkpt lat="44.9520283" lon="9.5271133"><ele>162.0</ele><time>2026-04-04T10:32:49.188Z</time></trkpt><trkpt lat="44.951935" lon="9.5269167"><ele>163.0</ele><time>2026-04-04T10:32:50.188Z</time></trkpt><trkpt lat="44.951845" lon="9.5267117"><ele>164.0</ele><time>2026-04-04T10:32:51.19Z</time></trkpt><trkpt lat="44.9517567" lon="9.5265033"><ele>163.33333333333331</ele><time>2026-04-04T10:32:52.189Z</time></trkpt><trkpt lat="44.9516683" lon="9.5262933"><ele>162.66666666666666</ele><time>2026-04-04T10:32:53.189Z</time></trkpt><trkpt lat="44.951575" lon="9.5260867"><ele>162.0</ele><time>2026-04-04T10:32:54.187Z</time></trkpt><trkpt lat="44.9514883" lon="9.525885"><ele>163.66666666666666</ele><time>2026-04-04T10:32:55.196Z</time></trkpt><trkpt lat="44.9513983" lon="9.5256867"><ele>165.33333333333331</ele><time>2026-04-04T10:32:56.188Z</time></trkpt><trkpt lat="44.9513117" lon="9.5254917"><ele>167.0</ele><time>2026-04-04T10:32:57.188Z</time></trkpt><trkpt lat="44.9512233" lon="9.5253"><ele>167.5</ele><time>2026-04-04T10:32:58.189Z</time></trkpt><trkpt lat="44.95113" lon="9.5251183"><ele>168.0</ele><time>2026-04-04T10:32:59.189Z</time></trkpt><trkpt lat="44.95104" lon="9.524955"><ele>168.5</ele><time>2026-04-04T10:33:00.188Z</time></trkpt><trkpt lat="44.9509583" lon="9.5248083"><ele>169.0</ele><time>2026-04-04T10:33:01.189Z</time></trkpt><trkpt lat="44.95088" lon="9.5246717"><ele>169.5</ele><time>2026-04-04T10:33:02.188Z</time></trkpt><trkpt lat="44.950805" lon="9.5245367"><ele>170.0</ele><time>2026-04-04T10:33:03.188Z</time></trkpt><trkpt lat="44.9507217" lon="9.524395"><ele>170.5</ele><time>2026-04-04T10:33:04.188Z</time></trkpt><trkpt lat="44.95064" lon="9.5242467"><ele>171.0</ele><time>2026-04-04T10:33:05.188Z</time></trkpt><trkpt lat="44.95056" lon="9.524105"><ele>171.0</ele><time>2026-04-04T10:33:06.189Z</time></trkpt><trkpt lat="44.950485" lon="9.523975"><ele>171.0</ele><time>2026-04-04T10:33:07.188Z</time></trkpt><trkpt lat="44.9504183" lon="9.523855"><ele>171.0</ele><time>2026-04-04T10:33:08.188Z</time></trkpt><trkpt lat="44.9503567" lon="9.5237467"><ele>171.0</ele><time>2026-04-04T10:33:09.188Z</time></trkpt><trkpt lat="44.9502983" lon="9.52365"><ele>171.0</ele><time>2026-04-04T10:33:10.189Z</time></trkpt><trkpt lat="44.9502533" lon="9.523575"><ele>171.0</ele><time>2026-04-04T10:33:11.188Z</time></trkpt><trkpt lat="44.9501933" lon="9.5234983"><ele>171.0</ele><time>2026-04-04T10:33:13.188Z</time></trkpt><trkpt lat="44.9501583" lon="9.5236467"><ele>171.0</ele><time>2026-04-04T10:33:21.188Z</time></trkpt><trkpt lat="44.9501733" lon="9.5237833"><ele>171.0</ele><time>2026-04-04T10:33:22.188Z</time></trkpt><trkpt lat="44.95018" lon="9.52397"><ele>171.0</ele><time>2026-04-04T10:33:23.188Z</time></trkpt><trkpt lat="44.95016" lon="9.52419"><ele>171.0</ele><time>2026-04-04T10:33:24.188Z</time></trkpt><trkpt lat="44.95011" lon="9.5244367"><ele>171.0</ele><time>2026-04-04T10:33:25.188Z</time></trkpt><trkpt lat="44.9500217" lon="9.52473"><ele>171.0</ele><time>2026-04-04T10:33:26.189Z</time></trkpt><trkpt lat="44.9499067" lon="9.5250567"><ele>168.0</ele><time>2026-04-04T10:33:27.188Z</time></trkpt><trkpt lat="44.9497967" lon="9.5253733"><ele>165.0</ele><time>2026-04-04T10:33:28.188Z</time></trkpt><trkpt lat="44.9497017" lon="9.5256733"><ele>162.5</ele><time>2026-04-04T10:33:29.188Z</time></trkpt><trkpt lat="44.949605" lon="9.5259683"><ele>160.0</ele><time>2026-04-04T10:33:30.193Z</time></trkpt><trkpt lat="44.9495083" lon="9.526265"><ele>157.5</ele><time>2026-04-04T10:33:31.188Z</time></trkpt><trkpt lat="44.9494133" lon="9.5265633"><ele>155.0</ele><time>2026-04-04T10:33:32.189Z</time></trkpt><trkpt lat="44.9493217" lon="9.5268567"><ele>153.33333333333331</ele><time>2026-04-04T10:33:33.189Z</time></trkpt><trkpt lat="44.9492317" lon="9.5271367"><ele>151.66666666666666</ele><time>2026-04-04T10:33:34.188Z</time></trkpt><trkpt lat="44.9491433" lon="9.52741"><ele>150.0</ele><time>2026-04-04T10:33:35.188Z</time></trkpt><trkpt lat="44.9490533" lon="9.52769"><ele>149.33333333333334</ele><time>2026-04-04T10:33:36.188Z</time></trkpt><trkpt lat="44.9489617" lon="9.5279667"><ele>148.66666666666669</ele><time>2026-04-04T10:33:37.191Z</time></trkpt><trkpt lat="44.9488717" lon="9.52824"><ele>148.0</ele><time>2026-04-04T10:33:38.19Z</time></trkpt><trkpt lat="44.948785" lon="9.5285033"><ele>148.0</ele><time>2026-04-04T10:33:39.188Z</time></trkpt><trkpt lat="44.9486983" lon="9.5287717"><ele>148.0</ele><time>2026-04-04T10:33:40.19Z</time></trkpt><trkpt lat="44.948615" lon="9.529035"><ele>148.0</ele><time>2026-04-04T10:33:41.189Z</time></trkpt><trkpt lat="44.9485283" lon="9.529305"><ele>148.0</ele><time>2026-04-04T10:33:42.189Z</time></trkpt><trkpt lat="44.9484417" lon="9.5295817"><ele>148.0</ele><time>2026-04-04T10:33:43.188Z</time></trkpt><trkpt lat="44.9483517" lon="9.5298667"><ele>148.0</ele><time>2026-04-04T10:33:44.188Z</time></trkpt><trkpt lat="44.948255" lon="9.53016"><ele>149.0</ele><time>2026-04-04T10:33:45.189Z</time></trkpt><trkpt lat="44.9481567" lon="9.5304633"><ele>150.0</ele><time>2026-04-04T10:33:46.189Z</time></trkpt><trkpt lat="44.9480567" lon="9.5307683"><ele>150.0</ele><time>2026-04-04T10:33:47.188Z</time></trkpt><trkpt lat="44.947955" lon="9.531075"><ele>150.0</ele><time>2026-04-04T10:33:48.189Z</time></trkpt><trkpt lat="44.9478533" lon="9.5313817"><ele>150.0</ele><time>2026-04-04T10:33:49.188Z</time></trkpt><trkpt lat="44.9477583" lon="9.5316783"><ele>150.0</ele><time>2026-04-04T10:33:50.188Z</time></trkpt><trkpt lat="44.9476667" lon="9.53196"><ele>150.33333333333334</ele><time>2026-04-04T10:33:51.191Z</time></trkpt><trkpt lat="44.947575" lon="9.5322333"><ele>150.66666666666669</ele><time>2026-04-04T10:33:52.188Z</time></trkpt><trkpt lat="44.94749" lon="9.5325017"><ele>151.0</ele><time>2026-04-04T10:33:53.188Z</time></trkpt><trkpt lat="44.9474083" lon="9.53276"><ele>152.0</ele><time>2026-04-04T10:33:54.188Z</time></trkpt><trkpt lat="44.9473317" lon="9.5330167"><ele>153.0</ele><time>2026-04-04T10:33:55.188Z</time></trkpt><trkpt lat="44.94727" lon="9.5332717"><ele>154.0</ele><time>2026-04-04T10:33:56.188Z</time></trkpt><trkpt lat="44.9472267" lon="9.53352"><ele>154.66666666666669</ele><time>2026-04-04T10:33:57.188Z</time></trkpt><trkpt lat="44.9471983" lon="9.53376"><ele>155.33333333333334</ele><time>2026-04-04T10:33:58.188Z</time></trkpt><trkpt lat="44.947185" lon="9.5339783"><ele>156.0</ele><time>2026-04-04T10:33:59.194Z</time></trkpt><trkpt lat="44.94717" lon="9.53416"><ele>156.0</ele><time>2026-04-04T10:34:00.193Z</time></trkpt><trkpt lat="44.9471567" lon="9.5343067"><ele>156.0</ele><time>2026-04-04T10:34:01.189Z</time></trkpt><trkpt lat="44.9471383" lon="9.534425"><ele>156.0</ele><time>2026-04-04T10:34:02.189Z</time></trkpt><trkpt lat="44.94711" lon="9.53453"><ele>156.0</ele><time>2026-04-04T10:34:03.188Z</time></trkpt><trkpt lat="44.9470567" lon="9.5345817"><ele>156.0</ele><time>2026-04-04T10:34:04.188Z</time></trkpt><trkpt lat="44.946905" lon="9.53454"><ele>156.0</ele><time>2026-04-04T10:34:06.188Z</time></trkpt><trkpt lat="44.9468317" lon="9.53443"><ele>156.0</ele><time>2026-04-04T10:34:07.188Z</time></trkpt><trkpt lat="44.9467317" lon="9.53427"><ele>156.0</ele><time>2026-04-04T10:34:08.189Z</time></trkpt><trkpt lat="44.9466217" lon="9.5341033"><ele>156.0</ele><time>2026-04-04T10:34:09.189Z</time></trkpt><trkpt lat="44.9464983" lon="9.5339283"><ele>155.66666666666666</ele><time>2026-04-04T10:34:10.188Z</time></trkpt><trkpt lat="44.9463617" lon="9.53374"><ele>155.33333333333331</ele><time>2026-04-04T10:34:11.189Z</time></trkpt><trkpt lat="44.9462217" lon="9.533545"><ele>155.0</ele><time>2026-04-04T10:34:12.19Z</time></trkpt><trkpt lat="44.9460733" lon="9.53335"><ele>154.66666666666666</ele><time>2026-04-04T10:34:13.189Z</time></trkpt><trkpt lat="44.9459133" lon="9.533155"><ele>154.33333333333334</ele><time>2026-04-04T10:34:14.188Z</time></trkpt><trkpt lat="44.9457367" lon="9.53296"><ele>154.0</ele><time>2026-04-04T10:34:15.188Z</time></trkpt><trkpt lat="44.9455483" lon="9.5327517"><ele>155.0</ele><time>2026-04-04T10:34:16.188Z</time></trkpt><trkpt lat="44.945365" lon="9.5325283"><ele>156.0</ele><time>2026-04-04T10:34:17.188Z</time></trkpt><trkpt lat="44.9451883" lon="9.53229"><ele>157.5</ele><time>2026-04-04T10:34:18.188Z</time></trkpt><trkpt lat="44.9450167" lon="9.5320383"><ele>159.0</ele><time>2026-04-04T10:34:19.188Z</time></trkpt><trkpt lat="44.9448533" lon="9.531785"><ele>159.0</ele><time>2026-04-04T10:34:20.189Z</time></trkpt><trkpt lat="44.9446917" lon="9.5315267"><ele>159.0</ele><time>2026-04-04T10:34:21.188Z</time></trkpt><trkpt lat="44.9445317" lon="9.531275"><ele>158.5</ele><time>2026-04-04T10:34:22.188Z</time></trkpt><trkpt lat="44.9443717" lon="9.531025"><ele>158.0</ele><time>2026-04-04T10:34:23.189Z</time></trkpt><trkpt lat="44.9442117" lon="9.53078"><ele>158.0</ele><time>2026-04-04T10:34:24.189Z</time></trkpt><trkpt lat="44.9440517" lon="9.5305333"><ele>158.0</ele><time>2026-04-04T10:34:25.188Z</time></trkpt><trkpt lat="44.9438933" lon="9.5302917"><ele>158.0</ele><time>2026-04-04T10:34:26.189Z</time></trkpt><trkpt lat="44.9437367" lon="9.5300517"><ele>158.0</ele><time>2026-04-04T10:34:27.189Z</time></trkpt><trkpt lat="44.94358" lon="9.5298167"><ele>158.0</ele><time>2026-04-04T10:34:28.188Z</time></trkpt><trkpt lat="44.9434217" lon="9.529585"><ele>158.0</ele><time>2026-04-04T10:34:29.189Z</time></trkpt><trkpt lat="44.9432667" lon="9.5293567"><ele>158.66666666666666</ele><time>2026-04-04T10:34:30.189Z</time></trkpt><trkpt lat="44.9431167" lon="9.5291383"><ele>159.33333333333334</ele><time>2026-04-04T10:34:31.189Z</time></trkpt><trkpt lat="44.9429717" lon="9.528925"><ele>160.0</ele><time>2026-04-04T10:34:32.188Z</time></trkpt><trkpt lat="44.9428317" lon="9.52872"><ele>160.0</ele><time>2026-04-04T10:34:33.188Z</time></trkpt><trkpt lat="44.942695" lon="9.52852"><ele>160.0</ele><time>2026-04-04T10:34:34.188Z</time></trkpt><trkpt lat="44.9425517" lon="9.528315"><ele>160.0</ele><time>2026-04-04T10:34:35.189Z</time></trkpt><trkpt lat="44.942405" lon="9.5281133"><ele>161.0</ele><time>2026-04-04T10:34:36.19Z</time></trkpt><trkpt lat="44.942255" lon="9.5279217"><ele>162.0</ele><time>2026-04-04T10:34:37.193Z</time></trkpt><trkpt lat="44.9420883" lon="9.5277433"><ele>163.0</ele><time>2026-04-04T10:34:38.19Z</time></trkpt><trkpt lat="44.9419167" lon="9.527575"><ele>163.0</ele><time>2026-04-04T10:34:39.188Z</time></trkpt><trkpt lat="44.9417433" lon="9.5274017"><ele>163.0</ele><time>2026-04-04T10:34:40.189Z</time></trkpt><trkpt lat="44.9415633" lon="9.5272233"><ele>163.0</ele><time>2026-04-04T10:34:41.188Z</time></trkpt><trkpt lat="44.9413767" lon="9.52704"><ele>163.0</ele><time>2026-04-04T10:34:42.188Z</time></trkpt><trkpt lat="44.9411867" lon="9.526855"><ele>163.0</ele><time>2026-04-04T10:34:43.189Z</time></trkpt><trkpt lat="44.9409933" lon="9.5266667"><ele>164.0</ele><time>2026-04-04T10:34:44.189Z</time></trkpt><trkpt lat="44.9408033" lon="9.52648"><ele>165.0</ele><time>2026-04-04T10:34:45.19Z</time></trkpt><trkpt lat="44.9406167" lon="9.5262967"><ele>164.66666666666666</ele><time>2026-04-04T10:34:46.188Z</time></trkpt><trkpt lat="44.9404383" lon="9.5261167"><ele>164.33333333333331</ele><time>2026-04-04T10:34:47.189Z</time></trkpt><trkpt lat="44.9402633" lon="9.5259417"><ele>164.0</ele><time>2026-04-04T10:34:48.19Z</time></trkpt><trkpt lat="44.940095" lon="9.525775"><ele>164.66666666666666</ele><time>2026-04-04T10:34:49.19Z</time></trkpt><trkpt lat="44.93993" lon="9.52562"><ele>165.33333333333334</ele><time>2026-04-04T10:34:50.19Z</time></trkpt><trkpt lat="44.93977" lon="9.5254783"><ele>166.0</ele><time>2026-04-04T10:34:51.19Z</time></trkpt><trkpt lat="44.939605" lon="9.5253617"><ele>166.0</ele><time>2026-04-04T10:34:52.189Z</time></trkpt><trkpt lat="44.9394333" lon="9.525275"><ele>166.0</ele><time>2026-04-04T10:34:53.189Z</time></trkpt><trkpt lat="44.9392717" lon="9.5252083"><ele>166.0</ele><time>2026-04-04T10:34:54.189Z</time></trkpt><trkpt lat="44.9391233" lon="9.5251533"><ele>166.60000000000002</ele><time>2026-04-04T10:34:55.188Z</time></trkpt><trkpt lat="44.9390033" lon="9.5251067"><ele>167.2</ele><time>2026-04-04T10:34:56.188Z</time></trkpt><trkpt lat="44.93891" lon="9.5250767"><ele>167.8</ele><time>2026-04-04T10:34:57.188Z</time></trkpt><trkpt lat="44.9388317" lon="9.5250567"><ele>168.39999999999998</ele><time>2026-04-04T10:34:58.188Z</time></trkpt><trkpt lat="44.9387517" lon="9.5250933"><ele>169.0</ele><time>2026-04-04T10:35:00.188Z</time></trkpt><trkpt lat="44.93873" lon="9.5252233"><ele>169.0</ele><time>2026-04-04T10:35:02.188Z</time></trkpt><trkpt lat="44.9387483" lon="9.5253633"><ele>169.0</ele><time>2026-04-04T10:35:03.188Z</time></trkpt><trkpt lat="44.93876" lon="9.5255133"><ele>169.0</ele><time>2026-04-04T10:35:04.188Z</time></trkpt><trkpt lat="44.938765" lon="9.5256633"><ele>169.0</ele><time>2026-04-04T10:35:05.188Z</time></trkpt><trkpt lat="44.9387617" lon="9.525795"><ele>169.0</ele><time>2026-04-04T10:35:06.188Z</time></trkpt><trkpt lat="44.93874" lon="9.5259133"><ele>169.39999999999998</ele><time>2026-04-04T10:35:07.188Z</time></trkpt><trkpt lat="44.938705" lon="9.5260233"><ele>169.8</ele><time>2026-04-04T10:35:08.189Z</time></trkpt><trkpt lat="44.938655" lon="9.5261333"><ele>170.2</ele><time>2026-04-04T10:35:09.189Z</time></trkpt><trkpt lat="44.93859" lon="9.5262333"><ele>170.60000000000002</ele><time>2026-04-04T10:35:10.188Z</time></trkpt><trkpt lat="44.938515" lon="9.526335"><ele>171.0</ele><time>2026-04-04T10:35:11.191Z</time></trkpt><trkpt lat="44.9384333" lon="9.5264367"><ele>174.60000000000002</ele><time>2026-04-04T10:35:12.188Z</time></trkpt><trkpt lat="44.9383533" lon="9.5265367"><ele>178.2</ele><time>2026-04-04T10:35:13.188Z</time></trkpt><trkpt lat="44.9382817" lon="9.526625"><ele>181.8</ele><time>2026-04-04T10:35:14.19Z</time></trkpt><trkpt lat="44.9382117" lon="9.526705"><ele>185.39999999999998</ele><time>2026-04-04T10:35:15.19Z</time></trkpt><trkpt lat="44.9381383" lon="9.5267867"><ele>189.0</ele><time>2026-04-04T10:35:16.188Z</time></trkpt><trkpt lat="44.9380583" lon="9.5268683"><ele>189.0</ele><time>2026-04-04T10:35:17.188Z</time></trkpt><trkpt lat="44.9379833" lon="9.52695"><ele>189.0</ele><time>2026-04-04T10:35:18.188Z</time></trkpt><trkpt lat="44.9379233" lon="9.5270233"><ele>189.0</ele><time>2026-04-04T10:35:19.191Z</time></trkpt><trkpt lat="44.93787" lon="9.5270817"><ele>189.0</ele><time>2026-04-04T10:35:20.19Z</time></trkpt><trkpt lat="44.93777" lon="9.5271817"><ele>189.0</ele><time>2026-04-04T10:35:22.188Z</time></trkpt><trkpt lat="44.9376517" lon="9.5272667"><ele>190.42857142857142</ele><time>2026-04-04T10:35:24.19Z</time></trkpt><trkpt lat="44.93758" lon="9.5273117"><ele>191.85714285714286</ele><time>2026-04-04T10:35:25.19Z</time></trkpt><trkpt lat="44.9375117" lon="9.527355"><ele>193.28571428571428</ele><time>2026-04-04T10:35:26.189Z</time></trkpt><trkpt lat="44.93744" lon="9.5273983"><ele>194.71428571428572</ele><time>2026-04-04T10:35:27.188Z</time></trkpt><trkpt lat="44.937375" lon="9.5274417"><ele>196.14285714285714</ele><time>2026-04-04T10:35:28.189Z</time></trkpt><trkpt lat="44.93731" lon="9.5274833"><ele>197.57142857142856</ele><time>2026-04-04T10:35:29.189Z</time></trkpt><trkpt lat="44.9372433" lon="9.527525"><ele>199.0</ele><time>2026-04-04T10:35:30.188Z</time></trkpt><trkpt lat="44.9371783" lon="9.5275617"><ele>199.85714285714283</ele><time>2026-04-04T10:35:31.19Z</time></trkpt><trkpt lat="44.9371167" lon="9.5275933"><ele>200.71428571428572</ele><time>2026-04-04T10:35:32.189Z</time></trkpt><trkpt lat="44.9370517" lon="9.5276283"><ele>201.57142857142856</ele><time>2026-04-04T10:35:33.188Z</time></trkpt><trkpt lat="44.93699" lon="9.5276567"><ele>202.42857142857142</ele><time>2026-04-04T10:35:34.189Z</time></trkpt><trkpt lat="44.936925" lon="9.5276817"><ele>203.28571428571428</ele><time>2026-04-04T10:35:35.188Z</time></trkpt><trkpt lat="44.9368517" lon="9.5277117"><ele>204.14285714285714</ele><time>2026-04-04T10:35:36.188Z</time></trkpt><trkpt lat="44.9367783" lon="9.5277367"><ele>205.0</ele><time>2026-04-04T10:35:37.19Z</time></trkpt><trkpt lat="44.9367083" lon="9.5277617"><ele>204.99999999999997</ele><time>2026-04-04T10:35:38.188Z</time></trkpt><trkpt lat="44.93664" lon="9.5277933"><ele>205.0</ele><time>2026-04-04T10:35:39.189Z</time></trkpt><trkpt lat="44.9365767" lon="9.5278267"><ele>205.0</ele><time>2026-04-04T10:35:40.189Z</time></trkpt><trkpt lat="44.9365133" lon="9.5278667"><ele>205.0</ele><time>2026-04-04T10:35:41.188Z</time></trkpt><trkpt lat="44.9364117" lon="9.527945"><ele>204.99999999999997</ele><time>2026-04-04T10:35:43.189Z</time></trkpt><trkpt lat="44.9363033" lon="9.5280317"><ele>205.0</ele><time>2026-04-04T10:35:45.19Z</time></trkpt><trkpt lat="44.9362417" lon="9.5280733"><ele>206.85714285714286</ele><time>2026-04-04T10:35:46.189Z</time></trkpt><trkpt lat="44.936185" lon="9.528115"><ele>208.7142857142857</ele><time>2026-04-04T10:35:47.188Z</time></trkpt><trkpt lat="44.9361217" lon="9.5281633"><ele>210.57142857142856</ele><time>2026-04-04T10:35:48.188Z</time></trkpt><trkpt lat="44.9360617" lon="9.5282117"><ele>212.42857142857144</ele><time>2026-04-04T10:35:49.189Z</time></trkpt><trkpt lat="44.9360067" lon="9.5282633"><ele>214.28571428571428</ele><time>2026-04-04T10:35:50.189Z</time></trkpt><trkpt lat="44.9359517" lon="9.5283133"><ele>216.14285714285714</ele><time>2026-04-04T10:35:51.189Z</time></trkpt><trkpt lat="44.935895" lon="9.5283633"><ele>218.0</ele><time>2026-04-04T10:35:52.189Z</time></trkpt><trkpt lat="44.93584" lon="9.5284117"><ele>218.8</ele><time>2026-04-04T10:35:53.188Z</time></trkpt><trkpt lat="44.9357883" lon="9.528465"><ele>219.60000000000002</ele><time>2026-04-04T10:35:54.189Z</time></trkpt><trkpt lat="44.935705" lon="9.5285917"><ele>220.39999999999998</ele><time>2026-04-04T10:35:56.189Z</time></trkpt><trkpt lat="44.93562" lon="9.528695"><ele>221.2</ele><time>2026-04-04T10:35:58.189Z</time></trkpt><trkpt lat="44.9355233" lon="9.5287883"><ele>222.0</ele><time>2026-04-04T10:36:00.188Z</time></trkpt><trkpt lat="44.935445" lon="9.52886"><ele>222.8</ele><time>2026-04-04T10:36:02.19Z</time></trkpt><trkpt lat="44.9353667" lon="9.5289017"><ele>223.6</ele><time>2026-04-04T10:36:04.188Z</time></trkpt><trkpt lat="44.9352583" lon="9.528935"><ele>224.40000000000003</ele><time>2026-04-04T10:36:06.188Z</time></trkpt><trkpt lat="44.93516" lon="9.52897"><ele>225.20000000000002</ele><time>2026-04-04T10:36:08.189Z</time></trkpt><trkpt lat="44.9350845" lon="9.528984"><ele>226.0</ele><time>2026-04-04T10:36:10.189Z</time></trkpt><trkpt lat="44.9350067" lon="9.5289967"><ele>226.42857142857144</ele><time>2026-04-04T10:47:37.189Z</time></trkpt><trkpt lat="44.9349183" lon="9.52902"><ele>226.85714285714283</ele><time>2026-04-04T10:47:39.188Z</time></trkpt><trkpt lat="44.9348567" lon="9.52904"><ele>227.28571428571428</ele><time>2026-04-04T10:47:40.188Z</time></trkpt><trkpt lat="44.934785" lon="9.52906"><ele>227.71428571428572</ele><time>2026-04-04T10:47:41.189Z</time></trkpt><trkpt lat="44.9347167" lon="9.5290783"><ele>228.14285714285717</ele><time>2026-04-04T10:47:42.189Z</time></trkpt><trkpt lat="44.934645" lon="9.529095"><ele>228.57142857142856</ele><time>2026-04-04T10:47:43.191Z</time></trkpt><trkpt lat="44.9345733" lon="9.529115"><ele>229.0</ele><time>2026-04-04T10:47:44.189Z</time></trkpt><trkpt lat="44.934505" lon="9.529135"><ele>228.99999999999997</ele><time>2026-04-04T10:47:45.188Z</time></trkpt><trkpt lat="44.9344317" lon="9.5291533"><ele>229.0</ele><time>2026-04-04T10:47:46.188Z</time></trkpt><trkpt lat="44.934355" lon="9.52918"><ele>229.0</ele><time>2026-04-04T10:47:47.19Z</time></trkpt><trkpt lat="44.934275" lon="9.5292117"><ele>229.0</ele><time>2026-04-04T10:47:48.189Z</time></trkpt><trkpt lat="44.934195" lon="9.5292517"><ele>228.99999999999997</ele><time>2026-04-04T10:47:49.191Z</time></trkpt><trkpt lat="44.9341167" lon="9.5292967"><ele>229.0</ele><time>2026-04-04T10:47:50.189Z</time></trkpt><trkpt lat="44.9340467" lon="9.5293383"><ele>229.42857142857142</ele><time>2026-04-04T10:47:51.188Z</time></trkpt><trkpt lat="44.93398" lon="9.5293817"><ele>229.8571428571429</ele><time>2026-04-04T10:47:52.189Z</time></trkpt><trkpt lat="44.9339183" lon="9.5294183"><ele>230.2857142857143</ele><time>2026-04-04T10:47:53.188Z</time></trkpt><trkpt lat="44.93386" lon="9.5294533"><ele>230.71428571428572</ele><time>2026-04-04T10:47:54.189Z</time></trkpt><trkpt lat="44.9338017" lon="9.5294883"><ele>231.14285714285717</ele><time>2026-04-04T10:47:55.189Z</time></trkpt><trkpt lat="44.93374" lon="9.52952"><ele>231.5714285714286</ele><time>2026-04-04T10:47:56.189Z</time></trkpt><trkpt lat="44.933675" lon="9.52955"><ele>232.00000000000003</ele><time>2026-04-04T10:47:57.189Z</time></trkpt><trkpt lat="44.9336017" lon="9.5295767"><ele>232.49999999999997</ele><time>2026-04-04T10:47:58.189Z</time></trkpt><trkpt lat="44.933525" lon="9.5295983"><ele>233.0</ele><time>2026-04-04T10:47:59.188Z</time></trkpt><trkpt lat="44.93345" lon="9.529615"><ele>233.5</ele><time>2026-04-04T10:48:00.187Z</time></trkpt><trkpt lat="44.9333867" lon="9.529625"><ele>234.0</ele><time>2026-04-04T10:48:01.187Z</time></trkpt><trkpt lat="44.9332783" lon="9.52963"><ele>234.49999999999997</ele><time>2026-04-04T10:48:03.187Z</time></trkpt><trkpt lat="44.9331617" lon="9.52963"><ele>235.0</ele><time>2026-04-04T10:48:05.187Z</time></trkpt><trkpt lat="44.9330967" lon="9.5296333"><ele>236.6</ele><time>2026-04-04T10:48:06.187Z</time></trkpt><trkpt lat="44.9330333" lon="9.5296333"><ele>238.2</ele><time>2026-04-04T10:48:07.187Z</time></trkpt><trkpt lat="44.9329133" lon="9.5296367"><ele>239.8</ele><time>2026-04-04T10:48:09.188Z</time></trkpt><trkpt lat="44.93285" lon="9.5296483"><ele>241.4</ele><time>2026-04-04T10:48:10.188Z</time></trkpt><trkpt lat="44.9327233" lon="9.5296717"><ele>243.0</ele><time>2026-04-04T10:48:12.187Z</time></trkpt><trkpt lat="44.9326117" lon="9.529695"><ele>244.83333333333334</ele><time>2026-04-04T10:48:14.191Z</time></trkpt><trkpt lat="44.9325083" lon="9.5297183"><ele>246.66666666666669</ele><time>2026-04-04T10:48:16.187Z</time></trkpt><trkpt lat="44.9324133" lon="9.529755"><ele>248.5</ele><time>2026-04-04T10:48:18.189Z</time></trkpt><trkpt lat="44.932345" lon="9.5297917"><ele>250.33333333333334</ele><time>2026-04-04T10:48:20.187Z</time></trkpt><trkpt lat="44.9322833" lon="9.5298417"><ele>252.16666666666669</ele><time>2026-04-04T10:48:22.187Z</time></trkpt><trkpt lat="44.9322317" lon="9.5299383"><ele>254.0</ele><time>2026-04-04T10:48:24.188Z</time></trkpt><trkpt lat="44.932195" lon="9.530055"><ele>254.00000000000003</ele><time>2026-04-04T10:48:26.187Z</time></trkpt><trkpt lat="44.93219" lon="9.530185"><ele>254.0</ele><time>2026-04-04T10:48:28.188Z</time></trkpt><trkpt lat="44.9321933" lon="9.53028"><ele>254.0</ele><time>2026-04-04T10:48:30.188Z</time></trkpt><trkpt lat="44.932195" lon="9.53037"><ele>254.0</ele><time>2026-04-04T10:48:32.187Z</time></trkpt><trkpt lat="44.932195" lon="9.53046"><ele>254.00000000000003</ele><time>2026-04-04T10:48:35.187Z</time></trkpt><trkpt lat="44.9321917" lon="9.5305683"><ele>254.0</ele><time>2026-04-04T10:48:38.188Z</time></trkpt><trkpt lat="44.932185" lon="9.5307033"><ele>254.16666666666669</ele><time>2026-04-04T10:48:41.187Z</time></trkpt><trkpt lat="44.9321767" lon="9.530815"><ele>254.33333333333334</ele><time>2026-04-04T10:48:43.189Z</time></trkpt><trkpt lat="44.9321717" lon="9.5309333"><ele>254.5</ele><time>2026-04-04T10:48:45.187Z</time></trkpt><trkpt lat="44.9321667" lon="9.5310517"><ele>254.66666666666669</ele><time>2026-04-04T10:48:47.189Z</time></trkpt><trkpt lat="44.9321533" lon="9.5311433"><ele>254.83333333333334</ele><time>2026-04-04T10:48:49.187Z</time></trkpt><trkpt lat="44.9321367" lon="9.531235"><ele>255.0</ele><time>2026-04-04T10:48:51.188Z</time></trkpt><trkpt lat="44.932115" lon="9.5313433"><ele>255.0</ele><time>2026-04-04T10:48:53.189Z</time></trkpt><trkpt lat="44.9320983" lon="9.53143"><ele>255.00000000000003</ele><time>2026-04-04T10:48:55.189Z</time></trkpt><trkpt lat="44.9320833" lon="9.531535"><ele>255.0</ele><time>2026-04-04T10:48:57.188Z</time></trkpt><trkpt lat="44.9320517" lon="9.5316317"><ele>255.0</ele><time>2026-04-04T10:48:59.188Z</time></trkpt><trkpt lat="44.932025" lon="9.53172"><ele>255.00000000000003</ele><time>2026-04-04T10:49:01.187Z</time></trkpt><trkpt lat="44.9319717" lon="9.5317833"><ele>255.0</ele><time>2026-04-04T10:49:04.187Z</time></trkpt><trkpt lat="44.9318983" lon="9.5318217"><ele>255.0</ele><time>2026-04-04T10:49:06.188Z</time></trkpt><trkpt lat="44.9318033" lon="9.5318683"><ele>256.1666666666667</ele><time>2026-04-04T10:49:08.189Z</time></trkpt><trkpt lat="44.9316833" lon="9.5319"><ele>257.3333333333333</ele><time>2026-04-04T10:49:10.188Z</time></trkpt><trkpt lat="44.93161" lon="9.5319167"><ele>258.5</ele><time>2026-04-04T10:49:11.188Z</time></trkpt><trkpt lat="44.9315367" lon="9.5319283"><ele>259.66666666666663</ele><time>2026-04-04T10:49:12.187Z</time></trkpt><trkpt lat="44.93147" lon="9.5319383"><ele>260.8333333333333</ele><time>2026-04-04T10:49:13.189Z</time></trkpt><trkpt lat="44.9314017" lon="9.5319567"><ele>262.0</ele><time>2026-04-04T10:49:14.188Z</time></trkpt><trkpt lat="44.931315" lon="9.5319733"><ele>262.0</ele><time>2026-04-04T10:49:15.188Z</time></trkpt><trkpt lat="44.9312117" lon="9.531995"><ele>262.0</ele><time>2026-04-04T10:49:16.187Z</time></trkpt><trkpt lat="44.9311167" lon="9.5320167"><ele>262.0</ele><time>2026-04-04T10:49:17.188Z</time></trkpt><trkpt lat="44.931045" lon="9.5320367"><ele>262.0</ele><time>2026-04-04T10:49:18.193Z</time></trkpt><trkpt lat="44.9309333" lon="9.5320883"><ele>262.0</ele><time>2026-04-04T10:49:20.189Z</time></trkpt><trkpt lat="44.93087" lon="9.5321233"><ele>263.16666666666663</ele><time>2026-04-04T10:49:21.188Z</time></trkpt><trkpt lat="44.9308083" lon="9.5321667"><ele>264.3333333333333</ele><time>2026-04-04T10:49:22.188Z</time></trkpt><trkpt lat="44.9307468" lon="9.5322102"><ele>265.5</ele><time>2026-04-04T10:49:23.188Z</time></trkpt><trkpt lat="44.9306845" lon="9.532255"><ele>266.6666666666667</ele><time>2026-04-04T10:49:24.189Z</time></trkpt><trkpt lat="44.9306269" lon="9.5322941"><ele>267.83333333333337</ele><time>2026-04-04T10:49:25.188Z</time></trkpt><trkpt lat="44.9305155" lon="9.5323511"><ele>269.0</ele><time>2026-04-04T10:49:27.19Z</time></trkpt><trkpt lat="44.9304539" lon="9.5323733"><ele>269.0</ele><time>2026-04-04T10:49:28.188Z</time></trkpt><trkpt lat="44.9303886" lon="9.5323865"><ele>269.0</ele><time>2026-04-04T10:49:29.187Z</time></trkpt><trkpt lat="44.9303155" lon="9.5323948"><ele>269.0</ele><time>2026-04-04T10:49:30.188Z</time></trkpt><trkpt lat="44.9302383" lon="9.5324065"><ele>269.0</ele><time>2026-04-04T10:49:31.188Z</time></trkpt><trkpt lat="44.9301666" lon="9.5324162"><ele>269.0</ele><time>2026-04-04T10:49:32.19Z</time></trkpt><trkpt lat="44.9300987" lon="9.5324226"><ele>269.0</ele><time>2026-04-04T10:49:33.188Z</time></trkpt><trkpt lat="44.9300263" lon="9.5324287"><ele>269.0</ele><time>2026-04-04T10:49:34.187Z</time></trkpt><trkpt lat="44.9299455" lon="9.5324372"><ele>269.83333333333337</ele><time>2026-04-04T10:49:35.188Z</time></trkpt><trkpt lat="44.9298594" lon="9.5324502"><ele>270.6666666666667</ele><time>2026-04-04T10:49:36.187Z</time></trkpt><trkpt lat="44.929775" lon="9.5324608"><ele>271.5</ele><time>2026-04-04T10:49:37.187Z</time></trkpt><trkpt lat="44.9297011" lon="9.5324713"><ele>272.3333333333333</ele><time>2026-04-04T10:49:38.188Z</time></trkpt><trkpt lat="44.9296296" lon="9.5324812"><ele>273.16666666666663</ele><time>2026-04-04T10:49:39.188Z</time></trkpt><trkpt lat="44.9295541" lon="9.5324929"><ele>274.0</ele><time>2026-04-04T10:49:40.189Z</time></trkpt><trkpt lat="44.929472" lon="9.5325076"><ele>274.0</ele><time>2026-04-04T10:49:41.188Z</time></trkpt><trkpt lat="44.9293886" lon="9.5325189"><ele>274.0</ele><time>2026-04-04T10:49:42.188Z</time></trkpt><trkpt lat="44.9293008" lon="9.5325305"><ele>274.0</ele><time>2026-04-04T10:49:43.187Z</time></trkpt><trkpt lat="44.9292117" lon="9.5325424"><ele>274.0</ele><time>2026-04-04T10:49:44.188Z</time></trkpt><trkpt lat="44.9291254" lon="9.5325527"><ele>274.0</ele><time>2026-04-04T10:49:45.187Z</time></trkpt><trkpt lat="44.929041" lon="9.5325604"><ele>274.0</ele><time>2026-04-04T10:49:46.187Z</time></trkpt><trkpt lat="44.9289592" lon="9.5325684"><ele>275.3333333333333</ele><time>2026-04-04T10:49:47.187Z</time></trkpt><trkpt lat="44.9288771" lon="9.5325803"><ele>276.66666666666663</ele><time>2026-04-04T10:49:48.189Z</time></trkpt><trkpt lat="44.9287931" lon="9.5325921"><ele>278.0</ele><time>2026-04-04T10:49:49.187Z</time></trkpt><trkpt lat="44.9287083" lon="9.5326055"><ele>279.3333333333333</ele><time>2026-04-04T10:49:50.189Z</time></trkpt><trkpt lat="44.9286197" lon="9.5326183"><ele>280.6666666666667</ele><time>2026-04-04T10:49:51.188Z</time></trkpt><trkpt lat="44.9285279" lon="9.5326324"><ele>282.0</ele><time>2026-04-04T10:49:52.188Z</time></trkpt><trkpt lat="44.9284353" lon="9.532646"><ele>283.1666666666667</ele><time>2026-04-04T10:49:53.188Z</time></trkpt><trkpt lat="44.9283375" lon="9.5326572"><ele>284.3333333333333</ele><time>2026-04-04T10:49:54.189Z</time></trkpt><trkpt lat="44.9282394" lon="9.5326695"><ele>285.5</ele><time>2026-04-04T10:49:55.187Z</time></trkpt><trkpt lat="44.9281517" lon="9.532681"><ele>286.66666666666663</ele><time>2026-04-04T10:49:56.188Z</time></trkpt><trkpt lat="44.9280731" lon="9.5326929"><ele>287.8333333333333</ele><time>2026-04-04T10:49:57.187Z</time></trkpt><trkpt lat="44.9280031" lon="9.5327105"><ele>289.0</ele><time>2026-04-04T10:49:58.188Z</time></trkpt><trkpt lat="44.9279368" lon="9.5327428"><ele>289.0</ele><time>2026-04-04T10:49:59.188Z</time></trkpt><trkpt lat="44.9278778" lon="9.5327874"><ele>289.0</ele><time>2026-04-04T10:50:00.188Z</time></trkpt><trkpt lat="44.9278276" lon="9.5328443"><ele>289.0</ele><time>2026-04-04T10:50:01.188Z</time></trkpt><trkpt lat="44.9277847" lon="9.5329121"><ele>289.0</ele><time>2026-04-04T10:50:02.188Z</time></trkpt><trkpt lat="44.9277467" lon="9.5329902"><ele>289.0</ele><time>2026-04-04T10:50:03.188Z</time></trkpt><trkpt lat="44.9276982" lon="9.5330829"><ele>289.0</ele><time>2026-04-04T10:50:04.187Z</time></trkpt><trkpt lat="44.9276393" lon="9.53318"><ele>289.0</ele><time>2026-04-04T10:50:05.187Z</time></trkpt><trkpt lat="44.9275779" lon="9.5332746"><ele>291.66666666666663</ele><time>2026-04-04T10:50:06.188Z</time></trkpt><trkpt lat="44.9275172" lon="9.5333741"><ele>294.3333333333333</ele><time>2026-04-04T10:50:07.188Z</time></trkpt><trkpt lat="44.9274571" lon="9.5334718"><ele>297.0</ele><time>2026-04-04T10:50:08.19Z</time></trkpt><trkpt lat="44.9273999" lon="9.5335643"><ele>299.6666666666667</ele><time>2026-04-04T10:50:09.188Z</time></trkpt><trkpt lat="44.9273497" lon="9.5336455"><ele>302.33333333333337</ele><time>2026-04-04T10:50:10.189Z</time></trkpt><trkpt lat="44.9273101" lon="9.5337165"><ele>305.0</ele><time>2026-04-04T10:50:11.187Z</time></trkpt><trkpt lat="44.9272678" lon="9.5338152"><ele>305.0</ele><time>2026-04-04T10:50:13.187Z</time></trkpt><trkpt lat="44.9272343" lon="9.5339403"><ele>305.0</ele><time>2026-04-04T10:50:15.189Z</time></trkpt><trkpt lat="44.9272024" lon="9.5340922"><ele>305.0</ele><time>2026-04-04T10:50:17.188Z</time></trkpt><trkpt lat="44.9271745" lon="9.5342567"><ele>305.0</ele><time>2026-04-04T10:50:19.189Z</time></trkpt><trkpt lat="44.9271519" lon="9.5343467"><ele>305.0</ele><time>2026-04-04T10:50:20.189Z</time></trkpt><trkpt lat="44.9271276" lon="9.5344463"><ele>305.0</ele><time>2026-04-04T10:50:21.188Z</time></trkpt><trkpt lat="44.9270985" lon="9.5345531"><ele>305.0</ele><time>2026-04-04T10:50:22.189Z</time></trkpt><trkpt lat="44.9270628" lon="9.5346623"><ele>305.0</ele><time>2026-04-04T10:50:23.188Z</time></trkpt><trkpt lat="44.9270181" lon="9.5347794"><ele>305.0</ele><time>2026-04-04T10:50:24.188Z</time></trkpt><trkpt lat="44.9269646" lon="9.534913"><ele>305.0</ele><time>2026-04-04T10:50:25.189Z</time></trkpt><trkpt lat="44.9269041" lon="9.535062"><ele>305.0</ele><time>2026-04-04T10:50:26.188Z</time></trkpt><trkpt lat="44.9268355" lon="9.5352231"><ele>305.0</ele><time>2026-04-04T10:50:27.188Z</time></trkpt><trkpt lat="44.926763" lon="9.5353903"><ele>305.0</ele><time>2026-04-04T10:50:28.188Z</time></trkpt><trkpt lat="44.9267042" lon="9.5355525"><ele>305.0</ele><time>2026-04-04T10:50:29.187Z</time></trkpt><trkpt lat="44.9266632" lon="9.5356994"><ele>307.2</ele><time>2026-04-04T10:50:30.188Z</time></trkpt><trkpt lat="44.9266273" lon="9.5358301"><ele>309.4</ele><time>2026-04-04T10:50:31.187Z</time></trkpt><trkpt lat="44.9265826" lon="9.5359497"><ele>311.6</ele><time>2026-04-04T10:50:32.188Z</time></trkpt><trkpt lat="44.9265195" lon="9.536061"><ele>313.8</ele><time>2026-04-04T10:50:33.188Z</time></trkpt><trkpt lat="44.9264436" lon="9.5361726"><ele>316.0</ele><time>2026-04-04T10:50:34.188Z</time></trkpt><trkpt lat="44.9263693" lon="9.5362913"><ele>317.4</ele><time>2026-04-04T10:50:35.188Z</time></trkpt><trkpt lat="44.9263067" lon="9.5364133"><ele>318.8</ele><time>2026-04-04T10:50:36.188Z</time></trkpt><trkpt lat="44.9262506" lon="9.5365426"><ele>320.2</ele><time>2026-04-04T10:50:37.188Z</time></trkpt><trkpt lat="44.9261936" lon="9.5366719"><ele>321.59999999999997</ele><time>2026-04-04T10:50:38.189Z</time></trkpt><trkpt lat="44.9261364" lon="9.5367888"><ele>323.0</ele><time>2026-04-04T10:50:39.188Z</time></trkpt><trkpt lat="44.9260785" lon="9.5368878"><ele>323.0</ele><time>2026-04-04T10:50:40.187Z</time></trkpt><trkpt lat="44.9260174" lon="9.536964"><ele>323.0</ele><time>2026-04-04T10:50:41.187Z</time></trkpt><trkpt lat="44.9259502" lon="9.5370276"><ele>323.0</ele><time>2026-04-04T10:50:42.189Z</time></trkpt><trkpt lat="44.9258693" lon="9.5370792"><ele>323.0</ele><time>2026-04-04T10:50:43.187Z</time></trkpt><trkpt lat="44.9257859" lon="9.537123"><ele>323.0</ele><time>2026-04-04T10:50:44.188Z</time></trkpt><trkpt lat="44.9257164" lon="9.537158"><ele>323.0</ele><time>2026-04-04T10:50:45.188Z</time></trkpt><trkpt lat="44.9256153" lon="9.5372083"><ele>325.25</ele><time>2026-04-04T10:50:47.187Z</time></trkpt><trkpt lat="44.9255135" lon="9.537203"><ele>327.5</ele><time>2026-04-04T10:50:49.188Z</time></trkpt><trkpt lat="44.9254262" lon="9.5371596"><ele>329.75</ele><time>2026-04-04T10:50:50.188Z</time></trkpt><trkpt lat="44.9253186" lon="9.537079"><ele>332.0</ele><time>2026-04-04T10:50:51.189Z</time></trkpt><trkpt lat="44.9252031" lon="9.5369759"><ele>332.0</ele><time>2026-04-04T10:50:52.187Z</time></trkpt><trkpt lat="44.9250902" lon="9.5368672"><ele>332.0</ele><time>2026-04-04T10:50:53.188Z</time></trkpt><trkpt lat="44.9249846" lon="9.5367691"><ele>332.0</ele><time>2026-04-04T10:50:54.187Z</time></trkpt><trkpt lat="44.9248719" lon="9.5366923"><ele>332.0</ele><time>2026-04-04T10:50:55.188Z</time></trkpt><trkpt lat="44.9247531" lon="9.5366485"><ele>333.6</ele><time>2026-04-04T10:50:56.189Z</time></trkpt><trkpt lat="44.9246379" lon="9.5366289"><ele>335.20000000000005</ele><time>2026-04-04T10:50:57.188Z</time></trkpt><trkpt lat="44.9245309" lon="9.5366137"><ele>336.8</ele><time>2026-04-04T10:50:58.188Z</time></trkpt><trkpt lat="44.924427" lon="9.5365938"><ele>338.4</ele><time>2026-04-04T10:50:59.188Z</time></trkpt><trkpt lat="44.92433" lon="9.5365683"><ele>340.0</ele><time>2026-04-04T10:51:00.187Z</time></trkpt><trkpt lat="44.9242417" lon="9.5365383"><ele>341.5</ele><time>2026-04-04T10:51:01.188Z</time></trkpt><trkpt lat="44.9241483" lon="9.5365017"><ele>343.0</ele><time>2026-04-04T10:51:02.188Z</time></trkpt><trkpt lat="44.9240633" lon="9.5364633"><ele>344.5</ele><time>2026-04-04T10:51:03.188Z</time></trkpt><trkpt lat="44.9239783" lon="9.5364333"><ele>346.0</ele><time>2026-04-04T10:51:04.187Z</time></trkpt><trkpt lat="44.9238967" lon="9.5364217"><ele>347.5</ele><time>2026-04-04T10:51:05.188Z</time></trkpt><trkpt lat="44.923825" lon="9.5364317"><ele>349.0</ele><time>2026-04-04T10:51:06.187Z</time></trkpt><trkpt lat="44.9237633" lon="9.536465"><ele>349.0</ele><time>2026-04-04T10:51:07.188Z</time></trkpt><trkpt lat="44.9237183" lon="9.53653"><ele>349.0</ele><time>2026-04-04T10:51:08.188Z</time></trkpt><trkpt lat="44.9236783" lon="9.536625"><ele>349.0</ele><time>2026-04-04T10:51:09.191Z</time></trkpt><trkpt lat="44.9236433" lon="9.5367483"><ele>349.0</ele><time>2026-04-04T10:51:10.193Z</time></trkpt><trkpt lat="44.9235983" lon="9.5368883"><ele>349.0</ele><time>2026-04-04T10:51:11.187Z</time></trkpt><trkpt lat="44.92355" lon="9.53703"><ele>349.79999999999995</ele><time>2026-04-04T10:51:12.187Z</time></trkpt><trkpt lat="44.9235" lon="9.5371683"><ele>350.59999999999997</ele><time>2026-04-04T10:51:13.191Z</time></trkpt><trkpt lat="44.9234517" lon="9.5372967"><ele>351.4</ele><time>2026-04-04T10:51:14.189Z</time></trkpt><trkpt lat="44.9233967" lon="9.5374183"><ele>352.2</ele><time>2026-04-04T10:51:15.194Z</time></trkpt><trkpt lat="44.92333" lon="9.53752"><ele>353.0</ele><time>2026-04-04T10:51:16.188Z</time></trkpt><trkpt lat="44.923255" lon="9.5376133"><ele>353.0</ele><time>2026-04-04T10:51:17.19Z</time></trkpt><trkpt lat="44.9231867" lon="9.5376867"><ele>353.0</ele><time>2026-04-04T10:51:18.188Z</time></trkpt><trkpt lat="44.9231167" lon="9.537735"><ele>353.0</ele><time>2026-04-04T10:51:19.19Z</time></trkpt><trkpt lat="44.9230383" lon="9.5377517"><ele>353.0</ele><time>2026-04-04T10:51:20.19Z</time></trkpt><trkpt lat="44.9229417" lon="9.5377483"><ele>353.0</ele><time>2026-04-04T10:51:21.189Z</time></trkpt><trkpt lat="44.9228267" lon="9.537725"><ele>353.0</ele><time>2026-04-04T10:51:22.189Z</time></trkpt><trkpt lat="44.9227117" lon="9.5377083"><ele>353.0</ele><time>2026-04-04T10:51:23.189Z</time></trkpt><trkpt lat="44.9226033" lon="9.5377017"><ele>353.0</ele><time>2026-04-04T10:51:24.189Z</time></trkpt><trkpt lat="44.922495" lon="9.5377117"><ele>353.0</ele><time>2026-04-04T10:51:25.19Z</time></trkpt><trkpt lat="44.9223783" lon="9.5377333"><ele>354.4</ele><time>2026-04-04T10:51:26.19Z</time></trkpt><trkpt lat="44.9222733" lon="9.53775"><ele>355.79999999999995</ele><time>2026-04-04T10:51:27.189Z</time></trkpt><trkpt lat="44.922175" lon="9.5377867"><ele>357.2</ele><time>2026-04-04T10:51:28.189Z</time></trkpt><trkpt lat="44.9220717" lon="9.53785"><ele>358.6</ele><time>2026-04-04T10:51:29.189Z</time></trkpt><trkpt lat="44.9219583" lon="9.537935"><ele>360.0</ele><time>2026-04-04T10:51:30.189Z</time></trkpt><trkpt lat="44.9218183" lon="9.5380383"><ele>361.3333333333333</ele><time>2026-04-04T10:51:31.187Z</time></trkpt><trkpt lat="44.9216633" lon="9.53815"><ele>362.66666666666663</ele><time>2026-04-04T10:51:32.189Z</time></trkpt><trkpt lat="44.92152" lon="9.5382567"><ele>364.0</ele><time>2026-04-04T10:51:33.187Z</time></trkpt><trkpt lat="44.9213883" lon="9.538355"><ele>364.0</ele><time>2026-04-04T10:51:34.189Z</time></trkpt><trkpt lat="44.921265" lon="9.538445"><ele>364.0</ele><time>2026-04-04T10:51:35.19Z</time></trkpt><trkpt lat="44.9211467" lon="9.5385233"><ele>364.0</ele><time>2026-04-04T10:51:36.188Z</time></trkpt><trkpt lat="44.9210367" lon="9.53859"><ele>364.0</ele><time>2026-04-04T10:51:37.187Z</time></trkpt><trkpt lat="44.9209367" lon="9.53864"><ele>363.6</ele><time>2026-04-04T10:51:38.188Z</time></trkpt><trkpt lat="44.9208433" lon="9.5386833"><ele>363.2</ele><time>2026-04-04T10:51:39.192Z</time></trkpt><trkpt lat="44.9207483" lon="9.5387267"><ele>362.8</ele><time>2026-04-04T10:51:40.191Z</time></trkpt><trkpt lat="44.9206467" lon="9.53877"><ele>362.40000000000003</ele><time>2026-04-04T10:51:41.188Z</time></trkpt><trkpt lat="44.9205367" lon="9.5388183"><ele>362.0</ele><time>2026-04-04T10:51:42.188Z</time></trkpt><trkpt lat="44.9204233" lon="9.5388783"><ele>362.0</ele><time>2026-04-04T10:51:43.188Z</time></trkpt><trkpt lat="44.9203067" lon="9.5389467"><ele>362.0</ele><time>2026-04-04T10:51:44.189Z</time></trkpt><trkpt lat="44.92019" lon="9.53902"><ele>362.0</ele><time>2026-04-04T10:51:45.189Z</time></trkpt><trkpt lat="44.9200733" lon="9.53909"><ele>362.0</ele><time>2026-04-04T10:51:46.189Z</time></trkpt><trkpt lat="44.9199567" lon="9.53916"><ele>364.20000000000005</ele><time>2026-04-04T10:51:47.188Z</time></trkpt><trkpt lat="44.9198467" lon="9.53923"><ele>366.4</ele><time>2026-04-04T10:51:48.188Z</time></trkpt><trkpt lat="44.919745" lon="9.5392883"><ele>368.6</ele><time>2026-04-04T10:51:49.189Z</time></trkpt><trkpt lat="44.9196583" lon="9.5393383"><ele>370.79999999999995</ele><time>2026-04-04T10:51:50.189Z</time></trkpt><trkpt lat="44.9195883" lon="9.5393683"><ele>373.0</ele><time>2026-04-04T10:51:51.188Z</time></trkpt><trkpt lat="44.91952" lon="9.539385"><ele>373.0</ele><time>2026-04-04T10:51:52.189Z</time></trkpt><trkpt lat="44.9194467" lon="9.5393767"><ele>373.0</ele><time>2026-04-04T10:51:53.188Z</time></trkpt><trkpt lat="44.9193667" lon="9.5393517"><ele>373.0</ele><time>2026-04-04T10:51:54.188Z</time></trkpt><trkpt lat="44.9192917" lon="9.5393183"><ele>373.0</ele><time>2026-04-04T10:51:55.188Z</time></trkpt><trkpt lat="44.9192267" lon="9.5392867"><ele>373.0</ele><time>2026-04-04T10:51:56.188Z</time></trkpt><trkpt lat="44.91913" lon="9.53924"><ele>373.0</ele><time>2026-04-04T10:51:58.188Z</time></trkpt><trkpt lat="44.919065" lon="9.5392633"><ele>374.8333333333333</ele><time>2026-04-04T10:52:00.188Z</time></trkpt><trkpt lat="44.918995" lon="9.5393633"><ele>376.66666666666663</ele><time>2026-04-04T10:52:02.189Z</time></trkpt><trkpt lat="44.9189533" lon="9.5394367"><ele>378.5</ele><time>2026-04-04T10:52:03.189Z</time></trkpt><trkpt lat="44.9189083" lon="9.5395167"><ele>380.3333333333333</ele><time>2026-04-04T10:52:04.188Z</time></trkpt><trkpt lat="44.91886" lon="9.539595"><ele>382.1666666666667</ele><time>2026-04-04T10:52:05.189Z</time></trkpt><trkpt lat="44.9188067" lon="9.539675"><ele>384.0</ele><time>2026-04-04T10:52:06.187Z</time></trkpt><trkpt lat="44.9187533" lon="9.53975"><ele>384.1666666666667</ele><time>2026-04-04T10:52:07.188Z</time></trkpt><trkpt lat="44.918695" lon="9.5398167"><ele>384.33333333333337</ele><time>2026-04-04T10:52:08.188Z</time></trkpt><trkpt lat="44.918635" lon="9.53988"><ele>384.5</ele><time>2026-04-04T10:52:09.188Z</time></trkpt><trkpt lat="44.9185617" lon="9.539955"><ele>384.6666666666667</ele><time>2026-04-04T10:52:10.191Z</time></trkpt><trkpt lat="44.9184817" lon="9.54004"><ele>384.83333333333337</ele><time>2026-04-04T10:52:11.187Z</time></trkpt><trkpt lat="44.91841" lon="9.54011"><ele>385.0</ele><time>2026-04-04T10:52:12.188Z</time></trkpt><trkpt lat="44.9183467" lon="9.5401717"><ele>387.4</ele><time>2026-04-04T10:52:13.188Z</time></trkpt><trkpt lat="44.9182417" lon="9.5402633"><ele>389.8</ele><time>2026-04-04T10:52:15.188Z</time></trkpt><trkpt lat="44.91818" lon="9.5403117"><ele>392.20000000000005</ele><time>2026-04-04T10:52:16.188Z</time></trkpt><trkpt lat="44.91812" lon="9.5403583"><ele>394.6</ele><time>2026-04-04T10:52:17.189Z</time></trkpt><trkpt lat="44.9180117" lon="9.5404417"><ele>397.0</ele><time>2026-04-04T10:52:19.189Z</time></trkpt><trkpt lat="44.9179533" lon="9.5404783"><ele>397.0</ele><time>2026-04-04T10:52:20.19Z</time></trkpt><trkpt lat="44.917895" lon="9.540515"><ele>397.0</ele><time>2026-04-04T10:52:21.189Z</time></trkpt><trkpt lat="44.917835" lon="9.54055"><ele>397.0</ele><time>2026-04-04T10:52:22.189Z</time></trkpt><trkpt lat="44.917775" lon="9.54058"><ele>397.0</ele><time>2026-04-04T10:52:23.189Z</time></trkpt><trkpt lat="44.9177133" lon="9.5406167"><ele>397.0</ele><time>2026-04-04T10:52:24.189Z</time></trkpt><trkpt lat="44.9176483" lon="9.5406583"><ele>397.0</ele><time>2026-04-04T10:52:25.189Z</time></trkpt><trkpt lat="44.9175833" lon="9.5406983"><ele>397.0</ele><time>2026-04-04T10:52:26.19Z</time></trkpt><trkpt lat="44.9175183" lon="9.5407417"><ele>401.40000000000003</ele><time>2026-04-04T10:52:27.189Z</time></trkpt><trkpt lat="44.9174533" lon="9.5407917"><ele>405.8</ele><time>2026-04-04T10:52:28.189Z</time></trkpt><trkpt lat="44.91735" lon="9.540885"><ele>410.2</ele><time>2026-04-04T10:52:30.191Z</time></trkpt><trkpt lat="44.9172417" lon="9.5409417"><ele>414.6</ele><time>2026-04-04T10:52:32.189Z</time></trkpt><trkpt lat="44.91718" lon="9.5409617"><ele>419.0</ele><time>2026-04-04T10:52:33.189Z</time></trkpt><trkpt lat="44.91707" lon="9.5410167"><ele>418.99999999999994</ele><time>2026-04-04T10:52:35.188Z</time></trkpt><trkpt lat="44.9170133" lon="9.5410567"><ele>419.0</ele><time>2026-04-04T10:52:36.189Z</time></trkpt><trkpt lat="44.9169483" lon="9.5411067"><ele>419.0</ele><time>2026-04-04T10:52:37.189Z</time></trkpt><trkpt lat="44.9168783" lon="9.5411683"><ele>419.0</ele><time>2026-04-04T10:52:38.192Z</time></trkpt><trkpt lat="44.91681" lon="9.5412333"><ele>418.99999999999994</ele><time>2026-04-04T10:52:39.189Z</time></trkpt><trkpt lat="44.916755" lon="9.5412883"><ele>419.0</ele><time>2026-04-04T10:52:40.19Z</time></trkpt><trkpt lat="44.9166933" lon="9.5413783"><ele>420.2</ele><time>2026-04-04T10:52:42.188Z</time></trkpt><trkpt lat="44.9166217" lon="9.5414745"><ele>421.4</ele><time>2026-04-04T10:52:50.19Z</time></trkpt><trkpt lat="44.9165486" lon="9.5415145"><ele>422.6</ele><time>2026-04-04T10:52:52.189Z</time></trkpt><trkpt lat="44.9164778" lon="9.5415097"><ele>423.8</ele><time>2026-04-04T10:52:54.189Z</time></trkpt><trkpt lat="44.9163811" lon="9.5414799"><ele>425.0</ele><time>2026-04-04T10:52:56.191Z</time></trkpt><trkpt lat="44.9162747" lon="9.5414408"><ele>425.0</ele><time>2026-04-04T10:52:58.189Z</time></trkpt><trkpt lat="44.9161692" lon="9.5414039"><ele>425.0</ele><time>2026-04-04T10:53:00.189Z</time></trkpt><trkpt lat="44.9160722" lon="9.5413906"><ele>425.0</ele><time>2026-04-04T10:53:02.19Z</time></trkpt><trkpt lat="44.9159755" lon="9.5413751"><ele>425.0</ele><time>2026-04-04T10:53:04.188Z</time></trkpt><trkpt lat="44.9158573" lon="9.5413607"><ele>425.0</ele><time>2026-04-04T10:53:06.189Z</time></trkpt><trkpt lat="44.9157317" lon="9.541335"><ele>426.8333333333333</ele><time>2026-04-04T10:53:08.189Z</time></trkpt><trkpt lat="44.9156636" lon="9.5413198"><ele>428.66666666666663</ele><time>2026-04-04T10:53:09.188Z</time></trkpt><trkpt lat="44.9155977" lon="9.541303"><ele>430.5</ele><time>2026-04-04T10:53:10.189Z</time></trkpt><trkpt lat="44.9155341" lon="9.5412843"><ele>432.33333333333337</ele><time>2026-04-04T10:53:11.189Z</time></trkpt><trkpt lat="44.9154142" lon="9.5412482"><ele>434.1666666666667</ele><time>2026-04-04T10:53:13.188Z</time></trkpt><trkpt lat="44.9153509" lon="9.5412298"><ele>436.0</ele><time>2026-04-04T10:53:14.19Z</time></trkpt><trkpt lat="44.9152816" lon="9.5412077"><ele>436.2857142857143</ele><time>2026-04-04T10:53:15.189Z</time></trkpt><trkpt lat="44.9152097" lon="9.5411858"><ele>436.57142857142856</ele><time>2026-04-04T10:53:16.188Z</time></trkpt><trkpt lat="44.9151348" lon="9.5411624"><ele>436.8571428571429</ele><time>2026-04-04T10:53:17.188Z</time></trkpt><trkpt lat="44.9150634" lon="9.5411398"><ele>437.1428571428571</ele><time>2026-04-04T10:53:18.188Z</time></trkpt><trkpt lat="44.9149946" lon="9.5411184"><ele>437.4285714285714</ele><time>2026-04-04T10:53:19.188Z</time></trkpt><trkpt lat="44.9149265" lon="9.541097"><ele>437.7142857142857</ele><time>2026-04-04T10:53:20.189Z</time></trkpt><trkpt lat="44.9148585" lon="9.541078"><ele>438.0</ele><time>2026-04-04T10:53:21.188Z</time></trkpt><trkpt lat="44.9147944" lon="9.5410601"><ele>439.2857142857143</ele><time>2026-04-04T10:53:22.189Z</time></trkpt><trkpt lat="44.9147311" lon="9.5410465"><ele>440.57142857142856</ele><time>2026-04-04T10:53:23.189Z</time></trkpt><trkpt lat="44.9146599" lon="9.5410374"><ele>441.85714285714283</ele><time>2026-04-04T10:53:24.188Z</time></trkpt><trkpt lat="44.9145892" lon="9.5410325"><ele>443.1428571428571</ele><time>2026-04-04T10:53:25.188Z</time></trkpt><trkpt lat="44.9145203" lon="9.5410366"><ele>444.42857142857144</ele><time>2026-04-04T10:53:26.188Z</time></trkpt><trkpt lat="44.9144573" lon="9.541047"><ele>445.71428571428567</ele><time>2026-04-04T10:53:27.189Z</time></trkpt><trkpt lat="44.914371" lon="9.5410745"><ele>447.0</ele><time>2026-04-04T10:53:29.19Z</time></trkpt><trkpt lat="44.9143092" lon="9.5410958"><ele>447.0</ele><time>2026-04-04T10:53:31.188Z</time></trkpt><trkpt lat="44.9142467" lon="9.5411667"><ele>447.0</ele><time>2026-04-04T10:53:41.189Z</time></trkpt><trkpt lat="44.9142017" lon="9.5412317"><ele>447.0</ele><time>2026-04-04T10:53:43.189Z</time></trkpt><trkpt lat="44.91415" lon="9.541315"><ele>447.0</ele><time>2026-04-04T10:53:45.188Z</time></trkpt><trkpt lat="44.9140983" lon="9.5414117"><ele>447.0</ele><time>2026-04-04T10:53:47.188Z</time></trkpt><trkpt lat="44.91404" lon="9.5415317"><ele>447.0</ele><time>2026-04-04T10:53:49.188Z</time></trkpt><trkpt lat="44.9139867" lon="9.5416483"><ele>447.8</ele><time>2026-04-04T10:53:51.189Z</time></trkpt><trkpt lat="44.913935" lon="9.541765"><ele>448.6</ele><time>2026-04-04T10:53:53.188Z</time></trkpt><trkpt lat="44.9138933" lon="9.5418933"><ele>449.40000000000003</ele><time>2026-04-04T10:53:55.188Z</time></trkpt><trkpt lat="44.91386" lon="9.5420183"><ele>450.20000000000005</ele><time>2026-04-04T10:53:57.189Z</time></trkpt><trkpt lat="44.9138417" lon="9.5421817"><ele>451.0</ele><time>2026-04-04T10:53:59.189Z</time></trkpt><trkpt lat="44.9138367" lon="9.5423167"><ele>451.0</ele><time>2026-04-04T10:54:01.19Z</time></trkpt><trkpt lat="44.9138367" lon="9.5424183"><ele>451.0</ele><time>2026-04-04T10:54:03.189Z</time></trkpt><trkpt lat="44.91383" lon="9.5425183"><ele>451.0</ele><time>2026-04-04T10:54:05.188Z</time></trkpt><trkpt lat="44.9138317" lon="9.542645"><ele>451.0</ele><time>2026-04-04T10:54:07.188Z</time></trkpt><trkpt lat="44.9138567" lon="9.542795"><ele>451.0</ele><time>2026-04-04T10:54:09.188Z</time></trkpt><trkpt lat="44.91389" lon="9.5429617"><ele>451.75</ele><time>2026-04-04T10:54:11.188Z</time></trkpt><trkpt lat="44.91392" lon="9.54312"><ele>452.5</ele><time>2026-04-04T10:54:13.188Z</time></trkpt><trkpt lat="44.9139517" lon="9.5432817"><ele>453.25</ele><time>2026-04-04T10:54:15.188Z</time></trkpt><trkpt lat="44.91399" lon="9.543445"><ele>454.0</ele><time>2026-04-04T10:54:17.189Z</time></trkpt><trkpt lat="44.914015" lon="9.5435783"><ele>454.1666666666667</ele><time>2026-04-04T10:54:19.19Z</time></trkpt><trkpt lat="44.914015" lon="9.543715"><ele>454.33333333333337</ele><time>2026-04-04T10:54:21.19Z</time></trkpt><trkpt lat="44.9139983" lon="9.5438417"><ele>454.5</ele><time>2026-04-04T10:54:23.191Z</time></trkpt><trkpt lat="44.91397" lon="9.543945"><ele>454.66666666666663</ele><time>2026-04-04T10:54:25.188Z</time></trkpt><trkpt lat="44.9139467" lon="9.54407"><ele>454.8333333333333</ele><time>2026-04-04T10:54:27.188Z</time></trkpt><trkpt lat="44.9139383" lon="9.54416"><ele>455.0</ele><time>2026-04-04T10:54:28.188Z</time></trkpt><trkpt lat="44.9139317" lon="9.544315"><ele>455.0</ele><time>2026-04-04T10:54:30.189Z</time></trkpt><trkpt lat="44.9139267" lon="9.5444933"><ele>455.0</ele><time>2026-04-04T10:54:32.193Z</time></trkpt><trkpt lat="44.91392" lon="9.5446717"><ele>455.0</ele><time>2026-04-04T10:54:34.189Z</time></trkpt><trkpt lat="44.9139183" lon="9.5448333"><ele>455.0</ele><time>2026-04-04T10:54:36.19Z</time></trkpt><trkpt lat="44.9139067" lon="9.5449667"><ele>455.49999999999994</ele><time>2026-04-04T10:54:38.191Z</time></trkpt><trkpt lat="44.9138817" lon="9.54506"><ele>456.0</ele><time>2026-04-04T10:54:40.188Z</time></trkpt><trkpt lat="44.9138067" lon="9.54514"><ele>456.5</ele><time>2026-04-04T10:54:43.19Z</time></trkpt><trkpt lat="44.9137333" lon="9.5451967"><ele>457.0</ele><time>2026-04-04T10:54:45.188Z</time></trkpt><trkpt lat="44.9136267" lon="9.5452517"><ele>457.49999999999994</ele><time>2026-04-04T10:54:47.188Z</time></trkpt><trkpt lat="44.913545" lon="9.5452933"><ele>458.0</ele><time>2026-04-04T10:54:49.189Z</time></trkpt><trkpt lat="44.913445" lon="9.5453383"><ele>456.99999999999994</ele><time>2026-04-04T10:54:58.188Z</time></trkpt><trkpt lat="44.91336" lon="9.54539"><ele>456.0</ele><time>2026-04-04T10:55:01.189Z</time></trkpt><trkpt lat="44.9133" lon="9.5454267"><ele>455.0</ele><time>2026-04-04T10:55:03.188Z</time></trkpt><trkpt lat="44.9132333" lon="9.5454633"><ele>454.0</ele><time>2026-04-04T10:55:05.188Z</time></trkpt><trkpt lat="44.9131583" lon="9.5455"><ele>452.99999999999994</ele><time>2026-04-04T10:55:07.188Z</time></trkpt><trkpt lat="44.9130817" lon="9.5455417"><ele>452.0</ele><time>2026-04-04T10:55:09.189Z</time></trkpt><trkpt lat="44.912985" lon="9.5455867"><ele>452.0</ele><time>2026-04-04T10:55:11.189Z</time></trkpt><trkpt lat="44.912885" lon="9.5456267"><ele>452.00000000000006</ele><time>2026-04-04T10:55:13.188Z</time></trkpt><trkpt lat="44.91279" lon="9.545665"><ele>452.00000000000006</ele><time>2026-04-04T10:55:15.19Z</time></trkpt><trkpt lat="44.9127" lon="9.545705"><ele>452.0</ele><time>2026-04-04T10:55:17.188Z</time></trkpt><trkpt lat="44.9125983" lon="9.545755"><ele>452.0</ele><time>2026-04-04T10:55:19.189Z</time></trkpt><trkpt lat="44.912535" lon="9.5457883"><ele>452.40000000000003</ele><time>2026-04-04T10:55:20.19Z</time></trkpt><trkpt lat="44.9124333" lon="9.5458367"><ele>452.80000000000007</ele><time>2026-04-04T10:55:22.189Z</time></trkpt><trkpt lat="44.9123283" lon="9.545885"><ele>453.2</ele><time>2026-04-04T10:55:24.188Z</time></trkpt><trkpt lat="44.9122117" lon="9.5459233"><ele>453.6</ele><time>2026-04-04T10:55:26.19Z</time></trkpt><trkpt lat="44.91215" lon="9.5459417"><ele>454.0</ele><time>2026-04-04T10:55:27.19Z</time></trkpt><trkpt lat="44.9120467" lon="9.545965"><ele>454.00000000000006</ele><time>2026-04-04T10:55:29.189Z</time></trkpt><trkpt lat="44.9119517" lon="9.545995"><ele>454.0</ele><time>2026-04-04T10:55:31.189Z</time></trkpt><trkpt lat="44.9118617" lon="9.5460333"><ele>454.0</ele><time>2026-04-04T10:55:33.189Z</time></trkpt><trkpt lat="44.9117733" lon="9.5460633"><ele>454.0</ele><time>2026-04-04T10:55:35.19Z</time></trkpt><trkpt lat="44.9116817" lon="9.5460933"><ele>454.00000000000006</ele><time>2026-04-04T10:55:37.189Z</time></trkpt><trkpt lat="44.9116133" lon="9.5461233"><ele>454.0</ele><time>2026-04-04T10:55:39.189Z</time></trkpt><trkpt lat="44.911545" lon="9.546165"><ele>453.79999999999995</ele><time>2026-04-04T10:55:41.189Z</time></trkpt><trkpt lat="44.91148" lon="9.54622"><ele>453.59999999999997</ele><time>2026-04-04T10:55:43.189Z</time></trkpt><trkpt lat="44.9114" lon="9.54629"><ele>453.4</ele><time>2026-04-04T10:55:45.188Z</time></trkpt><trkpt lat="44.911295" lon="9.54637"><ele>453.2</ele><time>2026-04-04T10:55:47.188Z</time></trkpt><trkpt lat="44.9112167" lon="9.5464217"><ele>453.0</ele><time>2026-04-04T10:55:48.188Z</time></trkpt><trkpt lat="44.9111217" lon="9.546475"><ele>453.0</ele><time>2026-04-04T10:55:49.19Z</time></trkpt><trkpt lat="44.91103" lon="9.5465267"><ele>452.99999999999994</ele><time>2026-04-04T10:55:50.189Z</time></trkpt><trkpt lat="44.91095" lon="9.54658"><ele>452.99999999999994</ele><time>2026-04-04T10:55:51.189Z</time></trkpt><trkpt lat="44.9108667" lon="9.5466367"><ele>453.0</ele><time>2026-04-04T10:55:52.19Z</time></trkpt><trkpt lat="44.91077" lon="9.5466983"><ele>453.0</ele><time>2026-04-04T10:55:53.188Z</time></trkpt><trkpt lat="44.9106583" lon="9.5467667"><ele>454.25</ele><time>2026-04-04T10:55:54.189Z</time></trkpt><trkpt lat="44.9105467" lon="9.5468317"><ele>455.5</ele><time>2026-04-04T10:55:55.188Z</time></trkpt><trkpt lat="44.9104333" lon="9.5468933"><ele>456.75</ele><time>2026-04-04T10:55:56.188Z</time></trkpt><trkpt lat="44.9103183" lon="9.5469567"><ele>458.0</ele><time>2026-04-04T10:55:57.188Z</time></trkpt><trkpt lat="44.9102033" lon="9.5470233"><ele>457.0</ele><time>2026-04-04T10:55:58.189Z</time></trkpt><trkpt lat="44.9100883" lon="9.5470917"><ele>456.0</ele><time>2026-04-04T10:55:59.189Z</time></trkpt><trkpt lat="44.909975" lon="9.54716"><ele>455.0</ele><time>2026-04-04T10:56:00.189Z</time></trkpt><trkpt lat="44.9098717" lon="9.547225"><ele>454.0</ele><time>2026-04-04T10:56:01.189Z</time></trkpt><trkpt lat="44.9097717" lon="9.547285"><ele>454.00000000000006</ele><time>2026-04-04T10:56:02.189Z</time></trkpt><trkpt lat="44.90968" lon="9.547345"><ele>454.0</ele><time>2026-04-04T10:56:03.188Z</time></trkpt><trkpt lat="44.9096033" lon="9.547395"><ele>454.0</ele><time>2026-04-04T10:56:04.191Z</time></trkpt><trkpt lat="44.9095433" lon="9.5474417"><ele>454.0</ele><time>2026-04-04T10:56:05.189Z</time></trkpt><trkpt lat="44.9094833" lon="9.5474967"><ele>454.00000000000006</ele><time>2026-04-04T10:56:06.188Z</time></trkpt><trkpt lat="44.9094183" lon="9.5475683"><ele>454.0</ele><time>2026-04-04T10:56:07.189Z</time></trkpt><trkpt lat="44.9093567" lon="9.5476517"><ele>454.00000000000006</ele><time>2026-04-04T10:56:08.19Z</time></trkpt><trkpt lat="44.9092917" lon="9.5477467"><ele>454.0</ele><time>2026-04-04T10:56:09.19Z</time></trkpt><trkpt lat="44.9092267" lon="9.5478417"><ele>454.0</ele><time>2026-04-04T10:56:10.189Z</time></trkpt><trkpt lat="44.9091733" lon="9.5479333"><ele>454.0</ele><time>2026-04-04T10:56:11.191Z</time></trkpt><trkpt lat="44.9091333" lon="9.548025"><ele>454.00000000000006</ele><time>2026-04-04T10:56:12.188Z</time></trkpt><trkpt lat="44.9091033" lon="9.5481233"><ele>454.0</ele><time>2026-04-04T10:56:13.188Z</time></trkpt><trkpt lat="44.9090867" lon="9.548235"><ele>453.79999999999995</ele><time>2026-04-04T10:56:14.189Z</time></trkpt><trkpt lat="44.9090717" lon="9.5483517"><ele>453.59999999999997</ele><time>2026-04-04T10:56:15.188Z</time></trkpt><trkpt lat="44.9090483" lon="9.5484633"><ele>453.4</ele><time>2026-04-04T10:56:16.189Z</time></trkpt><trkpt lat="44.9090117" lon="9.5485883"><ele>453.2</ele><time>2026-04-04T10:56:17.189Z</time></trkpt><trkpt lat="44.90895" lon="9.5487367"><ele>453.0</ele><time>2026-04-04T10:56:18.19Z</time></trkpt><trkpt lat="44.90889" lon="9.548885"><ele>453.0</ele><time>2026-04-04T10:56:19.188Z</time></trkpt><trkpt lat="44.908835" lon="9.5490367"><ele>453.0</ele><time>2026-04-04T10:56:20.189Z</time></trkpt><trkpt lat="44.9087767" lon="9.5492"><ele>453.0</ele><time>2026-04-04T10:56:21.189Z</time></trkpt><trkpt lat="44.9087067" lon="9.5493767"><ele>453.0</ele><time>2026-04-04T10:56:22.188Z</time></trkpt><trkpt lat="44.9086317" lon="9.5495483"><ele>450.25</ele><time>2026-04-04T10:56:23.188Z</time></trkpt><trkpt lat="44.9085567" lon="9.5497067"><ele>447.5</ele><time>2026-04-04T10:56:24.188Z</time></trkpt><trkpt lat="44.90849" lon="9.5498517"><ele>444.75</ele><time>2026-04-04T10:56:25.188Z</time></trkpt><trkpt lat="44.9084267" lon="9.54999"><ele>442.0</ele><time>2026-04-04T10:56:26.189Z</time></trkpt><trkpt lat="44.9083717" lon="9.550115"><ele>444.8</ele><time>2026-04-04T10:56:27.188Z</time></trkpt><trkpt lat="44.9083217" lon="9.5502333"><ele>447.6</ele><time>2026-04-04T10:56:28.192Z</time></trkpt><trkpt lat="44.90827" lon="9.5503517"><ele>450.40000000000003</ele><time>2026-04-04T10:56:29.188Z</time></trkpt><trkpt lat="44.908225" lon="9.5504717"><ele>453.20000000000005</ele><time>2026-04-04T10:56:30.189Z</time></trkpt><trkpt lat="44.908185" lon="9.5506067"><ele>456.0</ele><time>2026-04-04T10:56:31.19Z</time></trkpt><trkpt lat="44.90816" lon="9.5507383"><ele>456.0</ele><time>2026-04-04T10:56:32.189Z</time></trkpt><trkpt lat="44.908145" lon="9.550875"><ele>456.0</ele><time>2026-04-04T10:56:33.189Z</time></trkpt><trkpt lat="44.908135" lon="9.551025"><ele>456.0</ele><time>2026-04-04T10:56:34.188Z</time></trkpt><trkpt lat="44.9081183" lon="9.551185"><ele>456.0</ele><time>2026-04-04T10:56:35.189Z</time></trkpt><trkpt lat="44.908095" lon="9.551345"><ele>456.0</ele><time>2026-04-04T10:56:36.189Z</time></trkpt><trkpt lat="44.908065" lon="9.5514967"><ele>454.8</ele><time>2026-04-04T10:56:37.188Z</time></trkpt><trkpt lat="44.9080317" lon="9.55164"><ele>453.6</ele><time>2026-04-04T10:56:38.189Z</time></trkpt><trkpt lat="44.9079967" lon="9.5517633"><ele>452.4</ele><time>2026-04-04T10:56:39.188Z</time></trkpt><trkpt lat="44.9079633" lon="9.5518717"><ele>451.2</ele><time>2026-04-04T10:56:40.189Z</time></trkpt><trkpt lat="44.9079317" lon="9.5519583"><ele>450.0</ele><time>2026-04-04T10:56:41.188Z</time></trkpt><trkpt lat="44.9078483" lon="9.5520817"><ele>449.1666666666667</ele><time>2026-04-04T10:56:43.188Z</time></trkpt><trkpt lat="44.9077883" lon="9.5521267"><ele>448.33333333333337</ele><time>2026-04-04T10:56:44.19Z</time></trkpt><trkpt lat="44.907705" lon="9.552175"><ele>447.5</ele><time>2026-04-04T10:56:45.189Z</time></trkpt><trkpt lat="44.90762" lon="9.5522183"><ele>446.6666666666667</ele><time>2026-04-04T10:56:46.188Z</time></trkpt><trkpt lat="44.9075417" lon="9.5522667"><ele>445.83333333333337</ele><time>2026-04-04T10:56:47.189Z</time></trkpt><trkpt lat="44.90747" lon="9.552325"><ele>445.0</ele><time>2026-04-04T10:56:48.19Z</time></trkpt><trkpt lat="44.90741" lon="9.5524017"><ele>447.1666666666667</ele><time>2026-04-04T10:56:49.189Z</time></trkpt><trkpt lat="44.907345" lon="9.5524833"><ele>449.33333333333337</ele><time>2026-04-04T10:56:50.188Z</time></trkpt><trkpt lat="44.90729" lon="9.5525667"><ele>451.5</ele><time>2026-04-04T10:56:51.187Z</time></trkpt><trkpt lat="44.907225" lon="9.5526417"><ele>453.66666666666663</ele><time>2026-04-04T10:56:52.187Z</time></trkpt><trkpt lat="44.9071483" lon="9.5527117"><ele>455.8333333333333</ele><time>2026-04-04T10:56:53.187Z</time></trkpt><trkpt lat="44.9070517" lon="9.5527733"><ele>458.0</ele><time>2026-04-04T10:56:54.19Z</time></trkpt><trkpt lat="44.906965" lon="9.5528433"><ele>456.79999999999995</ele><time>2026-04-04T10:56:55.187Z</time></trkpt><trkpt lat="44.906875" lon="9.552925"><ele>455.59999999999997</ele><time>2026-04-04T10:56:56.189Z</time></trkpt><trkpt lat="44.9068017" lon="9.5530217"><ele>454.40000000000003</ele><time>2026-04-04T10:56:57.187Z</time></trkpt><trkpt lat="44.90673" lon="9.5531167"><ele>453.20000000000005</ele><time>2026-04-04T10:56:58.187Z</time></trkpt><trkpt lat="44.906645" lon="9.5531967"><ele>452.0</ele><time>2026-04-04T10:56:59.187Z</time></trkpt><trkpt lat="44.9065467" lon="9.5532717"><ele>452.0</ele><time>2026-04-04T10:57:00.187Z</time></trkpt><trkpt lat="44.906445" lon="9.5533417"><ele>452.00000000000006</ele><time>2026-04-04T10:57:01.189Z</time></trkpt><trkpt lat="44.9063483" lon="9.553405"><ele>452.00000000000006</ele><time>2026-04-04T10:57:02.189Z</time></trkpt><trkpt lat="44.9062517" lon="9.5534617"><ele>452.0</ele><time>2026-04-04T10:57:03.188Z</time></trkpt><trkpt lat="44.9061533" lon="9.553505"><ele>452.0</ele><time>2026-04-04T10:57:04.187Z</time></trkpt><trkpt lat="44.9060567" lon="9.5535333"><ele>452.0</ele><time>2026-04-04T10:57:05.187Z</time></trkpt><trkpt lat="44.9059683" lon="9.5535617"><ele>452.00000000000006</ele><time>2026-04-04T10:57:06.187Z</time></trkpt><trkpt lat="44.9058967" lon="9.5535783"><ele>452.00000000000006</ele><time>2026-04-04T10:57:07.188Z</time></trkpt><trkpt lat="44.9057983" lon="9.5536133"><ele>452.0</ele><time>2026-04-04T10:57:09.189Z</time></trkpt><trkpt lat="44.905715" lon="9.5536467"><ele>452.0</ele><time>2026-04-04T10:57:13.187Z</time></trkpt><trkpt lat="44.9055833" lon="9.5535983"><ele>451.6</ele><time>2026-04-04T10:57:15.188Z</time></trkpt><trkpt lat="44.9054933" lon="9.553565"><ele>451.20000000000005</ele><time>2026-04-04T10:57:16.188Z</time></trkpt><trkpt lat="44.9053783" lon="9.5535233"><ele>450.8</ele><time>2026-04-04T10:57:17.188Z</time></trkpt><trkpt lat="44.9052717" lon="9.5535017"><ele>450.4</ele><time>2026-04-04T10:57:18.188Z</time></trkpt><trkpt lat="44.90517" lon="9.5535167"><ele>450.0</ele><time>2026-04-04T10:57:19.188Z</time></trkpt><trkpt lat="44.90508" lon="9.553575"><ele>449.5</ele><time>2026-04-04T10:57:20.199Z</time></trkpt><trkpt lat="44.905005" lon="9.553675"><ele>449.0</ele><time>2026-04-04T10:57:21.187Z</time></trkpt><trkpt lat="44.90492" lon="9.553805"><ele>448.5</ele><time>2026-04-04T10:57:22.188Z</time></trkpt><trkpt lat="44.9048317" lon="9.55394"><ele>448.0</ele><time>2026-04-04T10:57:23.187Z</time></trkpt><trkpt lat="44.9047333" lon="9.5540717"><ele>448.0</ele><time>2026-04-04T10:57:24.187Z</time></trkpt><trkpt lat="44.9046283" lon="9.5541983"><ele>448.0</ele><time>2026-04-04T10:57:25.187Z</time></trkpt><trkpt lat="44.9045233" lon="9.5543217"><ele>448.0</ele><time>2026-04-04T10:57:26.191Z</time></trkpt><trkpt lat="44.9044117" lon="9.5544383"><ele>448.0</ele><time>2026-04-04T10:57:27.187Z</time></trkpt><trkpt lat="44.904305" lon="9.5545467"><ele>450.2</ele><time>2026-04-04T10:57:28.188Z</time></trkpt><trkpt lat="44.9042083" lon="9.55464"><ele>452.4</ele><time>2026-04-04T10:57:29.188Z</time></trkpt><trkpt lat="44.904125" lon="9.55471"><ele>454.59999999999997</ele><time>2026-04-04T10:57:30.188Z</time></trkpt><trkpt lat="44.9040383" lon="9.5547617"><ele>456.79999999999995</ele><time>2026-04-04T10:57:31.187Z</time></trkpt><trkpt lat="44.9039533" lon="9.5547917"><ele>459.0</ele><time>2026-04-04T10:57:32.188Z</time></trkpt><trkpt lat="44.9038617" lon="9.5548033"><ele>459.0</ele><time>2026-04-04T10:57:33.187Z</time></trkpt><trkpt lat="44.9037783" lon="9.5548017"><ele>459.0</ele><time>2026-04-04T10:57:34.187Z</time></trkpt><trkpt lat="44.9037017" lon="9.5548033"><ele>459.0</ele><time>2026-04-04T10:57:35.187Z</time></trkpt><trkpt lat="44.9036383" lon="9.5548083"><ele>459.0</ele><time>2026-04-04T10:57:36.188Z</time></trkpt><trkpt lat="44.9035583" lon="9.5547733"><ele>459.0</ele><time>2026-04-04T10:57:39.187Z</time></trkpt><trkpt lat="44.903555" lon="9.55466"><ele>459.0</ele><time>2026-04-04T10:57:41.188Z</time></trkpt><trkpt lat="44.9035617" lon="9.5545683"><ele>460.5</ele><time>2026-04-04T10:57:42.188Z</time></trkpt><trkpt lat="44.903555" lon="9.5544767"><ele>462.0</ele><time>2026-04-04T10:57:43.188Z</time></trkpt><trkpt lat="44.90354" lon="9.55439"><ele>463.5</ele><time>2026-04-04T10:57:44.189Z</time></trkpt><trkpt lat="44.9035033" lon="9.5543117"><ele>465.0</ele><time>2026-04-04T10:57:45.188Z</time></trkpt><trkpt lat="44.903445" lon="9.554235"><ele>466.5</ele><time>2026-04-04T10:57:46.189Z</time></trkpt><trkpt lat="44.903365" lon="9.5541583"><ele>468.0</ele><time>2026-04-04T10:57:47.187Z</time></trkpt><trkpt lat="44.9032667" lon="9.55407"><ele>468.0</ele><time>2026-04-04T10:57:48.189Z</time></trkpt><trkpt lat="44.9031683" lon="9.5539633"><ele>467.99999999999994</ele><time>2026-04-04T10:57:49.187Z</time></trkpt><trkpt lat="44.90308" lon="9.5538683"><ele>467.99999999999994</ele><time>2026-04-04T10:57:50.187Z</time></trkpt><trkpt lat="44.903015" lon="9.553785"><ele>468.0</ele><time>2026-04-04T10:57:51.188Z</time></trkpt><trkpt lat="44.9029617" lon="9.553695"><ele>468.0</ele><time>2026-04-04T10:57:52.188Z</time></trkpt><trkpt lat="44.902915" lon="9.5535883"><ele>471.0</ele><time>2026-04-04T10:57:53.188Z</time></trkpt><trkpt lat="44.9028683" lon="9.5534483"><ele>474.0</ele><time>2026-04-04T10:57:54.189Z</time></trkpt><trkpt lat="44.902815" lon="9.5532767"><ele>477.0</ele><time>2026-04-04T10:57:55.188Z</time></trkpt><trkpt lat="44.902755" lon="9.5530817"><ele>480.0</ele><time>2026-04-04T10:57:56.188Z</time></trkpt><trkpt lat="44.902705" lon="9.5528967"><ele>479.0</ele><time>2026-04-04T10:57:57.189Z</time></trkpt><trkpt lat="44.9026583" lon="9.5527317"><ele>478.0</ele><time>2026-04-04T10:57:58.188Z</time></trkpt><trkpt lat="44.9026167" lon="9.5525767"><ele>477.0</ele><time>2026-04-04T10:57:59.189Z</time></trkpt><trkpt lat="44.9025733" lon="9.5524317"><ele>476.0</ele><time>2026-04-04T10:58:00.188Z</time></trkpt><trkpt lat="44.902515" lon="9.552275"><ele>476.0</ele><time>2026-04-04T10:58:01.188Z</time></trkpt><trkpt lat="44.9024383" lon="9.5521"><ele>476.0</ele><time>2026-04-04T10:58:02.188Z</time></trkpt><trkpt lat="44.9023517" lon="9.5519117"><ele>476.0</ele><time>2026-04-04T10:58:03.188Z</time></trkpt><trkpt lat="44.9022517" lon="9.5517167"><ele>478.66666666666663</ele><time>2026-04-04T10:58:04.188Z</time></trkpt><trkpt lat="44.9021483" lon="9.5515183"><ele>481.33333333333337</ele><time>2026-04-04T10:58:05.188Z</time></trkpt><trkpt lat="44.90204" lon="9.5513283"><ele>484.0</ele><time>2026-04-04T10:58:06.188Z</time></trkpt><trkpt lat="44.9019233" lon="9.5511483"><ele>483.33333333333337</ele><time>2026-04-04T10:58:07.188Z</time></trkpt><trkpt lat="44.9018017" lon="9.5509717"><ele>482.66666666666663</ele><time>2026-04-04T10:58:08.188Z</time></trkpt><trkpt lat="44.901685" lon="9.55079"><ele>482.0</ele><time>2026-04-04T10:58:09.187Z</time></trkpt><trkpt lat="44.9015683" lon="9.5506033"><ele>482.0</ele><time>2026-04-04T10:58:10.187Z</time></trkpt><trkpt lat="44.901455" lon="9.5504217"><ele>482.0</ele><time>2026-04-04T10:58:11.187Z</time></trkpt><trkpt lat="44.9013467" lon="9.5502483"><ele>482.0</ele><time>2026-04-04T10:58:12.187Z</time></trkpt><trkpt lat="44.901245" lon="9.55009"><ele>483.40000000000003</ele><time>2026-04-04T10:58:13.188Z</time></trkpt><trkpt lat="44.90116" lon="9.5499517"><ele>484.80000000000007</ele><time>2026-04-04T10:58:14.189Z</time></trkpt><trkpt lat="44.9010867" lon="9.5498267"><ele>486.2</ele><time>2026-04-04T10:58:15.19Z</time></trkpt><trkpt lat="44.9010283" lon="9.54972"><ele>487.6</ele><time>2026-04-04T10:58:16.188Z</time></trkpt><trkpt lat="44.9009817" lon="9.5496267"><ele>489.0</ele><time>2026-04-04T10:58:17.187Z</time></trkpt><trkpt lat="44.90092" lon="9.5495033"><ele>489.1666666666667</ele><time>2026-04-04T10:58:19.187Z</time></trkpt><trkpt lat="44.9008683" lon="9.5494383"><ele>489.33333333333337</ele><time>2026-04-04T10:58:22.187Z</time></trkpt><trkpt lat="44.9008433" lon="9.549335"><ele>489.5</ele><time>2026-04-04T10:58:45.187Z</time></trkpt><trkpt lat="44.90089" lon="9.5492583"><ele>489.6666666666667</ele><time>2026-04-04T10:58:47.188Z</time></trkpt><trkpt lat="44.900945" lon="9.5491917"><ele>489.83333333333337</ele><time>2026-04-04T10:58:49.19Z</time></trkpt><trkpt lat="44.9009833" lon="9.5490883"><ele>490.0</ele><time>2026-04-04T10:58:51.191Z</time></trkpt><trkpt lat="44.901005" lon="9.5489233"><ele>491.4</ele><time>2026-04-04T10:58:53.192Z</time></trkpt><trkpt lat="44.9010083" lon="9.5488083"><ele>492.8</ele><time>2026-04-04T10:58:54.189Z</time></trkpt><trkpt lat="44.9010217" lon="9.54867"><ele>494.20000000000005</ele><time>2026-04-04T10:58:55.187Z</time></trkpt><trkpt lat="44.9010383" lon="9.5485283"><ele>495.6</ele><time>2026-04-04T10:58:56.188Z</time></trkpt><trkpt lat="44.9010517" lon="9.5483983"><ele>497.0</ele><time>2026-04-04T10:58:57.188Z</time></trkpt><trkpt lat="44.90106" lon="9.5482783"><ele>496.99999999999994</ele><time>2026-04-04T10:58:58.188Z</time></trkpt><trkpt lat="44.9010717" lon="9.548165"><ele>497.0</ele><time>2026-04-04T10:58:59.188Z</time></trkpt><trkpt lat="44.9010817" lon="9.5480483"><ele>497.0</ele><time>2026-04-04T10:59:00.188Z</time></trkpt><trkpt lat="44.9011017" lon="9.5479283"><ele>497.0</ele><time>2026-04-04T10:59:01.19Z</time></trkpt><trkpt lat="44.901125" lon="9.5478167"><ele>496.99999999999994</ele><time>2026-04-04T10:59:02.188Z</time></trkpt><trkpt lat="44.9011567" lon="9.5477017"><ele>497.0</ele><time>2026-04-04T10:59:03.188Z</time></trkpt><trkpt lat="44.9011933" lon="9.547595"><ele>495.40000000000003</ele><time>2026-04-04T10:59:04.189Z</time></trkpt><trkpt lat="44.9012217" lon="9.5474817"><ele>493.80000000000007</ele><time>2026-04-04T10:59:05.189Z</time></trkpt><trkpt lat="44.90124" lon="9.5473617"><ele>492.2</ele><time>2026-04-04T10:59:06.189Z</time></trkpt><trkpt lat="44.90125" lon="9.5472267"><ele>490.6</ele><time>2026-04-04T10:59:07.189Z</time></trkpt><trkpt lat="44.9012517" lon="9.547095"><ele>489.0</ele><time>2026-04-04T10:59:08.189Z</time></trkpt><trkpt lat="44.9012583" lon="9.546965"><ele>487.4</ele><time>2026-04-04T10:59:09.189Z</time></trkpt><trkpt lat="44.9012733" lon="9.5468317"><ele>485.79999999999995</ele><time>2026-04-04T10:59:10.189Z</time></trkpt><trkpt lat="44.9012967" lon="9.5467"><ele>484.20000000000005</ele><time>2026-04-04T10:59:11.187Z</time></trkpt><trkpt lat="44.9013283" lon="9.546575"><ele>482.6</ele><time>2026-04-04T10:59:12.187Z</time></trkpt><trkpt lat="44.9013617" lon="9.5464533"><ele>481.0</ele><time>2026-04-04T10:59:13.188Z</time></trkpt><trkpt lat="44.9014" lon="9.5463317"><ele>481.0</ele><time>2026-04-04T10:59:14.189Z</time></trkpt><trkpt lat="44.9014417" lon="9.5462117"><ele>481.0</ele><time>2026-04-04T10:59:15.188Z</time></trkpt><trkpt lat="44.90148" lon="9.546095"><ele>481.0</ele><time>2026-04-04T10:59:16.187Z</time></trkpt><trkpt lat="44.9015117" lon="9.545975"><ele>481.0</ele><time>2026-04-04T10:59:17.189Z</time></trkpt><trkpt lat="44.9015417" lon="9.5458417"><ele>481.0</ele><time>2026-04-04T10:59:18.189Z</time></trkpt><trkpt lat="44.90156" lon="9.54572"><ele>480.83333333333337</ele><time>2026-04-04T10:59:19.189Z</time></trkpt><trkpt lat="44.9015717" lon="9.5456"><ele>480.6666666666667</ele><time>2026-04-04T10:59:20.191Z</time></trkpt><trkpt lat="44.90157" lon="9.545495"><ele>480.5</ele><time>2026-04-04T10:59:21.187Z</time></trkpt><trkpt lat="44.901565" lon="9.545405"><ele>480.33333333333337</ele><time>2026-04-04T10:59:22.187Z</time></trkpt><trkpt lat="44.901545" lon="9.545275"><ele>480.1666666666667</ele><time>2026-04-04T10:59:24.189Z</time></trkpt><trkpt lat="44.9014867" lon="9.5451583"><ele>480.0</ele><time>2026-04-04T10:59:26.19Z</time></trkpt><trkpt lat="44.9013733" lon="9.5451167"><ele>480.5</ele><time>2026-04-04T10:59:28.188Z</time></trkpt><trkpt lat="44.9012883" lon="9.5451083"><ele>481.0</ele><time>2026-04-04T10:59:29.19Z</time></trkpt><trkpt lat="44.90118" lon="9.5450917"><ele>481.5</ele><time>2026-04-04T10:59:30.188Z</time></trkpt><trkpt lat="44.90103" lon="9.5450833"><ele>482.0</ele><time>2026-04-04T10:59:31.187Z</time></trkpt><trkpt lat="44.90088" lon="9.5450767"><ele>482.8</ele><time>2026-04-04T10:59:32.284Z</time></trkpt><trkpt lat="44.9007417" lon="9.5450717"><ele>483.6</ele><time>2026-04-04T10:59:33.187Z</time></trkpt><trkpt lat="44.9006233" lon="9.5450733"><ele>484.40000000000003</ele><time>2026-04-04T10:59:34.188Z</time></trkpt><trkpt lat="44.9005217" lon="9.5450717"><ele>485.20000000000005</ele><time>2026-04-04T10:59:35.188Z</time></trkpt><trkpt lat="44.900435" lon="9.5450683"><ele>486.0</ele><time>2026-04-04T10:59:36.189Z</time></trkpt><trkpt lat="44.9003483" lon="9.5450633"><ele>486.0</ele><time>2026-04-04T10:59:37.188Z</time></trkpt><trkpt lat="44.9002583" lon="9.5450583"><ele>486.0</ele><time>2026-04-04T10:59:38.189Z</time></trkpt><trkpt lat="44.9001667" lon="9.5450517"><ele>486.0</ele><time>2026-04-04T10:59:39.188Z</time></trkpt><trkpt lat="44.9000717" lon="9.5450317"><ele>486.0</ele><time>2026-04-04T10:59:40.188Z</time></trkpt><trkpt lat="44.8999767" lon="9.5450033"><ele>486.0</ele><time>2026-04-04T10:59:41.187Z</time></trkpt><trkpt lat="44.8998833" lon="9.544965"><ele>485.3333333333333</ele><time>2026-04-04T10:59:42.188Z</time></trkpt><trkpt lat="44.8997933" lon="9.544925"><ele>484.66666666666663</ele><time>2026-04-04T10:59:43.188Z</time></trkpt><trkpt lat="44.8997083" lon="9.5448817"><ele>484.0</ele><time>2026-04-04T10:59:44.188Z</time></trkpt><trkpt lat="44.8996333" lon="9.5448417"><ele>483.3333333333333</ele><time>2026-04-04T10:59:45.19Z</time></trkpt><trkpt lat="44.8995633" lon="9.5447933"><ele>482.66666666666663</ele><time>2026-04-04T10:59:46.188Z</time></trkpt><trkpt lat="44.8994983" lon="9.544745"><ele>482.0</ele><time>2026-04-04T10:59:47.188Z</time></trkpt><trkpt lat="44.8994333" lon="9.544695"><ele>481.99999999999994</ele><time>2026-04-04T10:59:48.188Z</time></trkpt><trkpt lat="44.89938" lon="9.5446383"><ele>482.0</ele><time>2026-04-04T10:59:49.189Z</time></trkpt><trkpt lat="44.8993017" lon="9.5445283"><ele>482.0</ele><time>2026-04-04T10:59:51.188Z</time></trkpt><trkpt lat="44.8992767" lon="9.5444183"><ele>482.0</ele><time>2026-04-04T10:59:53.189Z</time></trkpt><trkpt lat="44.8992933" lon="9.544315"><ele>481.99999999999994</ele><time>2026-04-04T10:59:55.188Z</time></trkpt><trkpt lat="44.8993667" lon="9.5442617"><ele>482.0</ele><time>2026-04-04T10:59:57.188Z</time></trkpt><trkpt lat="44.8994833" lon="9.5442917"><ele>483.16666666666663</ele><time>2026-04-04T10:59:59.188Z</time></trkpt><trkpt lat="44.8995533" lon="9.544305"><ele>484.3333333333333</ele><time>2026-04-04T11:00:00.188Z</time></trkpt><trkpt lat="44.89968" lon="9.5443133"><ele>485.5</ele><time>2026-04-04T11:00:02.188Z</time></trkpt><trkpt lat="44.8997517" lon="9.544305"><ele>486.66666666666663</ele><time>2026-04-04T11:00:03.188Z</time></trkpt><trkpt lat="44.899825" lon="9.5442767"><ele>487.8333333333333</ele><time>2026-04-04T11:00:04.188Z</time></trkpt><trkpt lat="44.8999" lon="9.5442317"><ele>489.0</ele><time>2026-04-04T11:00:05.188Z</time></trkpt><trkpt lat="44.8999767" lon="9.5441817"><ele>489.0</ele><time>2026-04-04T11:00:06.188Z</time></trkpt><trkpt lat="44.900055" lon="9.544125"><ele>489.0</ele><time>2026-04-04T11:00:07.188Z</time></trkpt><trkpt lat="44.9001467" lon="9.5440767"><ele>489.0</ele><time>2026-04-04T11:00:08.189Z</time></trkpt><trkpt lat="44.9002433" lon="9.544015"><ele>489.0</ele><time>2026-04-04T11:00:09.188Z</time></trkpt><trkpt lat="44.90034" lon="9.5439617"><ele>489.0</ele><time>2026-04-04T11:00:10.188Z</time></trkpt><trkpt lat="44.9004417" lon="9.5439117"><ele>490.1666666666667</ele><time>2026-04-04T11:00:11.189Z</time></trkpt><trkpt lat="44.9005367" lon="9.54387"><ele>491.33333333333337</ele><time>2026-04-04T11:00:12.188Z</time></trkpt><trkpt lat="44.9006133" lon="9.5438333"><ele>492.5</ele><time>2026-04-04T11:00:13.188Z</time></trkpt><trkpt lat="44.9006733" lon="9.543795"><ele>493.6666666666667</ele><time>2026-04-04T11:00:14.188Z</time></trkpt><trkpt lat="44.9007483" lon="9.5437133"><ele>494.83333333333337</ele><time>2026-04-04T11:00:16.188Z</time></trkpt><trkpt lat="44.9007983" lon="9.5436233"><ele>496.0</ele><time>2026-04-04T11:00:18.189Z</time></trkpt><trkpt lat="44.9007451" lon="9.5436988"><ele>496.0</ele><time>2026-04-04T11:00:42.187Z</time></trkpt><trkpt lat="44.9006848" lon="9.5437746"><ele>496.0</ele><time>2026-04-04T11:00:44.189Z</time></trkpt><trkpt lat="44.9006134" lon="9.5438302"><ele>496.0</ele><time>2026-04-04T11:00:46.187Z</time></trkpt><trkpt lat="44.9005254" lon="9.5438715"><ele>496.0</ele><time>2026-04-04T11:00:48.189Z</time></trkpt><trkpt lat="44.9004155" lon="9.543907"><ele>496.0</ele><time>2026-04-04T11:00:50.191Z</time></trkpt><trkpt lat="44.9003243" lon="9.5439473"><ele>496.0</ele><time>2026-04-04T11:00:52.188Z</time></trkpt><trkpt lat="44.9002395" lon="9.5439885"><ele>496.0</ele><time>2026-04-04T11:00:55.188Z</time></trkpt><trkpt lat="44.9001619" lon="9.5440335"><ele>496.0</ele><time>2026-04-04T11:00:57.188Z</time></trkpt><trkpt lat="44.900065" lon="9.5440933"><ele>496.0</ele><time>2026-04-04T11:00:59.188Z</time></trkpt><trkpt lat="44.8999683" lon="9.5441633"><ele>496.0</ele><time>2026-04-04T11:01:01.188Z</time></trkpt><trkpt lat="44.8998717" lon="9.5442283"><ele>494.6</ele><time>2026-04-04T11:01:03.188Z</time></trkpt><trkpt lat="44.899765" lon="9.5442733"><ele>493.20000000000005</ele><time>2026-04-04T11:01:05.188Z</time></trkpt><trkpt lat="44.8996633" lon="9.544285"><ele>491.79999999999995</ele><time>2026-04-04T11:01:07.188Z</time></trkpt><trkpt lat="44.89956" lon="9.5442733"><ele>490.4</ele><time>2026-04-04T11:01:09.188Z</time></trkpt><trkpt lat="44.8994517" lon="9.5442517"><ele>489.0</ele><time>2026-04-04T11:01:11.191Z</time></trkpt><trkpt lat="44.8993717" lon="9.5442383"><ele>489.0</ele><time>2026-04-04T11:01:13.19Z</time></trkpt><trkpt lat="44.8993" lon="9.5442583"><ele>489.0</ele><time>2026-04-04T11:01:15.187Z</time></trkpt><trkpt lat="44.8992633" lon="9.5443517"><ele>489.0</ele><time>2026-04-04T11:01:18.187Z</time></trkpt><trkpt lat="44.899245" lon="9.5444517"><ele>489.0</ele><time>2026-04-04T11:01:29.188Z</time></trkpt><trkpt lat="44.89919" lon="9.5445033"><ele>489.0</ele><time>2026-04-04T11:01:34.188Z</time></trkpt><trkpt lat="44.8991383" lon="9.544435"><ele>489.0</ele><time>2026-04-04T11:01:59.189Z</time></trkpt><trkpt lat="44.8990767" lon="9.5443317"><ele>486.79999999999995</ele><time>2026-04-04T11:02:01.188Z</time></trkpt><trkpt lat="44.8990383" lon="9.5441817"><ele>484.59999999999997</ele><time>2026-04-04T11:02:03.188Z</time></trkpt><trkpt lat="44.8990067" lon="9.5440333"><ele>482.4</ele><time>2026-04-04T11:02:05.19Z</time></trkpt><trkpt lat="44.8989867" lon="9.5438567"><ele>480.2</ele><time>2026-04-04T11:02:07.19Z</time></trkpt><trkpt lat="44.8989867" lon="9.5437583"><ele>478.0</ele><time>2026-04-04T11:02:08.189Z</time></trkpt><trkpt lat="44.89899" lon="9.543665"><ele>477.1666666666667</ele><time>2026-04-04T11:02:09.189Z</time></trkpt><trkpt lat="44.89899" lon="9.5435683"><ele>476.33333333333337</ele><time>2026-04-04T11:02:10.189Z</time></trkpt><trkpt lat="44.89898" lon="9.543465"><ele>475.5</ele><time>2026-04-04T11:02:11.189Z</time></trkpt><trkpt lat="44.8989617" lon="9.5433633"><ele>474.66666666666663</ele><time>2026-04-04T11:02:12.188Z</time></trkpt><trkpt lat="44.8989367" lon="9.54326"><ele>473.8333333333333</ele><time>2026-04-04T11:02:13.188Z</time></trkpt><trkpt lat="44.8989133" lon="9.543155"><ele>473.0</ele><time>2026-04-04T11:02:14.192Z</time></trkpt><trkpt lat="44.8988983" lon="9.5430383"><ele>472.99999999999994</ele><time>2026-04-04T11:02:15.187Z</time></trkpt><trkpt lat="44.898885" lon="9.5429267"><ele>473.0</ele><time>2026-04-04T11:02:16.187Z</time></trkpt><trkpt lat="44.8988633" lon="9.5428217"><ele>473.0</ele><time>2026-04-04T11:02:17.188Z</time></trkpt><trkpt lat="44.8988333" lon="9.5427167"><ele>473.0</ele><time>2026-04-04T11:02:18.189Z</time></trkpt><trkpt lat="44.8988017" lon="9.54262"><ele>472.99999999999994</ele><time>2026-04-04T11:02:19.189Z</time></trkpt><trkpt lat="44.8987733" lon="9.54254"><ele>473.0</ele><time>2026-04-04T11:02:20.19Z</time></trkpt><trkpt lat="44.8987233" lon="9.5424133"><ele>472.66666666666663</ele><time>2026-04-04T11:02:22.187Z</time></trkpt><trkpt lat="44.8986467" lon="9.5423383"><ele>472.3333333333333</ele><time>2026-04-04T11:02:24.188Z</time></trkpt><trkpt lat="44.8985733" lon="9.5423783"><ele>472.0</ele><time>2026-04-04T11:02:27.188Z</time></trkpt><trkpt lat="44.8985317" lon="9.542465"><ele>471.66666666666663</ele><time>2026-04-04T11:02:29.188Z</time></trkpt><trkpt lat="44.8984917" lon="9.5425833"><ele>471.3333333333333</ele><time>2026-04-04T11:02:31.189Z</time></trkpt><trkpt lat="44.898425" lon="9.542685"><ele>471.0</ele><time>2026-04-04T11:02:33.188Z</time></trkpt><trkpt lat="44.8983262" lon="9.5427648"><ele>469.28571428571433</ele><time>2026-04-04T11:02:35.19Z</time></trkpt><trkpt lat="44.8982646" lon="9.5428011"><ele>467.57142857142856</ele><time>2026-04-04T11:02:36.188Z</time></trkpt><trkpt lat="44.8981968" lon="9.5428348"><ele>465.8571428571429</ele><time>2026-04-04T11:02:37.188Z</time></trkpt><trkpt lat="44.898128" lon="9.5428678"><ele>464.14285714285717</ele><time>2026-04-04T11:02:38.188Z</time></trkpt><trkpt lat="44.8980618" lon="9.5428936"><ele>462.42857142857144</ele><time>2026-04-04T11:02:39.188Z</time></trkpt><trkpt lat="44.8979956" lon="9.5429129"><ele>460.7142857142857</ele><time>2026-04-04T11:02:40.188Z</time></trkpt><trkpt lat="44.8979263" lon="9.5429304"><ele>459.0</ele><time>2026-04-04T11:02:41.188Z</time></trkpt><trkpt lat="44.8978586" lon="9.5429417"><ele>459.0</ele><time>2026-04-04T11:02:42.188Z</time></trkpt><trkpt lat="44.8977914" lon="9.5429523"><ele>459.0</ele><time>2026-04-04T11:02:43.194Z</time></trkpt><trkpt lat="44.8977246" lon="9.5429583"><ele>459.0</ele><time>2026-04-04T11:02:44.191Z</time></trkpt><trkpt lat="44.8976568" lon="9.5429546"><ele>459.0</ele><time>2026-04-04T11:02:45.188Z</time></trkpt><trkpt lat="44.89759" lon="9.5429407"><ele>459.0</ele><time>2026-04-04T11:02:46.188Z</time></trkpt><trkpt lat="44.8975194" lon="9.5429218"><ele>459.0</ele><time>2026-04-04T11:02:47.189Z</time></trkpt><trkpt lat="44.8974435" lon="9.5428938"><ele>459.0</ele><time>2026-04-04T11:02:48.189Z</time></trkpt><trkpt lat="44.8973575" lon="9.5428651"><ele>456.0</ele><time>2026-04-04T11:02:49.189Z</time></trkpt><trkpt lat="44.8972769" lon="9.5428383"><ele>453.0</ele><time>2026-04-04T11:02:50.188Z</time></trkpt><trkpt lat="44.8971918" lon="9.5428173"><ele>450.0</ele><time>2026-04-04T11:02:51.188Z</time></trkpt><trkpt lat="44.8971061" lon="9.5428022"><ele>447.0</ele><time>2026-04-04T11:02:52.188Z</time></trkpt><trkpt lat="44.8970219" lon="9.542785"><ele>444.0</ele><time>2026-04-04T11:02:53.188Z</time></trkpt><trkpt lat="44.8969426" lon="9.5427627"><ele>441.0</ele><time>2026-04-04T11:02:54.188Z</time></trkpt><trkpt lat="44.8968691" lon="9.5427401"><ele>441.0</ele><time>2026-04-04T11:02:55.189Z</time></trkpt><trkpt lat="44.8968077" lon="9.5427171"><ele>441.0</ele><time>2026-04-04T11:02:56.188Z</time></trkpt><trkpt lat="44.8967034" lon="9.5426732"><ele>441.0</ele><time>2026-04-04T11:02:58.188Z</time></trkpt><trkpt lat="44.8966004" lon="9.5426529"><ele>441.0</ele><time>2026-04-04T11:03:00.188Z</time></trkpt><trkpt lat="44.8964845" lon="9.5426816"><ele>441.0</ele><time>2026-04-04T11:03:02.189Z</time></trkpt><trkpt lat="44.8963586" lon="9.5427329"><ele>439.5</ele><time>2026-04-04T11:03:04.188Z</time></trkpt><trkpt lat="44.8962902" lon="9.5427472"><ele>438.0</ele><time>2026-04-04T11:03:05.189Z</time></trkpt><trkpt lat="44.8962228" lon="9.5427501"><ele>436.5</ele><time>2026-04-04T11:03:06.19Z</time></trkpt><trkpt lat="44.8961547" lon="9.5427492"><ele>435.0</ele><time>2026-04-04T11:03:07.188Z</time></trkpt><trkpt lat="44.8960299" lon="9.5427365"><ele>433.5</ele><time>2026-04-04T11:03:09.188Z</time></trkpt><trkpt lat="44.8959145" lon="9.5427035"><ele>432.0</ele><time>2026-04-04T11:03:11.188Z</time></trkpt><trkpt lat="44.8958048" lon="9.5426438"><ele>430.1666666666667</ele><time>2026-04-04T11:03:13.188Z</time></trkpt><trkpt lat="44.895699" lon="9.5425433"><ele>428.33333333333337</ele><time>2026-04-04T11:03:15.191Z</time></trkpt><trkpt lat="44.89564" lon="9.5424818"><ele>426.5</ele><time>2026-04-04T11:03:16.188Z</time></trkpt><trkpt lat="44.8955834" lon="9.54242"><ele>424.6666666666667</ele><time>2026-04-04T11:03:17.188Z</time></trkpt><trkpt lat="44.8955251" lon="9.5423643"><ele>422.83333333333337</ele><time>2026-04-04T11:03:18.189Z</time></trkpt><trkpt lat="44.8954632" lon="9.5423189"><ele>421.0</ele><time>2026-04-04T11:03:19.188Z</time></trkpt><trkpt lat="44.8953755" lon="9.5422395"><ele>421.00000000000006</ele><time>2026-04-04T11:03:21.19Z</time></trkpt><trkpt lat="44.8953378" lon="9.5421487"><ele>421.0</ele><time>2026-04-04T11:03:23.189Z</time></trkpt><trkpt lat="44.8953568" lon="9.5420083"><ele>421.0</ele><time>2026-04-04T11:03:25.19Z</time></trkpt><trkpt lat="44.8953901" lon="9.5419217"><ele>421.0</ele><time>2026-04-04T11:03:26.189Z</time></trkpt><trkpt lat="44.8954308" lon="9.5418291"><ele>421.00000000000006</ele><time>2026-04-04T11:03:27.189Z</time></trkpt><trkpt lat="44.8954729" lon="9.541733"><ele>421.0</ele><time>2026-04-04T11:03:28.189Z</time></trkpt><trkpt lat="44.895508" lon="9.5416421"><ele>419.50000000000006</ele><time>2026-04-04T11:03:29.189Z</time></trkpt><trkpt lat="44.8955361" lon="9.5415543"><ele>418.0</ele><time>2026-04-04T11:03:30.189Z</time></trkpt><trkpt lat="44.8955553" lon="9.5414668"><ele>416.5</ele><time>2026-04-04T11:03:31.189Z</time></trkpt><trkpt lat="44.895566" lon="9.5413716"><ele>415.0</ele><time>2026-04-04T11:03:32.191Z</time></trkpt><trkpt lat="44.8955709" lon="9.5412627"><ele>413.50000000000006</ele><time>2026-04-04T11:03:33.189Z</time></trkpt><trkpt lat="44.8955764" lon="9.5411319"><ele>412.0</ele><time>2026-04-04T11:03:34.189Z</time></trkpt><trkpt lat="44.8955904" lon="9.5409835"><ele>411.6</ele><time>2026-04-04T11:03:35.189Z</time></trkpt><trkpt lat="44.8956097" lon="9.5408329"><ele>411.20000000000005</ele><time>2026-04-04T11:03:36.19Z</time></trkpt><trkpt lat="44.8956353" lon="9.5406848"><ele>410.8</ele><time>2026-04-04T11:03:37.189Z</time></trkpt><trkpt lat="44.8956691" lon="9.5405302"><ele>410.4</ele><time>2026-04-04T11:03:38.189Z</time></trkpt><trkpt lat="44.8957063" lon="9.5403829"><ele>410.0</ele><time>2026-04-04T11:03:39.188Z</time></trkpt><trkpt lat="44.8957402" lon="9.5402529"><ele>409.99999999999994</ele><time>2026-04-04T11:03:40.189Z</time></trkpt><trkpt lat="44.8957633" lon="9.5401445"><ele>410.0</ele><time>2026-04-04T11:03:41.189Z</time></trkpt><trkpt lat="44.8957816" lon="9.540048"><ele>410.0</ele><time>2026-04-04T11:03:42.189Z</time></trkpt><trkpt lat="44.895763" lon="9.539897"><ele>410.0</ele><time>2026-04-04T11:03:44.189Z</time></trkpt><trkpt lat="44.895726" lon="9.5398217"><ele>409.99999999999994</ele><time>2026-04-04T11:03:45.187Z</time></trkpt><trkpt lat="44.8956672" lon="9.5397324"><ele>410.0</ele><time>2026-04-04T11:03:46.187Z</time></trkpt><trkpt lat="44.8956091" lon="9.5396311"><ele>410.3333333333333</ele><time>2026-04-04T11:03:47.19Z</time></trkpt><trkpt lat="44.8955485" lon="9.5395265"><ele>410.66666666666663</ele><time>2026-04-04T11:03:48.189Z</time></trkpt><trkpt lat="44.8954957" lon="9.539416"><ele>411.0</ele><time>2026-04-04T11:03:49.189Z</time></trkpt><trkpt lat="44.8954487" lon="9.5393084"><ele>411.33333333333337</ele><time>2026-04-04T11:03:50.189Z</time></trkpt><trkpt lat="44.8954074" lon="9.5392108"><ele>411.6666666666667</ele><time>2026-04-04T11:03:51.189Z</time></trkpt><trkpt lat="44.8953813" lon="9.5391171"><ele>412.0</ele><time>2026-04-04T11:03:52.189Z</time></trkpt><trkpt lat="44.8953644" lon="9.5389562"><ele>412.00000000000006</ele><time>2026-04-04T11:03:54.189Z</time></trkpt><trkpt lat="44.895394" lon="9.5388036"><ele>412.0</ele><time>2026-04-04T11:03:56.19Z</time></trkpt><trkpt lat="44.8954306" lon="9.53873"><ele>412.0</ele><time>2026-04-04T11:03:57.19Z</time></trkpt><trkpt lat="44.895478" lon="9.5386522"><ele>412.0</ele><time>2026-04-04T11:03:58.191Z</time></trkpt><trkpt lat="44.8955404" lon="9.5385798"><ele>412.00000000000006</ele><time>2026-04-04T11:03:59.19Z</time></trkpt><trkpt lat="44.8956112" lon="9.5385152"><ele>412.0</ele><time>2026-04-04T11:04:00.189Z</time></trkpt><trkpt lat="44.8956753" lon="9.5384531"><ele>411.85714285714283</ele><time>2026-04-04T11:04:01.19Z</time></trkpt><trkpt lat="44.8957251" lon="9.5383955"><ele>411.7142857142857</ele><time>2026-04-04T11:04:02.19Z</time></trkpt><trkpt lat="44.8957707" lon="9.5383264"><ele>411.57142857142856</ele><time>2026-04-04T11:04:03.188Z</time></trkpt><trkpt lat="44.895817" lon="9.5382457"><ele>411.42857142857144</ele><time>2026-04-04T11:04:04.189Z</time></trkpt><trkpt lat="44.8958602" lon="9.5381592"><ele>411.2857142857143</ele><time>2026-04-04T11:04:05.189Z</time></trkpt><trkpt lat="44.8958976" lon="9.5380713"><ele>411.1428571428571</ele><time>2026-04-04T11:04:06.189Z</time></trkpt><trkpt lat="44.895927" lon="9.537985"><ele>411.0</ele><time>2026-04-04T11:04:07.19Z</time></trkpt><trkpt lat="44.8959533" lon="9.537817"><ele>411.0</ele><time>2026-04-04T11:04:09.189Z</time></trkpt><trkpt lat="44.8959597" lon="9.5376428"><ele>411.0</ele><time>2026-04-04T11:04:11.188Z</time></trkpt><trkpt lat="44.8959473" lon="9.5374786"><ele>411.0</ele><time>2026-04-04T11:04:13.19Z</time></trkpt><trkpt lat="44.8959144" lon="9.5373926"><ele>411.0</ele><time>2026-04-04T11:04:15.191Z</time></trkpt><trkpt lat="44.8957905" lon="9.5373173"><ele>411.0</ele><time>2026-04-04T11:04:17.19Z</time></trkpt><trkpt lat="44.8956878" lon="9.5372724"><ele>410.0</ele><time>2026-04-04T11:04:18.19Z</time></trkpt><trkpt lat="44.8955825" lon="9.5372193"><ele>409.0</ele><time>2026-04-04T11:04:19.189Z</time></trkpt><trkpt lat="44.8954921" lon="9.5371651"><ele>408.0</ele><time>2026-04-04T11:04:20.19Z</time></trkpt><trkpt lat="44.8954173" lon="9.5371153"><ele>407.0</ele><time>2026-04-04T11:04:21.189Z</time></trkpt><trkpt lat="44.8953575" lon="9.5370575"><ele>406.0</ele><time>2026-04-04T11:04:22.19Z</time></trkpt><trkpt lat="44.8953093" lon="9.5369887"><ele>405.0</ele><time>2026-04-04T11:04:23.189Z</time></trkpt><trkpt lat="44.8952774" lon="9.5369016"><ele>405.0</ele><time>2026-04-04T11:04:24.19Z</time></trkpt><trkpt lat="44.8952529" lon="9.5367999"><ele>405.0</ele><time>2026-04-04T11:04:25.19Z</time></trkpt><trkpt lat="44.8952403" lon="9.5366776"><ele>405.0</ele><time>2026-04-04T11:04:26.19Z</time></trkpt><trkpt lat="44.8952312" lon="9.5365466"><ele>405.0</ele><time>2026-04-04T11:04:27.189Z</time></trkpt><trkpt lat="44.8952213" lon="9.5364224"><ele>405.0</ele><time>2026-04-04T11:04:28.19Z</time></trkpt><trkpt lat="44.8952082" lon="9.5363086"><ele>405.0</ele><time>2026-04-04T11:04:29.19Z</time></trkpt><trkpt lat="44.895195" lon="9.5362074"><ele>405.85714285714283</ele><time>2026-04-04T11:04:30.188Z</time></trkpt><trkpt lat="44.8951778" lon="9.5361116"><ele>406.7142857142857</ele><time>2026-04-04T11:04:31.188Z</time></trkpt><trkpt lat="44.8951613" lon="9.5360194"><ele>407.57142857142856</ele><time>2026-04-04T11:04:32.19Z</time></trkpt><trkpt lat="44.895149" lon="9.5359281"><ele>408.42857142857144</ele><time>2026-04-04T11:04:33.19Z</time></trkpt><trkpt lat="44.8951399" lon="9.5358287"><ele>409.2857142857143</ele><time>2026-04-04T11:04:34.187Z</time></trkpt><trkpt lat="44.89512" lon="9.5357175"><ele>410.1428571428571</ele><time>2026-04-04T11:04:35.192Z</time></trkpt><trkpt lat="44.895102" lon="9.5355987"><ele>411.0</ele><time>2026-04-04T11:04:36.189Z</time></trkpt><trkpt lat="44.8950849" lon="9.535479"><ele>407.7142857142857</ele><time>2026-04-04T11:04:37.189Z</time></trkpt><trkpt lat="44.895075" lon="9.5353589"><ele>404.42857142857144</ele><time>2026-04-04T11:04:38.19Z</time></trkpt><trkpt lat="44.8950707" lon="9.5352502"><ele>401.1428571428571</ele><time>2026-04-04T11:04:39.193Z</time></trkpt><trkpt lat="44.8950667" lon="9.5351417"><ele>397.8571428571429</ele><time>2026-04-04T11:04:40.19Z</time></trkpt><trkpt lat="44.8950617" lon="9.5350333"><ele>394.5714285714286</ele><time>2026-04-04T11:04:41.188Z</time></trkpt><trkpt lat="44.8950517" lon="9.5349383"><ele>391.2857142857143</ele><time>2026-04-04T11:04:42.188Z</time></trkpt><trkpt lat="44.8950383" lon="9.53485"><ele>388.0</ele><time>2026-04-04T11:04:43.192Z</time></trkpt><trkpt lat="44.894995" lon="9.534685"><ele>389.4</ele><time>2026-04-04T11:04:45.189Z</time></trkpt><trkpt lat="44.8949333" lon="9.53454"><ele>390.79999999999995</ele><time>2026-04-04T11:04:47.189Z</time></trkpt><trkpt lat="44.8948683" lon="9.53443"><ele>392.2</ele><time>2026-04-04T11:04:49.19Z</time></trkpt><trkpt lat="44.89478" lon="9.534355"><ele>393.6</ele><time>2026-04-04T11:04:51.188Z</time></trkpt><trkpt lat="44.8946567" lon="9.53434"><ele>395.0</ele><time>2026-04-04T11:04:53.189Z</time></trkpt><trkpt lat="44.8945867" lon="9.5343617"><ele>394.99999999999994</ele><time>2026-04-04T11:04:54.191Z</time></trkpt><trkpt lat="44.894515" lon="9.5343983"><ele>395.0</ele><time>2026-04-04T11:04:55.19Z</time></trkpt><trkpt lat="44.8944467" lon="9.5344417"><ele>395.0</ele><time>2026-04-04T11:04:56.19Z</time></trkpt><trkpt lat="44.8943717" lon="9.534495"><ele>395.0</ele><time>2026-04-04T11:04:57.188Z</time></trkpt><trkpt lat="44.8943017" lon="9.5345517"><ele>394.99999999999994</ele><time>2026-04-04T11:04:58.189Z</time></trkpt><trkpt lat="44.894235" lon="9.53461"><ele>395.0</ele><time>2026-04-04T11:04:59.19Z</time></trkpt><trkpt lat="44.89417" lon="9.5346683"><ele>391.16666666666663</ele><time>2026-04-04T11:05:00.189Z</time></trkpt><trkpt lat="44.8941117" lon="9.5347233"><ele>387.3333333333333</ele><time>2026-04-04T11:05:01.188Z</time></trkpt><trkpt lat="44.89405" lon="9.5347567"><ele>383.5</ele><time>2026-04-04T11:05:02.188Z</time></trkpt><trkpt lat="44.8939783" lon="9.5347783"><ele>379.66666666666663</ele><time>2026-04-04T11:05:03.19Z</time></trkpt><trkpt lat="44.8939133" lon="9.5347917"><ele>375.8333333333333</ele><time>2026-04-04T11:05:04.19Z</time></trkpt><trkpt lat="44.8938017" lon="9.534765"><ele>372.0</ele><time>2026-04-04T11:05:06.188Z</time></trkpt><trkpt lat="44.8937433" lon="9.5346467"><ele>372.8333333333333</ele><time>2026-04-04T11:05:08.192Z</time></trkpt><trkpt lat="44.893735" lon="9.5345483"><ele>373.6666666666667</ele><time>2026-04-04T11:05:09.188Z</time></trkpt><trkpt lat="44.8937367" lon="9.5344333"><ele>374.5</ele><time>2026-04-04T11:05:10.189Z</time></trkpt><trkpt lat="44.89374" lon="9.5343183"><ele>375.33333333333337</ele><time>2026-04-04T11:05:11.187Z</time></trkpt><trkpt lat="44.8937417" lon="9.5342033"><ele>376.1666666666667</ele><time>2026-04-04T11:05:12.188Z</time></trkpt><trkpt lat="44.8937417" lon="9.5340933"><ele>377.0</ele><time>2026-04-04T11:05:13.188Z</time></trkpt><trkpt lat="44.893725" lon="9.5339883"><ele>376.99999999999994</ele><time>2026-04-04T11:05:14.188Z</time></trkpt><trkpt lat="44.893705" lon="9.5338817"><ele>377.0</ele><time>2026-04-04T11:05:15.188Z</time></trkpt><trkpt lat="44.89368" lon="9.53378"><ele>377.0</ele><time>2026-04-04T11:05:16.188Z</time></trkpt><trkpt lat="44.8936467" lon="9.533685"><ele>377.0</ele><time>2026-04-04T11:05:17.188Z</time></trkpt><trkpt lat="44.89361" lon="9.533595"><ele>377.0</ele><time>2026-04-04T11:05:18.188Z</time></trkpt><trkpt lat="44.8935717" lon="9.53351"><ele>376.99999999999994</ele><time>2026-04-04T11:05:19.188Z</time></trkpt><trkpt lat="44.8935317" lon="9.5334283"><ele>377.0</ele><time>2026-04-04T11:05:20.188Z</time></trkpt><trkpt lat="44.893495" lon="9.5333533"><ele>376.33333333333337</ele><time>2026-04-04T11:05:21.188Z</time></trkpt><trkpt lat="44.8934483" lon="9.533225"><ele>375.6666666666667</ele><time>2026-04-04T11:05:23.188Z</time></trkpt><trkpt lat="44.8934067" lon="9.5331167"><ele>375.0</ele><time>2026-04-04T11:05:25.188Z</time></trkpt><trkpt lat="44.8933467" lon="9.5330683"><ele>374.3333333333333</ele><time>2026-04-04T11:05:27.188Z</time></trkpt><trkpt lat="44.8932783" lon="9.5331067"><ele>373.66666666666663</ele><time>2026-04-04T11:05:29.19Z</time></trkpt><trkpt lat="44.893225" lon="9.5332417"><ele>373.0</ele><time>2026-04-04T11:05:31.188Z</time></trkpt><trkpt lat="44.8932067" lon="9.5333317"><ele>369.0</ele><time>2026-04-04T11:05:32.189Z</time></trkpt><trkpt lat="44.8931817" lon="9.5334417"><ele>365.0</ele><time>2026-04-04T11:05:33.188Z</time></trkpt><trkpt lat="44.8931467" lon="9.5335667"><ele>361.0</ele><time>2026-04-04T11:05:34.193Z</time></trkpt><trkpt lat="44.89311" lon="9.5336933"><ele>357.0</ele><time>2026-04-04T11:05:35.188Z</time></trkpt><trkpt lat="44.8930733" lon="9.5338167"><ele>353.0</ele><time>2026-04-04T11:05:36.189Z</time></trkpt><trkpt lat="44.8930333" lon="9.5339383"><ele>353.0</ele><time>2026-04-04T11:05:37.19Z</time></trkpt><trkpt lat="44.89299" lon="9.5340583"><ele>353.0</ele><time>2026-04-04T11:05:38.191Z</time></trkpt><trkpt lat="44.892945" lon="9.5341667"><ele>353.0</ele><time>2026-04-04T11:05:39.189Z</time></trkpt><trkpt lat="44.8929" lon="9.5342667"><ele>353.0</ele><time>2026-04-04T11:05:40.19Z</time></trkpt><trkpt lat="44.89285" lon="9.5343617"><ele>353.0</ele><time>2026-04-04T11:05:41.189Z</time></trkpt><trkpt lat="44.8927967" lon="9.53445"><ele>353.0</ele><time>2026-04-04T11:05:42.188Z</time></trkpt><trkpt lat="44.8927433" lon="9.5345367"><ele>353.1666666666667</ele><time>2026-04-04T11:05:43.191Z</time></trkpt><trkpt lat="44.89269" lon="9.5346283"><ele>353.33333333333337</ele><time>2026-04-04T11:05:44.188Z</time></trkpt><trkpt lat="44.8926417" lon="9.5347233"><ele>353.5</ele><time>2026-04-04T11:05:45.188Z</time></trkpt><trkpt lat="44.892605" lon="9.53483"><ele>353.6666666666667</ele><time>2026-04-04T11:05:46.189Z</time></trkpt><trkpt lat="44.8925767" lon="9.53495"><ele>353.8333333333333</ele><time>2026-04-04T11:05:47.188Z</time></trkpt><trkpt lat="44.892555" lon="9.535075"><ele>354.0</ele><time>2026-04-04T11:05:48.188Z</time></trkpt><trkpt lat="44.89254" lon="9.5351967"><ele>349.8333333333333</ele><time>2026-04-04T11:05:49.189Z</time></trkpt><trkpt lat="44.892525" lon="9.535315"><ele>345.6666666666667</ele><time>2026-04-04T11:05:50.188Z</time></trkpt><trkpt lat="44.8925133" lon="9.5354267"><ele>341.5</ele><time>2026-04-04T11:05:51.188Z</time></trkpt><trkpt lat="44.8925033" lon="9.535535"><ele>337.33333333333337</ele><time>2026-04-04T11:05:52.188Z</time></trkpt><trkpt lat="44.8924967" lon="9.5356367"><ele>333.1666666666667</ele><time>2026-04-04T11:05:53.188Z</time></trkpt><trkpt lat="44.8924933" lon="9.5357383"><ele>329.0</ele><time>2026-04-04T11:05:54.188Z</time></trkpt><trkpt lat="44.8924917" lon="9.53583"><ele>330.0</ele><time>2026-04-04T11:05:55.189Z</time></trkpt><trkpt lat="44.8925" lon="9.5359183"><ele>331.0</ele><time>2026-04-04T11:05:56.189Z</time></trkpt><trkpt lat="44.8925217" lon="9.5360133"><ele>332.0</ele><time>2026-04-04T11:05:57.188Z</time></trkpt><trkpt lat="44.8925583" lon="9.5361217"><ele>333.0</ele><time>2026-04-04T11:05:58.189Z</time></trkpt><trkpt lat="44.8926017" lon="9.5362367"><ele>334.0</ele><time>2026-04-04T11:05:59.19Z</time></trkpt><trkpt lat="44.892645" lon="9.5363383"><ele>335.0</ele><time>2026-04-04T11:06:00.188Z</time></trkpt><trkpt lat="44.892685" lon="9.5364417"><ele>335.0</ele><time>2026-04-04T11:06:01.187Z</time></trkpt><trkpt lat="44.8927083" lon="9.5365417"><ele>335.0</ele><time>2026-04-04T11:06:02.189Z</time></trkpt><trkpt lat="44.89272" lon="9.5366433"><ele>335.0</ele><time>2026-04-04T11:06:03.188Z</time></trkpt><trkpt lat="44.892715" lon="9.5367483"><ele>335.0</ele><time>2026-04-04T11:06:04.19Z</time></trkpt><trkpt lat="44.8926967" lon="9.5368383"><ele>335.0</ele><time>2026-04-04T11:06:05.188Z</time></trkpt><trkpt lat="44.89263" lon="9.5369733"><ele>335.0</ele><time>2026-04-04T11:06:07.188Z</time></trkpt><trkpt lat="44.8925733" lon="9.5370283"><ele>334.4285714285714</ele><time>2026-04-04T11:06:08.188Z</time></trkpt><trkpt lat="44.89251" lon="9.5370667"><ele>333.85714285714283</ele><time>2026-04-04T11:06:09.188Z</time></trkpt><trkpt lat="44.8924417" lon="9.5370933"><ele>333.2857142857143</ele><time>2026-04-04T11:06:10.188Z</time></trkpt><trkpt lat="44.8923767" lon="9.537105"><ele>332.71428571428567</ele><time>2026-04-04T11:06:11.19Z</time></trkpt><trkpt lat="44.8923117" lon="9.5370967"><ele>332.1428571428571</ele><time>2026-04-04T11:06:12.188Z</time></trkpt><trkpt lat="44.892235" lon="9.537075"><ele>331.57142857142856</ele><time>2026-04-04T11:06:13.188Z</time></trkpt><trkpt lat="44.8921667" lon="9.537035"><ele>331.0</ele><time>2026-04-04T11:06:14.272Z</time></trkpt><trkpt lat="44.8921033" lon="9.5369833"><ele>329.0</ele><time>2026-04-04T11:06:15.188Z</time></trkpt><trkpt lat="44.8920417" lon="9.5368883"><ele>327.0</ele><time>2026-04-04T11:06:16.188Z</time></trkpt><trkpt lat="44.8919867" lon="9.5367867"><ele>325.0</ele><time>2026-04-04T11:06:17.188Z</time></trkpt><trkpt lat="44.8919417" lon="9.53671"><ele>323.0</ele><time>2026-04-04T11:06:18.189Z</time></trkpt><trkpt lat="44.8918917" lon="9.5366433"><ele>321.0</ele><time>2026-04-04T11:06:19.189Z</time></trkpt><trkpt lat="44.8918" lon="9.5365633"><ele>319.0</ele><time>2026-04-04T11:06:21.189Z</time></trkpt><trkpt lat="44.8917167" lon="9.5365917"><ele>319.3333333333333</ele><time>2026-04-04T11:06:22.189Z</time></trkpt><trkpt lat="44.8916417" lon="9.5366683"><ele>319.66666666666663</ele><time>2026-04-04T11:06:24.189Z</time></trkpt><trkpt lat="44.891605" lon="9.53679"><ele>320.0</ele><time>2026-04-04T11:06:25.188Z</time></trkpt><trkpt lat="44.8915633" lon="9.5368983"><ele>320.3333333333333</ele><time>2026-04-04T11:06:26.188Z</time></trkpt><trkpt lat="44.891525" lon="9.5369917"><ele>320.6666666666667</ele><time>2026-04-04T11:06:27.188Z</time></trkpt><trkpt lat="44.8914767" lon="9.5370667"><ele>321.0</ele><time>2026-04-04T11:06:28.187Z</time></trkpt><trkpt lat="44.891415" lon="9.5371133"><ele>321.0</ele><time>2026-04-04T11:06:29.188Z</time></trkpt><trkpt lat="44.8913533" lon="9.5371383"><ele>321.0</ele><time>2026-04-04T11:06:30.188Z</time></trkpt><trkpt lat="44.8912833" lon="9.5371267"><ele>321.0</ele><time>2026-04-04T11:06:31.189Z</time></trkpt><trkpt lat="44.8912" lon="9.53709"><ele>321.0</ele><time>2026-04-04T11:06:32.189Z</time></trkpt><trkpt lat="44.8911167" lon="9.5370233"><ele>321.0</ele><time>2026-04-04T11:06:33.188Z</time></trkpt><trkpt lat="44.8910517" lon="9.53697"><ele>321.0</ele><time>2026-04-04T11:06:34.189Z</time></trkpt><trkpt lat="44.8909583" lon="9.536925"><ele>318.2</ele><time>2026-04-04T11:06:36.188Z</time></trkpt><trkpt lat="44.890885" lon="9.536965"><ele>315.40000000000003</ele><time>2026-04-04T11:06:38.19Z</time></trkpt><trkpt lat="44.8907983" lon="9.537065"><ele>312.6</ele><time>2026-04-04T11:06:40.189Z</time></trkpt><trkpt lat="44.8907117" lon="9.537195"><ele>309.8</ele><time>2026-04-04T11:06:42.19Z</time></trkpt><trkpt lat="44.89067" lon="9.5372617"><ele>307.0</ele><time>2026-04-04T11:06:43.189Z</time></trkpt><trkpt lat="44.8905817" lon="9.5373767"><ele>307.0</ele><time>2026-04-04T11:06:45.189Z</time></trkpt><trkpt lat="44.890485" lon="9.5374233"><ele>307.0</ele><time>2026-04-04T11:06:47.192Z</time></trkpt><trkpt lat="44.8903783" lon="9.5373617"><ele>307.0</ele><time>2026-04-04T11:06:49.19Z</time></trkpt><trkpt lat="44.8903217" lon="9.537215"><ele>307.0</ele><time>2026-04-04T11:06:51.19Z</time></trkpt><trkpt lat="44.890295" lon="9.5371217"><ele>307.0</ele><time>2026-04-04T11:06:52.189Z</time></trkpt><trkpt lat="44.8902733" lon="9.5370167"><ele>305.0</ele><time>2026-04-04T11:06:53.189Z</time></trkpt><trkpt lat="44.89025" lon="9.536915"><ele>303.0</ele><time>2026-04-04T11:06:54.19Z</time></trkpt><trkpt lat="44.8901767" lon="9.5368"><ele>301.0</ele><time>2026-04-04T11:06:56.19Z</time></trkpt><trkpt lat="44.89005" lon="9.5367883"><ele>299.0</ele><time>2026-04-04T11:06:58.191Z</time></trkpt><trkpt lat="44.889985" lon="9.5368317"><ele>297.0</ele><time>2026-04-04T11:06:59.19Z</time></trkpt><trkpt lat="44.8899133" lon="9.5368967"><ele>296.1666666666667</ele><time>2026-04-04T11:07:00.19Z</time></trkpt><trkpt lat="44.889845" lon="9.5369583"><ele>295.3333333333333</ele><time>2026-04-04T11:07:01.189Z</time></trkpt><trkpt lat="44.8897683" lon="9.537005"><ele>294.5</ele><time>2026-04-04T11:07:02.19Z</time></trkpt><trkpt lat="44.889685" lon="9.53704"><ele>293.66666666666663</ele><time>2026-04-04T11:07:03.189Z</time></trkpt><trkpt lat="44.8896017" lon="9.5370567"><ele>292.8333333333333</ele><time>2026-04-04T11:07:04.19Z</time></trkpt><trkpt lat="44.889515" lon="9.5370617"><ele>292.0</ele><time>2026-04-04T11:07:05.191Z</time></trkpt><trkpt lat="44.8894233" lon="9.5370617"><ele>292.0</ele><time>2026-04-04T11:07:06.194Z</time></trkpt><trkpt lat="44.88932" lon="9.5370733"><ele>292.0</ele><time>2026-04-04T11:07:07.189Z</time></trkpt><trkpt lat="44.8892267" lon="9.5370833"><ele>292.0</ele><time>2026-04-04T11:07:08.189Z</time></trkpt><trkpt lat="44.889145" lon="9.5371"><ele>292.0</ele><time>2026-04-04T11:07:09.189Z</time></trkpt><trkpt lat="44.88907" lon="9.5371233"><ele>292.0</ele><time>2026-04-04T11:07:10.19Z</time></trkpt><trkpt lat="44.889005" lon="9.5371617"><ele>292.0</ele><time>2026-04-04T11:07:11.191Z</time></trkpt><trkpt lat="44.8889567" lon="9.53722"><ele>290.16666666666663</ele><time>2026-04-04T11:07:12.191Z</time></trkpt><trkpt lat="44.8889117" lon="9.5372933"><ele>288.3333333333333</ele><time>2026-04-04T11:07:13.19Z</time></trkpt><trkpt lat="44.8888733" lon="9.5373783"><ele>286.5</ele><time>2026-04-04T11:07:14.189Z</time></trkpt><trkpt lat="44.8888433" lon="9.5374783"><ele>284.6666666666667</ele><time>2026-04-04T11:07:15.19Z</time></trkpt><trkpt lat="44.8888167" lon="9.5375983"><ele>282.83333333333337</ele><time>2026-04-04T11:07:16.189Z</time></trkpt><trkpt lat="44.888785" lon="9.5377283"><ele>281.0</ele><time>2026-04-04T11:07:17.189Z</time></trkpt><trkpt lat="44.8887617" lon="9.5378333"><ele>281.83333333333337</ele><time>2026-04-04T11:07:18.19Z</time></trkpt><trkpt lat="44.8887367" lon="9.537935"><ele>282.6666666666667</ele><time>2026-04-04T11:07:19.189Z</time></trkpt><trkpt lat="44.8887017" lon="9.5380333"><ele>283.5</ele><time>2026-04-04T11:07:20.19Z</time></trkpt><trkpt lat="44.888665" lon="9.5381167"><ele>284.3333333333333</ele><time>2026-04-04T11:07:21.189Z</time></trkpt><trkpt lat="44.8886117" lon="9.5381967"><ele>285.16666666666663</ele><time>2026-04-04T11:07:22.189Z</time></trkpt><trkpt lat="44.8885367" lon="9.53827"><ele>286.0</ele><time>2026-04-04T11:07:23.19Z</time></trkpt><trkpt lat="44.8884517" lon="9.5383433"><ele>282.8333333333333</ele><time>2026-04-04T11:07:24.19Z</time></trkpt><trkpt lat="44.8883817" lon="9.5384033"><ele>279.66666666666663</ele><time>2026-04-04T11:07:25.189Z</time></trkpt><trkpt lat="44.8883183" lon="9.538455"><ele>276.5</ele><time>2026-04-04T11:07:26.189Z</time></trkpt><trkpt lat="44.8882583" lon="9.5384933"><ele>273.3333333333333</ele><time>2026-04-04T11:07:27.189Z</time></trkpt><trkpt lat="44.8881983" lon="9.538525"><ele>270.1666666666667</ele><time>2026-04-04T11:07:28.189Z</time></trkpt><trkpt lat="44.8880867" lon="9.5385233"><ele>267.0</ele><time>2026-04-04T11:07:30.188Z</time></trkpt><trkpt lat="44.8879767" lon="9.5384367"><ele>267.0</ele><time>2026-04-04T11:07:32.191Z</time></trkpt><trkpt lat="44.8879167" lon="9.5383367"><ele>267.0</ele><time>2026-04-04T11:07:33.189Z</time></trkpt><trkpt lat="44.8878567" lon="9.53822"><ele>267.0</ele><time>2026-04-04T11:07:34.19Z</time></trkpt><trkpt lat="44.8877933" lon="9.5381017"><ele>267.0</ele><time>2026-04-04T11:07:35.189Z</time></trkpt><trkpt lat="44.8877133" lon="9.537985"><ele>267.0</ele><time>2026-04-04T11:07:36.19Z</time></trkpt><trkpt lat="44.88764" lon="9.5378617"><ele>263.2</ele><time>2026-04-04T11:07:37.191Z</time></trkpt><trkpt lat="44.8875667" lon="9.537745"><ele>259.4</ele><time>2026-04-04T11:07:38.19Z</time></trkpt><trkpt lat="44.8875" lon="9.53764"><ele>255.60000000000002</ele><time>2026-04-04T11:07:39.19Z</time></trkpt><trkpt lat="44.8874333" lon="9.5375367"><ele>251.8</ele><time>2026-04-04T11:07:40.189Z</time></trkpt><trkpt lat="44.8873667" lon="9.5374483"><ele>248.0</ele><time>2026-04-04T11:07:41.19Z</time></trkpt><trkpt lat="44.88731" lon="9.53736"><ele>248.0</ele><time>2026-04-04T11:07:42.189Z</time></trkpt><trkpt lat="44.8872517" lon="9.5372833"><ele>248.0</ele><time>2026-04-04T11:07:43.19Z</time></trkpt><trkpt lat="44.8872" lon="9.5372217"><ele>248.0</ele><time>2026-04-04T11:07:44.189Z</time></trkpt><trkpt lat="44.8870933" lon="9.53715"><ele>248.0</ele><time>2026-04-04T11:07:46.188Z</time></trkpt><trkpt lat="44.8869717" lon="9.5371533"><ele>248.0</ele><time>2026-04-04T11:07:48.188Z</time></trkpt><trkpt lat="44.8869067" lon="9.537175"><ele>248.00000000000003</ele><time>2026-04-04T11:07:49.188Z</time></trkpt><trkpt lat="44.886835" lon="9.537215"><ele>248.0</ele><time>2026-04-04T11:07:50.188Z</time></trkpt><trkpt lat="44.886765" lon="9.5372617"><ele>248.0</ele><time>2026-04-04T11:07:51.188Z</time></trkpt><trkpt lat="44.8867" lon="9.5373083"><ele>248.0</ele><time>2026-04-04T11:07:52.19Z</time></trkpt><trkpt lat="44.8866383" lon="9.5373517"><ele>248.00000000000003</ele><time>2026-04-04T11:07:53.189Z</time></trkpt><trkpt lat="44.8865817" lon="9.5374"><ele>248.0</ele><time>2026-04-04T11:07:54.188Z</time></trkpt><trkpt lat="44.8864833" lon="9.5374967"><ele>247.25</ele><time>2026-04-04T11:07:56.192Z</time></trkpt><trkpt lat="44.88641" lon="9.5376167"><ele>246.5</ele><time>2026-04-04T11:07:58.192Z</time></trkpt><trkpt lat="44.88635" lon="9.5377633"><ele>245.75</ele><time>2026-04-04T11:08:00.188Z</time></trkpt><trkpt lat="44.8862717" lon="9.5378733"><ele>245.0</ele><time>2026-04-04T11:08:02.19Z</time></trkpt><trkpt lat="44.8861433" lon="9.53792"><ele>246.6</ele><time>2026-04-04T11:08:04.189Z</time></trkpt><trkpt lat="44.8860533" lon="9.537925"><ele>248.2</ele><time>2026-04-04T11:08:05.188Z</time></trkpt><trkpt lat="44.885955" lon="9.5379317"><ele>249.8</ele><time>2026-04-04T11:08:06.188Z</time></trkpt><trkpt lat="44.88585" lon="9.5379367"><ele>251.4</ele><time>2026-04-04T11:08:07.19Z</time></trkpt><trkpt lat="44.8857333" lon="9.5379533"><ele>253.0</ele><time>2026-04-04T11:08:08.19Z</time></trkpt><trkpt lat="44.885625" lon="9.537965"><ele>252.99999999999997</ele><time>2026-04-04T11:08:09.188Z</time></trkpt><trkpt lat="44.8855317" lon="9.5379683"><ele>253.0</ele><time>2026-04-04T11:08:10.189Z</time></trkpt><trkpt lat="44.8854417" lon="9.5379633"><ele>253.0</ele><time>2026-04-04T11:08:11.189Z</time></trkpt><trkpt lat="44.8853567" lon="9.5379583"><ele>253.0</ele><time>2026-04-04T11:08:12.189Z</time></trkpt><trkpt lat="44.885285" lon="9.5379583"><ele>252.99999999999997</ele><time>2026-04-04T11:08:13.188Z</time></trkpt><trkpt lat="44.8852133" lon="9.5379633"><ele>253.0</ele><time>2026-04-04T11:08:14.188Z</time></trkpt><trkpt lat="44.88513" lon="9.5379933"><ele>250.25</ele><time>2026-04-04T11:08:15.188Z</time></trkpt><trkpt lat="44.8850417" lon="9.5380417"><ele>247.5</ele><time>2026-04-04T11:08:16.189Z</time></trkpt><trkpt lat="44.8849367" lon="9.5381033"><ele>244.75</ele><time>2026-04-04T11:08:17.188Z</time></trkpt><trkpt lat="44.88482" lon="9.5381683"><ele>242.0</ele><time>2026-04-04T11:08:18.188Z</time></trkpt><trkpt lat="44.884695" lon="9.5382383"><ele>242.0</ele><time>2026-04-04T11:08:19.188Z</time></trkpt><trkpt lat="44.8845667" lon="9.5383183"><ele>242.0</ele><time>2026-04-04T11:08:20.188Z</time></trkpt><trkpt lat="44.8844433" lon="9.53839"><ele>242.0</ele><time>2026-04-04T11:08:21.188Z</time></trkpt><trkpt lat="44.8843217" lon="9.5384583"><ele>242.0</ele><time>2026-04-04T11:08:22.19Z</time></trkpt><trkpt lat="44.88421" lon="9.538525"><ele>240.5</ele><time>2026-04-04T11:08:23.188Z</time></trkpt><trkpt lat="44.8841" lon="9.5385883"><ele>239.0</ele><time>2026-04-04T11:08:24.191Z</time></trkpt><trkpt lat="44.8839917" lon="9.53865"><ele>237.5</ele><time>2026-04-04T11:08:25.188Z</time></trkpt><trkpt lat="44.8838867" lon="9.538715"><ele>236.0</ele><time>2026-04-04T11:08:26.19Z</time></trkpt><trkpt lat="44.8837883" lon="9.5387783"><ele>235.4</ele><time>2026-04-04T11:08:27.188Z</time></trkpt><trkpt lat="44.8836983" lon="9.5388367"><ele>234.8</ele><time>2026-04-04T11:08:28.19Z</time></trkpt><trkpt lat="44.8836117" lon="9.53888"><ele>234.20000000000002</ele><time>2026-04-04T11:08:29.187Z</time></trkpt><trkpt lat="44.8835267" lon="9.53891"><ele>233.60000000000002</ele><time>2026-04-04T11:08:30.188Z</time></trkpt><trkpt lat="44.8834367" lon="9.5389267"><ele>233.0</ele><time>2026-04-04T11:08:31.188Z</time></trkpt><trkpt lat="44.8833417" lon="9.5389383"><ele>233.0</ele><time>2026-04-04T11:08:32.188Z</time></trkpt><trkpt lat="44.8832383" lon="9.5389583"><ele>233.0</ele><time>2026-04-04T11:08:33.189Z</time></trkpt><trkpt lat="44.88313" lon="9.53899"><ele>233.0</ele><time>2026-04-04T11:08:34.188Z</time></trkpt><trkpt lat="44.8830267" lon="9.5390333"><ele>233.0</ele><time>2026-04-04T11:08:35.188Z</time></trkpt><trkpt lat="44.882925" lon="9.5390933"><ele>233.0</ele><time>2026-04-04T11:08:36.189Z</time></trkpt><trkpt lat="44.8828233" lon="9.5391533"><ele>233.0</ele><time>2026-04-04T11:08:37.188Z</time></trkpt><trkpt lat="44.8827333" lon="9.53921"><ele>233.0</ele><time>2026-04-04T11:08:38.19Z</time></trkpt><trkpt lat="44.8826417" lon="9.5392633"><ele>233.0</ele><time>2026-04-04T11:08:39.188Z</time></trkpt><trkpt lat="44.882555" lon="9.539305"><ele>233.0</ele><time>2026-04-04T11:08:40.188Z</time></trkpt><trkpt lat="44.88247" lon="9.539345"><ele>233.0</ele><time>2026-04-04T11:08:41.188Z</time></trkpt><trkpt lat="44.882375" lon="9.539375"><ele>232.66666666666669</ele><time>2026-04-04T11:08:42.189Z</time></trkpt><trkpt lat="44.8822867" lon="9.5394083"><ele>232.33333333333334</ele><time>2026-04-04T11:08:43.188Z</time></trkpt><trkpt lat="44.8822017" lon="9.539455"><ele>232.0</ele><time>2026-04-04T11:08:44.188Z</time></trkpt><trkpt lat="44.88212" lon="9.5395117"><ele>231.66666666666669</ele><time>2026-04-04T11:08:45.188Z</time></trkpt><trkpt lat="44.8820517" lon="9.5395783"><ele>231.33333333333334</ele><time>2026-04-04T11:08:46.189Z</time></trkpt><trkpt lat="44.8819817" lon="9.5396617"><ele>231.0</ele><time>2026-04-04T11:08:47.189Z</time></trkpt><trkpt lat="44.881925" lon="9.5397483"><ele>229.0</ele><time>2026-04-04T11:08:48.19Z</time></trkpt><trkpt lat="44.8818733" lon="9.5398483"><ele>227.00000000000003</ele><time>2026-04-04T11:08:49.188Z</time></trkpt><trkpt lat="44.8818183" lon="9.53996"><ele>225.00000000000003</ele><time>2026-04-04T11:08:50.189Z</time></trkpt><trkpt lat="44.8817417" lon="9.5401"><ele>223.0</ele><time>2026-04-04T11:08:51.189Z</time></trkpt><trkpt lat="44.8816717" lon="9.540235"><ele>221.0</ele><time>2026-04-04T11:08:52.188Z</time></trkpt><trkpt lat="44.8816083" lon="9.54037"><ele>224.0</ele><time>2026-04-04T11:08:53.189Z</time></trkpt><trkpt lat="44.8815417" lon="9.540495"><ele>227.0</ele><time>2026-04-04T11:08:54.189Z</time></trkpt><trkpt lat="44.8814617" lon="9.5406183"><ele>230.0</ele><time>2026-04-04T11:08:55.188Z</time></trkpt><trkpt lat="44.8813733" lon="9.5407467"><ele>233.0</ele><time>2026-04-04T11:08:56.189Z</time></trkpt><trkpt lat="44.8812917" lon="9.5408717"><ele>233.0</ele><time>2026-04-04T11:08:57.188Z</time></trkpt><trkpt lat="44.8812117" lon="9.54098"><ele>233.0</ele><time>2026-04-04T11:08:58.188Z</time></trkpt><trkpt lat="44.8811333" lon="9.5410767"><ele>233.0</ele><time>2026-04-04T11:08:59.189Z</time></trkpt><trkpt lat="44.88105" lon="9.5411667"><ele>233.0</ele><time>2026-04-04T11:09:00.189Z</time></trkpt><trkpt lat="44.8809633" lon="9.5412467"><ele>233.0</ele><time>2026-04-04T11:09:01.188Z</time></trkpt><trkpt lat="44.8808827" lon="9.5413255"><ele>230.8</ele><time>2026-04-04T11:09:02.188Z</time></trkpt><trkpt lat="44.8808028" lon="9.5413877"><ele>228.60000000000002</ele><time>2026-04-04T11:09:03.188Z</time></trkpt><trkpt lat="44.8807154" lon="9.5414408"><ele>226.39999999999998</ele><time>2026-04-04T11:09:04.188Z</time></trkpt><trkpt lat="44.8806317" lon="9.5414831"><ele>224.2</ele><time>2026-04-04T11:09:05.188Z</time></trkpt><trkpt lat="44.8805477" lon="9.5415298"><ele>222.0</ele><time>2026-04-04T11:09:06.189Z</time></trkpt><trkpt lat="44.8804644" lon="9.5415888"><ele>222.0</ele><time>2026-04-04T11:09:07.188Z</time></trkpt><trkpt lat="44.8803826" lon="9.5416609"><ele>222.0</ele><time>2026-04-04T11:09:08.189Z</time></trkpt><trkpt lat="44.8802985" lon="9.5417484"><ele>222.0</ele><time>2026-04-04T11:09:09.188Z</time></trkpt><trkpt lat="44.8802172" lon="9.5418472"><ele>222.0</ele><time>2026-04-04T11:09:10.188Z</time></trkpt><trkpt lat="44.8801446" lon="9.5419519"><ele>222.0</ele><time>2026-04-04T11:09:11.189Z</time></trkpt><trkpt lat="44.8800797" lon="9.5420463"><ele>221.42857142857142</ele><time>2026-04-04T11:09:12.187Z</time></trkpt><trkpt lat="44.8800148" lon="9.5421272"><ele>220.85714285714286</ele><time>2026-04-04T11:09:13.188Z</time></trkpt><trkpt lat="44.8799546" lon="9.5421914"><ele>220.28571428571428</ele><time>2026-04-04T11:09:14.189Z</time></trkpt><trkpt lat="44.8798919" lon="9.5422407"><ele>219.71428571428572</ele><time>2026-04-04T11:09:15.188Z</time></trkpt><trkpt lat="44.8798251" lon="9.5422623"><ele>219.14285714285717</ele><time>2026-04-04T11:09:16.188Z</time></trkpt><trkpt lat="44.8797606" lon="9.5422716"><ele>218.57142857142858</ele><time>2026-04-04T11:09:17.188Z</time></trkpt><trkpt lat="44.8796987" lon="9.5422446"><ele>218.0</ele><time>2026-04-04T11:09:18.188Z</time></trkpt><trkpt lat="44.8796312" lon="9.5421973"><ele>218.0</ele><time>2026-04-04T11:09:19.189Z</time></trkpt><trkpt lat="44.8795727" lon="9.5421423"><ele>218.0</ele><time>2026-04-04T11:09:20.193Z</time></trkpt><trkpt lat="44.8794608" lon="9.5420908"><ele>218.0</ele><time>2026-04-04T11:09:22.189Z</time></trkpt><trkpt lat="44.8793509" lon="9.54214"><ele>218.0</ele><time>2026-04-04T11:09:24.191Z</time></trkpt><trkpt lat="44.8792832" lon="9.542208"><ele>218.0</ele><time>2026-04-04T11:09:25.19Z</time></trkpt><trkpt lat="44.8791982" lon="9.5422862"><ele>216.4</ele><time>2026-04-04T11:09:26.191Z</time></trkpt><trkpt lat="44.8791043" lon="9.5423638"><ele>214.8</ele><time>2026-04-04T11:09:27.189Z</time></trkpt><trkpt lat="44.8790151" lon="9.5424405"><ele>213.2</ele><time>2026-04-04T11:09:28.188Z</time></trkpt><trkpt lat="44.8789266" lon="9.5425245"><ele>211.6</ele><time>2026-04-04T11:09:29.188Z</time></trkpt><trkpt lat="44.8788397" lon="9.5426101"><ele>210.0</ele><time>2026-04-04T11:09:30.188Z</time></trkpt><trkpt lat="44.8787547" lon="9.5426966"><ele>210.0</ele><time>2026-04-04T11:09:31.188Z</time></trkpt><trkpt lat="44.8786769" lon="9.5427838"><ele>210.0</ele><time>2026-04-04T11:09:32.189Z</time></trkpt><trkpt lat="44.8786074" lon="9.5428587"><ele>210.0</ele><time>2026-04-04T11:09:33.19Z</time></trkpt><trkpt lat="44.878548" lon="9.5429344"><ele>210.0</ele><time>2026-04-04T11:09:34.188Z</time></trkpt><trkpt lat="44.8784987" lon="9.5430087"><ele>210.0</ele><time>2026-04-04T11:09:35.188Z</time></trkpt><trkpt lat="44.8784524" lon="9.5430837"><ele>210.0</ele><time>2026-04-04T11:09:36.188Z</time></trkpt><trkpt lat="44.8784097" lon="9.5431647"><ele>209.0</ele><time>2026-04-04T11:09:37.188Z</time></trkpt><trkpt lat="44.8783709" lon="9.543253"><ele>208.0</ele><time>2026-04-04T11:09:38.188Z</time></trkpt><trkpt lat="44.878329" lon="9.5433455"><ele>207.0</ele><time>2026-04-04T11:09:39.188Z</time></trkpt><trkpt lat="44.8782818" lon="9.5434316"><ele>206.0</ele><time>2026-04-04T11:09:40.195Z</time></trkpt><trkpt lat="44.8782258" lon="9.5435148"><ele>205.0</ele><time>2026-04-04T11:09:41.188Z</time></trkpt><trkpt lat="44.8781658" lon="9.5436032"><ele>204.0</ele><time>2026-04-04T11:09:42.189Z</time></trkpt><trkpt lat="44.8781051" lon="9.5436946"><ele>206.39999999999998</ele><time>2026-04-04T11:09:43.188Z</time></trkpt><trkpt lat="44.8780472" lon="9.5437894"><ele>208.8</ele><time>2026-04-04T11:09:44.189Z</time></trkpt><trkpt lat="44.8779887" lon="9.5438903"><ele>211.20000000000002</ele><time>2026-04-04T11:09:45.188Z</time></trkpt><trkpt lat="44.8779221" lon="9.5440019"><ele>213.60000000000002</ele><time>2026-04-04T11:09:46.189Z</time></trkpt><trkpt lat="44.8778494" lon="9.5441173"><ele>216.0</ele><time>2026-04-04T11:09:47.188Z</time></trkpt><trkpt lat="44.877786" lon="9.5442252"><ele>216.0</ele><time>2026-04-04T11:09:48.19Z</time></trkpt><trkpt lat="44.8777267" lon="9.544324"><ele>216.0</ele><time>2026-04-04T11:09:49.188Z</time></trkpt><trkpt lat="44.8776724" lon="9.5444192"><ele>216.0</ele><time>2026-04-04T11:09:50.188Z</time></trkpt><trkpt lat="44.8776274" lon="9.5445072"><ele>216.0</ele><time>2026-04-04T11:09:51.188Z</time></trkpt><trkpt lat="44.8775899" lon="9.5445868"><ele>216.0</ele><time>2026-04-04T11:09:52.189Z</time></trkpt><trkpt lat="44.8775281" lon="9.5447245"><ele>216.0</ele><time>2026-04-04T11:09:54.188Z</time></trkpt><trkpt lat="44.8774419" lon="9.5448104"><ele>213.75</ele><time>2026-04-04T11:09:56.196Z</time></trkpt><trkpt lat="44.87733" lon="9.5448066"><ele>211.5</ele><time>2026-04-04T11:09:58.189Z</time></trkpt><trkpt lat="44.8772048" lon="9.5448087"><ele>209.25</ele><time>2026-04-04T11:10:00.188Z</time></trkpt><trkpt lat="44.8771019" lon="9.5448696"><ele>207.0</ele><time>2026-04-04T11:10:02.189Z</time></trkpt><trkpt lat="44.8770149" lon="9.5449626"><ele>207.0</ele><time>2026-04-04T11:10:04.188Z</time></trkpt><trkpt lat="44.8769252" lon="9.5450848"><ele>207.0</ele><time>2026-04-04T11:10:06.188Z</time></trkpt><trkpt lat="44.8768847" lon="9.5451543"><ele>207.0</ele><time>2026-04-04T11:10:07.188Z</time></trkpt><trkpt lat="44.8768537" lon="9.5452344"><ele>207.0</ele><time>2026-04-04T11:10:08.19Z</time></trkpt><trkpt lat="44.8768306" lon="9.5453259"><ele>207.0</ele><time>2026-04-04T11:10:09.189Z</time></trkpt><trkpt lat="44.87682" lon="9.5454202"><ele>207.0</ele><time>2026-04-04T11:10:10.188Z</time></trkpt><trkpt lat="44.8768156" lon="9.5455101"><ele>207.8</ele><time>2026-04-04T11:10:11.188Z</time></trkpt><trkpt lat="44.8768235" lon="9.5456935"><ele>208.6</ele><time>2026-04-04T11:10:13.188Z</time></trkpt><trkpt lat="44.8768257" lon="9.5458075"><ele>209.4</ele><time>2026-04-04T11:10:14.188Z</time></trkpt><trkpt lat="44.8768287" lon="9.5459304"><ele>210.20000000000002</ele><time>2026-04-04T11:10:15.189Z</time></trkpt><trkpt lat="44.8768226" lon="9.5460634"><ele>211.0</ele><time>2026-04-04T11:10:16.189Z</time></trkpt><trkpt lat="44.876811" lon="9.5461942"><ele>212.99999999999997</ele><time>2026-04-04T11:10:17.189Z</time></trkpt><trkpt lat="44.8767929" lon="9.5463084"><ele>215.0</ele><time>2026-04-04T11:10:18.189Z</time></trkpt><trkpt lat="44.8767737" lon="9.5464187"><ele>217.0</ele><time>2026-04-04T11:10:19.188Z</time></trkpt><trkpt lat="44.8767566" lon="9.5465298"><ele>219.0</ele><time>2026-04-04T11:10:20.189Z</time></trkpt><trkpt lat="44.8767401" lon="9.5466325"><ele>220.99999999999997</ele><time>2026-04-04T11:10:21.188Z</time></trkpt><trkpt lat="44.876722" lon="9.5467377"><ele>223.0</ele><time>2026-04-04T11:10:22.192Z</time></trkpt><trkpt lat="44.8767052" lon="9.54684"><ele>218.16666666666666</ele><time>2026-04-04T11:10:23.19Z</time></trkpt><trkpt lat="44.8766846" lon="9.5469327"><ele>213.33333333333331</ele><time>2026-04-04T11:10:24.191Z</time></trkpt><trkpt lat="44.8766627" lon="9.5470271"><ele>208.5</ele><time>2026-04-04T11:10:25.19Z</time></trkpt><trkpt lat="44.8766342" lon="9.5471174"><ele>203.66666666666669</ele><time>2026-04-04T11:10:26.191Z</time></trkpt><trkpt lat="44.8765903" lon="9.5471982"><ele>198.83333333333334</ele><time>2026-04-04T11:10:27.19Z</time></trkpt><trkpt lat="44.876528" lon="9.5472766"><ele>194.0</ele><time>2026-04-04T11:10:28.188Z</time></trkpt><trkpt lat="44.8764661" lon="9.5473621"><ele>194.00000000000003</ele><time>2026-04-04T11:10:29.188Z</time></trkpt><trkpt lat="44.8764116" lon="9.5474497"><ele>194.0</ele><time>2026-04-04T11:10:30.189Z</time></trkpt><trkpt lat="44.876366" lon="9.5475422"><ele>194.0</ele><time>2026-04-04T11:10:31.189Z</time></trkpt><trkpt lat="44.8763248" lon="9.5476397"><ele>194.0</ele><time>2026-04-04T11:10:32.19Z</time></trkpt><trkpt lat="44.876288" lon="9.5477501"><ele>194.00000000000003</ele><time>2026-04-04T11:10:33.189Z</time></trkpt><trkpt lat="44.8762544" lon="9.547863"><ele>194.0</ele><time>2026-04-04T11:10:34.189Z</time></trkpt><trkpt lat="44.8762246" lon="9.5479735"><ele>193.83333333333334</ele><time>2026-04-04T11:10:35.189Z</time></trkpt><trkpt lat="44.8761976" lon="9.5480816"><ele>193.66666666666669</ele><time>2026-04-04T11:10:36.189Z</time></trkpt><trkpt lat="44.8761808" lon="9.5481927"><ele>193.5</ele><time>2026-04-04T11:10:37.189Z</time></trkpt><trkpt lat="44.8761688" lon="9.5483101"><ele>193.33333333333331</ele><time>2026-04-04T11:10:38.189Z</time></trkpt><trkpt lat="44.8761626" lon="9.5484206"><ele>193.16666666666666</ele><time>2026-04-04T11:10:39.189Z</time></trkpt><trkpt lat="44.8761575" lon="9.5485285"><ele>193.0</ele><time>2026-04-04T11:10:40.19Z</time></trkpt><trkpt lat="44.8761563" lon="9.5486298"><ele>192.99999999999997</ele><time>2026-04-04T11:10:41.189Z</time></trkpt><trkpt lat="44.8761513" lon="9.5487214"><ele>193.0</ele><time>2026-04-04T11:10:42.189Z</time></trkpt><trkpt lat="44.8761368" lon="9.5488096"><ele>193.0</ele><time>2026-04-04T11:10:43.189Z</time></trkpt><trkpt lat="44.8760873" lon="9.5489682"><ele>193.0</ele><time>2026-04-04T11:10:45.189Z</time></trkpt><trkpt lat="44.8760582" lon="9.5490524"><ele>192.99999999999997</ele><time>2026-04-04T11:10:46.188Z</time></trkpt><trkpt lat="44.8760306" lon="9.5491391"><ele>193.0</ele><time>2026-04-04T11:10:47.191Z</time></trkpt><trkpt lat="44.8759948" lon="9.5492788"><ele>192.99999999999997</ele><time>2026-04-04T11:10:49.19Z</time></trkpt><trkpt lat="44.875981" lon="9.5493695"><ele>193.0</ele><time>2026-04-04T11:10:51.192Z</time></trkpt><trkpt lat="44.8758967" lon="9.5494067"><ele>193.0</ele><time>2026-04-04T11:11:15.188Z</time></trkpt><trkpt lat="44.875825" lon="9.549385"><ele>193.0</ele><time>2026-04-04T11:11:16.188Z</time></trkpt><trkpt lat="44.8756817" lon="9.5493233"><ele>192.99999999999997</ele><time>2026-04-04T11:11:18.188Z</time></trkpt><trkpt lat="44.8756133" lon="9.5492933"><ele>193.0</ele><time>2026-04-04T11:11:19.19Z</time></trkpt><trkpt lat="44.8755517" lon="9.54927"><ele>188.8</ele><time>2026-04-04T11:11:20.189Z</time></trkpt><trkpt lat="44.8754467" lon="9.54925"><ele>184.60000000000002</ele><time>2026-04-04T11:11:22.189Z</time></trkpt><trkpt lat="44.8753333" lon="9.5493133"><ele>180.39999999999998</ele><time>2026-04-04T11:11:24.189Z</time></trkpt><trkpt lat="44.875285" lon="9.5493817"><ele>176.2</ele><time>2026-04-04T11:11:25.19Z</time></trkpt><trkpt lat="44.8752483" lon="9.5494917"><ele>172.0</ele><time>2026-04-04T11:11:26.19Z</time></trkpt><trkpt lat="44.87521" lon="9.549625"><ele>171.8</ele><time>2026-04-04T11:11:27.189Z</time></trkpt><trkpt lat="44.8751683" lon="9.54975"><ele>171.6</ele><time>2026-04-04T11:11:28.19Z</time></trkpt><trkpt lat="44.8751183" lon="9.549845"><ele>171.4</ele><time>2026-04-04T11:11:29.188Z</time></trkpt><trkpt lat="44.8750517" lon="9.5499167"><ele>171.20000000000002</ele><time>2026-04-04T11:11:30.188Z</time></trkpt><trkpt lat="44.8749683" lon="9.5499583"><ele>171.0</ele><time>2026-04-04T11:11:31.19Z</time></trkpt><trkpt lat="44.87485" lon="9.54997"><ele>170.0</ele><time>2026-04-04T11:11:32.191Z</time></trkpt><trkpt lat="44.8746933" lon="9.5499117"><ele>169.0</ele><time>2026-04-04T11:11:33.188Z</time></trkpt><trkpt lat="44.8745417" lon="9.549845"><ele>168.0</ele><time>2026-04-04T11:11:34.19Z</time></trkpt><trkpt lat="44.8744033" lon="9.5497817"><ele>168.0</ele><time>2026-04-04T11:11:35.191Z</time></trkpt><trkpt lat="44.8742733" lon="9.5497183"><ele>168.0</ele><time>2026-04-04T11:11:36.19Z</time></trkpt><trkpt lat="44.87415" lon="9.5496517"><ele>168.0</ele><time>2026-04-04T11:11:37.191Z</time></trkpt><trkpt lat="44.87394" lon="9.5494683"><ele>170.0</ele><time>2026-04-04T11:11:39.191Z</time></trkpt><trkpt lat="44.8738483" lon="9.549365"><ele>172.0</ele><time>2026-04-04T11:11:40.19Z</time></trkpt><trkpt lat="44.873775" lon="9.54924"><ele>174.0</ele><time>2026-04-04T11:11:41.19Z</time></trkpt><trkpt lat="44.8737117" lon="9.5490833"><ele>176.0</ele><time>2026-04-04T11:11:42.19Z</time></trkpt><trkpt lat="44.8736667" lon="9.5489067"><ele>176.0</ele><time>2026-04-04T11:11:43.191Z</time></trkpt><trkpt lat="44.87364" lon="9.5487133"><ele>176.0</ele><time>2026-04-04T11:11:44.19Z</time></trkpt><trkpt lat="44.873635" lon="9.5485167"><ele>176.0</ele><time>2026-04-04T11:11:45.19Z</time></trkpt><trkpt lat="44.873635" lon="9.5483367"><ele>176.0</ele><time>2026-04-04T11:11:46.189Z</time></trkpt><trkpt lat="44.8736317" lon="9.5481917"><ele>174.60000000000002</ele><time>2026-04-04T11:11:47.189Z</time></trkpt><trkpt lat="44.8736133" lon="9.5480717"><ele>173.2</ele><time>2026-04-04T11:11:48.191Z</time></trkpt><trkpt lat="44.87356" lon="9.5479783"><ele>171.8</ele><time>2026-04-04T11:11:49.188Z</time></trkpt><trkpt lat="44.87349" lon="9.5479033"><ele>170.39999999999998</ele><time>2026-04-04T11:11:50.191Z</time></trkpt><trkpt lat="44.8733833" lon="9.5478917"><ele>169.0</ele><time>2026-04-04T11:11:51.19Z</time></trkpt><trkpt lat="44.8732767" lon="9.5479033"><ele>169.0</ele><time>2026-04-04T11:11:52.189Z</time></trkpt><trkpt lat="44.873175" lon="9.5479517"><ele>169.0</ele><time>2026-04-04T11:11:53.189Z</time></trkpt><trkpt lat="44.8730767" lon="9.548065"><ele>169.0</ele><time>2026-04-04T11:11:54.189Z</time></trkpt><trkpt lat="44.87298" lon="9.5482"><ele>169.0</ele><time>2026-04-04T11:11:55.189Z</time></trkpt><trkpt lat="44.8728733" lon="9.548325"><ele>169.0</ele><time>2026-04-04T11:11:56.189Z</time></trkpt><trkpt lat="44.8727733" lon="9.5484367"><ele>169.0</ele><time>2026-04-04T11:11:57.188Z</time></trkpt><trkpt lat="44.872675" lon="9.548525"><ele>169.0</ele><time>2026-04-04T11:11:58.188Z</time></trkpt><trkpt lat="44.8724183" lon="9.54866"><ele>169.33333333333334</ele><time>2026-04-04T11:12:00.189Z</time></trkpt><trkpt lat="44.87226" lon="9.5486983"><ele>169.66666666666666</ele><time>2026-04-04T11:12:01.19Z</time></trkpt><trkpt lat="44.8721" lon="9.5487233"><ele>170.0</ele><time>2026-04-04T11:12:02.189Z</time></trkpt><trkpt lat="44.871945" lon="9.5487433"><ele>170.0</ele><time>2026-04-04T11:12:03.188Z</time></trkpt><trkpt lat="44.8718" lon="9.5487583"><ele>170.0</ele><time>2026-04-04T11:12:04.189Z</time></trkpt><trkpt lat="44.871665" lon="9.54877"><ele>170.0</ele><time>2026-04-04T11:12:05.189Z</time></trkpt><trkpt lat="44.87154" lon="9.5487767"><ele>170.0</ele><time>2026-04-04T11:12:06.189Z</time></trkpt><trkpt lat="44.8714083" lon="9.548765"><ele>170.0</ele><time>2026-04-04T11:12:07.189Z</time></trkpt><trkpt lat="44.8712683" lon="9.54874"><ele>170.0</ele><time>2026-04-04T11:12:08.189Z</time></trkpt><trkpt lat="44.8711233" lon="9.5487067"><ele>170.0</ele><time>2026-04-04T11:12:09.189Z</time></trkpt><trkpt lat="44.8709717" lon="9.54867"><ele>170.0</ele><time>2026-04-04T11:12:10.189Z</time></trkpt><trkpt lat="44.8708183" lon="9.5486333"><ele>170.0</ele><time>2026-04-04T11:12:11.19Z</time></trkpt><trkpt lat="44.87066" lon="9.5485933"><ele>170.0</ele><time>2026-04-04T11:12:12.189Z</time></trkpt><trkpt lat="44.8705083" lon="9.548545"><ele>170.0</ele><time>2026-04-04T11:12:13.189Z</time></trkpt><trkpt lat="44.8703567" lon="9.54849"><ele>170.0</ele><time>2026-04-04T11:12:14.189Z</time></trkpt><trkpt lat="44.87021" lon="9.5484333"><ele>170.0</ele><time>2026-04-04T11:12:15.188Z</time></trkpt><trkpt lat="44.870065" lon="9.548375"><ele>170.0</ele><time>2026-04-04T11:12:16.188Z</time></trkpt><trkpt lat="44.86992" lon="9.548315"><ele>170.25</ele><time>2026-04-04T11:12:17.193Z</time></trkpt><trkpt lat="44.8697783" lon="9.548255"><ele>170.5</ele><time>2026-04-04T11:12:18.19Z</time></trkpt><trkpt lat="44.8696367" lon="9.548195"><ele>170.75</ele><time>2026-04-04T11:12:19.19Z</time></trkpt><trkpt lat="44.8695" lon="9.54813"><ele>171.0</ele><time>2026-04-04T11:12:20.191Z</time></trkpt><trkpt lat="44.8693667" lon="9.548065"><ele>171.0</ele><time>2026-04-04T11:12:21.19Z</time></trkpt><trkpt lat="44.8692367" lon="9.5480033"><ele>171.0</ele><time>2026-04-04T11:12:22.189Z</time></trkpt><trkpt lat="44.8691067" lon="9.547945"><ele>171.0</ele><time>2026-04-04T11:12:23.19Z</time></trkpt><trkpt lat="44.8689783" lon="9.54789"><ele>171.0</ele><time>2026-04-04T11:12:24.19Z</time></trkpt><trkpt lat="44.8688517" lon="9.54784"><ele>170.75</ele><time>2026-04-04T11:12:25.189Z</time></trkpt><trkpt lat="44.868725" lon="9.5477883"><ele>170.5</ele><time>2026-04-04T11:12:26.189Z</time></trkpt><trkpt lat="44.8685983" lon="9.5477333"><ele>170.25</ele><time>2026-04-04T11:12:27.189Z</time></trkpt><trkpt lat="44.8684717" lon="9.54768"><ele>170.0</ele><time>2026-04-04T11:12:28.19Z</time></trkpt><trkpt lat="44.8683483" lon="9.5476283"><ele>170.0</ele><time>2026-04-04T11:12:29.189Z</time></trkpt><trkpt lat="44.8682317" lon="9.547575"><ele>170.0</ele><time>2026-04-04T11:12:30.189Z</time></trkpt><trkpt lat="44.8681117" lon="9.5475183"><ele>170.0</ele><time>2026-04-04T11:12:31.19Z</time></trkpt><trkpt lat="44.8679883" lon="9.5474583"><ele>170.0</ele><time>2026-04-04T11:12:32.191Z</time></trkpt><trkpt lat="44.8678617" lon="9.5473917"><ele>170.0</ele><time>2026-04-04T11:12:33.19Z</time></trkpt><trkpt lat="44.8677383" lon="9.5473183"><ele>170.0</ele><time>2026-04-04T11:12:34.19Z</time></trkpt><trkpt lat="44.867615" lon="9.547235"><ele>170.0</ele><time>2026-04-04T11:12:35.191Z</time></trkpt><trkpt lat="44.8674917" lon="9.5471483"><ele>170.0</ele><time>2026-04-04T11:12:36.189Z</time></trkpt><trkpt lat="44.8673667" lon="9.54706"><ele>170.75</ele><time>2026-04-04T11:12:37.189Z</time></trkpt><trkpt lat="44.8672383" lon="9.5469767"><ele>171.5</ele><time>2026-04-04T11:12:38.191Z</time></trkpt><trkpt lat="44.867105" lon="9.5469033"><ele>172.25</ele><time>2026-04-04T11:12:39.189Z</time></trkpt><trkpt lat="44.8669683" lon="9.5468417"><ele>173.0</ele><time>2026-04-04T11:12:40.189Z</time></trkpt><trkpt lat="44.86684" lon="9.546785"><ele>173.0</ele><time>2026-04-04T11:12:41.189Z</time></trkpt><trkpt lat="44.8667083" lon="9.5467333"><ele>173.0</ele><time>2026-04-04T11:12:42.189Z</time></trkpt><trkpt lat="44.86658" lon="9.5466833"><ele>173.0</ele><time>2026-04-04T11:12:43.189Z</time></trkpt><trkpt lat="44.8664583" lon="9.5466333"><ele>173.0</ele><time>2026-04-04T11:12:44.192Z</time></trkpt><trkpt lat="44.8663383" lon="9.5465833"><ele>173.0</ele><time>2026-04-04T11:12:45.19Z</time></trkpt><trkpt lat="44.8662267" lon="9.546535"><ele>173.0</ele><time>2026-04-04T11:12:46.189Z</time></trkpt><trkpt lat="44.86612" lon="9.5464967"><ele>173.0</ele><time>2026-04-04T11:12:47.19Z</time></trkpt><trkpt lat="44.86602" lon="9.5464633"><ele>173.0</ele><time>2026-04-04T11:12:48.189Z</time></trkpt><trkpt lat="44.8659267" lon="9.5464333"><ele>173.0</ele><time>2026-04-04T11:12:49.19Z</time></trkpt><trkpt lat="44.8658283" lon="9.5464067"><ele>173.0</ele><time>2026-04-04T11:12:50.19Z</time></trkpt><trkpt lat="44.865725" lon="9.5463867"><ele>173.0</ele><time>2026-04-04T11:12:51.189Z</time></trkpt><trkpt lat="44.8656217" lon="9.546365"><ele>173.0</ele><time>2026-04-04T11:12:52.189Z</time></trkpt><trkpt lat="44.8655183" lon="9.5463367"><ele>173.0</ele><time>2026-04-04T11:12:53.189Z</time></trkpt><trkpt lat="44.8654083" lon="9.54631"><ele>173.0</ele><time>2026-04-04T11:12:54.19Z</time></trkpt><trkpt lat="44.86529" lon="9.5462833"><ele>173.0</ele><time>2026-04-04T11:12:55.19Z</time></trkpt><trkpt lat="44.865175" lon="9.5462583"><ele>173.0</ele><time>2026-04-04T11:12:56.19Z</time></trkpt><trkpt lat="44.8650533" lon="9.5462333"><ele>173.0</ele><time>2026-04-04T11:12:57.19Z</time></trkpt><trkpt lat="44.86494" lon="9.5462"><ele>173.0</ele><time>2026-04-04T11:12:58.189Z</time></trkpt><trkpt lat="44.86482" lon="9.54617"><ele>173.5</ele><time>2026-04-04T11:12:59.19Z</time></trkpt><trkpt lat="44.8646983" lon="9.54614"><ele>174.0</ele><time>2026-04-04T11:13:00.19Z</time></trkpt><trkpt lat="44.8645733" lon="9.54611"><ele>174.5</ele><time>2026-04-04T11:13:01.191Z</time></trkpt><trkpt lat="44.8644483" lon="9.5460833"><ele>175.0</ele><time>2026-04-04T11:13:02.189Z</time></trkpt><trkpt lat="44.864325" lon="9.5460583"><ele>175.0</ele><time>2026-04-04T11:13:03.189Z</time></trkpt><trkpt lat="44.8642" lon="9.546035"><ele>175.0</ele><time>2026-04-04T11:13:04.189Z</time></trkpt><trkpt lat="44.86408" lon="9.5460117"><ele>175.0</ele><time>2026-04-04T11:13:05.19Z</time></trkpt><trkpt lat="44.863965" lon="9.5459817"><ele>175.0</ele><time>2026-04-04T11:13:06.189Z</time></trkpt><trkpt lat="44.8638533" lon="9.5459483"><ele>175.0</ele><time>2026-04-04T11:13:07.19Z</time></trkpt><trkpt lat="44.8637417" lon="9.545905"><ele>175.0</ele><time>2026-04-04T11:13:08.189Z</time></trkpt><trkpt lat="44.8636283" lon="9.5458517"><ele>175.0</ele><time>2026-04-04T11:13:09.188Z</time></trkpt><trkpt lat="44.8635133" lon="9.5457883"><ele>175.0</ele><time>2026-04-04T11:13:10.188Z</time></trkpt><trkpt lat="44.8633983" lon="9.5457183"><ele>174.75</ele><time>2026-04-04T11:13:11.188Z</time></trkpt><trkpt lat="44.8632833" lon="9.5456483"><ele>174.5</ele><time>2026-04-04T11:13:12.188Z</time></trkpt><trkpt lat="44.8631717" lon="9.5455817"><ele>174.25</ele><time>2026-04-04T11:13:13.19Z</time></trkpt><trkpt lat="44.8630617" lon="9.545515"><ele>174.0</ele><time>2026-04-04T11:13:14.189Z</time></trkpt><trkpt lat="44.8629567" lon="9.54545"><ele>174.0</ele><time>2026-04-04T11:13:15.189Z</time></trkpt><trkpt lat="44.8628533" lon="9.54539"><ele>174.0</ele><time>2026-04-04T11:13:16.192Z</time></trkpt><trkpt lat="44.8627633" lon="9.5453233"><ele>174.0</ele><time>2026-04-04T11:13:17.189Z</time></trkpt><trkpt lat="44.8626783" lon="9.5452517"><ele>174.0</ele><time>2026-04-04T11:13:18.189Z</time></trkpt><trkpt lat="44.8625983" lon="9.545175"><ele>174.0</ele><time>2026-04-04T11:13:19.189Z</time></trkpt><trkpt lat="44.86252" lon="9.545095"><ele>174.39999999999998</ele><time>2026-04-04T11:13:20.189Z</time></trkpt><trkpt lat="44.862445" lon="9.5450133"><ele>174.8</ele><time>2026-04-04T11:13:21.189Z</time></trkpt><trkpt lat="44.8623717" lon="9.5449317"><ele>175.2</ele><time>2026-04-04T11:13:22.19Z</time></trkpt><trkpt lat="44.8622967" lon="9.54485"><ele>175.60000000000002</ele><time>2026-04-04T11:13:23.19Z</time></trkpt><trkpt lat="44.8622233" lon="9.5447767"><ele>176.0</ele><time>2026-04-04T11:13:24.188Z</time></trkpt><trkpt lat="44.8621567" lon="9.5447033"><ele>176.0</ele><time>2026-04-04T11:13:25.188Z</time></trkpt><trkpt lat="44.8620967" lon="9.544635"><ele>176.0</ele><time>2026-04-04T11:13:26.188Z</time></trkpt><trkpt lat="44.8620383" lon="9.5445733"><ele>176.0</ele><time>2026-04-04T11:13:27.189Z</time></trkpt><trkpt lat="44.861985" lon="9.5445117"><ele>176.0</ele><time>2026-04-04T11:13:28.189Z</time></trkpt><trkpt lat="44.86189" lon="9.54441"><ele>176.0</ele><time>2026-04-04T11:13:30.189Z</time></trkpt><trkpt lat="44.8618067" lon="9.5443233"><ele>176.0</ele><time>2026-04-04T11:13:32.19Z</time></trkpt><trkpt lat="44.8617317" lon="9.5442433"><ele>175.83333333333331</ele><time>2026-04-04T11:13:34.189Z</time></trkpt><trkpt lat="44.8616817" lon="9.5441767"><ele>175.66666666666666</ele><time>2026-04-04T11:13:36.188Z</time></trkpt><trkpt lat="44.8615867" lon="9.5441383"><ele>175.5</ele><time>2026-04-04T11:19:33.189Z</time></trkpt><trkpt lat="44.8615183" lon="9.5440683"><ele>175.33333333333334</ele><time>2026-04-04T11:19:35.188Z</time></trkpt><trkpt lat="44.8614567" lon="9.5440017"><ele>175.16666666666669</ele><time>2026-04-04T11:19:37.189Z</time></trkpt><trkpt lat="44.8614033" lon="9.543915"><ele>175.0</ele><time>2026-04-04T11:19:40.187Z</time></trkpt><trkpt lat="44.8614483" lon="9.5437767"><ele>176.0</ele><time>2026-04-04T11:19:43.188Z</time></trkpt><trkpt lat="44.8615233" lon="9.54365"><ele>177.0</ele><time>2026-04-04T11:19:45.188Z</time></trkpt><trkpt lat="44.8615933" lon="9.5435"><ele>178.0</ele><time>2026-04-04T11:19:47.189Z</time></trkpt><trkpt lat="44.861645" lon="9.5434133"><ele>179.0</ele><time>2026-04-04T11:19:48.188Z</time></trkpt><trkpt lat="44.8616967" lon="9.5432933"><ele>180.0</ele><time>2026-04-04T11:19:49.189Z</time></trkpt><trkpt lat="44.8617567" lon="9.5431733"><ele>179.4</ele><time>2026-04-04T11:19:50.188Z</time></trkpt><trkpt lat="44.8618033" lon="9.5430517"><ele>178.8</ele><time>2026-04-04T11:19:51.188Z</time></trkpt><trkpt lat="44.861845" lon="9.5429383"><ele>178.2</ele><time>2026-04-04T11:19:52.188Z</time></trkpt><trkpt lat="44.86187" lon="9.54282"><ele>177.6</ele><time>2026-04-04T11:19:53.188Z</time></trkpt><trkpt lat="44.86187" lon="9.5426933"><ele>177.0</ele><time>2026-04-04T11:19:54.188Z</time></trkpt><trkpt lat="44.8618517" lon="9.5425617"><ele>178.5</ele><time>2026-04-04T11:19:55.19Z</time></trkpt><trkpt lat="44.861795" lon="9.54241"><ele>180.0</ele><time>2026-04-04T11:19:56.188Z</time></trkpt><trkpt lat="44.861755" lon="9.542245"><ele>181.5</ele><time>2026-04-04T11:19:57.188Z</time></trkpt><trkpt lat="44.8617083" lon="9.5420917"><ele>183.0</ele><time>2026-04-04T11:19:58.191Z</time></trkpt><trkpt lat="44.8616383" lon="9.5419567"><ele>184.0</ele><time>2026-04-04T11:19:59.189Z</time></trkpt><trkpt lat="44.8615483" lon="9.5418183"><ele>185.0</ele><time>2026-04-04T11:20:00.188Z</time></trkpt><trkpt lat="44.861445" lon="9.5416667"><ele>186.0</ele><time>2026-04-04T11:20:01.188Z</time></trkpt><trkpt lat="44.86133" lon="9.5414983"><ele>187.0</ele><time>2026-04-04T11:20:02.188Z</time></trkpt><trkpt lat="44.8612117" lon="9.541335"><ele>188.66666666666669</ele><time>2026-04-04T11:20:03.189Z</time></trkpt><trkpt lat="44.86111" lon="9.5411767"><ele>190.33333333333334</ele><time>2026-04-04T11:20:04.19Z</time></trkpt><trkpt lat="44.861015" lon="9.5410217"><ele>192.0</ele><time>2026-04-04T11:20:05.189Z</time></trkpt><trkpt lat="44.86092" lon="9.5408517"><ele>192.0</ele><time>2026-04-04T11:20:06.188Z</time></trkpt><trkpt lat="44.8608283" lon="9.5406733"><ele>192.0</ele><time>2026-04-04T11:20:07.188Z</time></trkpt><trkpt lat="44.8607417" lon="9.540505"><ele>192.0</ele><time>2026-04-04T11:20:08.189Z</time></trkpt><trkpt lat="44.8606733" lon="9.5403517"><ele>192.0</ele><time>2026-04-04T11:20:09.189Z</time></trkpt><trkpt lat="44.860625" lon="9.5402017"><ele>193.5</ele><time>2026-04-04T11:20:10.188Z</time></trkpt><trkpt lat="44.8606017" lon="9.54004"><ele>195.0</ele><time>2026-04-04T11:20:11.188Z</time></trkpt><trkpt lat="44.8606083" lon="9.5398683"><ele>196.5</ele><time>2026-04-04T11:20:12.188Z</time></trkpt><trkpt lat="44.860645" lon="9.53968"><ele>198.0</ele><time>2026-04-04T11:20:13.189Z</time></trkpt><trkpt lat="44.860685" lon="9.5395133"><ele>198.5</ele><time>2026-04-04T11:20:14.188Z</time></trkpt><trkpt lat="44.8606983" lon="9.53938"><ele>199.0</ele><time>2026-04-04T11:20:15.191Z</time></trkpt><trkpt lat="44.86068" lon="9.5392333"><ele>199.5</ele><time>2026-04-04T11:20:16.187Z</time></trkpt><trkpt lat="44.8606317" lon="9.5390883"><ele>200.0</ele><time>2026-04-04T11:20:17.189Z</time></trkpt><trkpt lat="44.8605567" lon="9.538915"><ele>201.0</ele><time>2026-04-04T11:20:18.189Z</time></trkpt><trkpt lat="44.8604933" lon="9.538715"><ele>202.0</ele><time>2026-04-04T11:20:19.188Z</time></trkpt><trkpt lat="44.8604417" lon="9.5385133"><ele>203.0</ele><time>2026-04-04T11:20:20.19Z</time></trkpt><trkpt lat="44.8604033" lon="9.5383117"><ele>203.0</ele><time>2026-04-04T11:20:21.189Z</time></trkpt><trkpt lat="44.8603683" lon="9.53811"><ele>203.0</ele><time>2026-04-04T11:20:22.188Z</time></trkpt><trkpt lat="44.86033" lon="9.5379217"><ele>203.0</ele><time>2026-04-04T11:20:23.187Z</time></trkpt><trkpt lat="44.8602917" lon="9.53774"><ele>203.0</ele><time>2026-04-04T11:20:24.188Z</time></trkpt><trkpt lat="44.8602567" lon="9.537565"><ele>203.25</ele><time>2026-04-04T11:20:25.189Z</time></trkpt><trkpt lat="44.8602267" lon="9.5373883"><ele>203.5</ele><time>2026-04-04T11:20:26.19Z</time></trkpt><trkpt lat="44.8602033" lon="9.5372167"><ele>203.75</ele><time>2026-04-04T11:20:27.188Z</time></trkpt><trkpt lat="44.86019" lon="9.537055"><ele>204.0</ele><time>2026-04-04T11:20:28.19Z</time></trkpt><trkpt lat="44.860195" lon="9.5369017"><ele>204.0</ele><time>2026-04-04T11:20:29.188Z</time></trkpt><trkpt lat="44.8602117" lon="9.53674"><ele>204.0</ele><time>2026-04-04T11:20:30.19Z</time></trkpt><trkpt lat="44.8602417" lon="9.5365733"><ele>204.0</ele><time>2026-04-04T11:20:31.189Z</time></trkpt><trkpt lat="44.8602767" lon="9.5364067"><ele>204.0</ele><time>2026-04-04T11:20:32.189Z</time></trkpt><trkpt lat="44.8603083" lon="9.5362467"><ele>204.79999999999998</ele><time>2026-04-04T11:20:33.189Z</time></trkpt><trkpt lat="44.8603333" lon="9.5360883"><ele>205.6</ele><time>2026-04-04T11:20:34.189Z</time></trkpt><trkpt lat="44.8603583" lon="9.535935"><ele>206.4</ele><time>2026-04-04T11:20:35.191Z</time></trkpt><trkpt lat="44.86038" lon="9.53579"><ele>207.2</ele><time>2026-04-04T11:20:36.19Z</time></trkpt><trkpt lat="44.8603967" lon="9.5356433"><ele>208.0</ele><time>2026-04-04T11:20:37.189Z</time></trkpt><trkpt lat="44.86041" lon="9.53551"><ele>208.0</ele><time>2026-04-04T11:20:38.189Z</time></trkpt><trkpt lat="44.86041" lon="9.535395"><ele>208.0</ele><time>2026-04-04T11:20:39.189Z</time></trkpt><trkpt lat="44.8603983" lon="9.5352967"><ele>208.0</ele><time>2026-04-04T11:20:40.189Z</time></trkpt><trkpt lat="44.860375" lon="9.5352083"><ele>208.0</ele><time>2026-04-04T11:20:41.19Z</time></trkpt><trkpt lat="44.8603383" lon="9.5351317"><ele>208.0</ele><time>2026-04-04T11:20:42.189Z</time></trkpt><trkpt lat="44.8602867" lon="9.535065"><ele>208.0</ele><time>2026-04-04T11:20:43.189Z</time></trkpt><trkpt lat="44.86022" lon="9.5350233"><ele>208.0</ele><time>2026-04-04T11:20:44.189Z</time></trkpt><trkpt lat="44.86014" lon="9.5350083"><ele>207.8</ele><time>2026-04-04T11:20:45.189Z</time></trkpt><trkpt lat="44.8600733" lon="9.5350067"><ele>207.60000000000002</ele><time>2026-04-04T11:20:46.188Z</time></trkpt><trkpt lat="44.859955" lon="9.5350783"><ele>207.39999999999998</ele><time>2026-04-04T11:20:48.188Z</time></trkpt><trkpt lat="44.8598633" lon="9.5351367"><ele>207.2</ele><time>2026-04-04T11:20:50.188Z</time></trkpt><trkpt lat="44.8597933" lon="9.5351733"><ele>207.0</ele><time>2026-04-04T11:20:53.189Z</time></trkpt><trkpt lat="44.8598817" lon="9.535125"><ele>207.00000000000003</ele><time>2026-04-04T11:21:01.188Z</time></trkpt><trkpt lat="44.859975" lon="9.5350583"><ele>207.0</ele><time>2026-04-04T11:21:03.188Z</time></trkpt><trkpt lat="44.8600367" lon="9.53504"><ele>207.0</ele><time>2026-04-04T11:21:04.189Z</time></trkpt><trkpt lat="44.8601017" lon="9.5350283"><ele>207.0</ele><time>2026-04-04T11:21:05.188Z</time></trkpt><trkpt lat="44.8601683" lon="9.5350333"><ele>207.0</ele><time>2026-04-04T11:21:06.19Z</time></trkpt><trkpt lat="44.8602367" lon="9.5350633"><ele>207.00000000000003</ele><time>2026-04-04T11:21:07.19Z</time></trkpt><trkpt lat="44.8603" lon="9.5351083"><ele>207.0</ele><time>2026-04-04T11:21:08.188Z</time></trkpt><trkpt lat="44.860355" lon="9.5351883"><ele>207.16666666666666</ele><time>2026-04-04T11:21:09.188Z</time></trkpt><trkpt lat="44.8603833" lon="9.5352883"><ele>207.33333333333331</ele><time>2026-04-04T11:21:10.188Z</time></trkpt><trkpt lat="44.8603867" lon="9.5354"><ele>207.5</ele><time>2026-04-04T11:21:11.189Z</time></trkpt><trkpt lat="44.8603817" lon="9.53552"><ele>207.66666666666666</ele><time>2026-04-04T11:21:12.188Z</time></trkpt><trkpt lat="44.8603633" lon="9.5356483"><ele>207.83333333333331</ele><time>2026-04-04T11:21:13.189Z</time></trkpt><trkpt lat="44.8603433" lon="9.53578"><ele>208.0</ele><time>2026-04-04T11:21:14.189Z</time></trkpt><trkpt lat="44.8603183" lon="9.535925"><ele>208.0</ele><time>2026-04-04T11:21:15.188Z</time></trkpt><trkpt lat="44.8602917" lon="9.5360767"><ele>208.0</ele><time>2026-04-04T11:21:16.188Z</time></trkpt><trkpt lat="44.8602667" lon="9.53623"><ele>208.0</ele><time>2026-04-04T11:21:17.19Z</time></trkpt><trkpt lat="44.8602433" lon="9.5363733"><ele>208.0</ele><time>2026-04-04T11:21:18.188Z</time></trkpt><trkpt lat="44.8602183" lon="9.5365033"><ele>208.0</ele><time>2026-04-04T11:21:19.19Z</time></trkpt><trkpt lat="44.8601967" lon="9.5366133"><ele>207.33333333333331</ele><time>2026-04-04T11:21:20.188Z</time></trkpt><trkpt lat="44.8601617" lon="9.5367367"><ele>206.66666666666666</ele><time>2026-04-04T11:21:22.188Z</time></trkpt><trkpt lat="44.8600833" lon="9.5366783"><ele>206.0</ele><time>2026-04-04T11:21:25.189Z</time></trkpt><trkpt lat="44.8600567" lon="9.53659"><ele>205.33333333333331</ele><time>2026-04-04T11:21:26.189Z</time></trkpt><trkpt lat="44.8600083" lon="9.5365033"><ele>204.66666666666666</ele><time>2026-04-04T11:21:27.191Z</time></trkpt><trkpt lat="44.8599467" lon="9.5364117"><ele>204.0</ele><time>2026-04-04T11:21:28.189Z</time></trkpt><trkpt lat="44.8598633" lon="9.53634"><ele>202.25</ele><time>2026-04-04T11:21:29.197Z</time></trkpt><trkpt lat="44.8597517" lon="9.5362867"><ele>200.5</ele><time>2026-04-04T11:21:30.19Z</time></trkpt><trkpt lat="44.8596333" lon="9.5362467"><ele>198.75</ele><time>2026-04-04T11:21:31.191Z</time></trkpt><trkpt lat="44.8595117" lon="9.5362183"><ele>197.0</ele><time>2026-04-04T11:21:32.19Z</time></trkpt><trkpt lat="44.8593833" lon="9.5362067"><ele>196.0</ele><time>2026-04-04T11:21:33.191Z</time></trkpt><trkpt lat="44.8592667" lon="9.5362117"><ele>195.0</ele><time>2026-04-04T11:21:34.189Z</time></trkpt><trkpt lat="44.85916" lon="9.53621"><ele>194.0</ele><time>2026-04-04T11:21:35.188Z</time></trkpt><trkpt lat="44.8590567" lon="9.5362017"><ele>193.0</ele><time>2026-04-04T11:21:36.189Z</time></trkpt><trkpt lat="44.8589567" lon="9.5361733"><ele>192.0</ele><time>2026-04-04T11:21:37.188Z</time></trkpt><trkpt lat="44.8588433" lon="9.53613"><ele>192.0</ele><time>2026-04-04T11:21:38.189Z</time></trkpt><trkpt lat="44.8587317" lon="9.5360733"><ele>192.0</ele><time>2026-04-04T11:21:39.188Z</time></trkpt><trkpt lat="44.8586167" lon="9.536015"><ele>192.0</ele><time>2026-04-04T11:21:40.188Z</time></trkpt><trkpt lat="44.858515" lon="9.535955"><ele>192.0</ele><time>2026-04-04T11:21:41.189Z</time></trkpt><trkpt lat="44.85843" lon="9.5358767"><ele>188.25</ele><time>2026-04-04T11:21:42.189Z</time></trkpt><trkpt lat="44.85835" lon="9.5357783"><ele>184.5</ele><time>2026-04-04T11:21:43.19Z</time></trkpt><trkpt lat="44.8582733" lon="9.5356683"><ele>180.75</ele><time>2026-04-04T11:21:44.19Z</time></trkpt><trkpt lat="44.8581867" lon="9.5355617"><ele>177.0</ele><time>2026-04-04T11:21:45.19Z</time></trkpt><trkpt lat="44.8580833" lon="9.5354667"><ele>177.75</ele><time>2026-04-04T11:21:46.191Z</time></trkpt><trkpt lat="44.857955" lon="9.535375"><ele>178.5</ele><time>2026-04-04T11:21:47.188Z</time></trkpt><trkpt lat="44.8578267" lon="9.5352667"><ele>179.25</ele><time>2026-04-04T11:21:48.188Z</time></trkpt><trkpt lat="44.8577117" lon="9.535145"><ele>180.0</ele><time>2026-04-04T11:21:49.188Z</time></trkpt><trkpt lat="44.857605" lon="9.5350167"><ele>180.0</ele><time>2026-04-04T11:21:50.188Z</time></trkpt><trkpt lat="44.8575033" lon="9.5348817"><ele>180.0</ele><time>2026-04-04T11:21:51.189Z</time></trkpt><trkpt lat="44.8574083" lon="9.5347383"><ele>180.0</ele><time>2026-04-04T11:21:52.188Z</time></trkpt><trkpt lat="44.8573033" lon="9.534585"><ele>180.0</ele><time>2026-04-04T11:21:53.192Z</time></trkpt><trkpt lat="44.85719" lon="9.5344333"><ele>185.0</ele><time>2026-04-04T11:21:54.19Z</time></trkpt><trkpt lat="44.857075" lon="9.53429"><ele>190.0</ele><time>2026-04-04T11:21:55.191Z</time></trkpt><trkpt lat="44.8569467" lon="9.5341617"><ele>195.0</ele><time>2026-04-04T11:21:56.19Z</time></trkpt><trkpt lat="44.8568067" lon="9.53405"><ele>189.0</ele><time>2026-04-04T11:21:57.192Z</time></trkpt><trkpt lat="44.85666" lon="9.5339567"><ele>183.0</ele><time>2026-04-04T11:21:58.191Z</time></trkpt><trkpt lat="44.856515" lon="9.5338583"><ele>177.0</ele><time>2026-04-04T11:21:59.19Z</time></trkpt><trkpt lat="44.8563783" lon="9.53377"><ele>178.75</ele><time>2026-04-04T11:22:00.19Z</time></trkpt><trkpt lat="44.85625" lon="9.5337033"><ele>180.5</ele><time>2026-04-04T11:22:01.189Z</time></trkpt><trkpt lat="44.8561283" lon="9.5336433"><ele>182.25</ele><time>2026-04-04T11:22:02.189Z</time></trkpt><trkpt lat="44.8560167" lon="9.5335917"><ele>184.0</ele><time>2026-04-04T11:22:03.19Z</time></trkpt><trkpt lat="44.8559083" lon="9.533535"><ele>184.0</ele><time>2026-04-04T11:22:04.188Z</time></trkpt><trkpt lat="44.855805" lon="9.533465"><ele>184.0</ele><time>2026-04-04T11:22:05.189Z</time></trkpt><trkpt lat="44.8557017" lon="9.5334217"><ele>184.0</ele><time>2026-04-04T11:22:06.189Z</time></trkpt><trkpt lat="44.855585" lon="9.5334117"><ele>184.0</ele><time>2026-04-04T11:22:07.189Z</time></trkpt><trkpt lat="44.855465" lon="9.533415"><ele>184.0</ele><time>2026-04-04T11:22:08.188Z</time></trkpt><trkpt lat="44.8553333" lon="9.5334317"><ele>184.0</ele><time>2026-04-04T11:22:09.19Z</time></trkpt><trkpt lat="44.8551917" lon="9.5334733"><ele>184.0</ele><time>2026-04-04T11:22:10.188Z</time></trkpt><trkpt lat="44.8550517" lon="9.5335517"><ele>184.0</ele><time>2026-04-04T11:22:11.188Z</time></trkpt><trkpt lat="44.8549133" lon="9.533635"><ele>181.75</ele><time>2026-04-04T11:22:12.189Z</time></trkpt><trkpt lat="44.8547783" lon="9.5337017"><ele>179.5</ele><time>2026-04-04T11:22:13.192Z</time></trkpt><trkpt lat="44.85464" lon="9.533745"><ele>177.25</ele><time>2026-04-04T11:22:14.188Z</time></trkpt><trkpt lat="44.8544933" lon="9.5337617"><ele>175.0</ele><time>2026-04-04T11:22:15.188Z</time></trkpt><trkpt lat="44.854335" lon="9.53375"><ele>174.0</ele><time>2026-04-04T11:22:16.188Z</time></trkpt><trkpt lat="44.8541583" lon="9.5337133"><ele>173.0</ele><time>2026-04-04T11:22:17.188Z</time></trkpt><trkpt lat="44.8539533" lon="9.53365"><ele>172.0</ele><time>2026-04-04T11:22:18.189Z</time></trkpt><trkpt lat="44.8537283" lon="9.533585"><ele>172.0</ele><time>2026-04-04T11:22:19.189Z</time></trkpt><trkpt lat="44.8535083" lon="9.5335317"><ele>172.0</ele><time>2026-04-04T11:22:20.19Z</time></trkpt><trkpt lat="44.8533" lon="9.5334817"><ele>172.0</ele><time>2026-04-04T11:22:21.188Z</time></trkpt><trkpt lat="44.8531083" lon="9.5334367"><ele>172.25</ele><time>2026-04-04T11:22:22.188Z</time></trkpt><trkpt lat="44.852945" lon="9.5333883"><ele>172.5</ele><time>2026-04-04T11:22:23.189Z</time></trkpt><trkpt lat="44.8528083" lon="9.533325"><ele>172.75</ele><time>2026-04-04T11:22:24.188Z</time></trkpt><trkpt lat="44.8526883" lon="9.5332483"><ele>173.0</ele><time>2026-04-04T11:22:25.189Z</time></trkpt><trkpt lat="44.85257" lon="9.5331767"><ele>172.33333333333331</ele><time>2026-04-04T11:22:26.189Z</time></trkpt><trkpt lat="44.8524283" lon="9.5331217"><ele>171.66666666666666</ele><time>2026-04-04T11:22:27.188Z</time></trkpt><trkpt lat="44.85226" lon="9.5330683"><ele>171.0</ele><time>2026-04-04T11:22:28.188Z</time></trkpt><trkpt lat="44.852085" lon="9.533015"><ele>171.0</ele><time>2026-04-04T11:22:29.188Z</time></trkpt><trkpt lat="44.8519183" lon="9.5329717"><ele>171.0</ele><time>2026-04-04T11:22:30.188Z</time></trkpt><trkpt lat="44.8517717" lon="9.5329367"><ele>171.0</ele><time>2026-04-04T11:22:31.189Z</time></trkpt><trkpt lat="44.851645" lon="9.5329133"><ele>171.0</ele><time>2026-04-04T11:22:32.189Z</time></trkpt><trkpt lat="44.8515383" lon="9.5328967"><ele>171.33333333333334</ele><time>2026-04-04T11:22:33.189Z</time></trkpt><trkpt lat="44.8514533" lon="9.5328717"><ele>171.66666666666666</ele><time>2026-04-04T11:22:34.19Z</time></trkpt><trkpt lat="44.851385" lon="9.5328217"><ele>172.0</ele><time>2026-04-04T11:22:35.19Z</time></trkpt><trkpt lat="44.8513267" lon="9.5327467"><ele>172.33333333333331</ele><time>2026-04-04T11:22:36.19Z</time></trkpt><trkpt lat="44.851285" lon="9.5326583"><ele>172.66666666666666</ele><time>2026-04-04T11:22:37.188Z</time></trkpt><trkpt lat="44.8512667" lon="9.5325233"><ele>173.0</ele><time>2026-04-04T11:22:38.189Z</time></trkpt><trkpt lat="44.8512667" lon="9.5323467"><ele>173.0</ele><time>2026-04-04T11:22:39.189Z</time></trkpt><trkpt lat="44.8512683" lon="9.53213"><ele>173.0</ele><time>2026-04-04T11:22:40.19Z</time></trkpt><trkpt lat="44.8512717" lon="9.5318817"><ele>173.0</ele><time>2026-04-04T11:22:41.189Z</time></trkpt><trkpt lat="44.8512767" lon="9.53164"><ele>173.25</ele><time>2026-04-04T11:22:42.188Z</time></trkpt><trkpt lat="44.8512817" lon="9.531415"><ele>173.5</ele><time>2026-04-04T11:22:43.189Z</time></trkpt><trkpt lat="44.851285" lon="9.5312067"><ele>173.75</ele><time>2026-04-04T11:22:44.19Z</time></trkpt><trkpt lat="44.851285" lon="9.5310267"><ele>174.0</ele><time>2026-04-04T11:22:45.188Z</time></trkpt><trkpt lat="44.851275" lon="9.5308717"><ele>174.16666666666666</ele><time>2026-04-04T11:22:46.188Z</time></trkpt><trkpt lat="44.8512467" lon="9.5307533"><ele>174.33333333333334</ele><time>2026-04-04T11:22:47.188Z</time></trkpt><trkpt lat="44.85121" lon="9.5306633"><ele>174.5</ele><time>2026-04-04T11:22:48.189Z</time></trkpt><trkpt lat="44.8511517" lon="9.5306083"><ele>174.66666666666669</ele><time>2026-04-04T11:22:49.188Z</time></trkpt><trkpt lat="44.8510717" lon="9.53058"><ele>174.83333333333334</ele><time>2026-04-04T11:22:50.197Z</time></trkpt><trkpt lat="44.85098" lon="9.5305583"><ele>175.0</ele><time>2026-04-04T11:22:51.189Z</time></trkpt><trkpt lat="44.850855" lon="9.5305433"><ele>175.0</ele><time>2026-04-04T11:22:52.19Z</time></trkpt><trkpt lat="44.8507367" lon="9.53053"><ele>175.0</ele><time>2026-04-04T11:22:53.19Z</time></trkpt><trkpt lat="44.850625" lon="9.530515"><ele>175.0</ele><time>2026-04-04T11:22:54.189Z</time></trkpt><trkpt lat="44.8505217" lon="9.5305067"><ele>175.0</ele><time>2026-04-04T11:22:55.189Z</time></trkpt><trkpt lat="44.85043" lon="9.5304933"><ele>175.0</ele><time>2026-04-04T11:22:56.191Z</time></trkpt><trkpt lat="44.85036" lon="9.530465"><ele>175.0</ele><time>2026-04-04T11:22:57.188Z</time></trkpt><trkpt lat="44.850305" lon="9.5304217"><ele>175.0</ele><time>2026-04-04T11:22:58.189Z</time></trkpt><trkpt lat="44.8502233" lon="9.53029"><ele>175.0</ele><time>2026-04-04T11:23:00.189Z</time></trkpt><trkpt lat="44.8501767" lon="9.5301833"><ele>175.0</ele><time>2026-04-04T11:23:01.189Z</time></trkpt><trkpt lat="44.850125" lon="9.53004"><ele>175.0</ele><time>2026-04-04T11:23:02.189Z</time></trkpt><trkpt lat="44.8500667" lon="9.5298533"><ele>176.0</ele><time>2026-04-04T11:23:03.189Z</time></trkpt><trkpt lat="44.850005" lon="9.5296733"><ele>177.0</ele><time>2026-04-04T11:23:04.188Z</time></trkpt><trkpt lat="44.8499433" lon="9.5294883"><ele>178.0</ele><time>2026-04-04T11:23:05.19Z</time></trkpt><trkpt lat="44.8498867" lon="9.5293"><ele>179.0</ele><time>2026-04-04T11:23:06.188Z</time></trkpt><trkpt lat="44.8498383" lon="9.529115"><ele>179.25</ele><time>2026-04-04T11:23:07.188Z</time></trkpt><trkpt lat="44.8497983" lon="9.5289433"><ele>179.5</ele><time>2026-04-04T11:23:08.189Z</time></trkpt><trkpt lat="44.849765" lon="9.5287883"><ele>179.75</ele><time>2026-04-04T11:23:09.189Z</time></trkpt><trkpt lat="44.8497433" lon="9.5286083"><ele>180.0</ele><time>2026-04-04T11:23:10.188Z</time></trkpt><trkpt lat="44.84973" lon="9.5283933"><ele>180.75</ele><time>2026-04-04T11:23:11.189Z</time></trkpt><trkpt lat="44.8497167" lon="9.528175"><ele>181.5</ele><time>2026-04-04T11:23:12.188Z</time></trkpt><trkpt lat="44.8497083" lon="9.5279783"><ele>182.25</ele><time>2026-04-04T11:23:13.189Z</time></trkpt><trkpt lat="44.849705" lon="9.527815"><ele>183.0</ele><time>2026-04-04T11:23:14.189Z</time></trkpt><trkpt lat="44.8496833" lon="9.527705"><ele>183.2</ele><time>2026-04-04T11:23:15.19Z</time></trkpt><trkpt lat="44.8496433" lon="9.5276"><ele>183.4</ele><time>2026-04-04T11:23:16.189Z</time></trkpt><trkpt lat="44.8495933" lon="9.5275067"><ele>183.6</ele><time>2026-04-04T11:23:17.189Z</time></trkpt><trkpt lat="44.8495267" lon="9.527405"><ele>183.79999999999998</ele><time>2026-04-04T11:23:18.188Z</time></trkpt><trkpt lat="44.8494017" lon="9.5273083"><ele>184.0</ele><time>2026-04-04T11:23:19.191Z</time></trkpt><trkpt lat="44.8492617" lon="9.5272033"><ele>183.5</ele><time>2026-04-04T11:23:20.19Z</time></trkpt><trkpt lat="44.84913" lon="9.527105"><ele>183.0</ele><time>2026-04-04T11:23:21.19Z</time></trkpt><trkpt lat="44.849005" lon="9.527015"><ele>182.5</ele><time>2026-04-04T11:23:22.188Z</time></trkpt><trkpt lat="44.848885" lon="9.5269283"><ele>182.0</ele><time>2026-04-04T11:23:23.19Z</time></trkpt><trkpt lat="44.848765" lon="9.5268433"><ele>182.0</ele><time>2026-04-04T11:23:24.189Z</time></trkpt><trkpt lat="44.8486467" lon="9.5267583"><ele>182.0</ele><time>2026-04-04T11:23:25.188Z</time></trkpt><trkpt lat="44.8485283" lon="9.52667"><ele>182.0</ele><time>2026-04-04T11:23:26.189Z</time></trkpt><trkpt lat="44.84841" lon="9.5265817"><ele>182.0</ele><time>2026-04-04T11:23:27.189Z</time></trkpt><trkpt lat="44.8481817" lon="9.52641"><ele>181.75</ele><time>2026-04-04T11:23:29.189Z</time></trkpt><trkpt lat="44.8480667" lon="9.5263267"><ele>181.5</ele><time>2026-04-04T11:23:30.188Z</time></trkpt><trkpt lat="44.847955" lon="9.526245"><ele>181.25</ele><time>2026-04-04T11:23:31.188Z</time></trkpt><trkpt lat="44.847845" lon="9.5261633"><ele>181.0</ele><time>2026-04-04T11:23:32.19Z</time></trkpt><trkpt lat="44.8477333" lon="9.5260783"><ele>180.75</ele><time>2026-04-04T11:23:33.189Z</time></trkpt><trkpt lat="44.8476217" lon="9.5259933"><ele>180.5</ele><time>2026-04-04T11:23:34.188Z</time></trkpt><trkpt lat="44.84751" lon="9.5259067"><ele>180.25</ele><time>2026-04-04T11:23:35.189Z</time></trkpt><trkpt lat="44.847395" lon="9.52582"><ele>180.0</ele><time>2026-04-04T11:23:36.189Z</time></trkpt><trkpt lat="44.8472817" lon="9.5257317"><ele>180.0</ele><time>2026-04-04T11:23:37.189Z</time></trkpt><trkpt lat="44.8471617" lon="9.5256433"><ele>180.0</ele><time>2026-04-04T11:23:38.19Z</time></trkpt><trkpt lat="44.8470417" lon="9.525555"><ele>180.0</ele><time>2026-04-04T11:23:39.188Z</time></trkpt><trkpt lat="44.8469217" lon="9.5254633"><ele>180.0</ele><time>2026-04-04T11:23:40.189Z</time></trkpt><trkpt lat="44.8467967" lon="9.52537"><ele>180.5</ele><time>2026-04-04T11:23:41.189Z</time></trkpt><trkpt lat="44.84667" lon="9.5252767"><ele>181.0</ele><time>2026-04-04T11:23:42.188Z</time></trkpt><trkpt lat="44.8465417" lon="9.5251783"><ele>181.5</ele><time>2026-04-04T11:23:43.188Z</time></trkpt><trkpt lat="44.8464133" lon="9.5250733"><ele>182.0</ele><time>2026-04-04T11:23:44.189Z</time></trkpt><trkpt lat="44.846285" lon="9.5249717"><ele>182.0</ele><time>2026-04-04T11:23:45.188Z</time></trkpt><trkpt lat="44.8461617" lon="9.5248717"><ele>182.0</ele><time>2026-04-04T11:23:46.189Z</time></trkpt><trkpt lat="44.84605" lon="9.5247817"><ele>182.0</ele><time>2026-04-04T11:23:47.189Z</time></trkpt><trkpt lat="44.8459417" lon="9.5246967"><ele>182.0</ele><time>2026-04-04T11:23:48.188Z</time></trkpt><trkpt lat="44.8458483" lon="9.524615"><ele>182.2</ele><time>2026-04-04T11:23:49.189Z</time></trkpt><trkpt lat="44.845775" lon="9.52454"><ele>182.39999999999998</ele><time>2026-04-04T11:23:50.189Z</time></trkpt><trkpt lat="44.8457167" lon="9.52446"><ele>182.60000000000002</ele><time>2026-04-04T11:23:51.19Z</time></trkpt><trkpt lat="44.8456717" lon="9.524365"><ele>182.8</ele><time>2026-04-04T11:23:52.189Z</time></trkpt><trkpt lat="44.8456333" lon="9.5242517"><ele>183.0</ele><time>2026-04-04T11:23:53.189Z</time></trkpt><trkpt lat="44.84559" lon="9.5241033"><ele>183.0</ele><time>2026-04-04T11:23:54.188Z</time></trkpt><trkpt lat="44.84553" lon="9.5239283"><ele>183.0</ele><time>2026-04-04T11:23:55.189Z</time></trkpt><trkpt lat="44.8454467" lon="9.52373"><ele>183.0</ele><time>2026-04-04T11:23:56.189Z</time></trkpt><trkpt lat="44.8453667" lon="9.5235367"><ele>184.75</ele><time>2026-04-04T11:23:57.19Z</time></trkpt><trkpt lat="44.8453" lon="9.5233533"><ele>186.5</ele><time>2026-04-04T11:23:58.189Z</time></trkpt><trkpt lat="44.8452533" lon="9.5231783"><ele>188.25</ele><time>2026-04-04T11:23:59.189Z</time></trkpt><trkpt lat="44.8452167" lon="9.5229983"><ele>190.0</ele><time>2026-04-04T11:24:00.188Z</time></trkpt><trkpt lat="44.8451783" lon="9.5228133"><ele>189.4</ele><time>2026-04-04T11:24:01.189Z</time></trkpt><trkpt lat="44.84514" lon="9.5226517"><ele>188.8</ele><time>2026-04-04T11:24:02.189Z</time></trkpt><trkpt lat="44.845105" lon="9.5225267"><ele>188.2</ele><time>2026-04-04T11:24:03.19Z</time></trkpt><trkpt lat="44.8450817" lon="9.5224267"><ele>187.6</ele><time>2026-04-04T11:24:04.189Z</time></trkpt><trkpt lat="44.8450817" lon="9.5222367"><ele>187.0</ele><time>2026-04-04T11:24:06.188Z</time></trkpt><trkpt lat="44.8450967" lon="9.522115"><ele>188.2</ele><time>2026-04-04T11:24:07.188Z</time></trkpt><trkpt lat="44.8451283" lon="9.5219367"><ele>189.39999999999998</ele><time>2026-04-04T11:24:08.189Z</time></trkpt><trkpt lat="44.8451483" lon="9.5217833"><ele>190.60000000000002</ele><time>2026-04-04T11:24:09.189Z</time></trkpt><trkpt lat="44.845165" lon="9.521635"><ele>191.8</ele><time>2026-04-04T11:24:10.188Z</time></trkpt><trkpt lat="44.8451817" lon="9.5215083"><ele>193.0</ele><time>2026-04-04T11:24:11.19Z</time></trkpt><trkpt lat="44.8451967" lon="9.52139"><ele>195.8</ele><time>2026-04-04T11:24:12.19Z</time></trkpt><trkpt lat="44.84519" lon="9.5212917"><ele>198.60000000000002</ele><time>2026-04-04T11:24:13.191Z</time></trkpt><trkpt lat="44.8451683" lon="9.5212017"><ele>201.39999999999998</ele><time>2026-04-04T11:24:14.19Z</time></trkpt><trkpt lat="44.8450833" lon="9.5211183"><ele>204.2</ele><time>2026-04-04T11:24:15.19Z</time></trkpt><trkpt lat="44.8449983" lon="9.5210417"><ele>207.0</ele><time>2026-04-04T11:24:16.188Z</time></trkpt><trkpt lat="44.8448933" lon="9.5209817"><ele>207.0</ele><time>2026-04-04T11:24:17.191Z</time></trkpt><trkpt lat="44.8447783" lon="9.5209533"><ele>207.0</ele><time>2026-04-04T11:24:18.191Z</time></trkpt><trkpt lat="44.8446783" lon="9.520945"><ele>207.0</ele><time>2026-04-04T11:24:19.19Z</time></trkpt><trkpt lat="44.8445983" lon="9.5209283"><ele>207.0</ele><time>2026-04-04T11:24:20.19Z</time></trkpt><trkpt lat="44.84453" lon="9.5208883"><ele>207.0</ele><time>2026-04-04T11:24:21.19Z</time></trkpt><trkpt lat="44.8444917" lon="9.5207367"><ele>207.0</ele><time>2026-04-04T11:24:23.191Z</time></trkpt><trkpt lat="44.8444783" lon="9.5206317"><ele>207.0</ele><time>2026-04-04T11:24:24.19Z</time></trkpt><trkpt lat="44.8444517" lon="9.52052"><ele>207.0</ele><time>2026-04-04T11:24:25.192Z</time></trkpt><trkpt lat="44.8444083" lon="9.520415"><ele>207.0</ele><time>2026-04-04T11:24:26.192Z</time></trkpt><trkpt lat="44.8443267" lon="9.520325"><ele>207.0</ele><time>2026-04-04T11:24:27.19Z</time></trkpt><trkpt lat="44.8442283" lon="9.5202583"><ele>208.2</ele><time>2026-04-04T11:24:28.19Z</time></trkpt><trkpt lat="44.8441217" lon="9.5202117"><ele>209.39999999999998</ele><time>2026-04-04T11:24:29.19Z</time></trkpt><trkpt lat="44.8440217" lon="9.520165"><ele>210.60000000000002</ele><time>2026-04-04T11:24:30.19Z</time></trkpt><trkpt lat="44.8439167" lon="9.5201017"><ele>211.8</ele><time>2026-04-04T11:24:31.189Z</time></trkpt><trkpt lat="44.843825" lon="9.5200083"><ele>213.0</ele><time>2026-04-04T11:24:32.189Z</time></trkpt><trkpt lat="44.8437283" lon="9.51989"><ele>213.0</ele><time>2026-04-04T11:24:33.188Z</time></trkpt><trkpt lat="44.8436233" lon="9.51977"><ele>213.0</ele><time>2026-04-04T11:24:34.188Z</time></trkpt><trkpt lat="44.8435033" lon="9.51966"><ele>213.0</ele><time>2026-04-04T11:24:35.189Z</time></trkpt><trkpt lat="44.8433833" lon="9.519545"><ele>213.0</ele><time>2026-04-04T11:24:36.19Z</time></trkpt><trkpt lat="44.84327" lon="9.51943"><ele>213.8</ele><time>2026-04-04T11:24:37.189Z</time></trkpt><trkpt lat="44.8431717" lon="9.5193133"><ele>214.60000000000002</ele><time>2026-04-04T11:24:38.19Z</time></trkpt><trkpt lat="44.8430933" lon="9.51922"><ele>215.39999999999998</ele><time>2026-04-04T11:24:39.189Z</time></trkpt><trkpt lat="44.8430283" lon="9.519155"><ele>216.2</ele><time>2026-04-04T11:24:40.19Z</time></trkpt><trkpt lat="44.84296" lon="9.51911"><ele>217.0</ele><time>2026-04-04T11:24:41.189Z</time></trkpt><trkpt lat="44.842875" lon="9.5190883"><ele>217.0</ele><time>2026-04-04T11:24:42.189Z</time></trkpt><trkpt lat="44.8427617" lon="9.5190833"><ele>217.0</ele><time>2026-04-04T11:24:43.189Z</time></trkpt><trkpt lat="44.8426333" lon="9.5190883"><ele>217.0</ele><time>2026-04-04T11:24:44.188Z</time></trkpt><trkpt lat="44.842505" lon="9.5190983"><ele>217.0</ele><time>2026-04-04T11:24:45.189Z</time></trkpt><trkpt lat="44.8423767" lon="9.5190783"><ele>213.75</ele><time>2026-04-04T11:24:46.189Z</time></trkpt><trkpt lat="44.842235" lon="9.5190433"><ele>210.5</ele><time>2026-04-04T11:24:47.19Z</time></trkpt><trkpt lat="44.842105" lon="9.5189983"><ele>207.25</ele><time>2026-04-04T11:24:48.19Z</time></trkpt><trkpt lat="44.8419833" lon="9.5189483"><ele>204.0</ele><time>2026-04-04T11:24:49.19Z</time></trkpt><trkpt lat="44.84186" lon="9.5188683"><ele>199.0</ele><time>2026-04-04T11:24:50.191Z</time></trkpt><trkpt lat="44.8417233" lon="9.51875"><ele>194.0</ele><time>2026-04-04T11:24:51.191Z</time></trkpt><trkpt lat="44.8415883" lon="9.5186317"><ele>189.0</ele><time>2026-04-04T11:24:52.19Z</time></trkpt><trkpt lat="44.84147" lon="9.5185367"><ele>195.0</ele><time>2026-04-04T11:24:53.19Z</time></trkpt><trkpt lat="44.8413683" lon="9.5184517"><ele>201.0</ele><time>2026-04-04T11:24:54.19Z</time></trkpt><trkpt lat="44.8412817" lon="9.5183767"><ele>206.99999999999997</ele><time>2026-04-04T11:24:55.189Z</time></trkpt><trkpt lat="44.8412183" lon="9.5183"><ele>213.0</ele><time>2026-04-04T11:24:56.189Z</time></trkpt><trkpt lat="44.8411567" lon="9.518215"><ele>219.0</ele><time>2026-04-04T11:24:57.189Z</time></trkpt><trkpt lat="44.8410983" lon="9.5181083"><ele>219.0</ele><time>2026-04-04T11:24:58.188Z</time></trkpt><trkpt lat="44.8410533" lon="9.5179783"><ele>218.99999999999997</ele><time>2026-04-04T11:24:59.188Z</time></trkpt><trkpt lat="44.84101" lon="9.5178567"><ele>218.99999999999997</ele><time>2026-04-04T11:25:00.188Z</time></trkpt><trkpt lat="44.8409717" lon="9.5177217"><ele>219.0</ele><time>2026-04-04T11:25:01.188Z</time></trkpt><trkpt lat="44.8409167" lon="9.5175983"><ele>219.0</ele><time>2026-04-04T11:25:02.19Z</time></trkpt><trkpt lat="44.8408483" lon="9.5174983"><ele>218.75</ele><time>2026-04-04T11:25:03.189Z</time></trkpt><trkpt lat="44.84076" lon="9.5173983"><ele>218.5</ele><time>2026-04-04T11:25:04.188Z</time></trkpt><trkpt lat="44.8406683" lon="9.5172967"><ele>218.25</ele><time>2026-04-04T11:25:05.19Z</time></trkpt><trkpt lat="44.8405767" lon="9.5172033"><ele>218.0</ele><time>2026-04-04T11:25:06.189Z</time></trkpt><trkpt lat="44.8404917" lon="9.51711"><ele>216.60000000000002</ele><time>2026-04-04T11:25:07.19Z</time></trkpt><trkpt lat="44.8404017" lon="9.5170217"><ele>215.20000000000002</ele><time>2026-04-04T11:25:08.189Z</time></trkpt><trkpt lat="44.8403183" lon="9.5169517"><ele>213.8</ele><time>2026-04-04T11:25:09.189Z</time></trkpt><trkpt lat="44.8402333" lon="9.5168967"><ele>212.4</ele><time>2026-04-04T11:25:10.188Z</time></trkpt><trkpt lat="44.840165" lon="9.51684"><ele>211.0</ele><time>2026-04-04T11:25:11.188Z</time></trkpt><trkpt lat="44.8401067" lon="9.51677"><ele>211.0</ele><time>2026-04-04T11:25:12.188Z</time></trkpt><trkpt lat="44.84005" lon="9.5166717"><ele>211.0</ele><time>2026-04-04T11:25:13.191Z</time></trkpt><trkpt lat="44.8399883" lon="9.51655"><ele>211.0</ele><time>2026-04-04T11:25:14.188Z</time></trkpt><trkpt lat="44.839925" lon="9.5163683"><ele>211.0</ele><time>2026-04-04T11:25:15.188Z</time></trkpt><trkpt lat="44.8398583" lon="9.5162267"><ele>215.5</ele><time>2026-04-04T11:25:16.188Z</time></trkpt><trkpt lat="44.8397917" lon="9.5160883"><ele>220.0</ele><time>2026-04-04T11:25:17.188Z</time></trkpt><trkpt lat="44.8397133" lon="9.5159567"><ele>224.5</ele><time>2026-04-04T11:25:18.188Z</time></trkpt><trkpt lat="44.839625" lon="9.5158183"><ele>229.0</ele><time>2026-04-04T11:25:19.191Z</time></trkpt><trkpt lat="44.8395533" lon="9.5157117"><ele>228.99999999999997</ele><time>2026-04-04T11:25:20.188Z</time></trkpt><trkpt lat="44.8395017" lon="9.5156133"><ele>229.0</ele><time>2026-04-04T11:25:21.189Z</time></trkpt><trkpt lat="44.83947" lon="9.515515"><ele>229.0</ele><time>2026-04-04T11:25:22.188Z</time></trkpt><trkpt lat="44.8394383" lon="9.515425"><ele>229.0</ele><time>2026-04-04T11:25:23.189Z</time></trkpt><trkpt lat="44.8394083" lon="9.515325"><ele>228.99999999999997</ele><time>2026-04-04T11:25:24.188Z</time></trkpt><trkpt lat="44.8393817" lon="9.5151983"><ele>229.0</ele><time>2026-04-04T11:25:25.188Z</time></trkpt><trkpt lat="44.839335" lon="9.5150883"><ele>225.0</ele><time>2026-04-04T11:25:26.188Z</time></trkpt><trkpt lat="44.8392867" lon="9.5149817"><ele>220.99999999999997</ele><time>2026-04-04T11:25:27.188Z</time></trkpt><trkpt lat="44.8392433" lon="9.51487"><ele>217.0</ele><time>2026-04-04T11:25:28.19Z</time></trkpt><trkpt lat="44.8392117" lon="9.5147467"><ele>213.0</ele><time>2026-04-04T11:25:29.189Z</time></trkpt><trkpt lat="44.8391933" lon="9.514625"><ele>209.0</ele><time>2026-04-04T11:25:30.188Z</time></trkpt><trkpt lat="44.8391883" lon="9.514495"><ele>209.00000000000003</ele><time>2026-04-04T11:25:31.188Z</time></trkpt><trkpt lat="44.8392167" lon="9.5143583"><ele>209.0</ele><time>2026-04-04T11:25:32.189Z</time></trkpt><trkpt lat="44.83925" lon="9.5142317"><ele>209.0</ele><time>2026-04-04T11:25:33.188Z</time></trkpt><trkpt lat="44.8392733" lon="9.5141033"><ele>209.0</ele><time>2026-04-04T11:25:34.19Z</time></trkpt><trkpt lat="44.83928" lon="9.5139883"><ele>209.00000000000003</ele><time>2026-04-04T11:25:35.188Z</time></trkpt><trkpt lat="44.83928" lon="9.51388"><ele>209.0</ele><time>2026-04-04T11:25:36.189Z</time></trkpt><trkpt lat="44.8392667" lon="9.5137767"><ele>209.0</ele><time>2026-04-04T11:25:37.191Z</time></trkpt><trkpt lat="44.8391667" lon="9.5137133"><ele>209.0</ele><time>2026-04-04T11:25:39.188Z</time></trkpt><trkpt lat="44.8390567" lon="9.51377"><ele>209.0</ele><time>2026-04-04T11:25:41.189Z</time></trkpt><trkpt lat="44.8389917" lon="9.5138517"><ele>209.0</ele><time>2026-04-04T11:25:42.191Z</time></trkpt><trkpt lat="44.83892" lon="9.5139533"><ele>209.0</ele><time>2026-04-04T11:25:43.189Z</time></trkpt><trkpt lat="44.8388483" lon="9.5140367"><ele>209.0</ele><time>2026-04-04T11:25:44.188Z</time></trkpt><trkpt lat="44.838765" lon="9.51409"><ele>209.0</ele><time>2026-04-04T11:25:45.188Z</time></trkpt><trkpt lat="44.8386733" lon="9.5141133"><ele>209.0</ele><time>2026-04-04T11:25:46.19Z</time></trkpt><trkpt lat="44.838575" lon="9.514105"><ele>209.0</ele><time>2026-04-04T11:25:47.189Z</time></trkpt><trkpt lat="44.8384583" lon="9.5140583"><ele>209.0</ele><time>2026-04-04T11:25:48.188Z</time></trkpt><trkpt lat="44.83834" lon="9.51401"><ele>207.5</ele><time>2026-04-04T11:25:49.189Z</time></trkpt><trkpt lat="44.8382233" lon="9.51396"><ele>206.0</ele><time>2026-04-04T11:25:50.189Z</time></trkpt><trkpt lat="44.8381133" lon="9.5139183"><ele>204.5</ele><time>2026-04-04T11:25:51.188Z</time></trkpt><trkpt lat="44.8380117" lon="9.513875"><ele>203.0</ele><time>2026-04-04T11:25:52.188Z</time></trkpt><trkpt lat="44.83791" lon="9.5138183"><ele>206.0</ele><time>2026-04-04T11:25:53.189Z</time></trkpt><trkpt lat="44.8378083" lon="9.5137317"><ele>209.0</ele><time>2026-04-04T11:25:54.188Z</time></trkpt><trkpt lat="44.8377083" lon="9.5136317"><ele>212.0</ele><time>2026-04-04T11:25:55.189Z</time></trkpt><trkpt lat="44.8376167" lon="9.5135333"><ele>215.0</ele><time>2026-04-04T11:25:56.189Z</time></trkpt><trkpt lat="44.8375317" lon="9.5134517"><ele>215.0</ele><time>2026-04-04T11:25:57.189Z</time></trkpt><trkpt lat="44.8374467" lon="9.5133967"><ele>215.0</ele><time>2026-04-04T11:25:58.189Z</time></trkpt><trkpt lat="44.8373633" lon="9.5133733"><ele>215.0</ele><time>2026-04-04T11:25:59.188Z</time></trkpt><trkpt lat="44.8372767" lon="9.51337"><ele>215.0</ele><time>2026-04-04T11:26:00.188Z</time></trkpt><trkpt lat="44.8371783" lon="9.5133617"><ele>215.0</ele><time>2026-04-04T11:26:01.189Z</time></trkpt><trkpt lat="44.8370683" lon="9.5133433"><ele>215.0</ele><time>2026-04-04T11:26:02.189Z</time></trkpt><trkpt lat="44.8369533" lon="9.51332"><ele>215.0</ele><time>2026-04-04T11:26:03.188Z</time></trkpt><trkpt lat="44.8368383" lon="9.5132983"><ele>215.0</ele><time>2026-04-04T11:26:04.188Z</time></trkpt><trkpt lat="44.8367233" lon="9.5132833"><ele>215.0</ele><time>2026-04-04T11:26:05.187Z</time></trkpt><trkpt lat="44.8366117" lon="9.513265"><ele>214.4</ele><time>2026-04-04T11:26:06.189Z</time></trkpt><trkpt lat="44.836505" lon="9.513245"><ele>213.8</ele><time>2026-04-04T11:26:07.188Z</time></trkpt><trkpt lat="44.8363983" lon="9.5132183"><ele>213.2</ele><time>2026-04-04T11:26:08.188Z</time></trkpt><trkpt lat="44.8362883" lon="9.513195"><ele>212.6</ele><time>2026-04-04T11:26:09.187Z</time></trkpt><trkpt lat="44.8361817" lon="9.5131683"><ele>212.0</ele><time>2026-04-04T11:26:10.187Z</time></trkpt><trkpt lat="44.8360633" lon="9.5131383"><ele>210.75</ele><time>2026-04-04T11:26:11.188Z</time></trkpt><trkpt lat="44.83595" lon="9.5131083"><ele>209.5</ele><time>2026-04-04T11:26:12.187Z</time></trkpt><trkpt lat="44.8358367" lon="9.5130833"><ele>208.25</ele><time>2026-04-04T11:26:13.188Z</time></trkpt><trkpt lat="44.83572" lon="9.5130583"><ele>207.0</ele><time>2026-04-04T11:26:14.189Z</time></trkpt><trkpt lat="44.8356033" lon="9.5130317"><ele>207.0</ele><time>2026-04-04T11:26:15.187Z</time></trkpt><trkpt lat="44.83549" lon="9.5130033"><ele>207.0</ele><time>2026-04-04T11:26:16.189Z</time></trkpt><trkpt lat="44.8353867" lon="9.5129617"><ele>207.0</ele><time>2026-04-04T11:26:17.188Z</time></trkpt><trkpt lat="44.8352817" lon="9.5128983"><ele>207.0</ele><time>2026-04-04T11:26:18.188Z</time></trkpt><trkpt lat="44.8351733" lon="9.512815"><ele>208.5</ele><time>2026-04-04T11:26:19.188Z</time></trkpt><trkpt lat="44.83507" lon="9.5127233"><ele>210.0</ele><time>2026-04-04T11:26:20.19Z</time></trkpt><trkpt lat="44.8349717" lon="9.5126217"><ele>211.5</ele><time>2026-04-04T11:26:21.189Z</time></trkpt><trkpt lat="44.8348817" lon="9.5125117"><ele>213.0</ele><time>2026-04-04T11:26:22.187Z</time></trkpt><trkpt lat="44.8347933" lon="9.5123983"><ele>213.0</ele><time>2026-04-04T11:26:23.187Z</time></trkpt><trkpt lat="44.8347017" lon="9.512285"><ele>213.0</ele><time>2026-04-04T11:26:24.187Z</time></trkpt><trkpt lat="44.8346117" lon="9.512175"><ele>213.0</ele><time>2026-04-04T11:26:25.19Z</time></trkpt><trkpt lat="44.8345233" lon="9.5120683"><ele>213.0</ele><time>2026-04-04T11:26:26.187Z</time></trkpt><trkpt lat="44.8344433" lon="9.51196"><ele>212.2</ele><time>2026-04-04T11:26:27.188Z</time></trkpt><trkpt lat="44.8343717" lon="9.5118383"><ele>211.4</ele><time>2026-04-04T11:26:28.19Z</time></trkpt><trkpt lat="44.8343167" lon="9.5117067"><ele>210.6</ele><time>2026-04-04T11:26:29.189Z</time></trkpt><trkpt lat="44.8342733" lon="9.5115783"><ele>209.79999999999998</ele><time>2026-04-04T11:26:30.19Z</time></trkpt><trkpt lat="44.8342483" lon="9.511455"><ele>209.0</ele><time>2026-04-04T11:26:31.189Z</time></trkpt><trkpt lat="44.834235" lon="9.5113417"><ele>209.83333333333334</ele><time>2026-04-04T11:26:32.19Z</time></trkpt><trkpt lat="44.8342283" lon="9.5112267"><ele>210.66666666666669</ele><time>2026-04-04T11:26:33.19Z</time></trkpt><trkpt lat="44.83422" lon="9.51111"><ele>211.5</ele><time>2026-04-04T11:26:34.19Z</time></trkpt><trkpt lat="44.8342" lon="9.5109883"><ele>212.33333333333331</ele><time>2026-04-04T11:26:35.19Z</time></trkpt><trkpt lat="44.8341633" lon="9.5108683"><ele>213.16666666666666</ele><time>2026-04-04T11:26:36.19Z</time></trkpt><trkpt lat="44.83411" lon="9.51076"><ele>214.0</ele><time>2026-04-04T11:26:37.189Z</time></trkpt><trkpt lat="44.8340383" lon="9.5106683"><ele>213.99999999999997</ele><time>2026-04-04T11:26:38.19Z</time></trkpt><trkpt lat="44.83394" lon="9.5106267"><ele>214.0</ele><time>2026-04-04T11:26:39.189Z</time></trkpt><trkpt lat="44.8338467" lon="9.510605"><ele>214.0</ele><time>2026-04-04T11:26:40.188Z</time></trkpt><trkpt lat="44.8337583" lon="9.51059"><ele>214.0</ele><time>2026-04-04T11:26:41.188Z</time></trkpt><trkpt lat="44.8336833" lon="9.5105667"><ele>213.99999999999997</ele><time>2026-04-04T11:26:42.187Z</time></trkpt><trkpt lat="44.83361" lon="9.5105233"><ele>214.0</ele><time>2026-04-04T11:26:43.187Z</time></trkpt><trkpt lat="44.83354" lon="9.51045"><ele>213.75</ele><time>2026-04-04T11:26:44.19Z</time></trkpt><trkpt lat="44.8334683" lon="9.5103417"><ele>213.5</ele><time>2026-04-04T11:26:45.189Z</time></trkpt><trkpt lat="44.833395" lon="9.5102017"><ele>213.25</ele><time>2026-04-04T11:26:46.188Z</time></trkpt><trkpt lat="44.8333233" lon="9.5100467"><ele>213.0</ele><time>2026-04-04T11:26:47.188Z</time></trkpt><trkpt lat="44.8332583" lon="9.5099033"><ele>213.0</ele><time>2026-04-04T11:26:48.187Z</time></trkpt><trkpt lat="44.8332117" lon="9.509785"><ele>213.0</ele><time>2026-04-04T11:26:49.188Z</time></trkpt><trkpt lat="44.8331883" lon="9.5096733"><ele>213.0</ele><time>2026-04-04T11:26:50.188Z</time></trkpt><trkpt lat="44.8331883" lon="9.5095633"><ele>213.0</ele><time>2026-04-04T11:26:51.188Z</time></trkpt><trkpt lat="44.833205" lon="9.509455"><ele>213.0</ele><time>2026-04-04T11:26:52.187Z</time></trkpt><trkpt lat="44.8332383" lon="9.5093383"><ele>213.0</ele><time>2026-04-04T11:26:53.187Z</time></trkpt><trkpt lat="44.8332683" lon="9.5092233"><ele>214.60000000000002</ele><time>2026-04-04T11:26:54.187Z</time></trkpt><trkpt lat="44.83329" lon="9.5091017"><ele>216.20000000000002</ele><time>2026-04-04T11:26:55.187Z</time></trkpt><trkpt lat="44.833285" lon="9.5089717"><ele>217.8</ele><time>2026-04-04T11:26:56.187Z</time></trkpt><trkpt lat="44.8332517" lon="9.50883"><ele>219.4</ele><time>2026-04-04T11:26:57.187Z</time></trkpt><trkpt lat="44.8331917" lon="9.5086967"><ele>221.0</ele><time>2026-04-04T11:26:58.188Z</time></trkpt><trkpt lat="44.8331133" lon="9.508565"><ele>223.66666666666669</ele><time>2026-04-04T11:26:59.188Z</time></trkpt><trkpt lat="44.8330133" lon="9.5084367"><ele>226.33333333333331</ele><time>2026-04-04T11:27:00.187Z</time></trkpt><trkpt lat="44.832885" lon="9.5083167"><ele>229.0</ele><time>2026-04-04T11:27:01.188Z</time></trkpt><trkpt lat="44.8327383" lon="9.5082083"><ele>225.66666666666666</ele><time>2026-04-04T11:27:02.189Z</time></trkpt><trkpt lat="44.8325883" lon="9.5081067"><ele>222.33333333333331</ele><time>2026-04-04T11:27:03.188Z</time></trkpt><trkpt lat="44.83245" lon="9.5080183"><ele>219.0</ele><time>2026-04-04T11:27:04.187Z</time></trkpt><trkpt lat="44.83232" lon="9.5079283"><ele>223.25</ele><time>2026-04-04T11:27:05.188Z</time></trkpt><trkpt lat="44.8322" lon="9.5078333"><ele>227.5</ele><time>2026-04-04T11:27:06.189Z</time></trkpt><trkpt lat="44.8320867" lon="9.5077333"><ele>231.75</ele><time>2026-04-04T11:27:07.189Z</time></trkpt><trkpt lat="44.83198" lon="9.507635"><ele>236.0</ele><time>2026-04-04T11:27:08.189Z</time></trkpt><trkpt lat="44.8318867" lon="9.5075433"><ele>233.60000000000002</ele><time>2026-04-04T11:27:09.189Z</time></trkpt><trkpt lat="44.8318" lon="9.5074633"><ele>231.20000000000002</ele><time>2026-04-04T11:27:10.187Z</time></trkpt><trkpt lat="44.8317267" lon="9.5073917"><ele>228.79999999999998</ele><time>2026-04-04T11:27:11.188Z</time></trkpt><trkpt lat="44.831665" lon="9.5073267"><ele>226.39999999999998</ele><time>2026-04-04T11:27:12.188Z</time></trkpt><trkpt lat="44.8316117" lon="9.5072583"><ele>224.0</ele><time>2026-04-04T11:27:13.187Z</time></trkpt><trkpt lat="44.831555" lon="9.5071067"><ele>226.16666666666669</ele><time>2026-04-04T11:27:15.188Z</time></trkpt><trkpt lat="44.831535" lon="9.5070117"><ele>228.33333333333334</ele><time>2026-04-04T11:27:16.187Z</time></trkpt><trkpt lat="44.83152" lon="9.5068983"><ele>230.5</ele><time>2026-04-04T11:27:17.189Z</time></trkpt><trkpt lat="44.8315083" lon="9.50678"><ele>232.66666666666669</ele><time>2026-04-04T11:27:18.19Z</time></trkpt><trkpt lat="44.8314767" lon="9.50666"><ele>234.83333333333334</ele><time>2026-04-04T11:27:19.19Z</time></trkpt><trkpt lat="44.831415" lon="9.5065467"><ele>237.0</ele><time>2026-04-04T11:27:20.191Z</time></trkpt><trkpt lat="44.8313317" lon="9.5064467"><ele>237.0</ele><time>2026-04-04T11:27:21.187Z</time></trkpt><trkpt lat="44.8312467" lon="9.5063433"><ele>237.0</ele><time>2026-04-04T11:27:22.187Z</time></trkpt><trkpt lat="44.831165" lon="9.5062383"><ele>237.0</ele><time>2026-04-04T11:27:23.19Z</time></trkpt><trkpt lat="44.8311033" lon="9.506115"><ele>237.0</ele><time>2026-04-04T11:27:24.189Z</time></trkpt><trkpt lat="44.8310533" lon="9.505975"><ele>237.0</ele><time>2026-04-04T11:27:25.189Z</time></trkpt><trkpt lat="44.8310067" lon="9.5058167"><ele>237.5</ele><time>2026-04-04T11:27:26.189Z</time></trkpt><trkpt lat="44.8309517" lon="9.50566"><ele>238.0</ele><time>2026-04-04T11:27:27.188Z</time></trkpt><trkpt lat="44.8308883" lon="9.5055033"><ele>238.5</ele><time>2026-04-04T11:27:28.187Z</time></trkpt><trkpt lat="44.830825" lon="9.5053417"><ele>239.0</ele><time>2026-04-04T11:27:29.19Z</time></trkpt><trkpt lat="44.8307717" lon="9.505175"><ele>239.0</ele><time>2026-04-04T11:27:30.19Z</time></trkpt><trkpt lat="44.8307283" lon="9.505"><ele>239.0</ele><time>2026-04-04T11:27:31.189Z</time></trkpt><trkpt lat="44.8306967" lon="9.5048183"><ele>239.0</ele><time>2026-04-04T11:27:32.19Z</time></trkpt><trkpt lat="44.8306717" lon="9.5046267"><ele>239.0</ele><time>2026-04-04T11:27:33.188Z</time></trkpt><trkpt lat="44.8306467" lon="9.5044317"><ele>241.33333333333334</ele><time>2026-04-04T11:27:34.188Z</time></trkpt><trkpt lat="44.830615" lon="9.504225"><ele>243.66666666666669</ele><time>2026-04-04T11:27:35.19Z</time></trkpt><trkpt lat="44.830575" lon="9.504015"><ele>246.0</ele><time>2026-04-04T11:27:36.189Z</time></trkpt><trkpt lat="44.8305267" lon="9.5038033"><ele>249.66666666666669</ele><time>2026-04-04T11:27:37.191Z</time></trkpt><trkpt lat="44.8304717" lon="9.5035983"><ele>253.33333333333334</ele><time>2026-04-04T11:27:38.191Z</time></trkpt><trkpt lat="44.830415" lon="9.5033883"><ele>257.0</ele><time>2026-04-04T11:27:39.19Z</time></trkpt><trkpt lat="44.83036" lon="9.5031817"><ele>257.0</ele><time>2026-04-04T11:27:40.189Z</time></trkpt><trkpt lat="44.83031" lon="9.5029767"><ele>257.0</ele><time>2026-04-04T11:27:41.189Z</time></trkpt><trkpt lat="44.83026" lon="9.5027833"><ele>257.0</ele><time>2026-04-04T11:27:42.19Z</time></trkpt><trkpt lat="44.8302133" lon="9.50261"><ele>257.0</ele><time>2026-04-04T11:27:43.189Z</time></trkpt><trkpt lat="44.8301783" lon="9.502465"><ele>259.0</ele><time>2026-04-04T11:27:44.191Z</time></trkpt><trkpt lat="44.83015" lon="9.5023483"><ele>261.0</ele><time>2026-04-04T11:27:45.187Z</time></trkpt><trkpt lat="44.8301417" lon="9.502235"><ele>263.0</ele><time>2026-04-04T11:27:46.188Z</time></trkpt><trkpt lat="44.8301583" lon="9.502115"><ele>265.0</ele><time>2026-04-04T11:27:47.188Z</time></trkpt><trkpt lat="44.8301883" lon="9.5019883"><ele>267.0</ele><time>2026-04-04T11:27:48.188Z</time></trkpt><trkpt lat="44.8301967" lon="9.5018233"><ele>268.5</ele><time>2026-04-04T11:27:49.188Z</time></trkpt><trkpt lat="44.8302" lon="9.5016417"><ele>270.0</ele><time>2026-04-04T11:27:50.188Z</time></trkpt><trkpt lat="44.83022" lon="9.5014533"><ele>271.5</ele><time>2026-04-04T11:27:51.187Z</time></trkpt><trkpt lat="44.8302617" lon="9.5012717"><ele>273.0</ele><time>2026-04-04T11:27:52.189Z</time></trkpt><trkpt lat="44.8303133" lon="9.5011083"><ele>273.4</ele><time>2026-04-04T11:27:53.188Z</time></trkpt><trkpt lat="44.8303567" lon="9.50099"><ele>273.8</ele><time>2026-04-04T11:27:54.188Z</time></trkpt><trkpt lat="44.8303833" lon="9.5009"><ele>274.2</ele><time>2026-04-04T11:27:55.188Z</time></trkpt><trkpt lat="44.8303883" lon="9.50077"><ele>274.6</ele><time>2026-04-04T11:27:57.188Z</time></trkpt><trkpt lat="44.830285" lon="9.5007517"><ele>275.0</ele><time>2026-04-04T11:27:59.187Z</time></trkpt><trkpt lat="44.8301233" lon="9.5009117"><ele>272.0</ele><time>2026-04-04T11:28:01.188Z</time></trkpt><trkpt lat="44.83" lon="9.5010367"><ele>269.0</ele><time>2026-04-04T11:28:02.188Z</time></trkpt><trkpt lat="44.8298917" lon="9.50115"><ele>266.0</ele><time>2026-04-04T11:28:03.187Z</time></trkpt><trkpt lat="44.8297917" lon="9.5012667"><ele>263.0</ele><time>2026-04-04T11:28:04.188Z</time></trkpt><trkpt lat="44.8297" lon="9.5013917"><ele>261.2</ele><time>2026-04-04T11:28:05.188Z</time></trkpt><trkpt lat="44.8296183" lon="9.5015167"><ele>259.4</ele><time>2026-04-04T11:28:06.189Z</time></trkpt><trkpt lat="44.8295467" lon="9.5016267"><ele>257.59999999999997</ele><time>2026-04-04T11:28:07.188Z</time></trkpt><trkpt lat="44.8294783" lon="9.5017167"><ele>255.79999999999998</ele><time>2026-04-04T11:28:08.187Z</time></trkpt><trkpt lat="44.8294117" lon="9.5017733"><ele>254.0</ele><time>2026-04-04T11:28:09.187Z</time></trkpt><trkpt lat="44.8293433" lon="9.5018033"><ele>255.00000000000003</ele><time>2026-04-04T11:28:10.189Z</time></trkpt><trkpt lat="44.8292733" lon="9.501805"><ele>256.0</ele><time>2026-04-04T11:28:11.188Z</time></trkpt><trkpt lat="44.8291983" lon="9.50178"><ele>257.0</ele><time>2026-04-04T11:28:12.188Z</time></trkpt><trkpt lat="44.8291133" lon="9.501745"><ele>258.0</ele><time>2026-04-04T11:28:13.188Z</time></trkpt><trkpt lat="44.8290333" lon="9.5016983"><ele>259.0</ele><time>2026-04-04T11:28:14.188Z</time></trkpt><trkpt lat="44.8289517" lon="9.50165"><ele>260.0</ele><time>2026-04-04T11:28:15.188Z</time></trkpt><trkpt lat="44.8288667" lon="9.5015967"><ele>260.0</ele><time>2026-04-04T11:28:16.188Z</time></trkpt><trkpt lat="44.828775" lon="9.5015267"><ele>260.0</ele><time>2026-04-04T11:28:17.188Z</time></trkpt><trkpt lat="44.8286717" lon="9.5014383"><ele>260.0</ele><time>2026-04-04T11:28:18.188Z</time></trkpt><trkpt lat="44.8285683" lon="9.5013467"><ele>260.0</ele><time>2026-04-04T11:28:19.189Z</time></trkpt><trkpt lat="44.82848" lon="9.501265"><ele>260.1666666666667</ele><time>2026-04-04T11:28:20.188Z</time></trkpt><trkpt lat="44.8284033" lon="9.5011933"><ele>260.33333333333337</ele><time>2026-04-04T11:28:21.189Z</time></trkpt><trkpt lat="44.8283417" lon="9.5011233"><ele>260.5</ele><time>2026-04-04T11:28:22.189Z</time></trkpt><trkpt lat="44.8283017" lon="9.50105"><ele>260.6666666666667</ele><time>2026-04-04T11:28:23.188Z</time></trkpt><trkpt lat="44.828285" lon="9.50096"><ele>260.8333333333333</ele><time>2026-04-04T11:28:24.189Z</time></trkpt><trkpt lat="44.82829" lon="9.5008633"><ele>261.0</ele><time>2026-04-04T11:28:25.189Z</time></trkpt><trkpt lat="44.8283183" lon="9.50075"><ele>261.0</ele><time>2026-04-04T11:28:26.189Z</time></trkpt><trkpt lat="44.8283783" lon="9.5006117"><ele>261.0</ele><time>2026-04-04T11:28:27.189Z</time></trkpt><trkpt lat="44.8284583" lon="9.500445"><ele>261.0</ele><time>2026-04-04T11:28:28.189Z</time></trkpt><trkpt lat="44.82855" lon="9.5002667"><ele>261.0</ele><time>2026-04-04T11:28:29.187Z</time></trkpt><trkpt lat="44.82865" lon="9.5000883"><ele>263.0</ele><time>2026-04-04T11:28:30.188Z</time></trkpt><trkpt lat="44.8287417" lon="9.4999167"><ele>265.0</ele><time>2026-04-04T11:28:31.187Z</time></trkpt><trkpt lat="44.8288167" lon="9.49977"><ele>267.0</ele><time>2026-04-04T11:28:32.187Z</time></trkpt><trkpt lat="44.8288883" lon="9.499625"><ele>269.0</ele><time>2026-04-04T11:28:33.187Z</time></trkpt><trkpt lat="44.82896" lon="9.4994883"><ele>269.0</ele><time>2026-04-04T11:28:34.188Z</time></trkpt><trkpt lat="44.8290417" lon="9.499345"><ele>269.0</ele><time>2026-04-04T11:28:35.188Z</time></trkpt><trkpt lat="44.8291333" lon="9.4992067"><ele>269.0</ele><time>2026-04-04T11:28:36.189Z</time></trkpt><trkpt lat="44.8292167" lon="9.499075"><ele>269.0</ele><time>2026-04-04T11:28:37.189Z</time></trkpt><trkpt lat="44.8292867" lon="9.4989533"><ele>270.4</ele><time>2026-04-04T11:28:38.189Z</time></trkpt><trkpt lat="44.8293533" lon="9.49885"><ele>271.79999999999995</ele><time>2026-04-04T11:28:39.19Z</time></trkpt><trkpt lat="44.8294283" lon="9.498765"><ele>273.20000000000005</ele><time>2026-04-04T11:28:40.188Z</time></trkpt><trkpt lat="44.82951" lon="9.49869"><ele>274.6</ele><time>2026-04-04T11:28:41.187Z</time></trkpt><trkpt lat="44.8295917" lon="9.4986233"><ele>276.0</ele><time>2026-04-04T11:28:42.188Z</time></trkpt><trkpt lat="44.82967" lon="9.49857"><ele>276.0</ele><time>2026-04-04T11:28:43.188Z</time></trkpt><trkpt lat="44.8297333" lon="9.49852"><ele>276.0</ele><time>2026-04-04T11:28:44.193Z</time></trkpt><trkpt lat="44.829785" lon="9.4984667"><ele>276.0</ele><time>2026-04-04T11:28:45.187Z</time></trkpt><trkpt lat="44.82983" lon="9.4983533"><ele>276.0</ele><time>2026-04-04T11:28:47.189Z</time></trkpt><trkpt lat="44.82976" lon="9.4982783"><ele>276.0</ele><time>2026-04-04T11:28:49.189Z</time></trkpt><trkpt lat="44.8296817" lon="9.4982633"><ele>276.0</ele><time>2026-04-04T11:28:50.19Z</time></trkpt><trkpt lat="44.8295817" lon="9.4982433"><ele>276.0</ele><time>2026-04-04T11:28:51.189Z</time></trkpt><trkpt lat="44.8294783" lon="9.4982117"><ele>276.0</ele><time>2026-04-04T11:28:52.189Z</time></trkpt><trkpt lat="44.8293833" lon="9.49817"><ele>276.0</ele><time>2026-04-04T11:28:53.19Z</time></trkpt><trkpt lat="44.8293033" lon="9.4981283"><ele>276.0</ele><time>2026-04-04T11:28:54.189Z</time></trkpt><trkpt lat="44.82921" lon="9.4980633"><ele>276.0</ele><time>2026-04-04T11:28:56.19Z</time></trkpt><trkpt lat="44.8291367" lon="9.49807"><ele>275.1666666666667</ele><time>2026-04-04T11:28:59.19Z</time></trkpt><trkpt lat="44.8290333" lon="9.4981367"><ele>274.3333333333333</ele><time>2026-04-04T11:29:01.19Z</time></trkpt><trkpt lat="44.8289617" lon="9.4981683"><ele>273.5</ele><time>2026-04-04T11:29:02.188Z</time></trkpt><trkpt lat="44.8288883" lon="9.4982067"><ele>272.66666666666663</ele><time>2026-04-04T11:29:03.188Z</time></trkpt><trkpt lat="44.8288117" lon="9.49823"><ele>271.8333333333333</ele><time>2026-04-04T11:29:04.189Z</time></trkpt><trkpt lat="44.828735" lon="9.4982217"><ele>271.0</ele><time>2026-04-04T11:29:05.187Z</time></trkpt><trkpt lat="44.82866" lon="9.4981883"><ele>271.0</ele><time>2026-04-04T11:29:06.189Z</time></trkpt><trkpt lat="44.8285733" lon="9.4981183"><ele>271.0</ele><time>2026-04-04T11:29:07.187Z</time></trkpt><trkpt lat="44.8284917" lon="9.4980567"><ele>271.0</ele><time>2026-04-04T11:29:08.188Z</time></trkpt><trkpt lat="44.8284267" lon="9.497995"><ele>271.0</ele><time>2026-04-04T11:29:09.188Z</time></trkpt><trkpt lat="44.8283617" lon="9.4979283"><ele>271.0</ele><time>2026-04-04T11:29:10.189Z</time></trkpt><trkpt lat="44.82831" lon="9.497835"><ele>271.0</ele><time>2026-04-04T11:29:11.189Z</time></trkpt><trkpt lat="44.8282833" lon="9.4977217"><ele>270.2</ele><time>2026-04-04T11:29:12.189Z</time></trkpt><trkpt lat="44.8282617" lon="9.49757"><ele>269.40000000000003</ele><time>2026-04-04T11:29:13.188Z</time></trkpt><trkpt lat="44.8282433" lon="9.4974067"><ele>268.6</ele><time>2026-04-04T11:29:14.188Z</time></trkpt><trkpt lat="44.8282167" lon="9.49725"><ele>267.8</ele><time>2026-04-04T11:29:15.189Z</time></trkpt><trkpt lat="44.8281833" lon="9.4971333"><ele>267.0</ele><time>2026-04-04T11:29:16.189Z</time></trkpt><trkpt lat="44.8281467" lon="9.4970383"><ele>266.6</ele><time>2026-04-04T11:29:17.188Z</time></trkpt><trkpt lat="44.828105" lon="9.49697"><ele>266.2</ele><time>2026-04-04T11:29:18.189Z</time></trkpt><trkpt lat="44.8279833" lon="9.4969233"><ele>265.8</ele><time>2026-04-04T11:29:20.19Z</time></trkpt><trkpt lat="44.8278883" lon="9.496945"><ele>265.4</ele><time>2026-04-04T11:29:21.188Z</time></trkpt><trkpt lat="44.8277783" lon="9.4969833"><ele>265.0</ele><time>2026-04-04T11:29:22.189Z</time></trkpt><trkpt lat="44.82768" lon="9.4970167"><ele>262.8</ele><time>2026-04-04T11:29:23.19Z</time></trkpt><trkpt lat="44.82759" lon="9.4970517"><ele>260.6</ele><time>2026-04-04T11:29:24.188Z</time></trkpt><trkpt lat="44.8274333" lon="9.4971467"><ele>258.4</ele><time>2026-04-04T11:29:26.188Z</time></trkpt><trkpt lat="44.8273617" lon="9.4972283"><ele>256.2</ele><time>2026-04-04T11:29:27.187Z</time></trkpt><trkpt lat="44.8273017" lon="9.4973283"><ele>254.0</ele><time>2026-04-04T11:29:28.188Z</time></trkpt><trkpt lat="44.8272383" lon="9.49743"><ele>254.0</ele><time>2026-04-04T11:29:29.188Z</time></trkpt><trkpt lat="44.82717" lon="9.497515"><ele>253.99999999999997</ele><time>2026-04-04T11:29:30.189Z</time></trkpt><trkpt lat="44.8271" lon="9.49758"><ele>253.99999999999997</ele><time>2026-04-04T11:29:31.188Z</time></trkpt><trkpt lat="44.8270117" lon="9.4976267"><ele>254.0</ele><time>2026-04-04T11:29:32.189Z</time></trkpt><trkpt lat="44.8269033" lon="9.497665"><ele>254.0</ele><time>2026-04-04T11:29:33.189Z</time></trkpt><trkpt lat="44.826795" lon="9.497715"><ele>252.25</ele><time>2026-04-04T11:29:34.187Z</time></trkpt><trkpt lat="44.8266817" lon="9.4977933"><ele>250.5</ele><time>2026-04-04T11:29:35.189Z</time></trkpt><trkpt lat="44.8265733" lon="9.4978883"><ele>248.75</ele><time>2026-04-04T11:29:36.189Z</time></trkpt><trkpt lat="44.8264633" lon="9.497975"><ele>247.0</ele><time>2026-04-04T11:29:37.187Z</time></trkpt><trkpt lat="44.8263617" lon="9.4980533"><ele>247.0</ele><time>2026-04-04T11:29:38.188Z</time></trkpt><trkpt lat="44.8262667" lon="9.4981167"><ele>247.0</ele><time>2026-04-04T11:29:39.188Z</time></trkpt><trkpt lat="44.8261783" lon="9.49816"><ele>247.0</ele><time>2026-04-04T11:29:40.188Z</time></trkpt><trkpt lat="44.8260883" lon="9.4981833"><ele>247.0</ele><time>2026-04-04T11:29:41.188Z</time></trkpt><trkpt lat="44.8259983" lon="9.498185"><ele>247.0</ele><time>2026-04-04T11:29:42.188Z</time></trkpt><trkpt lat="44.8259067" lon="9.4981583"><ele>242.33333333333331</ele><time>2026-04-04T11:29:43.188Z</time></trkpt><trkpt lat="44.8258033" lon="9.49811"><ele>237.66666666666669</ele><time>2026-04-04T11:29:44.188Z</time></trkpt><trkpt lat="44.8256983" lon="9.49805"><ele>233.0</ele><time>2026-04-04T11:29:45.189Z</time></trkpt><trkpt lat="44.825495" lon="9.4979"><ele>232.4</ele><time>2026-04-04T11:29:47.188Z</time></trkpt><trkpt lat="44.8254033" lon="9.4978317"><ele>231.8</ele><time>2026-04-04T11:29:48.189Z</time></trkpt><trkpt lat="44.8253217" lon="9.497765"><ele>231.2</ele><time>2026-04-04T11:29:49.188Z</time></trkpt><trkpt lat="44.8252433" lon="9.4977017"><ele>230.6</ele><time>2026-04-04T11:29:50.188Z</time></trkpt><trkpt lat="44.8251767" lon="9.4976367"><ele>230.0</ele><time>2026-04-04T11:29:51.188Z</time></trkpt><trkpt lat="44.8251217" lon="9.4975533"><ele>226.8</ele><time>2026-04-04T11:29:52.188Z</time></trkpt><trkpt lat="44.825095" lon="9.4974617"><ele>223.6</ele><time>2026-04-04T11:29:53.188Z</time></trkpt><trkpt lat="44.82507" lon="9.4973"><ele>220.39999999999998</ele><time>2026-04-04T11:29:55.187Z</time></trkpt><trkpt lat="44.825" lon="9.49721"><ele>217.2</ele><time>2026-04-04T11:29:57.189Z</time></trkpt><trkpt lat="44.824885" lon="9.4972467"><ele>214.0</ele><time>2026-04-04T11:29:59.188Z</time></trkpt><trkpt lat="44.8247967" lon="9.49731"><ele>213.99999999999997</ele><time>2026-04-04T11:30:01.188Z</time></trkpt><trkpt lat="44.82473" lon="9.49742"><ele>214.0</ele><time>2026-04-04T11:30:03.188Z</time></trkpt><trkpt lat="44.824705" lon="9.497585"><ele>214.0</ele><time>2026-04-04T11:30:05.188Z</time></trkpt><trkpt lat="44.82471" lon="9.4976767"><ele>214.0</ele><time>2026-04-04T11:30:06.188Z</time></trkpt><trkpt lat="44.8247133" lon="9.49778"><ele>213.99999999999997</ele><time>2026-04-04T11:30:07.189Z</time></trkpt><trkpt lat="44.82471" lon="9.497885"><ele>214.0</ele><time>2026-04-04T11:30:08.189Z</time></trkpt><trkpt lat="44.8247083" lon="9.4979983"><ele>213.49999999999997</ele><time>2026-04-04T11:30:09.188Z</time></trkpt><trkpt lat="44.8247067" lon="9.4981117"><ele>213.0</ele><time>2026-04-04T11:30:10.188Z</time></trkpt><trkpt lat="44.8247" lon="9.4982267"><ele>212.5</ele><time>2026-04-04T11:30:11.187Z</time></trkpt><trkpt lat="44.8246883" lon="9.498345"><ele>212.0</ele><time>2026-04-04T11:30:12.188Z</time></trkpt><trkpt lat="44.82468" lon="9.49846"><ele>211.49999999999997</ele><time>2026-04-04T11:30:13.189Z</time></trkpt><trkpt lat="44.8246683" lon="9.4985817"><ele>211.0</ele><time>2026-04-04T11:30:14.189Z</time></trkpt><trkpt lat="44.8246633" lon="9.4987"><ele>210.66666666666666</ele><time>2026-04-04T11:30:15.189Z</time></trkpt><trkpt lat="44.8246583" lon="9.49882"><ele>210.33333333333331</ele><time>2026-04-04T11:30:16.187Z</time></trkpt><trkpt lat="44.8246583" lon="9.49893"><ele>210.0</ele><time>2026-04-04T11:30:17.19Z</time></trkpt><trkpt lat="44.8246617" lon="9.4990267"><ele>209.66666666666669</ele><time>2026-04-04T11:30:18.188Z</time></trkpt><trkpt lat="44.8246533" lon="9.49918"><ele>209.33333333333334</ele><time>2026-04-04T11:30:20.188Z</time></trkpt><trkpt lat="44.824595" lon="9.4992317"><ele>209.0</ele><time>2026-04-04T11:30:22.19Z</time></trkpt><trkpt lat="44.8245117" lon="9.4991617"><ele>209.0</ele><time>2026-04-04T11:30:24.188Z</time></trkpt><trkpt lat="44.8244467" lon="9.4990483"><ele>209.0</ele><time>2026-04-04T11:30:26.188Z</time></trkpt><trkpt lat="44.8243567" lon="9.4989367"><ele>209.0</ele><time>2026-04-04T11:30:28.188Z</time></trkpt><trkpt lat="44.8242233" lon="9.4989017"><ele>209.0</ele><time>2026-04-04T11:30:30.188Z</time></trkpt><trkpt lat="44.8241517" lon="9.4989117"><ele>209.0</ele><time>2026-04-04T11:30:31.188Z</time></trkpt><trkpt lat="44.8240733" lon="9.4989317"><ele>206.66666666666669</ele><time>2026-04-04T11:30:32.19Z</time></trkpt><trkpt lat="44.8239933" lon="9.4989583"><ele>204.33333333333334</ele><time>2026-04-04T11:30:33.189Z</time></trkpt><trkpt lat="44.8239183" lon="9.4989867"><ele>202.0</ele><time>2026-04-04T11:30:34.188Z</time></trkpt><trkpt lat="44.8238417" lon="9.4990133"><ele>199.66666666666669</ele><time>2026-04-04T11:30:35.188Z</time></trkpt><trkpt lat="44.8237667" lon="9.4990333"><ele>197.33333333333334</ele><time>2026-04-04T11:30:36.188Z</time></trkpt><trkpt lat="44.8236883" lon="9.4990383"><ele>195.0</ele><time>2026-04-04T11:30:37.189Z</time></trkpt><trkpt lat="44.823605" lon="9.49903"><ele>195.0</ele><time>2026-04-04T11:30:38.188Z</time></trkpt><trkpt lat="44.8235233" lon="9.4990117"><ele>195.0</ele><time>2026-04-04T11:30:39.188Z</time></trkpt><trkpt lat="44.8234417" lon="9.4989983"><ele>195.0</ele><time>2026-04-04T11:30:40.188Z</time></trkpt><trkpt lat="44.8233683" lon="9.4989883"><ele>195.0</ele><time>2026-04-04T11:30:41.188Z</time></trkpt><trkpt lat="44.82329" lon="9.4989833"><ele>195.0</ele><time>2026-04-04T11:30:42.188Z</time></trkpt><trkpt lat="44.82321" lon="9.4989783"><ele>195.0</ele><time>2026-04-04T11:30:43.189Z</time></trkpt><trkpt lat="44.8231333" lon="9.4989717"><ele>194.85714285714286</ele><time>2026-04-04T11:30:44.19Z</time></trkpt><trkpt lat="44.8230617" lon="9.49896"><ele>194.71428571428572</ele><time>2026-04-04T11:30:45.188Z</time></trkpt><trkpt lat="44.8229867" lon="9.49895"><ele>194.57142857142856</ele><time>2026-04-04T11:30:46.187Z</time></trkpt><trkpt lat="44.822915" lon="9.4989483"><ele>194.42857142857144</ele><time>2026-04-04T11:30:47.187Z</time></trkpt><trkpt lat="44.822845" lon="9.4989567"><ele>194.2857142857143</ele><time>2026-04-04T11:30:48.188Z</time></trkpt><trkpt lat="44.8227733" lon="9.498985"><ele>194.14285714285714</ele><time>2026-04-04T11:30:49.188Z</time></trkpt><trkpt lat="44.822705" lon="9.4990267"><ele>194.0</ele><time>2026-04-04T11:30:50.188Z</time></trkpt><trkpt lat="44.8226333" lon="9.4990733"><ele>193.66666666666669</ele><time>2026-04-04T11:30:51.187Z</time></trkpt><trkpt lat="44.8225617" lon="9.49912"><ele>193.33333333333334</ele><time>2026-04-04T11:30:52.188Z</time></trkpt><trkpt lat="44.8224983" lon="9.49916"><ele>193.0</ele><time>2026-04-04T11:30:53.187Z</time></trkpt><trkpt lat="44.82239" lon="9.49922"><ele>192.66666666666669</ele><time>2026-04-04T11:30:55.188Z</time></trkpt><trkpt lat="44.8223033" lon="9.4992533"><ele>192.33333333333334</ele><time>2026-04-04T11:30:57.188Z</time></trkpt><trkpt lat="44.8222317" lon="9.4992217"><ele>192.0</ele><time>2026-04-04T11:30:59.188Z</time></trkpt><trkpt lat="44.8221633" lon="9.499145"><ele>192.0</ele><time>2026-04-04T11:31:01.189Z</time></trkpt><trkpt lat="44.8220817" lon="9.4989983"><ele>192.0</ele><time>2026-04-04T11:31:03.189Z</time></trkpt><trkpt lat="44.82204" lon="9.4988967"><ele>192.0</ele><time>2026-04-04T11:31:04.188Z</time></trkpt><trkpt lat="44.821995" lon="9.4987867"><ele>192.0</ele><time>2026-04-04T11:31:05.189Z</time></trkpt><trkpt lat="44.821945" lon="9.498675"><ele>192.0</ele><time>2026-04-04T11:31:06.188Z</time></trkpt><trkpt lat="44.8218967" lon="9.498555"><ele>192.2</ele><time>2026-04-04T11:31:07.188Z</time></trkpt><trkpt lat="44.8218533" lon="9.4984333"><ele>192.39999999999998</ele><time>2026-04-04T11:31:08.188Z</time></trkpt><trkpt lat="44.82181" lon="9.4983067"><ele>192.60000000000002</ele><time>2026-04-04T11:31:09.188Z</time></trkpt><trkpt lat="44.82177" lon="9.49818"><ele>192.8</ele><time>2026-04-04T11:31:10.188Z</time></trkpt><trkpt lat="44.82173" lon="9.498055"><ele>193.0</ele><time>2026-04-04T11:31:11.189Z</time></trkpt><trkpt lat="44.8216983" lon="9.4979267"><ele>193.0</ele><time>2026-04-04T11:31:12.189Z</time></trkpt><trkpt lat="44.8216717" lon="9.497795"><ele>193.0</ele><time>2026-04-04T11:31:13.188Z</time></trkpt><trkpt lat="44.8216433" lon="9.497665"><ele>193.0</ele><time>2026-04-04T11:31:14.189Z</time></trkpt><trkpt lat="44.82161" lon="9.49754"><ele>193.0</ele><time>2026-04-04T11:31:15.188Z</time></trkpt><trkpt lat="44.82158" lon="9.4974033"><ele>193.0</ele><time>2026-04-04T11:31:16.188Z</time></trkpt><trkpt lat="44.8215517" lon="9.49727"><ele>193.0</ele><time>2026-04-04T11:31:17.188Z</time></trkpt><trkpt lat="44.8215317" lon="9.49714"><ele>193.0</ele><time>2026-04-04T11:31:18.188Z</time></trkpt><trkpt lat="44.821515" lon="9.497015"><ele>193.0</ele><time>2026-04-04T11:31:19.189Z</time></trkpt><trkpt lat="44.821495" lon="9.496895"><ele>193.0</ele><time>2026-04-04T11:31:20.188Z</time></trkpt><trkpt lat="44.8214783" lon="9.49677"><ele>193.0</ele><time>2026-04-04T11:31:21.188Z</time></trkpt><trkpt lat="44.82146" lon="9.496635"><ele>193.16666666666666</ele><time>2026-04-04T11:31:22.188Z</time></trkpt><trkpt lat="44.8214433" lon="9.4965083"><ele>193.33333333333331</ele><time>2026-04-04T11:31:23.188Z</time></trkpt><trkpt lat="44.82143" lon="9.4963817"><ele>193.5</ele><time>2026-04-04T11:31:24.189Z</time></trkpt><trkpt lat="44.8214283" lon="9.4962767"><ele>193.66666666666669</ele><time>2026-04-04T11:31:25.19Z</time></trkpt><trkpt lat="44.8214233" lon="9.496175"><ele>193.83333333333334</ele><time>2026-04-04T11:31:26.188Z</time></trkpt><trkpt lat="44.8214183" lon="9.4960683"><ele>194.0</ele><time>2026-04-04T11:31:27.188Z</time></trkpt><trkpt lat="44.8214133" lon="9.49597"><ele>194.0</ele><time>2026-04-04T11:31:28.188Z</time></trkpt><trkpt lat="44.8214117" lon="9.4958033"><ele>194.0</ele><time>2026-04-04T11:31:30.189Z</time></trkpt><trkpt lat="44.8214317" lon="9.4956767"><ele>194.0</ele><time>2026-04-04T11:31:32.189Z</time></trkpt><trkpt lat="44.8214817" lon="9.4955967"><ele>194.0</ele><time>2026-04-04T11:31:34.188Z</time></trkpt><trkpt lat="44.82155" lon="9.495605"><ele>194.0</ele><time>2026-04-04T11:31:36.189Z</time></trkpt><trkpt lat="44.8216233" lon="9.4957117"><ele>194.0</ele><time>2026-04-04T11:31:38.188Z</time></trkpt><trkpt lat="44.8216633" lon="9.4957867"><ele>194.0</ele><time>2026-04-04T11:31:39.189Z</time></trkpt><trkpt lat="44.8217033" lon="9.4958633"><ele>194.0</ele><time>2026-04-04T11:31:40.188Z</time></trkpt><trkpt lat="44.821745" lon="9.4959333"><ele>194.0</ele><time>2026-04-04T11:31:41.189Z</time></trkpt><trkpt lat="44.8218" lon="9.496055"><ele>194.0</ele><time>2026-04-04T11:31:43.188Z</time></trkpt><trkpt lat="44.8218133" lon="9.4961467"><ele>194.0</ele><time>2026-04-04T11:31:45.189Z</time></trkpt><trkpt lat="44.82178" lon="9.4962317"><ele>194.0</ele><time>2026-04-04T11:31:47.189Z</time></trkpt><trkpt lat="44.8216683" lon="9.496315"><ele>194.0</ele><time>2026-04-04T11:31:49.188Z</time></trkpt><trkpt lat="44.82158" lon="9.49637"><ele>194.0</ele><time>2026-04-04T11:31:50.188Z</time></trkpt><trkpt lat="44.8214817" lon="9.4964333"><ele>194.0</ele><time>2026-04-04T11:31:51.189Z</time></trkpt><trkpt lat="44.8213883" lon="9.4964967"><ele>194.0</ele><time>2026-04-04T11:31:52.193Z</time></trkpt><trkpt lat="44.8213017" lon="9.49656"><ele>194.0</ele><time>2026-04-04T11:31:53.187Z</time></trkpt><trkpt lat="44.8212183" lon="9.49662"><ele>194.0</ele><time>2026-04-04T11:31:54.188Z</time></trkpt><trkpt lat="44.821135" lon="9.4966767"><ele>194.0</ele><time>2026-04-04T11:31:55.188Z</time></trkpt><trkpt lat="44.8210483" lon="9.49673"><ele>194.0</ele><time>2026-04-04T11:31:56.188Z</time></trkpt><trkpt lat="44.8209583" lon="9.496785"><ele>194.0</ele><time>2026-04-04T11:31:57.188Z</time></trkpt><trkpt lat="44.82087" lon="9.4968417"><ele>194.0</ele><time>2026-04-04T11:31:58.188Z</time></trkpt><trkpt lat="44.8207783" lon="9.4969033"><ele>193.50000000000003</ele><time>2026-04-04T11:31:59.189Z</time></trkpt><trkpt lat="44.8206933" lon="9.4969617"><ele>193.0</ele><time>2026-04-04T11:32:00.189Z</time></trkpt><trkpt lat="44.8206117" lon="9.497015"><ele>192.5</ele><time>2026-04-04T11:32:01.188Z</time></trkpt><trkpt lat="44.8205383" lon="9.4970617"><ele>192.0</ele><time>2026-04-04T11:32:02.188Z</time></trkpt><trkpt lat="44.82047" lon="9.4971017"><ele>191.5</ele><time>2026-04-04T11:32:03.188Z</time></trkpt><trkpt lat="44.8204017" lon="9.4971367"><ele>191.0</ele><time>2026-04-04T11:32:04.187Z</time></trkpt><trkpt lat="44.8203367" lon="9.4971667"><ele>191.0</ele><time>2026-04-04T11:32:05.188Z</time></trkpt><trkpt lat="44.820275" lon="9.4971917"><ele>191.0</ele><time>2026-04-04T11:32:06.189Z</time></trkpt><trkpt lat="44.8201833" lon="9.4972417"><ele>191.0</ele><time>2026-04-04T11:32:08.188Z</time></trkpt><trkpt lat="44.8201483" lon="9.4973583"><ele>191.0</ele><time>2026-04-04T11:32:32.189Z</time></trkpt><trkpt lat="44.8201767" lon="9.4975617"><ele>191.0</ele><time>2026-04-04T11:32:34.189Z</time></trkpt><trkpt lat="44.8202083" lon="9.4976967"><ele>191.0</ele><time>2026-04-04T11:32:35.187Z</time></trkpt><trkpt lat="44.8202733" lon="9.497895"><ele>191.0</ele><time>2026-04-04T11:32:36.188Z</time></trkpt><trkpt lat="44.8203517" lon="9.498135"><ele>191.0</ele><time>2026-04-04T11:32:37.189Z</time></trkpt><trkpt lat="44.8204283" lon="9.498385"><ele>191.33333333333331</ele><time>2026-04-04T11:32:38.189Z</time></trkpt><trkpt lat="44.820505" lon="9.4986517"><ele>191.66666666666666</ele><time>2026-04-04T11:32:39.191Z</time></trkpt><trkpt lat="44.8205783" lon="9.4989167"><ele>192.0</ele><time>2026-04-04T11:32:40.188Z</time></trkpt><trkpt lat="44.82065" lon="9.4991867"><ele>192.33333333333331</ele><time>2026-04-04T11:32:41.188Z</time></trkpt><trkpt lat="44.8207217" lon="9.4994617"><ele>192.66666666666666</ele><time>2026-04-04T11:32:42.189Z</time></trkpt><trkpt lat="44.8207933" lon="9.49973"><ele>193.0</ele><time>2026-04-04T11:32:43.19Z</time></trkpt><trkpt lat="44.820865" lon="9.499985"><ele>193.0</ele><time>2026-04-04T11:32:44.19Z</time></trkpt><trkpt lat="44.82094" lon="9.500225"><ele>193.0</ele><time>2026-04-04T11:32:45.188Z</time></trkpt><trkpt lat="44.8210167" lon="9.5004483"><ele>193.0</ele><time>2026-04-04T11:32:46.188Z</time></trkpt><trkpt lat="44.821095" lon="9.50066"><ele>192.66666666666666</ele><time>2026-04-04T11:32:47.189Z</time></trkpt><trkpt lat="44.8211783" lon="9.5008617"><ele>192.33333333333331</ele><time>2026-04-04T11:32:48.187Z</time></trkpt><trkpt lat="44.8212633" lon="9.5010617"><ele>192.0</ele><time>2026-04-04T11:32:49.19Z</time></trkpt><trkpt lat="44.8213483" lon="9.5012633"><ele>192.0</ele><time>2026-04-04T11:32:50.188Z</time></trkpt><trkpt lat="44.8214383" lon="9.50145"><ele>192.0</ele><time>2026-04-04T11:32:51.188Z</time></trkpt><trkpt lat="44.8215283" lon="9.5016167"><ele>192.0</ele><time>2026-04-04T11:32:52.193Z</time></trkpt><trkpt lat="44.8216083" lon="9.5017633"><ele>192.0</ele><time>2026-04-04T11:32:53.188Z</time></trkpt><trkpt lat="44.8216667" lon="9.5018917"><ele>192.0</ele><time>2026-04-04T11:32:54.19Z</time></trkpt><trkpt lat="44.8217017" lon="9.502005"><ele>192.0</ele><time>2026-04-04T11:32:55.19Z</time></trkpt><trkpt lat="44.8217183" lon="9.50212"><ele>192.0</ele><time>2026-04-04T11:32:56.19Z</time></trkpt><trkpt lat="44.8217083" lon="9.5022383"><ele>192.0</ele><time>2026-04-04T11:32:57.189Z</time></trkpt><trkpt lat="44.8216683" lon="9.5023383"><ele>192.0</ele><time>2026-04-04T11:32:58.188Z</time></trkpt><trkpt lat="44.8215617" lon="9.5024217"><ele>192.66666666666669</ele><time>2026-04-04T11:32:59.19Z</time></trkpt><trkpt lat="44.821425" lon="9.502515"><ele>193.33333333333334</ele><time>2026-04-04T11:33:00.19Z</time></trkpt><trkpt lat="44.8212617" lon="9.50262"><ele>194.0</ele><time>2026-04-04T11:33:01.19Z</time></trkpt><trkpt lat="44.821065" lon="9.5027283"><ele>194.0</ele><time>2026-04-04T11:33:02.19Z</time></trkpt><trkpt lat="44.8208683" lon="9.5028367"><ele>194.0</ele><time>2026-04-04T11:33:03.189Z</time></trkpt><trkpt lat="44.82069" lon="9.5029483"><ele>194.0</ele><time>2026-04-04T11:33:04.189Z</time></trkpt><trkpt lat="44.8205383" lon="9.5030517"><ele>194.0</ele><time>2026-04-04T11:33:05.188Z</time></trkpt><trkpt lat="44.8204083" lon="9.503145"><ele>194.0</ele><time>2026-04-04T11:33:06.188Z</time></trkpt><trkpt lat="44.8202933" lon="9.5032317"><ele>194.0</ele><time>2026-04-04T11:33:07.188Z</time></trkpt><trkpt lat="44.8201983" lon="9.5033"><ele>194.0</ele><time>2026-04-04T11:33:08.188Z</time></trkpt><trkpt lat="44.82013" lon="9.5033467"><ele>196.0</ele><time>2026-04-04T11:33:09.187Z</time></trkpt><trkpt lat="44.8200433" lon="9.5033883"><ele>198.0</ele><time>2026-04-04T11:33:11.19Z</time></trkpt><trkpt lat="44.8199767" lon="9.5033217"><ele>200.0</ele><time>2026-04-04T11:33:25.189Z</time></trkpt><trkpt lat="44.8199267" lon="9.5032017"><ele>202.0</ele><time>2026-04-04T11:33:26.19Z</time></trkpt><trkpt lat="44.819855" lon="9.5030317"><ele>204.0</ele><time>2026-04-04T11:33:27.189Z</time></trkpt><trkpt lat="44.81979" lon="9.5028717"><ele>204.2</ele><time>2026-04-04T11:33:28.189Z</time></trkpt><trkpt lat="44.81973" lon="9.5027133"><ele>204.39999999999998</ele><time>2026-04-04T11:33:29.189Z</time></trkpt><trkpt lat="44.81969" lon="9.5025733"><ele>204.6</ele><time>2026-04-04T11:33:30.189Z</time></trkpt><trkpt lat="44.8196533" lon="9.5024533"><ele>204.8</ele><time>2026-04-04T11:33:31.189Z</time></trkpt><trkpt lat="44.8196333" lon="9.5023433"><ele>205.0</ele><time>2026-04-04T11:33:32.189Z</time></trkpt><trkpt lat="44.8196233" lon="9.502235"><ele>204.99999999999997</ele><time>2026-04-04T11:33:33.189Z</time></trkpt><trkpt lat="44.819625" lon="9.5021183"><ele>205.0</ele><time>2026-04-04T11:33:34.189Z</time></trkpt><trkpt lat="44.819645" lon="9.5020183"><ele>205.0</ele><time>2026-04-04T11:33:35.189Z</time></trkpt><trkpt lat="44.819685" lon="9.50192"><ele>205.0</ele><time>2026-04-04T11:33:36.189Z</time></trkpt><trkpt lat="44.8197283" lon="9.501845"><ele>204.99999999999997</ele><time>2026-04-04T11:33:37.189Z</time></trkpt><trkpt lat="44.8197817" lon="9.50178"><ele>205.0</ele><time>2026-04-04T11:33:38.19Z</time></trkpt><trkpt lat="44.8198417" lon="9.5017167"><ele>205.2</ele><time>2026-04-04T11:33:39.189Z</time></trkpt><trkpt lat="44.819905" lon="9.5016333"><ele>205.4</ele><time>2026-04-04T11:33:40.189Z</time></trkpt><trkpt lat="44.81996" lon="9.5015283"><ele>205.60000000000002</ele><time>2026-04-04T11:33:41.189Z</time></trkpt><trkpt lat="44.8200033" lon="9.5013883"><ele>205.8</ele><time>2026-04-04T11:33:42.189Z</time></trkpt><trkpt lat="44.8200417" lon="9.501235"><ele>206.0</ele><time>2026-04-04T11:33:43.188Z</time></trkpt><trkpt lat="44.82006" lon="9.5010667"><ele>208.33333333333334</ele><time>2026-04-04T11:33:44.189Z</time></trkpt><trkpt lat="44.8200783" lon="9.50087"><ele>210.66666666666669</ele><time>2026-04-04T11:33:45.19Z</time></trkpt><trkpt lat="44.820095" lon="9.5006083"><ele>213.0</ele><time>2026-04-04T11:33:46.188Z</time></trkpt><trkpt lat="44.820115" lon="9.5003117"><ele>214.0</ele><time>2026-04-04T11:33:47.19Z</time></trkpt><trkpt lat="44.8201317" lon="9.5000217"><ele>215.0</ele><time>2026-04-04T11:33:48.188Z</time></trkpt><trkpt lat="44.8201433" lon="9.49975"><ele>216.0</ele><time>2026-04-04T11:33:49.188Z</time></trkpt><trkpt lat="44.8201417" lon="9.4994933"><ele>216.0</ele><time>2026-04-04T11:33:50.188Z</time></trkpt><trkpt lat="44.8201217" lon="9.4992433"><ele>216.0</ele><time>2026-04-04T11:33:51.188Z</time></trkpt><trkpt lat="44.8200867" lon="9.4990067"><ele>216.0</ele><time>2026-04-04T11:33:52.188Z</time></trkpt><trkpt lat="44.8200483" lon="9.49879"><ele>215.25</ele><time>2026-04-04T11:33:53.191Z</time></trkpt><trkpt lat="44.8200033" lon="9.49861"><ele>214.5</ele><time>2026-04-04T11:33:54.19Z</time></trkpt><trkpt lat="44.8199383" lon="9.4984633"><ele>213.75</ele><time>2026-04-04T11:33:55.189Z</time></trkpt><trkpt lat="44.81985" lon="9.4983417"><ele>213.0</ele><time>2026-04-04T11:33:56.189Z</time></trkpt><trkpt lat="44.8197383" lon="9.4982433"><ele>213.0</ele><time>2026-04-04T11:33:57.188Z</time></trkpt><trkpt lat="44.8196267" lon="9.4981333"><ele>213.0</ele><time>2026-04-04T11:33:58.188Z</time></trkpt><trkpt lat="44.8195267" lon="9.4980033"><ele>213.0</ele><time>2026-04-04T11:33:59.188Z</time></trkpt><trkpt lat="44.819465" lon="9.4978483"><ele>213.0</ele><time>2026-04-04T11:34:00.188Z</time></trkpt><trkpt lat="44.8194433" lon="9.49766"><ele>210.75</ele><time>2026-04-04T11:34:01.188Z</time></trkpt><trkpt lat="44.8194433" lon="9.4974583"><ele>208.5</ele><time>2026-04-04T11:34:02.189Z</time></trkpt><trkpt lat="44.8194567" lon="9.4972567"><ele>206.25</ele><time>2026-04-04T11:34:03.188Z</time></trkpt><trkpt lat="44.8194367" lon="9.4970467"><ele>204.0</ele><time>2026-04-04T11:34:04.188Z</time></trkpt><trkpt lat="44.8193767" lon="9.496825"><ele>208.66666666666669</ele><time>2026-04-04T11:34:05.189Z</time></trkpt><trkpt lat="44.8192767" lon="9.4965683"><ele>213.33333333333334</ele><time>2026-04-04T11:34:06.189Z</time></trkpt><trkpt lat="44.81916" lon="9.49631"><ele>218.0</ele><time>2026-04-04T11:34:07.189Z</time></trkpt><trkpt lat="44.8190483" lon="9.49606"><ele>218.0</ele><time>2026-04-04T11:34:08.19Z</time></trkpt><trkpt lat="44.8189483" lon="9.495825"><ele>218.0</ele><time>2026-04-04T11:34:09.188Z</time></trkpt><trkpt lat="44.8188583" lon="9.4956167"><ele>218.0</ele><time>2026-04-04T11:34:10.188Z</time></trkpt><trkpt lat="44.8187517" lon="9.495435"><ele>215.0</ele><time>2026-04-04T11:34:11.189Z</time></trkpt><trkpt lat="44.8186117" lon="9.4952717"><ele>212.0</ele><time>2026-04-04T11:34:12.188Z</time></trkpt><trkpt lat="44.8184683" lon="9.4951183"><ele>209.0</ele><time>2026-04-04T11:34:13.189Z</time></trkpt><trkpt lat="44.8183617" lon="9.494975"><ele>212.5</ele><time>2026-04-04T11:34:14.191Z</time></trkpt><trkpt lat="44.8182917" lon="9.4948233"><ele>216.0</ele><time>2026-04-04T11:34:15.188Z</time></trkpt><trkpt lat="44.8182617" lon="9.4946433"><ele>219.5</ele><time>2026-04-04T11:34:16.188Z</time></trkpt><trkpt lat="44.8182533" lon="9.4944117"><ele>223.0</ele><time>2026-04-04T11:34:17.187Z</time></trkpt><trkpt lat="44.8182533" lon="9.494165"><ele>223.0</ele><time>2026-04-04T11:34:18.188Z</time></trkpt><trkpt lat="44.8182383" lon="9.493965"><ele>223.0</ele><time>2026-04-04T11:34:19.188Z</time></trkpt><trkpt lat="44.81819" lon="9.49379"><ele>223.0</ele><time>2026-04-04T11:34:20.191Z</time></trkpt><trkpt lat="44.8180983" lon="9.49364"><ele>223.0</ele><time>2026-04-04T11:34:21.193Z</time></trkpt><trkpt lat="44.8179967" lon="9.49353"><ele>224.25</ele><time>2026-04-04T11:34:22.189Z</time></trkpt><trkpt lat="44.81787" lon="9.49348"><ele>225.5</ele><time>2026-04-04T11:34:23.188Z</time></trkpt><trkpt lat="44.817725" lon="9.4934767"><ele>226.75</ele><time>2026-04-04T11:34:24.189Z</time></trkpt><trkpt lat="44.81756" lon="9.4934783"><ele>228.0</ele><time>2026-04-04T11:34:25.19Z</time></trkpt><trkpt lat="44.8173733" lon="9.49344"><ele>228.0</ele><time>2026-04-04T11:34:26.189Z</time></trkpt><trkpt lat="44.8171817" lon="9.4933617"><ele>228.0</ele><time>2026-04-04T11:34:27.188Z</time></trkpt><trkpt lat="44.8170267" lon="9.4932667"><ele>228.0</ele><time>2026-04-04T11:34:28.189Z</time></trkpt><trkpt lat="44.816905" lon="9.4931717"><ele>230.0</ele><time>2026-04-04T11:34:29.189Z</time></trkpt><trkpt lat="44.8168117" lon="9.4930483"><ele>232.0</ele><time>2026-04-04T11:34:30.189Z</time></trkpt><trkpt lat="44.8167667" lon="9.49289"><ele>234.0</ele><time>2026-04-04T11:34:31.188Z</time></trkpt><trkpt lat="44.8167717" lon="9.4927217"><ele>236.0</ele><time>2026-04-04T11:34:32.189Z</time></trkpt><trkpt lat="44.8168183" lon="9.4925567"><ele>233.5</ele><time>2026-04-04T11:34:33.188Z</time></trkpt><trkpt lat="44.8168883" lon="9.4924"><ele>231.0</ele><time>2026-04-04T11:34:34.189Z</time></trkpt><trkpt lat="44.8169667" lon="9.492265"><ele>228.5</ele><time>2026-04-04T11:34:35.188Z</time></trkpt><trkpt lat="44.8170417" lon="9.49214"><ele>226.0</ele><time>2026-04-04T11:34:36.188Z</time></trkpt><trkpt lat="44.81711" lon="9.4920233"><ele>226.0</ele><time>2026-04-04T11:34:37.189Z</time></trkpt><trkpt lat="44.8171767" lon="9.4918883"><ele>226.00000000000003</ele><time>2026-04-04T11:34:38.189Z</time></trkpt><trkpt lat="44.8172233" lon="9.4917467"><ele>226.00000000000003</ele><time>2026-04-04T11:34:39.191Z</time></trkpt><trkpt lat="44.8172433" lon="9.491605"><ele>226.0</ele><time>2026-04-04T11:34:40.19Z</time></trkpt><trkpt lat="44.8172233" lon="9.4914867"><ele>226.0</ele><time>2026-04-04T11:34:41.19Z</time></trkpt><trkpt lat="44.8171833" lon="9.49139"><ele>226.0</ele><time>2026-04-04T11:34:42.19Z</time></trkpt><trkpt lat="44.817135" lon="9.4913183"><ele>226.0</ele><time>2026-04-04T11:34:43.188Z</time></trkpt><trkpt lat="44.8170133" lon="9.4912883"><ele>226.0</ele><time>2026-04-04T11:34:44.19Z</time></trkpt><trkpt lat="44.8168783" lon="9.4912583"><ele>226.0</ele><time>2026-04-04T11:34:45.188Z</time></trkpt><trkpt lat="44.8167433" lon="9.491225"><ele>227.0</ele><time>2026-04-04T11:34:46.189Z</time></trkpt><trkpt lat="44.8166217" lon="9.4911833"><ele>228.0</ele><time>2026-04-04T11:34:47.19Z</time></trkpt><trkpt lat="44.81651" lon="9.4911217"><ele>229.0</ele><time>2026-04-04T11:34:48.188Z</time></trkpt><trkpt lat="44.8164167" lon="9.4910183"><ele>230.0</ele><time>2026-04-04T11:34:49.188Z</time></trkpt><trkpt lat="44.8163467" lon="9.4908833"><ele>230.0</ele><time>2026-04-04T11:34:50.189Z</time></trkpt><trkpt lat="44.8163033" lon="9.4907183"><ele>230.0</ele><time>2026-04-04T11:34:51.189Z</time></trkpt><trkpt lat="44.8163033" lon="9.4905133"><ele>230.0</ele><time>2026-04-04T11:34:52.187Z</time></trkpt><trkpt lat="44.816325" lon="9.4902867"><ele>230.0</ele><time>2026-04-04T11:34:53.188Z</time></trkpt><trkpt lat="44.8163467" lon="9.4900783"><ele>229.75</ele><time>2026-04-04T11:34:54.188Z</time></trkpt><trkpt lat="44.816385" lon="9.4899017"><ele>229.5</ele><time>2026-04-04T11:34:55.188Z</time></trkpt><trkpt lat="44.8164517" lon="9.4897617"><ele>229.25</ele><time>2026-04-04T11:34:56.188Z</time></trkpt><trkpt lat="44.8165633" lon="9.4896533"><ele>229.0</ele><time>2026-04-04T11:34:57.189Z</time></trkpt><trkpt lat="44.8167233" lon="9.4895683"><ele>230.0</ele><time>2026-04-04T11:34:58.19Z</time></trkpt><trkpt lat="44.816885" lon="9.4894867"><ele>231.0</ele><time>2026-04-04T11:34:59.189Z</time></trkpt><trkpt lat="44.817" lon="9.4894133"><ele>232.0</ele><time>2026-04-04T11:35:00.188Z</time></trkpt><trkpt lat="44.817085" lon="9.489305"><ele>233.0</ele><time>2026-04-04T11:35:01.188Z</time></trkpt><trkpt lat="44.8171417" lon="9.4891517"><ele>233.0</ele><time>2026-04-04T11:35:02.189Z</time></trkpt><trkpt lat="44.8171583" lon="9.48896"><ele>233.0</ele><time>2026-04-04T11:35:03.19Z</time></trkpt><trkpt lat="44.8171317" lon="9.4887283"><ele>233.0</ele><time>2026-04-04T11:35:04.19Z</time></trkpt><trkpt lat="44.8170883" lon="9.4884517"><ele>232.0</ele><time>2026-04-04T11:35:05.189Z</time></trkpt><trkpt lat="44.8170533" lon="9.48819"><ele>231.0</ele><time>2026-04-04T11:35:06.189Z</time></trkpt><trkpt lat="44.817025" lon="9.4879567"><ele>230.0</ele><time>2026-04-04T11:35:07.188Z</time></trkpt><trkpt lat="44.8170017" lon="9.4877367"><ele>229.0</ele><time>2026-04-04T11:35:08.188Z</time></trkpt><trkpt lat="44.8169817" lon="9.487525"><ele>228.0</ele><time>2026-04-04T11:35:09.188Z</time></trkpt><trkpt lat="44.81696" lon="9.48733"><ele>227.0</ele><time>2026-04-04T11:35:10.188Z</time></trkpt><trkpt lat="44.816925" lon="9.4869683"><ele>227.0</ele><time>2026-04-04T11:35:12.188Z</time></trkpt><trkpt lat="44.8169133" lon="9.4867983"><ele>227.0</ele><time>2026-04-04T11:35:13.188Z</time></trkpt><trkpt lat="44.8169" lon="9.4866333"><ele>227.0</ele><time>2026-04-04T11:35:14.19Z</time></trkpt><trkpt lat="44.8168883" lon="9.486465"><ele>227.0</ele><time>2026-04-04T11:35:15.189Z</time></trkpt><trkpt lat="44.8168717" lon="9.486295"><ele>226.25</ele><time>2026-04-04T11:35:16.189Z</time></trkpt><trkpt lat="44.8168567" lon="9.48612"><ele>225.5</ele><time>2026-04-04T11:35:17.189Z</time></trkpt><trkpt lat="44.81684" lon="9.4859367"><ele>224.75</ele><time>2026-04-04T11:35:18.188Z</time></trkpt><trkpt lat="44.8168267" lon="9.4857483"><ele>224.0</ele><time>2026-04-04T11:35:19.189Z</time></trkpt><trkpt lat="44.8168167" lon="9.4855617"><ele>224.5</ele><time>2026-04-04T11:35:20.188Z</time></trkpt><trkpt lat="44.8168167" lon="9.4853717"><ele>225.0</ele><time>2026-04-04T11:35:21.188Z</time></trkpt><trkpt lat="44.8168283" lon="9.4851917"><ele>225.5</ele><time>2026-04-04T11:35:22.189Z</time></trkpt><trkpt lat="44.8168533" lon="9.485025"><ele>226.0</ele><time>2026-04-04T11:35:23.188Z</time></trkpt><trkpt lat="44.8168767" lon="9.4849133"><ele>226.0</ele><time>2026-04-04T11:35:24.189Z</time></trkpt><trkpt lat="44.816895" lon="9.4848267"><ele>226.00000000000003</ele><time>2026-04-04T11:35:25.188Z</time></trkpt><trkpt lat="44.8168333" lon="9.4849"><ele>226.00000000000003</ele><time>2026-04-04T11:35:31.19Z</time></trkpt><trkpt lat="44.8168067" lon="9.485085"><ele>226.0</ele><time>2026-04-04T11:35:33.189Z</time></trkpt><trkpt lat="44.8167967" lon="9.4852067"><ele>226.0</ele><time>2026-04-04T11:35:34.191Z</time></trkpt><trkpt lat="44.8167883" lon="9.485365"><ele>225.60000000000002</ele><time>2026-04-04T11:35:35.191Z</time></trkpt><trkpt lat="44.8167933" lon="9.4855067"><ele>225.20000000000002</ele><time>2026-04-04T11:35:36.19Z</time></trkpt><trkpt lat="44.8168033" lon="9.485645"><ele>224.79999999999998</ele><time>2026-04-04T11:35:37.19Z</time></trkpt><trkpt lat="44.8168133" lon="9.4857817"><ele>224.39999999999998</ele><time>2026-04-04T11:35:38.191Z</time></trkpt><trkpt lat="44.8168217" lon="9.485925"><ele>224.0</ele><time>2026-04-04T11:35:39.19Z</time></trkpt><trkpt lat="44.8168317" lon="9.4860917"><ele>225.0</ele><time>2026-04-04T11:35:40.19Z</time></trkpt><trkpt lat="44.8168417" lon="9.4862967"><ele>226.0</ele><time>2026-04-04T11:35:41.191Z</time></trkpt><trkpt lat="44.816855" lon="9.4865183"><ele>227.0</ele><time>2026-04-04T11:35:42.19Z</time></trkpt><trkpt lat="44.816875" lon="9.48673"><ele>227.0</ele><time>2026-04-04T11:35:43.191Z</time></trkpt><trkpt lat="44.8168933" lon="9.4869167"><ele>227.0</ele><time>2026-04-04T11:35:44.191Z</time></trkpt><trkpt lat="44.8169083" lon="9.4870817"><ele>227.0</ele><time>2026-04-04T11:35:45.19Z</time></trkpt><trkpt lat="44.816915" lon="9.487225"><ele>227.0</ele><time>2026-04-04T11:35:46.193Z</time></trkpt><trkpt lat="44.8169233" lon="9.4873333"><ele>227.0</ele><time>2026-04-04T11:35:47.19Z</time></trkpt><trkpt lat="44.8169083" lon="9.4874733"><ele>227.00000000000003</ele><time>2026-04-04T11:35:49.191Z</time></trkpt><trkpt lat="44.8168317" lon="9.4875283"><ele>227.0</ele><time>2026-04-04T11:35:51.19Z</time></trkpt><trkpt lat="44.8167233" lon="9.4876083"><ele>227.0</ele><time>2026-04-04T11:35:53.191Z</time></trkpt><trkpt lat="44.8166817" lon="9.4876867"><ele>227.0</ele><time>2026-04-04T11:35:54.19Z</time></trkpt><trkpt lat="44.8166533" lon="9.487785"><ele>227.00000000000003</ele><time>2026-04-04T11:35:55.188Z</time></trkpt><trkpt lat="44.81664" lon="9.4879117"><ele>227.0</ele><time>2026-04-04T11:35:56.189Z</time></trkpt><trkpt lat="44.816625" lon="9.4880183"><ele>231.2</ele><time>2026-04-04T11:35:57.189Z</time></trkpt><trkpt lat="44.816605" lon="9.48811"><ele>235.39999999999998</ele><time>2026-04-04T11:35:58.189Z</time></trkpt><trkpt lat="44.8165317" lon="9.4882383"><ele>239.60000000000002</ele><time>2026-04-04T11:36:00.188Z</time></trkpt><trkpt lat="44.8164183" lon="9.4882517"><ele>243.8</ele><time>2026-04-04T11:36:02.189Z</time></trkpt><trkpt lat="44.8163383" lon="9.4882417"><ele>248.0</ele><time>2026-04-04T11:36:03.189Z</time></trkpt><trkpt lat="44.816245" lon="9.4882467"><ele>248.0</ele><time>2026-04-04T11:36:04.19Z</time></trkpt><trkpt lat="44.81614" lon="9.48827"><ele>248.0</ele><time>2026-04-04T11:36:05.189Z</time></trkpt><trkpt lat="44.816015" lon="9.4883217"><ele>248.0</ele><time>2026-04-04T11:36:06.189Z</time></trkpt><trkpt lat="44.8158833" lon="9.4883833"><ele>248.0</ele><time>2026-04-04T11:36:07.187Z</time></trkpt><trkpt lat="44.8157583" lon="9.48844"><ele>250.16666666666669</ele><time>2026-04-04T11:36:08.19Z</time></trkpt><trkpt lat="44.8156617" lon="9.488475"><ele>252.33333333333334</ele><time>2026-04-04T11:36:09.188Z</time></trkpt><trkpt lat="44.8155783" lon="9.4884917"><ele>254.5</ele><time>2026-04-04T11:36:10.19Z</time></trkpt><trkpt lat="44.815505" lon="9.488475"><ele>256.6666666666667</ele><time>2026-04-04T11:36:11.187Z</time></trkpt><trkpt lat="44.8154117" lon="9.48838"><ele>258.8333333333333</ele><time>2026-04-04T11:36:13.189Z</time></trkpt><trkpt lat="44.8153783" lon="9.4883"><ele>261.0</ele><time>2026-04-04T11:36:14.192Z</time></trkpt><trkpt lat="44.8153333" lon="9.4882033"><ele>261.0</ele><time>2026-04-04T11:36:15.189Z</time></trkpt><trkpt lat="44.81527" lon="9.48811"><ele>261.0</ele><time>2026-04-04T11:36:16.192Z</time></trkpt><trkpt lat="44.815185" lon="9.488025"><ele>261.0</ele><time>2026-04-04T11:36:17.189Z</time></trkpt><trkpt lat="44.8151167" lon="9.4879333"><ele>261.0</ele><time>2026-04-04T11:36:18.194Z</time></trkpt><trkpt lat="44.8150683" lon="9.4878333"><ele>261.0</ele><time>2026-04-04T11:36:19.19Z</time></trkpt><trkpt lat="44.815025" lon="9.4876933"><ele>263.0</ele><time>2026-04-04T11:36:20.189Z</time></trkpt><trkpt lat="44.8149783" lon="9.4875333"><ele>265.0</ele><time>2026-04-04T11:36:21.189Z</time></trkpt><trkpt lat="44.8149317" lon="9.4873883"><ele>267.0</ele><time>2026-04-04T11:36:22.189Z</time></trkpt><trkpt lat="44.814885" lon="9.4872783"><ele>269.0</ele><time>2026-04-04T11:36:23.189Z</time></trkpt><trkpt lat="44.81483" lon="9.4872033"><ele>271.0</ele><time>2026-04-04T11:36:24.189Z</time></trkpt><trkpt lat="44.8147633" lon="9.4871567"><ele>271.0</ele><time>2026-04-04T11:36:25.189Z</time></trkpt><trkpt lat="44.8146733" lon="9.4871117"><ele>271.0</ele><time>2026-04-04T11:36:26.189Z</time></trkpt><trkpt lat="44.8145867" lon="9.4870683"><ele>271.0</ele><time>2026-04-04T11:36:27.189Z</time></trkpt><trkpt lat="44.8145117" lon="9.4870217"><ele>271.0</ele><time>2026-04-04T11:36:28.188Z</time></trkpt><trkpt lat="44.81445" lon="9.4869667"><ele>271.0</ele><time>2026-04-04T11:36:29.19Z</time></trkpt><trkpt lat="44.8143933" lon="9.4869067"><ele>271.0</ele><time>2026-04-04T11:36:30.189Z</time></trkpt><trkpt lat="44.8143467" lon="9.4868417"><ele>274.0</ele><time>2026-04-04T11:36:31.19Z</time></trkpt><trkpt lat="44.814295" lon="9.486775"><ele>277.0</ele><time>2026-04-04T11:36:32.189Z</time></trkpt><trkpt lat="44.8142417" lon="9.4867067"><ele>280.0</ele><time>2026-04-04T11:36:33.188Z</time></trkpt><trkpt lat="44.8141883" lon="9.4866583"><ele>283.0</ele><time>2026-04-04T11:36:34.189Z</time></trkpt><trkpt lat="44.81407" lon="9.4866283"><ele>286.0</ele><time>2026-04-04T11:36:36.188Z</time></trkpt><trkpt lat="44.8139567" lon="9.48671"><ele>286.0</ele><time>2026-04-04T11:36:38.19Z</time></trkpt><trkpt lat="44.813885" lon="9.4867917"><ele>286.0</ele><time>2026-04-04T11:36:39.189Z</time></trkpt><trkpt lat="44.813795" lon="9.4869033"><ele>286.0</ele><time>2026-04-04T11:36:40.188Z</time></trkpt><trkpt lat="44.8136917" lon="9.48702"><ele>286.0</ele><time>2026-04-04T11:36:41.189Z</time></trkpt><trkpt lat="44.81358" lon="9.487125"><ele>289.40000000000003</ele><time>2026-04-04T11:36:42.188Z</time></trkpt><trkpt lat="44.8134717" lon="9.4872217"><ele>292.8</ele><time>2026-04-04T11:36:43.191Z</time></trkpt><trkpt lat="44.8133767" lon="9.4873033"><ele>296.20000000000005</ele><time>2026-04-04T11:36:44.189Z</time></trkpt><trkpt lat="44.8132867" lon="9.487365"><ele>299.6</ele><time>2026-04-04T11:36:45.188Z</time></trkpt><trkpt lat="44.8131917" lon="9.487415"><ele>303.0</ele><time>2026-04-04T11:36:46.193Z</time></trkpt><trkpt lat="44.813085" lon="9.48745"><ele>303.0</ele><time>2026-04-04T11:36:47.189Z</time></trkpt><trkpt lat="44.8129817" lon="9.4874783"><ele>303.0</ele><time>2026-04-04T11:36:48.189Z</time></trkpt><trkpt lat="44.8128917" lon="9.4875183"><ele>303.0</ele><time>2026-04-04T11:36:49.19Z</time></trkpt><trkpt lat="44.8128167" lon="9.4875733"><ele>303.0</ele><time>2026-04-04T11:36:50.189Z</time></trkpt><trkpt lat="44.8127583" lon="9.487645"><ele>303.0</ele><time>2026-04-04T11:36:51.189Z</time></trkpt><trkpt lat="44.8127" lon="9.4877483"><ele>305.5</ele><time>2026-04-04T11:36:52.188Z</time></trkpt><trkpt lat="44.8126367" lon="9.4878617"><ele>308.0</ele><time>2026-04-04T11:36:53.191Z</time></trkpt><trkpt lat="44.81257" lon="9.4879733"><ele>310.5</ele><time>2026-04-04T11:36:54.189Z</time></trkpt><trkpt lat="44.812425" lon="9.48816"><ele>313.0</ele><time>2026-04-04T11:36:56.189Z</time></trkpt><trkpt lat="44.8123483" lon="9.4882333"><ele>313.16666666666663</ele><time>2026-04-04T11:36:57.189Z</time></trkpt><trkpt lat="44.812275" lon="9.4882867"><ele>313.3333333333333</ele><time>2026-04-04T11:36:58.188Z</time></trkpt><trkpt lat="44.8122017" lon="9.4883183"><ele>313.5</ele><time>2026-04-04T11:36:59.189Z</time></trkpt><trkpt lat="44.812125" lon="9.48833"><ele>313.6666666666667</ele><time>2026-04-04T11:37:00.189Z</time></trkpt><trkpt lat="44.8120333" lon="9.488335"><ele>313.83333333333337</ele><time>2026-04-04T11:37:01.189Z</time></trkpt><trkpt lat="44.81192" lon="9.488335"><ele>314.0</ele><time>2026-04-04T11:37:02.189Z</time></trkpt><trkpt lat="44.8118083" lon="9.488335"><ele>316.2</ele><time>2026-04-04T11:37:03.189Z</time></trkpt><trkpt lat="44.8117" lon="9.4883233"><ele>318.4</ele><time>2026-04-04T11:37:04.188Z</time></trkpt><trkpt lat="44.8115917" lon="9.4883033"><ele>320.6</ele><time>2026-04-04T11:37:05.188Z</time></trkpt><trkpt lat="44.8114883" lon="9.4882583"><ele>322.8</ele><time>2026-04-04T11:37:06.189Z</time></trkpt><trkpt lat="44.8113883" lon="9.488215"><ele>325.0</ele><time>2026-04-04T11:37:07.189Z</time></trkpt><trkpt lat="44.8112867" lon="9.488195"><ele>325.0</ele><time>2026-04-04T11:37:08.189Z</time></trkpt><trkpt lat="44.811175" lon="9.4881917"><ele>325.0</ele><time>2026-04-04T11:37:09.188Z</time></trkpt><trkpt lat="44.81105" lon="9.4881983"><ele>325.0</ele><time>2026-04-04T11:37:10.188Z</time></trkpt><trkpt lat="44.8109317" lon="9.4882133"><ele>325.0</ele><time>2026-04-04T11:37:11.19Z</time></trkpt><trkpt lat="44.8108333" lon="9.488225"><ele>326.66666666666663</ele><time>2026-04-04T11:37:12.19Z</time></trkpt><trkpt lat="44.8107467" lon="9.4882283"><ele>328.3333333333333</ele><time>2026-04-04T11:37:13.188Z</time></trkpt><trkpt lat="44.8106633" lon="9.48822"><ele>330.0</ele><time>2026-04-04T11:37:14.19Z</time></trkpt><trkpt lat="44.8105717" lon="9.488195"><ele>331.6666666666667</ele><time>2026-04-04T11:37:15.19Z</time></trkpt><trkpt lat="44.8104817" lon="9.488155"><ele>333.33333333333337</ele><time>2026-04-04T11:37:16.188Z</time></trkpt><trkpt lat="44.8104017" lon="9.4881"><ele>335.0</ele><time>2026-04-04T11:37:17.189Z</time></trkpt><trkpt lat="44.8103283" lon="9.488025"><ele>335.0</ele><time>2026-04-04T11:37:18.189Z</time></trkpt><trkpt lat="44.8102583" lon="9.487945"><ele>335.0</ele><time>2026-04-04T11:37:19.19Z</time></trkpt><trkpt lat="44.81019" lon="9.4878717"><ele>335.0</ele><time>2026-04-04T11:37:20.19Z</time></trkpt><trkpt lat="44.8101233" lon="9.4878233"><ele>335.0</ele><time>2026-04-04T11:37:21.19Z</time></trkpt><trkpt lat="44.8100483" lon="9.4877983"><ele>335.0</ele><time>2026-04-04T11:37:22.189Z</time></trkpt><trkpt lat="44.8099617" lon="9.4877917"><ele>335.0</ele><time>2026-04-04T11:37:23.189Z</time></trkpt><trkpt lat="44.8098617" lon="9.487795"><ele>337.33333333333337</ele><time>2026-04-04T11:37:24.19Z</time></trkpt><trkpt lat="44.8097533" lon="9.4877983"><ele>339.6666666666667</ele><time>2026-04-04T11:37:25.188Z</time></trkpt><trkpt lat="44.80966" lon="9.4877883"><ele>342.0</ele><time>2026-04-04T11:37:26.189Z</time></trkpt><trkpt lat="44.809575" lon="9.4877667"><ele>344.3333333333333</ele><time>2026-04-04T11:37:27.189Z</time></trkpt><trkpt lat="44.8094933" lon="9.48774"><ele>346.66666666666663</ele><time>2026-04-04T11:37:28.189Z</time></trkpt><trkpt lat="44.80942" lon="9.4877167"><ele>349.0</ele><time>2026-04-04T11:37:29.19Z</time></trkpt><trkpt lat="44.8093433" lon="9.4876983"><ele>350.3333333333333</ele><time>2026-04-04T11:37:30.191Z</time></trkpt><trkpt lat="44.80926" lon="9.4876967"><ele>351.66666666666663</ele><time>2026-04-04T11:37:31.188Z</time></trkpt><trkpt lat="44.809175" lon="9.487705"><ele>353.0</ele><time>2026-04-04T11:37:32.19Z</time></trkpt><trkpt lat="44.8091033" lon="9.4877233"><ele>354.3333333333333</ele><time>2026-04-04T11:37:33.19Z</time></trkpt><trkpt lat="44.809035" lon="9.4877467"><ele>355.6666666666667</ele><time>2026-04-04T11:37:34.19Z</time></trkpt><trkpt lat="44.8089683" lon="9.4877783"><ele>357.0</ele><time>2026-04-04T11:37:35.19Z</time></trkpt><trkpt lat="44.8089" lon="9.4878167"><ele>357.0</ele><time>2026-04-04T11:37:36.19Z</time></trkpt><trkpt lat="44.808825" lon="9.4878633"><ele>357.0</ele><time>2026-04-04T11:37:37.191Z</time></trkpt><trkpt lat="44.8087467" lon="9.48791"><ele>357.0</ele><time>2026-04-04T11:37:38.191Z</time></trkpt><trkpt lat="44.8086567" lon="9.4879583"><ele>357.0</ele><time>2026-04-04T11:37:39.188Z</time></trkpt><trkpt lat="44.8085617" lon="9.4880067"><ele>357.0</ele><time>2026-04-04T11:37:40.19Z</time></trkpt><trkpt lat="44.80848" lon="9.488045"><ele>358.3333333333333</ele><time>2026-04-04T11:37:41.19Z</time></trkpt><trkpt lat="44.8084033" lon="9.4880783"><ele>359.6666666666667</ele><time>2026-04-04T11:37:42.189Z</time></trkpt><trkpt lat="44.8083333" lon="9.48811"><ele>361.0</ele><time>2026-04-04T11:37:43.194Z</time></trkpt><trkpt lat="44.8082717" lon="9.48815"><ele>362.33333333333337</ele><time>2026-04-04T11:37:44.19Z</time></trkpt><trkpt lat="44.808195" lon="9.48824"><ele>363.6666666666667</ele><time>2026-04-04T11:37:46.188Z</time></trkpt><trkpt lat="44.8081267" lon="9.48837"><ele>365.0</ele><time>2026-04-04T11:37:48.188Z</time></trkpt><trkpt lat="44.8080833" lon="9.4884417"><ele>365.0</ele><time>2026-04-04T11:37:49.189Z</time></trkpt><trkpt lat="44.80802" lon="9.4885933"><ele>365.0</ele><time>2026-04-04T11:37:51.189Z</time></trkpt><trkpt lat="44.80799" lon="9.48875"><ele>365.0</ele><time>2026-04-04T11:37:53.189Z</time></trkpt><trkpt lat="44.8079767" lon="9.4888767"><ele>365.0</ele><time>2026-04-04T11:37:55.19Z</time></trkpt><trkpt lat="44.8079317" lon="9.4889817"><ele>365.0</ele><time>2026-04-04T11:37:58.189Z</time></trkpt><trkpt lat="44.8078667" lon="9.4889667"><ele>365.83333333333337</ele><time>2026-04-04T11:38:00.19Z</time></trkpt><trkpt lat="44.8077883" lon="9.4889"><ele>366.6666666666667</ele><time>2026-04-04T11:38:02.19Z</time></trkpt><trkpt lat="44.8077043" lon="9.4888353"><ele>367.5</ele><time>2026-04-04T11:38:04.19Z</time></trkpt><trkpt lat="44.8076382" lon="9.4887621"><ele>368.3333333333333</ele><time>2026-04-04T11:38:06.189Z</time></trkpt><trkpt lat="44.8076047" lon="9.4886707"><ele>369.16666666666663</ele><time>2026-04-04T11:38:08.19Z</time></trkpt><trkpt lat="44.8075751" lon="9.4885447"><ele>370.0</ele><time>2026-04-04T11:38:10.189Z</time></trkpt><trkpt lat="44.8075278" lon="9.4884098"><ele>371.16666666666663</ele><time>2026-04-04T11:38:12.195Z</time></trkpt><trkpt lat="44.8074373" lon="9.4883111"><ele>372.3333333333333</ele><time>2026-04-04T11:38:14.189Z</time></trkpt><trkpt lat="44.8073676" lon="9.4882584"><ele>373.5</ele><time>2026-04-04T11:38:15.189Z</time></trkpt><trkpt lat="44.8072933" lon="9.488202"><ele>374.6666666666667</ele><time>2026-04-04T11:38:16.192Z</time></trkpt><trkpt lat="44.8072243" lon="9.4881544"><ele>375.83333333333337</ele><time>2026-04-04T11:38:17.189Z</time></trkpt><trkpt lat="44.8071644" lon="9.4881232"><ele>377.0</ele><time>2026-04-04T11:38:18.189Z</time></trkpt><trkpt lat="44.8071035" lon="9.4880963"><ele>376.99999999999994</ele><time>2026-04-04T11:38:19.19Z</time></trkpt><trkpt lat="44.8070397" lon="9.4880761"><ele>377.0</ele><time>2026-04-04T11:38:20.189Z</time></trkpt><trkpt lat="44.8069706" lon="9.4880531"><ele>377.0</ele><time>2026-04-04T11:38:21.189Z</time></trkpt><trkpt lat="44.8068984" lon="9.4880332"><ele>377.0</ele><time>2026-04-04T11:38:22.19Z</time></trkpt><trkpt lat="44.8068287" lon="9.4880249"><ele>377.0</ele><time>2026-04-04T11:38:23.19Z</time></trkpt><trkpt lat="44.8067604" lon="9.4880337"><ele>376.99999999999994</ele><time>2026-04-04T11:38:24.189Z</time></trkpt><trkpt lat="44.8066973" lon="9.488058"><ele>377.0</ele><time>2026-04-04T11:38:25.188Z</time></trkpt><trkpt lat="44.8066372" lon="9.4880858"><ele>378.83333333333337</ele><time>2026-04-04T11:38:26.189Z</time></trkpt><trkpt lat="44.8065746" lon="9.4881175"><ele>380.6666666666667</ele><time>2026-04-04T11:38:27.19Z</time></trkpt><trkpt lat="44.8065127" lon="9.4881477"><ele>382.5</ele><time>2026-04-04T11:38:28.19Z</time></trkpt><trkpt lat="44.8064008" lon="9.4881803"><ele>384.33333333333337</ele><time>2026-04-04T11:38:30.189Z</time></trkpt><trkpt lat="44.8063072" lon="9.4881825"><ele>386.1666666666667</ele><time>2026-04-04T11:38:32.19Z</time></trkpt><trkpt lat="44.8062241" lon="9.4881583"><ele>388.0</ele><time>2026-04-04T11:38:34.188Z</time></trkpt><trkpt lat="44.8061369" lon="9.4881035"><ele>388.0</ele><time>2026-04-04T11:38:36.189Z</time></trkpt><trkpt lat="44.8060331" lon="9.4880263"><ele>388.0</ele><time>2026-04-04T11:38:38.189Z</time></trkpt><trkpt lat="44.8059301" lon="9.4879579"><ele>388.0</ele><time>2026-04-04T11:38:40.188Z</time></trkpt><trkpt lat="44.8058256" lon="9.4879064"><ele>388.0</ele><time>2026-04-04T11:38:42.188Z</time></trkpt><trkpt lat="44.805751" lon="9.4878751"><ele>388.0</ele><time>2026-04-04T11:38:43.189Z</time></trkpt><trkpt lat="44.8056671" lon="9.4878502"><ele>389.4</ele><time>2026-04-04T11:38:44.19Z</time></trkpt><trkpt lat="44.80557" lon="9.4878401"><ele>390.79999999999995</ele><time>2026-04-04T11:38:45.19Z</time></trkpt><trkpt lat="44.8054762" lon="9.4878423"><ele>392.2</ele><time>2026-04-04T11:38:46.189Z</time></trkpt><trkpt lat="44.8053908" lon="9.4878542"><ele>393.6</ele><time>2026-04-04T11:38:47.188Z</time></trkpt><trkpt lat="44.8053195" lon="9.4878658"><ele>395.0</ele><time>2026-04-04T11:38:48.187Z</time></trkpt><trkpt lat="44.8052085" lon="9.4878897"><ele>396.99999999999994</ele><time>2026-04-04T11:38:50.19Z</time></trkpt><trkpt lat="44.8051149" lon="9.4878714"><ele>399.0</ele><time>2026-04-04T11:38:52.189Z</time></trkpt><trkpt lat="44.8050304" lon="9.4878466"><ele>401.0</ele><time>2026-04-04T11:38:54.19Z</time></trkpt><trkpt lat="44.8049239" lon="9.4878549"><ele>403.0</ele><time>2026-04-04T11:38:56.19Z</time></trkpt><trkpt lat="44.8048566" lon="9.4878621"><ele>404.99999999999994</ele><time>2026-04-04T11:38:57.19Z</time></trkpt><trkpt lat="44.8047872" lon="9.4878752"><ele>407.0</ele><time>2026-04-04T11:38:58.19Z</time></trkpt><trkpt lat="44.8047151" lon="9.4878984"><ele>407.5714285714286</ele><time>2026-04-04T11:38:59.191Z</time></trkpt><trkpt lat="44.8046464" lon="9.4879312"><ele>408.14285714285717</ele><time>2026-04-04T11:39:00.19Z</time></trkpt><trkpt lat="44.8045845" lon="9.4879677"><ele>408.7142857142857</ele><time>2026-04-04T11:39:01.19Z</time></trkpt><trkpt lat="44.8045208" lon="9.4880082"><ele>409.28571428571433</ele><time>2026-04-04T11:39:02.19Z</time></trkpt><trkpt lat="44.8044574" lon="9.4880477"><ele>409.85714285714283</ele><time>2026-04-04T11:39:03.191Z</time></trkpt><trkpt lat="44.8043907" lon="9.4880903"><ele>410.42857142857144</ele><time>2026-04-04T11:39:04.189Z</time></trkpt><trkpt lat="44.8043198" lon="9.488137"><ele>411.0</ele><time>2026-04-04T11:39:05.191Z</time></trkpt><trkpt lat="44.8042457" lon="9.4881889"><ele>412.85714285714283</ele><time>2026-04-04T11:39:06.191Z</time></trkpt><trkpt lat="44.8041773" lon="9.4882443"><ele>414.71428571428567</ele><time>2026-04-04T11:39:07.19Z</time></trkpt><trkpt lat="44.8041119" lon="9.4882972"><ele>416.57142857142856</ele><time>2026-04-04T11:39:08.195Z</time></trkpt><trkpt lat="44.8040472" lon="9.4883479"><ele>418.42857142857144</ele><time>2026-04-04T11:39:09.19Z</time></trkpt><trkpt lat="44.8039861" lon="9.488398"><ele>420.2857142857143</ele><time>2026-04-04T11:39:10.189Z</time></trkpt><trkpt lat="44.8039307" lon="9.4884492"><ele>422.14285714285717</ele><time>2026-04-04T11:39:11.19Z</time></trkpt><trkpt lat="44.8038823" lon="9.4885133"><ele>424.0</ele><time>2026-04-04T11:39:12.19Z</time></trkpt><trkpt lat="44.8038443" lon="9.4885921"><ele>424.0</ele><time>2026-04-04T11:39:13.191Z</time></trkpt><trkpt lat="44.8038153" lon="9.4886748"><ele>424.0</ele><time>2026-04-04T11:39:14.19Z</time></trkpt><trkpt lat="44.8037934" lon="9.4887614"><ele>424.0</ele><time>2026-04-04T11:39:15.189Z</time></trkpt><trkpt lat="44.8037722" lon="9.4888581"><ele>424.0</ele><time>2026-04-04T11:39:16.191Z</time></trkpt><trkpt lat="44.8037486" lon="9.4889563"><ele>424.0</ele><time>2026-04-04T11:39:17.191Z</time></trkpt><trkpt lat="44.8037195" lon="9.4890429"><ele>424.0</ele><time>2026-04-04T11:39:18.19Z</time></trkpt><trkpt lat="44.8036649" lon="9.4891575"><ele>424.0</ele><time>2026-04-04T11:39:20.19Z</time></trkpt><trkpt lat="44.8035752" lon="9.4892391"><ele>424.50000000000006</ele><time>2026-04-04T11:39:22.19Z</time></trkpt><trkpt lat="44.8035116" lon="9.4892706"><ele>425.0</ele><time>2026-04-04T11:39:23.191Z</time></trkpt><trkpt lat="44.8034219" lon="9.4893095"><ele>425.5</ele><time>2026-04-04T11:39:24.189Z</time></trkpt><trkpt lat="44.8033377" lon="9.4893542"><ele>426.0</ele><time>2026-04-04T11:39:25.189Z</time></trkpt><trkpt lat="44.8032561" lon="9.4893966"><ele>426.50000000000006</ele><time>2026-04-04T11:39:26.19Z</time></trkpt><trkpt lat="44.8031823" lon="9.4894203"><ele>427.0</ele><time>2026-04-04T11:39:27.189Z</time></trkpt><trkpt lat="44.8031065" lon="9.4894325"><ele>428.40000000000003</ele><time>2026-04-04T11:39:28.189Z</time></trkpt><trkpt lat="44.8030386" lon="9.489436"><ele>429.80000000000007</ele><time>2026-04-04T11:39:29.188Z</time></trkpt><trkpt lat="44.8029229" lon="9.4894351"><ele>431.2</ele><time>2026-04-04T11:39:31.189Z</time></trkpt><trkpt lat="44.8028335" lon="9.4893891"><ele>432.6</ele><time>2026-04-04T11:39:33.188Z</time></trkpt><trkpt lat="44.8027449" lon="9.489301"><ele>434.0</ele><time>2026-04-04T11:39:35.188Z</time></trkpt><trkpt lat="44.8026896" lon="9.4892405"><ele>435.49999999999994</ele><time>2026-04-04T11:39:36.188Z</time></trkpt><trkpt lat="44.8026309" lon="9.4891748"><ele>437.0</ele><time>2026-04-04T11:39:37.188Z</time></trkpt><trkpt lat="44.8025678" lon="9.4891139"><ele>438.5</ele><time>2026-04-04T11:39:38.188Z</time></trkpt><trkpt lat="44.8024998" lon="9.4890514"><ele>440.0</ele><time>2026-04-04T11:39:39.188Z</time></trkpt><trkpt lat="44.8024274" lon="9.4889859"><ele>441.49999999999994</ele><time>2026-04-04T11:39:40.188Z</time></trkpt><trkpt lat="44.8023472" lon="9.4889165"><ele>443.0</ele><time>2026-04-04T11:39:41.188Z</time></trkpt><trkpt lat="44.80227" lon="9.4888475"><ele>443.0</ele><time>2026-04-04T11:39:42.188Z</time></trkpt><trkpt lat="44.8022016" lon="9.4887869"><ele>443.0</ele><time>2026-04-04T11:39:43.188Z</time></trkpt><trkpt lat="44.8021369" lon="9.4887399"><ele>443.0</ele><time>2026-04-04T11:39:44.189Z</time></trkpt><trkpt lat="44.8020739" lon="9.4887036"><ele>443.0</ele><time>2026-04-04T11:39:45.189Z</time></trkpt><trkpt lat="44.8020052" lon="9.4886815"><ele>443.0</ele><time>2026-04-04T11:39:46.189Z</time></trkpt><trkpt lat="44.801935" lon="9.488678"><ele>443.0</ele><time>2026-04-04T11:39:47.188Z</time></trkpt><trkpt lat="44.8018698" lon="9.4886906"><ele>443.0</ele><time>2026-04-04T11:39:48.188Z</time></trkpt><trkpt lat="44.801802" lon="9.4887131"><ele>443.57142857142856</ele><time>2026-04-04T11:39:49.191Z</time></trkpt><trkpt lat="44.8017329" lon="9.4887319"><ele>444.14285714285717</ele><time>2026-04-04T11:39:50.191Z</time></trkpt><trkpt lat="44.801656" lon="9.4887524"><ele>444.71428571428567</ele><time>2026-04-04T11:39:51.19Z</time></trkpt><trkpt lat="44.8015807" lon="9.4887706"><ele>445.2857142857143</ele><time>2026-04-04T11:39:52.19Z</time></trkpt><trkpt lat="44.8015063" lon="9.4887891"><ele>445.85714285714283</ele><time>2026-04-04T11:39:53.19Z</time></trkpt><trkpt lat="44.8014351" lon="9.4888007"><ele>446.4285714285714</ele><time>2026-04-04T11:39:54.189Z</time></trkpt><trkpt lat="44.8013651" lon="9.488809"><ele>447.0</ele><time>2026-04-04T11:39:55.189Z</time></trkpt><trkpt lat="44.8012914" lon="9.4888289"><ele>447.8333333333333</ele><time>2026-04-04T11:39:56.191Z</time></trkpt><trkpt lat="44.8012217" lon="9.4888457"><ele>448.66666666666663</ele><time>2026-04-04T11:39:57.19Z</time></trkpt><trkpt lat="44.8011504" lon="9.4888683"><ele>449.5</ele><time>2026-04-04T11:39:58.19Z</time></trkpt><trkpt lat="44.801086" lon="9.488898"><ele>450.3333333333333</ele><time>2026-04-04T11:39:59.191Z</time></trkpt><trkpt lat="44.8009763" lon="9.4889897"><ele>451.16666666666663</ele><time>2026-04-04T11:40:01.19Z</time></trkpt><trkpt lat="44.8009264" lon="9.4890611"><ele>452.0</ele><time>2026-04-04T11:40:02.191Z</time></trkpt><trkpt lat="44.8008768" lon="9.4891424"><ele>453.40000000000003</ele><time>2026-04-04T11:40:03.19Z</time></trkpt><trkpt lat="44.8008206" lon="9.4892234"><ele>454.80000000000007</ele><time>2026-04-04T11:40:04.19Z</time></trkpt><trkpt lat="44.8007576" lon="9.4892986"><ele>456.2</ele><time>2026-04-04T11:40:05.191Z</time></trkpt><trkpt lat="44.800701" lon="9.4893617"><ele>457.6</ele><time>2026-04-04T11:40:06.19Z</time></trkpt><trkpt lat="44.8006068" lon="9.4894699"><ele>459.0</ele><time>2026-04-04T11:40:08.191Z</time></trkpt><trkpt lat="44.8005019" lon="9.4895495"><ele>459.0</ele><time>2026-04-04T11:40:10.191Z</time></trkpt><trkpt lat="44.8003925" lon="9.4895779"><ele>459.0</ele><time>2026-04-04T11:40:12.191Z</time></trkpt><trkpt lat="44.8002769" lon="9.4895275"><ele>459.0</ele><time>2026-04-04T11:40:14.19Z</time></trkpt><trkpt lat="44.8002146" lon="9.4894773"><ele>459.0</ele><time>2026-04-04T11:40:15.191Z</time></trkpt><trkpt lat="44.8001498" lon="9.4894177"><ele>459.0</ele><time>2026-04-04T11:40:16.189Z</time></trkpt><trkpt lat="44.8000823" lon="9.4893558"><ele>460.3333333333333</ele><time>2026-04-04T11:40:17.19Z</time></trkpt><trkpt lat="44.8000197" lon="9.4893059"><ele>461.66666666666663</ele><time>2026-04-04T11:40:18.193Z</time></trkpt><trkpt lat="44.7998947" lon="9.4892524"><ele>463.0</ele><time>2026-04-04T11:40:20.191Z</time></trkpt><trkpt lat="44.7998238" lon="9.4892264"><ele>464.3333333333333</ele><time>2026-04-04T11:40:21.19Z</time></trkpt><trkpt lat="44.7997444" lon="9.4891901"><ele>465.66666666666663</ele><time>2026-04-04T11:40:22.189Z</time></trkpt><trkpt lat="44.7996672" lon="9.4891494"><ele>467.0</ele><time>2026-04-04T11:40:23.189Z</time></trkpt><trkpt lat="44.799598" lon="9.4891157"><ele>466.99999999999994</ele><time>2026-04-04T11:40:24.191Z</time></trkpt><trkpt lat="44.7994829" lon="9.4890848"><ele>467.0</ele><time>2026-04-04T11:40:26.191Z</time></trkpt><trkpt lat="44.7994158" lon="9.4890925"><ele>467.0</ele><time>2026-04-04T11:40:27.19Z</time></trkpt><trkpt lat="44.7993389" lon="9.4891064"><ele>467.0</ele><time>2026-04-04T11:40:28.189Z</time></trkpt><trkpt lat="44.7992493" lon="9.4891131"><ele>466.99999999999994</ele><time>2026-04-04T11:40:29.19Z</time></trkpt><trkpt lat="44.7991649" lon="9.4891221"><ele>467.0</ele><time>2026-04-04T11:40:30.192Z</time></trkpt><trkpt lat="44.7990918" lon="9.4891157"><ele>468.20000000000005</ele><time>2026-04-04T11:40:31.191Z</time></trkpt><trkpt lat="44.7989897" lon="9.4890726"><ele>469.40000000000003</ele><time>2026-04-04T11:40:33.187Z</time></trkpt><trkpt lat="44.7988994" lon="9.4890074"><ele>470.59999999999997</ele><time>2026-04-04T11:40:35.188Z</time></trkpt><trkpt lat="44.7988359" lon="9.4889216"><ele>471.79999999999995</ele><time>2026-04-04T11:40:37.189Z</time></trkpt><trkpt lat="44.7987857" lon="9.4888145"><ele>473.0</ele><time>2026-04-04T11:40:39.189Z</time></trkpt><trkpt lat="44.7987265" lon="9.4887129"><ele>473.8333333333333</ele><time>2026-04-04T11:40:41.187Z</time></trkpt><trkpt lat="44.7986494" lon="9.4886326"><ele>474.66666666666663</ele><time>2026-04-04T11:40:43.188Z</time></trkpt><trkpt lat="44.7985675" lon="9.488573"><ele>475.5</ele><time>2026-04-04T11:40:45.189Z</time></trkpt><trkpt lat="44.7984918" lon="9.4884939"><ele>476.33333333333337</ele><time>2026-04-04T11:40:47.189Z</time></trkpt><trkpt lat="44.7984407" lon="9.488408"><ele>477.1666666666667</ele><time>2026-04-04T11:40:49.189Z</time></trkpt><trkpt lat="44.7984387" lon="9.4882961"><ele>478.0</ele><time>2026-04-04T11:40:51.188Z</time></trkpt><trkpt lat="44.7984884" lon="9.4881623"><ele>478.00000000000006</ele><time>2026-04-04T11:40:53.189Z</time></trkpt><trkpt lat="44.7985808" lon="9.4880339"><ele>478.0</ele><time>2026-04-04T11:40:55.19Z</time></trkpt><trkpt lat="44.7986418" lon="9.4879718"><ele>478.0</ele><time>2026-04-04T11:40:56.189Z</time></trkpt><trkpt lat="44.7987012" lon="9.4879157"><ele>478.0</ele><time>2026-04-04T11:40:57.188Z</time></trkpt><trkpt lat="44.7987552" lon="9.4878633"><ele>478.00000000000006</ele><time>2026-04-04T11:40:58.19Z</time></trkpt><trkpt lat="44.7988256" lon="9.4877572"><ele>478.0</ele><time>2026-04-04T11:41:00.189Z</time></trkpt><trkpt lat="44.7987982" lon="9.4876636"><ele>479.0</ele><time>2026-04-04T11:41:03.187Z</time></trkpt><trkpt lat="44.7987258" lon="9.4876235"><ele>479.99999999999994</ele><time>2026-04-04T11:41:05.187Z</time></trkpt><trkpt lat="44.7986432" lon="9.4876174"><ele>480.99999999999994</ele><time>2026-04-04T11:41:07.189Z</time></trkpt><trkpt lat="44.7985646" lon="9.4876942"><ele>482.0</ele><time>2026-04-04T11:41:09.188Z</time></trkpt><trkpt lat="44.7984768" lon="9.4877773"><ele>483.0</ele><time>2026-04-04T11:41:11.188Z</time></trkpt><trkpt lat="44.7983813" lon="9.4878052"><ele>483.0</ele><time>2026-04-04T11:41:13.188Z</time></trkpt><trkpt lat="44.7982684" lon="9.48779"><ele>482.99999999999994</ele><time>2026-04-04T11:41:15.188Z</time></trkpt><trkpt lat="44.7981675" lon="9.4877343"><ele>482.99999999999994</ele><time>2026-04-04T11:41:17.188Z</time></trkpt><trkpt lat="44.7980858" lon="9.4876532"><ele>483.0</ele><time>2026-04-04T11:41:19.188Z</time></trkpt><trkpt lat="44.7980101" lon="9.4875828"><ele>483.0</ele><time>2026-04-04T11:41:21.188Z</time></trkpt><trkpt lat="44.7979343" lon="9.4875009"><ele>483.0</ele><time>2026-04-04T11:41:23.188Z</time></trkpt><trkpt lat="44.7978388" lon="9.487414"><ele>482.99999999999994</ele><time>2026-04-04T11:41:25.188Z</time></trkpt><trkpt lat="44.7977474" lon="9.4873409"><ele>482.99999999999994</ele><time>2026-04-04T11:41:27.189Z</time></trkpt><trkpt lat="44.7976665" lon="9.4872818"><ele>483.0</ele><time>2026-04-04T11:41:29.188Z</time></trkpt><trkpt lat="44.7975961" lon="9.4872256"><ele>483.0</ele><time>2026-04-04T11:41:31.188Z</time></trkpt><trkpt lat="44.7975217" lon="9.4871817"><ele>484.8333333333333</ele><time>2026-04-04T11:41:51.189Z</time></trkpt><trkpt lat="44.7974767" lon="9.4873217"><ele>486.66666666666663</ele><time>2026-04-04T11:41:54.188Z</time></trkpt><trkpt lat="44.797455" lon="9.487405"><ele>488.5</ele><time>2026-04-04T11:41:55.188Z</time></trkpt><trkpt lat="44.79743" lon="9.4874917"><ele>490.3333333333333</ele><time>2026-04-04T11:41:56.188Z</time></trkpt><trkpt lat="44.7973867" lon="9.4876267"><ele>492.16666666666663</ele><time>2026-04-04T11:41:58.188Z</time></trkpt><trkpt lat="44.7973383" lon="9.4877433"><ele>494.0</ele><time>2026-04-04T11:42:00.188Z</time></trkpt><trkpt lat="44.7972967" lon="9.487865"><ele>493.99999999999994</ele><time>2026-04-04T11:42:02.188Z</time></trkpt><trkpt lat="44.79725" lon="9.4879583"><ele>494.0</ele><time>2026-04-04T11:42:04.189Z</time></trkpt><trkpt lat="44.7971917" lon="9.488025"><ele>494.0</ele><time>2026-04-04T11:42:06.189Z</time></trkpt><trkpt lat="44.7971183" lon="9.4880367"><ele>494.0</ele><time>2026-04-04T11:42:08.189Z</time></trkpt><trkpt lat="44.7970383" lon="9.487985"><ele>493.99999999999994</ele><time>2026-04-04T11:42:10.188Z</time></trkpt><trkpt lat="44.7969583" lon="9.4879133"><ele>494.0</ele><time>2026-04-04T11:42:12.188Z</time></trkpt><trkpt lat="44.7968717" lon="9.487845"><ele>496.4</ele><time>2026-04-04T11:42:14.188Z</time></trkpt><trkpt lat="44.7967783" lon="9.4877933"><ele>498.79999999999995</ele><time>2026-04-04T11:42:16.188Z</time></trkpt><trkpt lat="44.7966833" lon="9.4877433"><ele>501.20000000000005</ele><time>2026-04-04T11:42:18.188Z</time></trkpt><trkpt lat="44.796585" lon="9.4877067"><ele>503.6</ele><time>2026-04-04T11:42:20.188Z</time></trkpt><trkpt lat="44.7964967" lon="9.48768"><ele>506.0</ele><time>2026-04-04T11:42:22.188Z</time></trkpt><trkpt lat="44.79644" lon="9.487625"><ele>506.0</ele><time>2026-04-04T11:42:24.192Z</time></trkpt><trkpt lat="44.7964133" lon="9.4875183"><ele>506.0</ele><time>2026-04-04T11:42:26.188Z</time></trkpt><trkpt lat="44.7964133" lon="9.487335"><ele>506.0</ele><time>2026-04-04T11:42:28.189Z</time></trkpt><trkpt lat="44.7964283" lon="9.48723"><ele>506.0</ele><time>2026-04-04T11:42:29.188Z</time></trkpt><trkpt lat="44.7964433" lon="9.4871333"><ele>506.0</ele><time>2026-04-04T11:42:30.189Z</time></trkpt><trkpt lat="44.7964433" lon="9.4869867"><ele>505.8</ele><time>2026-04-04T11:42:32.193Z</time></trkpt><trkpt lat="44.7963983" lon="9.4868633"><ele>505.6</ele><time>2026-04-04T11:42:34.188Z</time></trkpt><trkpt lat="44.7963217" lon="9.48678"><ele>505.4</ele><time>2026-04-04T11:42:36.19Z</time></trkpt><trkpt lat="44.7962217" lon="9.4867233"><ele>505.2</ele><time>2026-04-04T11:42:38.19Z</time></trkpt><trkpt lat="44.7961317" lon="9.4866317"><ele>505.0</ele><time>2026-04-04T11:42:40.188Z</time></trkpt><trkpt lat="44.7960567" lon="9.48654"><ele>508.50000000000006</ele><time>2026-04-04T11:42:42.188Z</time></trkpt><trkpt lat="44.795975" lon="9.4865033"><ele>512.0</ele><time>2026-04-04T11:42:44.188Z</time></trkpt><trkpt lat="44.7958917" lon="9.4865767"><ele>515.5</ele><time>2026-04-04T11:42:47.19Z</time></trkpt><trkpt lat="44.7958617" lon="9.486675"><ele>519.0</ele><time>2026-04-04T11:42:49.19Z</time></trkpt><trkpt lat="44.7958067" lon="9.48682"><ele>522.5</ele><time>2026-04-04T11:42:51.19Z</time></trkpt><trkpt lat="44.7957683" lon="9.4868983"><ele>526.0</ele><time>2026-04-04T11:42:52.189Z</time></trkpt><trkpt lat="44.7957333" lon="9.486975"><ele>526.2</ele><time>2026-04-04T11:42:53.19Z</time></trkpt><trkpt lat="44.79567" lon="9.4871317"><ele>526.4000000000001</ele><time>2026-04-04T11:42:55.191Z</time></trkpt><trkpt lat="44.7956224" lon="9.4872872"><ele>526.6</ele><time>2026-04-04T11:42:57.189Z</time></trkpt><trkpt lat="44.795588" lon="9.4874081"><ele>526.8000000000001</ele><time>2026-04-04T11:42:59.191Z</time></trkpt><trkpt lat="44.7955484" lon="9.4875052"><ele>527.0</ele><time>2026-04-04T11:43:01.189Z</time></trkpt><trkpt lat="44.7954849" lon="9.4875258"><ele>527.0000000000001</ele><time>2026-04-04T11:43:03.19Z</time></trkpt><trkpt lat="44.7954378" lon="9.4874175"><ele>527.0</ele><time>2026-04-04T11:43:05.187Z</time></trkpt><trkpt lat="44.7954306" lon="9.4873269"><ele>527.0</ele><time>2026-04-04T11:43:06.188Z</time></trkpt><trkpt lat="44.7954294" lon="9.4872133"><ele>527.0</ele><time>2026-04-04T11:43:07.188Z</time></trkpt><trkpt lat="44.7954314" lon="9.4871097"><ele>527.0</ele><time>2026-04-04T11:43:08.189Z</time></trkpt><trkpt lat="44.795428" lon="9.4870116"><ele>527.0000000000001</ele><time>2026-04-04T11:43:09.188Z</time></trkpt><trkpt lat="44.7954112" lon="9.4869193"><ele>527.0</ele><time>2026-04-04T11:43:10.188Z</time></trkpt><trkpt lat="44.7953772" lon="9.4868231"><ele>526.8333333333333</ele><time>2026-04-04T11:43:11.189Z</time></trkpt><trkpt lat="44.7953366" lon="9.4867263"><ele>526.6666666666666</ele><time>2026-04-04T11:43:12.191Z</time></trkpt><trkpt lat="44.7952994" lon="9.4866355"><ele>526.5</ele><time>2026-04-04T11:43:13.191Z</time></trkpt><trkpt lat="44.7952607" lon="9.4865632"><ele>526.3333333333334</ele><time>2026-04-04T11:43:14.191Z</time></trkpt><trkpt lat="44.7952098" lon="9.486498"><ele>526.1666666666667</ele><time>2026-04-04T11:43:15.189Z</time></trkpt><trkpt lat="44.7951395" lon="9.4864485"><ele>526.0</ele><time>2026-04-04T11:43:16.189Z</time></trkpt><trkpt lat="44.7950579" lon="9.4864064"><ele>528.1666666666667</ele><time>2026-04-04T11:43:17.189Z</time></trkpt><trkpt lat="44.7949708" lon="9.4863797"><ele>530.3333333333334</ele><time>2026-04-04T11:43:18.188Z</time></trkpt><trkpt lat="44.7948789" lon="9.4863436"><ele>532.5</ele><time>2026-04-04T11:43:19.188Z</time></trkpt><trkpt lat="44.7947908" lon="9.4862974"><ele>534.6666666666666</ele><time>2026-04-04T11:43:20.19Z</time></trkpt><trkpt lat="44.7947179" lon="9.4862572"><ele>536.8333333333333</ele><time>2026-04-04T11:43:21.189Z</time></trkpt><trkpt lat="44.7946327" lon="9.486212"><ele>539.0</ele><time>2026-04-04T11:43:23.188Z</time></trkpt><trkpt lat="44.7945386" lon="9.4861577"><ele>539.0</ele><time>2026-04-04T11:43:25.188Z</time></trkpt><trkpt lat="44.794456" lon="9.4861103"><ele>539.0</ele><time>2026-04-04T11:43:26.188Z</time></trkpt><trkpt lat="44.794338" lon="9.4860449"><ele>539.0</ele><time>2026-04-04T11:43:27.189Z</time></trkpt><trkpt lat="44.7942161" lon="9.4859803"><ele>539.0</ele><time>2026-04-04T11:43:28.188Z</time></trkpt><trkpt lat="44.7941079" lon="9.4859251"><ele>541.0</ele><time>2026-04-04T11:43:29.188Z</time></trkpt><trkpt lat="44.7940227" lon="9.485873"><ele>543.0</ele><time>2026-04-04T11:43:30.188Z</time></trkpt><trkpt lat="44.7939472" lon="9.4858128"><ele>545.0</ele><time>2026-04-04T11:43:31.19Z</time></trkpt><trkpt lat="44.7938707" lon="9.4857508"><ele>547.0</ele><time>2026-04-04T11:43:32.192Z</time></trkpt><trkpt lat="44.7937949" lon="9.4856976"><ele>549.0</ele><time>2026-04-04T11:43:33.188Z</time></trkpt><trkpt lat="44.7937232" lon="9.4856421"><ele>551.0</ele><time>2026-04-04T11:43:34.188Z</time></trkpt><trkpt lat="44.7936586" lon="9.4855775"><ele>551.0</ele><time>2026-04-04T11:43:35.188Z</time></trkpt><trkpt lat="44.7936017" lon="9.485485"><ele>551.0</ele><time>2026-04-04T11:43:36.188Z</time></trkpt><trkpt lat="44.7935267" lon="9.4853833"><ele>551.0</ele><time>2026-04-04T11:43:37.188Z</time></trkpt><trkpt lat="44.7934317" lon="9.485285"><ele>551.0</ele><time>2026-04-04T11:43:38.189Z</time></trkpt><trkpt lat="44.7933167" lon="9.4851933"><ele>551.0</ele><time>2026-04-04T11:43:39.188Z</time></trkpt><trkpt lat="44.7931967" lon="9.48513"><ele>552.8</ele><time>2026-04-04T11:43:40.188Z</time></trkpt><trkpt lat="44.7930983" lon="9.4850883"><ele>554.6</ele><time>2026-04-04T11:43:41.188Z</time></trkpt><trkpt lat="44.7930233" lon="9.4850317"><ele>556.4</ele><time>2026-04-04T11:43:42.188Z</time></trkpt><trkpt lat="44.7929633" lon="9.4849517"><ele>558.2</ele><time>2026-04-04T11:43:43.189Z</time></trkpt><trkpt lat="44.7929083" lon="9.4848383"><ele>560.0</ele><time>2026-04-04T11:43:44.188Z</time></trkpt><trkpt lat="44.7928533" lon="9.484735"><ele>560.0</ele><time>2026-04-04T11:43:45.188Z</time></trkpt><trkpt lat="44.79279" lon="9.48465"><ele>560.0</ele><time>2026-04-04T11:43:46.188Z</time></trkpt><trkpt lat="44.79272" lon="9.48459"><ele>560.0</ele><time>2026-04-04T11:43:47.189Z</time></trkpt><trkpt lat="44.792645" lon="9.4845483"><ele>560.0</ele><time>2026-04-04T11:43:48.188Z</time></trkpt><trkpt lat="44.79255" lon="9.484545"><ele>560.0</ele><time>2026-04-04T11:43:49.188Z</time></trkpt><trkpt lat="44.7924667" lon="9.4845483"><ele>560.0</ele><time>2026-04-04T11:43:50.188Z</time></trkpt><trkpt lat="44.7923983" lon="9.48455"><ele>562.8</ele><time>2026-04-04T11:43:51.188Z</time></trkpt><trkpt lat="44.7922917" lon="9.484545"><ele>565.6</ele><time>2026-04-04T11:43:53.188Z</time></trkpt><trkpt lat="44.7922083" lon="9.4845267"><ele>568.4</ele><time>2026-04-04T11:43:55.188Z</time></trkpt><trkpt lat="44.7922817" lon="9.48451"><ele>571.2</ele><time>2026-04-04T11:44:15.188Z</time></trkpt><trkpt lat="44.7924017" lon="9.4845117"><ele>574.0</ele><time>2026-04-04T11:44:17.188Z</time></trkpt><trkpt lat="44.7925017" lon="9.48452"><ele>574.0</ele><time>2026-04-04T11:44:19.188Z</time></trkpt><trkpt lat="44.7925683" lon="9.484505"><ele>574.0</ele><time>2026-04-04T11:44:21.188Z</time></trkpt><trkpt lat="44.7925033" lon="9.4844617"><ele>574.0</ele><time>2026-04-04T11:44:27.189Z</time></trkpt><trkpt lat="44.7924533" lon="9.4844067"><ele>574.0</ele><time>2026-04-04T11:44:31.19Z</time></trkpt><trkpt lat="44.79244" lon="9.4842583"><ele>574.0</ele><time>2026-04-04T11:44:34.19Z</time></trkpt><trkpt lat="44.792425" lon="9.4841417"><ele>574.0</ele><time>2026-04-04T11:44:36.191Z</time></trkpt><trkpt lat="44.7923933" lon="9.4840283"><ele>574.0</ele><time>2026-04-04T11:44:38.19Z</time></trkpt><trkpt lat="44.7923667" lon="9.4839067"><ele>574.0</ele><time>2026-04-04T11:44:40.19Z</time></trkpt><trkpt lat="44.792335" lon="9.483795"><ele>574.0</ele><time>2026-04-04T11:44:42.19Z</time></trkpt><trkpt lat="44.7923767" lon="9.4838833"><ele>574.0</ele><time>2026-04-04T11:46:07.188Z</time></trkpt><trkpt lat="44.792415" lon="9.4840117"><ele>574.0</ele><time>2026-04-04T11:46:10.188Z</time></trkpt><trkpt lat="44.7924383" lon="9.484125"><ele>574.0</ele><time>2026-04-04T11:46:12.188Z</time></trkpt><trkpt lat="44.7924467" lon="9.4842517"><ele>574.0</ele><time>2026-04-04T11:46:15.188Z</time></trkpt><trkpt lat="44.79248" lon="9.4843717"><ele>574.0</ele><time>2026-04-04T11:46:18.189Z</time></trkpt><trkpt lat="44.7925317" lon="9.484425"><ele>574.0</ele><time>2026-04-04T11:46:20.189Z</time></trkpt><trkpt lat="44.7925983" lon="9.4844567"><ele>574.0</ele><time>2026-04-04T11:46:22.188Z</time></trkpt><trkpt lat="44.7925267" lon="9.4845267"><ele>574.0</ele><time>2026-04-04T11:46:32.19Z</time></trkpt><trkpt lat="44.7924183" lon="9.48454"><ele>574.0</ele><time>2026-04-04T11:46:34.191Z</time></trkpt><trkpt lat="44.7922983" lon="9.4845317"><ele>574.0</ele><time>2026-04-04T11:46:36.19Z</time></trkpt><trkpt lat="44.792215" lon="9.48451"><ele>574.0</ele><time>2026-04-04T11:46:37.19Z</time></trkpt><trkpt lat="44.7921183" lon="9.4844683"><ele>574.0</ele><time>2026-04-04T11:46:38.19Z</time></trkpt><trkpt lat="44.7920017" lon="9.48443"><ele>574.0</ele><time>2026-04-04T11:46:39.189Z</time></trkpt><trkpt lat="44.7919" lon="9.4843933"><ele>574.0</ele><time>2026-04-04T11:46:40.189Z</time></trkpt><trkpt lat="44.7918117" lon="9.48435"><ele>576.8</ele><time>2026-04-04T11:46:41.19Z</time></trkpt><trkpt lat="44.7917283" lon="9.4842767"><ele>579.5999999999999</ele><time>2026-04-04T11:46:42.19Z</time></trkpt><trkpt lat="44.7916533" lon="9.4841817"><ele>582.4</ele><time>2026-04-04T11:46:43.189Z</time></trkpt><trkpt lat="44.7915933" lon="9.48408"><ele>585.1999999999999</ele><time>2026-04-04T11:46:44.19Z</time></trkpt><trkpt lat="44.7915567" lon="9.4839767"><ele>588.0</ele><time>2026-04-04T11:46:45.19Z</time></trkpt><trkpt lat="44.7915283" lon="9.4838717"><ele>588.0</ele><time>2026-04-04T11:46:46.189Z</time></trkpt><trkpt lat="44.7915083" lon="9.4837733"><ele>588.0</ele><time>2026-04-04T11:46:47.189Z</time></trkpt><trkpt lat="44.7914867" lon="9.4836867"><ele>588.0</ele><time>2026-04-04T11:46:48.189Z</time></trkpt><trkpt lat="44.7914317" lon="9.483585"><ele>588.0</ele><time>2026-04-04T11:46:50.19Z</time></trkpt><trkpt lat="44.79134" lon="9.4836133"><ele>588.0</ele><time>2026-04-04T11:46:52.188Z</time></trkpt><trkpt lat="44.79126" lon="9.483745"><ele>588.0</ele><time>2026-04-04T11:46:54.19Z</time></trkpt><trkpt lat="44.791265" lon="9.4839283"><ele>588.0</ele><time>2026-04-04T11:46:56.19Z</time></trkpt><trkpt lat="44.7912883" lon="9.484045"><ele>588.0</ele><time>2026-04-04T11:46:57.19Z</time></trkpt><trkpt lat="44.7912983" lon="9.484155"><ele>588.0</ele><time>2026-04-04T11:46:58.19Z</time></trkpt><trkpt lat="44.791295" lon="9.4842733"><ele>588.0</ele><time>2026-04-04T11:46:59.191Z</time></trkpt><trkpt lat="44.791275" lon="9.4844"><ele>588.0</ele><time>2026-04-04T11:47:00.189Z</time></trkpt><trkpt lat="44.7912467" lon="9.4845217"><ele>588.0</ele><time>2026-04-04T11:47:01.19Z</time></trkpt><trkpt lat="44.7912067" lon="9.4846417"><ele>588.8</ele><time>2026-04-04T11:47:02.191Z</time></trkpt><trkpt lat="44.7911567" lon="9.48475"><ele>589.5999999999999</ele><time>2026-04-04T11:47:03.19Z</time></trkpt><trkpt lat="44.7911117" lon="9.4848317"><ele>590.4000000000001</ele><time>2026-04-04T11:47:04.188Z</time></trkpt><trkpt lat="44.7910267" lon="9.484915"><ele>591.2</ele><time>2026-04-04T11:47:06.191Z</time></trkpt><trkpt lat="44.7909167" lon="9.4848867"><ele>592.0</ele><time>2026-04-04T11:47:08.192Z</time></trkpt><trkpt lat="44.790845" lon="9.4848367"><ele>593.8000000000001</ele><time>2026-04-04T11:47:09.19Z</time></trkpt><trkpt lat="44.7907733" lon="9.4847617"><ele>595.6</ele><time>2026-04-04T11:47:10.19Z</time></trkpt><trkpt lat="44.7907083" lon="9.4846567"><ele>597.4000000000001</ele><time>2026-04-04T11:47:11.191Z</time></trkpt><trkpt lat="44.79064" lon="9.4845667"><ele>599.2</ele><time>2026-04-04T11:47:12.191Z</time></trkpt><trkpt lat="44.7905633" lon="9.4844867"><ele>601.0</ele><time>2026-04-04T11:47:13.191Z</time></trkpt><trkpt lat="44.79048" lon="9.4844083"><ele>601.0</ele><time>2026-04-04T11:47:14.191Z</time></trkpt><trkpt lat="44.7903967" lon="9.4843183"><ele>601.0</ele><time>2026-04-04T11:47:15.19Z</time></trkpt><trkpt lat="44.7903417" lon="9.4842133"><ele>601.0</ele><time>2026-04-04T11:47:16.189Z</time></trkpt><trkpt lat="44.7903" lon="9.4841"><ele>601.0</ele><time>2026-04-04T11:47:17.188Z</time></trkpt><trkpt lat="44.7902633" lon="9.484"><ele>601.0</ele><time>2026-04-04T11:47:18.19Z</time></trkpt><trkpt lat="44.790225" lon="9.4839233"><ele>601.0</ele><time>2026-04-04T11:47:19.189Z</time></trkpt><trkpt lat="44.7901733" lon="9.4838583"><ele>604.75</ele><time>2026-04-04T11:47:20.189Z</time></trkpt><trkpt lat="44.7900767" lon="9.483785"><ele>608.5</ele><time>2026-04-04T11:47:21.189Z</time></trkpt><trkpt lat="44.7899583" lon="9.4836833"><ele>612.25</ele><time>2026-04-04T11:47:22.191Z</time></trkpt><trkpt lat="44.7898367" lon="9.4835733"><ele>616.0</ele><time>2026-04-04T11:47:23.188Z</time></trkpt><trkpt lat="44.7897333" lon="9.483485"><ele>616.0</ele><time>2026-04-04T11:47:24.188Z</time></trkpt><trkpt lat="44.7896517" lon="9.4834083"><ele>616.0</ele><time>2026-04-04T11:47:25.191Z</time></trkpt><trkpt lat="44.789585" lon="9.4833333"><ele>616.0</ele><time>2026-04-04T11:47:26.191Z</time></trkpt><trkpt lat="44.7895367" lon="9.48325"><ele>616.0</ele><time>2026-04-04T11:47:27.191Z</time></trkpt><trkpt lat="44.7895167" lon="9.483135"><ele>616.0</ele><time>2026-04-04T11:47:28.19Z</time></trkpt><trkpt lat="44.789525" lon="9.4830017"><ele>616.0</ele><time>2026-04-04T11:47:29.189Z</time></trkpt><trkpt lat="44.7895433" lon="9.4828767"><ele>616.5</ele><time>2026-04-04T11:47:30.188Z</time></trkpt><trkpt lat="44.789535" lon="9.4827783"><ele>617.0</ele><time>2026-04-04T11:47:31.19Z</time></trkpt><trkpt lat="44.789485" lon="9.482635"><ele>617.5</ele><time>2026-04-04T11:47:33.191Z</time></trkpt><trkpt lat="44.789365" lon="9.4825833"><ele>618.0</ele><time>2026-04-04T11:47:35.188Z</time></trkpt><trkpt lat="44.7892967" lon="9.4825983"><ele>618.5</ele><time>2026-04-04T11:47:36.188Z</time></trkpt><trkpt lat="44.7892367" lon="9.4826483"><ele>619.0</ele><time>2026-04-04T11:47:37.188Z</time></trkpt><trkpt lat="44.78918" lon="9.482705"><ele>621.1666666666667</ele><time>2026-04-04T11:47:38.192Z</time></trkpt><trkpt lat="44.7891217" lon="9.4827683"><ele>623.3333333333334</ele><time>2026-04-04T11:47:39.19Z</time></trkpt><trkpt lat="44.7890433" lon="9.4828883"><ele>625.5</ele><time>2026-04-04T11:47:41.189Z</time></trkpt><trkpt lat="44.7890067" lon="9.4830083"><ele>627.6666666666666</ele><time>2026-04-04T11:47:43.192Z</time></trkpt><trkpt lat="44.7890017" lon="9.48314"><ele>629.8333333333333</ele><time>2026-04-04T11:47:45.19Z</time></trkpt><trkpt lat="44.7890133" lon="9.4832367"><ele>632.0</ele><time>2026-04-04T11:47:47.19Z</time></trkpt><trkpt lat="44.7890117" lon="9.4833633"><ele>632.5</ele><time>2026-04-04T11:47:59.19Z</time></trkpt><trkpt lat="44.78902" lon="9.4835117"><ele>633.0</ele><time>2026-04-04T11:48:00.193Z</time></trkpt><trkpt lat="44.7890083" lon="9.483715"><ele>633.5</ele><time>2026-04-04T11:48:01.192Z</time></trkpt><trkpt lat="44.788995" lon="9.4839167"><ele>634.0</ele><time>2026-04-04T11:48:02.189Z</time></trkpt><trkpt lat="44.7889967" lon="9.4840833"><ele>635.0</ele><time>2026-04-04T11:48:03.189Z</time></trkpt><trkpt lat="44.789" lon="9.4841917"><ele>636.0</ele><time>2026-04-04T11:48:04.188Z</time></trkpt><trkpt lat="44.7889967" lon="9.4842817"><ele>637.0</ele><time>2026-04-04T11:48:05.19Z</time></trkpt><trkpt lat="44.7889233" lon="9.484365"><ele>638.0</ele><time>2026-04-04T11:48:07.189Z</time></trkpt><trkpt lat="44.7888583" lon="9.4843667"><ele>639.0</ele><time>2026-04-04T11:48:08.188Z</time></trkpt><trkpt lat="44.7887767" lon="9.4843433"><ele>640.0</ele><time>2026-04-04T11:48:09.189Z</time></trkpt><trkpt lat="44.78867" lon="9.4842933"><ele>640.0</ele><time>2026-04-04T11:48:10.189Z</time></trkpt><trkpt lat="44.7885267" lon="9.4841967"><ele>640.0</ele><time>2026-04-04T11:48:11.188Z</time></trkpt><trkpt lat="44.7883883" lon="9.4841167"><ele>640.0</ele><time>2026-04-04T11:48:12.192Z</time></trkpt><trkpt lat="44.7882783" lon="9.4840567"><ele>640.0</ele><time>2026-04-04T11:48:13.191Z</time></trkpt><trkpt lat="44.7882033" lon="9.4839933"><ele>642.6</ele><time>2026-04-04T11:48:14.191Z</time></trkpt><trkpt lat="44.7881333" lon="9.483915"><ele>645.2</ele><time>2026-04-04T11:48:15.191Z</time></trkpt><trkpt lat="44.7880817" lon="9.4838233"><ele>647.8</ele><time>2026-04-04T11:48:16.187Z</time></trkpt><trkpt lat="44.7880517" lon="9.48366"><ele>650.4</ele><time>2026-04-04T11:48:17.187Z</time></trkpt><trkpt lat="44.78802" lon="9.4834867"><ele>653.0</ele><time>2026-04-04T11:48:18.187Z</time></trkpt><trkpt lat="44.787995" lon="9.48333"><ele>653.0</ele><time>2026-04-04T11:48:19.187Z</time></trkpt><trkpt lat="44.787965" lon="9.483195"><ele>653.0</ele><time>2026-04-04T11:48:20.188Z</time></trkpt><trkpt lat="44.7879333" lon="9.48306"><ele>653.0</ele><time>2026-04-04T11:48:21.187Z</time></trkpt><trkpt lat="44.7878867" lon="9.4829317"><ele>653.0</ele><time>2026-04-04T11:48:22.187Z</time></trkpt><trkpt lat="44.7878217" lon="9.4828267"><ele>653.0</ele><time>2026-04-04T11:48:23.188Z</time></trkpt><trkpt lat="44.7877217" lon="9.4827267"><ele>656.4</ele><time>2026-04-04T11:48:24.188Z</time></trkpt><trkpt lat="44.787605" lon="9.4826283"><ele>659.8</ele><time>2026-04-04T11:48:25.188Z</time></trkpt><trkpt lat="44.787495" lon="9.482535"><ele>663.2</ele><time>2026-04-04T11:48:26.188Z</time></trkpt><trkpt lat="44.7874217" lon="9.4824483"><ele>666.6</ele><time>2026-04-04T11:48:27.189Z</time></trkpt><trkpt lat="44.7873733" lon="9.4823633"><ele>670.0</ele><time>2026-04-04T11:48:28.189Z</time></trkpt><trkpt lat="44.7873467" lon="9.4822667"><ele>670.0</ele><time>2026-04-04T11:48:29.189Z</time></trkpt><trkpt lat="44.78734" lon="9.482145"><ele>670.0</ele><time>2026-04-04T11:48:30.187Z</time></trkpt><trkpt lat="44.7873567" lon="9.4820067"><ele>670.0</ele><time>2026-04-04T11:48:31.188Z</time></trkpt><trkpt lat="44.7873783" lon="9.4818633"><ele>670.0</ele><time>2026-04-04T11:48:32.188Z</time></trkpt><trkpt lat="44.7873883" lon="9.4817283"><ele>670.0</ele><time>2026-04-04T11:48:33.187Z</time></trkpt><trkpt lat="44.7873683" lon="9.48159"><ele>669.75</ele><time>2026-04-04T11:48:34.189Z</time></trkpt><trkpt lat="44.7873233" lon="9.4814233"><ele>669.5</ele><time>2026-04-04T11:48:35.188Z</time></trkpt><trkpt lat="44.78725" lon="9.4812417"><ele>669.25</ele><time>2026-04-04T11:48:36.19Z</time></trkpt><trkpt lat="44.7871583" lon="9.4810583"><ele>669.0</ele><time>2026-04-04T11:48:37.188Z</time></trkpt><trkpt lat="44.7870567" lon="9.480895"><ele>668.5</ele><time>2026-04-04T11:48:38.188Z</time></trkpt><trkpt lat="44.78695" lon="9.48076"><ele>668.0</ele><time>2026-04-04T11:48:39.188Z</time></trkpt><trkpt lat="44.7868233" lon="9.4806517"><ele>667.5</ele><time>2026-04-04T11:48:40.187Z</time></trkpt><trkpt lat="44.78669" lon="9.4805483"><ele>667.0</ele><time>2026-04-04T11:48:41.188Z</time></trkpt><trkpt lat="44.7865683" lon="9.4804267"><ele>670.4000000000001</ele><time>2026-04-04T11:48:42.189Z</time></trkpt><trkpt lat="44.7864717" lon="9.48031"><ele>673.8000000000001</ele><time>2026-04-04T11:48:43.19Z</time></trkpt><trkpt lat="44.7864" lon="9.4802033"><ele>677.2</ele><time>2026-04-04T11:48:44.188Z</time></trkpt><trkpt lat="44.7863483" lon="9.4801067"><ele>680.6</ele><time>2026-04-04T11:48:45.188Z</time></trkpt><trkpt lat="44.7863167" lon="9.4800117"><ele>684.0</ele><time>2026-04-04T11:48:46.188Z</time></trkpt><trkpt lat="44.7863033" lon="9.4799067"><ele>684.0</ele><time>2026-04-04T11:48:47.188Z</time></trkpt><trkpt lat="44.7863183" lon="9.4797917"><ele>684.0</ele><time>2026-04-04T11:48:48.187Z</time></trkpt><trkpt lat="44.7863317" lon="9.4796783"><ele>684.0</ele><time>2026-04-04T11:48:49.189Z</time></trkpt><trkpt lat="44.7863333" lon="9.4795867"><ele>684.0</ele><time>2026-04-04T11:48:50.191Z</time></trkpt><trkpt lat="44.786285" lon="9.479425"><ele>684.0</ele><time>2026-04-04T11:48:52.188Z</time></trkpt><trkpt lat="44.7861617" lon="9.47937"><ele>684.3333333333334</ele><time>2026-04-04T11:48:53.189Z</time></trkpt><trkpt lat="44.786025" lon="9.4793133"><ele>684.6666666666667</ele><time>2026-04-04T11:48:54.188Z</time></trkpt><trkpt lat="44.7858533" lon="9.47927"><ele>685.0</ele><time>2026-04-04T11:48:55.188Z</time></trkpt><trkpt lat="44.7856983" lon="9.4792433"><ele>687.6</ele><time>2026-04-04T11:48:56.188Z</time></trkpt><trkpt lat="44.78557" lon="9.4792167"><ele>690.2</ele><time>2026-04-04T11:48:57.189Z</time></trkpt><trkpt lat="44.7854683" lon="9.4791867"><ele>692.8</ele><time>2026-04-04T11:48:58.189Z</time></trkpt><trkpt lat="44.7853833" lon="9.4791417"><ele>695.4</ele><time>2026-04-04T11:48:59.189Z</time></trkpt><trkpt lat="44.7853083" lon="9.4790533"><ele>698.0</ele><time>2026-04-04T11:49:00.188Z</time></trkpt><trkpt lat="44.78522" lon="9.4789217"><ele>700.8</ele><time>2026-04-04T11:49:01.19Z</time></trkpt><trkpt lat="44.7851367" lon="9.478785"><ele>703.5999999999999</ele><time>2026-04-04T11:49:02.188Z</time></trkpt><trkpt lat="44.7850683" lon="9.4786667"><ele>706.4000000000001</ele><time>2026-04-04T11:49:03.188Z</time></trkpt><trkpt lat="44.7850283" lon="9.4785483"><ele>709.2</ele><time>2026-04-04T11:49:04.187Z</time></trkpt><trkpt lat="44.7850017" lon="9.4784133"><ele>712.0</ele><time>2026-04-04T11:49:05.189Z</time></trkpt><trkpt lat="44.7849917" lon="9.4782583"><ele>712.0</ele><time>2026-04-04T11:49:06.188Z</time></trkpt><trkpt lat="44.7849817" lon="9.4780833"><ele>712.0</ele><time>2026-04-04T11:49:07.189Z</time></trkpt><trkpt lat="44.78497" lon="9.47788"><ele>712.0</ele><time>2026-04-04T11:49:08.189Z</time></trkpt><trkpt lat="44.7849533" lon="9.4776867"><ele>712.0</ele><time>2026-04-04T11:49:09.189Z</time></trkpt><trkpt lat="44.784945" lon="9.4775133"><ele>712.2</ele><time>2026-04-04T11:49:10.189Z</time></trkpt><trkpt lat="44.784925" lon="9.47737"><ele>712.4000000000001</ele><time>2026-04-04T11:49:11.189Z</time></trkpt><trkpt lat="44.7848833" lon="9.4772517"><ele>712.5999999999999</ele><time>2026-04-04T11:49:12.188Z</time></trkpt><trkpt lat="44.78482" lon="9.4771367"><ele>712.8</ele><time>2026-04-04T11:49:13.188Z</time></trkpt><trkpt lat="44.7847417" lon="9.47703"><ele>713.0</ele><time>2026-04-04T11:49:14.188Z</time></trkpt><trkpt lat="44.78468" lon="9.47694"><ele>714.2</ele><time>2026-04-04T11:49:15.189Z</time></trkpt><trkpt lat="44.7846417" lon="9.4768633"><ele>715.4</ele><time>2026-04-04T11:49:16.188Z</time></trkpt><trkpt lat="44.7846317" lon="9.4766933"><ele>716.6</ele><time>2026-04-04T11:49:18.188Z</time></trkpt><trkpt lat="44.784665" lon="9.476585"><ele>717.8000000000001</ele><time>2026-04-04T11:49:19.189Z</time></trkpt><trkpt lat="44.784725" lon="9.47646"><ele>719.0</ele><time>2026-04-04T11:49:20.191Z</time></trkpt><trkpt lat="44.7848033" lon="9.4763333"><ele>718.75</ele><time>2026-04-04T11:49:21.189Z</time></trkpt><trkpt lat="44.784895" lon="9.4762267"><ele>718.5</ele><time>2026-04-04T11:49:22.19Z</time></trkpt><trkpt lat="44.7850033" lon="9.4761417"><ele>718.25</ele><time>2026-04-04T11:49:23.19Z</time></trkpt><trkpt lat="44.7851417" lon="9.4760433"><ele>718.0</ele><time>2026-04-04T11:49:24.19Z</time></trkpt><trkpt lat="44.7852767" lon="9.475945"><ele>718.0</ele><time>2026-04-04T11:49:25.19Z</time></trkpt><trkpt lat="44.785375" lon="9.47586"><ele>718.0</ele><time>2026-04-04T11:49:26.19Z</time></trkpt><trkpt lat="44.78545" lon="9.4757667"><ele>718.0</ele><time>2026-04-04T11:49:27.19Z</time></trkpt><trkpt lat="44.7855117" lon="9.4756467"><ele>718.0</ele><time>2026-04-04T11:49:28.189Z</time></trkpt><trkpt lat="44.7855667" lon="9.4755083"><ele>718.0</ele><time>2026-04-04T11:49:29.19Z</time></trkpt><trkpt lat="44.7856167" lon="9.4753783"><ele>718.8333333333334</ele><time>2026-04-04T11:49:30.191Z</time></trkpt><trkpt lat="44.7856667" lon="9.4752567"><ele>719.6666666666667</ele><time>2026-04-04T11:49:31.189Z</time></trkpt><trkpt lat="44.785705" lon="9.4751583"><ele>720.5</ele><time>2026-04-04T11:49:32.192Z</time></trkpt><trkpt lat="44.7857333" lon="9.475065"><ele>721.3333333333334</ele><time>2026-04-04T11:49:33.189Z</time></trkpt><trkpt lat="44.78575" lon="9.4749767"><ele>722.1666666666666</ele><time>2026-04-04T11:49:34.189Z</time></trkpt><trkpt lat="44.7857367" lon="9.4748167"><ele>723.0</ele><time>2026-04-04T11:49:36.19Z</time></trkpt><trkpt lat="44.785665" lon="9.4746817"><ele>723.0</ele><time>2026-04-04T11:49:38.19Z</time></trkpt><trkpt lat="44.7855967" lon="9.4746267"><ele>723.0</ele><time>2026-04-04T11:49:39.189Z</time></trkpt><trkpt lat="44.7855017" lon="9.4745617"><ele>723.0</ele><time>2026-04-04T11:49:40.19Z</time></trkpt><trkpt lat="44.7853933" lon="9.4744967"><ele>723.0</ele><time>2026-04-04T11:49:41.188Z</time></trkpt><trkpt lat="44.7852733" lon="9.4744317"><ele>723.0</ele><time>2026-04-04T11:49:42.189Z</time></trkpt><trkpt lat="44.785155" lon="9.4743683"><ele>725.3333333333334</ele><time>2026-04-04T11:49:43.189Z</time></trkpt><trkpt lat="44.7850433" lon="9.474315"><ele>727.6666666666666</ele><time>2026-04-04T11:49:44.189Z</time></trkpt><trkpt lat="44.7849633" lon="9.474265"><ele>730.0</ele><time>2026-04-04T11:49:45.188Z</time></trkpt><trkpt lat="44.7848983" lon="9.4742117"><ele>732.3333333333333</ele><time>2026-04-04T11:49:46.188Z</time></trkpt><trkpt lat="44.78485" lon="9.47413"><ele>734.6666666666666</ele><time>2026-04-04T11:49:47.188Z</time></trkpt><trkpt lat="44.7848067" lon="9.4740167"><ele>737.0</ele><time>2026-04-04T11:49:48.19Z</time></trkpt><trkpt lat="44.784755" lon="9.47391"><ele>737.0</ele><time>2026-04-04T11:49:49.19Z</time></trkpt><trkpt lat="44.784685" lon="9.4738133"><ele>737.0</ele><time>2026-04-04T11:49:50.189Z</time></trkpt><trkpt lat="44.7846017" lon="9.4737183"><ele>737.0</ele><time>2026-04-04T11:49:51.189Z</time></trkpt><trkpt lat="44.7845117" lon="9.47362"><ele>737.0</ele><time>2026-04-04T11:49:52.189Z</time></trkpt><trkpt lat="44.78443" lon="9.473525"><ele>737.0</ele><time>2026-04-04T11:49:53.189Z</time></trkpt><trkpt lat="44.78436" lon="9.4734467"><ele>739.0</ele><time>2026-04-04T11:49:54.189Z</time></trkpt><trkpt lat="44.7842933" lon="9.4733833"><ele>741.0</ele><time>2026-04-04T11:49:55.189Z</time></trkpt><trkpt lat="44.78422" lon="9.4733317"><ele>743.0</ele><time>2026-04-04T11:49:56.188Z</time></trkpt><trkpt lat="44.784135" lon="9.47328"><ele>745.0</ele><time>2026-04-04T11:49:57.19Z</time></trkpt><trkpt lat="44.78404" lon="9.4732183"><ele>747.0</ele><time>2026-04-04T11:49:58.189Z</time></trkpt><trkpt lat="44.7839417" lon="9.47314"><ele>747.0</ele><time>2026-04-04T11:49:59.188Z</time></trkpt><trkpt lat="44.78385" lon="9.47305"><ele>747.0</ele><time>2026-04-04T11:50:00.188Z</time></trkpt><trkpt lat="44.7837683" lon="9.4729733"><ele>747.0</ele><time>2026-04-04T11:50:01.19Z</time></trkpt><trkpt lat="44.7836917" lon="9.47292"><ele>747.0</ele><time>2026-04-04T11:50:02.189Z</time></trkpt><trkpt lat="44.7836067" lon="9.47289"><ele>747.0</ele><time>2026-04-04T11:50:03.188Z</time></trkpt><trkpt lat="44.783515" lon="9.4728767"><ele>749.0</ele><time>2026-04-04T11:50:04.19Z</time></trkpt><trkpt lat="44.7834167" lon="9.4728883"><ele>751.0</ele><time>2026-04-04T11:50:05.189Z</time></trkpt><trkpt lat="44.7833117" lon="9.47291"><ele>753.0</ele><time>2026-04-04T11:50:06.188Z</time></trkpt><trkpt lat="44.7832167" lon="9.4729467"><ele>755.0</ele><time>2026-04-04T11:50:07.189Z</time></trkpt><trkpt lat="44.7831383" lon="9.472995"><ele>757.0</ele><time>2026-04-04T11:50:08.19Z</time></trkpt><trkpt lat="44.7830633" lon="9.4730533"><ele>757.0</ele><time>2026-04-04T11:50:09.19Z</time></trkpt><trkpt lat="44.7829967" lon="9.4731483"><ele>757.0</ele><time>2026-04-04T11:50:10.187Z</time></trkpt><trkpt lat="44.782935" lon="9.47325"><ele>757.0</ele><time>2026-04-04T11:50:11.188Z</time></trkpt><trkpt lat="44.78288" lon="9.473335"><ele>757.0</ele><time>2026-04-04T11:50:12.189Z</time></trkpt><trkpt lat="44.7828283" lon="9.4734067"><ele>757.0</ele><time>2026-04-04T11:50:13.188Z</time></trkpt><trkpt lat="44.7827783" lon="9.4734683"><ele>757.0</ele><time>2026-04-04T11:50:14.188Z</time></trkpt><trkpt lat="44.7826967" lon="9.4735383"><ele>759.3333333333334</ele><time>2026-04-04T11:50:16.189Z</time></trkpt><trkpt lat="44.78262" lon="9.4735067"><ele>761.6666666666667</ele><time>2026-04-04T11:50:18.188Z</time></trkpt><trkpt lat="44.7825433" lon="9.4733733"><ele>764.0</ele><time>2026-04-04T11:50:20.188Z</time></trkpt><trkpt lat="44.7825083" lon="9.473265"><ele>766.3333333333334</ele><time>2026-04-04T11:50:21.187Z</time></trkpt><trkpt lat="44.78248" lon="9.4731517"><ele>768.6666666666666</ele><time>2026-04-04T11:50:22.187Z</time></trkpt><trkpt lat="44.78247" lon="9.4730483"><ele>771.0</ele><time>2026-04-04T11:50:23.189Z</time></trkpt><trkpt lat="44.78247" lon="9.4729483"><ele>769.75</ele><time>2026-04-04T11:50:24.188Z</time></trkpt><trkpt lat="44.782505" lon="9.4728367"><ele>768.5</ele><time>2026-04-04T11:50:25.188Z</time></trkpt><trkpt lat="44.7825633" lon="9.47271"><ele>767.25</ele><time>2026-04-04T11:50:26.19Z</time></trkpt><trkpt lat="44.78264" lon="9.4725317"><ele>766.0</ele><time>2026-04-04T11:50:27.19Z</time></trkpt><trkpt lat="44.782705" lon="9.472355"><ele>766.0</ele><time>2026-04-04T11:50:28.189Z</time></trkpt><trkpt lat="44.7827617" lon="9.472195"><ele>766.0</ele><time>2026-04-04T11:50:29.188Z</time></trkpt><trkpt lat="44.7828017" lon="9.472065"><ele>766.0</ele><time>2026-04-04T11:50:30.188Z</time></trkpt><trkpt lat="44.7828233" lon="9.4719317"><ele>766.0</ele><time>2026-04-04T11:50:31.191Z</time></trkpt><trkpt lat="44.7828333" lon="9.4717833"><ele>766.0</ele><time>2026-04-04T11:50:32.19Z</time></trkpt><trkpt lat="44.78284" lon="9.4716283"><ele>768.0</ele><time>2026-04-04T11:50:33.189Z</time></trkpt><trkpt lat="44.7828467" lon="9.4714833"><ele>770.0</ele><time>2026-04-04T11:50:34.189Z</time></trkpt><trkpt lat="44.7828617" lon="9.4713583"><ele>772.0</ele><time>2026-04-04T11:50:35.191Z</time></trkpt><trkpt lat="44.78289" lon="9.4712567"><ele>774.0</ele><time>2026-04-04T11:50:36.19Z</time></trkpt><trkpt lat="44.7829283" lon="9.4711667"><ele>775.9999999999999</ele><time>2026-04-04T11:50:37.187Z</time></trkpt><trkpt lat="44.7829833" lon="9.4710983"><ele>778.0</ele><time>2026-04-04T11:50:38.188Z</time></trkpt><trkpt lat="44.7830567" lon="9.4710517"><ele>779.9999999999999</ele><time>2026-04-04T11:50:39.188Z</time></trkpt><trkpt lat="44.7831267" lon="9.470995"><ele>782.0</ele><time>2026-04-04T11:50:40.189Z</time></trkpt><trkpt lat="44.7831833" lon="9.4709367"><ele>784.0</ele><time>2026-04-04T11:50:41.188Z</time></trkpt><trkpt lat="44.7832383" lon="9.4707933"><ele>786.0</ele><time>2026-04-04T11:50:43.189Z</time></trkpt><trkpt lat="44.7832533" lon="9.4706967"><ele>787.9999999999999</ele><time>2026-04-04T11:50:44.19Z</time></trkpt><trkpt lat="44.7832583" lon="9.47057"><ele>790.0</ele><time>2026-04-04T11:50:45.19Z</time></trkpt><trkpt lat="44.783255" lon="9.470415"><ele>792.5</ele><time>2026-04-04T11:50:46.187Z</time></trkpt><trkpt lat="44.7832767" lon="9.47022"><ele>795.0</ele><time>2026-04-04T11:50:47.187Z</time></trkpt><trkpt lat="44.7833133" lon="9.470045"><ele>797.5</ele><time>2026-04-04T11:50:48.188Z</time></trkpt><trkpt lat="44.7833583" lon="9.4698933"><ele>800.0</ele><time>2026-04-04T11:50:49.187Z</time></trkpt><trkpt lat="44.7833967" lon="9.4697633"><ele>800.0</ele><time>2026-04-04T11:50:50.188Z</time></trkpt><trkpt lat="44.783425" lon="9.469635"><ele>800.0</ele><time>2026-04-04T11:50:51.188Z</time></trkpt><trkpt lat="44.7834433" lon="9.4694967"><ele>800.0</ele><time>2026-04-04T11:50:52.187Z</time></trkpt><trkpt lat="44.78345" lon="9.4693517"><ele>800.0</ele><time>2026-04-04T11:50:53.187Z</time></trkpt><trkpt lat="44.7834417" lon="9.46921"><ele>800.0</ele><time>2026-04-04T11:50:54.188Z</time></trkpt><trkpt lat="44.7834183" lon="9.46908"><ele>801.25</ele><time>2026-04-04T11:50:55.187Z</time></trkpt><trkpt lat="44.7833767" lon="9.4689517"><ele>802.5</ele><time>2026-04-04T11:50:56.189Z</time></trkpt><trkpt lat="44.7832983" lon="9.4688283"><ele>803.75</ele><time>2026-04-04T11:50:57.189Z</time></trkpt><trkpt lat="44.7831917" lon="9.4686867"><ele>805.0</ele><time>2026-04-04T11:50:58.188Z</time></trkpt><trkpt lat="44.7830767" lon="9.4685317"><ele>806.6666666666666</ele><time>2026-04-04T11:50:59.19Z</time></trkpt><trkpt lat="44.7829517" lon="9.4683533"><ele>808.3333333333333</ele><time>2026-04-04T11:51:00.188Z</time></trkpt><trkpt lat="44.7828367" lon="9.4681683"><ele>810.0</ele><time>2026-04-04T11:51:01.189Z</time></trkpt><trkpt lat="44.782735" lon="9.467995"><ele>812.0</ele><time>2026-04-04T11:51:02.188Z</time></trkpt><trkpt lat="44.782655" lon="9.4678433"><ele>814.0</ele><time>2026-04-04T11:51:03.189Z</time></trkpt><trkpt lat="44.7825933" lon="9.46771"><ele>816.0</ele><time>2026-04-04T11:51:04.188Z</time></trkpt><trkpt lat="44.7825567" lon="9.4675833"><ele>818.0</ele><time>2026-04-04T11:51:05.189Z</time></trkpt><trkpt lat="44.78255" lon="9.4674433"><ele>820.0</ele><time>2026-04-04T11:51:06.188Z</time></trkpt><trkpt lat="44.7825667" lon="9.46729"><ele>823.6666666666666</ele><time>2026-04-04T11:51:07.188Z</time></trkpt><trkpt lat="44.7826" lon="9.467105"><ele>827.3333333333333</ele><time>2026-04-04T11:51:08.189Z</time></trkpt><trkpt lat="44.782645" lon="9.4668833"><ele>831.0</ele><time>2026-04-04T11:51:09.281Z</time></trkpt><trkpt lat="44.782685" lon="9.46666"><ele>831.5</ele><time>2026-04-04T11:51:10.189Z</time></trkpt><trkpt lat="44.7827067" lon="9.4664667"><ele>832.0</ele><time>2026-04-04T11:51:11.189Z</time></trkpt><trkpt lat="44.782715" lon="9.4662817"><ele>832.5</ele><time>2026-04-04T11:51:12.189Z</time></trkpt><trkpt lat="44.78272" lon="9.4660783"><ele>833.0</ele><time>2026-04-04T11:51:13.19Z</time></trkpt><trkpt lat="44.78272" lon="9.4658767"><ele>835.25</ele><time>2026-04-04T11:51:14.189Z</time></trkpt><trkpt lat="44.782725" lon="9.4656933"><ele>837.5</ele><time>2026-04-04T11:51:15.19Z</time></trkpt><trkpt lat="44.782715" lon="9.4655233"><ele>839.75</ele><time>2026-04-04T11:51:16.187Z</time></trkpt><trkpt lat="44.7826833" lon="9.465345"><ele>842.0</ele><time>2026-04-04T11:51:17.187Z</time></trkpt><trkpt lat="44.78264" lon="9.4651517"><ele>842.0</ele><time>2026-04-04T11:51:18.188Z</time></trkpt><trkpt lat="44.7825983" lon="9.464935"><ele>842.0</ele><time>2026-04-04T11:51:19.188Z</time></trkpt><trkpt lat="44.7825667" lon="9.4647283"><ele>842.0</ele><time>2026-04-04T11:51:20.19Z</time></trkpt><trkpt lat="44.7825383" lon="9.4645367"><ele>842.0</ele><time>2026-04-04T11:51:21.189Z</time></trkpt><trkpt lat="44.7825133" lon="9.464355"><ele>842.2</ele><time>2026-04-04T11:51:22.189Z</time></trkpt><trkpt lat="44.78249" lon="9.4641767"><ele>842.4000000000001</ele><time>2026-04-04T11:51:23.188Z</time></trkpt><trkpt lat="44.7824683" lon="9.4640117"><ele>842.5999999999999</ele><time>2026-04-04T11:51:24.188Z</time></trkpt><trkpt lat="44.7824467" lon="9.463865"><ele>842.8</ele><time>2026-04-04T11:51:25.189Z</time></trkpt><trkpt lat="44.7824267" lon="9.4637517"><ele>843.0</ele><time>2026-04-04T11:51:26.188Z</time></trkpt><trkpt lat="44.7824017" lon="9.463655"><ele>843.0</ele><time>2026-04-04T11:51:27.188Z</time></trkpt><trkpt lat="44.7823333" lon="9.4635383"><ele>843.0</ele><time>2026-04-04T11:51:29.188Z</time></trkpt><trkpt lat="44.782265" lon="9.46349"><ele>843.0</ele><time>2026-04-04T11:52:02.188Z</time></trkpt><trkpt lat="44.78214" lon="9.4634117"><ele>843.0</ele><time>2026-04-04T11:52:04.188Z</time></trkpt><trkpt lat="44.7820317" lon="9.4633433"><ele>843.0</ele><time>2026-04-04T11:52:05.189Z</time></trkpt><trkpt lat="44.7818433" lon="9.4632383"><ele>844.6666666666667</ele><time>2026-04-04T11:52:06.189Z</time></trkpt><trkpt lat="44.7816583" lon="9.4631333"><ele>846.3333333333334</ele><time>2026-04-04T11:52:07.187Z</time></trkpt><trkpt lat="44.78149" lon="9.46303"><ele>848.0</ele><time>2026-04-04T11:52:08.188Z</time></trkpt><trkpt lat="44.7813267" lon="9.4629183"><ele>848.0</ele><time>2026-04-04T11:52:09.19Z</time></trkpt><trkpt lat="44.78118" lon="9.4628083"><ele>848.0</ele><time>2026-04-04T11:52:10.19Z</time></trkpt><trkpt lat="44.7810433" lon="9.4627033"><ele>848.0</ele><time>2026-04-04T11:52:11.189Z</time></trkpt><trkpt lat="44.7809167" lon="9.4626033"><ele>851.5</ele><time>2026-04-04T11:52:12.189Z</time></trkpt><trkpt lat="44.7807933" lon="9.46251"><ele>855.0</ele><time>2026-04-04T11:52:13.189Z</time></trkpt><trkpt lat="44.7806733" lon="9.4624117"><ele>858.5</ele><time>2026-04-04T11:52:14.188Z</time></trkpt><trkpt lat="44.7805583" lon="9.4622983"><ele>862.0</ele><time>2026-04-04T11:52:15.189Z</time></trkpt><trkpt lat="44.7804483" lon="9.4621817"><ele>860.5</ele><time>2026-04-04T11:52:16.188Z</time></trkpt><trkpt lat="44.780345" lon="9.4620633"><ele>859.0</ele><time>2026-04-04T11:52:17.189Z</time></trkpt><trkpt lat="44.7802583" lon="9.4619483"><ele>857.5</ele><time>2026-04-04T11:52:18.188Z</time></trkpt><trkpt lat="44.7801833" lon="9.4618283"><ele>856.0</ele><time>2026-04-04T11:52:19.189Z</time></trkpt><trkpt lat="44.780115" lon="9.4617033"><ele>860.5</ele><time>2026-04-04T11:52:20.189Z</time></trkpt><trkpt lat="44.7800467" lon="9.4615683"><ele>865.0</ele><time>2026-04-04T11:52:21.19Z</time></trkpt><trkpt lat="44.7799733" lon="9.4614283"><ele>869.5</ele><time>2026-04-04T11:52:22.188Z</time></trkpt><trkpt lat="44.7798883" lon="9.4612933"><ele>874.0</ele><time>2026-04-04T11:52:23.192Z</time></trkpt><trkpt lat="44.779795" lon="9.4611583"><ele>874.5</ele><time>2026-04-04T11:52:24.188Z</time></trkpt><trkpt lat="44.7797033" lon="9.4610183"><ele>875.0</ele><time>2026-04-04T11:52:25.188Z</time></trkpt><trkpt lat="44.7796117" lon="9.4608867"><ele>875.5</ele><time>2026-04-04T11:52:26.188Z</time></trkpt><trkpt lat="44.7795283" lon="9.46076"><ele>876.0</ele><time>2026-04-04T11:52:27.188Z</time></trkpt><trkpt lat="44.7794583" lon="9.46064"><ele>876.0</ele><time>2026-04-04T11:52:28.188Z</time></trkpt><trkpt lat="44.77939" lon="9.4605133"><ele>876.0</ele><time>2026-04-04T11:52:29.188Z</time></trkpt><trkpt lat="44.7793233" lon="9.46038"><ele>876.0</ele><time>2026-04-04T11:52:30.188Z</time></trkpt><trkpt lat="44.7792633" lon="9.460245"><ele>876.0</ele><time>2026-04-04T11:52:31.192Z</time></trkpt><trkpt lat="44.7792033" lon="9.4601117"><ele>877.1666666666666</ele><time>2026-04-04T11:52:32.188Z</time></trkpt><trkpt lat="44.77914" lon="9.4599967"><ele>878.3333333333333</ele><time>2026-04-04T11:52:33.188Z</time></trkpt><trkpt lat="44.7790783" lon="9.4599"><ele>879.5</ele><time>2026-04-04T11:52:34.188Z</time></trkpt><trkpt lat="44.7790267" lon="9.459815"><ele>880.6666666666666</ele><time>2026-04-04T11:52:35.189Z</time></trkpt><trkpt lat="44.7789733" lon="9.459735"><ele>881.8333333333333</ele><time>2026-04-04T11:52:36.189Z</time></trkpt><trkpt lat="44.77894" lon="9.45965"><ele>883.0</ele><time>2026-04-04T11:52:37.189Z</time></trkpt><trkpt lat="44.77891" lon="9.459555"><ele>882.9999999999999</ele><time>2026-04-04T11:52:38.19Z</time></trkpt><trkpt lat="44.7788817" lon="9.4594567"><ele>883.0</ele><time>2026-04-04T11:52:39.189Z</time></trkpt><trkpt lat="44.7788567" lon="9.4593567"><ele>883.0</ele><time>2026-04-04T11:52:40.189Z</time></trkpt><trkpt lat="44.77884" lon="9.4592517"><ele>883.0</ele><time>2026-04-04T11:52:41.188Z</time></trkpt><trkpt lat="44.7788317" lon="9.4591567"><ele>882.9999999999999</ele><time>2026-04-04T11:52:42.189Z</time></trkpt><trkpt lat="44.7788267" lon="9.459025"><ele>883.0</ele><time>2026-04-04T11:52:44.19Z</time></trkpt><trkpt lat="44.778815" lon="9.4589333"><ele>882.9999999999999</ele><time>2026-04-04T11:52:47.188Z</time></trkpt><trkpt lat="44.7788617" lon="9.4588317"><ele>883.0</ele><time>2026-04-04T11:53:08.193Z</time></trkpt><trkpt lat="44.7789483" lon="9.458795"><ele>883.0</ele><time>2026-04-04T11:53:10.188Z</time></trkpt><trkpt lat="44.7790383" lon="9.458775"><ele>883.0</ele><time>2026-04-04T11:53:12.188Z</time></trkpt><trkpt lat="44.7791" lon="9.4587517"><ele>882.9999999999999</ele><time>2026-04-04T11:53:14.188Z</time></trkpt><trkpt lat="44.7791767" lon="9.4586983"><ele>883.0</ele><time>2026-04-04T11:53:16.188Z</time></trkpt><trkpt lat="44.779245" lon="9.4586567"><ele>882.5999999999999</ele><time>2026-04-04T11:53:18.188Z</time></trkpt><trkpt lat="44.77932" lon="9.45858"><ele>882.1999999999999</ele><time>2026-04-04T11:53:21.188Z</time></trkpt><trkpt lat="44.7793733" lon="9.458485"><ele>881.8</ele><time>2026-04-04T11:53:23.188Z</time></trkpt><trkpt lat="44.7794267" lon="9.45837"><ele>881.4</ele><time>2026-04-04T11:53:25.189Z</time></trkpt><trkpt lat="44.77949" lon="9.4582467"><ele>881.0</ele><time>2026-04-04T11:53:27.192Z</time></trkpt><trkpt lat="44.7795567" lon="9.458125"><ele>879.3333333333334</ele><time>2026-04-04T11:53:29.188Z</time></trkpt><trkpt lat="44.7796067" lon="9.4580267"><ele>877.6666666666667</ele><time>2026-04-04T11:53:31.189Z</time></trkpt><trkpt lat="44.77964" lon="9.4579467"><ele>876.0</ele><time>2026-04-04T11:53:33.187Z</time></trkpt><trkpt lat="44.7796633" lon="9.457855"><ele>874.3333333333333</ele><time>2026-04-04T11:53:35.188Z</time></trkpt><trkpt lat="44.77969" lon="9.4577333"><ele>872.6666666666666</ele><time>2026-04-04T11:53:38.189Z</time></trkpt><trkpt lat="44.7797417" lon="9.45758"><ele>871.0</ele><time>2026-04-04T11:53:53.188Z</time></trkpt><trkpt lat="44.779785" lon="9.4574617"><ele>870.6666666666666</ele><time>2026-04-04T11:53:56.188Z</time></trkpt><trkpt lat="44.779815" lon="9.4573683"><ele>870.3333333333333</ele><time>2026-04-04T11:53:59.188Z</time></trkpt><trkpt lat="44.7798483" lon="9.45728"><ele>870.0</ele><time>2026-04-04T11:54:25.188Z</time></trkpt><trkpt lat="44.779905" lon="9.457195"><ele>869.6666666666667</ele><time>2026-04-04T11:54:28.19Z</time></trkpt><trkpt lat="44.779885" lon="9.457285"><ele>869.3333333333334</ele><time>2026-04-04T11:59:02.189Z</time></trkpt><trkpt lat="44.7798233" lon="9.4574183"><ele>869.0</ele><time>2026-04-04T11:59:04.188Z</time></trkpt><trkpt lat="44.7797683" lon="9.4575383"><ele>869.0</ele><time>2026-04-04T11:59:06.189Z</time></trkpt><trkpt lat="44.77972" lon="9.4576567"><ele>869.0000000000001</ele><time>2026-04-04T11:59:08.189Z</time></trkpt><trkpt lat="44.779685" lon="9.457785"><ele>869.0000000000001</ele><time>2026-04-04T11:59:10.188Z</time></trkpt><trkpt lat="44.779645" lon="9.4579183"><ele>869.0</ele><time>2026-04-04T11:59:12.19Z</time></trkpt><trkpt lat="44.7795933" lon="9.45804"><ele>869.0</ele><time>2026-04-04T11:59:14.192Z</time></trkpt><trkpt lat="44.7795183" lon="9.458175"><ele>869.3333333333334</ele><time>2026-04-04T11:59:16.191Z</time></trkpt><trkpt lat="44.7794867" lon="9.4582567"><ele>869.6666666666667</ele><time>2026-04-04T11:59:17.191Z</time></trkpt><trkpt lat="44.7794317" lon="9.4583867"><ele>870.0</ele><time>2026-04-04T11:59:19.19Z</time></trkpt><trkpt lat="44.7793883" lon="9.4584967"><ele>870.3333333333333</ele><time>2026-04-04T11:59:21.191Z</time></trkpt><trkpt lat="44.7793417" lon="9.4585683"><ele>870.6666666666666</ele><time>2026-04-04T11:59:23.193Z</time></trkpt><trkpt lat="44.7792583" lon="9.45862"><ele>871.0</ele><time>2026-04-04T11:59:25.192Z</time></trkpt><trkpt lat="44.7791483" lon="9.458655"><ele>872.6666666666666</ele><time>2026-04-04T11:59:27.19Z</time></trkpt><trkpt lat="44.77908" lon="9.4586717"><ele>874.3333333333333</ele><time>2026-04-04T11:59:28.191Z</time></trkpt><trkpt lat="44.7790133" lon="9.4586983"><ele>876.0</ele><time>2026-04-04T11:59:29.192Z</time></trkpt><trkpt lat="44.7789133" lon="9.4587583"><ele>877.6666666666667</ele><time>2026-04-04T11:59:31.188Z</time></trkpt><trkpt lat="44.778845" lon="9.4587817"><ele>879.3333333333334</ele><time>2026-04-04T11:59:33.188Z</time></trkpt><trkpt lat="44.778785" lon="9.4587467"><ele>881.0</ele><time>2026-04-04T11:59:35.19Z</time></trkpt><trkpt lat="44.77871" lon="9.4586883"><ele>881.0</ele><time>2026-04-04T11:59:37.189Z</time></trkpt><trkpt lat="44.778615" lon="9.458625"><ele>880.9999999999999</ele><time>2026-04-04T11:59:51.19Z</time></trkpt><trkpt lat="44.7785567" lon="9.4585783"><ele>880.9999999999999</ele><time>2026-04-04T11:59:52.189Z</time></trkpt><trkpt lat="44.7784817" lon="9.4585217"><ele>881.0</ele><time>2026-04-04T11:59:53.189Z</time></trkpt><trkpt lat="44.778395" lon="9.4584483"><ele>881.0</ele><time>2026-04-04T11:59:54.19Z</time></trkpt><trkpt lat="44.7783" lon="9.4583633"><ele>882.0</ele><time>2026-04-04T11:59:55.188Z</time></trkpt><trkpt lat="44.7781983" lon="9.4582717"><ele>883.0</ele><time>2026-04-04T11:59:56.189Z</time></trkpt><trkpt lat="44.7780867" lon="9.45817"><ele>884.0</ele><time>2026-04-04T11:59:57.19Z</time></trkpt><trkpt lat="44.7779733" lon="9.4580617"><ele>885.0</ele><time>2026-04-04T11:59:58.189Z</time></trkpt><trkpt lat="44.7778667" lon="9.457955"><ele>883.25</ele><time>2026-04-04T11:59:59.189Z</time></trkpt><trkpt lat="44.77776" lon="9.4578483"><ele>881.5</ele><time>2026-04-04T12:00:00.19Z</time></trkpt><trkpt lat="44.7776583" lon="9.4577483"><ele>879.75</ele><time>2026-04-04T12:00:01.19Z</time></trkpt><trkpt lat="44.777565" lon="9.4576567"><ele>878.0</ele><time>2026-04-04T12:00:02.189Z</time></trkpt><trkpt lat="44.77748" lon="9.45758"><ele>878.0000000000001</ele><time>2026-04-04T12:00:03.188Z</time></trkpt><trkpt lat="44.7774017" lon="9.4575233"><ele>878.0</ele><time>2026-04-04T12:00:04.189Z</time></trkpt><trkpt lat="44.7773267" lon="9.457485"><ele>878.0</ele><time>2026-04-04T12:00:05.189Z</time></trkpt><trkpt lat="44.7772467" lon="9.45745"><ele>878.0</ele><time>2026-04-04T12:00:06.189Z</time></trkpt><trkpt lat="44.7771583" lon="9.4574117"><ele>878.0000000000001</ele><time>2026-04-04T12:00:07.189Z</time></trkpt><trkpt lat="44.7770667" lon="9.457365"><ele>878.0</ele><time>2026-04-04T12:00:08.19Z</time></trkpt><trkpt lat="44.7769683" lon="9.4573017"><ele>878.0</ele><time>2026-04-04T12:00:09.189Z</time></trkpt><trkpt lat="44.7768667" lon="9.4572333"><ele>878.0</ele><time>2026-04-04T12:00:10.188Z</time></trkpt><trkpt lat="44.7767617" lon="9.45716"><ele>878.0</ele><time>2026-04-04T12:00:11.19Z</time></trkpt><trkpt lat="44.7766717" lon="9.4570867"><ele>878.0</ele><time>2026-04-04T12:00:12.19Z</time></trkpt><trkpt lat="44.77659" lon="9.457015"><ele>878.0</ele><time>2026-04-04T12:00:13.191Z</time></trkpt><trkpt lat="44.7765217" lon="9.4569383"><ele>877.2</ele><time>2026-04-04T12:00:14.189Z</time></trkpt><trkpt lat="44.7764583" lon="9.4568533"><ele>876.4</ele><time>2026-04-04T12:00:15.189Z</time></trkpt><trkpt lat="44.7763983" lon="9.4567567"><ele>875.6000000000001</ele><time>2026-04-04T12:00:16.189Z</time></trkpt><trkpt lat="44.7763417" lon="9.45665"><ele>874.8000000000001</ele><time>2026-04-04T12:00:17.189Z</time></trkpt><trkpt lat="44.7762933" lon="9.456535"><ele>874.0</ele><time>2026-04-04T12:00:18.19Z</time></trkpt><trkpt lat="44.776265" lon="9.4564067"><ele>873.3333333333333</ele><time>2026-04-04T12:00:19.188Z</time></trkpt><trkpt lat="44.7762433" lon="9.4562733"><ele>872.6666666666666</ele><time>2026-04-04T12:00:20.189Z</time></trkpt><trkpt lat="44.7762383" lon="9.4561533"><ele>872.0</ele><time>2026-04-04T12:00:21.19Z</time></trkpt><trkpt lat="44.776235" lon="9.4560483"><ele>871.3333333333333</ele><time>2026-04-04T12:00:22.189Z</time></trkpt><trkpt lat="44.7762367" lon="9.4559417"><ele>870.6666666666666</ele><time>2026-04-04T12:00:23.189Z</time></trkpt><trkpt lat="44.776235" lon="9.4558283"><ele>870.0</ele><time>2026-04-04T12:00:24.189Z</time></trkpt><trkpt lat="44.776235" lon="9.45571"><ele>870.0</ele><time>2026-04-04T12:00:25.188Z</time></trkpt><trkpt lat="44.7762283" lon="9.45559"><ele>870.0</ele><time>2026-04-04T12:00:26.189Z</time></trkpt><trkpt lat="44.7762133" lon="9.4554567"><ele>870.0</ele><time>2026-04-04T12:00:27.188Z</time></trkpt><trkpt lat="44.7761667" lon="9.4553317"><ele>870.0</ele><time>2026-04-04T12:00:28.188Z</time></trkpt><trkpt lat="44.7761117" lon="9.4552133"><ele>870.0</ele><time>2026-04-04T12:00:29.189Z</time></trkpt><trkpt lat="44.7760533" lon="9.4551033"><ele>871.0</ele><time>2026-04-04T12:00:30.189Z</time></trkpt><trkpt lat="44.7760017" lon="9.4550033"><ele>872.0</ele><time>2026-04-04T12:00:31.189Z</time></trkpt><trkpt lat="44.7759567" lon="9.4549133"><ele>873.0</ele><time>2026-04-04T12:00:32.189Z</time></trkpt><trkpt lat="44.775915" lon="9.454825"><ele>874.0</ele><time>2026-04-04T12:00:33.189Z</time></trkpt><trkpt lat="44.7758817" lon="9.4547383"><ele>875.0</ele><time>2026-04-04T12:00:34.189Z</time></trkpt><trkpt lat="44.7758333" lon="9.4546083"><ele>876.0</ele><time>2026-04-04T12:00:36.189Z</time></trkpt><trkpt lat="44.775795" lon="9.4545117"><ele>876.3333333333334</ele><time>2026-04-04T12:00:38.192Z</time></trkpt><trkpt lat="44.7757483" lon="9.4543767"><ele>876.6666666666667</ele><time>2026-04-04T12:01:04.191Z</time></trkpt><trkpt lat="44.7757267" lon="9.4542933"><ele>877.0</ele><time>2026-04-04T12:01:05.189Z</time></trkpt><trkpt lat="44.7757" lon="9.4541933"><ele>877.3333333333334</ele><time>2026-04-04T12:01:06.19Z</time></trkpt><trkpt lat="44.7756717" lon="9.4541067"><ele>877.6666666666667</ele><time>2026-04-04T12:01:07.19Z</time></trkpt><trkpt lat="44.7756133" lon="9.4540033"><ele>878.0</ele><time>2026-04-04T12:01:09.189Z</time></trkpt><trkpt lat="44.775675" lon="9.45414"><ele>878.0</ele><time>2026-04-04T12:01:21.188Z</time></trkpt><trkpt lat="44.77573" lon="9.4542817"><ele>878.0</ele><time>2026-04-04T12:01:23.189Z</time></trkpt><trkpt lat="44.77577" lon="9.4543917"><ele>878.0</ele><time>2026-04-04T12:01:25.19Z</time></trkpt><trkpt lat="44.7757967" lon="9.4544767"><ele>878.0</ele><time>2026-04-04T12:01:27.189Z</time></trkpt></trkseg><trkseg><trkpt lat="44.7758013" lon="9.4544532"><ele>878.0</ele><time>2026-04-04T12:37:41.19Z</time></trkpt><trkpt lat="44.7757167" lon="9.4543083"><ele>878.0</ele><time>2026-04-04T12:38:12.191Z</time></trkpt><trkpt lat="44.775675" lon="9.4541967"><ele>878.0</ele><time>2026-04-04T12:38:14.19Z</time></trkpt><trkpt lat="44.7756133" lon="9.45407"><ele>878.0</ele><time>2026-04-04T12:38:17.19Z</time></trkpt><trkpt lat="44.77553" lon="9.45405"><ele>878.0</ele><time>2026-04-04T12:38:19.19Z</time></trkpt><trkpt lat="44.7754017" lon="9.454095"><ele>878.0000000000001</ele><time>2026-04-04T12:38:21.19Z</time></trkpt><trkpt lat="44.77532" lon="9.4541367"><ele>878.0</ele><time>2026-04-04T12:38:22.19Z</time></trkpt><trkpt lat="44.7752367" lon="9.454185"><ele>878.0</ele><time>2026-04-04T12:38:23.188Z</time></trkpt><trkpt lat="44.775155" lon="9.4542433"><ele>878.0</ele><time>2026-04-04T12:38:24.189Z</time></trkpt><trkpt lat="44.7750817" lon="9.4542967"><ele>878.0000000000001</ele><time>2026-04-04T12:38:25.189Z</time></trkpt><trkpt lat="44.77501" lon="9.4543383"><ele>878.0</ele><time>2026-04-04T12:38:26.19Z</time></trkpt><trkpt lat="44.7749417" lon="9.45436"><ele>880.4</ele><time>2026-04-04T12:38:27.19Z</time></trkpt><trkpt lat="44.7748767" lon="9.4543633"><ele>882.8</ele><time>2026-04-04T12:38:28.19Z</time></trkpt><trkpt lat="44.7747617" lon="9.4542983"><ele>885.2</ele><time>2026-04-04T12:38:30.187Z</time></trkpt><trkpt lat="44.77469" lon="9.4541417"><ele>887.6</ele><time>2026-04-04T12:38:32.19Z</time></trkpt><trkpt lat="44.7746517" lon="9.454055"><ele>890.0</ele><time>2026-04-04T12:38:33.188Z</time></trkpt><trkpt lat="44.774605" lon="9.4539817"><ele>890.0000000000001</ele><time>2026-04-04T12:38:34.189Z</time></trkpt><trkpt lat="44.7745267" lon="9.4539317"><ele>890.0</ele><time>2026-04-04T12:38:35.188Z</time></trkpt><trkpt lat="44.7744433" lon="9.45389"><ele>890.0</ele><time>2026-04-04T12:38:36.19Z</time></trkpt><trkpt lat="44.7743667" lon="9.453845"><ele>890.0</ele><time>2026-04-04T12:38:37.189Z</time></trkpt><trkpt lat="44.7742967" lon="9.4537833"><ele>890.0000000000001</ele><time>2026-04-04T12:38:38.19Z</time></trkpt><trkpt lat="44.774245" lon="9.4537"><ele>890.0</ele><time>2026-04-04T12:38:39.19Z</time></trkpt><trkpt lat="44.7741917" lon="9.4536167"><ele>891.6666666666667</ele><time>2026-04-04T12:38:40.189Z</time></trkpt><trkpt lat="44.7741383" lon="9.4535417"><ele>893.3333333333334</ele><time>2026-04-04T12:38:41.189Z</time></trkpt><trkpt lat="44.7740817" lon="9.4534733"><ele>895.0</ele><time>2026-04-04T12:38:42.191Z</time></trkpt><trkpt lat="44.774015" lon="9.4534117"><ele>896.6666666666667</ele><time>2026-04-04T12:38:43.189Z</time></trkpt><trkpt lat="44.7739367" lon="9.4533567"><ele>898.3333333333334</ele><time>2026-04-04T12:38:44.188Z</time></trkpt><trkpt lat="44.7738533" lon="9.453305"><ele>900.0</ele><time>2026-04-04T12:38:45.187Z</time></trkpt><trkpt lat="44.7737833" lon="9.4532533"><ele>900.0</ele><time>2026-04-04T12:38:46.187Z</time></trkpt><trkpt lat="44.7737167" lon="9.4531967"><ele>900.0</ele><time>2026-04-04T12:38:47.189Z</time></trkpt><trkpt lat="44.773655" lon="9.4531233"><ele>900.0</ele><time>2026-04-04T12:38:48.189Z</time></trkpt><trkpt lat="44.7735933" lon="9.4530233"><ele>900.0</ele><time>2026-04-04T12:38:49.189Z</time></trkpt><trkpt lat="44.7735233" lon="9.4529067"><ele>900.0</ele><time>2026-04-04T12:38:50.188Z</time></trkpt><trkpt lat="44.773445" lon="9.45278"><ele>902.25</ele><time>2026-04-04T12:38:51.187Z</time></trkpt><trkpt lat="44.773365" lon="9.45265"><ele>904.5</ele><time>2026-04-04T12:38:52.188Z</time></trkpt><trkpt lat="44.7732767" lon="9.452525"><ele>906.75</ele><time>2026-04-04T12:38:53.188Z</time></trkpt><trkpt lat="44.7731867" lon="9.4524017"><ele>909.0</ele><time>2026-04-04T12:38:54.188Z</time></trkpt><trkpt lat="44.7730933" lon="9.4522883"><ele>909.0</ele><time>2026-04-04T12:38:55.188Z</time></trkpt><trkpt lat="44.7730067" lon="9.45218"><ele>909.0000000000001</ele><time>2026-04-04T12:38:56.189Z</time></trkpt><trkpt lat="44.7729217" lon="9.4520717"><ele>909.0000000000001</ele><time>2026-04-04T12:38:57.188Z</time></trkpt><trkpt lat="44.7728433" lon="9.4519617"><ele>909.0</ele><time>2026-04-04T12:38:58.193Z</time></trkpt><trkpt lat="44.772775" lon="9.4518483"><ele>909.0</ele><time>2026-04-04T12:38:59.188Z</time></trkpt><trkpt lat="44.77272" lon="9.4517283"><ele>911.8000000000001</ele><time>2026-04-04T12:39:00.193Z</time></trkpt><trkpt lat="44.772685" lon="9.4516"><ele>914.6000000000001</ele><time>2026-04-04T12:39:01.189Z</time></trkpt><trkpt lat="44.7726567" lon="9.4514583"><ele>917.4</ele><time>2026-04-04T12:39:02.188Z</time></trkpt><trkpt lat="44.772635" lon="9.4513017"><ele>920.2</ele><time>2026-04-04T12:39:03.189Z</time></trkpt><trkpt lat="44.7726117" lon="9.45114"><ele>923.0</ele><time>2026-04-04T12:39:04.188Z</time></trkpt><trkpt lat="44.7725883" lon="9.4509767"><ele>923.5</ele><time>2026-04-04T12:39:05.188Z</time></trkpt><trkpt lat="44.7725633" lon="9.4508167"><ele>924.0</ele><time>2026-04-04T12:39:06.189Z</time></trkpt><trkpt lat="44.7725417" lon="9.45066"><ele>924.5</ele><time>2026-04-04T12:39:07.189Z</time></trkpt><trkpt lat="44.77252" lon="9.4505017"><ele>925.0</ele><time>2026-04-04T12:39:08.188Z</time></trkpt><trkpt lat="44.7725133" lon="9.4503383"><ele>926.0</ele><time>2026-04-04T12:39:09.189Z</time></trkpt><trkpt lat="44.7725217" lon="9.4501683"><ele>927.0</ele><time>2026-04-04T12:39:10.188Z</time></trkpt><trkpt lat="44.77253" lon="9.4499967"><ele>928.0</ele><time>2026-04-04T12:39:11.188Z</time></trkpt><trkpt lat="44.7725333" lon="9.4498233"><ele>929.0</ele><time>2026-04-04T12:39:12.188Z</time></trkpt><trkpt lat="44.77253" lon="9.4496533"><ele>929.8000000000001</ele><time>2026-04-04T12:39:13.19Z</time></trkpt><trkpt lat="44.7725233" lon="9.4494967"><ele>930.6000000000001</ele><time>2026-04-04T12:39:14.191Z</time></trkpt><trkpt lat="44.772515" lon="9.4493617"><ele>931.4</ele><time>2026-04-04T12:39:15.187Z</time></trkpt><trkpt lat="44.7725067" lon="9.4492467"><ele>932.2</ele><time>2026-04-04T12:39:16.188Z</time></trkpt><trkpt lat="44.7724583" lon="9.4491067"><ele>933.0</ele><time>2026-04-04T12:39:18.188Z</time></trkpt><trkpt lat="44.7723767" lon="9.4490417"><ele>933.0</ele><time>2026-04-04T12:39:20.19Z</time></trkpt><trkpt lat="44.7722783" lon="9.4490183"><ele>933.0</ele><time>2026-04-04T12:39:22.189Z</time></trkpt><trkpt lat="44.7721583" lon="9.44903"><ele>933.0</ele><time>2026-04-04T12:39:24.19Z</time></trkpt><trkpt lat="44.77205" lon="9.44907"><ele>933.0</ele><time>2026-04-04T12:39:26.19Z</time></trkpt><trkpt lat="44.771955" lon="9.449125"><ele>933.0</ele><time>2026-04-04T12:39:28.189Z</time></trkpt><trkpt lat="44.7718633" lon="9.4492033"><ele>932.1666666666666</ele><time>2026-04-04T12:39:30.189Z</time></trkpt><trkpt lat="44.771805" lon="9.4492467"><ele>931.3333333333333</ele><time>2026-04-04T12:39:32.19Z</time></trkpt><trkpt lat="44.7717483" lon="9.44934"><ele>930.5</ele><time>2026-04-04T12:39:44.189Z</time></trkpt><trkpt lat="44.77167" lon="9.4494083"><ele>929.6666666666666</ele><time>2026-04-04T12:39:46.189Z</time></trkpt><trkpt lat="44.771605" lon="9.449425"><ele>928.8333333333333</ele><time>2026-04-04T12:39:47.189Z</time></trkpt><trkpt lat="44.771515" lon="9.4494133"><ele>928.0</ele><time>2026-04-04T12:39:48.189Z</time></trkpt><trkpt lat="44.7714233" lon="9.449385"><ele>927.9999999999999</ele><time>2026-04-04T12:39:49.191Z</time></trkpt><trkpt lat="44.7713433" lon="9.4493733"><ele>928.0</ele><time>2026-04-04T12:39:50.189Z</time></trkpt><trkpt lat="44.7712517" lon="9.4494"><ele>928.0</ele><time>2026-04-04T12:39:51.189Z</time></trkpt><trkpt lat="44.771165" lon="9.4494433"><ele>928.0</ele><time>2026-04-04T12:39:52.189Z</time></trkpt><trkpt lat="44.7710817" lon="9.44949"><ele>927.9999999999999</ele><time>2026-04-04T12:39:53.189Z</time></trkpt><trkpt lat="44.7709967" lon="9.4495383"><ele>928.0</ele><time>2026-04-04T12:39:54.189Z</time></trkpt><trkpt lat="44.77091" lon="9.4495783"><ele>926.7142857142858</ele><time>2026-04-04T12:39:55.19Z</time></trkpt><trkpt lat="44.7708283" lon="9.4496017"><ele>925.4285714285714</ele><time>2026-04-04T12:39:56.189Z</time></trkpt><trkpt lat="44.77075" lon="9.4496117"><ele>924.1428571428571</ele><time>2026-04-04T12:39:57.19Z</time></trkpt><trkpt lat="44.7706783" lon="9.449615"><ele>922.8571428571429</ele><time>2026-04-04T12:39:58.188Z</time></trkpt><trkpt lat="44.7706117" lon="9.4496133"><ele>921.5714285714284</ele><time>2026-04-04T12:39:59.187Z</time></trkpt><trkpt lat="44.77054" lon="9.4496017"><ele>920.2857142857142</ele><time>2026-04-04T12:40:00.188Z</time></trkpt><trkpt lat="44.770465" lon="9.4495833"><ele>919.0</ele><time>2026-04-04T12:40:01.189Z</time></trkpt><trkpt lat="44.770385" lon="9.4495633"><ele>918.9999999999999</ele><time>2026-04-04T12:40:02.188Z</time></trkpt><trkpt lat="44.7703067" lon="9.44955"><ele>919.0</ele><time>2026-04-04T12:40:03.188Z</time></trkpt><trkpt lat="44.7702217" lon="9.4495417"><ele>919.0</ele><time>2026-04-04T12:40:04.191Z</time></trkpt><trkpt lat="44.7701317" lon="9.4495367"><ele>919.0</ele><time>2026-04-04T12:40:05.19Z</time></trkpt><trkpt lat="44.7700383" lon="9.4495267"><ele>918.9999999999999</ele><time>2026-04-04T12:40:06.188Z</time></trkpt><trkpt lat="44.7699417" lon="9.449505"><ele>919.0</ele><time>2026-04-04T12:40:07.188Z</time></trkpt><trkpt lat="44.769845" lon="9.4494733"><ele>918.8000000000001</ele><time>2026-04-04T12:40:08.188Z</time></trkpt><trkpt lat="44.76976" lon="9.4494417"><ele>918.6000000000001</ele><time>2026-04-04T12:40:09.188Z</time></trkpt><trkpt lat="44.76969" lon="9.4493883"><ele>918.4</ele><time>2026-04-04T12:40:10.188Z</time></trkpt><trkpt lat="44.76957" lon="9.4492383"><ele>918.2</ele><time>2026-04-04T12:40:12.188Z</time></trkpt><trkpt lat="44.769525" lon="9.4491317"><ele>918.0</ele><time>2026-04-04T12:40:13.187Z</time></trkpt><trkpt lat="44.7694817" lon="9.4490217"><ele>918.0</ele><time>2026-04-04T12:40:14.19Z</time></trkpt><trkpt lat="44.7694367" lon="9.448915"><ele>918.0</ele><time>2026-04-04T12:40:15.188Z</time></trkpt><trkpt lat="44.769385" lon="9.44883"><ele>918.0</ele><time>2026-04-04T12:40:16.188Z</time></trkpt><trkpt lat="44.7693183" lon="9.4487517"><ele>918.0</ele><time>2026-04-04T12:40:17.188Z</time></trkpt><trkpt lat="44.7692383" lon="9.44869"><ele>918.0</ele><time>2026-04-04T12:40:18.188Z</time></trkpt><trkpt lat="44.76915" lon="9.448645"><ele>918.0</ele><time>2026-04-04T12:40:19.191Z</time></trkpt><trkpt lat="44.7690583" lon="9.448595"><ele>917.2</ele><time>2026-04-04T12:40:20.19Z</time></trkpt><trkpt lat="44.768965" lon="9.4485367"><ele>916.4</ele><time>2026-04-04T12:40:21.19Z</time></trkpt><trkpt lat="44.76888" lon="9.448475"><ele>915.6000000000001</ele><time>2026-04-04T12:40:22.19Z</time></trkpt><trkpt lat="44.768795" lon="9.44841"><ele>914.8000000000001</ele><time>2026-04-04T12:40:23.19Z</time></trkpt><trkpt lat="44.7687083" lon="9.4483467"><ele>914.0</ele><time>2026-04-04T12:40:24.19Z</time></trkpt><trkpt lat="44.7686217" lon="9.44829"><ele>914.0</ele><time>2026-04-04T12:40:25.193Z</time></trkpt><trkpt lat="44.7685367" lon="9.4482317"><ele>914.0000000000001</ele><time>2026-04-04T12:40:26.19Z</time></trkpt><trkpt lat="44.7684567" lon="9.4481617"><ele>914.0000000000001</ele><time>2026-04-04T12:40:27.191Z</time></trkpt><trkpt lat="44.7683817" lon="9.4480883"><ele>914.0</ele><time>2026-04-04T12:40:28.189Z</time></trkpt><trkpt lat="44.768305" lon="9.4480133"><ele>914.0</ele><time>2026-04-04T12:40:29.189Z</time></trkpt><trkpt lat="44.7682333" lon="9.447925"><ele>912.6</ele><time>2026-04-04T12:40:30.188Z</time></trkpt><trkpt lat="44.76817" lon="9.4478283"><ele>911.2</ele><time>2026-04-04T12:40:31.191Z</time></trkpt><trkpt lat="44.76812" lon="9.4477267"><ele>909.8000000000001</ele><time>2026-04-04T12:40:32.19Z</time></trkpt><trkpt lat="44.7680717" lon="9.4476167"><ele>908.4000000000001</ele><time>2026-04-04T12:40:33.19Z</time></trkpt><trkpt lat="44.76802" lon="9.447495"><ele>907.0</ele><time>2026-04-04T12:40:34.187Z</time></trkpt><trkpt lat="44.7679633" lon="9.4473583"><ele>907.0</ele><time>2026-04-04T12:40:35.188Z</time></trkpt><trkpt lat="44.767905" lon="9.4472167"><ele>907.0</ele><time>2026-04-04T12:40:36.188Z</time></trkpt><trkpt lat="44.76785" lon="9.4470733"><ele>907.0</ele><time>2026-04-04T12:40:37.188Z</time></trkpt><trkpt lat="44.767795" lon="9.4469367"><ele>907.0</ele><time>2026-04-04T12:40:38.188Z</time></trkpt><trkpt lat="44.767745" lon="9.4468117"><ele>907.0</ele><time>2026-04-04T12:40:39.188Z</time></trkpt><trkpt lat="44.7677" lon="9.4466867"><ele>907.8333333333333</ele><time>2026-04-04T12:40:40.188Z</time></trkpt><trkpt lat="44.76766" lon="9.4465783"><ele>908.6666666666666</ele><time>2026-04-04T12:40:41.188Z</time></trkpt><trkpt lat="44.7676183" lon="9.4464817"><ele>909.5</ele><time>2026-04-04T12:40:42.188Z</time></trkpt><trkpt lat="44.7675767" lon="9.4463967"><ele>910.3333333333333</ele><time>2026-04-04T12:40:43.188Z</time></trkpt><trkpt lat="44.767515" lon="9.446325"><ele>911.1666666666666</ele><time>2026-04-04T12:40:44.188Z</time></trkpt><trkpt lat="44.767445" lon="9.4462667"><ele>912.0</ele><time>2026-04-04T12:40:45.188Z</time></trkpt><trkpt lat="44.7673733" lon="9.446205"><ele>909.5</ele><time>2026-04-04T12:40:46.188Z</time></trkpt><trkpt lat="44.7673033" lon="9.4461383"><ele>907.0</ele><time>2026-04-04T12:40:47.189Z</time></trkpt><trkpt lat="44.76724" lon="9.446065"><ele>904.5</ele><time>2026-04-04T12:40:48.188Z</time></trkpt><trkpt lat="44.7671867" lon="9.4459817"><ele>902.0</ele><time>2026-04-04T12:40:49.188Z</time></trkpt><trkpt lat="44.76714" lon="9.4458833"><ele>899.5</ele><time>2026-04-04T12:40:50.189Z</time></trkpt><trkpt lat="44.7670917" lon="9.445775"><ele>897.0</ele><time>2026-04-04T12:40:51.195Z</time></trkpt><trkpt lat="44.7670317" lon="9.4456633"><ele>897.0</ele><time>2026-04-04T12:40:52.187Z</time></trkpt><trkpt lat="44.76698" lon="9.4455517"><ele>897.0</ele><time>2026-04-04T12:40:53.19Z</time></trkpt><trkpt lat="44.7669333" lon="9.4454483"><ele>897.0</ele><time>2026-04-04T12:40:54.19Z</time></trkpt><trkpt lat="44.7668867" lon="9.4453567"><ele>897.0</ele><time>2026-04-04T12:40:55.189Z</time></trkpt><trkpt lat="44.7668417" lon="9.4452817"><ele>897.0</ele><time>2026-04-04T12:40:56.192Z</time></trkpt><trkpt lat="44.7667983" lon="9.445215"><ele>897.0</ele><time>2026-04-04T12:40:57.189Z</time></trkpt><trkpt lat="44.7667533" lon="9.44515"><ele>897.4000000000001</ele><time>2026-04-04T12:40:58.19Z</time></trkpt><trkpt lat="44.7667067" lon="9.445085"><ele>897.8000000000001</ele><time>2026-04-04T12:40:59.189Z</time></trkpt><trkpt lat="44.7666267" lon="9.444965"><ele>898.2</ele><time>2026-04-04T12:41:01.188Z</time></trkpt><trkpt lat="44.76654" lon="9.4448333"><ele>898.6</ele><time>2026-04-04T12:41:03.187Z</time></trkpt><trkpt lat="44.76649" lon="9.4447567"><ele>899.0</ele><time>2026-04-04T12:41:04.187Z</time></trkpt><trkpt lat="44.7664467" lon="9.444675"><ele>896.9999999999999</ele><time>2026-04-04T12:41:05.189Z</time></trkpt><trkpt lat="44.76642" lon="9.4445883"><ele>895.0</ele><time>2026-04-04T12:41:06.189Z</time></trkpt><trkpt lat="44.7664017" lon="9.444495"><ele>893.0</ele><time>2026-04-04T12:41:07.188Z</time></trkpt><trkpt lat="44.7663833" lon="9.444405"><ele>891.0</ele><time>2026-04-04T12:41:08.189Z</time></trkpt><trkpt lat="44.7663517" lon="9.4443167"><ele>889.0</ele><time>2026-04-04T12:41:09.188Z</time></trkpt><trkpt lat="44.7663033" lon="9.444235"><ele>887.0</ele><time>2026-04-04T12:41:10.189Z</time></trkpt><trkpt lat="44.76624" lon="9.4441533"><ele>885.0</ele><time>2026-04-04T12:41:11.187Z</time></trkpt><trkpt lat="44.7661683" lon="9.4440717"><ele>885.0</ele><time>2026-04-04T12:41:12.188Z</time></trkpt><trkpt lat="44.7660817" lon="9.443995"><ele>885.0</ele><time>2026-04-04T12:41:13.19Z</time></trkpt><trkpt lat="44.7659967" lon="9.4439283"><ele>885.0</ele><time>2026-04-04T12:41:14.188Z</time></trkpt><trkpt lat="44.76591" lon="9.4438717"><ele>885.0</ele><time>2026-04-04T12:41:15.188Z</time></trkpt><trkpt lat="44.765825" lon="9.4438217"><ele>885.0</ele><time>2026-04-04T12:41:16.188Z</time></trkpt><trkpt lat="44.7657383" lon="9.4437917"><ele>883.6</ele><time>2026-04-04T12:41:17.19Z</time></trkpt><trkpt lat="44.765645" lon="9.443775"><ele>882.2</ele><time>2026-04-04T12:41:18.189Z</time></trkpt><trkpt lat="44.76555" lon="9.4437717"><ele>880.8</ele><time>2026-04-04T12:41:19.19Z</time></trkpt><trkpt lat="44.7654517" lon="9.44378"><ele>879.4</ele><time>2026-04-04T12:41:20.189Z</time></trkpt><trkpt lat="44.76535" lon="9.4437917"><ele>878.0</ele><time>2026-04-04T12:41:21.19Z</time></trkpt><trkpt lat="44.7652467" lon="9.443805"><ele>883.5</ele><time>2026-04-04T12:41:22.189Z</time></trkpt><trkpt lat="44.7651367" lon="9.4438167"><ele>889.0</ele><time>2026-04-04T12:41:23.191Z</time></trkpt><trkpt lat="44.7650133" lon="9.44383"><ele>894.5</ele><time>2026-04-04T12:41:24.189Z</time></trkpt><trkpt lat="44.764885" lon="9.4438417"><ele>900.0</ele><time>2026-04-04T12:41:25.19Z</time></trkpt><trkpt lat="44.7647617" lon="9.44385"><ele>900.0</ele><time>2026-04-04T12:41:26.188Z</time></trkpt><trkpt lat="44.764645" lon="9.4438583"><ele>900.0</ele><time>2026-04-04T12:41:27.189Z</time></trkpt><trkpt lat="44.7645283" lon="9.4438633"><ele>900.0</ele><time>2026-04-04T12:41:28.188Z</time></trkpt><trkpt lat="44.7644117" lon="9.4438683"><ele>900.0</ele><time>2026-04-04T12:41:29.189Z</time></trkpt><trkpt lat="44.7642967" lon="9.4438783"><ele>898.0</ele><time>2026-04-04T12:41:30.188Z</time></trkpt><trkpt lat="44.7641883" lon="9.443895"><ele>896.0</ele><time>2026-04-04T12:41:31.187Z</time></trkpt><trkpt lat="44.764075" lon="9.4439233"><ele>894.0</ele><time>2026-04-04T12:41:32.188Z</time></trkpt><trkpt lat="44.763955" lon="9.44396"><ele>892.0</ele><time>2026-04-04T12:41:33.188Z</time></trkpt><trkpt lat="44.7638367" lon="9.4439983"><ele>892.0</ele><time>2026-04-04T12:41:34.187Z</time></trkpt><trkpt lat="44.76372" lon="9.4440317"><ele>892.0</ele><time>2026-04-04T12:41:35.188Z</time></trkpt><trkpt lat="44.7636033" lon="9.4440717"><ele>892.0</ele><time>2026-04-04T12:41:36.188Z</time></trkpt><trkpt lat="44.7634917" lon="9.4441117"><ele>892.0</ele><time>2026-04-04T12:41:37.189Z</time></trkpt><trkpt lat="44.76338" lon="9.444155"><ele>890.6666666666666</ele><time>2026-04-04T12:41:38.188Z</time></trkpt><trkpt lat="44.76328" lon="9.4441967"><ele>889.3333333333333</ele><time>2026-04-04T12:41:39.189Z</time></trkpt><trkpt lat="44.7631867" lon="9.4442383"><ele>888.0</ele><time>2026-04-04T12:41:40.187Z</time></trkpt><trkpt lat="44.7631017" lon="9.4442717"><ele>886.6666666666667</ele><time>2026-04-04T12:41:41.188Z</time></trkpt><trkpt lat="44.76303" lon="9.444295"><ele>885.3333333333334</ele><time>2026-04-04T12:41:42.188Z</time></trkpt><trkpt lat="44.762965" lon="9.4443067"><ele>884.0</ele><time>2026-04-04T12:41:43.188Z</time></trkpt><trkpt lat="44.76285" lon="9.4442683"><ele>884.0000000000001</ele><time>2026-04-04T12:41:45.189Z</time></trkpt><trkpt lat="44.7627983" lon="9.444215"><ele>884.0</ele><time>2026-04-04T12:41:46.189Z</time></trkpt><trkpt lat="44.7627417" lon="9.4441433"><ele>884.0</ele><time>2026-04-04T12:41:47.192Z</time></trkpt><trkpt lat="44.7627033" lon="9.4440433"><ele>884.0</ele><time>2026-04-04T12:41:48.191Z</time></trkpt><trkpt lat="44.762695" lon="9.4439133"><ele>884.0000000000001</ele><time>2026-04-04T12:41:49.189Z</time></trkpt><trkpt lat="44.7626817" lon="9.4437933"><ele>884.0</ele><time>2026-04-04T12:41:50.19Z</time></trkpt><trkpt lat="44.76267" lon="9.4436867"><ele>883.3333333333334</ele><time>2026-04-04T12:41:51.191Z</time></trkpt><trkpt lat="44.762655" lon="9.443595"><ele>882.6666666666667</ele><time>2026-04-04T12:41:52.192Z</time></trkpt><trkpt lat="44.7625983" lon="9.4434783"><ele>882.0</ele><time>2026-04-04T12:41:54.19Z</time></trkpt><trkpt lat="44.7625167" lon="9.443445"><ele>881.3333333333333</ele><time>2026-04-04T12:41:56.189Z</time></trkpt><trkpt lat="44.7624233" lon="9.4435133"><ele>880.6666666666666</ele><time>2026-04-04T12:41:58.188Z</time></trkpt><trkpt lat="44.762385" lon="9.44359"><ele>880.0</ele><time>2026-04-04T12:41:59.189Z</time></trkpt><trkpt lat="44.76234" lon="9.4436667"><ele>879.9999999999999</ele><time>2026-04-04T12:42:00.188Z</time></trkpt><trkpt lat="44.7622933" lon="9.4437467"><ele>880.0</ele><time>2026-04-04T12:42:01.189Z</time></trkpt><trkpt lat="44.7622483" lon="9.443825"><ele>880.0</ele><time>2026-04-04T12:42:02.192Z</time></trkpt><trkpt lat="44.7622033" lon="9.4439067"><ele>880.0</ele><time>2026-04-04T12:42:03.188Z</time></trkpt><trkpt lat="44.76216" lon="9.4439783"><ele>879.9999999999999</ele><time>2026-04-04T12:42:04.189Z</time></trkpt><trkpt lat="44.762115" lon="9.4440433"><ele>880.0</ele><time>2026-04-04T12:42:05.188Z</time></trkpt><trkpt lat="44.76203" lon="9.4441417"><ele>879.8</ele><time>2026-04-04T12:42:07.187Z</time></trkpt><trkpt lat="44.7619617" lon="9.4441867"><ele>879.6</ele><time>2026-04-04T12:42:09.189Z</time></trkpt><trkpt lat="44.7618983" lon="9.4441317"><ele>879.4000000000001</ele><time>2026-04-04T12:42:12.188Z</time></trkpt><trkpt lat="44.7618767" lon="9.4439883"><ele>879.2</ele><time>2026-04-04T12:42:14.189Z</time></trkpt><trkpt lat="44.7618417" lon="9.44382"><ele>879.0</ele><time>2026-04-04T12:42:16.189Z</time></trkpt><trkpt lat="44.761805" lon="9.443725"><ele>879.0</ele><time>2026-04-04T12:42:17.19Z</time></trkpt><trkpt lat="44.7617667" lon="9.4436267"><ele>879.0</ele><time>2026-04-04T12:42:18.189Z</time></trkpt><trkpt lat="44.76172" lon="9.4435283"><ele>879.0</ele><time>2026-04-04T12:42:19.189Z</time></trkpt><trkpt lat="44.76167" lon="9.4434367"><ele>879.0</ele><time>2026-04-04T12:42:20.191Z</time></trkpt><trkpt lat="44.7616167" lon="9.443345"><ele>879.0</ele><time>2026-04-04T12:42:21.189Z</time></trkpt><trkpt lat="44.7615617" lon="9.4432467"><ele>879.0</ele><time>2026-04-04T12:42:22.19Z</time></trkpt><trkpt lat="44.76151" lon="9.4431467"><ele>879.0</ele><time>2026-04-04T12:42:23.188Z</time></trkpt><trkpt lat="44.7614633" lon="9.4430467"><ele>879.0</ele><time>2026-04-04T12:42:24.188Z</time></trkpt><trkpt lat="44.7614167" lon="9.4429467"><ele>879.0</ele><time>2026-04-04T12:42:25.187Z</time></trkpt><trkpt lat="44.7613667" lon="9.442855"><ele>879.0</ele><time>2026-04-04T12:42:26.189Z</time></trkpt><trkpt lat="44.761315" lon="9.4427717"><ele>879.0</ele><time>2026-04-04T12:42:27.188Z</time></trkpt><trkpt lat="44.761265" lon="9.4426883"><ele>879.0</ele><time>2026-04-04T12:42:28.188Z</time></trkpt><trkpt lat="44.7612233" lon="9.4426083"><ele>880.6</ele><time>2026-04-04T12:42:29.188Z</time></trkpt><trkpt lat="44.7611883" lon="9.4425317"><ele>882.2</ele><time>2026-04-04T12:42:30.188Z</time></trkpt><trkpt lat="44.7611067" lon="9.4424167"><ele>883.8000000000001</ele><time>2026-04-04T12:42:32.188Z</time></trkpt><trkpt lat="44.7609967" lon="9.4423617"><ele>885.4000000000001</ele><time>2026-04-04T12:42:34.188Z</time></trkpt><trkpt lat="44.7608917" lon="9.442325"><ele>887.0</ele><time>2026-04-04T12:42:36.188Z</time></trkpt><trkpt lat="44.76082" lon="9.4422467"><ele>887.0000000000001</ele><time>2026-04-04T12:42:38.19Z</time></trkpt><trkpt lat="44.7608" lon="9.4421417"><ele>887.0</ele><time>2026-04-04T12:42:40.19Z</time></trkpt><trkpt lat="44.7608683" lon="9.4420017"><ele>887.0</ele><time>2026-04-04T12:42:42.19Z</time></trkpt><trkpt lat="44.7609117" lon="9.441935"><ele>887.0</ele><time>2026-04-04T12:42:43.191Z</time></trkpt><trkpt lat="44.7609833" lon="9.4418183"><ele>887.0000000000001</ele><time>2026-04-04T12:42:45.19Z</time></trkpt><trkpt lat="44.76102" lon="9.441735"><ele>887.0</ele><time>2026-04-04T12:42:47.188Z</time></trkpt><trkpt lat="44.761015" lon="9.4415717"><ele>887.0000000000001</ele><time>2026-04-04T12:43:30.188Z</time></trkpt><trkpt lat="44.7610083" lon="9.44146"><ele>887.0</ele><time>2026-04-04T12:43:31.189Z</time></trkpt><trkpt lat="44.760995" lon="9.4413367"><ele>887.0</ele><time>2026-04-04T12:43:32.189Z</time></trkpt><trkpt lat="44.7609867" lon="9.4412083"><ele>887.0</ele><time>2026-04-04T12:43:33.188Z</time></trkpt><trkpt lat="44.76098" lon="9.4410767"><ele>887.0000000000001</ele><time>2026-04-04T12:43:34.188Z</time></trkpt><trkpt lat="44.7609867" lon="9.4409483"><ele>887.0</ele><time>2026-04-04T12:43:35.189Z</time></trkpt><trkpt lat="44.7610067" lon="9.4408217"><ele>887.3333333333334</ele><time>2026-04-04T12:43:36.188Z</time></trkpt><trkpt lat="44.7610317" lon="9.4407083"><ele>887.6666666666667</ele><time>2026-04-04T12:43:37.188Z</time></trkpt><trkpt lat="44.7610717" lon="9.4405867"><ele>888.0</ele><time>2026-04-04T12:43:38.188Z</time></trkpt><trkpt lat="44.7611117" lon="9.4404717"><ele>888.3333333333333</ele><time>2026-04-04T12:43:39.189Z</time></trkpt><trkpt lat="44.7611483" lon="9.4403633"><ele>888.6666666666666</ele><time>2026-04-04T12:43:40.188Z</time></trkpt><trkpt lat="44.76118" lon="9.44026"><ele>889.0</ele><time>2026-04-04T12:43:41.188Z</time></trkpt><trkpt lat="44.7612017" lon="9.4401583"><ele>886.7142857142857</ele><time>2026-04-04T12:43:42.188Z</time></trkpt><trkpt lat="44.7612033" lon="9.4400567"><ele>884.4285714285714</ele><time>2026-04-04T12:43:43.189Z</time></trkpt><trkpt lat="44.761185" lon="9.4399683"><ele>882.1428571428571</ele><time>2026-04-04T12:43:44.194Z</time></trkpt><trkpt lat="44.7611483" lon="9.4398817"><ele>879.8571428571429</ele><time>2026-04-04T12:43:45.188Z</time></trkpt><trkpt lat="44.7610967" lon="9.4397967"><ele>877.5714285714286</ele><time>2026-04-04T12:43:46.192Z</time></trkpt><trkpt lat="44.76105" lon="9.439715"><ele>875.2857142857142</ele><time>2026-04-04T12:43:47.188Z</time></trkpt><trkpt lat="44.7610183" lon="9.439625"><ele>873.0</ele><time>2026-04-04T12:43:48.188Z</time></trkpt><trkpt lat="44.761" lon="9.4395267"><ele>873.0</ele><time>2026-04-04T12:43:49.189Z</time></trkpt><trkpt lat="44.76099" lon="9.4394283"><ele>873.0</ele><time>2026-04-04T12:43:50.189Z</time></trkpt><trkpt lat="44.760985" lon="9.4393117"><ele>873.0</ele><time>2026-04-04T12:43:51.188Z</time></trkpt><trkpt lat="44.76099" lon="9.4391867"><ele>873.0</ele><time>2026-04-04T12:43:52.188Z</time></trkpt><trkpt lat="44.761" lon="9.4390467"><ele>873.0</ele><time>2026-04-04T12:43:53.188Z</time></trkpt><trkpt lat="44.7610033" lon="9.4389117"><ele>873.0</ele><time>2026-04-04T12:43:54.189Z</time></trkpt><trkpt lat="44.761005" lon="9.438775"><ele>872.2</ele><time>2026-04-04T12:43:55.19Z</time></trkpt><trkpt lat="44.761" lon="9.4386333"><ele>871.4</ele><time>2026-04-04T12:43:56.191Z</time></trkpt><trkpt lat="44.760985" lon="9.4384883"><ele>870.6000000000001</ele><time>2026-04-04T12:43:57.19Z</time></trkpt><trkpt lat="44.7609683" lon="9.4383417"><ele>869.8000000000001</ele><time>2026-04-04T12:43:58.19Z</time></trkpt><trkpt lat="44.7609467" lon="9.438185"><ele>869.0</ele><time>2026-04-04T12:43:59.19Z</time></trkpt><trkpt lat="44.76092" lon="9.4380333"><ele>869.0</ele><time>2026-04-04T12:44:00.19Z</time></trkpt><trkpt lat="44.760895" lon="9.4378783"><ele>869.0000000000001</ele><time>2026-04-04T12:44:01.19Z</time></trkpt><trkpt lat="44.7608867" lon="9.4377217"><ele>869.0000000000001</ele><time>2026-04-04T12:44:02.19Z</time></trkpt><trkpt lat="44.7608933" lon="9.437555"><ele>869.0</ele><time>2026-04-04T12:44:03.19Z</time></trkpt><trkpt lat="44.7609067" lon="9.4374133"><ele>869.0</ele><time>2026-04-04T12:44:04.19Z</time></trkpt><trkpt lat="44.7609167" lon="9.4372833"><ele>869.0</ele><time>2026-04-04T12:44:05.19Z</time></trkpt><trkpt lat="44.7609" lon="9.4371533"><ele>869.0000000000001</ele><time>2026-04-04T12:44:06.19Z</time></trkpt><trkpt lat="44.7608733" lon="9.4370217"><ele>869.0000000000001</ele><time>2026-04-04T12:44:07.191Z</time></trkpt><trkpt lat="44.7608233" lon="9.4369"><ele>869.0</ele><time>2026-04-04T12:44:08.19Z</time></trkpt><trkpt lat="44.7607567" lon="9.4367667"><ele>869.0</ele><time>2026-04-04T12:44:09.19Z</time></trkpt><trkpt lat="44.7606783" lon="9.4366267"><ele>869.75</ele><time>2026-04-04T12:44:10.189Z</time></trkpt><trkpt lat="44.760605" lon="9.4364817"><ele>870.5</ele><time>2026-04-04T12:44:11.19Z</time></trkpt><trkpt lat="44.7605417" lon="9.436345"><ele>871.25</ele><time>2026-04-04T12:44:12.19Z</time></trkpt><trkpt lat="44.760485" lon="9.4362117"><ele>872.0</ele><time>2026-04-04T12:44:13.19Z</time></trkpt><trkpt lat="44.760425" lon="9.43608"><ele>872.2</ele><time>2026-04-04T12:44:14.19Z</time></trkpt><trkpt lat="44.7603717" lon="9.4359433"><ele>872.4000000000001</ele><time>2026-04-04T12:44:15.19Z</time></trkpt><trkpt lat="44.760315" lon="9.4358183"><ele>872.5999999999999</ele><time>2026-04-04T12:44:16.194Z</time></trkpt><trkpt lat="44.7602517" lon="9.4356933"><ele>872.8</ele><time>2026-04-04T12:44:17.191Z</time></trkpt><trkpt lat="44.760185" lon="9.435575"><ele>873.0</ele><time>2026-04-04T12:44:18.19Z</time></trkpt><trkpt lat="44.7601133" lon="9.4354683"><ele>871.4</ele><time>2026-04-04T12:44:19.189Z</time></trkpt><trkpt lat="44.7600433" lon="9.4353717"><ele>869.8</ele><time>2026-04-04T12:44:20.19Z</time></trkpt><trkpt lat="44.7599717" lon="9.43529"><ele>868.2</ele><time>2026-04-04T12:44:21.191Z</time></trkpt><trkpt lat="44.7598983" lon="9.4352317"><ele>866.6</ele><time>2026-04-04T12:44:22.189Z</time></trkpt><trkpt lat="44.7598133" lon="9.4351983"><ele>865.0</ele><time>2026-04-04T12:44:23.189Z</time></trkpt><trkpt lat="44.759725" lon="9.4351833"><ele>865.0</ele><time>2026-04-04T12:44:24.19Z</time></trkpt><trkpt lat="44.7596317" lon="9.4351717"><ele>865.0</ele><time>2026-04-04T12:44:25.187Z</time></trkpt><trkpt lat="44.75954" lon="9.43515"><ele>865.0</ele><time>2026-04-04T12:44:26.189Z</time></trkpt><trkpt lat="44.7594433" lon="9.4351117"><ele>865.0</ele><time>2026-04-04T12:44:27.188Z</time></trkpt><trkpt lat="44.7593483" lon="9.43506"><ele>865.0</ele><time>2026-04-04T12:44:28.188Z</time></trkpt><trkpt lat="44.7592583" lon="9.4349967"><ele>863.6</ele><time>2026-04-04T12:44:29.188Z</time></trkpt><trkpt lat="44.75917" lon="9.4349317"><ele>862.2</ele><time>2026-04-04T12:44:30.188Z</time></trkpt><trkpt lat="44.75908" lon="9.4348683"><ele>860.8</ele><time>2026-04-04T12:44:31.188Z</time></trkpt><trkpt lat="44.7590017" lon="9.4348067"><ele>859.4</ele><time>2026-04-04T12:44:32.19Z</time></trkpt><trkpt lat="44.7589283" lon="9.43474"><ele>858.0</ele><time>2026-04-04T12:44:33.188Z</time></trkpt><trkpt lat="44.758865" lon="9.4346617"><ele>856.6666666666666</ele><time>2026-04-04T12:44:34.189Z</time></trkpt><trkpt lat="44.75882" lon="9.4345683"><ele>855.3333333333333</ele><time>2026-04-04T12:44:35.189Z</time></trkpt><trkpt lat="44.7587833" lon="9.4344633"><ele>854.0</ele><time>2026-04-04T12:44:36.188Z</time></trkpt><trkpt lat="44.7587567" lon="9.4343517"><ele>852.6666666666666</ele><time>2026-04-04T12:44:37.189Z</time></trkpt><trkpt lat="44.75873" lon="9.4342483"><ele>851.3333333333333</ele><time>2026-04-04T12:44:38.189Z</time></trkpt><trkpt lat="44.758705" lon="9.4341533"><ele>850.0</ele><time>2026-04-04T12:44:39.192Z</time></trkpt><trkpt lat="44.75868" lon="9.4340667"><ele>849.9999999999999</ele><time>2026-04-04T12:44:40.19Z</time></trkpt><trkpt lat="44.7586483" lon="9.4339883"><ele>850.0</ele><time>2026-04-04T12:44:41.192Z</time></trkpt><trkpt lat="44.7585783" lon="9.433845"><ele>850.0</ele><time>2026-04-04T12:44:43.19Z</time></trkpt><trkpt lat="44.7585333" lon="9.4337767"><ele>850.0</ele><time>2026-04-04T12:44:44.19Z</time></trkpt><trkpt lat="44.7584833" lon="9.4337017"><ele>849.9999999999999</ele><time>2026-04-04T12:44:45.191Z</time></trkpt><trkpt lat="44.7584267" lon="9.4336267"><ele>850.0</ele><time>2026-04-04T12:44:46.194Z</time></trkpt><trkpt lat="44.7583633" lon="9.43355"><ele>849.2</ele><time>2026-04-04T12:44:47.19Z</time></trkpt><trkpt lat="44.758295" lon="9.43346"><ele>848.4</ele><time>2026-04-04T12:44:48.19Z</time></trkpt><trkpt lat="44.7582217" lon="9.4333733"><ele>847.5999999999999</ele><time>2026-04-04T12:44:49.189Z</time></trkpt><trkpt lat="44.7581483" lon="9.43329"><ele>846.8</ele><time>2026-04-04T12:44:50.189Z</time></trkpt><trkpt lat="44.7580633" lon="9.433205"><ele>846.0</ele><time>2026-04-04T12:44:51.189Z</time></trkpt><trkpt lat="44.7579833" lon="9.4331333"><ele>846.0</ele><time>2026-04-04T12:44:52.188Z</time></trkpt><trkpt lat="44.7579017" lon="9.4330783"><ele>846.0</ele><time>2026-04-04T12:44:53.188Z</time></trkpt><trkpt lat="44.757815" lon="9.43304"><ele>846.0</ele><time>2026-04-04T12:44:54.189Z</time></trkpt><trkpt lat="44.7577217" lon="9.4330167"><ele>846.0</ele><time>2026-04-04T12:44:55.189Z</time></trkpt><trkpt lat="44.7576267" lon="9.4330083"><ele>846.0</ele><time>2026-04-04T12:44:56.19Z</time></trkpt><trkpt lat="44.7575217" lon="9.43301"><ele>847.5</ele><time>2026-04-04T12:44:57.189Z</time></trkpt><trkpt lat="44.7573833" lon="9.43302"><ele>849.0</ele><time>2026-04-04T12:44:58.188Z</time></trkpt><trkpt lat="44.757235" lon="9.433035"><ele>850.5</ele><time>2026-04-04T12:44:59.188Z</time></trkpt><trkpt lat="44.7570967" lon="9.4330417"><ele>852.0</ele><time>2026-04-04T12:45:00.188Z</time></trkpt><trkpt lat="44.7569733" lon="9.43304"><ele>854.5</ele><time>2026-04-04T12:45:01.188Z</time></trkpt><trkpt lat="44.75686" lon="9.4330167"><ele>857.0</ele><time>2026-04-04T12:45:02.188Z</time></trkpt><trkpt lat="44.75675" lon="9.4329717"><ele>859.5</ele><time>2026-04-04T12:45:03.188Z</time></trkpt><trkpt lat="44.7566467" lon="9.4329183"><ele>862.0</ele><time>2026-04-04T12:45:04.19Z</time></trkpt><trkpt lat="44.756545" lon="9.4328467"><ele>862.25</ele><time>2026-04-04T12:45:05.19Z</time></trkpt><trkpt lat="44.75645" lon="9.4327567"><ele>862.5</ele><time>2026-04-04T12:45:06.189Z</time></trkpt><trkpt lat="44.7563517" lon="9.4326483"><ele>862.75</ele><time>2026-04-04T12:45:07.189Z</time></trkpt><trkpt lat="44.7562483" lon="9.43252"><ele>863.0</ele><time>2026-04-04T12:45:08.188Z</time></trkpt><trkpt lat="44.75616" lon="9.4323817"><ele>863.0</ele><time>2026-04-04T12:45:09.19Z</time></trkpt><trkpt lat="44.7560833" lon="9.43226"><ele>863.0</ele><time>2026-04-04T12:45:10.188Z</time></trkpt><trkpt lat="44.7560167" lon="9.4321517"><ele>863.0</ele><time>2026-04-04T12:45:11.188Z</time></trkpt><trkpt lat="44.7559667" lon="9.4320617"><ele>863.0</ele><time>2026-04-04T12:45:12.188Z</time></trkpt><trkpt lat="44.75592" lon="9.4319883"><ele>863.0</ele><time>2026-04-04T12:45:13.189Z</time></trkpt><trkpt lat="44.7558483" lon="9.4318833"><ele>863.5000000000001</ele><time>2026-04-04T12:45:15.188Z</time></trkpt><trkpt lat="44.755805" lon="9.4318"><ele>864.0</ele><time>2026-04-04T12:45:17.189Z</time></trkpt><trkpt lat="44.75576" lon="9.4317283"><ele>864.5</ele><time>2026-04-04T12:45:19.188Z</time></trkpt><trkpt lat="44.7557083" lon="9.4316383"><ele>865.0</ele><time>2026-04-04T12:45:21.191Z</time></trkpt><trkpt lat="44.755655" lon="9.4315367"><ele>865.5000000000001</ele><time>2026-04-04T12:45:23.189Z</time></trkpt><trkpt lat="44.7556017" lon="9.4314267"><ele>866.0</ele><time>2026-04-04T12:45:25.189Z</time></trkpt><trkpt lat="44.7555467" lon="9.4313033"><ele>866.0</ele><time>2026-04-04T12:45:27.19Z</time></trkpt><trkpt lat="44.7555033" lon="9.43118"><ele>865.9999999999999</ele><time>2026-04-04T12:45:29.19Z</time></trkpt><trkpt lat="44.7554633" lon="9.43105"><ele>865.9999999999999</ele><time>2026-04-04T12:45:31.188Z</time></trkpt><trkpt lat="44.7554317" lon="9.4309567"><ele>866.0</ele><time>2026-04-04T12:45:32.189Z</time></trkpt><trkpt lat="44.7553933" lon="9.4308517"><ele>866.0</ele><time>2026-04-04T12:45:33.188Z</time></trkpt><trkpt lat="44.7553433" lon="9.43073"><ele>866.0000000000001</ele><time>2026-04-04T12:45:34.19Z</time></trkpt><trkpt lat="44.7553" lon="9.4306033"><ele>866.0</ele><time>2026-04-04T12:45:35.188Z</time></trkpt><trkpt lat="44.7552533" lon="9.43049"><ele>866.0</ele><time>2026-04-04T12:45:36.189Z</time></trkpt><trkpt lat="44.7552133" lon="9.430395"><ele>866.0</ele><time>2026-04-04T12:45:37.189Z</time></trkpt><trkpt lat="44.7551617" lon="9.4303167"><ele>866.0000000000001</ele><time>2026-04-04T12:45:38.19Z</time></trkpt><trkpt lat="44.7551033" lon="9.4302483"><ele>866.0</ele><time>2026-04-04T12:45:39.188Z</time></trkpt><trkpt lat="44.7550217" lon="9.430195"><ele>866.3333333333334</ele><time>2026-04-04T12:45:40.189Z</time></trkpt><trkpt lat="44.7549433" lon="9.4301483"><ele>866.6666666666667</ele><time>2026-04-04T12:45:41.188Z</time></trkpt><trkpt lat="44.754865" lon="9.43011"><ele>867.0</ele><time>2026-04-04T12:45:42.195Z</time></trkpt><trkpt lat="44.754785" lon="9.430065"><ele>867.3333333333333</ele><time>2026-04-04T12:45:43.19Z</time></trkpt><trkpt lat="44.754705" lon="9.430025"><ele>867.6666666666666</ele><time>2026-04-04T12:45:44.189Z</time></trkpt><trkpt lat="44.7546267" lon="9.429985"><ele>868.0</ele><time>2026-04-04T12:45:45.188Z</time></trkpt><trkpt lat="44.7545517" lon="9.4299433"><ele>867.9999999999999</ele><time>2026-04-04T12:45:46.188Z</time></trkpt><trkpt lat="44.7544733" lon="9.4299033"><ele>868.0</ele><time>2026-04-04T12:45:47.188Z</time></trkpt><trkpt lat="44.7543983" lon="9.4298583"><ele>868.0</ele><time>2026-04-04T12:45:48.188Z</time></trkpt><trkpt lat="44.7543233" lon="9.4298033"><ele>868.0</ele><time>2026-04-04T12:45:49.189Z</time></trkpt><trkpt lat="44.7542567" lon="9.4297283"><ele>867.9999999999999</ele><time>2026-04-04T12:45:50.189Z</time></trkpt><trkpt lat="44.7541917" lon="9.429625"><ele>868.0</ele><time>2026-04-04T12:45:51.188Z</time></trkpt><trkpt lat="44.754145" lon="9.429505"><ele>868.8333333333333</ele><time>2026-04-04T12:45:52.189Z</time></trkpt><trkpt lat="44.7541033" lon="9.42939"><ele>869.6666666666666</ele><time>2026-04-04T12:45:53.188Z</time></trkpt><trkpt lat="44.75406" lon="9.4292767"><ele>870.5</ele><time>2026-04-04T12:45:54.189Z</time></trkpt><trkpt lat="44.7540117" lon="9.42917"><ele>871.3333333333333</ele><time>2026-04-04T12:45:55.188Z</time></trkpt><trkpt lat="44.75396" lon="9.4290617"><ele>872.1666666666666</ele><time>2026-04-04T12:45:56.189Z</time></trkpt><trkpt lat="44.7538983" lon="9.4289833"><ele>873.0</ele><time>2026-04-04T12:45:57.188Z</time></trkpt><trkpt lat="44.753825" lon="9.42892"><ele>873.0</ele><time>2026-04-04T12:45:58.188Z</time></trkpt><trkpt lat="44.7537433" lon="9.4288733"><ele>873.0</ele><time>2026-04-04T12:45:59.189Z</time></trkpt><trkpt lat="44.7536617" lon="9.4288417"><ele>873.0</ele><time>2026-04-04T12:46:00.191Z</time></trkpt><trkpt lat="44.7535883" lon="9.4288233"><ele>873.0</ele><time>2026-04-04T12:46:01.19Z</time></trkpt><trkpt lat="44.7534817" lon="9.428795"><ele>873.0</ele><time>2026-04-04T12:46:03.191Z</time></trkpt><trkpt lat="44.753405" lon="9.4288617"><ele>873.0</ele><time>2026-04-04T12:46:05.191Z</time></trkpt><trkpt lat="44.7533383" lon="9.428985"><ele>874.2</ele><time>2026-04-04T12:46:07.188Z</time></trkpt><trkpt lat="44.7532983" lon="9.4291717"><ele>875.4</ele><time>2026-04-04T12:46:09.187Z</time></trkpt><trkpt lat="44.75329" lon="9.4292933"><ele>876.6000000000001</ele><time>2026-04-04T12:46:10.188Z</time></trkpt><trkpt lat="44.7532767" lon="9.4294283"><ele>877.8000000000001</ele><time>2026-04-04T12:46:11.187Z</time></trkpt><trkpt lat="44.753255" lon="9.4295683"><ele>879.0</ele><time>2026-04-04T12:46:12.189Z</time></trkpt><trkpt lat="44.7532183" lon="9.4297083"><ele>880.2</ele><time>2026-04-04T12:46:13.188Z</time></trkpt><trkpt lat="44.7531667" lon="9.42983"><ele>881.4000000000001</ele><time>2026-04-04T12:46:14.188Z</time></trkpt><trkpt lat="44.7531067" lon="9.429935"><ele>882.6</ele><time>2026-04-04T12:46:15.188Z</time></trkpt><trkpt lat="44.7530533" lon="9.4300383"><ele>883.8</ele><time>2026-04-04T12:46:16.188Z</time></trkpt><trkpt lat="44.7530033" lon="9.4301383"><ele>885.0</ele><time>2026-04-04T12:46:17.188Z</time></trkpt><trkpt lat="44.7529583" lon="9.4302433"><ele>885.0</ele><time>2026-04-04T12:46:18.188Z</time></trkpt><trkpt lat="44.7529117" lon="9.43036"><ele>885.0</ele><time>2026-04-04T12:46:19.19Z</time></trkpt><trkpt lat="44.75286" lon="9.43048"><ele>885.0</ele><time>2026-04-04T12:46:20.188Z</time></trkpt><trkpt lat="44.752805" lon="9.4305967"><ele>885.0</ele><time>2026-04-04T12:46:21.188Z</time></trkpt><trkpt lat="44.752735" lon="9.4307233"><ele>885.0</ele><time>2026-04-04T12:46:22.188Z</time></trkpt><trkpt lat="44.7526567" lon="9.4308717"><ele>888.0</ele><time>2026-04-04T12:46:23.189Z</time></trkpt><trkpt lat="44.752585" lon="9.4310367"><ele>891.0</ele><time>2026-04-04T12:46:24.188Z</time></trkpt><trkpt lat="44.75252" lon="9.431195"><ele>894.0</ele><time>2026-04-04T12:46:25.188Z</time></trkpt><trkpt lat="44.7524683" lon="9.4313383"><ele>897.0</ele><time>2026-04-04T12:46:26.188Z</time></trkpt><trkpt lat="44.7524233" lon="9.4314733"><ele>897.0</ele><time>2026-04-04T12:46:27.188Z</time></trkpt><trkpt lat="44.7523783" lon="9.431605"><ele>897.0</ele><time>2026-04-04T12:46:28.188Z</time></trkpt><trkpt lat="44.7523267" lon="9.43173"><ele>897.0</ele><time>2026-04-04T12:46:29.188Z</time></trkpt><trkpt lat="44.75227" lon="9.4318533"><ele>897.0</ele><time>2026-04-04T12:46:30.188Z</time></trkpt><trkpt lat="44.75221" lon="9.4319783"><ele>897.0</ele><time>2026-04-04T12:46:31.189Z</time></trkpt><trkpt lat="44.7521467" lon="9.4321017"><ele>897.75</ele><time>2026-04-04T12:46:32.189Z</time></trkpt><trkpt lat="44.7520733" lon="9.4322233"><ele>898.5</ele><time>2026-04-04T12:46:33.188Z</time></trkpt><trkpt lat="44.7519867" lon="9.4323417"><ele>899.25</ele><time>2026-04-04T12:46:34.19Z</time></trkpt><trkpt lat="44.7518867" lon="9.4324617"><ele>900.0</ele><time>2026-04-04T12:46:35.19Z</time></trkpt><trkpt lat="44.7517767" lon="9.43258"><ele>900.0</ele><time>2026-04-04T12:46:36.192Z</time></trkpt><trkpt lat="44.7516767" lon="9.4326767"><ele>900.0</ele><time>2026-04-04T12:46:37.188Z</time></trkpt><trkpt lat="44.7515867" lon="9.4327533"><ele>900.0</ele><time>2026-04-04T12:46:38.189Z</time></trkpt><trkpt lat="44.7515133" lon="9.4328133"><ele>900.0</ele><time>2026-04-04T12:46:39.189Z</time></trkpt><trkpt lat="44.7514467" lon="9.4328617"><ele>900.0</ele><time>2026-04-04T12:46:40.188Z</time></trkpt><trkpt lat="44.75139" lon="9.4329067"><ele>900.8333333333334</ele><time>2026-04-04T12:46:41.188Z</time></trkpt><trkpt lat="44.751295" lon="9.4329933"><ele>901.6666666666667</ele><time>2026-04-04T12:46:43.189Z</time></trkpt><trkpt lat="44.7512033" lon="9.433075"><ele>902.5</ele><time>2026-04-04T12:46:45.189Z</time></trkpt><trkpt lat="44.7511433" lon="9.4331183"><ele>903.3333333333334</ele><time>2026-04-04T12:46:46.189Z</time></trkpt><trkpt lat="44.75108" lon="9.4331633"><ele>904.1666666666667</ele><time>2026-04-04T12:46:47.188Z</time></trkpt><trkpt lat="44.7510133" lon="9.433205"><ele>905.0</ele><time>2026-04-04T12:46:48.19Z</time></trkpt><trkpt lat="44.7509383" lon="9.4332433"><ele>905.0</ele><time>2026-04-04T12:46:49.191Z</time></trkpt><trkpt lat="44.750855" lon="9.4332767"><ele>905.0</ele><time>2026-04-04T12:46:50.19Z</time></trkpt><trkpt lat="44.750765" lon="9.4333133"><ele>905.0</ele><time>2026-04-04T12:46:51.191Z</time></trkpt><trkpt lat="44.7506733" lon="9.433355"><ele>905.0</ele><time>2026-04-04T12:46:52.19Z</time></trkpt><trkpt lat="44.7505767" lon="9.4334017"><ele>905.0</ele><time>2026-04-04T12:46:53.19Z</time></trkpt><trkpt lat="44.7504867" lon="9.4334517"><ele>905.0</ele><time>2026-04-04T12:46:54.19Z</time></trkpt><trkpt lat="44.7503933" lon="9.4335033"><ele>905.0</ele><time>2026-04-04T12:46:55.19Z</time></trkpt><trkpt lat="44.7502983" lon="9.43356"><ele>905.0</ele><time>2026-04-04T12:46:56.193Z</time></trkpt><trkpt lat="44.750205" lon="9.4336217"><ele>905.0</ele><time>2026-04-04T12:46:57.189Z</time></trkpt><trkpt lat="44.75011" lon="9.4336933"><ele>905.0</ele><time>2026-04-04T12:46:58.19Z</time></trkpt><trkpt lat="44.7500233" lon="9.4337717"><ele>907.6</ele><time>2026-04-04T12:46:59.19Z</time></trkpt><trkpt lat="44.749935" lon="9.43385"><ele>910.2</ele><time>2026-04-04T12:47:00.191Z</time></trkpt><trkpt lat="44.749855" lon="9.43393"><ele>912.8</ele><time>2026-04-04T12:47:01.189Z</time></trkpt><trkpt lat="44.7497767" lon="9.4340033"><ele>915.4</ele><time>2026-04-04T12:47:02.19Z</time></trkpt><trkpt lat="44.7496933" lon="9.43407"><ele>918.0</ele><time>2026-04-04T12:47:03.189Z</time></trkpt><trkpt lat="44.7496017" lon="9.4341233"><ele>918.0</ele><time>2026-04-04T12:47:04.189Z</time></trkpt><trkpt lat="44.7495117" lon="9.4341617"><ele>918.0</ele><time>2026-04-04T12:47:05.19Z</time></trkpt><trkpt lat="44.7494167" lon="9.4341933"><ele>918.0</ele><time>2026-04-04T12:47:06.19Z</time></trkpt><trkpt lat="44.7493183" lon="9.4342117"><ele>918.0</ele><time>2026-04-04T12:47:07.191Z</time></trkpt><trkpt lat="44.7492233" lon="9.4342333"><ele>918.0</ele><time>2026-04-04T12:47:08.19Z</time></trkpt><trkpt lat="44.7491283" lon="9.43425"><ele>917.0</ele><time>2026-04-04T12:47:09.19Z</time></trkpt><trkpt lat="44.7490417" lon="9.4342633"><ele>916.0</ele><time>2026-04-04T12:47:10.19Z</time></trkpt><trkpt lat="44.7489667" lon="9.43427"><ele>915.0</ele><time>2026-04-04T12:47:11.19Z</time></trkpt><trkpt lat="44.7488883" lon="9.434275"><ele>914.0</ele><time>2026-04-04T12:47:12.19Z</time></trkpt><trkpt lat="44.7488183" lon="9.4342717"><ele>913.0</ele><time>2026-04-04T12:47:13.189Z</time></trkpt><trkpt lat="44.7487517" lon="9.4342683"><ele>912.0</ele><time>2026-04-04T12:47:14.19Z</time></trkpt><trkpt lat="44.74865" lon="9.434305"><ele>912.0</ele><time>2026-04-04T12:47:16.192Z</time></trkpt><trkpt lat="44.7485733" lon="9.43438"><ele>912.0</ele><time>2026-04-04T12:47:18.19Z</time></trkpt><trkpt lat="44.7485283" lon="9.4344917"><ele>912.0</ele><time>2026-04-04T12:47:20.191Z</time></trkpt><trkpt lat="44.7485267" lon="9.4346167"><ele>912.0</ele><time>2026-04-04T12:47:22.188Z</time></trkpt><trkpt lat="44.7485667" lon="9.434755"><ele>912.0</ele><time>2026-04-04T12:47:24.189Z</time></trkpt><trkpt lat="44.7486083" lon="9.4348967"><ele>913.2</ele><time>2026-04-04T12:47:26.189Z</time></trkpt><trkpt lat="44.7486183" lon="9.4350267"><ele>914.4000000000001</ele><time>2026-04-04T12:47:28.188Z</time></trkpt><trkpt lat="44.7485933" lon="9.4351733"><ele>915.5999999999999</ele><time>2026-04-04T12:47:30.19Z</time></trkpt><trkpt lat="44.7485333" lon="9.4353367"><ele>916.8</ele><time>2026-04-04T12:47:32.19Z</time></trkpt><trkpt lat="44.7484683" lon="9.4354417"><ele>918.0</ele><time>2026-04-04T12:47:33.188Z</time></trkpt><trkpt lat="44.7483917" lon="9.4355583"><ele>920.0</ele><time>2026-04-04T12:47:34.188Z</time></trkpt><trkpt lat="44.7483267" lon="9.4356733"><ele>922.0</ele><time>2026-04-04T12:47:35.189Z</time></trkpt><trkpt lat="44.7482783" lon="9.4357783"><ele>924.0</ele><time>2026-04-04T12:47:36.189Z</time></trkpt><trkpt lat="44.7482467" lon="9.4358733"><ele>926.0</ele><time>2026-04-04T12:47:37.189Z</time></trkpt><trkpt lat="44.74823" lon="9.435985"><ele>928.0</ele><time>2026-04-04T12:47:38.189Z</time></trkpt><trkpt lat="44.7482217" lon="9.4361133"><ele>930.0</ele><time>2026-04-04T12:47:39.188Z</time></trkpt><trkpt lat="44.7482317" lon="9.43625"><ele>931.6666666666666</ele><time>2026-04-04T12:47:40.188Z</time></trkpt><trkpt lat="44.7482317" lon="9.4363717"><ele>933.3333333333333</ele><time>2026-04-04T12:47:41.188Z</time></trkpt><trkpt lat="44.7482217" lon="9.4364767"><ele>935.0</ele><time>2026-04-04T12:47:42.188Z</time></trkpt><trkpt lat="44.7481967" lon="9.43657"><ele>936.6666666666666</ele><time>2026-04-04T12:47:43.188Z</time></trkpt><trkpt lat="44.7481633" lon="9.4366583"><ele>938.3333333333333</ele><time>2026-04-04T12:47:44.189Z</time></trkpt><trkpt lat="44.7481317" lon="9.4367533"><ele>940.0</ele><time>2026-04-04T12:47:45.189Z</time></trkpt><trkpt lat="44.74811" lon="9.43686"><ele>940.0</ele><time>2026-04-04T12:47:46.188Z</time></trkpt><trkpt lat="44.748095" lon="9.43697"><ele>940.0</ele><time>2026-04-04T12:47:47.189Z</time></trkpt><trkpt lat="44.74808" lon="9.43707"><ele>940.0</ele><time>2026-04-04T12:47:48.188Z</time></trkpt><trkpt lat="44.74802" lon="9.4372067"><ele>940.0</ele><time>2026-04-04T12:47:50.188Z</time></trkpt><trkpt lat="44.7479133" lon="9.43726"><ele>940.0</ele><time>2026-04-04T12:47:52.19Z</time></trkpt><trkpt lat="44.7478333" lon="9.4372733"><ele>940.8333333333333</ele><time>2026-04-04T12:47:53.189Z</time></trkpt><trkpt lat="44.7477483" lon="9.43729"><ele>941.6666666666666</ele><time>2026-04-04T12:47:54.19Z</time></trkpt><trkpt lat="44.74766" lon="9.4373083"><ele>942.5</ele><time>2026-04-04T12:47:55.188Z</time></trkpt><trkpt lat="44.747575" lon="9.437325"><ele>943.3333333333333</ele><time>2026-04-04T12:47:56.192Z</time></trkpt><trkpt lat="44.7475" lon="9.43734"><ele>944.1666666666666</ele><time>2026-04-04T12:47:57.189Z</time></trkpt><trkpt lat="44.7474333" lon="9.4373517"><ele>945.0</ele><time>2026-04-04T12:47:58.189Z</time></trkpt><trkpt lat="44.74733" lon="9.4373767"><ele>945.2</ele><time>2026-04-04T12:48:00.189Z</time></trkpt><trkpt lat="44.747235" lon="9.4374333"><ele>945.4</ele><time>2026-04-04T12:48:02.188Z</time></trkpt><trkpt lat="44.7471567" lon="9.4374933"><ele>945.5999999999999</ele><time>2026-04-04T12:48:04.189Z</time></trkpt><trkpt lat="44.7470767" lon="9.4375583"><ele>945.8</ele><time>2026-04-04T12:48:06.188Z</time></trkpt><trkpt lat="44.7469883" lon="9.4376133"><ele>946.0</ele><time>2026-04-04T12:48:08.189Z</time></trkpt><trkpt lat="44.746895" lon="9.43766"><ele>944.5999999999999</ele><time>2026-04-04T12:48:10.188Z</time></trkpt><trkpt lat="44.74681" lon="9.4376867"><ele>943.1999999999999</ele><time>2026-04-04T12:48:12.189Z</time></trkpt><trkpt lat="44.7467317" lon="9.437715"><ele>941.8000000000001</ele><time>2026-04-04T12:48:14.19Z</time></trkpt><trkpt lat="44.746645" lon="9.4377383"><ele>940.4000000000001</ele><time>2026-04-04T12:48:16.188Z</time></trkpt><trkpt lat="44.7465533" lon="9.437765"><ele>939.0</ele><time>2026-04-04T12:48:18.19Z</time></trkpt><trkpt lat="44.746445" lon="9.4378133"><ele>939.0</ele><time>2026-04-04T12:48:20.19Z</time></trkpt><trkpt lat="44.7463867" lon="9.4378533"><ele>939.0</ele><time>2026-04-04T12:48:21.189Z</time></trkpt><trkpt lat="44.7463267" lon="9.4379033"><ele>939.0</ele><time>2026-04-04T12:48:22.19Z</time></trkpt><trkpt lat="44.74627" lon="9.437955"><ele>939.0</ele><time>2026-04-04T12:48:23.191Z</time></trkpt><trkpt lat="44.746215" lon="9.4380033"><ele>939.0</ele><time>2026-04-04T12:48:24.188Z</time></trkpt><trkpt lat="44.7461417" lon="9.4381017"><ele>939.0</ele><time>2026-04-04T12:48:26.19Z</time></trkpt><trkpt lat="44.7461167" lon="9.4382417"><ele>943.2</ele><time>2026-04-04T12:48:28.188Z</time></trkpt><trkpt lat="44.746105" lon="9.438415"><ele>947.4000000000001</ele><time>2026-04-04T12:48:30.189Z</time></trkpt><trkpt lat="44.7461017" lon="9.4385833"><ele>951.6</ele><time>2026-04-04T12:48:32.193Z</time></trkpt><trkpt lat="44.746085" lon="9.4387217"><ele>955.8</ele><time>2026-04-04T12:48:34.188Z</time></trkpt><trkpt lat="44.7460667" lon="9.43884"><ele>960.0</ele><time>2026-04-04T12:48:36.188Z</time></trkpt><trkpt lat="44.7460333" lon="9.438985"><ele>960.0</ele><time>2026-04-04T12:48:38.189Z</time></trkpt><trkpt lat="44.746015" lon="9.4391383"><ele>960.0</ele><time>2026-04-04T12:48:40.188Z</time></trkpt><trkpt lat="44.74601" lon="9.4392667"><ele>960.0</ele><time>2026-04-04T12:48:42.189Z</time></trkpt><trkpt lat="44.7459933" lon="9.4393683"><ele>960.0</ele><time>2026-04-04T12:48:44.188Z</time></trkpt><trkpt lat="44.7459717" lon="9.4394533"><ele>960.0</ele><time>2026-04-04T12:48:46.188Z</time></trkpt><trkpt lat="44.7459467" lon="9.43955"><ele>960.0</ele><time>2026-04-04T12:48:48.188Z</time></trkpt><trkpt lat="44.7459183" lon="9.4397033"><ele>961.8333333333334</ele><time>2026-04-04T12:48:50.189Z</time></trkpt><trkpt lat="44.7459033" lon="9.4397983"><ele>963.6666666666667</ele><time>2026-04-04T12:48:51.189Z</time></trkpt><trkpt lat="44.745885" lon="9.439905"><ele>965.5</ele><time>2026-04-04T12:48:52.189Z</time></trkpt><trkpt lat="44.74587" lon="9.4400083"><ele>967.3333333333334</ele><time>2026-04-04T12:48:53.191Z</time></trkpt><trkpt lat="44.74586" lon="9.4401033"><ele>969.1666666666667</ele><time>2026-04-04T12:48:54.19Z</time></trkpt><trkpt lat="44.7458483" lon="9.4402583"><ele>971.0</ele><time>2026-04-04T12:48:56.19Z</time></trkpt><trkpt lat="44.7458317" lon="9.4403917"><ele>974.0</ele><time>2026-04-04T12:48:58.192Z</time></trkpt><trkpt lat="44.7457867" lon="9.440515"><ele>976.9999999999999</ele><time>2026-04-04T12:49:00.19Z</time></trkpt><trkpt lat="44.745705" lon="9.4406233"><ele>979.9999999999999</ele><time>2026-04-04T12:49:02.188Z</time></trkpt><trkpt lat="44.7455983" lon="9.440715"><ele>983.0</ele><time>2026-04-04T12:49:04.188Z</time></trkpt><trkpt lat="44.7455367" lon="9.44076"><ele>986.0</ele><time>2026-04-04T12:49:05.188Z</time></trkpt><trkpt lat="44.74547" lon="9.4408067"><ele>986.0</ele><time>2026-04-04T12:49:06.188Z</time></trkpt><trkpt lat="44.74541" lon="9.44085"><ele>985.9999999999999</ele><time>2026-04-04T12:49:07.188Z</time></trkpt><trkpt lat="44.7453" lon="9.44093"><ele>985.9999999999999</ele><time>2026-04-04T12:49:09.189Z</time></trkpt><trkpt lat="44.745195" lon="9.4410117"><ele>986.0</ele><time>2026-04-04T12:49:11.188Z</time></trkpt><trkpt lat="44.745095" lon="9.4410783"><ele>986.0</ele><time>2026-04-04T12:49:13.188Z</time></trkpt><trkpt lat="44.74503" lon="9.4411517"><ele>985.8</ele><time>2026-04-04T12:49:15.191Z</time></trkpt><trkpt lat="44.7450217" lon="9.44127"><ele>985.5999999999999</ele><time>2026-04-04T12:49:18.19Z</time></trkpt><trkpt lat="44.7451033" lon="9.4412917"><ele>985.4</ele><time>2026-04-04T12:49:20.19Z</time></trkpt><trkpt lat="44.7452067" lon="9.4413283"><ele>985.2</ele><time>2026-04-04T12:49:22.191Z</time></trkpt><trkpt lat="44.745275" lon="9.4414283"><ele>985.0</ele><time>2026-04-04T12:49:24.191Z</time></trkpt><trkpt lat="44.7452683" lon="9.4415433"><ele>988.8</ele><time>2026-04-04T12:49:26.196Z</time></trkpt><trkpt lat="44.74519" lon="9.4416667"><ele>992.6</ele><time>2026-04-04T12:49:28.19Z</time></trkpt><trkpt lat="44.7451183" lon="9.441735"><ele>996.4000000000001</ele><time>2026-04-04T12:49:29.191Z</time></trkpt><trkpt lat="44.7450517" lon="9.4418083"><ele>1000.2</ele><time>2026-04-04T12:49:30.191Z</time></trkpt><trkpt lat="44.7449783" lon="9.4418667"><ele>1004.0</ele><time>2026-04-04T12:49:31.19Z</time></trkpt><trkpt lat="44.7449033" lon="9.441905"><ele>1004.0000000000001</ele><time>2026-04-04T12:49:32.19Z</time></trkpt><trkpt lat="44.7448333" lon="9.4419467"><ele>1004.0</ele><time>2026-04-04T12:49:33.19Z</time></trkpt><trkpt lat="44.7447617" lon="9.44199"><ele>1004.0</ele><time>2026-04-04T12:49:34.19Z</time></trkpt><trkpt lat="44.744675" lon="9.442005"><ele>1004.0</ele><time>2026-04-04T12:49:35.191Z</time></trkpt><trkpt lat="44.7446083" lon="9.442025"><ele>1004.0000000000001</ele><time>2026-04-04T12:49:36.19Z</time></trkpt><trkpt lat="44.74452" lon="9.4420667"><ele>1004.0</ele><time>2026-04-04T12:49:37.19Z</time></trkpt><trkpt lat="44.7444567" lon="9.4421233"><ele>1003.8333333333334</ele><time>2026-04-04T12:49:38.19Z</time></trkpt><trkpt lat="44.74441" lon="9.4421967"><ele>1003.6666666666667</ele><time>2026-04-04T12:49:39.191Z</time></trkpt><trkpt lat="44.7443583" lon="9.44228"><ele>1003.5</ele><time>2026-04-04T12:49:40.188Z</time></trkpt><trkpt lat="44.7442967" lon="9.44236"><ele>1003.3333333333333</ele><time>2026-04-04T12:49:41.19Z</time></trkpt><trkpt lat="44.7442333" lon="9.4424283"><ele>1003.1666666666666</ele><time>2026-04-04T12:49:42.19Z</time></trkpt><trkpt lat="44.744175" lon="9.4424917"><ele>1003.0</ele><time>2026-04-04T12:49:43.191Z</time></trkpt><trkpt lat="44.7441233" lon="9.4425633"><ele>1003.0</ele><time>2026-04-04T12:49:44.191Z</time></trkpt><trkpt lat="44.7440883" lon="9.4426417"><ele>1002.9999999999999</ele><time>2026-04-04T12:49:45.19Z</time></trkpt><trkpt lat="44.7440633" lon="9.4427333"><ele>1003.0</ele><time>2026-04-04T12:49:46.189Z</time></trkpt><trkpt lat="44.7440583" lon="9.4428333"><ele>1003.0</ele><time>2026-04-04T12:49:47.189Z</time></trkpt><trkpt lat="44.7440667" lon="9.4429367"><ele>1002.9999999999999</ele><time>2026-04-04T12:49:48.189Z</time></trkpt><trkpt lat="44.74407" lon="9.4430367"><ele>1003.0</ele><time>2026-04-04T12:49:49.19Z</time></trkpt><trkpt lat="44.7440717" lon="9.4431317"><ele>1003.0</ele><time>2026-04-04T12:49:50.191Z</time></trkpt><trkpt lat="44.7440667" lon="9.4432283"><ele>1003.9999999999999</ele><time>2026-04-04T12:49:51.189Z</time></trkpt><trkpt lat="44.7440483" lon="9.4433217"><ele>1005.0</ele><time>2026-04-04T12:49:52.189Z</time></trkpt><trkpt lat="44.7440217" lon="9.4434067"><ele>1006.0</ele><time>2026-04-04T12:49:53.19Z</time></trkpt><trkpt lat="44.74396" lon="9.4435583"><ele>1007.0</ele><time>2026-04-04T12:49:55.19Z</time></trkpt><trkpt lat="44.7439317" lon="9.443645"><ele>1007.9999999999999</ele><time>2026-04-04T12:49:56.189Z</time></trkpt><trkpt lat="44.74391" lon="9.4437367"><ele>1009.0</ele><time>2026-04-04T12:49:57.188Z</time></trkpt><trkpt lat="44.743895" lon="9.44383"><ele>1009.0</ele><time>2026-04-04T12:49:58.188Z</time></trkpt><trkpt lat="44.7438817" lon="9.4439217"><ele>1009.0</ele><time>2026-04-04T12:49:59.188Z</time></trkpt><trkpt lat="44.7438767" lon="9.44402"><ele>1009.0</ele><time>2026-04-04T12:50:00.188Z</time></trkpt><trkpt lat="44.7438733" lon="9.4441183"><ele>1009.0</ele><time>2026-04-04T12:50:01.188Z</time></trkpt><trkpt lat="44.743875" lon="9.444215"><ele>1009.0</ele><time>2026-04-04T12:50:02.188Z</time></trkpt><trkpt lat="44.74388" lon="9.44431"><ele>1009.0</ele><time>2026-04-04T12:50:03.188Z</time></trkpt><trkpt lat="44.7438867" lon="9.4444067"><ele>1009.0</ele><time>2026-04-04T12:50:04.188Z</time></trkpt><trkpt lat="44.743895" lon="9.4445083"><ele>1008.9999999999999</ele><time>2026-04-04T12:50:05.188Z</time></trkpt><trkpt lat="44.7438983" lon="9.44461"><ele>1009.0</ele><time>2026-04-04T12:50:06.189Z</time></trkpt><trkpt lat="44.7439" lon="9.4447167"><ele>1009.0</ele><time>2026-04-04T12:50:07.189Z</time></trkpt><trkpt lat="44.743895" lon="9.444825"><ele>1009.0</ele><time>2026-04-04T12:50:08.188Z</time></trkpt><trkpt lat="44.7438883" lon="9.4449383"><ele>1008.9999999999999</ele><time>2026-04-04T12:50:09.189Z</time></trkpt><trkpt lat="44.743885" lon="9.44506"><ele>1009.0</ele><time>2026-04-04T12:50:10.189Z</time></trkpt><trkpt lat="44.7438767" lon="9.4451817"><ele>1009.9999999999999</ele><time>2026-04-04T12:50:11.19Z</time></trkpt><trkpt lat="44.7438617" lon="9.4452983"><ele>1011.0</ele><time>2026-04-04T12:50:12.191Z</time></trkpt><trkpt lat="44.74384" lon="9.445405"><ele>1012.0</ele><time>2026-04-04T12:50:13.19Z</time></trkpt><trkpt lat="44.7438133" lon="9.4455117"><ele>1013.0</ele><time>2026-04-04T12:50:14.19Z</time></trkpt><trkpt lat="44.743785" lon="9.445615"><ele>1013.9999999999999</ele><time>2026-04-04T12:50:15.188Z</time></trkpt><trkpt lat="44.7437483" lon="9.44571"><ele>1015.0</ele><time>2026-04-04T12:50:16.189Z</time></trkpt><trkpt lat="44.7437117" lon="9.4458033"><ele>1013.8333333333333</ele><time>2026-04-04T12:50:17.188Z</time></trkpt><trkpt lat="44.743675" lon="9.4458917"><ele>1012.6666666666666</ele><time>2026-04-04T12:50:18.188Z</time></trkpt><trkpt lat="44.7436433" lon="9.4459783"><ele>1011.5</ele><time>2026-04-04T12:50:19.19Z</time></trkpt><trkpt lat="44.743585" lon="9.446125"><ele>1010.3333333333333</ele><time>2026-04-04T12:50:21.188Z</time></trkpt><trkpt lat="44.74354" lon="9.44624"><ele>1009.1666666666666</ele><time>2026-04-04T12:50:23.189Z</time></trkpt><trkpt lat="44.7435467" lon="9.4463383"><ele>1008.0</ele><time>2026-04-04T12:50:26.189Z</time></trkpt><trkpt lat="44.743605" lon="9.44629"><ele>1008.0</ele><time>2026-04-04T12:50:31.189Z</time></trkpt><trkpt lat="44.7435433" lon="9.4462633"><ele>1008.0</ele><time>2026-04-04T12:50:35.189Z</time></trkpt><trkpt lat="44.7434933" lon="9.446375"><ele>1008.0</ele><time>2026-04-04T12:50:48.19Z</time></trkpt><trkpt lat="44.7434683" lon="9.4464583"><ele>1008.0</ele><time>2026-04-04T12:50:49.19Z</time></trkpt><trkpt lat="44.7434383" lon="9.4465483"><ele>1008.0</ele><time>2026-04-04T12:50:50.19Z</time></trkpt><trkpt lat="44.7434" lon="9.4466317"><ele>1008.0</ele><time>2026-04-04T12:50:51.188Z</time></trkpt><trkpt lat="44.7433567" lon="9.4467067"><ele>1008.0</ele><time>2026-04-04T12:50:52.188Z</time></trkpt><trkpt lat="44.7432983" lon="9.4467833"><ele>1008.0</ele><time>2026-04-04T12:50:53.188Z</time></trkpt><trkpt lat="44.74323" lon="9.4468667"><ele>1008.0</ele><time>2026-04-04T12:50:54.188Z</time></trkpt><trkpt lat="44.74316" lon="9.4469583"><ele>1008.0</ele><time>2026-04-04T12:50:55.188Z</time></trkpt><trkpt lat="44.7430967" lon="9.447055"><ele>1008.0</ele><time>2026-04-04T12:50:56.188Z</time></trkpt><trkpt lat="44.7430483" lon="9.447155"><ele>1008.0</ele><time>2026-04-04T12:50:57.188Z</time></trkpt><trkpt lat="44.74301" lon="9.4472417"><ele>1008.0</ele><time>2026-04-04T12:50:58.189Z</time></trkpt><trkpt lat="44.7429283" lon="9.4473517"><ele>1008.4</ele><time>2026-04-04T12:51:00.19Z</time></trkpt><trkpt lat="44.74281" lon="9.4473817"><ele>1008.8</ele><time>2026-04-04T12:51:02.189Z</time></trkpt><trkpt lat="44.742735" lon="9.44738"><ele>1009.2</ele><time>2026-04-04T12:51:03.189Z</time></trkpt><trkpt lat="44.7426167" lon="9.4473683"><ele>1009.6</ele><time>2026-04-04T12:51:04.19Z</time></trkpt><trkpt lat="44.7424967" lon="9.4473567"><ele>1010.0</ele><time>2026-04-04T12:51:05.19Z</time></trkpt><trkpt lat="44.7423567" lon="9.447365"><ele>1010.0</ele><time>2026-04-04T12:51:06.189Z</time></trkpt><trkpt lat="44.7422267" lon="9.4473733"><ele>1010.0</ele><time>2026-04-04T12:51:07.19Z</time></trkpt><trkpt lat="44.7421" lon="9.4473783"><ele>1010.0</ele><time>2026-04-04T12:51:08.192Z</time></trkpt><trkpt lat="44.7419867" lon="9.4473833"><ele>1010.0</ele><time>2026-04-04T12:51:09.191Z</time></trkpt><trkpt lat="44.741885" lon="9.44738"><ele>1010.0000000000001</ele><time>2026-04-04T12:51:10.192Z</time></trkpt><trkpt lat="44.741795" lon="9.4473733"><ele>1010.0</ele><time>2026-04-04T12:51:11.19Z</time></trkpt><trkpt lat="44.7417167" lon="9.44737"><ele>1010.0</ele><time>2026-04-04T12:51:12.189Z</time></trkpt><trkpt lat="44.7416467" lon="9.4473783"><ele>1010.0</ele><time>2026-04-04T12:51:13.189Z</time></trkpt><trkpt lat="44.741545" lon="9.44738"><ele>1010.0000000000001</ele><time>2026-04-04T12:51:15.188Z</time></trkpt><trkpt lat="44.7414683" lon="9.4473383"><ele>1010.0</ele><time>2026-04-04T12:51:17.188Z</time></trkpt><trkpt lat="44.7414083" lon="9.4472817"><ele>1010.0</ele><time>2026-04-04T12:51:19.189Z</time></trkpt><trkpt lat="44.7413467" lon="9.44722"><ele>1010.0</ele><time>2026-04-04T12:51:22.189Z</time></trkpt></trkseg><trkseg><trkpt lat="44.741465" lon="9.4477817"><ele>1010.0</ele><time>2026-04-04T13:27:08.191Z</time></trkpt><trkpt lat="44.7413983" lon="9.44776"><ele>1009.9999999999999</ele><time>2026-04-04T13:28:31.188Z</time></trkpt><trkpt lat="44.7413333" lon="9.4477733"><ele>1010.0</ele><time>2026-04-04T13:28:38.188Z</time></trkpt><trkpt lat="44.74127" lon="9.44776"><ele>1010.0</ele><time>2026-04-04T13:28:43.189Z</time></trkpt><trkpt lat="44.741205" lon="9.4476817"><ele>1009.9999999999999</ele><time>2026-04-04T13:28:57.188Z</time></trkpt><trkpt lat="44.7411383" lon="9.44769"><ele>1010.0</ele><time>2026-04-04T13:29:00.189Z</time></trkpt><trkpt lat="44.7410567" lon="9.4477283"><ele>1010.0</ele><time>2026-04-04T13:29:40.188Z</time></trkpt><trkpt lat="44.7410083" lon="9.447815"><ele>1007.8333333333334</ele><time>2026-04-04T13:31:02.191Z</time></trkpt><trkpt lat="44.7409433" lon="9.4478283"><ele>1005.6666666666667</ele><time>2026-04-04T13:31:11.189Z</time></trkpt><trkpt lat="44.740855" lon="9.44786"><ele>1003.5</ele><time>2026-04-04T13:31:20.189Z</time></trkpt><trkpt lat="44.7407483" lon="9.4478933"><ele>1001.3333333333333</ele><time>2026-04-04T13:31:22.19Z</time></trkpt><trkpt lat="44.7406633" lon="9.4478967"><ele>999.1666666666666</ele><time>2026-04-04T13:31:24.188Z</time></trkpt><trkpt lat="44.7405683" lon="9.4479017"><ele>997.0</ele><time>2026-04-04T13:31:26.189Z</time></trkpt><trkpt lat="44.74047" lon="9.4479217"><ele>997.0</ele><time>2026-04-04T13:31:28.189Z</time></trkpt><trkpt lat="44.740365" lon="9.4479583"><ele>997.0</ele><time>2026-04-04T13:31:30.189Z</time></trkpt><trkpt lat="44.7402617" lon="9.4480017"><ele>997.0</ele><time>2026-04-04T13:31:32.189Z</time></trkpt><trkpt lat="44.7401533" lon="9.4480483"><ele>997.0</ele><time>2026-04-04T13:31:34.188Z</time></trkpt><trkpt lat="44.7400433" lon="9.4480933"><ele>997.0</ele><time>2026-04-04T13:31:36.188Z</time></trkpt><trkpt lat="44.739975" lon="9.44811"><ele>999.6</ele><time>2026-04-04T13:31:37.188Z</time></trkpt><trkpt lat="44.7399067" lon="9.4481317"><ele>1002.2</ele><time>2026-04-04T13:31:38.189Z</time></trkpt><trkpt lat="44.739845" lon="9.4481533"><ele>1004.8</ele><time>2026-04-04T13:31:39.188Z</time></trkpt><trkpt lat="44.7397333" lon="9.44819"><ele>1007.4</ele><time>2026-04-04T13:31:41.188Z</time></trkpt><trkpt lat="44.7396317" lon="9.4482367"><ele>1010.0</ele><time>2026-04-04T13:31:43.188Z</time></trkpt><trkpt lat="44.7395367" lon="9.4482533"><ele>1010.0</ele><time>2026-04-04T13:31:45.188Z</time></trkpt><trkpt lat="44.73944" lon="9.4482017"><ele>1010.0</ele><time>2026-04-04T13:31:47.189Z</time></trkpt><trkpt lat="44.739365" lon="9.4481517"><ele>1010.0</ele><time>2026-04-04T13:31:49.188Z</time></trkpt><trkpt lat="44.73928" lon="9.4481467"><ele>1010.0</ele><time>2026-04-04T13:31:51.188Z</time></trkpt><trkpt lat="44.7392041" lon="9.4482059"><ele>1010.0</ele><time>2026-04-04T13:31:53.196Z</time></trkpt><trkpt lat="44.7391111" lon="9.4482212"><ele>1009.3333333333334</ele><time>2026-04-04T13:31:55.189Z</time></trkpt><trkpt lat="44.7390268" lon="9.4481468"><ele>1008.6666666666667</ele><time>2026-04-04T13:31:57.191Z</time></trkpt><trkpt lat="44.7389874" lon="9.4480703"><ele>1008.0</ele><time>2026-04-04T13:31:58.19Z</time></trkpt><trkpt lat="44.7389445" lon="9.4479846"><ele>1007.3333333333333</ele><time>2026-04-04T13:31:59.19Z</time></trkpt><trkpt lat="44.7388949" lon="9.4479023"><ele>1006.6666666666666</ele><time>2026-04-04T13:32:00.191Z</time></trkpt><trkpt lat="44.7388433" lon="9.4478323"><ele>1006.0</ele><time>2026-04-04T13:32:01.19Z</time></trkpt><trkpt lat="44.7387914" lon="9.4477794"><ele>999.8</ele><time>2026-04-04T13:32:02.19Z</time></trkpt><trkpt lat="44.7387029" lon="9.4477171"><ele>993.5999999999999</ele><time>2026-04-04T13:32:04.191Z</time></trkpt><trkpt lat="44.7386331" lon="9.4476774"><ele>987.4</ele><time>2026-04-04T13:32:06.192Z</time></trkpt><trkpt lat="44.7385554" lon="9.4477014"><ele>981.2</ele><time>2026-04-04T13:32:08.189Z</time></trkpt><trkpt lat="44.73848" lon="9.4477878"><ele>975.0</ele><time>2026-04-04T13:32:10.189Z</time></trkpt><trkpt lat="44.7384041" lon="9.447894"><ele>979.0</ele><time>2026-04-04T13:32:12.19Z</time></trkpt><trkpt lat="44.7383292" lon="9.4479865"><ele>983.0</ele><time>2026-04-04T13:32:14.191Z</time></trkpt><trkpt lat="44.7382369" lon="9.4480585"><ele>987.0</ele><time>2026-04-04T13:32:16.188Z</time></trkpt><trkpt lat="44.7381489" lon="9.4480853"><ele>991.0</ele><time>2026-04-04T13:32:18.188Z</time></trkpt><trkpt lat="44.7380468" lon="9.4480712"><ele>995.0</ele><time>2026-04-04T13:32:20.19Z</time></trkpt><trkpt lat="44.7379468" lon="9.4480331"><ele>995.0000000000001</ele><time>2026-04-04T13:32:22.189Z</time></trkpt><trkpt lat="44.7378453" lon="9.448022"><ele>995.0</ele><time>2026-04-04T13:32:24.188Z</time></trkpt><trkpt lat="44.7377472" lon="9.4480302"><ele>995.0</ele><time>2026-04-04T13:32:26.19Z</time></trkpt><trkpt lat="44.7376659" lon="9.4479902"><ele>995.0</ele><time>2026-04-04T13:32:28.189Z</time></trkpt><trkpt lat="44.7376037" lon="9.4479432"><ele>995.0000000000001</ele><time>2026-04-04T13:32:30.189Z</time></trkpt><trkpt lat="44.7375337" lon="9.4479899"><ele>995.0</ele><time>2026-04-04T13:32:33.19Z</time></trkpt><trkpt lat="44.7374867" lon="9.448064"><ele>991.0000000000001</ele><time>2026-04-04T13:32:35.189Z</time></trkpt><trkpt lat="44.7374415" lon="9.4481578"><ele>987.0</ele><time>2026-04-04T13:32:37.189Z</time></trkpt><trkpt lat="44.7374172" lon="9.448262"><ele>983.0</ele><time>2026-04-04T13:32:39.188Z</time></trkpt><trkpt lat="44.7373967" lon="9.4483482"><ele>979.0</ele><time>2026-04-04T13:32:41.189Z</time></trkpt><trkpt lat="44.7373449" lon="9.4484013"><ele>975.0000000000001</ele><time>2026-04-04T13:32:44.188Z</time></trkpt><trkpt lat="44.737271" lon="9.4483172"><ele>971.0</ele><time>2026-04-04T13:32:47.188Z</time></trkpt><trkpt lat="44.7372139" lon="9.4482348"><ele>971.0</ele><time>2026-04-04T13:32:49.19Z</time></trkpt><trkpt lat="44.7371472" lon="9.4481552"><ele>970.9999999999999</ele><time>2026-04-04T13:32:51.188Z</time></trkpt><trkpt lat="44.7370676" lon="9.4480315"><ele>970.9999999999999</ele><time>2026-04-04T13:32:53.189Z</time></trkpt><trkpt lat="44.7370212" lon="9.4479682"><ele>971.0</ele><time>2026-04-04T13:32:54.19Z</time></trkpt><trkpt lat="44.7369363" lon="9.4478833"><ele>971.0</ele><time>2026-04-04T13:32:56.189Z</time></trkpt><trkpt lat="44.7368496" lon="9.4478932"><ele>969.1666666666667</ele><time>2026-04-04T13:32:59.188Z</time></trkpt><trkpt lat="44.7367823" lon="9.4479456"><ele>967.3333333333334</ele><time>2026-04-04T13:33:01.19Z</time></trkpt><trkpt lat="44.7367129" lon="9.4480154"><ele>965.5</ele><time>2026-04-04T13:33:03.19Z</time></trkpt><trkpt lat="44.7366474" lon="9.4480852"><ele>963.6666666666667</ele><time>2026-04-04T13:33:05.19Z</time></trkpt><trkpt lat="44.7365865" lon="9.4481408"><ele>961.8333333333334</ele><time>2026-04-04T13:33:07.19Z</time></trkpt><trkpt lat="44.7365147" lon="9.4481643"><ele>960.0</ele><time>2026-04-04T13:33:09.19Z</time></trkpt><trkpt lat="44.7364385" lon="9.4481506"><ele>960.0</ele><time>2026-04-04T13:33:11.189Z</time></trkpt><trkpt lat="44.736355" lon="9.4481067"><ele>960.0</ele><time>2026-04-04T13:33:13.189Z</time></trkpt><trkpt lat="44.7362667" lon="9.4480767"><ele>960.0</ele><time>2026-04-04T13:33:15.191Z</time></trkpt><trkpt lat="44.7361517" lon="9.4480867"><ele>960.0</ele><time>2026-04-04T13:33:17.188Z</time></trkpt><trkpt lat="44.736085" lon="9.4481033"><ele>960.0</ele><time>2026-04-04T13:33:18.189Z</time></trkpt><trkpt lat="44.736015" lon="9.4481283"><ele>960.0</ele><time>2026-04-04T13:33:19.188Z</time></trkpt><trkpt lat="44.7359433" lon="9.4481517"><ele>959.5</ele><time>2026-04-04T13:33:20.191Z</time></trkpt><trkpt lat="44.7358783" lon="9.448175"><ele>959.0</ele><time>2026-04-04T13:33:21.189Z</time></trkpt><trkpt lat="44.7357817" lon="9.4482433"><ele>958.5</ele><time>2026-04-04T13:33:23.191Z</time></trkpt><trkpt lat="44.7357367" lon="9.448315"><ele>958.0</ele><time>2026-04-04T13:33:25.189Z</time></trkpt><trkpt lat="44.735685" lon="9.4483717"><ele>957.5</ele><time>2026-04-04T13:33:27.189Z</time></trkpt><trkpt lat="44.7356117" lon="9.448405"><ele>957.0</ele><time>2026-04-04T13:33:30.19Z</time></trkpt><trkpt lat="44.7355767" lon="9.4482917"><ele>957.0</ele><time>2026-04-04T13:33:33.189Z</time></trkpt><trkpt lat="44.7355667" lon="9.4481583"><ele>957.0</ele><time>2026-04-04T13:33:35.19Z</time></trkpt><trkpt lat="44.7355583" lon="9.44807"><ele>957.0</ele><time>2026-04-04T13:33:36.189Z</time></trkpt><trkpt lat="44.73554" lon="9.447985"><ele>957.0</ele><time>2026-04-04T13:33:37.189Z</time></trkpt><trkpt lat="44.7355067" lon="9.4478633"><ele>957.0</ele><time>2026-04-04T13:33:39.189Z</time></trkpt><trkpt lat="44.7354617" lon="9.447795"><ele>957.0</ele><time>2026-04-04T13:33:41.19Z</time></trkpt><trkpt lat="44.73537" lon="9.44782"><ele>956.4000000000001</ele><time>2026-04-04T13:33:43.188Z</time></trkpt><trkpt lat="44.7352633" lon="9.447855"><ele>955.8000000000001</ele><time>2026-04-04T13:33:45.19Z</time></trkpt><trkpt lat="44.7351467" lon="9.4479"><ele>955.2</ele><time>2026-04-04T13:33:47.189Z</time></trkpt><trkpt lat="44.73505" lon="9.4479367"><ele>954.6</ele><time>2026-04-04T13:33:49.189Z</time></trkpt><trkpt lat="44.734975" lon="9.4479067"><ele>954.0</ele><time>2026-04-04T13:33:51.19Z</time></trkpt><trkpt lat="44.7349" lon="9.4478317"><ele>954.0</ele><time>2026-04-04T13:33:53.19Z</time></trkpt><trkpt lat="44.7348083" lon="9.4477483"><ele>954.0</ele><time>2026-04-04T13:33:55.189Z</time></trkpt><trkpt lat="44.7347217" lon="9.4476933"><ele>954.0</ele><time>2026-04-04T13:33:57.189Z</time></trkpt><trkpt lat="44.7346483" lon="9.4476933"><ele>954.0</ele><time>2026-04-04T13:33:59.19Z</time></trkpt><trkpt lat="44.7345833" lon="9.4477267"><ele>954.0</ele><time>2026-04-04T13:34:01.188Z</time></trkpt><trkpt lat="44.73452" lon="9.447745"><ele>954.0</ele><time>2026-04-04T13:34:03.189Z</time></trkpt><trkpt lat="44.7344717" lon="9.447635"><ele>954.0</ele><time>2026-04-04T13:34:06.19Z</time></trkpt><trkpt lat="44.7344317" lon="9.4475117"><ele>954.0000000000001</ele><time>2026-04-04T13:34:08.19Z</time></trkpt><trkpt lat="44.7343567" lon="9.4474017"><ele>954.0000000000001</ele><time>2026-04-04T13:34:10.189Z</time></trkpt><trkpt lat="44.7342567" lon="9.4473183"><ele>954.0</ele><time>2026-04-04T13:34:12.19Z</time></trkpt><trkpt lat="44.7341517" lon="9.4472733"><ele>954.0</ele><time>2026-04-04T13:34:14.19Z</time></trkpt><trkpt lat="44.7340383" lon="9.447265"><ele>955.6</ele><time>2026-04-04T13:34:16.192Z</time></trkpt><trkpt lat="44.7339083" lon="9.44728"><ele>957.2</ele><time>2026-04-04T13:34:18.19Z</time></trkpt><trkpt lat="44.7338433" lon="9.4472733"><ele>958.8000000000001</ele><time>2026-04-04T13:34:19.19Z</time></trkpt><trkpt lat="44.73373" lon="9.447235"><ele>960.4000000000001</ele><time>2026-04-04T13:34:21.19Z</time></trkpt><trkpt lat="44.7336667" lon="9.4472133"><ele>962.0</ele><time>2026-04-04T13:34:22.188Z</time></trkpt><trkpt lat="44.733555" lon="9.44719"><ele>963.8</ele><time>2026-04-04T13:34:24.189Z</time></trkpt><trkpt lat="44.73344" lon="9.4472033"><ele>965.6</ele><time>2026-04-04T13:34:26.189Z</time></trkpt><trkpt lat="44.733335" lon="9.4472383"><ele>967.3999999999999</ele><time>2026-04-04T13:34:28.189Z</time></trkpt><trkpt lat="44.7332383" lon="9.447285"><ele>969.1999999999999</ele><time>2026-04-04T13:34:30.192Z</time></trkpt><trkpt lat="44.733155" lon="9.447365"><ele>971.0</ele><time>2026-04-04T13:34:32.189Z</time></trkpt><trkpt lat="44.73307" lon="9.4474917"><ele>971.0000000000001</ele><time>2026-04-04T13:34:34.19Z</time></trkpt><trkpt lat="44.7330317" lon="9.4475717"><ele>971.0</ele><time>2026-04-04T13:34:35.189Z</time></trkpt><trkpt lat="44.7329967" lon="9.4476567"><ele>971.0</ele><time>2026-04-04T13:34:36.189Z</time></trkpt><trkpt lat="44.7329617" lon="9.4477383"><ele>971.0</ele><time>2026-04-04T13:34:37.19Z</time></trkpt><trkpt lat="44.7329067" lon="9.4478517"><ele>971.0000000000001</ele><time>2026-04-04T13:34:39.189Z</time></trkpt><trkpt lat="44.73286" lon="9.4479333"><ele>971.0</ele><time>2026-04-04T13:35:01.19Z</time></trkpt><trkpt lat="44.7327583" lon="9.4479417"><ele>975.0</ele><time>2026-04-04T13:35:04.189Z</time></trkpt><trkpt lat="44.73267" lon="9.4478883"><ele>978.9999999999999</ele><time>2026-04-04T13:35:06.189Z</time></trkpt><trkpt lat="44.7326083" lon="9.447835"><ele>982.9999999999999</ele><time>2026-04-04T13:35:08.191Z</time></trkpt><trkpt lat="44.73255" lon="9.4477483"><ele>987.0</ele><time>2026-04-04T13:35:10.189Z</time></trkpt><trkpt lat="44.7324833" lon="9.4475967"><ele>991.0</ele><time>2026-04-04T13:35:12.19Z</time></trkpt><trkpt lat="44.732455" lon="9.4475067"><ele>990.9999999999999</ele><time>2026-04-04T13:35:13.187Z</time></trkpt><trkpt lat="44.7324217" lon="9.447405"><ele>991.0</ele><time>2026-04-04T13:35:14.189Z</time></trkpt><trkpt lat="44.7323833" lon="9.4472983"><ele>991.0</ele><time>2026-04-04T13:35:15.189Z</time></trkpt><trkpt lat="44.7323517" lon="9.447195"><ele>991.0</ele><time>2026-04-04T13:35:16.189Z</time></trkpt><trkpt lat="44.7323333" lon="9.447095"><ele>990.9999999999999</ele><time>2026-04-04T13:35:17.187Z</time></trkpt><trkpt lat="44.7323283" lon="9.4470017"><ele>991.0</ele><time>2026-04-04T13:35:18.188Z</time></trkpt><trkpt lat="44.7322983" lon="9.446835"><ele>989.8333333333333</ele><time>2026-04-04T13:35:20.188Z</time></trkpt><trkpt lat="44.732275" lon="9.4467433"><ele>988.6666666666666</ele><time>2026-04-04T13:35:21.188Z</time></trkpt><trkpt lat="44.7322333" lon="9.446575"><ele>987.5</ele><time>2026-04-04T13:35:23.192Z</time></trkpt><trkpt lat="44.7322183" lon="9.44648"><ele>986.3333333333333</ele><time>2026-04-04T13:35:25.187Z</time></trkpt><trkpt lat="44.7322183" lon="9.4463733"><ele>985.1666666666666</ele><time>2026-04-04T13:35:54.195Z</time></trkpt><trkpt lat="44.7321917" lon="9.44647"><ele>984.0</ele><time>2026-04-04T13:36:04.191Z</time></trkpt><trkpt lat="44.7321767" lon="9.446595"><ele>984.0</ele><time>2026-04-04T13:36:07.189Z</time></trkpt><trkpt lat="44.732185" lon="9.4466883"><ele>984.0000000000001</ele><time>2026-04-04T13:36:09.188Z</time></trkpt><trkpt lat="44.7321867" lon="9.4468217"><ele>984.0000000000001</ele><time>2026-04-04T13:36:11.188Z</time></trkpt><trkpt lat="44.73216" lon="9.4469783"><ele>984.0</ele><time>2026-04-04T13:36:13.188Z</time></trkpt><trkpt lat="44.7321183" lon="9.4471167"><ele>984.0</ele><time>2026-04-04T13:36:15.189Z</time></trkpt><trkpt lat="44.7320783" lon="9.44723"><ele>985.4000000000001</ele><time>2026-04-04T13:36:17.189Z</time></trkpt><trkpt lat="44.7320667" lon="9.4473467"><ele>986.8000000000001</ele><time>2026-04-04T13:36:19.189Z</time></trkpt><trkpt lat="44.732065" lon="9.4474567"><ele>988.1999999999999</ele><time>2026-04-04T13:36:21.19Z</time></trkpt><trkpt lat="44.732075" lon="9.4475817"><ele>989.5999999999999</ele><time>2026-04-04T13:36:23.189Z</time></trkpt><trkpt lat="44.732085" lon="9.44773"><ele>991.0</ele><time>2026-04-04T13:36:25.188Z</time></trkpt><trkpt lat="44.7320517" lon="9.4478817"><ele>991.9999999999999</ele><time>2026-04-04T13:36:27.188Z</time></trkpt><trkpt lat="44.7320183" lon="9.4480217"><ele>993.0</ele><time>2026-04-04T13:36:29.189Z</time></trkpt><trkpt lat="44.7319933" lon="9.4481467"><ele>994.0</ele><time>2026-04-04T13:36:31.188Z</time></trkpt><trkpt lat="44.7319883" lon="9.4482483"><ele>995.0</ele><time>2026-04-04T13:36:33.188Z</time></trkpt><trkpt lat="44.7319733" lon="9.4483583"><ele>995.9999999999999</ele><time>2026-04-04T13:36:35.189Z</time></trkpt><trkpt lat="44.7319883" lon="9.4484517"><ele>997.0</ele><time>2026-04-04T13:36:37.189Z</time></trkpt><trkpt lat="44.7320233" lon="9.4485317"><ele>997.0</ele><time>2026-04-04T13:36:39.189Z</time></trkpt><trkpt lat="44.7321283" lon="9.44864"><ele>997.0</ele><time>2026-04-04T13:36:41.188Z</time></trkpt><trkpt lat="44.73218" lon="9.44871"><ele>997.0</ele><time>2026-04-04T13:36:42.188Z</time></trkpt><trkpt lat="44.7322333" lon="9.4487833"><ele>997.0</ele><time>2026-04-04T13:36:43.188Z</time></trkpt><trkpt lat="44.7322733" lon="9.4488583"><ele>997.0</ele><time>2026-04-04T13:36:44.188Z</time></trkpt><trkpt lat="44.7323683" lon="9.4489817"><ele>996.8333333333333</ele><time>2026-04-04T13:36:46.187Z</time></trkpt><trkpt lat="44.73242" lon="9.4490533"><ele>996.6666666666666</ele><time>2026-04-04T13:36:47.188Z</time></trkpt><trkpt lat="44.732475" lon="9.44911"><ele>996.5</ele><time>2026-04-04T13:36:48.189Z</time></trkpt><trkpt lat="44.7325283" lon="9.449165"><ele>996.3333333333333</ele><time>2026-04-04T13:36:49.191Z</time></trkpt><trkpt lat="44.7326067" lon="9.4492667"><ele>996.1666666666666</ele><time>2026-04-04T13:36:51.19Z</time></trkpt><trkpt lat="44.7326783" lon="9.4493783"><ele>996.0</ele><time>2026-04-04T13:36:53.188Z</time></trkpt><trkpt lat="44.7327483" lon="9.4495133"><ele>998.8</ele><time>2026-04-04T13:36:55.192Z</time></trkpt><trkpt lat="44.7327883" lon="9.4496583"><ele>1001.5999999999999</ele><time>2026-04-04T13:36:57.19Z</time></trkpt><trkpt lat="44.73283" lon="9.44977"><ele>1004.4</ele><time>2026-04-04T13:36:59.191Z</time></trkpt><trkpt lat="44.7328817" lon="9.4498833"><ele>1007.2</ele><time>2026-04-04T13:37:01.191Z</time></trkpt><trkpt lat="44.7329117" lon="9.45"><ele>1010.0</ele><time>2026-04-04T13:37:03.189Z</time></trkpt><trkpt lat="44.7329283" lon="9.4500967"><ele>1010.0</ele><time>2026-04-04T13:37:05.189Z</time></trkpt><trkpt lat="44.7329167" lon="9.45022"><ele>1010.0</ele><time>2026-04-04T13:37:08.19Z</time></trkpt><trkpt lat="44.7328917" lon="9.450365"><ele>1010.0</ele><time>2026-04-04T13:37:11.189Z</time></trkpt><trkpt lat="44.7328503" lon="9.4504985"><ele>1010.0</ele><time>2026-04-04T13:37:13.19Z</time></trkpt><trkpt lat="44.7328016" lon="9.4506233"><ele>1010.0</ele><time>2026-04-04T13:37:15.188Z</time></trkpt><trkpt lat="44.7327553" lon="9.450728"><ele>1015.8</ele><time>2026-04-04T13:37:17.187Z</time></trkpt><trkpt lat="44.7326904" lon="9.4508565"><ele>1021.6</ele><time>2026-04-04T13:37:19.191Z</time></trkpt><trkpt lat="44.7326375" lon="9.4509932"><ele>1027.4</ele><time>2026-04-04T13:37:21.188Z</time></trkpt><trkpt lat="44.7326052" lon="9.4510847"><ele>1033.2</ele><time>2026-04-04T13:37:23.188Z</time></trkpt><trkpt lat="44.7325718" lon="9.4511641"><ele>1039.0</ele><time>2026-04-04T13:37:29.19Z</time></trkpt><trkpt lat="44.7325493" lon="9.4512872"><ele>1040.8</ele><time>2026-04-04T13:37:31.19Z</time></trkpt><trkpt lat="44.73256" lon="9.45143"><ele>1042.6000000000001</ele><time>2026-04-04T13:37:33.189Z</time></trkpt><trkpt lat="44.7326183" lon="9.4515233"><ele>1044.4</ele><time>2026-04-04T13:37:35.188Z</time></trkpt><trkpt lat="44.73271" lon="9.451625"><ele>1046.2</ele><time>2026-04-04T13:37:37.189Z</time></trkpt><trkpt lat="44.7327917" lon="9.4517333"><ele>1048.0</ele><time>2026-04-04T13:37:39.188Z</time></trkpt><trkpt lat="44.73284" lon="9.4518367"><ele>1046.5</ele><time>2026-04-04T13:37:41.188Z</time></trkpt><trkpt lat="44.7328467" lon="9.4519483"><ele>1045.0</ele><time>2026-04-04T13:37:43.188Z</time></trkpt><trkpt lat="44.7328217" lon="9.45206"><ele>1043.5</ele><time>2026-04-04T13:37:45.188Z</time></trkpt><trkpt lat="44.7327933" lon="9.452165"><ele>1042.0</ele><time>2026-04-04T13:37:47.189Z</time></trkpt><trkpt lat="44.7327764" lon="9.4522961"><ele>1040.5</ele><time>2026-04-04T13:37:49.189Z</time></trkpt><trkpt lat="44.7327651" lon="9.4524209"><ele>1039.0</ele><time>2026-04-04T13:37:51.189Z</time></trkpt><trkpt lat="44.7327527" lon="9.4525186"><ele>1039.0</ele><time>2026-04-04T13:37:53.188Z</time></trkpt><trkpt lat="44.7327818" lon="9.4526352"><ele>1039.0</ele><time>2026-04-04T13:38:03.188Z</time></trkpt><trkpt lat="44.7327774" lon="9.4527464"><ele>1039.0</ele><time>2026-04-04T13:38:05.192Z</time></trkpt><trkpt lat="44.732765" lon="9.4528733"><ele>1039.0</ele><time>2026-04-04T13:38:07.189Z</time></trkpt><trkpt lat="44.73275" lon="9.453"><ele>1039.0</ele><time>2026-04-04T13:38:09.189Z</time></trkpt><trkpt lat="44.7327267" lon="9.4530867"><ele>1039.0</ele><time>2026-04-04T13:38:11.193Z</time></trkpt><trkpt lat="44.732695" lon="9.4531783"><ele>1041.8333333333333</ele><time>2026-04-04T13:38:14.191Z</time></trkpt><trkpt lat="44.7327483" lon="9.4532567"><ele>1044.6666666666665</ele><time>2026-04-04T13:38:21.188Z</time></trkpt><trkpt lat="44.7328533" lon="9.4532417"><ele>1047.5</ele><time>2026-04-04T13:38:24.189Z</time></trkpt><trkpt lat="44.732935" lon="9.4532583"><ele>1050.3333333333333</ele><time>2026-04-04T13:38:26.189Z</time></trkpt><trkpt lat="44.7330067" lon="9.4532983"><ele>1053.1666666666667</ele><time>2026-04-04T13:38:28.189Z</time></trkpt><trkpt lat="44.73305" lon="9.4533783"><ele>1056.0</ele><time>2026-04-04T13:38:30.187Z</time></trkpt><trkpt lat="44.733065" lon="9.4534867"><ele>1056.0</ele><time>2026-04-04T13:38:32.189Z</time></trkpt><trkpt lat="44.7330517" lon="9.453595"><ele>1056.0</ele><time>2026-04-04T13:38:34.193Z</time></trkpt><trkpt lat="44.7329967" lon="9.4536717"><ele>1056.0</ele><time>2026-04-04T13:38:36.188Z</time></trkpt><trkpt lat="44.7329317" lon="9.453705"><ele>1056.0</ele><time>2026-04-04T13:38:38.188Z</time></trkpt><trkpt lat="44.7328496" lon="9.4537382"><ele>1056.0</ele><time>2026-04-04T13:38:40.187Z</time></trkpt><trkpt lat="44.7327744" lon="9.4537675"><ele>1056.0</ele><time>2026-04-04T13:38:42.188Z</time></trkpt><trkpt lat="44.7327057" lon="9.4538078"><ele>1059.0</ele><time>2026-04-04T13:38:44.189Z</time></trkpt><trkpt lat="44.7326531" lon="9.4539111"><ele>1062.0</ele><time>2026-04-04T13:38:47.188Z</time></trkpt><trkpt lat="44.7326238" lon="9.4540155"><ele>1065.0</ele><time>2026-04-04T13:38:50.189Z</time></trkpt><trkpt lat="44.7325933" lon="9.454105"><ele>1068.0</ele><time>2026-04-04T13:39:31.188Z</time></trkpt><trkpt lat="44.7326333" lon="9.4541917"><ele>1071.0</ele><time>2026-04-04T13:39:33.189Z</time></trkpt><trkpt lat="44.7326883" lon="9.4543033"><ele>1074.0</ele><time>2026-04-04T13:39:35.189Z</time></trkpt><trkpt lat="44.7327367" lon="9.4544133"><ele>1073.9999999999998</ele><time>2026-04-04T13:39:37.189Z</time></trkpt><trkpt lat="44.7327633" lon="9.4545033"><ele>1074.0</ele><time>2026-04-04T13:39:39.188Z</time></trkpt><trkpt lat="44.73281" lon="9.45461"><ele>1074.0</ele><time>2026-04-04T13:39:42.189Z</time></trkpt><trkpt lat="44.7328483" lon="9.4546817"><ele>1074.0</ele><time>2026-04-04T13:39:44.189Z</time></trkpt><trkpt lat="44.73293" lon="9.4547133"><ele>1074.0</ele><time>2026-04-04T13:39:47.188Z</time></trkpt><trkpt lat="44.7329967" lon="9.4547033"><ele>1073.9999999999998</ele><time>2026-04-04T13:39:49.189Z</time></trkpt><trkpt lat="44.7330617" lon="9.4547267"><ele>1074.0</ele><time>2026-04-04T13:39:51.188Z</time></trkpt><trkpt lat="44.7331333" lon="9.4548083"><ele>1076.3333333333333</ele><time>2026-04-04T13:39:54.189Z</time></trkpt><trkpt lat="44.7331883" lon="9.4548933"><ele>1078.6666666666667</ele><time>2026-04-04T13:39:56.189Z</time></trkpt><trkpt lat="44.7332533" lon="9.4549883"><ele>1081.0</ele><time>2026-04-04T13:39:58.189Z</time></trkpt><trkpt lat="44.733315" lon="9.455065"><ele>1083.3333333333335</ele><time>2026-04-04T13:40:00.188Z</time></trkpt><trkpt lat="44.7333733" lon="9.4551267"><ele>1085.6666666666667</ele><time>2026-04-04T13:40:02.188Z</time></trkpt><trkpt lat="44.7334383" lon="9.45518"><ele>1088.0</ele><time>2026-04-04T13:40:04.188Z</time></trkpt><trkpt lat="44.7334933" lon="9.45524"><ele>1088.0</ele><time>2026-04-04T13:40:06.189Z</time></trkpt><trkpt lat="44.7335533" lon="9.455305"><ele>1088.0</ele><time>2026-04-04T13:40:08.188Z</time></trkpt><trkpt lat="44.7336033" lon="9.4554033"><ele>1088.0</ele><time>2026-04-04T13:40:10.188Z</time></trkpt><trkpt lat="44.73363" lon="9.4555183"><ele>1088.0</ele><time>2026-04-04T13:40:12.188Z</time></trkpt><trkpt lat="44.73365" lon="9.4556483"><ele>1088.0</ele><time>2026-04-04T13:40:14.188Z</time></trkpt><trkpt lat="44.7336617" lon="9.4557783"><ele>1088.0</ele><time>2026-04-04T13:40:16.189Z</time></trkpt><trkpt lat="44.7337067" lon="9.4559"><ele>1089.0</ele><time>2026-04-04T13:40:18.189Z</time></trkpt><trkpt lat="44.7337617" lon="9.455995"><ele>1090.0</ele><time>2026-04-04T13:40:20.192Z</time></trkpt><trkpt lat="44.7338083" lon="9.45607"><ele>1091.0</ele><time>2026-04-04T13:40:22.189Z</time></trkpt><trkpt lat="44.7338667" lon="9.456145"><ele>1092.0</ele><time>2026-04-04T13:40:24.189Z</time></trkpt><trkpt lat="44.7339417" lon="9.456215"><ele>1093.0</ele><time>2026-04-04T13:40:26.191Z</time></trkpt><trkpt lat="44.7339983" lon="9.4562783"><ele>1094.0</ele><time>2026-04-04T13:40:28.189Z</time></trkpt><trkpt lat="44.7340488" lon="9.456369"><ele>1094.6666666666667</ele><time>2026-04-04T13:40:30.189Z</time></trkpt><trkpt lat="44.7340912" lon="9.4564718"><ele>1095.3333333333335</ele><time>2026-04-04T13:40:32.19Z</time></trkpt><trkpt lat="44.7341122" lon="9.4565834"><ele>1096.0</ele><time>2026-04-04T13:40:35.189Z</time></trkpt><trkpt lat="44.7341533" lon="9.4566617"><ele>1096.6666666666667</ele><time>2026-04-04T13:41:57.189Z</time></trkpt><trkpt lat="44.7341617" lon="9.4567717"><ele>1097.3333333333333</ele><time>2026-04-04T13:42:00.19Z</time></trkpt><trkpt lat="44.73414" lon="9.4568583"><ele>1098.0</ele><time>2026-04-04T13:43:03.188Z</time></trkpt><trkpt lat="44.7341183" lon="9.4570067"><ele>1098.5</ele><time>2026-04-04T13:43:05.188Z</time></trkpt><trkpt lat="44.7340933" lon="9.4571317"><ele>1099.0</ele><time>2026-04-04T13:43:06.189Z</time></trkpt><trkpt lat="44.734065" lon="9.457255"><ele>1099.5</ele><time>2026-04-04T13:43:07.189Z</time></trkpt><trkpt lat="44.7340317" lon="9.4573717"><ele>1100.0</ele><time>2026-04-04T13:43:08.189Z</time></trkpt><trkpt lat="44.7339967" lon="9.45747"><ele>1100.5</ele><time>2026-04-04T13:43:09.188Z</time></trkpt><trkpt lat="44.7339583" lon="9.4575467"><ele>1101.0</ele><time>2026-04-04T13:43:10.189Z</time></trkpt><trkpt lat="44.7338783" lon="9.4576667"><ele>1101.0</ele><time>2026-04-04T13:43:12.188Z</time></trkpt><trkpt lat="44.7338017" lon="9.4577817"><ele>1101.0</ele><time>2026-04-04T13:43:14.189Z</time></trkpt><trkpt lat="44.7337783" lon="9.4579233"><ele>1101.0</ele><time>2026-04-04T13:43:16.189Z</time></trkpt><trkpt lat="44.73381" lon="9.458085"><ele>1101.0</ele><time>2026-04-04T13:43:18.188Z</time></trkpt><trkpt lat="44.7338517" lon="9.4581667"><ele>1101.0</ele><time>2026-04-04T13:43:19.188Z</time></trkpt><trkpt lat="44.733885" lon="9.458245"><ele>1101.8333333333333</ele><time>2026-04-04T13:43:20.189Z</time></trkpt><trkpt lat="44.73392" lon="9.45839"><ele>1102.6666666666667</ele><time>2026-04-04T13:43:22.189Z</time></trkpt><trkpt lat="44.733885" lon="9.4584867"><ele>1103.5</ele><time>2026-04-04T13:43:24.189Z</time></trkpt><trkpt lat="44.733785" lon="9.4584983"><ele>1104.3333333333335</ele><time>2026-04-04T13:43:26.189Z</time></trkpt><trkpt lat="44.73371" lon="9.4584633"><ele>1105.1666666666667</ele><time>2026-04-04T13:43:27.188Z</time></trkpt><trkpt lat="44.733645" lon="9.458405"><ele>1106.0</ele><time>2026-04-04T13:43:28.188Z</time></trkpt><trkpt lat="44.7335833" lon="9.45832"><ele>1108.1666666666667</ele><time>2026-04-04T13:43:29.19Z</time></trkpt><trkpt lat="44.7335183" lon="9.4582383"><ele>1110.3333333333335</ele><time>2026-04-04T13:43:30.189Z</time></trkpt><trkpt lat="44.7334483" lon="9.4581683"><ele>1112.5</ele><time>2026-04-04T13:43:31.189Z</time></trkpt><trkpt lat="44.73338" lon="9.45811"><ele>1114.6666666666667</ele><time>2026-04-04T13:43:32.189Z</time></trkpt><trkpt lat="44.7333033" lon="9.458055"><ele>1116.8333333333333</ele><time>2026-04-04T13:43:33.19Z</time></trkpt><trkpt lat="44.7332267" lon="9.4580167"><ele>1119.0</ele><time>2026-04-04T13:43:34.188Z</time></trkpt><trkpt lat="44.7331483" lon="9.4579933"><ele>1119.0</ele><time>2026-04-04T13:43:35.188Z</time></trkpt><trkpt lat="44.73307" lon="9.4579783"><ele>1119.0</ele><time>2026-04-04T13:43:36.188Z</time></trkpt><trkpt lat="44.7329867" lon="9.4579483"><ele>1119.0</ele><time>2026-04-04T13:43:37.189Z</time></trkpt><trkpt lat="44.732905" lon="9.4579067"><ele>1119.0</ele><time>2026-04-04T13:43:38.19Z</time></trkpt><trkpt lat="44.7328333" lon="9.4578567"><ele>1119.0</ele><time>2026-04-04T13:43:39.19Z</time></trkpt><trkpt lat="44.7327717" lon="9.4578167"><ele>1119.0</ele><time>2026-04-04T13:43:40.189Z</time></trkpt><trkpt lat="44.732675" lon="9.4577767"><ele>1119.0</ele><time>2026-04-04T13:43:42.19Z</time></trkpt><trkpt lat="44.7325783" lon="9.4577967"><ele>1119.0</ele><time>2026-04-04T13:43:44.19Z</time></trkpt><trkpt lat="44.7324717" lon="9.4578683"><ele>1119.0</ele><time>2026-04-04T13:43:46.191Z</time></trkpt><trkpt lat="44.7324133" lon="9.4579233"><ele>1119.0</ele><time>2026-04-04T13:43:47.191Z</time></trkpt><trkpt lat="44.7323533" lon="9.45798"><ele>1119.0</ele><time>2026-04-04T13:43:48.191Z</time></trkpt><trkpt lat="44.7322917" lon="9.4580333"><ele>1119.0</ele><time>2026-04-04T13:43:49.191Z</time></trkpt><trkpt lat="44.73223" lon="9.4580783"><ele>1119.0</ele><time>2026-04-04T13:43:50.19Z</time></trkpt><trkpt lat="44.73211" lon="9.45811"><ele>1119.0</ele><time>2026-04-04T13:43:52.189Z</time></trkpt><trkpt lat="44.73201" lon="9.4580433"><ele>1119.0</ele><time>2026-04-04T13:43:54.189Z</time></trkpt><trkpt lat="44.7319417" lon="9.4579083"><ele>1119.0</ele><time>2026-04-04T13:43:56.19Z</time></trkpt><trkpt lat="44.7319233" lon="9.4578233"><ele>1119.0</ele><time>2026-04-04T13:43:57.189Z</time></trkpt><trkpt lat="44.731885" lon="9.457715"><ele>1123.2</ele><time>2026-04-04T13:43:59.188Z</time></trkpt><trkpt lat="44.7317983" lon="9.4577267"><ele>1127.4</ele><time>2026-04-04T13:44:02.192Z</time></trkpt><trkpt lat="44.7317717" lon="9.4578233"><ele>1131.6</ele><time>2026-04-04T13:44:04.191Z</time></trkpt><trkpt lat="44.731755" lon="9.4580217"><ele>1135.8</ele><time>2026-04-04T13:44:06.19Z</time></trkpt><trkpt lat="44.731735" lon="9.45816"><ele>1140.0</ele><time>2026-04-04T13:44:07.19Z</time></trkpt><trkpt lat="44.7317217" lon="9.4583133"><ele>1140.4</ele><time>2026-04-04T13:44:08.189Z</time></trkpt><trkpt lat="44.7317083" lon="9.4584683"><ele>1140.8</ele><time>2026-04-04T13:44:09.189Z</time></trkpt><trkpt lat="44.7317033" lon="9.4586067"><ele>1141.2</ele><time>2026-04-04T13:44:10.189Z</time></trkpt><trkpt lat="44.7316933" lon="9.4587333"><ele>1141.6</ele><time>2026-04-04T13:44:11.195Z</time></trkpt><trkpt lat="44.73168" lon="9.4588367"><ele>1142.0</ele><time>2026-04-04T13:44:12.19Z</time></trkpt><trkpt lat="44.7316333" lon="9.45898"><ele>1142.1666666666667</ele><time>2026-04-04T13:44:14.189Z</time></trkpt><trkpt lat="44.7315267" lon="9.4589933"><ele>1142.3333333333335</ele><time>2026-04-04T13:44:16.188Z</time></trkpt><trkpt lat="44.7314033" lon="9.4589583"><ele>1142.5</ele><time>2026-04-04T13:44:18.189Z</time></trkpt><trkpt lat="44.731335" lon="9.4589567"><ele>1142.6666666666667</ele><time>2026-04-04T13:44:19.188Z</time></trkpt><trkpt lat="44.7312633" lon="9.4589733"><ele>1142.8333333333333</ele><time>2026-04-04T13:44:20.189Z</time></trkpt><trkpt lat="44.7311933" lon="9.4590033"><ele>1143.0</ele><time>2026-04-04T13:44:21.188Z</time></trkpt><trkpt lat="44.73113" lon="9.459045"><ele>1143.0</ele><time>2026-04-04T13:44:22.189Z</time></trkpt><trkpt lat="44.7310733" lon="9.4590933"><ele>1143.0</ele><time>2026-04-04T13:44:23.191Z</time></trkpt><trkpt lat="44.7310033" lon="9.459215"><ele>1143.0</ele><time>2026-04-04T13:44:25.189Z</time></trkpt><trkpt lat="44.73099" lon="9.45938"><ele>1143.0</ele><time>2026-04-04T13:44:27.189Z</time></trkpt><trkpt lat="44.730995" lon="9.4594833"><ele>1143.0</ele><time>2026-04-04T13:44:28.188Z</time></trkpt><trkpt lat="44.7310083" lon="9.45961"><ele>1143.25</ele><time>2026-04-04T13:44:29.188Z</time></trkpt><trkpt lat="44.7310367" lon="9.4597883"><ele>1143.5</ele><time>2026-04-04T13:44:30.189Z</time></trkpt><trkpt lat="44.73107" lon="9.459975"><ele>1143.75</ele><time>2026-04-04T13:44:31.188Z</time></trkpt><trkpt lat="44.731105" lon="9.4601383"><ele>1144.0</ele><time>2026-04-04T13:44:32.189Z</time></trkpt><trkpt lat="44.7311317" lon="9.460265"><ele>1144.0</ele><time>2026-04-04T13:44:33.19Z</time></trkpt><trkpt lat="44.7311517" lon="9.4603633"><ele>1144.0</ele><time>2026-04-04T13:44:34.188Z</time></trkpt><trkpt lat="44.7311533" lon="9.4604733"><ele>1144.0</ele><time>2026-04-04T13:44:36.189Z</time></trkpt><trkpt lat="44.7311633" lon="9.46058"><ele>1144.0</ele><time>2026-04-04T13:44:53.188Z</time></trkpt><trkpt lat="44.7312367" lon="9.4605917"><ele>1144.0</ele><time>2026-04-04T13:45:02.188Z</time></trkpt><trkpt lat="44.7312333" lon="9.4605017"><ele>1144.0</ele><time>2026-04-04T13:45:05.188Z</time></trkpt><trkpt lat="44.731145" lon="9.4604883"><ele>1144.3333333333333</ele><time>2026-04-04T13:45:08.19Z</time></trkpt><trkpt lat="44.7310833" lon="9.4604533"><ele>1144.6666666666665</ele><time>2026-04-04T13:45:10.189Z</time></trkpt><trkpt lat="44.73102" lon="9.4603383"><ele>1145.0</ele><time>2026-04-04T13:45:12.189Z</time></trkpt><trkpt lat="44.730985" lon="9.460255"><ele>1145.3333333333333</ele><time>2026-04-04T13:45:13.191Z</time></trkpt><trkpt lat="44.7309467" lon="9.460165"><ele>1145.6666666666667</ele><time>2026-04-04T13:45:14.19Z</time></trkpt><trkpt lat="44.7309" lon="9.46006"><ele>1146.0</ele><time>2026-04-04T13:45:15.189Z</time></trkpt><trkpt lat="44.7308383" lon="9.459945"><ele>1147.25</ele><time>2026-04-04T13:45:16.189Z</time></trkpt><trkpt lat="44.73076" lon="9.4598167"><ele>1148.5</ele><time>2026-04-04T13:45:17.189Z</time></trkpt><trkpt lat="44.7306733" lon="9.4596733"><ele>1149.75</ele><time>2026-04-04T13:45:18.188Z</time></trkpt><trkpt lat="44.7305833" lon="9.45953"><ele>1151.0</ele><time>2026-04-04T13:45:19.189Z</time></trkpt><trkpt lat="44.7305083" lon="9.4594"><ele>1151.0</ele><time>2026-04-04T13:45:20.192Z</time></trkpt><trkpt lat="44.730445" lon="9.45929"><ele>1151.0</ele><time>2026-04-04T13:45:21.187Z</time></trkpt><trkpt lat="44.73039" lon="9.4592083"><ele>1151.0</ele><time>2026-04-04T13:45:22.187Z</time></trkpt><trkpt lat="44.730335" lon="9.459155"><ele>1151.0</ele><time>2026-04-04T13:45:23.189Z</time></trkpt><trkpt lat="44.7302367" lon="9.4591633"><ele>1151.0</ele><time>2026-04-04T13:45:25.189Z</time></trkpt><trkpt lat="44.73019" lon="9.4592283"><ele>1151.0</ele><time>2026-04-04T13:45:26.192Z</time></trkpt><trkpt lat="44.7301583" lon="9.4593233"><ele>1154.5</ele><time>2026-04-04T13:45:27.188Z</time></trkpt><trkpt lat="44.73012" lon="9.4594667"><ele>1158.0</ele><time>2026-04-04T13:45:28.188Z</time></trkpt><trkpt lat="44.7300617" lon="9.4596417"><ele>1161.5</ele><time>2026-04-04T13:45:29.188Z</time></trkpt><trkpt lat="44.7299967" lon="9.4598467"><ele>1165.0</ele><time>2026-04-04T13:45:30.188Z</time></trkpt><trkpt lat="44.7299433" lon="9.460065"><ele>1165.0</ele><time>2026-04-04T13:45:31.189Z</time></trkpt><trkpt lat="44.7298883" lon="9.460255"><ele>1165.0</ele><time>2026-04-04T13:45:32.189Z</time></trkpt><trkpt lat="44.7298117" lon="9.4604217"><ele>1165.0</ele><time>2026-04-04T13:45:33.187Z</time></trkpt><trkpt lat="44.7297067" lon="9.4605983"><ele>1163.6666666666665</ele><time>2026-04-04T13:45:34.187Z</time></trkpt><trkpt lat="44.72958" lon="9.4608033"><ele>1162.3333333333333</ele><time>2026-04-04T13:45:35.187Z</time></trkpt><trkpt lat="44.7294517" lon="9.4610033"><ele>1161.0</ele><time>2026-04-04T13:45:36.188Z</time></trkpt><trkpt lat="44.72934" lon="9.4611633"><ele>1161.0</ele><time>2026-04-04T13:45:37.196Z</time></trkpt><trkpt lat="44.7292383" lon="9.4612783"><ele>1161.0</ele><time>2026-04-04T13:45:38.188Z</time></trkpt><trkpt lat="44.7291233" lon="9.4613567"><ele>1161.0</ele><time>2026-04-04T13:45:39.188Z</time></trkpt><trkpt lat="44.728985" lon="9.4614067"><ele>1161.0</ele><time>2026-04-04T13:45:40.19Z</time></trkpt><trkpt lat="44.728825" lon="9.4614583"><ele>1161.0</ele><time>2026-04-04T13:45:41.189Z</time></trkpt><trkpt lat="44.728645" lon="9.46153"><ele>1161.0</ele><time>2026-04-04T13:45:42.188Z</time></trkpt><trkpt lat="44.7284433" lon="9.4616233"><ele>1161.0</ele><time>2026-04-04T13:45:43.188Z</time></trkpt><trkpt lat="44.7282267" lon="9.4617233"><ele>1165.3333333333333</ele><time>2026-04-04T13:45:44.189Z</time></trkpt><trkpt lat="44.7280283" lon="9.4618283"><ele>1169.6666666666665</ele><time>2026-04-04T13:45:45.188Z</time></trkpt><trkpt lat="44.7278617" lon="9.4619383"><ele>1174.0</ele><time>2026-04-04T13:45:46.189Z</time></trkpt><trkpt lat="44.7277317" lon="9.4620367"><ele>1173.2</ele><time>2026-04-04T13:45:47.193Z</time></trkpt><trkpt lat="44.7276267" lon="9.462105"><ele>1172.4</ele><time>2026-04-04T13:45:48.187Z</time></trkpt><trkpt lat="44.7275333" lon="9.4621433"><ele>1171.6</ele><time>2026-04-04T13:45:49.189Z</time></trkpt><trkpt lat="44.7274517" lon="9.46215"><ele>1170.8</ele><time>2026-04-04T13:45:50.188Z</time></trkpt><trkpt lat="44.7273733" lon="9.46213"><ele>1170.0</ele><time>2026-04-04T13:45:51.188Z</time></trkpt><trkpt lat="44.7272917" lon="9.46207"><ele>1173.6</ele><time>2026-04-04T13:45:52.19Z</time></trkpt><trkpt lat="44.7272017" lon="9.4619767"><ele>1177.2</ele><time>2026-04-04T13:45:53.188Z</time></trkpt><trkpt lat="44.727115" lon="9.461895"><ele>1180.8</ele><time>2026-04-04T13:45:54.189Z</time></trkpt><trkpt lat="44.7270383" lon="9.4618233"><ele>1184.4</ele><time>2026-04-04T13:45:55.19Z</time></trkpt><trkpt lat="44.72697" lon="9.461755"><ele>1188.0</ele><time>2026-04-04T13:45:56.188Z</time></trkpt><trkpt lat="44.7269083" lon="9.4616883"><ele>1188.3333333333333</ele><time>2026-04-04T13:45:57.188Z</time></trkpt><trkpt lat="44.7268517" lon="9.4616283"><ele>1188.6666666666667</ele><time>2026-04-04T13:45:58.187Z</time></trkpt><trkpt lat="44.7267967" lon="9.461585"><ele>1189.0</ele><time>2026-04-04T13:45:59.188Z</time></trkpt><trkpt lat="44.7266967" lon="9.46154"><ele>1189.3333333333335</ele><time>2026-04-04T13:46:01.191Z</time></trkpt><trkpt lat="44.7265983" lon="9.4615067"><ele>1189.6666666666667</ele><time>2026-04-04T13:46:03.192Z</time></trkpt><trkpt lat="44.7265117" lon="9.4614517"><ele>1190.0</ele><time>2026-04-04T13:46:05.191Z</time></trkpt><trkpt lat="44.7264333" lon="9.461395"><ele>1190.0</ele><time>2026-04-04T13:46:07.191Z</time></trkpt><trkpt lat="44.7263683" lon="9.46134"><ele>1190.0</ele><time>2026-04-04T13:46:09.188Z</time></trkpt><trkpt lat="44.7262783" lon="9.4613367"><ele>1190.0</ele><time>2026-04-04T13:46:31.188Z</time></trkpt><trkpt lat="44.7262283" lon="9.4614533"><ele>1190.0</ele><time>2026-04-04T13:46:34.189Z</time></trkpt><trkpt lat="44.7261917" lon="9.4615633"><ele>1190.0</ele><time>2026-04-04T13:46:36.189Z</time></trkpt><trkpt lat="44.7261617" lon="9.4616667"><ele>1190.0</ele><time>2026-04-04T13:46:38.188Z</time></trkpt><trkpt lat="44.72614" lon="9.4617683"><ele>1190.0</ele><time>2026-04-04T13:46:40.189Z</time></trkpt><trkpt lat="44.7261009" lon="9.4618755"><ele>1190.0</ele><time>2026-04-04T13:46:43.188Z</time></trkpt><trkpt lat="44.7260481" lon="9.4619302"><ele>1190.0</ele><time>2026-04-04T13:46:46.19Z</time></trkpt><trkpt lat="44.7260333" lon="9.46184"><ele>1190.0</ele><time>2026-04-04T13:47:06.188Z</time></trkpt><trkpt lat="44.7261267" lon="9.4618283"><ele>1190.0</ele><time>2026-04-04T13:47:08.189Z</time></trkpt><trkpt lat="44.7262283" lon="9.4618817"><ele>1190.0</ele><time>2026-04-04T13:47:10.188Z</time></trkpt><trkpt lat="44.7263067" lon="9.4619183"><ele>1190.0</ele><time>2026-04-04T13:47:12.188Z</time></trkpt><trkpt lat="44.726385" lon="9.46191"><ele>1190.0</ele><time>2026-04-04T13:47:15.188Z</time></trkpt><trkpt lat="44.7262767" lon="9.4618867"><ele>1190.0</ele><time>2026-04-04T13:47:46.188Z</time></trkpt><trkpt lat="44.7261517" lon="9.4618783"><ele>1190.0</ele><time>2026-04-04T13:47:48.189Z</time></trkpt><trkpt lat="44.726035" lon="9.4618683"><ele>1190.0</ele><time>2026-04-04T13:47:50.19Z</time></trkpt><trkpt lat="44.72594" lon="9.4618767"><ele>1190.1666666666667</ele><time>2026-04-04T13:47:52.191Z</time></trkpt><trkpt lat="44.725855" lon="9.4618817"><ele>1190.3333333333335</ele><time>2026-04-04T13:47:54.189Z</time></trkpt><trkpt lat="44.7257733" lon="9.46188"><ele>1190.5</ele><time>2026-04-04T13:47:56.19Z</time></trkpt><trkpt lat="44.725695" lon="9.4618683"><ele>1190.6666666666667</ele><time>2026-04-04T13:47:58.19Z</time></trkpt><trkpt lat="44.72561" lon="9.4618383"><ele>1190.8333333333333</ele><time>2026-04-04T13:48:00.191Z</time></trkpt><trkpt lat="44.7255217" lon="9.4618067"><ele>1191.0</ele><time>2026-04-04T13:48:02.188Z</time></trkpt><trkpt lat="44.7254417" lon="9.46179"><ele>1191.0</ele><time>2026-04-04T13:48:04.189Z</time></trkpt><trkpt lat="44.7253583" lon="9.4617817"><ele>1191.0</ele><time>2026-04-04T13:48:06.188Z</time></trkpt><trkpt lat="44.7252733" lon="9.46178"><ele>1191.0</ele><time>2026-04-04T13:48:08.189Z</time></trkpt><trkpt lat="44.7251917" lon="9.4617917"><ele>1191.0</ele><time>2026-04-04T13:48:10.188Z</time></trkpt><trkpt lat="44.7251133" lon="9.4618167"><ele>1191.0</ele><time>2026-04-04T13:48:12.188Z</time></trkpt><trkpt lat="44.7250333" lon="9.461855"><ele>1191.0</ele><time>2026-04-04T13:48:14.19Z</time></trkpt><trkpt lat="44.7249633" lon="9.461895"><ele>1191.142857142857</ele><time>2026-04-04T13:48:16.189Z</time></trkpt><trkpt lat="44.7248883" lon="9.4619333"><ele>1191.2857142857142</ele><time>2026-04-04T13:48:18.19Z</time></trkpt><trkpt lat="44.7248217" lon="9.4619633"><ele>1191.4285714285713</ele><time>2026-04-04T13:48:20.191Z</time></trkpt><trkpt lat="44.72476" lon="9.462"><ele>1191.5714285714284</ele><time>2026-04-04T13:48:23.19Z</time></trkpt><trkpt lat="44.7246867" lon="9.4620583"><ele>1191.7142857142856</ele><time>2026-04-04T13:48:26.188Z</time></trkpt><trkpt lat="44.7246217" lon="9.4621133"><ele>1191.857142857143</ele><time>2026-04-04T13:48:29.188Z</time></trkpt><trkpt lat="44.7245583" lon="9.4621183"><ele>1192.0</ele><time>2026-04-04T13:48:32.189Z</time></trkpt><trkpt lat="44.724495" lon="9.4621133"><ele>1192.0</ele><time>2026-04-04T13:48:34.189Z</time></trkpt><trkpt lat="44.7244117" lon="9.46214"><ele>1192.0</ele><time>2026-04-04T13:48:48.19Z</time></trkpt><trkpt lat="44.724385" lon="9.4620583"><ele>1192.0</ele><time>2026-04-04T13:48:51.193Z</time></trkpt><trkpt lat="44.7244433" lon="9.461985"><ele>1192.0</ele><time>2026-04-04T13:48:54.188Z</time></trkpt><trkpt lat="44.72452" lon="9.4619717"><ele>1192.0</ele><time>2026-04-04T13:48:58.191Z</time></trkpt><trkpt lat="44.7245833" lon="9.4620017"><ele>1192.0</ele><time>2026-04-04T13:49:02.189Z</time></trkpt><trkpt lat="44.724645" lon="9.462055"><ele>1192.0</ele><time>2026-04-04T13:49:07.188Z</time></trkpt><trkpt lat="44.7247183" lon="9.4620517"><ele>1192.0</ele><time>2026-04-04T13:49:10.188Z</time></trkpt><trkpt lat="44.72478" lon="9.462025"><ele>1192.0</ele><time>2026-04-04T13:49:12.188Z</time></trkpt><trkpt lat="44.7248533" lon="9.461985"><ele>1192.0</ele><time>2026-04-04T13:49:15.189Z</time></trkpt><trkpt lat="44.7249367" lon="9.461935"><ele>1192.0</ele><time>2026-04-04T13:49:18.192Z</time></trkpt><trkpt lat="44.7250217" lon="9.4618983"><ele>1192.0</ele><time>2026-04-04T13:49:20.189Z</time></trkpt><trkpt lat="44.725085" lon="9.4618617"><ele>1192.0</ele><time>2026-04-04T13:49:22.188Z</time></trkpt><trkpt lat="44.725155" lon="9.4618283"><ele>1191.8333333333333</ele><time>2026-04-04T13:49:24.188Z</time></trkpt><trkpt lat="44.725235" lon="9.4618067"><ele>1191.6666666666665</ele><time>2026-04-04T13:49:26.189Z</time></trkpt><trkpt lat="44.7253217" lon="9.4617917"><ele>1191.5</ele><time>2026-04-04T13:49:28.188Z</time></trkpt><trkpt lat="44.7254117" lon="9.4617883"><ele>1191.3333333333333</ele><time>2026-04-04T13:49:30.191Z</time></trkpt><trkpt lat="44.7254917" lon="9.4618017"><ele>1191.1666666666667</ele><time>2026-04-04T13:49:32.189Z</time></trkpt><trkpt lat="44.72558" lon="9.4618233"><ele>1191.0</ele><time>2026-04-04T13:49:34.189Z</time></trkpt><trkpt lat="44.725695" lon="9.4618533"><ele>1191.0</ele><time>2026-04-04T13:49:36.188Z</time></trkpt><trkpt lat="44.7258167" lon="9.461875"><ele>1191.0</ele><time>2026-04-04T13:49:38.188Z</time></trkpt><trkpt lat="44.7258833" lon="9.4618817"><ele>1191.0</ele><time>2026-04-04T13:49:39.188Z</time></trkpt><trkpt lat="44.725955" lon="9.4618833"><ele>1191.0</ele><time>2026-04-04T13:49:40.188Z</time></trkpt><trkpt lat="44.7260267" lon="9.461885"><ele>1191.0</ele><time>2026-04-04T13:49:41.189Z</time></trkpt><trkpt lat="44.7260917" lon="9.461885"><ele>1191.0</ele><time>2026-04-04T13:49:42.189Z</time></trkpt><trkpt lat="44.7261567" lon="9.4618883"><ele>1190.8</ele><time>2026-04-04T13:49:43.189Z</time></trkpt><trkpt lat="44.7262233" lon="9.4618883"><ele>1190.6</ele><time>2026-04-04T13:49:44.19Z</time></trkpt><trkpt lat="44.7263333" lon="9.4618783"><ele>1190.4</ele><time>2026-04-04T13:49:46.189Z</time></trkpt><trkpt lat="44.7264333" lon="9.461845"><ele>1190.2</ele><time>2026-04-04T13:49:48.189Z</time></trkpt><trkpt lat="44.7265167" lon="9.4617917"><ele>1190.0</ele><time>2026-04-04T13:49:50.189Z</time></trkpt><trkpt lat="44.7266267" lon="9.4617117"><ele>1190.0</ele><time>2026-04-04T13:49:53.191Z</time></trkpt><trkpt lat="44.7267317" lon="9.4616517"><ele>1190.0</ele><time>2026-04-04T13:49:55.19Z</time></trkpt><trkpt lat="44.7267933" lon="9.461605"><ele>1190.0</ele><time>2026-04-04T13:49:57.188Z</time></trkpt><trkpt lat="44.7267433" lon="9.4615283"><ele>1190.0</ele><time>2026-04-04T13:50:18.189Z</time></trkpt><trkpt lat="44.7266567" lon="9.4615"><ele>1190.0</ele><time>2026-04-04T13:50:42.189Z</time></trkpt><trkpt lat="44.72654" lon="9.4614383"><ele>1190.0</ele><time>2026-04-04T13:50:44.191Z</time></trkpt><trkpt lat="44.726475" lon="9.4613967"><ele>1190.0</ele><time>2026-04-04T13:50:45.193Z</time></trkpt><trkpt lat="44.7264117" lon="9.4613533"><ele>1190.0</ele><time>2026-04-04T13:50:46.188Z</time></trkpt><trkpt lat="44.7263517" lon="9.4613067"><ele>1190.0</ele><time>2026-04-04T13:50:47.188Z</time></trkpt><trkpt lat="44.7262883" lon="9.4612533"><ele>1190.0</ele><time>2026-04-04T13:50:48.189Z</time></trkpt><trkpt lat="44.7262167" lon="9.4611867"><ele>1190.0</ele><time>2026-04-04T13:50:49.189Z</time></trkpt><trkpt lat="44.7261317" lon="9.4610933"><ele>1192.75</ele><time>2026-04-04T13:50:50.189Z</time></trkpt><trkpt lat="44.7260417" lon="9.4609817"><ele>1195.5</ele><time>2026-04-04T13:50:51.189Z</time></trkpt><trkpt lat="44.7259483" lon="9.46086"><ele>1198.25</ele><time>2026-04-04T13:50:52.189Z</time></trkpt><trkpt lat="44.72586" lon="9.4607367"><ele>1201.0</ele><time>2026-04-04T13:50:53.19Z</time></trkpt><trkpt lat="44.7257733" lon="9.4606183"><ele>1201.0</ele><time>2026-04-04T13:50:54.19Z</time></trkpt><trkpt lat="44.7256833" lon="9.4605067"><ele>1201.0</ele><time>2026-04-04T13:50:55.19Z</time></trkpt><trkpt lat="44.725595" lon="9.4604017"><ele>1201.0</ele><time>2026-04-04T13:50:56.19Z</time></trkpt><trkpt lat="44.725515" lon="9.460315"><ele>1201.0</ele><time>2026-04-04T13:50:57.189Z</time></trkpt><trkpt lat="44.7254417" lon="9.460245"><ele>1201.0</ele><time>2026-04-04T13:50:58.19Z</time></trkpt><trkpt lat="44.7253633" lon="9.46019"><ele>1203.6</ele><time>2026-04-04T13:50:59.19Z</time></trkpt><trkpt lat="44.725275" lon="9.4601467"><ele>1206.1999999999998</ele><time>2026-04-04T13:51:00.189Z</time></trkpt><trkpt lat="44.7251733" lon="9.4601033"><ele>1208.8000000000002</ele><time>2026-04-04T13:51:01.223Z</time></trkpt><trkpt lat="44.72506" lon="9.4600567"><ele>1211.4</ele><time>2026-04-04T13:51:02.19Z</time></trkpt><trkpt lat="44.72494" lon="9.460015"><ele>1214.0</ele><time>2026-04-04T13:51:03.188Z</time></trkpt><trkpt lat="44.7248183" lon="9.459975"><ele>1214.0</ele><time>2026-04-04T13:51:04.188Z</time></trkpt><trkpt lat="44.724705" lon="9.4599433"><ele>1214.0</ele><time>2026-04-04T13:51:05.19Z</time></trkpt><trkpt lat="44.7245933" lon="9.459915"><ele>1214.0</ele><time>2026-04-04T13:51:06.19Z</time></trkpt><trkpt lat="44.7244867" lon="9.4598833"><ele>1214.0</ele><time>2026-04-04T13:51:07.188Z</time></trkpt><trkpt lat="44.7243817" lon="9.4598467"><ele>1214.0</ele><time>2026-04-04T13:51:08.189Z</time></trkpt><trkpt lat="44.7242783" lon="9.4598017"><ele>1214.2</ele><time>2026-04-04T13:51:09.189Z</time></trkpt><trkpt lat="44.724175" lon="9.4597433"><ele>1214.4</ele><time>2026-04-04T13:51:10.189Z</time></trkpt><trkpt lat="44.7240867" lon="9.4596733"><ele>1214.6</ele><time>2026-04-04T13:51:11.191Z</time></trkpt><trkpt lat="44.724005" lon="9.45959"><ele>1214.8</ele><time>2026-04-04T13:51:12.192Z</time></trkpt><trkpt lat="44.7239333" lon="9.4594967"><ele>1215.0</ele><time>2026-04-04T13:51:13.19Z</time></trkpt><trkpt lat="44.7238717" lon="9.4593917"><ele>1217.6</ele><time>2026-04-04T13:51:14.191Z</time></trkpt><trkpt lat="44.72382" lon="9.4592783"><ele>1220.2</ele><time>2026-04-04T13:51:15.19Z</time></trkpt><trkpt lat="44.7237683" lon="9.45916"><ele>1222.8</ele><time>2026-04-04T13:51:16.192Z</time></trkpt><trkpt lat="44.72371" lon="9.4590467"><ele>1225.4</ele><time>2026-04-04T13:51:17.188Z</time></trkpt><trkpt lat="44.72364" lon="9.4589483"><ele>1228.0</ele><time>2026-04-04T13:51:18.188Z</time></trkpt><trkpt lat="44.7235483" lon="9.45887"><ele>1228.5</ele><time>2026-04-04T13:51:19.188Z</time></trkpt><trkpt lat="44.7234433" lon="9.4588217"><ele>1229.0</ele><time>2026-04-04T13:51:20.192Z</time></trkpt><trkpt lat="44.723325" lon="9.4588117"><ele>1229.5</ele><time>2026-04-04T13:51:21.189Z</time></trkpt><trkpt lat="44.7232033" lon="9.458825"><ele>1230.0</ele><time>2026-04-04T13:51:22.188Z</time></trkpt><trkpt lat="44.7230867" lon="9.4588483"><ele>1230.0</ele><time>2026-04-04T13:51:23.189Z</time></trkpt><trkpt lat="44.722985" lon="9.45887"><ele>1230.0</ele><time>2026-04-04T13:51:24.189Z</time></trkpt><trkpt lat="44.72289" lon="9.4588883"><ele>1230.0</ele><time>2026-04-04T13:51:25.189Z</time></trkpt><trkpt lat="44.7228017" lon="9.4589033"><ele>1230.0</ele><time>2026-04-04T13:51:26.189Z</time></trkpt><trkpt lat="44.722715" lon="9.4589167"><ele>1230.0</ele><time>2026-04-04T13:51:27.188Z</time></trkpt><trkpt lat="44.722625" lon="9.4589267"><ele>1230.6</ele><time>2026-04-04T13:51:28.189Z</time></trkpt><trkpt lat="44.7225283" lon="9.458935"><ele>1231.2</ele><time>2026-04-04T13:51:29.189Z</time></trkpt><trkpt lat="44.72243" lon="9.4589533"><ele>1231.8</ele><time>2026-04-04T13:51:30.285Z</time></trkpt><trkpt lat="44.7223317" lon="9.458985"><ele>1232.4</ele><time>2026-04-04T13:51:31.19Z</time></trkpt><trkpt lat="44.7222333" lon="9.4590267"><ele>1233.0</ele><time>2026-04-04T13:51:32.19Z</time></trkpt><trkpt lat="44.72213" lon="9.4590683"><ele>1233.0</ele><time>2026-04-04T13:51:33.188Z</time></trkpt><trkpt lat="44.7220217" lon="9.4591017"><ele>1233.0</ele><time>2026-04-04T13:51:34.188Z</time></trkpt><trkpt lat="44.7219133" lon="9.4591233"><ele>1233.0</ele><time>2026-04-04T13:51:35.188Z</time></trkpt><trkpt lat="44.7218" lon="9.4591333"><ele>1233.0</ele><time>2026-04-04T13:51:36.188Z</time></trkpt><trkpt lat="44.7216917" lon="9.4591417"><ele>1233.0</ele><time>2026-04-04T13:51:37.188Z</time></trkpt><trkpt lat="44.72159" lon="9.4591483"><ele>1232.5</ele><time>2026-04-04T13:51:38.189Z</time></trkpt><trkpt lat="44.7214917" lon="9.459155"><ele>1232.0</ele><time>2026-04-04T13:51:39.189Z</time></trkpt><trkpt lat="44.7213983" lon="9.4591533"><ele>1231.5</ele><time>2026-04-04T13:51:40.188Z</time></trkpt><trkpt lat="44.7213117" lon="9.4591383"><ele>1231.0</ele><time>2026-04-04T13:51:41.19Z</time></trkpt><trkpt lat="44.7212283" lon="9.4591083"><ele>1230.5</ele><time>2026-04-04T13:51:42.188Z</time></trkpt><trkpt lat="44.72115" lon="9.4590767"><ele>1230.0</ele><time>2026-04-04T13:51:43.19Z</time></trkpt><trkpt lat="44.7210667" lon="9.45906"><ele>1228.6666666666667</ele><time>2026-04-04T13:51:44.191Z</time></trkpt><trkpt lat="44.7209833" lon="9.459065"><ele>1227.3333333333333</ele><time>2026-04-04T13:51:45.197Z</time></trkpt><trkpt lat="44.7208983" lon="9.4590817"><ele>1226.0</ele><time>2026-04-04T13:51:46.189Z</time></trkpt><trkpt lat="44.7208117" lon="9.4591067"><ele>1224.6666666666665</ele><time>2026-04-04T13:51:47.189Z</time></trkpt><trkpt lat="44.72073" lon="9.4591433"><ele>1223.3333333333333</ele><time>2026-04-04T13:51:48.19Z</time></trkpt><trkpt lat="44.7206583" lon="9.459205"><ele>1222.0</ele><time>2026-04-04T13:51:49.189Z</time></trkpt><trkpt lat="44.72059" lon="9.45929"><ele>1222.0</ele><time>2026-04-04T13:51:50.191Z</time></trkpt><trkpt lat="44.720535" lon="9.459385"><ele>1222.0</ele><time>2026-04-04T13:51:51.189Z</time></trkpt><trkpt lat="44.7204833" lon="9.459475"><ele>1222.0</ele><time>2026-04-04T13:51:52.189Z</time></trkpt><trkpt lat="44.720425" lon="9.45955"><ele>1222.0</ele><time>2026-04-04T13:51:53.189Z</time></trkpt><trkpt lat="44.7203567" lon="9.4595983"><ele>1222.0</ele><time>2026-04-04T13:51:54.191Z</time></trkpt><trkpt lat="44.720275" lon="9.4596267"><ele>1222.0</ele><time>2026-04-04T13:51:55.189Z</time></trkpt><trkpt lat="44.720195" lon="9.4596433"><ele>1221.0</ele><time>2026-04-04T13:51:56.189Z</time></trkpt><trkpt lat="44.7201233" lon="9.45964"><ele>1220.0</ele><time>2026-04-04T13:51:57.19Z</time></trkpt><trkpt lat="44.720025" lon="9.45955"><ele>1219.0</ele><time>2026-04-04T13:51:59.189Z</time></trkpt><trkpt lat="44.7199967" lon="9.459395"><ele>1218.0</ele><time>2026-04-04T13:52:01.189Z</time></trkpt><trkpt lat="44.720015" lon="9.4592267"><ele>1217.0</ele><time>2026-04-04T13:52:03.188Z</time></trkpt><trkpt lat="44.72004" lon="9.45913"><ele>1217.3333333333335</ele><time>2026-04-04T13:52:04.188Z</time></trkpt><trkpt lat="44.7200717" lon="9.4590167"><ele>1217.6666666666667</ele><time>2026-04-04T13:52:05.188Z</time></trkpt><trkpt lat="44.7201083" lon="9.4589083"><ele>1218.0</ele><time>2026-04-04T13:52:06.188Z</time></trkpt><trkpt lat="44.7201467" lon="9.4588033"><ele>1218.3333333333333</ele><time>2026-04-04T13:52:07.188Z</time></trkpt><trkpt lat="44.720185" lon="9.458705"><ele>1218.6666666666665</ele><time>2026-04-04T13:52:08.19Z</time></trkpt><trkpt lat="44.7202267" lon="9.4586133"><ele>1219.0</ele><time>2026-04-04T13:52:09.189Z</time></trkpt><trkpt lat="44.72027" lon="9.4585167"><ele>1219.0</ele><time>2026-04-04T13:52:10.188Z</time></trkpt><trkpt lat="44.7203067" lon="9.45842"><ele>1219.0</ele><time>2026-04-04T13:52:11.19Z</time></trkpt><trkpt lat="44.720335" lon="9.4583183"><ele>1219.0</ele><time>2026-04-04T13:52:12.188Z</time></trkpt><trkpt lat="44.72036" lon="9.4582117"><ele>1219.0</ele><time>2026-04-04T13:52:13.192Z</time></trkpt><trkpt lat="44.7203883" lon="9.458105"><ele>1219.0</ele><time>2026-04-04T13:52:14.19Z</time></trkpt><trkpt lat="44.7204183" lon="9.4580033"><ele>1219.0</ele><time>2026-04-04T13:52:15.188Z</time></trkpt><trkpt lat="44.7204533" lon="9.45791"><ele>1217.1666666666665</ele><time>2026-04-04T13:52:16.189Z</time></trkpt><trkpt lat="44.7204883" lon="9.4578317"><ele>1215.3333333333333</ele><time>2026-04-04T13:52:17.189Z</time></trkpt><trkpt lat="44.7205367" lon="9.4577117"><ele>1213.5</ele><time>2026-04-04T13:52:19.19Z</time></trkpt><trkpt lat="44.7205667" lon="9.45763"><ele>1211.6666666666667</ele><time>2026-04-04T13:52:46.19Z</time></trkpt><trkpt lat="44.7205083" lon="9.4576767"><ele>1209.8333333333335</ele><time>2026-04-04T13:53:02.188Z</time></trkpt><trkpt lat="44.7204767" lon="9.4577767"><ele>1208.0</ele><time>2026-04-04T13:53:04.188Z</time></trkpt><trkpt lat="44.7204333" lon="9.4579133"><ele>1206.4</ele><time>2026-04-04T13:53:06.189Z</time></trkpt><trkpt lat="44.7204067" lon="9.4580117"><ele>1204.8</ele><time>2026-04-04T13:53:07.188Z</time></trkpt><trkpt lat="44.7203717" lon="9.458145"><ele>1203.2</ele><time>2026-04-04T13:53:08.189Z</time></trkpt><trkpt lat="44.7203217" lon="9.458315"><ele>1201.6</ele><time>2026-04-04T13:53:09.192Z</time></trkpt><trkpt lat="44.72027" lon="9.4584783"><ele>1200.0</ele><time>2026-04-04T13:53:10.19Z</time></trkpt><trkpt lat="44.7202133" lon="9.4586333"><ele>1200.0</ele><time>2026-04-04T13:53:11.191Z</time></trkpt><trkpt lat="44.720155" lon="9.458775"><ele>1200.0</ele><time>2026-04-04T13:53:12.191Z</time></trkpt><trkpt lat="44.7201067" lon="9.4589067"><ele>1200.0</ele><time>2026-04-04T13:53:13.196Z</time></trkpt><trkpt lat="44.7200667" lon="9.459025"><ele>1200.0</ele><time>2026-04-04T13:53:14.191Z</time></trkpt><trkpt lat="44.7200317" lon="9.45913"><ele>1200.0</ele><time>2026-04-04T13:53:15.19Z</time></trkpt><trkpt lat="44.7200017" lon="9.45922"><ele>1202.1666666666667</ele><time>2026-04-04T13:53:16.19Z</time></trkpt><trkpt lat="44.7199517" lon="9.4593383"><ele>1204.3333333333333</ele><time>2026-04-04T13:53:18.189Z</time></trkpt><trkpt lat="44.7199167" lon="9.4594183"><ele>1206.5</ele><time>2026-04-04T13:53:21.191Z</time></trkpt><trkpt lat="44.7199817" lon="9.45936"><ele>1208.6666666666665</ele><time>2026-04-04T13:53:40.188Z</time></trkpt><trkpt lat="44.72002" lon="9.45919"><ele>1210.8333333333333</ele><time>2026-04-04T13:53:42.189Z</time></trkpt><trkpt lat="44.7200467" lon="9.459095"><ele>1213.0</ele><time>2026-04-04T13:53:43.188Z</time></trkpt><trkpt lat="44.7200767" lon="9.4590017"><ele>1213.0</ele><time>2026-04-04T13:53:44.189Z</time></trkpt><trkpt lat="44.7201083" lon="9.4589117"><ele>1213.0</ele><time>2026-04-04T13:53:45.188Z</time></trkpt><trkpt lat="44.7201417" lon="9.4588233"><ele>1213.0</ele><time>2026-04-04T13:53:46.189Z</time></trkpt><trkpt lat="44.7201767" lon="9.458735"><ele>1213.0</ele><time>2026-04-04T13:53:47.189Z</time></trkpt><trkpt lat="44.7202167" lon="9.4586467"><ele>1213.0</ele><time>2026-04-04T13:53:48.189Z</time></trkpt><trkpt lat="44.7202533" lon="9.4585533"><ele>1213.0</ele><time>2026-04-04T13:53:49.189Z</time></trkpt><trkpt lat="44.72029" lon="9.4584467"><ele>1213.0</ele><time>2026-04-04T13:53:50.189Z</time></trkpt><trkpt lat="44.7203233" lon="9.4583283"><ele>1212.0</ele><time>2026-04-04T13:53:51.189Z</time></trkpt><trkpt lat="44.7203567" lon="9.4582"><ele>1211.0</ele><time>2026-04-04T13:53:52.189Z</time></trkpt><trkpt lat="44.7203917" lon="9.4580733"><ele>1210.0</ele><time>2026-04-04T13:53:53.19Z</time></trkpt><trkpt lat="44.7204317" lon="9.457945"><ele>1209.0</ele><time>2026-04-04T13:53:54.19Z</time></trkpt><trkpt lat="44.7204783" lon="9.4578183"><ele>1208.0</ele><time>2026-04-04T13:53:55.189Z</time></trkpt><trkpt lat="44.720525" lon="9.45769"><ele>1208.0</ele><time>2026-04-04T13:53:56.189Z</time></trkpt><trkpt lat="44.7205683" lon="9.4575567"><ele>1208.0</ele><time>2026-04-04T13:53:57.188Z</time></trkpt><trkpt lat="44.72061" lon="9.4574183"><ele>1208.0</ele><time>2026-04-04T13:53:58.189Z</time></trkpt><trkpt lat="44.7206467" lon="9.4572817"><ele>1208.0</ele><time>2026-04-04T13:53:59.189Z</time></trkpt><trkpt lat="44.7206767" lon="9.4571483"><ele>1208.0</ele><time>2026-04-04T13:54:00.189Z</time></trkpt><trkpt lat="44.7207067" lon="9.4570167"><ele>1205.4</ele><time>2026-04-04T13:54:01.189Z</time></trkpt><trkpt lat="44.72074" lon="9.4568817"><ele>1202.8</ele><time>2026-04-04T13:54:02.19Z</time></trkpt><trkpt lat="44.720775" lon="9.456745"><ele>1200.2</ele><time>2026-04-04T13:54:03.193Z</time></trkpt><trkpt lat="44.72081" lon="9.4566"><ele>1197.6</ele><time>2026-04-04T13:54:04.188Z</time></trkpt><trkpt lat="44.720845" lon="9.4564517"><ele>1195.0</ele><time>2026-04-04T13:54:05.188Z</time></trkpt><trkpt lat="44.7208733" lon="9.456305"><ele>1193.6</ele><time>2026-04-04T13:54:06.189Z</time></trkpt><trkpt lat="44.7209033" lon="9.4561533"><ele>1192.2</ele><time>2026-04-04T13:54:07.189Z</time></trkpt><trkpt lat="44.7209317" lon="9.4560033"><ele>1190.8</ele><time>2026-04-04T13:54:08.188Z</time></trkpt><trkpt lat="44.7209617" lon="9.4558617"><ele>1189.4</ele><time>2026-04-04T13:54:09.189Z</time></trkpt><trkpt lat="44.7209933" lon="9.45572"><ele>1188.0</ele><time>2026-04-04T13:54:10.188Z</time></trkpt><trkpt lat="44.7210283" lon="9.4555783"><ele>1189.4</ele><time>2026-04-04T13:54:11.188Z</time></trkpt><trkpt lat="44.7210717" lon="9.455435"><ele>1190.8</ele><time>2026-04-04T13:54:12.188Z</time></trkpt><trkpt lat="44.7211217" lon="9.45529"><ele>1192.2</ele><time>2026-04-04T13:54:13.19Z</time></trkpt><trkpt lat="44.7211733" lon="9.4551517"><ele>1193.6</ele><time>2026-04-04T13:54:14.189Z</time></trkpt><trkpt lat="44.721225" lon="9.4550183"><ele>1195.0</ele><time>2026-04-04T13:54:15.188Z</time></trkpt><trkpt lat="44.72127" lon="9.4548933"><ele>1195.0</ele><time>2026-04-04T13:54:16.189Z</time></trkpt><trkpt lat="44.72131" lon="9.454775"><ele>1195.0</ele><time>2026-04-04T13:54:17.19Z</time></trkpt><trkpt lat="44.72134" lon="9.4546583"><ele>1195.0</ele><time>2026-04-04T13:54:18.188Z</time></trkpt><trkpt lat="44.72135" lon="9.45454"><ele>1195.0</ele><time>2026-04-04T13:54:19.189Z</time></trkpt><trkpt lat="44.7213367" lon="9.4544217"><ele>1195.0</ele><time>2026-04-04T13:54:20.19Z</time></trkpt><trkpt lat="44.7212983" lon="9.4543017"><ele>1195.0</ele><time>2026-04-04T13:54:21.188Z</time></trkpt><trkpt lat="44.721235" lon="9.4541883"><ele>1195.2</ele><time>2026-04-04T13:54:22.19Z</time></trkpt><trkpt lat="44.7211617" lon="9.454075"><ele>1195.4</ele><time>2026-04-04T13:54:23.189Z</time></trkpt><trkpt lat="44.7210883" lon="9.4539617"><ele>1195.6</ele><time>2026-04-04T13:54:24.188Z</time></trkpt><trkpt lat="44.7210267" lon="9.4538483"><ele>1195.8</ele><time>2026-04-04T13:54:25.189Z</time></trkpt><trkpt lat="44.72097" lon="9.4537333"><ele>1196.0</ele><time>2026-04-04T13:54:26.191Z</time></trkpt><trkpt lat="44.7209183" lon="9.453605"><ele>1192.8</ele><time>2026-04-04T13:54:27.189Z</time></trkpt><trkpt lat="44.7208767" lon="9.4534717"><ele>1189.6</ele><time>2026-04-04T13:54:28.188Z</time></trkpt><trkpt lat="44.7208467" lon="9.453335"><ele>1186.4</ele><time>2026-04-04T13:54:29.188Z</time></trkpt><trkpt lat="44.720825" lon="9.4531967"><ele>1183.2</ele><time>2026-04-04T13:54:30.189Z</time></trkpt><trkpt lat="44.720815" lon="9.4530517"><ele>1180.0</ele><time>2026-04-04T13:54:31.192Z</time></trkpt><trkpt lat="44.7208117" lon="9.4529017"><ele>1178.2</ele><time>2026-04-04T13:54:32.189Z</time></trkpt><trkpt lat="44.7208083" lon="9.4527533"><ele>1176.4</ele><time>2026-04-04T13:54:33.189Z</time></trkpt><trkpt lat="44.7208017" lon="9.4526083"><ele>1174.6</ele><time>2026-04-04T13:54:34.188Z</time></trkpt><trkpt lat="44.7208017" lon="9.4524717"><ele>1172.8</ele><time>2026-04-04T13:54:35.188Z</time></trkpt><trkpt lat="44.7208183" lon="9.452335"><ele>1171.0</ele><time>2026-04-04T13:54:36.19Z</time></trkpt><trkpt lat="44.720855" lon="9.4521983"><ele>1171.8</ele><time>2026-04-04T13:54:37.19Z</time></trkpt><trkpt lat="44.720905" lon="9.4520667"><ele>1172.6</ele><time>2026-04-04T13:54:38.19Z</time></trkpt><trkpt lat="44.7209617" lon="9.4519417"><ele>1173.4</ele><time>2026-04-04T13:54:39.189Z</time></trkpt><trkpt lat="44.7210267" lon="9.4518267"><ele>1174.2</ele><time>2026-04-04T13:54:40.19Z</time></trkpt><trkpt lat="44.7211017" lon="9.4517333"><ele>1175.0</ele><time>2026-04-04T13:54:41.189Z</time></trkpt><trkpt lat="44.72119" lon="9.4516517"><ele>1175.0</ele><time>2026-04-04T13:54:42.189Z</time></trkpt><trkpt lat="44.72129" lon="9.45158"><ele>1175.0</ele><time>2026-04-04T13:54:43.19Z</time></trkpt><trkpt lat="44.721395" lon="9.4515017"><ele>1175.0</ele><time>2026-04-04T13:54:44.19Z</time></trkpt><trkpt lat="44.7214967" lon="9.45142"><ele>1175.0</ele><time>2026-04-04T13:54:45.189Z</time></trkpt><trkpt lat="44.7215917" lon="9.4513367"><ele>1174.4</ele><time>2026-04-04T13:54:46.188Z</time></trkpt><trkpt lat="44.72168" lon="9.4512533"><ele>1173.8</ele><time>2026-04-04T13:54:47.189Z</time></trkpt><trkpt lat="44.7217633" lon="9.451165"><ele>1173.2</ele><time>2026-04-04T13:54:48.189Z</time></trkpt><trkpt lat="44.7218317" lon="9.451075"><ele>1172.6</ele><time>2026-04-04T13:54:49.188Z</time></trkpt><trkpt lat="44.72189" lon="9.4509733"><ele>1172.0</ele><time>2026-04-04T13:54:50.189Z</time></trkpt><trkpt lat="44.7219383" lon="9.4508617"><ele>1172.0</ele><time>2026-04-04T13:54:51.188Z</time></trkpt><trkpt lat="44.7219717" lon="9.4507383"><ele>1172.0</ele><time>2026-04-04T13:54:52.188Z</time></trkpt><trkpt lat="44.721985" lon="9.4506033"><ele>1172.0</ele><time>2026-04-04T13:54:53.196Z</time></trkpt><trkpt lat="44.7219817" lon="9.4504583"><ele>1172.0</ele><time>2026-04-04T13:54:54.189Z</time></trkpt><trkpt lat="44.721965" lon="9.450305"><ele>1172.0</ele><time>2026-04-04T13:54:55.188Z</time></trkpt><trkpt lat="44.7219417" lon="9.4501533"><ele>1171.5</ele><time>2026-04-04T13:54:56.19Z</time></trkpt><trkpt lat="44.7219183" lon="9.449995"><ele>1171.0</ele><time>2026-04-04T13:54:57.188Z</time></trkpt><trkpt lat="44.721895" lon="9.4498333"><ele>1170.5</ele><time>2026-04-04T13:54:58.188Z</time></trkpt><trkpt lat="44.7218733" lon="9.4496683"><ele>1170.0</ele><time>2026-04-04T13:54:59.188Z</time></trkpt><trkpt lat="44.72186" lon="9.4494983"><ele>1163.25</ele><time>2026-04-04T13:55:00.189Z</time></trkpt><trkpt lat="44.7218483" lon="9.4493267"><ele>1156.5</ele><time>2026-04-04T13:55:01.189Z</time></trkpt><trkpt lat="44.721835" lon="9.4491567"><ele>1149.75</ele><time>2026-04-04T13:55:02.188Z</time></trkpt><trkpt lat="44.72183" lon="9.4489833"><ele>1143.0</ele><time>2026-04-04T13:55:03.188Z</time></trkpt><trkpt lat="44.7218383" lon="9.4488067"><ele>1141.5</ele><time>2026-04-04T13:55:04.189Z</time></trkpt><trkpt lat="44.721855" lon="9.4486267"><ele>1140.0</ele><time>2026-04-04T13:55:05.188Z</time></trkpt><trkpt lat="44.7218767" lon="9.4484417"><ele>1138.5</ele><time>2026-04-04T13:55:06.188Z</time></trkpt><trkpt lat="44.7218917" lon="9.44826"><ele>1137.0</ele><time>2026-04-04T13:55:07.188Z</time></trkpt><trkpt lat="44.7219" lon="9.4480783"><ele>1136.5</ele><time>2026-04-04T13:55:08.189Z</time></trkpt><trkpt lat="44.7219067" lon="9.4479033"><ele>1136.0</ele><time>2026-04-04T13:55:09.188Z</time></trkpt><trkpt lat="44.7219183" lon="9.4477317"><ele>1135.5</ele><time>2026-04-04T13:55:10.188Z</time></trkpt><trkpt lat="44.7219417" lon="9.447565"><ele>1135.0</ele><time>2026-04-04T13:55:11.188Z</time></trkpt><trkpt lat="44.7219717" lon="9.4474083"><ele>1135.0</ele><time>2026-04-04T13:55:12.19Z</time></trkpt><trkpt lat="44.722" lon="9.4472567"><ele>1135.0</ele><time>2026-04-04T13:55:13.189Z</time></trkpt><trkpt lat="44.7220283" lon="9.447115"><ele>1135.0</ele><time>2026-04-04T13:55:14.189Z</time></trkpt><trkpt lat="44.72206" lon="9.4469867"><ele>1135.0</ele><time>2026-04-04T13:55:15.188Z</time></trkpt><trkpt lat="44.7221083" lon="9.4468867"><ele>1135.0</ele><time>2026-04-04T13:55:16.188Z</time></trkpt><trkpt lat="44.7221733" lon="9.446815"><ele>1131.8</ele><time>2026-04-04T13:55:17.188Z</time></trkpt><trkpt lat="44.722255" lon="9.4467617"><ele>1128.6</ele><time>2026-04-04T13:55:18.191Z</time></trkpt><trkpt lat="44.7223617" lon="9.4467433"><ele>1125.4</ele><time>2026-04-04T13:55:19.19Z</time></trkpt><trkpt lat="44.72246" lon="9.4467217"><ele>1122.2</ele><time>2026-04-04T13:55:20.19Z</time></trkpt><trkpt lat="44.7225433" lon="9.4466833"><ele>1119.0</ele><time>2026-04-04T13:55:21.192Z</time></trkpt><trkpt lat="44.72261" lon="9.44663"><ele>1119.0</ele><time>2026-04-04T13:55:22.188Z</time></trkpt><trkpt lat="44.7226683" lon="9.44656"><ele>1119.0</ele><time>2026-04-04T13:55:23.188Z</time></trkpt><trkpt lat="44.722715" lon="9.4464733"><ele>1119.0</ele><time>2026-04-04T13:55:24.19Z</time></trkpt><trkpt lat="44.7227567" lon="9.4463683"><ele>1119.0</ele><time>2026-04-04T13:55:25.189Z</time></trkpt><trkpt lat="44.722795" lon="9.446245"><ele>1119.0</ele><time>2026-04-04T13:55:26.189Z</time></trkpt><trkpt lat="44.7228333" lon="9.4461"><ele>1119.0</ele><time>2026-04-04T13:55:27.188Z</time></trkpt><trkpt lat="44.7228717" lon="9.4459467"><ele>1113.4</ele><time>2026-04-04T13:55:28.188Z</time></trkpt><trkpt lat="44.72291" lon="9.4457967"><ele>1107.8000000000002</ele><time>2026-04-04T13:55:29.189Z</time></trkpt><trkpt lat="44.72295" lon="9.44565"><ele>1102.1999999999998</ele><time>2026-04-04T13:55:30.189Z</time></trkpt><trkpt lat="44.72299" lon="9.445505"><ele>1096.6</ele><time>2026-04-04T13:55:31.189Z</time></trkpt><trkpt lat="44.72303" lon="9.4453617"><ele>1091.0</ele><time>2026-04-04T13:55:32.189Z</time></trkpt><trkpt lat="44.7230683" lon="9.4452217"><ele>1090.8</ele><time>2026-04-04T13:55:33.188Z</time></trkpt><trkpt lat="44.723105" lon="9.4450833"><ele>1090.6</ele><time>2026-04-04T13:55:34.188Z</time></trkpt><trkpt lat="44.72314" lon="9.44495"><ele>1090.4</ele><time>2026-04-04T13:55:35.188Z</time></trkpt><trkpt lat="44.723185" lon="9.4448217"><ele>1090.2</ele><time>2026-04-04T13:55:36.188Z</time></trkpt><trkpt lat="44.72325" lon="9.44471"><ele>1090.0</ele><time>2026-04-04T13:55:37.188Z</time></trkpt><trkpt lat="44.72333" lon="9.444605"><ele>1090.6</ele><time>2026-04-04T13:55:38.19Z</time></trkpt><trkpt lat="44.72342" lon="9.4445067"><ele>1091.2</ele><time>2026-04-04T13:55:39.189Z</time></trkpt><trkpt lat="44.7235083" lon="9.4444167"><ele>1091.8</ele><time>2026-04-04T13:55:40.189Z</time></trkpt><trkpt lat="44.723595" lon="9.4443267"><ele>1092.4</ele><time>2026-04-04T13:55:41.189Z</time></trkpt><trkpt lat="44.7236783" lon="9.4442383"><ele>1093.0</ele><time>2026-04-04T13:55:42.189Z</time></trkpt><trkpt lat="44.7237533" lon="9.4441567"><ele>1088.6</ele><time>2026-04-04T13:55:43.188Z</time></trkpt><trkpt lat="44.7238117" lon="9.4440683"><ele>1084.1999999999998</ele><time>2026-04-04T13:55:44.188Z</time></trkpt><trkpt lat="44.7238533" lon="9.443965"><ele>1079.8</ele><time>2026-04-04T13:55:45.188Z</time></trkpt><trkpt lat="44.7238767" lon="9.4438333"><ele>1075.3999999999999</ele><time>2026-04-04T13:55:46.187Z</time></trkpt><trkpt lat="44.72388" lon="9.4436817"><ele>1071.0</ele><time>2026-04-04T13:55:47.188Z</time></trkpt><trkpt lat="44.7238767" lon="9.4435283"><ele>1070.3999999999999</ele><time>2026-04-04T13:55:48.187Z</time></trkpt><trkpt lat="44.7238617" lon="9.4433783"><ele>1069.8</ele><time>2026-04-04T13:55:49.188Z</time></trkpt><trkpt lat="44.7238417" lon="9.443235"><ele>1069.1999999999998</ele><time>2026-04-04T13:55:50.188Z</time></trkpt><trkpt lat="44.7238217" lon="9.4431017"><ele>1068.6</ele><time>2026-04-04T13:55:51.187Z</time></trkpt><trkpt lat="44.7237983" lon="9.4429833"><ele>1068.0</ele><time>2026-04-04T13:55:52.188Z</time></trkpt><trkpt lat="44.723765" lon="9.44288"><ele>1067.5</ele><time>2026-04-04T13:55:53.189Z</time></trkpt><trkpt lat="44.72372" lon="9.4427917"><ele>1067.0</ele><time>2026-04-04T13:55:54.187Z</time></trkpt><trkpt lat="44.7236667" lon="9.4427283"><ele>1066.5</ele><time>2026-04-04T13:55:55.187Z</time></trkpt><trkpt lat="44.7236017" lon="9.4426883"><ele>1066.0</ele><time>2026-04-04T13:55:56.188Z</time></trkpt><trkpt lat="44.7235267" lon="9.4426733"><ele>1065.5</ele><time>2026-04-04T13:55:57.188Z</time></trkpt><trkpt lat="44.7234417" lon="9.4426917"><ele>1065.0</ele><time>2026-04-04T13:55:58.187Z</time></trkpt><trkpt lat="44.723355" lon="9.442735"><ele>1065.0</ele><time>2026-04-04T13:55:59.189Z</time></trkpt><trkpt lat="44.7232667" lon="9.442815"><ele>1065.0</ele><time>2026-04-04T13:56:00.188Z</time></trkpt><trkpt lat="44.7231917" lon="9.44294"><ele>1065.0</ele><time>2026-04-04T13:56:01.187Z</time></trkpt><trkpt lat="44.7231117" lon="9.4430617"><ele>1065.0</ele><time>2026-04-04T13:56:02.188Z</time></trkpt><trkpt lat="44.72303" lon="9.4431783"><ele>1065.2</ele><time>2026-04-04T13:56:03.187Z</time></trkpt><trkpt lat="44.7229483" lon="9.4433"><ele>1065.4</ele><time>2026-04-04T13:56:04.187Z</time></trkpt><trkpt lat="44.7228733" lon="9.443425"><ele>1065.6</ele><time>2026-04-04T13:56:05.187Z</time></trkpt><trkpt lat="44.7228" lon="9.4435383"><ele>1065.8</ele><time>2026-04-04T13:56:06.188Z</time></trkpt><trkpt lat="44.72272" lon="9.4436333"><ele>1066.0</ele><time>2026-04-04T13:56:07.188Z</time></trkpt><trkpt lat="44.72263" lon="9.4437067"><ele>1066.0</ele><time>2026-04-04T13:56:08.188Z</time></trkpt><trkpt lat="44.722535" lon="9.4437733"><ele>1066.0</ele><time>2026-04-04T13:56:09.187Z</time></trkpt><trkpt lat="44.7224333" lon="9.4438317"><ele>1066.0</ele><time>2026-04-04T13:56:10.188Z</time></trkpt><trkpt lat="44.722325" lon="9.4438833"><ele>1066.0</ele><time>2026-04-04T13:56:11.188Z</time></trkpt><trkpt lat="44.7222117" lon="9.4439167"><ele>1066.0</ele><time>2026-04-04T13:56:12.187Z</time></trkpt><trkpt lat="44.7220933" lon="9.4439267"><ele>1064.25</ele><time>2026-04-04T13:56:13.19Z</time></trkpt><trkpt lat="44.7219717" lon="9.4439083"><ele>1062.5</ele><time>2026-04-04T13:56:14.188Z</time></trkpt><trkpt lat="44.72185" lon="9.44387"><ele>1060.75</ele><time>2026-04-04T13:56:15.188Z</time></trkpt><trkpt lat="44.7217333" lon="9.44383"><ele>1059.0</ele><time>2026-04-04T13:56:16.188Z</time></trkpt><trkpt lat="44.7216283" lon="9.4437867"><ele>1059.0</ele><time>2026-04-04T13:56:17.188Z</time></trkpt><trkpt lat="44.7215367" lon="9.443735"><ele>1059.0</ele><time>2026-04-04T13:56:18.188Z</time></trkpt><trkpt lat="44.7214517" lon="9.443675"><ele>1059.0</ele><time>2026-04-04T13:56:19.189Z</time></trkpt><trkpt lat="44.7213717" lon="9.4435983"><ele>1059.0</ele><time>2026-04-04T13:56:20.188Z</time></trkpt><trkpt lat="44.721295" lon="9.443505"><ele>1059.0</ele><time>2026-04-04T13:56:21.187Z</time></trkpt><trkpt lat="44.721225" lon="9.4434"><ele>1059.0</ele><time>2026-04-04T13:56:22.187Z</time></trkpt><trkpt lat="44.7211633" lon="9.4432833"><ele>1059.0</ele><time>2026-04-04T13:56:23.188Z</time></trkpt><trkpt lat="44.721105" lon="9.4431667"><ele>1059.0</ele><time>2026-04-04T13:56:24.187Z</time></trkpt><trkpt lat="44.721055" lon="9.4430483"><ele>1059.0</ele><time>2026-04-04T13:56:25.188Z</time></trkpt><trkpt lat="44.7210183" lon="9.44294"><ele>1059.0</ele><time>2026-04-04T13:56:26.188Z</time></trkpt><trkpt lat="44.721" lon="9.4428367"><ele>1059.1666666666667</ele><time>2026-04-04T13:56:27.193Z</time></trkpt><trkpt lat="44.7209983" lon="9.442735"><ele>1059.3333333333333</ele><time>2026-04-04T13:56:28.187Z</time></trkpt><trkpt lat="44.7210283" lon="9.4426383"><ele>1059.5</ele><time>2026-04-04T13:56:29.192Z</time></trkpt><trkpt lat="44.7210867" lon="9.44255"><ele>1059.6666666666665</ele><time>2026-04-04T13:56:30.188Z</time></trkpt><trkpt lat="44.72114" lon="9.44245"><ele>1059.8333333333333</ele><time>2026-04-04T13:56:31.187Z</time></trkpt><trkpt lat="44.7211833" lon="9.4423317"><ele>1060.0</ele><time>2026-04-04T13:56:32.188Z</time></trkpt><trkpt lat="44.7212117" lon="9.44221"><ele>1055.4</ele><time>2026-04-04T13:56:33.188Z</time></trkpt><trkpt lat="44.7212167" lon="9.4420767"><ele>1050.8</ele><time>2026-04-04T13:56:34.187Z</time></trkpt><trkpt lat="44.72121" lon="9.4419333"><ele>1046.2</ele><time>2026-04-04T13:56:35.188Z</time></trkpt><trkpt lat="44.7211983" lon="9.4417883"><ele>1041.6</ele><time>2026-04-04T13:56:36.189Z</time></trkpt><trkpt lat="44.721195" lon="9.4416533"><ele>1037.0</ele><time>2026-04-04T13:56:37.188Z</time></trkpt><trkpt lat="44.7212067" lon="9.4415333"><ele>1037.0</ele><time>2026-04-04T13:56:38.189Z</time></trkpt><trkpt lat="44.7212417" lon="9.4414233"><ele>1037.0</ele><time>2026-04-04T13:56:39.19Z</time></trkpt><trkpt lat="44.7212967" lon="9.44132"><ele>1037.0</ele><time>2026-04-04T13:56:40.187Z</time></trkpt><trkpt lat="44.7213783" lon="9.4412217"><ele>1037.0</ele><time>2026-04-04T13:56:41.188Z</time></trkpt><trkpt lat="44.72146" lon="9.44112"><ele>1037.0</ele><time>2026-04-04T13:56:42.189Z</time></trkpt><trkpt lat="44.7215367" lon="9.441"><ele>1036.25</ele><time>2026-04-04T13:56:43.187Z</time></trkpt><trkpt lat="44.7216083" lon="9.440865"><ele>1035.5</ele><time>2026-04-04T13:56:44.188Z</time></trkpt><trkpt lat="44.72168" lon="9.44072"><ele>1034.75</ele><time>2026-04-04T13:56:45.191Z</time></trkpt><trkpt lat="44.721755" lon="9.440585"><ele>1034.0</ele><time>2026-04-04T13:56:46.187Z</time></trkpt><trkpt lat="44.7218383" lon="9.4404667"><ele>936.0</ele><time>2026-04-04T13:56:47.187Z</time></trkpt><trkpt lat="44.7257267" lon="9.439595"><ele>933.25</ele><time>2026-04-04T13:58:04.189Z</time></trkpt><trkpt lat="44.7258183" lon="9.4397217"><ele>930.5</ele><time>2026-04-04T13:58:05.187Z</time></trkpt><trkpt lat="44.7259083" lon="9.439885"><ele>927.75</ele><time>2026-04-04T13:58:06.188Z</time></trkpt><trkpt lat="44.7260033" lon="9.440075"><ele>925.0</ele><time>2026-04-04T13:58:07.187Z</time></trkpt><trkpt lat="44.7260967" lon="9.4402583"><ele>925.0</ele><time>2026-04-04T13:58:08.188Z</time></trkpt><trkpt lat="44.7261867" lon="9.4404267"><ele>925.0</ele><time>2026-04-04T13:58:09.188Z</time></trkpt><trkpt lat="44.7262767" lon="9.4405867"><ele>925.0</ele><time>2026-04-04T13:58:10.19Z</time></trkpt><trkpt lat="44.7263767" lon="9.4407317"><ele>925.0</ele><time>2026-04-04T13:58:11.189Z</time></trkpt><trkpt lat="44.7264917" lon="9.4408583"><ele>921.3333333333333</ele><time>2026-04-04T13:58:12.189Z</time></trkpt><trkpt lat="44.7267317" lon="9.4410617"><ele>917.6666666666667</ele><time>2026-04-04T13:58:14.189Z</time></trkpt><trkpt lat="44.7268283" lon="9.441165"><ele>914.0</ele><time>2026-04-04T13:58:15.19Z</time></trkpt><trkpt lat="44.7269183" lon="9.4412667"><ele>915.4000000000001</ele><time>2026-04-04T13:58:16.191Z</time></trkpt><trkpt lat="44.726995" lon="9.441375"><ele>916.8000000000001</ele><time>2026-04-04T13:58:17.19Z</time></trkpt><trkpt lat="44.727055" lon="9.441485"><ele>918.1999999999999</ele><time>2026-04-04T13:58:18.19Z</time></trkpt><trkpt lat="44.727095" lon="9.4416033"><ele>919.5999999999999</ele><time>2026-04-04T13:58:19.19Z</time></trkpt><trkpt lat="44.72711" lon="9.44173"><ele>921.0</ele><time>2026-04-04T13:58:20.191Z</time></trkpt><trkpt lat="44.7271" lon="9.4418633"><ele>921.0</ele><time>2026-04-04T13:58:21.191Z</time></trkpt><trkpt lat="44.7270767" lon="9.4419917"><ele>921.0</ele><time>2026-04-04T13:58:22.19Z</time></trkpt><trkpt lat="44.7270633" lon="9.44211"><ele>921.0</ele><time>2026-04-04T13:58:23.188Z</time></trkpt><trkpt lat="44.72706" lon="9.4422217"><ele>921.0</ele><time>2026-04-04T13:58:24.187Z</time></trkpt><trkpt lat="44.7270917" lon="9.4423367"><ele>921.0</ele><time>2026-04-04T13:58:25.188Z</time></trkpt><trkpt lat="44.72715" lon="9.4424483"><ele>921.0</ele><time>2026-04-04T13:58:26.189Z</time></trkpt><trkpt lat="44.7272217" lon="9.4425417"><ele>922.4</ele><time>2026-04-04T13:58:27.189Z</time></trkpt><trkpt lat="44.7273067" lon="9.4426083"><ele>923.8</ele><time>2026-04-04T13:58:28.191Z</time></trkpt><trkpt lat="44.7273967" lon="9.4426467"><ele>925.1999999999999</ele><time>2026-04-04T13:58:29.189Z</time></trkpt><trkpt lat="44.7274883" lon="9.44266"><ele>926.5999999999999</ele><time>2026-04-04T13:58:30.189Z</time></trkpt><trkpt lat="44.7275667" lon="9.442615"><ele>928.0</ele><time>2026-04-04T13:58:31.189Z</time></trkpt><trkpt lat="44.7276383" lon="9.4425517"><ele>928.0</ele><time>2026-04-04T13:58:32.188Z</time></trkpt><trkpt lat="44.727715" lon="9.4424883"><ele>928.0</ele><time>2026-04-04T13:58:33.189Z</time></trkpt><trkpt lat="44.727885" lon="9.4424"><ele>928.0</ele><time>2026-04-04T13:58:35.188Z</time></trkpt><trkpt lat="44.727975" lon="9.442375"><ele>928.0</ele><time>2026-04-04T13:58:36.189Z</time></trkpt><trkpt lat="44.7280583" lon="9.44234"><ele>928.0</ele><time>2026-04-04T13:58:37.189Z</time></trkpt><trkpt lat="44.72814" lon="9.4422983"><ele>927.3333333333333</ele><time>2026-04-04T13:58:38.188Z</time></trkpt><trkpt lat="44.7282017" lon="9.4422467"><ele>926.6666666666666</ele><time>2026-04-04T13:58:39.189Z</time></trkpt><trkpt lat="44.72826" lon="9.4422033"><ele>926.0</ele><time>2026-04-04T13:58:40.188Z</time></trkpt><trkpt lat="44.7283417" lon="9.4421717"><ele>925.3333333333333</ele><time>2026-04-04T13:58:42.189Z</time></trkpt><trkpt lat="44.72844" lon="9.4421933"><ele>924.6666666666666</ele><time>2026-04-04T13:58:44.189Z</time></trkpt><trkpt lat="44.7285033" lon="9.4422017"><ele>924.0</ele><time>2026-04-04T13:58:45.188Z</time></trkpt><trkpt lat="44.728575" lon="9.442205"><ele>923.7142857142858</ele><time>2026-04-04T13:58:46.188Z</time></trkpt><trkpt lat="44.72865" lon="9.4422067"><ele>923.4285714285714</ele><time>2026-04-04T13:58:47.189Z</time></trkpt><trkpt lat="44.7287233" lon="9.4422033"><ele>923.1428571428571</ele><time>2026-04-04T13:58:48.188Z</time></trkpt><trkpt lat="44.7287967" lon="9.4422"><ele>922.8571428571429</ele><time>2026-04-04T13:58:49.19Z</time></trkpt><trkpt lat="44.7288683" lon="9.4421983"><ele>922.5714285714287</ele><time>2026-04-04T13:58:50.188Z</time></trkpt><trkpt lat="44.7289383" lon="9.4421983"><ele>922.2857142857143</ele><time>2026-04-04T13:58:51.188Z</time></trkpt><trkpt lat="44.729005" lon="9.44221"><ele>922.0</ele><time>2026-04-04T13:58:52.188Z</time></trkpt><trkpt lat="44.72907" lon="9.442235"><ele>922.0</ele><time>2026-04-04T13:58:53.189Z</time></trkpt><trkpt lat="44.7291383" lon="9.4422767"><ele>922.0</ele><time>2026-04-04T13:58:54.189Z</time></trkpt><trkpt lat="44.7292833" lon="9.4424"><ele>922.0</ele><time>2026-04-04T13:58:56.188Z</time></trkpt><trkpt lat="44.7293483" lon="9.4424683"><ele>922.0</ele><time>2026-04-04T13:58:57.188Z</time></trkpt><trkpt lat="44.729405" lon="9.4425367"><ele>922.0</ele><time>2026-04-04T13:58:58.189Z</time></trkpt><trkpt lat="44.7294533" lon="9.44261"><ele>922.3333333333333</ele><time>2026-04-04T13:58:59.19Z</time></trkpt><trkpt lat="44.7294933" lon="9.44269"><ele>922.6666666666666</ele><time>2026-04-04T13:59:00.188Z</time></trkpt><trkpt lat="44.7295267" lon="9.442775"><ele>923.0</ele><time>2026-04-04T13:59:01.187Z</time></trkpt><trkpt lat="44.7295517" lon="9.44286"><ele>923.3333333333333</ele><time>2026-04-04T13:59:02.188Z</time></trkpt><trkpt lat="44.729575" lon="9.442945"><ele>923.6666666666666</ele><time>2026-04-04T13:59:03.188Z</time></trkpt><trkpt lat="44.7296167" lon="9.4430867"><ele>924.0</ele><time>2026-04-04T13:59:05.189Z</time></trkpt><trkpt lat="44.7296867" lon="9.443175"><ele>928.0</ele><time>2026-04-04T13:59:07.188Z</time></trkpt><trkpt lat="44.729775" lon="9.4432317"><ele>928.0</ele><time>2026-04-04T13:59:09.188Z</time></trkpt><trkpt lat="44.72986" lon="9.4432767"><ele>928.0</ele><time>2026-04-04T13:59:11.187Z</time></trkpt><trkpt lat="44.7299533" lon="9.4433017"><ele>928.0</ele><time>2026-04-04T13:59:13.188Z</time></trkpt><trkpt lat="44.73007" lon="9.4433183"><ele>928.0</ele><time>2026-04-04T13:59:15.187Z</time></trkpt></trkseg><trkseg><trkpt lat="44.70086" lon="9.5066517"><ele>947.0000000000001</ele><time>2026-04-04T14:26:36.188Z</time></trkpt><trkpt lat="44.7009233" lon="9.50658"><ele>947.0</ele><time>2026-04-04T14:26:38.189Z</time></trkpt><trkpt lat="44.7009767" lon="9.506505"><ele>947.0</ele><time>2026-04-04T14:26:40.188Z</time></trkpt><trkpt lat="44.7010383" lon="9.5064167"><ele>947.0</ele><time>2026-04-04T14:26:42.19Z</time></trkpt><trkpt lat="44.7010983" lon="9.5063183"><ele>947.0000000000001</ele><time>2026-04-04T14:26:44.193Z</time></trkpt><trkpt lat="44.701155" lon="9.50621"><ele>947.0</ele><time>2026-04-04T14:26:46.188Z</time></trkpt><trkpt lat="44.7011833" lon="9.50613"><ele>948.6666666666667</ele><time>2026-04-04T14:26:47.188Z</time></trkpt><trkpt lat="44.70123" lon="9.5060267"><ele>950.3333333333334</ele><time>2026-04-04T14:26:48.189Z</time></trkpt><trkpt lat="44.7012767" lon="9.5059183"><ele>952.0</ele><time>2026-04-04T14:26:49.188Z</time></trkpt><trkpt lat="44.7013217" lon="9.505815"><ele>953.6666666666667</ele><time>2026-04-04T14:26:50.188Z</time></trkpt><trkpt lat="44.7013617" lon="9.50573"><ele>955.3333333333334</ele><time>2026-04-04T14:26:51.188Z</time></trkpt><trkpt lat="44.7014117" lon="9.5055967"><ele>957.0</ele><time>2026-04-04T14:26:53.188Z</time></trkpt><trkpt lat="44.7014" lon="9.5054933"><ele>957.1666666666666</ele><time>2026-04-04T14:26:55.188Z</time></trkpt><trkpt lat="44.7013183" lon="9.5054"><ele>957.3333333333333</ele><time>2026-04-04T14:26:57.189Z</time></trkpt><trkpt lat="44.7012417" lon="9.505325"><ele>957.5</ele><time>2026-04-04T14:26:58.189Z</time></trkpt><trkpt lat="44.701175" lon="9.505245"><ele>957.6666666666666</ele><time>2026-04-04T14:26:59.19Z</time></trkpt><trkpt lat="44.7011067" lon="9.5051667"><ele>957.8333333333333</ele><time>2026-04-04T14:27:00.189Z</time></trkpt><trkpt lat="44.70105" lon="9.505105"><ele>958.0</ele><time>2026-04-04T14:27:01.188Z</time></trkpt><trkpt lat="44.701" lon="9.5050283"><ele>958.0</ele><time>2026-04-04T14:27:02.188Z</time></trkpt><trkpt lat="44.7009567" lon="9.5049433"><ele>958.0</ele><time>2026-04-04T14:27:03.19Z</time></trkpt><trkpt lat="44.7009117" lon="9.50485"><ele>958.0</ele><time>2026-04-04T14:27:04.19Z</time></trkpt><trkpt lat="44.7008767" lon="9.5047583"><ele>958.0</ele><time>2026-04-04T14:27:05.187Z</time></trkpt><trkpt lat="44.7008533" lon="9.50467"><ele>958.0</ele><time>2026-04-04T14:27:06.189Z</time></trkpt><trkpt lat="44.7008533" lon="9.5045733"><ele>958.0</ele><time>2026-04-04T14:27:07.187Z</time></trkpt><trkpt lat="44.7008683" lon="9.5044617"><ele>958.0</ele><time>2026-04-04T14:27:08.19Z</time></trkpt><trkpt lat="44.7009017" lon="9.5043333"><ele>958.2</ele><time>2026-04-04T14:27:09.189Z</time></trkpt><trkpt lat="44.7009517" lon="9.50418"><ele>958.4</ele><time>2026-04-04T14:27:10.187Z</time></trkpt><trkpt lat="44.7009967" lon="9.5040383"><ele>958.6000000000001</ele><time>2026-04-04T14:27:11.188Z</time></trkpt><trkpt lat="44.701035" lon="9.5039067"><ele>958.8000000000001</ele><time>2026-04-04T14:27:12.188Z</time></trkpt><trkpt lat="44.70106" lon="9.50378"><ele>959.0</ele><time>2026-04-04T14:27:13.187Z</time></trkpt><trkpt lat="44.7010767" lon="9.5036667"><ele>959.0</ele><time>2026-04-04T14:27:14.188Z</time></trkpt><trkpt lat="44.7010833" lon="9.50356"><ele>959.0000000000001</ele><time>2026-04-04T14:27:15.187Z</time></trkpt><trkpt lat="44.701075" lon="9.5034583"><ele>959.0000000000001</ele><time>2026-04-04T14:27:16.188Z</time></trkpt><trkpt lat="44.7010333" lon="9.50329"><ele>959.0</ele><time>2026-04-04T14:27:18.188Z</time></trkpt><trkpt lat="44.7010017" lon="9.503205"><ele>959.0</ele><time>2026-04-04T14:27:19.188Z</time></trkpt><trkpt lat="44.7009167" lon="9.50309"><ele>959.0</ele><time>2026-04-04T14:27:20.188Z</time></trkpt><trkpt lat="44.700795" lon="9.50293"><ele>959.0</ele><time>2026-04-04T14:27:21.189Z</time></trkpt><trkpt lat="44.7006783" lon="9.5027683"><ele>959.0</ele><time>2026-04-04T14:27:22.188Z</time></trkpt><trkpt lat="44.7005683" lon="9.5026033"><ele>960.4000000000001</ele><time>2026-04-04T14:27:23.188Z</time></trkpt><trkpt lat="44.70048" lon="9.502455"><ele>961.8000000000001</ele><time>2026-04-04T14:27:24.189Z</time></trkpt><trkpt lat="44.7004067" lon="9.5023233"><ele>963.1999999999999</ele><time>2026-04-04T14:27:25.188Z</time></trkpt><trkpt lat="44.700345" lon="9.5022183"><ele>964.5999999999999</ele><time>2026-04-04T14:27:26.189Z</time></trkpt><trkpt lat="44.7002833" lon="9.50214"><ele>966.0</ele><time>2026-04-04T14:27:27.189Z</time></trkpt><trkpt lat="44.7002183" lon="9.5020867"><ele>966.6666666666666</ele><time>2026-04-04T14:27:28.19Z</time></trkpt><trkpt lat="44.70015" lon="9.5020583"><ele>967.3333333333333</ele><time>2026-04-04T14:27:29.189Z</time></trkpt><trkpt lat="44.7000783" lon="9.5020933"><ele>968.0</ele><time>2026-04-04T14:27:30.188Z</time></trkpt><trkpt lat="44.7000133" lon="9.5021667"><ele>968.6666666666666</ele><time>2026-04-04T14:27:31.187Z</time></trkpt><trkpt lat="44.69995" lon="9.502275"><ele>969.3333333333333</ele><time>2026-04-04T14:27:32.192Z</time></trkpt><trkpt lat="44.6998917" lon="9.5023917"><ele>970.0</ele><time>2026-04-04T14:27:33.192Z</time></trkpt><trkpt lat="44.6998367" lon="9.50251"><ele>969.9999999999999</ele><time>2026-04-04T14:27:34.187Z</time></trkpt><trkpt lat="44.69978" lon="9.5026033"><ele>970.0</ele><time>2026-04-04T14:27:35.19Z</time></trkpt><trkpt lat="44.699725" lon="9.50268"><ele>970.0</ele><time>2026-04-04T14:27:36.188Z</time></trkpt><trkpt lat="44.6996567" lon="9.5027317"><ele>970.0</ele><time>2026-04-04T14:27:37.19Z</time></trkpt><trkpt lat="44.69957" lon="9.502755"><ele>969.9999999999999</ele><time>2026-04-04T14:27:38.188Z</time></trkpt><trkpt lat="44.6994633" lon="9.5027667"><ele>970.0</ele><time>2026-04-04T14:27:39.188Z</time></trkpt><trkpt lat="44.6993217" lon="9.50277"><ele>971.25</ele><time>2026-04-04T14:27:40.188Z</time></trkpt><trkpt lat="44.6991883" lon="9.502775"><ele>972.5</ele><time>2026-04-04T14:27:41.188Z</time></trkpt><trkpt lat="44.699055" lon="9.5027967"><ele>973.75</ele><time>2026-04-04T14:27:42.187Z</time></trkpt><trkpt lat="44.6989367" lon="9.5028533"><ele>975.0</ele><time>2026-04-04T14:27:43.187Z</time></trkpt><trkpt lat="44.6988283" lon="9.5029433"><ele>975.0</ele><time>2026-04-04T14:27:44.189Z</time></trkpt><trkpt lat="44.6987267" lon="9.5030467"><ele>975.0</ele><time>2026-04-04T14:27:45.187Z</time></trkpt><trkpt lat="44.6986233" lon="9.5031417"><ele>975.0</ele><time>2026-04-04T14:27:46.187Z</time></trkpt><trkpt lat="44.69852" lon="9.50322"><ele>975.0</ele><time>2026-04-04T14:27:47.187Z</time></trkpt><trkpt lat="44.6984117" lon="9.50329"><ele>978.0</ele><time>2026-04-04T14:27:48.188Z</time></trkpt><trkpt lat="44.6983" lon="9.5033483"><ele>981.0</ele><time>2026-04-04T14:27:49.188Z</time></trkpt><trkpt lat="44.6981833" lon="9.5033917"><ele>984.0</ele><time>2026-04-04T14:27:50.189Z</time></trkpt><trkpt lat="44.698065" lon="9.50342"><ele>987.0</ele><time>2026-04-04T14:27:51.189Z</time></trkpt><trkpt lat="44.6979433" lon="9.50343"><ele>987.0</ele><time>2026-04-04T14:27:52.189Z</time></trkpt><trkpt lat="44.6978233" lon="9.50343"><ele>987.0</ele><time>2026-04-04T14:27:53.189Z</time></trkpt><trkpt lat="44.6977033" lon="9.5034167"><ele>987.0</ele><time>2026-04-04T14:27:54.189Z</time></trkpt><trkpt lat="44.6975867" lon="9.503385"><ele>987.0</ele><time>2026-04-04T14:27:55.19Z</time></trkpt><trkpt lat="44.6974683" lon="9.5033383"><ele>989.5</ele><time>2026-04-04T14:27:56.189Z</time></trkpt><trkpt lat="44.6973533" lon="9.50328"><ele>992.0</ele><time>2026-04-04T14:27:57.189Z</time></trkpt><trkpt lat="44.6972383" lon="9.5032017"><ele>994.5</ele><time>2026-04-04T14:27:58.189Z</time></trkpt><trkpt lat="44.697125" lon="9.5031117"><ele>997.0</ele><time>2026-04-04T14:27:59.188Z</time></trkpt><trkpt lat="44.697015" lon="9.5030083"><ele>999.0</ele><time>2026-04-04T14:28:00.188Z</time></trkpt><trkpt lat="44.6969117" lon="9.502895"><ele>1001.0</ele><time>2026-04-04T14:28:01.188Z</time></trkpt><trkpt lat="44.6968133" lon="9.5027767"><ele>1003.0</ele><time>2026-04-04T14:28:02.189Z</time></trkpt><trkpt lat="44.69672" lon="9.5026467"><ele>1005.0</ele><time>2026-04-04T14:28:03.188Z</time></trkpt><trkpt lat="44.6966233" lon="9.502495"><ele>1005.0</ele><time>2026-04-04T14:28:04.187Z</time></trkpt><trkpt lat="44.696525" lon="9.50234"><ele>1005.0</ele><time>2026-04-04T14:28:05.19Z</time></trkpt><trkpt lat="44.69643" lon="9.502195"><ele>1005.0</ele><time>2026-04-04T14:28:06.188Z</time></trkpt><trkpt lat="44.6963533" lon="9.5020783"><ele>1005.0</ele><time>2026-04-04T14:28:07.188Z</time></trkpt><trkpt lat="44.6962967" lon="9.501975"><ele>1006.5</ele><time>2026-04-04T14:28:08.189Z</time></trkpt><trkpt lat="44.6962617" lon="9.50187"><ele>1008.0</ele><time>2026-04-04T14:28:09.188Z</time></trkpt><trkpt lat="44.696245" lon="9.5017583"><ele>1009.5</ele><time>2026-04-04T14:28:10.188Z</time></trkpt><trkpt lat="44.6962517" lon="9.5016417"><ele>1011.0</ele><time>2026-04-04T14:28:11.192Z</time></trkpt><trkpt lat="44.69628" lon="9.5015417"><ele>1012.5</ele><time>2026-04-04T14:28:12.191Z</time></trkpt><trkpt lat="44.696315" lon="9.5014467"><ele>1014.0</ele><time>2026-04-04T14:28:13.188Z</time></trkpt><trkpt lat="44.6963517" lon="9.50137"><ele>1014.0</ele><time>2026-04-04T14:28:14.189Z</time></trkpt><trkpt lat="44.6964133" lon="9.5013367"><ele>1014.0</ele><time>2026-04-04T14:28:15.188Z</time></trkpt><trkpt lat="44.6965733" lon="9.5014583"><ele>1014.0</ele><time>2026-04-04T14:28:16.191Z</time></trkpt><trkpt lat="44.6966967" lon="9.50152"><ele>1014.0</ele><time>2026-04-04T14:28:17.19Z</time></trkpt><trkpt lat="44.69682" lon="9.5015917"><ele>1014.6</ele><time>2026-04-04T14:28:18.191Z</time></trkpt><trkpt lat="44.69693" lon="9.5016417"><ele>1015.2</ele><time>2026-04-04T14:28:19.191Z</time></trkpt><trkpt lat="44.6970283" lon="9.501655"><ele>1015.8000000000001</ele><time>2026-04-04T14:28:20.189Z</time></trkpt><trkpt lat="44.6971233" lon="9.5016433"><ele>1016.4000000000001</ele><time>2026-04-04T14:28:21.189Z</time></trkpt><trkpt lat="44.6972033" lon="9.50161"><ele>1017.0</ele><time>2026-04-04T14:28:22.189Z</time></trkpt><trkpt lat="44.69728" lon="9.5015717"><ele>1017.0</ele><time>2026-04-04T14:28:23.19Z</time></trkpt><trkpt lat="44.6973267" lon="9.50151"><ele>1017.0</ele><time>2026-04-04T14:28:24.191Z</time></trkpt><trkpt lat="44.6973183" lon="9.5013783"><ele>1017.0</ele><time>2026-04-04T14:28:25.19Z</time></trkpt><trkpt lat="44.6973017" lon="9.5012483"><ele>1017.0</ele><time>2026-04-04T14:28:26.19Z</time></trkpt><trkpt lat="44.6972767" lon="9.5011333"><ele>1017.0</ele><time>2026-04-04T14:28:27.189Z</time></trkpt><trkpt lat="44.69725" lon="9.5010217"><ele>1017.0</ele><time>2026-04-04T14:28:28.189Z</time></trkpt><trkpt lat="44.6972283" lon="9.5009167"><ele>1017.8</ele><time>2026-04-04T14:28:29.188Z</time></trkpt><trkpt lat="44.6971983" lon="9.5008017"><ele>1018.6</ele><time>2026-04-04T14:28:30.188Z</time></trkpt><trkpt lat="44.6971567" lon="9.5006883"><ele>1019.3999999999999</ele><time>2026-04-04T14:28:31.188Z</time></trkpt><trkpt lat="44.6970967" lon="9.50055"><ele>1020.1999999999999</ele><time>2026-04-04T14:28:32.188Z</time></trkpt><trkpt lat="44.6970283" lon="9.5004067"><ele>1021.0</ele><time>2026-04-04T14:28:33.189Z</time></trkpt><trkpt lat="44.69695" lon="9.5002517"><ele>1025.0</ele><time>2026-04-04T14:28:34.188Z</time></trkpt><trkpt lat="44.6968733" lon="9.5000917"><ele>1029.0</ele><time>2026-04-04T14:28:35.187Z</time></trkpt><trkpt lat="44.696805" lon="9.4999433"><ele>1033.0</ele><time>2026-04-04T14:28:36.189Z</time></trkpt><trkpt lat="44.6967383" lon="9.4998183"><ele>1037.0</ele><time>2026-04-04T14:28:37.189Z</time></trkpt><trkpt lat="44.696665" lon="9.4997067"><ele>1037.0</ele><time>2026-04-04T14:28:38.188Z</time></trkpt><trkpt lat="44.6965733" lon="9.499625"><ele>1037.0</ele><time>2026-04-04T14:28:39.188Z</time></trkpt><trkpt lat="44.6964683" lon="9.4995633"><ele>1037.0</ele><time>2026-04-04T14:28:40.188Z</time></trkpt><trkpt lat="44.696355" lon="9.49952"><ele>1037.0</ele><time>2026-04-04T14:28:41.191Z</time></trkpt><trkpt lat="44.696235" lon="9.4994833"><ele>1037.0</ele><time>2026-04-04T14:28:42.188Z</time></trkpt><trkpt lat="44.6961083" lon="9.4994483"><ele>1037.0</ele><time>2026-04-04T14:28:43.189Z</time></trkpt><trkpt lat="44.6959717" lon="9.49941"><ele>1037.0</ele><time>2026-04-04T14:28:44.189Z</time></trkpt><trkpt lat="44.69582" lon="9.4993617"><ele>1037.0</ele><time>2026-04-04T14:28:45.189Z</time></trkpt><trkpt lat="44.6956483" lon="9.4993083"><ele>1039.6666666666667</ele><time>2026-04-04T14:28:46.189Z</time></trkpt><trkpt lat="44.6954767" lon="9.4992483"><ele>1042.3333333333333</ele><time>2026-04-04T14:28:47.188Z</time></trkpt><trkpt lat="44.6953233" lon="9.4991883"><ele>1045.0</ele><time>2026-04-04T14:28:48.188Z</time></trkpt><trkpt lat="44.6951733" lon="9.4991233"><ele>1046.6666666666665</ele><time>2026-04-04T14:28:49.19Z</time></trkpt><trkpt lat="44.69503" lon="9.4990433"><ele>1048.3333333333333</ele><time>2026-04-04T14:28:50.189Z</time></trkpt><trkpt lat="44.6948883" lon="9.4989567"><ele>1050.0</ele><time>2026-04-04T14:28:51.189Z</time></trkpt><trkpt lat="44.694755" lon="9.4988667"><ele>1050.0</ele><time>2026-04-04T14:28:52.191Z</time></trkpt><trkpt lat="44.6946233" lon="9.4987883"><ele>1050.0</ele><time>2026-04-04T14:28:53.189Z</time></trkpt><trkpt lat="44.6944933" lon="9.4987133"><ele>1050.0</ele><time>2026-04-04T14:28:54.189Z</time></trkpt><trkpt lat="44.69437" lon="9.498645"><ele>1050.0</ele><time>2026-04-04T14:28:55.19Z</time></trkpt><trkpt lat="44.6942633" lon="9.4985817"><ele>1051.6666666666667</ele><time>2026-04-04T14:28:56.19Z</time></trkpt><trkpt lat="44.6941867" lon="9.498525"><ele>1053.3333333333333</ele><time>2026-04-04T14:28:57.191Z</time></trkpt><trkpt lat="44.6941367" lon="9.498465"><ele>1055.0</ele><time>2026-04-04T14:28:58.19Z</time></trkpt><trkpt lat="44.6940983" lon="9.4983367"><ele>1056.6666666666665</ele><time>2026-04-04T14:29:00.188Z</time></trkpt><trkpt lat="44.694155" lon="9.4981917"><ele>1058.3333333333333</ele><time>2026-04-04T14:29:02.19Z</time></trkpt><trkpt lat="44.6942217" lon="9.4981367"><ele>1060.0</ele><time>2026-04-04T14:29:03.188Z</time></trkpt><trkpt lat="44.6943017" lon="9.4981083"><ele>1060.0</ele><time>2026-04-04T14:29:04.188Z</time></trkpt><trkpt lat="44.694395" lon="9.4980967"><ele>1060.0</ele><time>2026-04-04T14:29:05.189Z</time></trkpt><trkpt lat="44.6944783" lon="9.4980833"><ele>1060.0</ele><time>2026-04-04T14:29:06.188Z</time></trkpt><trkpt lat="44.6945633" lon="9.4980567"><ele>1060.0</ele><time>2026-04-04T14:29:07.188Z</time></trkpt><trkpt lat="44.694635" lon="9.4980083"><ele>1060.0</ele><time>2026-04-04T14:29:08.189Z</time></trkpt><trkpt lat="44.6946733" lon="9.4979317"><ele>1060.0</ele><time>2026-04-04T14:29:09.188Z</time></trkpt><trkpt lat="44.69468" lon="9.497835"><ele>1062.25</ele><time>2026-04-04T14:29:10.187Z</time></trkpt><trkpt lat="44.694635" lon="9.4977267"><ele>1064.5</ele><time>2026-04-04T14:29:11.188Z</time></trkpt><trkpt lat="44.6945733" lon="9.4976183"><ele>1066.75</ele><time>2026-04-04T14:29:12.187Z</time></trkpt><trkpt lat="44.694475" lon="9.4974917"><ele>1069.0</ele><time>2026-04-04T14:29:13.187Z</time></trkpt><trkpt lat="44.6943517" lon="9.497335"><ele>1069.0</ele><time>2026-04-04T14:29:14.189Z</time></trkpt><trkpt lat="44.6942417" lon="9.4971833"><ele>1069.0</ele><time>2026-04-04T14:29:15.189Z</time></trkpt><trkpt lat="44.694145" lon="9.4970467"><ele>1069.0</ele><time>2026-04-04T14:29:16.188Z</time></trkpt><trkpt lat="44.6940567" lon="9.49692"><ele>1069.0</ele><time>2026-04-04T14:29:17.189Z</time></trkpt><trkpt lat="44.6939767" lon="9.4968067"><ele>1071.25</ele><time>2026-04-04T14:29:18.188Z</time></trkpt><trkpt lat="44.6939017" lon="9.49668"><ele>1073.5</ele><time>2026-04-04T14:29:19.188Z</time></trkpt><trkpt lat="44.693835" lon="9.496535"><ele>1075.75</ele><time>2026-04-04T14:29:20.189Z</time></trkpt><trkpt lat="44.6937833" lon="9.49637"><ele>1078.0</ele><time>2026-04-04T14:29:21.189Z</time></trkpt><trkpt lat="44.6936917" lon="9.4960317"><ele>1076.75</ele><time>2026-04-04T14:29:23.188Z</time></trkpt><trkpt lat="44.6936367" lon="9.495875"><ele>1075.5</ele><time>2026-04-04T14:29:24.187Z</time></trkpt><trkpt lat="44.6935683" lon="9.495725"><ele>1074.25</ele><time>2026-04-04T14:29:25.188Z</time></trkpt><trkpt lat="44.6934983" lon="9.4955767"><ele>1073.0</ele><time>2026-04-04T14:29:26.189Z</time></trkpt><trkpt lat="44.6934333" lon="9.495435"><ele>1073.75</ele><time>2026-04-04T14:29:27.189Z</time></trkpt><trkpt lat="44.6933667" lon="9.495295"><ele>1074.5</ele><time>2026-04-04T14:29:28.188Z</time></trkpt><trkpt lat="44.693305" lon="9.4951467"><ele>1075.25</ele><time>2026-04-04T14:29:29.189Z</time></trkpt><trkpt lat="44.69325" lon="9.4949933"><ele>1076.0</ele><time>2026-04-04T14:29:30.188Z</time></trkpt><trkpt lat="44.6932017" lon="9.4948533"><ele>1076.0</ele><time>2026-04-04T14:29:31.188Z</time></trkpt><trkpt lat="44.6931567" lon="9.49474"><ele>1076.0</ele><time>2026-04-04T14:29:32.191Z</time></trkpt><trkpt lat="44.6931067" lon="9.4946517"><ele>1076.0</ele><time>2026-04-04T14:29:33.188Z</time></trkpt><trkpt lat="44.6930567" lon="9.4945783"><ele>1076.0</ele><time>2026-04-04T14:29:34.188Z</time></trkpt><trkpt lat="44.6929617" lon="9.494485"><ele>1076.0</ele><time>2026-04-04T14:29:36.188Z</time></trkpt><trkpt lat="44.6928533" lon="9.4944667"><ele>1074.5</ele><time>2026-04-04T14:29:38.189Z</time></trkpt><trkpt lat="44.6927467" lon="9.494495"><ele>1073.0</ele><time>2026-04-04T14:29:40.188Z</time></trkpt><trkpt lat="44.692665" lon="9.49449"><ele>1071.5</ele><time>2026-04-04T14:29:42.189Z</time></trkpt><trkpt lat="44.6926233" lon="9.4944067"><ele>1070.0</ele><time>2026-04-04T14:29:44.19Z</time></trkpt><trkpt lat="44.6926217" lon="9.4942517"><ele>1068.5</ele><time>2026-04-04T14:29:46.188Z</time></trkpt><trkpt lat="44.6926533" lon="9.4941683"><ele>1067.0</ele><time>2026-04-04T14:29:47.189Z</time></trkpt><trkpt lat="44.69271" lon="9.4940317"><ele>1067.0</ele><time>2026-04-04T14:29:49.188Z</time></trkpt><trkpt lat="44.6927067" lon="9.4939067"><ele>1067.0</ele><time>2026-04-04T14:29:51.191Z</time></trkpt><trkpt lat="44.6926333" lon="9.49382"><ele>1067.0</ele><time>2026-04-04T14:29:53.19Z</time></trkpt><trkpt lat="44.69257" lon="9.4937983"><ele>1067.0</ele><time>2026-04-04T14:29:54.189Z</time></trkpt><trkpt lat="44.69248" lon="9.4938033"><ele>1067.0</ele><time>2026-04-04T14:29:55.189Z</time></trkpt><trkpt lat="44.692385" lon="9.4938217"><ele>1067.0</ele><time>2026-04-04T14:29:56.188Z</time></trkpt><trkpt lat="44.69227" lon="9.4938383"><ele>1067.0</ele><time>2026-04-04T14:29:57.188Z</time></trkpt><trkpt lat="44.6921533" lon="9.493835"><ele>1067.0</ele><time>2026-04-04T14:29:58.189Z</time></trkpt><trkpt lat="44.6920567" lon="9.4938267"><ele>1067.0</ele><time>2026-04-04T14:29:59.189Z</time></trkpt><trkpt lat="44.6919683" lon="9.4938267"><ele>1067.0</ele><time>2026-04-04T14:30:00.19Z</time></trkpt><trkpt lat="44.69189" lon="9.4938383"><ele>1067.0</ele><time>2026-04-04T14:30:01.19Z</time></trkpt><trkpt lat="44.691825" lon="9.4938533"><ele>1067.0</ele><time>2026-04-04T14:30:02.19Z</time></trkpt><trkpt lat="44.69171" lon="9.4938683"><ele>1067.75</ele><time>2026-04-04T14:30:04.19Z</time></trkpt><trkpt lat="44.6915917" lon="9.4938317"><ele>1068.5</ele><time>2026-04-04T14:30:06.19Z</time></trkpt><trkpt lat="44.6914883" lon="9.4937367"><ele>1069.25</ele><time>2026-04-04T14:30:08.191Z</time></trkpt><trkpt lat="44.6914033" lon="9.493625"><ele>1070.0</ele><time>2026-04-04T14:30:10.189Z</time></trkpt><trkpt lat="44.6913217" lon="9.4935017"><ele>1071.4</ele><time>2026-04-04T14:30:12.191Z</time></trkpt><trkpt lat="44.6912683" lon="9.4934233"><ele>1072.8</ele><time>2026-04-04T14:30:13.191Z</time></trkpt><trkpt lat="44.6912033" lon="9.4933317"><ele>1074.2</ele><time>2026-04-04T14:30:14.19Z</time></trkpt><trkpt lat="44.6911367" lon="9.493245"><ele>1075.6</ele><time>2026-04-04T14:30:15.189Z</time></trkpt><trkpt lat="44.6910733" lon="9.4931833"><ele>1077.0</ele><time>2026-04-04T14:30:16.188Z</time></trkpt><trkpt lat="44.690955" lon="9.4931483"><ele>1077.0</ele><time>2026-04-04T14:30:18.189Z</time></trkpt><trkpt lat="44.6908883" lon="9.4931717"><ele>1077.0</ele><time>2026-04-04T14:30:19.188Z</time></trkpt><trkpt lat="44.690825" lon="9.4932083"><ele>1077.0</ele><time>2026-04-04T14:30:20.189Z</time></trkpt><trkpt lat="44.69076" lon="9.4932517"><ele>1077.0</ele><time>2026-04-04T14:30:21.188Z</time></trkpt><trkpt lat="44.6906817" lon="9.4933017"><ele>1077.0</ele><time>2026-04-04T14:30:22.188Z</time></trkpt><trkpt lat="44.6905767" lon="9.493355"><ele>1077.0</ele><time>2026-04-04T14:30:23.188Z</time></trkpt><trkpt lat="44.6904583" lon="9.4934117"><ele>1077.0</ele><time>2026-04-04T14:30:24.188Z</time></trkpt><trkpt lat="44.6903317" lon="9.4934617"><ele>1077.0</ele><time>2026-04-04T14:30:25.188Z</time></trkpt><trkpt lat="44.6902083" lon="9.4935033"><ele>1077.0</ele><time>2026-04-04T14:30:26.188Z</time></trkpt><trkpt lat="44.6900917" lon="9.4935367"><ele>1077.0</ele><time>2026-04-04T14:30:27.189Z</time></trkpt><trkpt lat="44.6899833" lon="9.4935617"><ele>1078.1666666666667</ele><time>2026-04-04T14:30:28.188Z</time></trkpt><trkpt lat="44.6898867" lon="9.4935733"><ele>1079.3333333333333</ele><time>2026-04-04T14:30:29.188Z</time></trkpt><trkpt lat="44.68981" lon="9.49356"><ele>1080.5</ele><time>2026-04-04T14:30:30.188Z</time></trkpt><trkpt lat="44.6897517" lon="9.49352"><ele>1081.6666666666665</ele><time>2026-04-04T14:30:31.189Z</time></trkpt><trkpt lat="44.6896983" lon="9.49345"><ele>1082.8333333333333</ele><time>2026-04-04T14:30:32.189Z</time></trkpt><trkpt lat="44.6896517" lon="9.4933533"><ele>1084.0</ele><time>2026-04-04T14:30:33.188Z</time></trkpt><trkpt lat="44.6896017" lon="9.49328"><ele>1084.0</ele><time>2026-04-04T14:30:34.188Z</time></trkpt><trkpt lat="44.689525" lon="9.4932333"><ele>1084.0</ele><time>2026-04-04T14:30:35.191Z</time></trkpt><trkpt lat="44.6894267" lon="9.4932033"><ele>1084.0</ele><time>2026-04-04T14:30:36.19Z</time></trkpt><trkpt lat="44.6893383" lon="9.4931817"><ele>1084.0</ele><time>2026-04-04T14:30:37.189Z</time></trkpt><trkpt lat="44.689275" lon="9.4931483"><ele>1084.0</ele><time>2026-04-04T14:30:38.191Z</time></trkpt><trkpt lat="44.6891833" lon="9.493015"><ele>1086.0</ele><time>2026-04-04T14:30:40.189Z</time></trkpt><trkpt lat="44.6891367" lon="9.4929183"><ele>1088.0</ele><time>2026-04-04T14:30:41.188Z</time></trkpt><trkpt lat="44.6890933" lon="9.4928233"><ele>1090.0</ele><time>2026-04-04T14:30:42.189Z</time></trkpt><trkpt lat="44.6890467" lon="9.4927517"><ele>1092.0</ele><time>2026-04-04T14:30:43.188Z</time></trkpt><trkpt lat="44.6889317" lon="9.4926967"><ele>1094.0</ele><time>2026-04-04T14:30:45.19Z</time></trkpt><trkpt lat="44.6888417" lon="9.4927033"><ele>1096.0</ele><time>2026-04-04T14:30:46.189Z</time></trkpt><trkpt lat="44.6887533" lon="9.4927017"><ele>1096.0</ele><time>2026-04-04T14:30:47.189Z</time></trkpt><trkpt lat="44.6886633" lon="9.4926767"><ele>1096.0</ele><time>2026-04-04T14:30:48.188Z</time></trkpt><trkpt lat="44.688575" lon="9.49262"><ele>1096.0</ele><time>2026-04-04T14:30:49.189Z</time></trkpt><trkpt lat="44.6885" lon="9.4925417"><ele>1096.0</ele><time>2026-04-04T14:30:50.189Z</time></trkpt><trkpt lat="44.6884367" lon="9.4924733"><ele>1096.0</ele><time>2026-04-04T14:30:51.188Z</time></trkpt><trkpt lat="44.6883283" lon="9.492435"><ele>1096.8</ele><time>2026-04-04T14:30:53.189Z</time></trkpt><trkpt lat="44.6882083" lon="9.4925033"><ele>1097.6</ele><time>2026-04-04T14:30:55.189Z</time></trkpt><trkpt lat="44.6881283" lon="9.49255"><ele>1098.4</ele><time>2026-04-04T14:30:56.19Z</time></trkpt><trkpt lat="44.6880467" lon="9.4926"><ele>1099.2</ele><time>2026-04-04T14:30:57.19Z</time></trkpt><trkpt lat="44.6879667" lon="9.4926517"><ele>1100.0</ele><time>2026-04-04T14:30:58.19Z</time></trkpt><trkpt lat="44.6878833" lon="9.4926967"><ele>1100.0</ele><time>2026-04-04T14:30:59.19Z</time></trkpt><trkpt lat="44.6877917" lon="9.49272"><ele>1100.0</ele><time>2026-04-04T14:31:00.189Z</time></trkpt><trkpt lat="44.687685" lon="9.4927267"><ele>1100.0</ele><time>2026-04-04T14:31:01.19Z</time></trkpt><trkpt lat="44.6875617" lon="9.4927217"><ele>1100.0</ele><time>2026-04-04T14:31:02.192Z</time></trkpt><trkpt lat="44.6874433" lon="9.4927017"><ele>1100.0</ele><time>2026-04-04T14:31:03.189Z</time></trkpt><trkpt lat="44.6873283" lon="9.4926617"><ele>1100.8</ele><time>2026-04-04T14:31:04.189Z</time></trkpt><trkpt lat="44.68723" lon="9.4926117"><ele>1101.6</ele><time>2026-04-04T14:31:05.192Z</time></trkpt><trkpt lat="44.6871283" lon="9.49258"><ele>1102.4</ele><time>2026-04-04T14:31:06.189Z</time></trkpt><trkpt lat="44.6870267" lon="9.4925567"><ele>1103.2</ele><time>2026-04-04T14:31:07.188Z</time></trkpt><trkpt lat="44.686925" lon="9.4925367"><ele>1104.0</ele><time>2026-04-04T14:31:08.189Z</time></trkpt><trkpt lat="44.686825" lon="9.492515"><ele>1104.0</ele><time>2026-04-04T14:31:09.188Z</time></trkpt><trkpt lat="44.6867233" lon="9.4925017"><ele>1104.0</ele><time>2026-04-04T14:31:10.189Z</time></trkpt><trkpt lat="44.6866217" lon="9.4924983"><ele>1104.0</ele><time>2026-04-04T14:31:11.191Z</time></trkpt><trkpt lat="44.6865233" lon="9.4925017"><ele>1104.0</ele><time>2026-04-04T14:31:12.189Z</time></trkpt><trkpt lat="44.6864267" lon="9.4925117"><ele>1104.0</ele><time>2026-04-04T14:31:13.19Z</time></trkpt><trkpt lat="44.6863217" lon="9.492525"><ele>1104.0</ele><time>2026-04-04T14:31:14.19Z</time></trkpt><trkpt lat="44.6862167" lon="9.4925383"><ele>1104.0</ele><time>2026-04-04T14:31:15.19Z</time></trkpt><trkpt lat="44.6861067" lon="9.4925483"><ele>1104.0</ele><time>2026-04-04T14:31:16.19Z</time></trkpt><trkpt lat="44.6859983" lon="9.4925533"><ele>1104.0</ele><time>2026-04-04T14:31:17.189Z</time></trkpt><trkpt lat="44.6858933" lon="9.4925533"><ele>1104.0</ele><time>2026-04-04T14:31:18.188Z</time></trkpt><trkpt lat="44.6857817" lon="9.4925533"><ele>1104.8</ele><time>2026-04-04T14:31:19.188Z</time></trkpt><trkpt lat="44.6856683" lon="9.4925533"><ele>1105.6000000000001</ele><time>2026-04-04T14:31:20.189Z</time></trkpt><trkpt lat="44.6855517" lon="9.49255"><ele>1106.4</ele><time>2026-04-04T14:31:21.188Z</time></trkpt><trkpt lat="44.6854467" lon="9.4925433"><ele>1107.2</ele><time>2026-04-04T14:31:22.189Z</time></trkpt><trkpt lat="44.6853483" lon="9.4925333"><ele>1108.0</ele><time>2026-04-04T14:31:23.189Z</time></trkpt><trkpt lat="44.6852717" lon="9.4925183"><ele>1111.0</ele><time>2026-04-04T14:31:24.188Z</time></trkpt><trkpt lat="44.685205" lon="9.4925"><ele>1114.0</ele><time>2026-04-04T14:31:25.19Z</time></trkpt><trkpt lat="44.6851067" lon="9.4924933"><ele>1117.0</ele><time>2026-04-04T14:31:27.19Z</time></trkpt><trkpt lat="44.685035" lon="9.49257"><ele>1120.0</ele><time>2026-04-04T14:31:29.19Z</time></trkpt><trkpt lat="44.6850033" lon="9.4926533"><ele>1123.0</ele><time>2026-04-04T14:31:30.189Z</time></trkpt><trkpt lat="44.6849767" lon="9.492765"><ele>1126.0</ele><time>2026-04-04T14:31:31.189Z</time></trkpt><trkpt lat="44.6849367" lon="9.492865"><ele>1123.8</ele><time>2026-04-04T14:31:32.19Z</time></trkpt><trkpt lat="44.6848967" lon="9.4929483"><ele>1121.6</ele><time>2026-04-04T14:31:33.192Z</time></trkpt><trkpt lat="44.6848517" lon="9.49302"><ele>1119.4</ele><time>2026-04-04T14:31:34.19Z</time></trkpt><trkpt lat="44.6847633" lon="9.4931217"><ele>1117.2</ele><time>2026-04-04T14:31:36.19Z</time></trkpt><trkpt lat="44.684675" lon="9.4931533"><ele>1115.0</ele><time>2026-04-04T14:31:38.188Z</time></trkpt><trkpt lat="44.6845833" lon="9.4930767"><ele>1115.0</ele><time>2026-04-04T14:31:40.188Z</time></trkpt><trkpt lat="44.6845217" lon="9.4929367"><ele>1115.0</ele><time>2026-04-04T14:31:42.188Z</time></trkpt><trkpt lat="44.684505" lon="9.4928433"><ele>1115.0</ele><time>2026-04-04T14:31:43.187Z</time></trkpt><trkpt lat="44.684505" lon="9.49274"><ele>1115.0</ele><time>2026-04-04T14:31:44.194Z</time></trkpt><trkpt lat="44.68451" lon="9.4926433"><ele>1115.0</ele><time>2026-04-04T14:31:45.187Z</time></trkpt><trkpt lat="44.6845233" lon="9.4925533"><ele>1115.0</ele><time>2026-04-04T14:31:46.188Z</time></trkpt><trkpt lat="44.6845167" lon="9.49241"><ele>1117.75</ele><time>2026-04-04T14:31:48.189Z</time></trkpt><trkpt lat="44.68445" lon="9.4922583"><ele>1120.5</ele><time>2026-04-04T14:31:50.189Z</time></trkpt><trkpt lat="44.6843867" lon="9.4921333"><ele>1123.25</ele><time>2026-04-04T14:31:51.189Z</time></trkpt><trkpt lat="44.6843083" lon="9.4919983"><ele>1126.0</ele><time>2026-04-04T14:31:52.189Z</time></trkpt><trkpt lat="44.6842283" lon="9.4918833"><ele>1128.6666666666665</ele><time>2026-04-04T14:31:53.19Z</time></trkpt><trkpt lat="44.6841433" lon="9.4917833"><ele>1131.3333333333333</ele><time>2026-04-04T14:31:54.189Z</time></trkpt><trkpt lat="44.684075" lon="9.4917083"><ele>1134.0</ele><time>2026-04-04T14:31:55.188Z</time></trkpt><trkpt lat="44.6840167" lon="9.491635"><ele>1136.6666666666667</ele><time>2026-04-04T14:31:56.19Z</time></trkpt><trkpt lat="44.6839683" lon="9.4915517"><ele>1139.3333333333335</ele><time>2026-04-04T14:31:57.189Z</time></trkpt><trkpt lat="44.6839217" lon="9.4914617"><ele>1142.0</ele><time>2026-04-04T14:31:58.188Z</time></trkpt><trkpt lat="44.6838817" lon="9.4913583"><ele>1142.0</ele><time>2026-04-04T14:31:59.189Z</time></trkpt><trkpt lat="44.6838433" lon="9.49126"><ele>1142.0</ele><time>2026-04-04T14:32:00.188Z</time></trkpt><trkpt lat="44.6838033" lon="9.4911717"><ele>1142.0</ele><time>2026-04-04T14:32:01.191Z</time></trkpt><trkpt lat="44.6837583" lon="9.4910983"><ele>1142.0</ele><time>2026-04-04T14:32:02.192Z</time></trkpt><trkpt lat="44.6836817" lon="9.4910183"><ele>1142.0</ele><time>2026-04-04T14:32:04.19Z</time></trkpt><trkpt lat="44.6835933" lon="9.4910067"><ele>1142.0</ele><time>2026-04-04T14:32:06.19Z</time></trkpt><trkpt lat="44.683525" lon="9.49101"><ele>1143.0</ele><time>2026-04-04T14:32:07.19Z</time></trkpt><trkpt lat="44.6834583" lon="9.4910017"><ele>1144.0</ele><time>2026-04-04T14:32:08.19Z</time></trkpt><trkpt lat="44.683385" lon="9.49098"><ele>1145.0</ele><time>2026-04-04T14:32:09.189Z</time></trkpt><trkpt lat="44.68332" lon="9.4909417"><ele>1146.0</ele><time>2026-04-04T14:32:10.189Z</time></trkpt><trkpt lat="44.683245" lon="9.49088"><ele>1147.0</ele><time>2026-04-04T14:32:11.189Z</time></trkpt><trkpt lat="44.6831683" lon="9.490795"><ele>1148.0</ele><time>2026-04-04T14:32:12.189Z</time></trkpt><trkpt lat="44.68308" lon="9.490685"><ele>1148.0</ele><time>2026-04-04T14:32:13.189Z</time></trkpt><trkpt lat="44.6830117" lon="9.4905867"><ele>1148.0</ele><time>2026-04-04T14:32:14.19Z</time></trkpt><trkpt lat="44.6829583" lon="9.4904833"><ele>1148.0</ele><time>2026-04-04T14:32:15.191Z</time></trkpt><trkpt lat="44.68291" lon="9.4903783"><ele>1148.0</ele><time>2026-04-04T14:32:16.189Z</time></trkpt><trkpt lat="44.6828783" lon="9.4902667"><ele>1148.0</ele><time>2026-04-04T14:32:17.19Z</time></trkpt><trkpt lat="44.6828517" lon="9.4901567"><ele>1148.0</ele><time>2026-04-04T14:32:18.189Z</time></trkpt><trkpt lat="44.682815" lon="9.49007"><ele>1150.6666666666667</ele><time>2026-04-04T14:32:19.189Z</time></trkpt><trkpt lat="44.68277" lon="9.49"><ele>1153.3333333333335</ele><time>2026-04-04T14:32:20.19Z</time></trkpt><trkpt lat="44.6826983" lon="9.48995"><ele>1156.0</ele><time>2026-04-04T14:32:21.189Z</time></trkpt><trkpt lat="44.6826317" lon="9.4899083"><ele>1158.6666666666667</ele><time>2026-04-04T14:32:22.19Z</time></trkpt><trkpt lat="44.6825567" lon="9.4898933"><ele>1161.3333333333333</ele><time>2026-04-04T14:32:23.19Z</time></trkpt><trkpt lat="44.68248" lon="9.4898683"><ele>1164.0</ele><time>2026-04-04T14:32:24.189Z</time></trkpt><trkpt lat="44.6824033" lon="9.4898217"><ele>1164.2</ele><time>2026-04-04T14:32:25.19Z</time></trkpt><trkpt lat="44.68234" lon="9.489755"><ele>1164.4</ele><time>2026-04-04T14:32:26.19Z</time></trkpt><trkpt lat="44.68227" lon="9.4896567"><ele>1164.6</ele><time>2026-04-04T14:32:27.19Z</time></trkpt><trkpt lat="44.6821883" lon="9.4895733"><ele>1164.8</ele><time>2026-04-04T14:32:28.191Z</time></trkpt><trkpt lat="44.682105" lon="9.4895133"><ele>1165.0</ele><time>2026-04-04T14:32:29.19Z</time></trkpt><trkpt lat="44.6820283" lon="9.4894867"><ele>1168.2</ele><time>2026-04-04T14:32:30.191Z</time></trkpt><trkpt lat="44.681945" lon="9.48946"><ele>1171.4</ele><time>2026-04-04T14:32:31.19Z</time></trkpt><trkpt lat="44.6818617" lon="9.4894217"><ele>1174.6</ele><time>2026-04-04T14:32:32.19Z</time></trkpt><trkpt lat="44.6817833" lon="9.48936"><ele>1177.8</ele><time>2026-04-04T14:32:33.189Z</time></trkpt><trkpt lat="44.6817133" lon="9.4892733"><ele>1181.0</ele><time>2026-04-04T14:32:34.191Z</time></trkpt><trkpt lat="44.681645" lon="9.48918"><ele>1181.5714285714287</ele><time>2026-04-04T14:32:35.19Z</time></trkpt><trkpt lat="44.6815817" lon="9.4890883"><ele>1182.1428571428573</ele><time>2026-04-04T14:32:36.188Z</time></trkpt><trkpt lat="44.681525" lon="9.4890283"><ele>1182.7142857142858</ele><time>2026-04-04T14:32:37.189Z</time></trkpt><trkpt lat="44.6814667" lon="9.4889933"><ele>1183.2857142857142</ele><time>2026-04-04T14:32:38.189Z</time></trkpt><trkpt lat="44.6813983" lon="9.4889667"><ele>1183.8571428571427</ele><time>2026-04-04T14:32:39.189Z</time></trkpt><trkpt lat="44.68133" lon="9.4889683"><ele>1184.4285714285713</ele><time>2026-04-04T14:32:40.188Z</time></trkpt><trkpt lat="44.6812517" lon="9.4890033"><ele>1185.0</ele><time>2026-04-04T14:32:41.188Z</time></trkpt><trkpt lat="44.6811717" lon="9.489035"><ele>1185.0</ele><time>2026-04-04T14:32:42.189Z</time></trkpt><trkpt lat="44.6811" lon="9.4890433"><ele>1185.0</ele><time>2026-04-04T14:32:43.19Z</time></trkpt><trkpt lat="44.68103" lon="9.4890333"><ele>1185.0</ele><time>2026-04-04T14:32:44.189Z</time></trkpt><trkpt lat="44.6809667" lon="9.4889733"><ele>1185.0</ele><time>2026-04-04T14:32:45.189Z</time></trkpt><trkpt lat="44.6809117" lon="9.4888817"><ele>1185.0</ele><time>2026-04-04T14:32:46.188Z</time></trkpt><trkpt lat="44.68087" lon="9.4888033"><ele>1185.0</ele><time>2026-04-04T14:32:47.188Z</time></trkpt><trkpt lat="44.6808017" lon="9.4886967"><ele>1186.6</ele><time>2026-04-04T14:32:49.188Z</time></trkpt><trkpt lat="44.6807367" lon="9.4886583"><ele>1188.2</ele><time>2026-04-04T14:32:51.189Z</time></trkpt><trkpt lat="44.6806483" lon="9.4886333"><ele>1189.8</ele><time>2026-04-04T14:32:53.188Z</time></trkpt><trkpt lat="44.6805467" lon="9.4885733"><ele>1191.4</ele><time>2026-04-04T14:32:55.187Z</time></trkpt><trkpt lat="44.6804883" lon="9.4884667"><ele>1193.0</ele><time>2026-04-04T14:32:57.188Z</time></trkpt><trkpt lat="44.6804883" lon="9.4883333"><ele>1193.0</ele><time>2026-04-04T14:32:59.188Z</time></trkpt><trkpt lat="44.6805267" lon="9.488185"><ele>1193.0</ele><time>2026-04-04T14:33:01.188Z</time></trkpt><trkpt lat="44.680555" lon="9.488105"><ele>1193.0</ele><time>2026-04-04T14:33:02.188Z</time></trkpt><trkpt lat="44.6805817" lon="9.4880217"><ele>1193.0</ele><time>2026-04-04T14:33:03.189Z</time></trkpt><trkpt lat="44.680595" lon="9.4879283"><ele>1193.0</ele><time>2026-04-04T14:33:04.188Z</time></trkpt><trkpt lat="44.6805967" lon="9.48783"><ele>1193.0</ele><time>2026-04-04T14:33:05.189Z</time></trkpt><trkpt lat="44.6805767" lon="9.4877317"><ele>1191.8571428571427</ele><time>2026-04-04T14:33:06.188Z</time></trkpt><trkpt lat="44.6805467" lon="9.4876383"><ele>1190.7142857142858</ele><time>2026-04-04T14:33:07.188Z</time></trkpt><trkpt lat="44.68051" lon="9.4875567"><ele>1189.5714285714284</ele><time>2026-04-04T14:33:08.188Z</time></trkpt><trkpt lat="44.6804717" lon="9.4874783"><ele>1188.4285714285713</ele><time>2026-04-04T14:33:09.187Z</time></trkpt><trkpt lat="44.6804333" lon="9.4873933"><ele>1187.2857142857142</ele><time>2026-04-04T14:33:10.188Z</time></trkpt><trkpt lat="44.680395" lon="9.4873"><ele>1186.142857142857</ele><time>2026-04-04T14:33:11.188Z</time></trkpt><trkpt lat="44.6803433" lon="9.4872017"><ele>1185.0</ele><time>2026-04-04T14:33:12.189Z</time></trkpt><trkpt lat="44.68028" lon="9.4871033"><ele>1181.0</ele><time>2026-04-04T14:33:13.188Z</time></trkpt><trkpt lat="44.6802167" lon="9.4870033"><ele>1177.0</ele><time>2026-04-04T14:33:14.188Z</time></trkpt><trkpt lat="44.6801467" lon="9.4869067"><ele>1173.0</ele><time>2026-04-04T14:33:15.19Z</time></trkpt><trkpt lat="44.68008" lon="9.486805"><ele>1169.0</ele><time>2026-04-04T14:33:16.189Z</time></trkpt><trkpt lat="44.6800167" lon="9.4867017"><ele>1165.0</ele><time>2026-04-04T14:33:17.189Z</time></trkpt><trkpt lat="44.67996" lon="9.4865867"><ele>1165.0</ele><time>2026-04-04T14:33:18.189Z</time></trkpt><trkpt lat="44.6799033" lon="9.4864667"><ele>1165.0</ele><time>2026-04-04T14:33:19.195Z</time></trkpt><trkpt lat="44.679845" lon="9.4863467"><ele>1165.0</ele><time>2026-04-04T14:33:20.188Z</time></trkpt><trkpt lat="44.679785" lon="9.4862217"><ele>1165.0</ele><time>2026-04-04T14:33:21.188Z</time></trkpt><trkpt lat="44.6797283" lon="9.486095"><ele>1165.0</ele><time>2026-04-04T14:33:22.188Z</time></trkpt><trkpt lat="44.67967" lon="9.4859683"><ele>1163.8</ele><time>2026-04-04T14:33:23.189Z</time></trkpt><trkpt lat="44.6796117" lon="9.4858417"><ele>1162.6</ele><time>2026-04-04T14:33:24.188Z</time></trkpt><trkpt lat="44.6795533" lon="9.485715"><ele>1161.4</ele><time>2026-04-04T14:33:25.187Z</time></trkpt><trkpt lat="44.679495" lon="9.4855917"><ele>1160.2</ele><time>2026-04-04T14:33:26.188Z</time></trkpt><trkpt lat="44.679435" lon="9.4854717"><ele>1159.0</ele><time>2026-04-04T14:33:27.188Z</time></trkpt><trkpt lat="44.6793783" lon="9.48535"><ele>1156.2</ele><time>2026-04-04T14:33:28.188Z</time></trkpt><trkpt lat="44.6793233" lon="9.485225"><ele>1153.4</ele><time>2026-04-04T14:33:29.189Z</time></trkpt><trkpt lat="44.6792683" lon="9.4851"><ele>1150.6</ele><time>2026-04-04T14:33:30.188Z</time></trkpt><trkpt lat="44.67921" lon="9.4849767"><ele>1147.8</ele><time>2026-04-04T14:33:31.189Z</time></trkpt><trkpt lat="44.6791467" lon="9.4848633"><ele>1145.0</ele><time>2026-04-04T14:33:32.188Z</time></trkpt><trkpt lat="44.67908" lon="9.4847633"><ele>1145.0</ele><time>2026-04-04T14:33:33.189Z</time></trkpt><trkpt lat="44.6790133" lon="9.4846733"><ele>1145.0</ele><time>2026-04-04T14:33:34.192Z</time></trkpt><trkpt lat="44.6789433" lon="9.4845983"><ele>1145.0</ele><time>2026-04-04T14:33:35.192Z</time></trkpt><trkpt lat="44.67887" lon="9.4845383"><ele>1145.0</ele><time>2026-04-04T14:33:36.191Z</time></trkpt><trkpt lat="44.6787883" lon="9.4844933"><ele>1145.0</ele><time>2026-04-04T14:33:37.188Z</time></trkpt><trkpt lat="44.6787017" lon="9.4844617"><ele>1145.0</ele><time>2026-04-04T14:33:38.189Z</time></trkpt><trkpt lat="44.67861" lon="9.484435"><ele>1143.5</ele><time>2026-04-04T14:33:39.188Z</time></trkpt><trkpt lat="44.6785183" lon="9.4844033"><ele>1142.0</ele><time>2026-04-04T14:33:40.189Z</time></trkpt><trkpt lat="44.678435" lon="9.4843633"><ele>1140.5</ele><time>2026-04-04T14:33:41.188Z</time></trkpt><trkpt lat="44.678355" lon="9.4843117"><ele>1139.0</ele><time>2026-04-04T14:33:42.188Z</time></trkpt><trkpt lat="44.678285" lon="9.4842467"><ele>1137.5</ele><time>2026-04-04T14:33:43.19Z</time></trkpt><trkpt lat="44.6782167" lon="9.48416"><ele>1136.0</ele><time>2026-04-04T14:33:44.189Z</time></trkpt><trkpt lat="44.6781517" lon="9.484055"><ele>1136.0</ele><time>2026-04-04T14:33:45.187Z</time></trkpt><trkpt lat="44.678085" lon="9.4839467"><ele>1136.0</ele><time>2026-04-04T14:33:46.188Z</time></trkpt><trkpt lat="44.6780167" lon="9.48385"><ele>1136.0</ele><time>2026-04-04T14:33:47.19Z</time></trkpt><trkpt lat="44.6779467" lon="9.4837617"><ele>1136.0</ele><time>2026-04-04T14:33:48.188Z</time></trkpt><trkpt lat="44.6778767" lon="9.4836783"><ele>1136.0</ele><time>2026-04-04T14:33:49.189Z</time></trkpt><trkpt lat="44.6778067" lon="9.4836033"><ele>1134.8</ele><time>2026-04-04T14:33:50.188Z</time></trkpt><trkpt lat="44.6777283" lon="9.4835483"><ele>1133.6</ele><time>2026-04-04T14:33:51.188Z</time></trkpt><trkpt lat="44.67764" lon="9.48351"><ele>1132.4</ele><time>2026-04-04T14:33:52.187Z</time></trkpt><trkpt lat="44.6775367" lon="9.4834783"><ele>1131.2</ele><time>2026-04-04T14:33:53.189Z</time></trkpt><trkpt lat="44.6774317" lon="9.4834533"><ele>1130.0</ele><time>2026-04-04T14:33:54.188Z</time></trkpt><trkpt lat="44.6773233" lon="9.4834333"><ele>1130.0</ele><time>2026-04-04T14:33:55.189Z</time></trkpt><trkpt lat="44.67722" lon="9.4834133"><ele>1130.0</ele><time>2026-04-04T14:33:56.191Z</time></trkpt><trkpt lat="44.6771167" lon="9.4833733"><ele>1130.0</ele><time>2026-04-04T14:33:57.191Z</time></trkpt><trkpt lat="44.6770167" lon="9.48333"><ele>1130.0</ele><time>2026-04-04T14:33:58.19Z</time></trkpt><trkpt lat="44.676915" lon="9.4833"><ele>1130.0</ele><time>2026-04-04T14:33:59.188Z</time></trkpt><trkpt lat="44.6768133" lon="9.4832817"><ele>1128.2</ele><time>2026-04-04T14:34:00.189Z</time></trkpt><trkpt lat="44.6767133" lon="9.48327"><ele>1126.4</ele><time>2026-04-04T14:34:01.189Z</time></trkpt><trkpt lat="44.6766067" lon="9.4832583"><ele>1124.6</ele><time>2026-04-04T14:34:02.189Z</time></trkpt><trkpt lat="44.6764983" lon="9.4832383"><ele>1122.8</ele><time>2026-04-04T14:34:03.188Z</time></trkpt><trkpt lat="44.67639" lon="9.4832167"><ele>1121.0</ele><time>2026-04-04T14:34:04.188Z</time></trkpt><trkpt lat="44.6762733" lon="9.48319"><ele>1121.0</ele><time>2026-04-04T14:34:05.188Z</time></trkpt><trkpt lat="44.6761567" lon="9.4831617"><ele>1121.0</ele><time>2026-04-04T14:34:06.19Z</time></trkpt><trkpt lat="44.6760433" lon="9.4831333"><ele>1121.0</ele><time>2026-04-04T14:34:07.19Z</time></trkpt><trkpt lat="44.67593" lon="9.483105"><ele>1121.0</ele><time>2026-04-04T14:34:08.19Z</time></trkpt><trkpt lat="44.67582" lon="9.4830817"><ele>1120.3999999999999</ele><time>2026-04-04T14:34:09.189Z</time></trkpt><trkpt lat="44.6757117" lon="9.4830583"><ele>1119.8</ele><time>2026-04-04T14:34:10.19Z</time></trkpt><trkpt lat="44.675605" lon="9.4830333"><ele>1119.1999999999998</ele><time>2026-04-04T14:34:11.19Z</time></trkpt><trkpt lat="44.6755033" lon="9.4830067"><ele>1118.6</ele><time>2026-04-04T14:34:12.19Z</time></trkpt><trkpt lat="44.6754067" lon="9.48297"><ele>1118.0</ele><time>2026-04-04T14:34:13.191Z</time></trkpt><trkpt lat="44.6753217" lon="9.482915"><ele>1116.3333333333335</ele><time>2026-04-04T14:34:14.189Z</time></trkpt><trkpt lat="44.67524" lon="9.4828567"><ele>1114.6666666666667</ele><time>2026-04-04T14:34:15.188Z</time></trkpt><trkpt lat="44.6751567" lon="9.48281"><ele>1113.0</ele><time>2026-04-04T14:34:16.189Z</time></trkpt><trkpt lat="44.675075" lon="9.48278"><ele>1111.3333333333333</ele><time>2026-04-04T14:34:17.188Z</time></trkpt><trkpt lat="44.675" lon="9.4827667"><ele>1109.6666666666665</ele><time>2026-04-04T14:34:18.188Z</time></trkpt><trkpt lat="44.674935" lon="9.482795"><ele>1108.0</ele><time>2026-04-04T14:34:19.188Z</time></trkpt><trkpt lat="44.6748617" lon="9.4828417"><ele>1108.0</ele><time>2026-04-04T14:34:20.188Z</time></trkpt><trkpt lat="44.6747767" lon="9.482885"><ele>1108.0</ele><time>2026-04-04T14:34:21.188Z</time></trkpt><trkpt lat="44.6746917" lon="9.4829233"><ele>1108.0</ele><time>2026-04-04T14:34:22.188Z</time></trkpt><trkpt lat="44.6746133" lon="9.48295"><ele>1108.0</ele><time>2026-04-04T14:34:23.189Z</time></trkpt><trkpt lat="44.67453" lon="9.48296"><ele>1108.0</ele><time>2026-04-04T14:34:24.188Z</time></trkpt><trkpt lat="44.6744383" lon="9.4829533"><ele>1108.0</ele><time>2026-04-04T14:34:25.191Z</time></trkpt><trkpt lat="44.67434" lon="9.48294"><ele>1106.6</ele><time>2026-04-04T14:34:26.19Z</time></trkpt><trkpt lat="44.6742317" lon="9.482945"><ele>1105.1999999999998</ele><time>2026-04-04T14:34:27.189Z</time></trkpt><trkpt lat="44.6741233" lon="9.4829583"><ele>1103.8</ele><time>2026-04-04T14:34:28.188Z</time></trkpt><trkpt lat="44.6740183" lon="9.4829767"><ele>1102.3999999999999</ele><time>2026-04-04T14:34:29.188Z</time></trkpt><trkpt lat="44.67392" lon="9.4829917"><ele>1101.0</ele><time>2026-04-04T14:34:30.192Z</time></trkpt><trkpt lat="44.6738267" lon="9.4829867"><ele>1101.0</ele><time>2026-04-04T14:34:31.188Z</time></trkpt><trkpt lat="44.67373" lon="9.4829567"><ele>1101.0</ele><time>2026-04-04T14:34:32.188Z</time></trkpt><trkpt lat="44.6736383" lon="9.4829067"><ele>1101.0</ele><time>2026-04-04T14:34:33.188Z</time></trkpt><trkpt lat="44.673545" lon="9.4828617"><ele>1101.0</ele><time>2026-04-04T14:34:34.188Z</time></trkpt><trkpt lat="44.6734617" lon="9.4828183"><ele>1101.0</ele><time>2026-04-04T14:34:35.189Z</time></trkpt><trkpt lat="44.6733883" lon="9.482765"><ele>1097.2</ele><time>2026-04-04T14:34:36.19Z</time></trkpt><trkpt lat="44.6733167" lon="9.4826867"><ele>1093.3999999999999</ele><time>2026-04-04T14:34:37.191Z</time></trkpt><trkpt lat="44.6732417" lon="9.482605"><ele>1089.6</ele><time>2026-04-04T14:34:38.189Z</time></trkpt><trkpt lat="44.6731583" lon="9.48254"><ele>1085.8</ele><time>2026-04-04T14:34:39.188Z</time></trkpt><trkpt lat="44.6730633" lon="9.48251"><ele>1082.0</ele><time>2026-04-04T14:34:40.19Z</time></trkpt><trkpt lat="44.6729567" lon="9.48247"><ele>1082.0</ele><time>2026-04-04T14:34:41.19Z</time></trkpt><trkpt lat="44.6728417" lon="9.4824167"><ele>1082.0</ele><time>2026-04-04T14:34:42.191Z</time></trkpt><trkpt lat="44.6727283" lon="9.48236"><ele>1082.0</ele><time>2026-04-04T14:34:43.19Z</time></trkpt><trkpt lat="44.67263" lon="9.4822983"><ele>1082.0</ele><time>2026-04-04T14:34:44.188Z</time></trkpt><trkpt lat="44.6725417" lon="9.48223"><ele>1080.2</ele><time>2026-04-04T14:34:45.189Z</time></trkpt><trkpt lat="44.6724717" lon="9.48214"><ele>1078.4</ele><time>2026-04-04T14:34:46.189Z</time></trkpt><trkpt lat="44.6724067" lon="9.482025"><ele>1076.6</ele><time>2026-04-04T14:34:47.189Z</time></trkpt><trkpt lat="44.6723433" lon="9.4818967"><ele>1074.8</ele><time>2026-04-04T14:34:48.189Z</time></trkpt><trkpt lat="44.67228" lon="9.4817667"><ele>1073.0</ele><time>2026-04-04T14:34:49.188Z</time></trkpt><trkpt lat="44.6722017" lon="9.481665"><ele>1073.0</ele><time>2026-04-04T14:34:50.19Z</time></trkpt><trkpt lat="44.6721067" lon="9.48157"><ele>1073.0</ele><time>2026-04-04T14:34:51.188Z</time></trkpt><trkpt lat="44.67201" lon="9.4814783"><ele>1073.0</ele><time>2026-04-04T14:34:52.188Z</time></trkpt><trkpt lat="44.671905" lon="9.4813833"><ele>1073.0</ele><time>2026-04-04T14:34:53.188Z</time></trkpt><trkpt lat="44.6718033" lon="9.4812967"><ele>1071.4</ele><time>2026-04-04T14:34:54.189Z</time></trkpt><trkpt lat="44.6717083" lon="9.481195"><ele>1069.8</ele><time>2026-04-04T14:34:55.188Z</time></trkpt><trkpt lat="44.67163" lon="9.4810783"><ele>1068.2</ele><time>2026-04-04T14:34:56.191Z</time></trkpt><trkpt lat="44.671565" lon="9.4809667"><ele>1066.6</ele><time>2026-04-04T14:34:57.189Z</time></trkpt><trkpt lat="44.6715017" lon="9.4808733"><ele>1065.0</ele><time>2026-04-04T14:34:58.189Z</time></trkpt><trkpt lat="44.67143" lon="9.4808067"><ele>1065.0</ele><time>2026-04-04T14:34:59.189Z</time></trkpt><trkpt lat="44.6713467" lon="9.4807683"><ele>1065.0</ele><time>2026-04-04T14:35:00.189Z</time></trkpt><trkpt lat="44.671265" lon="9.4807467"><ele>1065.0</ele><time>2026-04-04T14:35:01.196Z</time></trkpt><trkpt lat="44.6711883" lon="9.4807067"><ele>1065.0</ele><time>2026-04-04T14:35:02.192Z</time></trkpt><trkpt lat="44.67111" lon="9.4806383"><ele>1065.0</ele><time>2026-04-04T14:35:03.189Z</time></trkpt><trkpt lat="44.6710467" lon="9.480545"><ele>1065.0</ele><time>2026-04-04T14:35:04.189Z</time></trkpt><trkpt lat="44.670995" lon="9.4804433"><ele>1062.0</ele><time>2026-04-04T14:35:05.192Z</time></trkpt><trkpt lat="44.6709533" lon="9.4803333"><ele>1059.0</ele><time>2026-04-04T14:35:06.188Z</time></trkpt><trkpt lat="44.6709317" lon="9.4802033"><ele>1056.0</ele><time>2026-04-04T14:35:07.188Z</time></trkpt><trkpt lat="44.67092" lon="9.4800533"><ele>1053.0</ele><time>2026-04-04T14:35:08.189Z</time></trkpt><trkpt lat="44.6708983" lon="9.4799067"><ele>1050.0</ele><time>2026-04-04T14:35:09.193Z</time></trkpt><trkpt lat="44.670875" lon="9.4797667"><ele>1050.0</ele><time>2026-04-04T14:35:10.19Z</time></trkpt><trkpt lat="44.67085" lon="9.4796383"><ele>1050.0</ele><time>2026-04-04T14:35:11.19Z</time></trkpt><trkpt lat="44.6708217" lon="9.4795317"><ele>1050.0</ele><time>2026-04-04T14:35:12.19Z</time></trkpt><trkpt lat="44.6707783" lon="9.47944"><ele>1050.0</ele><time>2026-04-04T14:35:13.19Z</time></trkpt><trkpt lat="44.670725" lon="9.4793733"><ele>1050.0</ele><time>2026-04-04T14:35:14.188Z</time></trkpt><trkpt lat="44.6706567" lon="9.4793367"><ele>1050.0</ele><time>2026-04-04T14:35:15.188Z</time></trkpt><trkpt lat="44.6705867" lon="9.4793"><ele>1048.2</ele><time>2026-04-04T14:35:16.188Z</time></trkpt><trkpt lat="44.67053" lon="9.479255"><ele>1046.4</ele><time>2026-04-04T14:35:17.189Z</time></trkpt><trkpt lat="44.6704733" lon="9.479125"><ele>1044.6</ele><time>2026-04-04T14:35:19.188Z</time></trkpt><trkpt lat="44.670465" lon="9.4789567"><ele>1042.8</ele><time>2026-04-04T14:35:21.189Z</time></trkpt><trkpt lat="44.6704633" lon="9.47885"><ele>1041.0</ele><time>2026-04-04T14:35:22.191Z</time></trkpt><trkpt lat="44.6704617" lon="9.47873"><ele>1039.8333333333333</ele><time>2026-04-04T14:35:23.191Z</time></trkpt><trkpt lat="44.6704583" lon="9.4786017"><ele>1038.6666666666667</ele><time>2026-04-04T14:35:24.189Z</time></trkpt><trkpt lat="44.6704617" lon="9.4784783"><ele>1037.5</ele><time>2026-04-04T14:35:25.188Z</time></trkpt><trkpt lat="44.6704733" lon="9.4783583"><ele>1036.3333333333335</ele><time>2026-04-04T14:35:26.188Z</time></trkpt><trkpt lat="44.670495" lon="9.47824"><ele>1035.1666666666667</ele><time>2026-04-04T14:35:27.188Z</time></trkpt><trkpt lat="44.6705167" lon="9.4781317"><ele>1034.0</ele><time>2026-04-04T14:35:28.19Z</time></trkpt><trkpt lat="44.67054" lon="9.47803"><ele>1034.0</ele><time>2026-04-04T14:35:29.189Z</time></trkpt><trkpt lat="44.6705617" lon="9.4779433"><ele>1034.0</ele><time>2026-04-04T14:35:30.189Z</time></trkpt><trkpt lat="44.6706033" lon="9.4778133"><ele>1034.0</ele><time>2026-04-04T14:35:32.189Z</time></trkpt><trkpt lat="44.67067" lon="9.4776983"><ele>1034.0</ele><time>2026-04-04T14:35:34.189Z</time></trkpt><trkpt lat="44.6707667" lon="9.477615"><ele>1034.0</ele><time>2026-04-04T14:35:36.19Z</time></trkpt><trkpt lat="44.6708717" lon="9.4775567"><ele>1034.0</ele><time>2026-04-04T14:35:38.191Z</time></trkpt><trkpt lat="44.6709533" lon="9.477455"><ele>1034.0</ele><time>2026-04-04T14:35:40.189Z</time></trkpt><trkpt lat="44.6710233" lon="9.4773183"><ele>1034.0</ele><time>2026-04-04T14:35:42.188Z</time></trkpt><trkpt lat="44.6710983" lon="9.4771967"><ele>1034.0</ele><time>2026-04-04T14:35:44.188Z</time></trkpt><trkpt lat="44.6711683" lon="9.4771117"><ele>1034.0</ele><time>2026-04-04T14:35:46.189Z</time></trkpt><trkpt lat="44.6712067" lon="9.477025"><ele>1034.0</ele><time>2026-04-04T14:35:48.19Z</time></trkpt><trkpt lat="44.6711783" lon="9.4769317"><ele>1034.0</ele><time>2026-04-04T14:35:51.19Z</time></trkpt><trkpt lat="44.6711167" lon="9.4769"><ele>1034.0</ele><time>2026-04-04T14:35:53.188Z</time></trkpt><trkpt lat="44.6710283" lon="9.4768467"><ele>1034.0</ele><time>2026-04-04T14:35:55.189Z</time></trkpt><trkpt lat="44.67096" lon="9.4767683"><ele>1034.0</ele><time>2026-04-04T14:35:57.188Z</time></trkpt><trkpt lat="44.6709133" lon="9.4766367"><ele>1034.0</ele><time>2026-04-04T14:35:59.188Z</time></trkpt><trkpt lat="44.6708883" lon="9.4764683"><ele>1032.5</ele><time>2026-04-04T14:36:01.19Z</time></trkpt><trkpt lat="44.6708783" lon="9.4763767"><ele>1031.0</ele><time>2026-04-04T14:36:02.188Z</time></trkpt><trkpt lat="44.6708667" lon="9.476285"><ele>1029.5</ele><time>2026-04-04T14:36:03.189Z</time></trkpt><trkpt lat="44.67086" lon="9.4761917"><ele>1028.0</ele><time>2026-04-04T14:36:04.188Z</time></trkpt><trkpt lat="44.67089" lon="9.4760267"><ele>1026.5</ele><time>2026-04-04T14:36:06.189Z</time></trkpt><trkpt lat="44.6709533" lon="9.47587"><ele>1025.0</ele><time>2026-04-04T14:36:08.188Z</time></trkpt><trkpt lat="44.6709933" lon="9.475785"><ele>1025.4285714285713</ele><time>2026-04-04T14:36:09.189Z</time></trkpt><trkpt lat="44.6710367" lon="9.4757017"><ele>1025.857142857143</ele><time>2026-04-04T14:36:10.188Z</time></trkpt><trkpt lat="44.671075" lon="9.4756133"><ele>1026.2857142857142</ele><time>2026-04-04T14:36:11.189Z</time></trkpt><trkpt lat="44.6711183" lon="9.4755283"><ele>1026.7142857142858</ele><time>2026-04-04T14:36:12.188Z</time></trkpt><trkpt lat="44.6711617" lon="9.4754483"><ele>1027.142857142857</ele><time>2026-04-04T14:36:13.19Z</time></trkpt><trkpt lat="44.6712067" lon="9.4753717"><ele>1027.5714285714284</ele><time>2026-04-04T14:36:14.189Z</time></trkpt><trkpt lat="44.67125" lon="9.4752983"><ele>1028.0</ele><time>2026-04-04T14:36:15.189Z</time></trkpt><trkpt lat="44.6712967" lon="9.475235"><ele>1025.4</ele><time>2026-04-04T14:36:16.188Z</time></trkpt><trkpt lat="44.67141" lon="9.4751483"><ele>1022.8</ele><time>2026-04-04T14:36:18.189Z</time></trkpt><trkpt lat="44.6714917" lon="9.4750983"><ele>1020.2</ele><time>2026-04-04T14:36:19.189Z</time></trkpt><trkpt lat="44.6715817" lon="9.4750317"><ele>1017.6</ele><time>2026-04-04T14:36:20.189Z</time></trkpt><trkpt lat="44.6716717" lon="9.47496"><ele>1015.0</ele><time>2026-04-04T14:36:21.189Z</time></trkpt><trkpt lat="44.6717583" lon="9.4748867"><ele>1016.0</ele><time>2026-04-04T14:36:22.19Z</time></trkpt><trkpt lat="44.6720083" lon="9.4747183"><ele>1017.0</ele><time>2026-04-04T14:36:25.189Z</time></trkpt><trkpt lat="44.6720883" lon="9.474685"><ele>1018.0</ele><time>2026-04-04T14:36:26.188Z</time></trkpt><trkpt lat="44.6721667" lon="9.4746583"><ele>1019.0</ele><time>2026-04-04T14:36:27.188Z</time></trkpt><trkpt lat="44.6722433" lon="9.4746333"><ele>1019.0000000000001</ele><time>2026-04-04T14:36:28.188Z</time></trkpt><trkpt lat="44.67232" lon="9.4746167"><ele>1019.0</ele><time>2026-04-04T14:36:29.189Z</time></trkpt><trkpt lat="44.672395" lon="9.474595"><ele>1019.0</ele><time>2026-04-04T14:36:30.189Z</time></trkpt><trkpt lat="44.6724683" lon="9.4745733"><ele>1019.0</ele><time>2026-04-04T14:36:31.188Z</time></trkpt><trkpt lat="44.672535" lon="9.4745533"><ele>1019.0000000000001</ele><time>2026-04-04T14:36:32.189Z</time></trkpt><trkpt lat="44.6726533" lon="9.4745367"><ele>1019.0</ele><time>2026-04-04T14:36:34.188Z</time></trkpt><trkpt lat="44.67275" lon="9.474515"><ele>1018.6666666666667</ele><time>2026-04-04T14:36:36.189Z</time></trkpt><trkpt lat="44.6728317" lon="9.4744183"><ele>1018.3333333333334</ele><time>2026-04-04T14:36:38.19Z</time></trkpt><trkpt lat="44.67286" lon="9.47433"><ele>1018.0</ele><time>2026-04-04T14:36:39.19Z</time></trkpt><trkpt lat="44.67289" lon="9.4742267"><ele>1017.6666666666667</ele><time>2026-04-04T14:36:40.19Z</time></trkpt><trkpt lat="44.672925" lon="9.474115"><ele>1017.3333333333334</ele><time>2026-04-04T14:36:41.19Z</time></trkpt><trkpt lat="44.67296" lon="9.47401"><ele>1017.0</ele><time>2026-04-04T14:36:42.191Z</time></trkpt><trkpt lat="44.67299" lon="9.4739267"><ele>1017.0</ele><time>2026-04-04T14:36:43.19Z</time></trkpt><trkpt lat="44.6730467" lon="9.47384"><ele>1017.0</ele><time>2026-04-04T14:36:45.188Z</time></trkpt><trkpt lat="44.6731217" lon="9.4738333"><ele>1017.0</ele><time>2026-04-04T14:36:47.189Z</time></trkpt><trkpt lat="44.67321" lon="9.4738833"><ele>1017.0</ele><time>2026-04-04T14:36:49.188Z</time></trkpt><trkpt lat="44.6732917" lon="9.4739867"><ele>1017.0</ele><time>2026-04-04T14:36:51.189Z</time></trkpt><trkpt lat="44.673375" lon="9.4741183"><ele>1017.0</ele><time>2026-04-04T14:36:53.188Z</time></trkpt><trkpt lat="44.6734167" lon="9.4741883"><ele>1017.0</ele><time>2026-04-04T14:36:54.189Z</time></trkpt><trkpt lat="44.6734933" lon="9.4743133"><ele>1017.0</ele><time>2026-04-04T14:36:56.189Z</time></trkpt><trkpt lat="44.6735533" lon="9.4744067"><ele>1017.0</ele><time>2026-04-04T14:36:58.187Z</time></trkpt><trkpt lat="44.6736067" lon="9.4745183"><ele>1017.0</ele><time>2026-04-04T14:37:00.189Z</time></trkpt><trkpt lat="44.6737" lon="9.4746217"><ele>1019.8333333333334</ele><time>2026-04-04T14:37:02.188Z</time></trkpt><trkpt lat="44.6737617" lon="9.4746717"><ele>1022.6666666666667</ele><time>2026-04-04T14:37:03.189Z</time></trkpt><trkpt lat="44.6738233" lon="9.4747167"><ele>1025.5</ele><time>2026-04-04T14:37:04.189Z</time></trkpt><trkpt lat="44.673905" lon="9.4747683"><ele>1028.3333333333335</ele><time>2026-04-04T14:37:06.188Z</time></trkpt><trkpt lat="44.67397" lon="9.4747883"><ele>1031.1666666666667</ele><time>2026-04-04T14:37:08.19Z</time></trkpt><trkpt lat="44.6740633" lon="9.4748317"><ele>1034.0</ele><time>2026-04-04T14:37:10.19Z</time></trkpt><trkpt lat="44.6741917" lon="9.4748767"><ele>1034.0</ele><time>2026-04-04T14:37:12.19Z</time></trkpt><trkpt lat="44.674265" lon="9.4749"><ele>1034.0</ele><time>2026-04-04T14:37:13.188Z</time></trkpt><trkpt lat="44.6743667" lon="9.47497"><ele>1034.0</ele><time>2026-04-04T14:37:15.188Z</time></trkpt><trkpt lat="44.6744417" lon="9.4750617"><ele>1034.0</ele><time>2026-04-04T14:37:17.188Z</time></trkpt><trkpt lat="44.6745317" lon="9.475185"><ele>1034.0</ele><time>2026-04-04T14:37:19.189Z</time></trkpt><trkpt lat="44.6745767" lon="9.4752567"><ele>1033.0</ele><time>2026-04-04T14:37:20.188Z</time></trkpt><trkpt lat="44.6746167" lon="9.4753267"><ele>1032.0</ele><time>2026-04-04T14:37:21.189Z</time></trkpt><trkpt lat="44.6746733" lon="9.4754583"><ele>1031.0</ele><time>2026-04-04T14:37:23.189Z</time></trkpt><trkpt lat="44.67474" lon="9.4755767"><ele>1030.0</ele><time>2026-04-04T14:37:25.19Z</time></trkpt><trkpt lat="44.674785" lon="9.475725"><ele>1029.0</ele><time>2026-04-04T14:37:27.189Z</time></trkpt><trkpt lat="44.6748133" lon="9.4758183"><ele>1030.8333333333333</ele><time>2026-04-04T14:37:28.188Z</time></trkpt><trkpt lat="44.67484" lon="9.475905"><ele>1032.6666666666667</ele><time>2026-04-04T14:37:29.19Z</time></trkpt><trkpt lat="44.6748817" lon="9.4760417"><ele>1034.5</ele><time>2026-04-04T14:37:31.191Z</time></trkpt><trkpt lat="44.6749033" lon="9.4761567"><ele>1036.3333333333335</ele><time>2026-04-04T14:37:33.19Z</time></trkpt><trkpt lat="44.6749483" lon="9.47625"><ele>1038.1666666666667</ele><time>2026-04-04T14:37:36.19Z</time></trkpt><trkpt lat="44.6750167" lon="9.47628"><ele>1040.0</ele><time>2026-04-04T14:37:38.189Z</time></trkpt><trkpt lat="44.6751233" lon="9.4763133"><ele>1046.0</ele><time>2026-04-04T14:37:40.188Z</time></trkpt><trkpt lat="44.67521" lon="9.4763183"><ele>1046.0</ele><time>2026-04-04T14:37:42.189Z</time></trkpt><trkpt lat="44.6752783" lon="9.476335"><ele>1049.0</ele><time>2026-04-04T14:38:20.191Z</time></trkpt></trkseg><trkseg><trkpt lat="44.6754217" lon="9.4764083"><ele>1049.0</ele><time>2026-04-04T14:55:51.19Z</time></trkpt><trkpt lat="44.6753567" lon="9.4763617"><ele>1049.0</ele><time>2026-04-04T14:55:57.19Z</time></trkpt><trkpt lat="44.6752767" lon="9.4763817"><ele>1049.0</ele><time>2026-04-04T14:56:00.19Z</time></trkpt><trkpt lat="44.6753317" lon="9.47631"><ele>1049.0</ele><time>2026-04-04T14:56:09.191Z</time></trkpt><trkpt lat="44.6754517" lon="9.47628"><ele>1049.0</ele><time>2026-04-04T14:56:11.19Z</time></trkpt><trkpt lat="44.6755267" lon="9.4762517"><ele>1049.0</ele><time>2026-04-04T14:56:12.191Z</time></trkpt><trkpt lat="44.6756017" lon="9.47622"><ele>1047.5</ele><time>2026-04-04T14:56:13.194Z</time></trkpt><trkpt lat="44.6756817" lon="9.4761867"><ele>1046.0</ele><time>2026-04-04T14:56:14.189Z</time></trkpt><trkpt lat="44.6757583" lon="9.4761567"><ele>1044.5</ele><time>2026-04-04T14:56:15.192Z</time></trkpt><trkpt lat="44.675825" lon="9.476135"><ele>1043.0</ele><time>2026-04-04T14:56:16.189Z</time></trkpt><trkpt lat="44.67594" lon="9.4761117"><ele>1041.5</ele><time>2026-04-04T14:56:18.188Z</time></trkpt><trkpt lat="44.6760333" lon="9.4761017"><ele>1040.0</ele><time>2026-04-04T14:56:20.189Z</time></trkpt><trkpt lat="44.6761167" lon="9.4760917"><ele>1040.0</ele><time>2026-04-04T14:56:30.189Z</time></trkpt><trkpt lat="44.6762333" lon="9.4760383"><ele>1040.0</ele><time>2026-04-04T14:56:32.189Z</time></trkpt><trkpt lat="44.6763383" lon="9.4759833"><ele>1040.0</ele><time>2026-04-04T14:56:34.19Z</time></trkpt><trkpt lat="44.67642" lon="9.4759617"><ele>1040.0</ele><time>2026-04-04T14:56:36.188Z</time></trkpt><trkpt lat="44.67649" lon="9.4759833"><ele>1040.0</ele><time>2026-04-04T14:56:38.191Z</time></trkpt><trkpt lat="44.6765533" lon="9.47604"><ele>1040.0</ele><time>2026-04-04T14:56:40.19Z</time></trkpt><trkpt lat="44.676615" lon="9.4761183"><ele>1040.0</ele><time>2026-04-04T14:56:42.189Z</time></trkpt><trkpt lat="44.6766883" lon="9.4762183"><ele>1040.0</ele><time>2026-04-04T14:56:44.19Z</time></trkpt><trkpt lat="44.6767433" lon="9.4763"><ele>1040.0</ele><time>2026-04-04T14:56:46.189Z</time></trkpt><trkpt lat="44.6768183" lon="9.4763283"><ele>1040.0</ele><time>2026-04-04T14:56:48.188Z</time></trkpt><trkpt lat="44.6769033" lon="9.476315"><ele>1040.0</ele><time>2026-04-04T14:56:50.189Z</time></trkpt><trkpt lat="44.6770133" lon="9.4762667"><ele>1040.1666666666667</ele><time>2026-04-04T14:56:52.191Z</time></trkpt><trkpt lat="44.677075" lon="9.4762267"><ele>1040.3333333333335</ele><time>2026-04-04T14:56:53.19Z</time></trkpt><trkpt lat="44.67718" lon="9.4761467"><ele>1040.5</ele><time>2026-04-04T14:56:55.188Z</time></trkpt><trkpt lat="44.6772667" lon="9.47603"><ele>1040.6666666666667</ele><time>2026-04-04T14:56:57.189Z</time></trkpt><trkpt lat="44.677305" lon="9.4759583"><ele>1040.8333333333333</ele><time>2026-04-04T14:56:58.189Z</time></trkpt><trkpt lat="44.6773417" lon="9.475885"><ele>1041.0</ele><time>2026-04-04T14:56:59.192Z</time></trkpt><trkpt lat="44.67738" lon="9.4758"><ele>1041.0</ele><time>2026-04-04T14:57:00.19Z</time></trkpt><trkpt lat="44.6774133" lon="9.4757217"><ele>1041.0</ele><time>2026-04-04T14:57:01.189Z</time></trkpt><trkpt lat="44.6774467" lon="9.4756417"><ele>1041.0</ele><time>2026-04-04T14:57:02.191Z</time></trkpt><trkpt lat="44.677515" lon="9.475485"><ele>1041.0</ele><time>2026-04-04T14:57:04.189Z</time></trkpt><trkpt lat="44.677555" lon="9.4754017"><ele>1041.0</ele><time>2026-04-04T14:57:05.189Z</time></trkpt><trkpt lat="44.6775933" lon="9.4753183"><ele>1041.0</ele><time>2026-04-04T14:57:06.188Z</time></trkpt><trkpt lat="44.6776317" lon="9.47523"><ele>1040.3333333333333</ele><time>2026-04-04T14:57:07.189Z</time></trkpt><trkpt lat="44.6776717" lon="9.4751433"><ele>1039.6666666666667</ele><time>2026-04-04T14:57:08.189Z</time></trkpt><trkpt lat="44.67771" lon="9.47505"><ele>1039.0</ele><time>2026-04-04T14:57:09.189Z</time></trkpt><trkpt lat="44.6777417" lon="9.4749583"><ele>1038.3333333333335</ele><time>2026-04-04T14:57:10.188Z</time></trkpt><trkpt lat="44.677765" lon="9.4748717"><ele>1037.6666666666667</ele><time>2026-04-04T14:57:11.19Z</time></trkpt><trkpt lat="44.6778017" lon="9.47472"><ele>1037.0</ele><time>2026-04-04T14:57:13.191Z</time></trkpt><trkpt lat="44.6778467" lon="9.474605"><ele>1037.5</ele><time>2026-04-04T14:57:15.191Z</time></trkpt><trkpt lat="44.6779083" lon="9.474535"><ele>1038.0</ele><time>2026-04-04T14:57:17.188Z</time></trkpt><trkpt lat="44.6780083" lon="9.47446"><ele>1038.5</ele><time>2026-04-04T14:57:19.189Z</time></trkpt><trkpt lat="44.67806" lon="9.474405"><ele>1039.0</ele><time>2026-04-04T14:57:20.189Z</time></trkpt><trkpt lat="44.67811" lon="9.4743367"><ele>1039.5</ele><time>2026-04-04T14:57:21.188Z</time></trkpt><trkpt lat="44.6781617" lon="9.4742583"><ele>1040.0</ele><time>2026-04-04T14:57:22.189Z</time></trkpt><trkpt lat="44.6782133" lon="9.4741833"><ele>1040.0</ele><time>2026-04-04T14:57:23.188Z</time></trkpt><trkpt lat="44.6782667" lon="9.474115"><ele>1040.0</ele><time>2026-04-04T14:57:24.188Z</time></trkpt><trkpt lat="44.6783183" lon="9.4740583"><ele>1040.0</ele><time>2026-04-04T14:57:25.188Z</time></trkpt><trkpt lat="44.6784117" lon="9.4739667"><ele>1040.0</ele><time>2026-04-04T14:57:27.189Z</time></trkpt><trkpt lat="44.6784817" lon="9.4738783"><ele>1040.0</ele><time>2026-04-04T14:57:29.19Z</time></trkpt><trkpt lat="44.67851" lon="9.4737617"><ele>1040.0</ele><time>2026-04-04T14:57:31.191Z</time></trkpt><trkpt lat="44.6784933" lon="9.4736233"><ele>1038.8</ele><time>2026-04-04T14:57:33.191Z</time></trkpt><trkpt lat="44.6784467" lon="9.4734433"><ele>1037.6</ele><time>2026-04-04T14:57:35.191Z</time></trkpt><trkpt lat="44.67842" lon="9.4733417"><ele>1036.4</ele><time>2026-04-04T14:57:36.191Z</time></trkpt><trkpt lat="44.6783933" lon="9.4732533"><ele>1035.2</ele><time>2026-04-04T14:57:37.194Z</time></trkpt><trkpt lat="44.678325" lon="9.473125"><ele>1034.0</ele><time>2026-04-04T14:57:39.188Z</time></trkpt><trkpt lat="44.6782717" lon="9.4730633"><ele>1034.0</ele><time>2026-04-04T14:57:40.188Z</time></trkpt><trkpt lat="44.6782167" lon="9.4730033"><ele>1034.0</ele><time>2026-04-04T14:57:41.189Z</time></trkpt><trkpt lat="44.6781333" lon="9.47291"><ele>1034.0</ele><time>2026-04-04T14:57:43.188Z</time></trkpt><trkpt lat="44.6781" lon="9.4727967"><ele>1034.0</ele><time>2026-04-04T14:57:45.19Z</time></trkpt><trkpt lat="44.6780967" lon="9.47263"><ele>1034.0</ele><time>2026-04-04T14:57:47.19Z</time></trkpt><trkpt lat="44.6781" lon="9.47254"><ele>1034.0</ele><time>2026-04-04T14:57:48.188Z</time></trkpt><trkpt lat="44.6780867" lon="9.472375"><ele>1035.5</ele><time>2026-04-04T14:57:50.19Z</time></trkpt><trkpt lat="44.6780733" lon="9.4722183"><ele>1037.0</ele><time>2026-04-04T14:57:52.189Z</time></trkpt><trkpt lat="44.67809" lon="9.4720617"><ele>1038.5</ele><time>2026-04-04T14:57:54.193Z</time></trkpt><trkpt lat="44.6781367" lon="9.4719067"><ele>1040.0</ele><time>2026-04-04T14:57:56.189Z</time></trkpt><trkpt lat="44.678205" lon="9.47178"><ele>1040.0</ele><time>2026-04-04T14:57:58.189Z</time></trkpt><trkpt lat="44.678285" lon="9.471675"><ele>1040.0</ele><time>2026-04-04T14:58:00.189Z</time></trkpt><trkpt lat="44.67837" lon="9.4715567"><ele>1040.0</ele><time>2026-04-04T14:58:02.189Z</time></trkpt><trkpt lat="44.6784467" lon="9.4714383"><ele>1040.0</ele><time>2026-04-04T14:58:04.189Z</time></trkpt><trkpt lat="44.67851" lon="9.4713267"><ele>1040.0</ele><time>2026-04-04T14:58:06.19Z</time></trkpt><trkpt lat="44.67859" lon="9.4712217"><ele>1042.0</ele><time>2026-04-04T14:58:08.189Z</time></trkpt><trkpt lat="44.6786783" lon="9.4711117"><ele>1044.0</ele><time>2026-04-04T14:58:10.189Z</time></trkpt><trkpt lat="44.67876" lon="9.4710217"><ele>1046.0</ele><time>2026-04-04T14:58:12.19Z</time></trkpt><trkpt lat="44.6788433" lon="9.470945"><ele>1048.0</ele><time>2026-04-04T14:58:14.19Z</time></trkpt><trkpt lat="44.67893" lon="9.4708667"><ele>1050.0</ele><time>2026-04-04T14:58:16.189Z</time></trkpt><trkpt lat="44.6790217" lon="9.470785"><ele>1050.0</ele><time>2026-04-04T14:58:18.19Z</time></trkpt><trkpt lat="44.6791133" lon="9.47072"><ele>1050.0</ele><time>2026-04-04T14:58:20.189Z</time></trkpt><trkpt lat="44.6792133" lon="9.4706633"><ele>1050.0</ele><time>2026-04-04T14:58:22.188Z</time></trkpt><trkpt lat="44.6793267" lon="9.47062"><ele>1050.0</ele><time>2026-04-04T14:58:24.191Z</time></trkpt><trkpt lat="44.679435" lon="9.4705817"><ele>1050.0</ele><time>2026-04-04T14:58:26.19Z</time></trkpt><trkpt lat="44.6795417" lon="9.470535"><ele>1050.0</ele><time>2026-04-04T14:58:28.189Z</time></trkpt><trkpt lat="44.6796417" lon="9.470485"><ele>1050.0</ele><time>2026-04-04T14:58:30.189Z</time></trkpt><trkpt lat="44.6797467" lon="9.47045"><ele>1050.0</ele><time>2026-04-04T14:58:32.19Z</time></trkpt><trkpt lat="44.6798517" lon="9.4704567"><ele>1050.0</ele><time>2026-04-04T14:58:34.192Z</time></trkpt><trkpt lat="44.6799483" lon="9.4704617"><ele>1050.0</ele><time>2026-04-04T14:58:36.188Z</time></trkpt><trkpt lat="44.6800267" lon="9.4703867"><ele>1050.0</ele><time>2026-04-04T14:58:38.192Z</time></trkpt><trkpt lat="44.6800933" lon="9.4702467"><ele>1050.0</ele><time>2026-04-04T14:58:40.19Z</time></trkpt><trkpt lat="44.680125" lon="9.4701683"><ele>1050.0</ele><time>2026-04-04T14:58:41.191Z</time></trkpt><trkpt lat="44.6801883" lon="9.4700367"><ele>1050.0</ele><time>2026-04-04T14:58:43.188Z</time></trkpt><trkpt lat="44.6802517" lon="9.469935"><ele>1050.0</ele><time>2026-04-04T14:58:45.188Z</time></trkpt><trkpt lat="44.6803217" lon="9.46986"><ele>1050.3333333333333</ele><time>2026-04-04T14:58:47.189Z</time></trkpt><trkpt lat="44.680405" lon="9.4697883"><ele>1050.6666666666667</ele><time>2026-04-04T14:58:49.19Z</time></trkpt><trkpt lat="44.6804883" lon="9.4697333"><ele>1051.0</ele><time>2026-04-04T14:58:51.19Z</time></trkpt><trkpt lat="44.6805483" lon="9.469685"><ele>1051.3333333333335</ele><time>2026-04-04T14:58:53.189Z</time></trkpt><trkpt lat="44.6806" lon="9.469625"><ele>1051.6666666666667</ele><time>2026-04-04T14:58:55.188Z</time></trkpt><trkpt lat="44.68064" lon="9.4695233"><ele>1052.0</ele><time>2026-04-04T14:58:57.188Z</time></trkpt><trkpt lat="44.6806817" lon="9.4694117"><ele>1052.0</ele><time>2026-04-04T14:58:59.188Z</time></trkpt><trkpt lat="44.6807467" lon="9.4693117"><ele>1052.0</ele><time>2026-04-04T14:59:01.188Z</time></trkpt><trkpt lat="44.6808167" lon="9.469235"><ele>1052.0</ele><time>2026-04-04T14:59:03.188Z</time></trkpt><trkpt lat="44.680875" lon="9.46916"><ele>1052.0</ele><time>2026-04-04T14:59:05.189Z</time></trkpt><trkpt lat="44.68094" lon="9.4691033"><ele>1052.0</ele><time>2026-04-04T14:59:07.189Z</time></trkpt><trkpt lat="44.681005" lon="9.4690783"><ele>1052.0</ele><time>2026-04-04T14:59:09.188Z</time></trkpt><trkpt lat="44.68092" lon="9.4691"><ele>1052.0</ele><time>2026-04-04T15:03:46.188Z</time></trkpt><trkpt lat="44.6808483" lon="9.4691783"><ele>1052.0</ele><time>2026-04-04T15:03:50.191Z</time></trkpt><trkpt lat="44.680795" lon="9.4692367"><ele>1052.0</ele><time>2026-04-04T15:03:52.192Z</time></trkpt><trkpt lat="44.6807367" lon="9.4692933"><ele>1052.0</ele><time>2026-04-04T15:03:54.19Z</time></trkpt><trkpt lat="44.68069" lon="9.4693767"><ele>1052.0</ele><time>2026-04-04T15:04:25.19Z</time></trkpt><trkpt lat="44.68064" lon="9.46949"><ele>1052.0</ele><time>2026-04-04T15:04:27.191Z</time></trkpt><trkpt lat="44.6805617" lon="9.4696033"><ele>1051.6666666666667</ele><time>2026-04-04T15:04:29.191Z</time></trkpt><trkpt lat="44.680485" lon="9.4696983"><ele>1051.3333333333335</ele><time>2026-04-04T15:04:31.188Z</time></trkpt><trkpt lat="44.6803817" lon="9.4697717"><ele>1051.0</ele><time>2026-04-04T15:04:33.189Z</time></trkpt><trkpt lat="44.6803283" lon="9.4698217"><ele>1050.6666666666667</ele><time>2026-04-04T15:04:34.19Z</time></trkpt><trkpt lat="44.680275" lon="9.4698833"><ele>1050.3333333333333</ele><time>2026-04-04T15:04:35.19Z</time></trkpt><trkpt lat="44.6802233" lon="9.469955"><ele>1050.0</ele><time>2026-04-04T15:04:36.191Z</time></trkpt><trkpt lat="44.6801767" lon="9.4700283"><ele>1050.0</ele><time>2026-04-04T15:04:37.193Z</time></trkpt><trkpt lat="44.6801367" lon="9.470105"><ele>1050.0</ele><time>2026-04-04T15:04:38.19Z</time></trkpt><trkpt lat="44.680065" lon="9.4702433"><ele>1050.0</ele><time>2026-04-04T15:04:40.189Z</time></trkpt><trkpt lat="44.6800083" lon="9.470355"><ele>1050.0</ele><time>2026-04-04T15:04:42.189Z</time></trkpt><trkpt lat="44.67996" lon="9.47043"><ele>1050.0</ele><time>2026-04-04T15:04:44.19Z</time></trkpt><trkpt lat="44.679885" lon="9.470445"><ele>1050.0</ele><time>2026-04-04T15:04:46.188Z</time></trkpt><trkpt lat="44.679765" lon="9.4704333"><ele>1050.0</ele><time>2026-04-04T15:04:48.188Z</time></trkpt><trkpt lat="44.679645" lon="9.4704633"><ele>1050.0</ele><time>2026-04-04T15:04:50.189Z</time></trkpt><trkpt lat="44.679565" lon="9.4704983"><ele>1050.0</ele><time>2026-04-04T15:04:51.189Z</time></trkpt><trkpt lat="44.679475" lon="9.4705367"><ele>1050.0</ele><time>2026-04-04T15:04:52.191Z</time></trkpt><trkpt lat="44.67939" lon="9.4705733"><ele>1050.0</ele><time>2026-04-04T15:04:53.193Z</time></trkpt><trkpt lat="44.679315" lon="9.4706017"><ele>1050.0</ele><time>2026-04-04T15:04:54.191Z</time></trkpt><trkpt lat="44.67924" lon="9.4706317"><ele>1050.0</ele><time>2026-04-04T15:04:55.19Z</time></trkpt><trkpt lat="44.6791617" lon="9.4706717"><ele>1050.0</ele><time>2026-04-04T15:04:56.191Z</time></trkpt><trkpt lat="44.6790817" lon="9.470725"><ele>1050.0</ele><time>2026-04-04T15:04:57.19Z</time></trkpt><trkpt lat="44.6789933" lon="9.470795"><ele>1050.0</ele><time>2026-04-04T15:04:58.191Z</time></trkpt><trkpt lat="44.6789017" lon="9.4708767"><ele>1050.0</ele><time>2026-04-04T15:04:59.189Z</time></trkpt><trkpt lat="44.6788167" lon="9.470955"><ele>1050.0</ele><time>2026-04-04T15:05:00.19Z</time></trkpt><trkpt lat="44.6787417" lon="9.47103"><ele>1050.0</ele><time>2026-04-04T15:05:01.189Z</time></trkpt><trkpt lat="44.6786767" lon="9.4711"><ele>1050.0</ele><time>2026-04-04T15:05:02.19Z</time></trkpt><trkpt lat="44.6786183" lon="9.4711633"><ele>1050.0</ele><time>2026-04-04T15:05:03.189Z</time></trkpt><trkpt lat="44.6785667" lon="9.4712267"><ele>1050.0</ele><time>2026-04-04T15:05:04.19Z</time></trkpt><trkpt lat="44.678485" lon="9.4713367"><ele>1048.0</ele><time>2026-04-04T15:05:06.19Z</time></trkpt><trkpt lat="44.67842" lon="9.471445"><ele>1046.0</ele><time>2026-04-04T15:05:08.19Z</time></trkpt><trkpt lat="44.6783383" lon="9.471565"><ele>1044.0</ele><time>2026-04-04T15:05:10.189Z</time></trkpt><trkpt lat="44.6782667" lon="9.471665"><ele>1042.0</ele><time>2026-04-04T15:05:12.188Z</time></trkpt><trkpt lat="44.6782033" lon="9.471755"><ele>1040.0</ele><time>2026-04-04T15:05:14.189Z</time></trkpt><trkpt lat="44.6781467" lon="9.4718483"><ele>1040.0</ele><time>2026-04-04T15:05:16.189Z</time></trkpt><trkpt lat="44.6781033" lon="9.4719833"><ele>1040.0</ele><time>2026-04-04T15:05:18.192Z</time></trkpt><trkpt lat="44.6780817" lon="9.4721467"><ele>1040.0</ele><time>2026-04-04T15:05:20.191Z</time></trkpt><trkpt lat="44.67808" lon="9.4722883"><ele>1040.0</ele><time>2026-04-04T15:05:22.19Z</time></trkpt><trkpt lat="44.6781017" lon="9.4724217"><ele>1040.0</ele><time>2026-04-04T15:05:24.19Z</time></trkpt><trkpt lat="44.6781017" lon="9.472575"><ele>1040.2</ele><time>2026-04-04T15:05:26.188Z</time></trkpt><trkpt lat="44.6781" lon="9.4727383"><ele>1040.4</ele><time>2026-04-04T15:05:28.19Z</time></trkpt><trkpt lat="44.6781367" lon="9.4728683"><ele>1040.6</ele><time>2026-04-04T15:05:30.19Z</time></trkpt><trkpt lat="44.678215" lon="9.4729733"><ele>1040.8</ele><time>2026-04-04T15:05:32.188Z</time></trkpt><trkpt lat="44.6783133" lon="9.4730833"><ele>1041.0</ele><time>2026-04-04T15:05:34.188Z</time></trkpt><trkpt lat="44.6783567" lon="9.47315"><ele>1040.8333333333333</ele><time>2026-04-04T15:05:35.188Z</time></trkpt><trkpt lat="44.6783917" lon="9.4732383"><ele>1040.6666666666667</ele><time>2026-04-04T15:05:36.188Z</time></trkpt><trkpt lat="44.67842" lon="9.4733417"><ele>1040.5</ele><time>2026-04-04T15:05:37.19Z</time></trkpt><trkpt lat="44.678445" lon="9.4734433"><ele>1040.3333333333335</ele><time>2026-04-04T15:05:38.19Z</time></trkpt><trkpt lat="44.67847" lon="9.4735367"><ele>1040.1666666666667</ele><time>2026-04-04T15:05:39.19Z</time></trkpt><trkpt lat="44.6785067" lon="9.4736967"><ele>1040.0</ele><time>2026-04-04T15:05:41.189Z</time></trkpt><trkpt lat="44.6785033" lon="9.473815"><ele>1040.0</ele><time>2026-04-04T15:05:43.189Z</time></trkpt><trkpt lat="44.6784417" lon="9.473905"><ele>1040.0</ele><time>2026-04-04T15:05:45.193Z</time></trkpt><trkpt lat="44.6783367" lon="9.4740033"><ele>1040.0</ele><time>2026-04-04T15:05:47.193Z</time></trkpt><trkpt lat="44.678275" lon="9.4740717"><ele>1040.0</ele><time>2026-04-04T15:05:48.191Z</time></trkpt><trkpt lat="44.678215" lon="9.47415"><ele>1040.0</ele><time>2026-04-04T15:05:49.19Z</time></trkpt><trkpt lat="44.6781583" lon="9.4742317"><ele>1040.0</ele><time>2026-04-04T15:05:50.192Z</time></trkpt><trkpt lat="44.6780983" lon="9.47431"><ele>1040.0</ele><time>2026-04-04T15:05:51.19Z</time></trkpt><trkpt lat="44.6780317" lon="9.4743867"><ele>1040.0</ele><time>2026-04-04T15:05:52.19Z</time></trkpt><trkpt lat="44.677965" lon="9.4744517"><ele>1040.0</ele><time>2026-04-04T15:05:53.191Z</time></trkpt><trkpt lat="44.67791" lon="9.4745067"><ele>1040.0</ele><time>2026-04-04T15:05:54.189Z</time></trkpt><trkpt lat="44.67783" lon="9.4745967"><ele>1040.0</ele><time>2026-04-04T15:05:56.19Z</time></trkpt><trkpt lat="44.677785" lon="9.4747417"><ele>1039.5</ele><time>2026-04-04T15:05:58.189Z</time></trkpt><trkpt lat="44.6777667" lon="9.4748367"><ele>1039.0</ele><time>2026-04-04T15:05:59.19Z</time></trkpt><trkpt lat="44.67774" lon="9.4749333"><ele>1038.5</ele><time>2026-04-04T15:06:00.191Z</time></trkpt><trkpt lat="44.6777067" lon="9.475025"><ele>1038.0</ele><time>2026-04-04T15:06:01.189Z</time></trkpt><trkpt lat="44.67767" lon="9.47511"><ele>1037.5</ele><time>2026-04-04T15:06:02.19Z</time></trkpt><trkpt lat="44.6776283" lon="9.4752033"><ele>1037.0</ele><time>2026-04-04T15:06:03.188Z</time></trkpt><trkpt lat="44.67758" lon="9.475305"><ele>1037.0</ele><time>2026-04-04T15:06:04.189Z</time></trkpt><trkpt lat="44.6775317" lon="9.4754083"><ele>1037.0</ele><time>2026-04-04T15:06:05.19Z</time></trkpt><trkpt lat="44.6774867" lon="9.4755117"><ele>1037.0</ele><time>2026-04-04T15:06:06.19Z</time></trkpt><trkpt lat="44.6774467" lon="9.4756033"><ele>1037.0</ele><time>2026-04-04T15:06:07.191Z</time></trkpt><trkpt lat="44.6774133" lon="9.4756883"><ele>1037.0</ele><time>2026-04-04T15:06:08.192Z</time></trkpt><trkpt lat="44.6773483" lon="9.47584"><ele>1037.0</ele><time>2026-04-04T15:06:10.188Z</time></trkpt><trkpt lat="44.67728" lon="9.47597"><ele>1037.6666666666667</ele><time>2026-04-04T15:06:12.189Z</time></trkpt><trkpt lat="44.6772" lon="9.4760883"><ele>1038.3333333333335</ele><time>2026-04-04T15:06:14.189Z</time></trkpt><trkpt lat="44.67715" lon="9.4761433"><ele>1039.0</ele><time>2026-04-04T15:06:15.188Z</time></trkpt><trkpt lat="44.6770783" lon="9.4761967"><ele>1039.6666666666667</ele><time>2026-04-04T15:06:16.188Z</time></trkpt><trkpt lat="44.6770033" lon="9.476245"><ele>1040.3333333333333</ele><time>2026-04-04T15:06:17.189Z</time></trkpt><trkpt lat="44.67694" lon="9.47628"><ele>1041.0</ele><time>2026-04-04T15:06:18.189Z</time></trkpt><trkpt lat="44.6768383" lon="9.4763067"><ele>1040.8333333333333</ele><time>2026-04-04T15:06:20.189Z</time></trkpt><trkpt lat="44.6767433" lon="9.4762517"><ele>1040.6666666666667</ele><time>2026-04-04T15:06:22.188Z</time></trkpt><trkpt lat="44.6766917" lon="9.47619"><ele>1040.5</ele><time>2026-04-04T15:06:23.19Z</time></trkpt><trkpt lat="44.6766433" lon="9.4761083"><ele>1040.3333333333335</ele><time>2026-04-04T15:06:24.188Z</time></trkpt><trkpt lat="44.6765933" lon="9.476035"><ele>1040.1666666666667</ele><time>2026-04-04T15:06:25.188Z</time></trkpt><trkpt lat="44.67654" lon="9.4759733"><ele>1040.0</ele><time>2026-04-04T15:06:26.19Z</time></trkpt><trkpt lat="44.6764283" lon="9.4759183"><ele>1040.0</ele><time>2026-04-04T15:06:28.19Z</time></trkpt><trkpt lat="44.6763617" lon="9.4759483"><ele>1040.0</ele><time>2026-04-04T15:06:29.19Z</time></trkpt><trkpt lat="44.6762833" lon="9.4760017"><ele>1040.0</ele><time>2026-04-04T15:06:30.189Z</time></trkpt><trkpt lat="44.6762033" lon="9.4760433"><ele>1040.0</ele><time>2026-04-04T15:06:31.189Z</time></trkpt><trkpt lat="44.67612" lon="9.4760583"><ele>1040.0</ele><time>2026-04-04T15:06:32.189Z</time></trkpt><trkpt lat="44.67602" lon="9.4760583"><ele>1040.0</ele><time>2026-04-04T15:06:33.191Z</time></trkpt><trkpt lat="44.6759083" lon="9.47607"><ele>1039.75</ele><time>2026-04-04T15:06:34.191Z</time></trkpt><trkpt lat="44.67578" lon="9.4761017"><ele>1039.5</ele><time>2026-04-04T15:06:35.192Z</time></trkpt><trkpt lat="44.67564" lon="9.4761483"><ele>1039.25</ele><time>2026-04-04T15:06:36.191Z</time></trkpt><trkpt lat="44.6755033" lon="9.4762033"><ele>1039.0</ele><time>2026-04-04T15:06:37.192Z</time></trkpt><trkpt lat="44.675395" lon="9.4762483"><ele>1039.1666666666665</ele><time>2026-04-04T15:06:38.191Z</time></trkpt><trkpt lat="44.675305" lon="9.4762883"><ele>1039.3333333333333</ele><time>2026-04-04T15:06:39.191Z</time></trkpt><trkpt lat="44.6752283" lon="9.4763167"><ele>1039.5</ele><time>2026-04-04T15:06:40.191Z</time></trkpt><trkpt lat="44.6751561" lon="9.4763291"><ele>1039.6666666666667</ele><time>2026-04-04T15:06:41.188Z</time></trkpt><trkpt lat="44.6750855" lon="9.4763148"><ele>1039.8333333333335</ele><time>2026-04-04T15:06:42.189Z</time></trkpt><trkpt lat="44.6750215" lon="9.4762886"><ele>1040.0</ele><time>2026-04-04T15:06:43.189Z</time></trkpt><trkpt lat="44.6749366" lon="9.4762425"><ele>1040.0</ele><time>2026-04-04T15:06:45.188Z</time></trkpt><trkpt lat="44.6749054" lon="9.4761278"><ele>1040.0</ele><time>2026-04-04T15:06:48.188Z</time></trkpt><trkpt lat="44.6748876" lon="9.4760172"><ele>1040.0</ele><time>2026-04-04T15:06:50.189Z</time></trkpt><trkpt lat="44.6748441" lon="9.4758673"><ele>1040.0</ele><time>2026-04-04T15:06:52.188Z</time></trkpt><trkpt lat="44.6748162" lon="9.4757808"><ele>1040.0</ele><time>2026-04-04T15:06:53.188Z</time></trkpt><trkpt lat="44.6747875" lon="9.4756961"><ele>1040.0</ele><time>2026-04-04T15:06:54.189Z</time></trkpt><trkpt lat="44.6747566" lon="9.4756178"><ele>1040.0</ele><time>2026-04-04T15:06:55.188Z</time></trkpt><trkpt lat="44.6746868" lon="9.4754675"><ele>1040.0</ele><time>2026-04-04T15:06:57.188Z</time></trkpt><trkpt lat="44.674623" lon="9.4753203"><ele>1040.0</ele><time>2026-04-04T15:06:59.189Z</time></trkpt><trkpt lat="44.6745854" lon="9.4752472"><ele>1040.0</ele><time>2026-04-04T15:07:00.189Z</time></trkpt><trkpt lat="44.6745079" lon="9.4751281"><ele>1040.0</ele><time>2026-04-04T15:07:02.191Z</time></trkpt><trkpt lat="44.6744255" lon="9.4750229"><ele>1039.0</ele><time>2026-04-04T15:07:04.189Z</time></trkpt><trkpt lat="44.6743298" lon="9.4749319"><ele>1038.0</ele><time>2026-04-04T15:07:06.19Z</time></trkpt><trkpt lat="44.6742679" lon="9.474903"><ele>1037.0</ele><time>2026-04-04T15:07:07.191Z</time></trkpt><trkpt lat="44.6742062" lon="9.4748822"><ele>1036.0</ele><time>2026-04-04T15:07:08.191Z</time></trkpt><trkpt lat="44.6741159" lon="9.4748573"><ele>1035.0</ele><time>2026-04-04T15:07:10.19Z</time></trkpt><trkpt lat="44.6740452" lon="9.4748163"><ele>1034.0</ele><time>2026-04-04T15:07:12.188Z</time></trkpt><trkpt lat="44.6739778" lon="9.474779"><ele>1034.0</ele><time>2026-04-04T15:07:15.19Z</time></trkpt><trkpt lat="44.6738873" lon="9.4747297"><ele>1034.0</ele><time>2026-04-04T15:07:31.19Z</time></trkpt><trkpt lat="44.6738177" lon="9.4746806"><ele>1034.0</ele><time>2026-04-04T15:07:33.191Z</time></trkpt><trkpt lat="44.6737572" lon="9.4746336"><ele>1034.0</ele><time>2026-04-04T15:07:35.193Z</time></trkpt><trkpt lat="44.6736941" lon="9.4745756"><ele>1034.0</ele><time>2026-04-04T15:07:37.191Z</time></trkpt><trkpt lat="44.6736371" lon="9.4744915"><ele>1034.0</ele><time>2026-04-04T15:07:39.191Z</time></trkpt><trkpt lat="44.6735654" lon="9.474358"><ele>1030.6000000000001</ele><time>2026-04-04T15:07:41.189Z</time></trkpt><trkpt lat="44.6734949" lon="9.4742596"><ele>1027.2</ele><time>2026-04-04T15:07:43.19Z</time></trkpt><trkpt lat="44.6734279" lon="9.4741731"><ele>1023.8000000000001</ele><time>2026-04-04T15:07:45.188Z</time></trkpt><trkpt lat="44.6733717" lon="9.4740633"><ele>1020.4000000000001</ele><time>2026-04-04T15:07:47.19Z</time></trkpt><trkpt lat="44.673305" lon="9.47396"><ele>1017.0</ele><time>2026-04-04T15:07:49.189Z</time></trkpt><trkpt lat="44.67322" lon="9.4738833"><ele>1017.0</ele><time>2026-04-04T15:07:51.188Z</time></trkpt><trkpt lat="44.6731217" lon="9.4738467"><ele>1017.0</ele><time>2026-04-04T15:07:53.189Z</time></trkpt><trkpt lat="44.67304" lon="9.4738733"><ele>1017.0</ele><time>2026-04-04T15:07:55.19Z</time></trkpt><trkpt lat="44.67298" lon="9.4739633"><ele>1017.0</ele><time>2026-04-04T15:07:57.188Z</time></trkpt><trkpt lat="44.6729283" lon="9.4741067"><ele>1017.0</ele><time>2026-04-04T15:07:59.188Z</time></trkpt><trkpt lat="44.6729" lon="9.4741933"><ele>1017.0</ele><time>2026-04-04T15:08:00.188Z</time></trkpt><trkpt lat="44.6728683" lon="9.4742967"><ele>1017.0</ele><time>2026-04-04T15:08:01.189Z</time></trkpt><trkpt lat="44.67284" lon="9.4743867"><ele>1017.0</ele><time>2026-04-04T15:08:02.189Z</time></trkpt><trkpt lat="44.6727767" lon="9.4745"><ele>1017.0</ele><time>2026-04-04T15:08:04.19Z</time></trkpt><trkpt lat="44.6727017" lon="9.4745283"><ele>1017.0</ele><time>2026-04-04T15:08:06.192Z</time></trkpt><trkpt lat="44.6726383" lon="9.4744983"><ele>1017.0</ele><time>2026-04-04T15:08:09.19Z</time></trkpt><trkpt lat="44.672675" lon="9.4744017"><ele>1015.0</ele><time>2026-04-04T15:08:13.189Z</time></trkpt><trkpt lat="44.6727167" lon="9.4742433"><ele>1013.0</ele><time>2026-04-04T15:08:15.188Z</time></trkpt><trkpt lat="44.6727217" lon="9.4741333"><ele>1011.0</ele><time>2026-04-04T15:08:16.188Z</time></trkpt><trkpt lat="44.6727217" lon="9.474025"><ele>1009.0</ele><time>2026-04-04T15:08:17.189Z</time></trkpt><trkpt lat="44.6727217" lon="9.4739233"><ele>1007.0</ele><time>2026-04-04T15:08:18.189Z</time></trkpt><trkpt lat="44.6727233" lon="9.4738283"><ele>1005.0</ele><time>2026-04-04T15:08:19.19Z</time></trkpt><trkpt lat="44.6727033" lon="9.473665"><ele>1003.1666666666666</ele><time>2026-04-04T15:08:21.188Z</time></trkpt><trkpt lat="44.672625" lon="9.473545"><ele>1001.3333333333333</ele><time>2026-04-04T15:08:23.189Z</time></trkpt><trkpt lat="44.6725617" lon="9.473505"><ele>999.5</ele><time>2026-04-04T15:08:24.188Z</time></trkpt><trkpt lat="44.6724933" lon="9.4734867"><ele>997.6666666666666</ele><time>2026-04-04T15:08:25.189Z</time></trkpt><trkpt lat="44.672425" lon="9.4735017"><ele>995.8333333333333</ele><time>2026-04-04T15:08:26.19Z</time></trkpt><trkpt lat="44.67236" lon="9.47353"><ele>994.0</ele><time>2026-04-04T15:08:27.189Z</time></trkpt><trkpt lat="44.6723017" lon="9.4735717"><ele>993.9999999999999</ele><time>2026-04-04T15:08:28.189Z</time></trkpt><trkpt lat="44.67225" lon="9.4736267"><ele>994.0</ele><time>2026-04-04T15:08:29.189Z</time></trkpt><trkpt lat="44.6721717" lon="9.4737267"><ele>994.0</ele><time>2026-04-04T15:08:31.193Z</time></trkpt><trkpt lat="44.67212" lon="9.4737867"><ele>994.0</ele><time>2026-04-04T15:08:33.193Z</time></trkpt><trkpt lat="44.6720683" lon="9.4738483"><ele>993.9999999999999</ele><time>2026-04-04T15:09:15.188Z</time></trkpt><trkpt lat="44.672005" lon="9.473905"><ele>994.0</ele><time>2026-04-04T15:09:17.188Z</time></trkpt><trkpt lat="44.671925" lon="9.4739567"><ele>995.2</ele><time>2026-04-04T15:09:31.194Z</time></trkpt><trkpt lat="44.6718367" lon="9.4739667"><ele>996.4000000000001</ele><time>2026-04-04T15:09:33.19Z</time></trkpt><trkpt lat="44.6717233" lon="9.4739533"><ele>997.6</ele><time>2026-04-04T15:09:35.19Z</time></trkpt><trkpt lat="44.6716533" lon="9.473935"><ele>998.8</ele><time>2026-04-04T15:09:36.19Z</time></trkpt><trkpt lat="44.6715733" lon="9.473915"><ele>1000.0</ele><time>2026-04-04T15:09:37.189Z</time></trkpt><trkpt lat="44.6714783" lon="9.473885"><ele>1000.0</ele><time>2026-04-04T15:09:38.19Z</time></trkpt><trkpt lat="44.6713733" lon="9.4738533"><ele>1000.0</ele><time>2026-04-04T15:09:39.19Z</time></trkpt><trkpt lat="44.6712683" lon="9.473825"><ele>1000.0</ele><time>2026-04-04T15:09:40.189Z</time></trkpt><trkpt lat="44.671165" lon="9.4738017"><ele>1000.0</ele><time>2026-04-04T15:09:41.19Z</time></trkpt><trkpt lat="44.67106" lon="9.473795"><ele>1000.0</ele><time>2026-04-04T15:09:42.19Z</time></trkpt><trkpt lat="44.6709517" lon="9.47381"><ele>997.5</ele><time>2026-04-04T15:09:43.191Z</time></trkpt><trkpt lat="44.67084" lon="9.4738383"><ele>995.0</ele><time>2026-04-04T15:09:44.191Z</time></trkpt><trkpt lat="44.6707233" lon="9.4738767"><ele>992.5</ele><time>2026-04-04T15:09:45.188Z</time></trkpt><trkpt lat="44.6706083" lon="9.4739133"><ele>990.0</ele><time>2026-04-04T15:09:46.188Z</time></trkpt><trkpt lat="44.6705033" lon="9.4739483"><ele>990.0</ele><time>2026-04-04T15:09:47.187Z</time></trkpt><trkpt lat="44.6704083" lon="9.47399"><ele>990.0</ele><time>2026-04-04T15:09:48.188Z</time></trkpt><trkpt lat="44.6703283" lon="9.47404"><ele>990.0</ele><time>2026-04-04T15:09:49.188Z</time></trkpt><trkpt lat="44.670265" lon="9.4740967"><ele>990.0</ele><time>2026-04-04T15:09:50.189Z</time></trkpt><trkpt lat="44.6702233" lon="9.474165"><ele>990.0</ele><time>2026-04-04T15:09:51.188Z</time></trkpt><trkpt lat="44.67019" lon="9.4742567"><ele>990.0</ele><time>2026-04-04T15:09:52.187Z</time></trkpt><trkpt lat="44.6701717" lon="9.4743867"><ele>988.6</ele><time>2026-04-04T15:09:53.188Z</time></trkpt><trkpt lat="44.67017" lon="9.47456"><ele>987.2</ele><time>2026-04-04T15:09:54.188Z</time></trkpt><trkpt lat="44.6701667" lon="9.4747283"><ele>985.8</ele><time>2026-04-04T15:09:55.189Z</time></trkpt><trkpt lat="44.6701533" lon="9.474875"><ele>984.4</ele><time>2026-04-04T15:09:56.188Z</time></trkpt><trkpt lat="44.6701233" lon="9.474985"><ele>983.0</ele><time>2026-04-04T15:09:57.187Z</time></trkpt><trkpt lat="44.670075" lon="9.4750733"><ele>983.0</ele><time>2026-04-04T15:09:58.189Z</time></trkpt><trkpt lat="44.6700017" lon="9.4751383"><ele>983.0</ele><time>2026-04-04T15:09:59.188Z</time></trkpt><trkpt lat="44.66989" lon="9.4752017"><ele>983.0</ele><time>2026-04-04T15:10:00.191Z</time></trkpt><trkpt lat="44.6697483" lon="9.4752667"><ele>983.0</ele><time>2026-04-04T15:10:01.189Z</time></trkpt><trkpt lat="44.6696233" lon="9.4753283"><ele>983.0</ele><time>2026-04-04T15:10:02.188Z</time></trkpt><trkpt lat="44.6695" lon="9.4753783"><ele>983.0</ele><time>2026-04-04T15:10:03.188Z</time></trkpt><trkpt lat="44.6693733" lon="9.4754117"><ele>983.0</ele><time>2026-04-04T15:10:04.189Z</time></trkpt><trkpt lat="44.669245" lon="9.475435"><ele>983.0</ele><time>2026-04-04T15:10:05.188Z</time></trkpt><trkpt lat="44.66912" lon="9.4754583"><ele>982.2</ele><time>2026-04-04T15:10:06.188Z</time></trkpt><trkpt lat="44.6690033" lon="9.4754817"><ele>981.4</ele><time>2026-04-04T15:10:07.19Z</time></trkpt><trkpt lat="44.6688933" lon="9.47551"><ele>980.6000000000001</ele><time>2026-04-04T15:10:08.189Z</time></trkpt><trkpt lat="44.6687967" lon="9.47556"><ele>979.8000000000001</ele><time>2026-04-04T15:10:09.188Z</time></trkpt><trkpt lat="44.6687033" lon="9.47563"><ele>979.0</ele><time>2026-04-04T15:10:10.188Z</time></trkpt><trkpt lat="44.6686133" lon="9.4757267"><ele>974.0</ele><time>2026-04-04T15:10:11.188Z</time></trkpt><trkpt lat="44.6685217" lon="9.4758317"><ele>969.0</ele><time>2026-04-04T15:10:12.188Z</time></trkpt><trkpt lat="44.6684317" lon="9.4759233"><ele>964.0</ele><time>2026-04-04T15:10:13.188Z</time></trkpt><trkpt lat="44.6683433" lon="9.4760133"><ele>959.0</ele><time>2026-04-04T15:10:14.188Z</time></trkpt><trkpt lat="44.6682633" lon="9.4761233"><ele>959.0</ele><time>2026-04-04T15:10:15.189Z</time></trkpt><trkpt lat="44.6681867" lon="9.4762367"><ele>959.0</ele><time>2026-04-04T15:10:16.188Z</time></trkpt><trkpt lat="44.6681083" lon="9.4763383"><ele>959.0</ele><time>2026-04-04T15:10:17.19Z</time></trkpt><trkpt lat="44.668025" lon="9.4764417"><ele>959.0</ele><time>2026-04-04T15:10:18.19Z</time></trkpt><trkpt lat="44.667815" lon="9.4766317"><ele>959.6666666666667</ele><time>2026-04-04T15:10:20.199Z</time></trkpt><trkpt lat="44.66761" lon="9.4768133"><ele>960.3333333333333</ele><time>2026-04-04T15:10:22.19Z</time></trkpt><trkpt lat="44.667515" lon="9.4769067"><ele>961.0</ele><time>2026-04-04T15:10:23.19Z</time></trkpt><trkpt lat="44.6673367" lon="9.4771317"><ele>961.0</ele><time>2026-04-04T15:10:25.19Z</time></trkpt><trkpt lat="44.6672533" lon="9.47726"><ele>961.0</ele><time>2026-04-04T15:10:26.19Z</time></trkpt><trkpt lat="44.66711" lon="9.4774833"><ele>961.0</ele><time>2026-04-04T15:10:28.19Z</time></trkpt><trkpt lat="44.6670583" lon="9.47759"><ele>961.0</ele><time>2026-04-04T15:10:29.19Z</time></trkpt><trkpt lat="44.6670317" lon="9.4777117"><ele>960.9999999999999</ele><time>2026-04-04T15:10:30.188Z</time></trkpt><trkpt lat="44.6670167" lon="9.477835"><ele>961.0</ele><time>2026-04-04T15:10:31.188Z</time></trkpt><trkpt lat="44.6670133" lon="9.47795"><ele>961.0</ele><time>2026-04-04T15:10:32.188Z</time></trkpt><trkpt lat="44.6670067" lon="9.47805"><ele>961.0</ele><time>2026-04-04T15:10:33.19Z</time></trkpt><trkpt lat="44.66696" lon="9.4781917"><ele>960.9999999999999</ele><time>2026-04-04T15:10:35.19Z</time></trkpt><trkpt lat="44.6668917" lon="9.4782033"><ele>961.0</ele><time>2026-04-04T15:10:37.19Z</time></trkpt><trkpt lat="44.6668417" lon="9.478025"><ele>961.0</ele><time>2026-04-04T15:10:39.188Z</time></trkpt><trkpt lat="44.6668267" lon="9.47787"><ele>960.9999999999999</ele><time>2026-04-04T15:10:40.188Z</time></trkpt><trkpt lat="44.666835" lon="9.47772"><ele>960.9999999999999</ele><time>2026-04-04T15:10:41.188Z</time></trkpt><trkpt lat="44.666865" lon="9.477575"><ele>961.0</ele><time>2026-04-04T15:10:42.188Z</time></trkpt><trkpt lat="44.6669167" lon="9.4774483"><ele>961.0</ele><time>2026-04-04T15:10:43.189Z</time></trkpt><trkpt lat="44.6669917" lon="9.4772983"><ele>956.6666666666666</ele><time>2026-04-04T15:10:44.197Z</time></trkpt><trkpt lat="44.6670767" lon="9.4770983"><ele>952.3333333333333</ele><time>2026-04-04T15:10:45.19Z</time></trkpt><trkpt lat="44.6671633" lon="9.476865"><ele>948.0</ele><time>2026-04-04T15:10:46.19Z</time></trkpt><trkpt lat="44.6672517" lon="9.4766017"><ele>948.0</ele><time>2026-04-04T15:10:47.19Z</time></trkpt><trkpt lat="44.6673367" lon="9.47634"><ele>948.0</ele><time>2026-04-04T15:10:48.189Z</time></trkpt><trkpt lat="44.6674167" lon="9.4761"><ele>948.0</ele><time>2026-04-04T15:10:49.188Z</time></trkpt><trkpt lat="44.6674933" lon="9.475875"><ele>943.6666666666667</ele><time>2026-04-04T15:10:50.188Z</time></trkpt><trkpt lat="44.667615" lon="9.4754867"><ele>939.3333333333334</ele><time>2026-04-04T15:10:52.189Z</time></trkpt><trkpt lat="44.6676583" lon="9.4753017"><ele>935.0</ele><time>2026-04-04T15:10:53.19Z</time></trkpt><trkpt lat="44.6676867" lon="9.47512"><ele>933.0</ele><time>2026-04-04T15:10:54.188Z</time></trkpt><trkpt lat="44.6677017" lon="9.4749467"><ele>931.0</ele><time>2026-04-04T15:10:55.189Z</time></trkpt><trkpt lat="44.6677133" lon="9.47479"><ele>929.0</ele><time>2026-04-04T15:10:56.188Z</time></trkpt><trkpt lat="44.6677167" lon="9.47466"><ele>927.0</ele><time>2026-04-04T15:10:57.187Z</time></trkpt><trkpt lat="44.66772" lon="9.4745583"><ele>925.0</ele><time>2026-04-04T15:10:58.196Z</time></trkpt><trkpt lat="44.6676833" lon="9.47444"><ele>925.0</ele><time>2026-04-04T15:11:00.188Z</time></trkpt><trkpt lat="44.6675833" lon="9.4743733"><ele>925.0</ele><time>2026-04-04T15:11:02.189Z</time></trkpt><trkpt lat="44.66752" lon="9.4743517"><ele>925.0</ele><time>2026-04-04T15:11:03.189Z</time></trkpt><trkpt lat="44.6674017" lon="9.474405"><ele>925.0</ele><time>2026-04-04T15:11:05.188Z</time></trkpt><trkpt lat="44.66736" lon="9.4745033"><ele>925.0</ele><time>2026-04-04T15:11:06.187Z</time></trkpt><trkpt lat="44.6673317" lon="9.4746567"><ele>925.0</ele><time>2026-04-04T15:11:07.189Z</time></trkpt><trkpt lat="44.6673" lon="9.4748133"><ele>925.0</ele><time>2026-04-04T15:11:08.189Z</time></trkpt><trkpt lat="44.6672667" lon="9.4749833"><ele>925.0</ele><time>2026-04-04T15:11:09.189Z</time></trkpt><trkpt lat="44.66723" lon="9.4751583"><ele>925.0</ele><time>2026-04-04T15:11:10.189Z</time></trkpt><trkpt lat="44.66719" lon="9.4753217"><ele>927.0</ele><time>2026-04-04T15:11:11.188Z</time></trkpt><trkpt lat="44.66715" lon="9.4754717"><ele>929.0</ele><time>2026-04-04T15:11:12.188Z</time></trkpt><trkpt lat="44.667105" lon="9.475605"><ele>931.0</ele><time>2026-04-04T15:11:13.188Z</time></trkpt><trkpt lat="44.6670583" lon="9.4757183"><ele>933.0</ele><time>2026-04-04T15:11:14.188Z</time></trkpt><trkpt lat="44.6670017" lon="9.47582"><ele>935.0</ele><time>2026-04-04T15:11:15.191Z</time></trkpt><trkpt lat="44.6669267" lon="9.475895"><ele>929.5</ele><time>2026-04-04T15:11:16.189Z</time></trkpt><trkpt lat="44.6668283" lon="9.4759617"><ele>924.0</ele><time>2026-04-04T15:11:17.19Z</time></trkpt><trkpt lat="44.666715" lon="9.47604"><ele>918.5</ele><time>2026-04-04T15:11:18.19Z</time></trkpt><trkpt lat="44.6665967" lon="9.4761117"><ele>913.0</ele><time>2026-04-04T15:11:19.19Z</time></trkpt><trkpt lat="44.6664817" lon="9.4761833"><ele>913.0</ele><time>2026-04-04T15:11:20.19Z</time></trkpt><trkpt lat="44.6663767" lon="9.476255"><ele>913.0</ele><time>2026-04-04T15:11:21.19Z</time></trkpt><trkpt lat="44.6662783" lon="9.4763283"><ele>913.0</ele><time>2026-04-04T15:11:22.19Z</time></trkpt><trkpt lat="44.66619" lon="9.4764117"><ele>913.0</ele><time>2026-04-04T15:11:23.19Z</time></trkpt><trkpt lat="44.6661183" lon="9.4765117"><ele>913.0</ele><time>2026-04-04T15:11:24.191Z</time></trkpt><trkpt lat="44.6660567" lon="9.47663"><ele>912.2</ele><time>2026-04-04T15:11:25.19Z</time></trkpt><trkpt lat="44.665995" lon="9.47676"><ele>911.4</ele><time>2026-04-04T15:11:26.194Z</time></trkpt><trkpt lat="44.6659317" lon="9.4768883"><ele>910.6000000000001</ele><time>2026-04-04T15:11:27.189Z</time></trkpt><trkpt lat="44.6658683" lon="9.477"><ele>909.8000000000001</ele><time>2026-04-04T15:11:28.19Z</time></trkpt><trkpt lat="44.6657883" lon="9.4770883"><ele>909.0</ele><time>2026-04-04T15:11:29.191Z</time></trkpt><trkpt lat="44.6656867" lon="9.4771517"><ele>909.0</ele><time>2026-04-04T15:11:30.19Z</time></trkpt><trkpt lat="44.6655683" lon="9.4772"><ele>909.0</ele><time>2026-04-04T15:11:31.19Z</time></trkpt><trkpt lat="44.6654433" lon="9.47725"><ele>909.0</ele><time>2026-04-04T15:11:32.188Z</time></trkpt><trkpt lat="44.6653167" lon="9.477295"><ele>909.0</ele><time>2026-04-04T15:11:33.189Z</time></trkpt><trkpt lat="44.6651967" lon="9.4773433"><ele>906.4000000000001</ele><time>2026-04-04T15:11:34.187Z</time></trkpt><trkpt lat="44.665085" lon="9.4774067"><ele>903.8000000000001</ele><time>2026-04-04T15:11:35.188Z</time></trkpt><trkpt lat="44.6649833" lon="9.477485"><ele>901.1999999999999</ele><time>2026-04-04T15:11:36.19Z</time></trkpt><trkpt lat="44.66489" lon="9.4775617"><ele>898.5999999999999</ele><time>2026-04-04T15:11:37.189Z</time></trkpt><trkpt lat="44.66481" lon="9.4776433"><ele>896.0</ele><time>2026-04-04T15:11:38.189Z</time></trkpt><trkpt lat="44.66474" lon="9.4777433"><ele>896.0</ele><time>2026-04-04T15:11:39.189Z</time></trkpt><trkpt lat="44.6646917" lon="9.4778817"><ele>895.9999999999999</ele><time>2026-04-04T15:11:40.189Z</time></trkpt><trkpt lat="44.6646433" lon="9.4780267"><ele>895.9999999999999</ele><time>2026-04-04T15:11:41.188Z</time></trkpt><trkpt lat="44.6646017" lon="9.47816"><ele>896.0</ele><time>2026-04-04T15:11:42.188Z</time></trkpt><trkpt lat="44.66457" lon="9.47828"><ele>896.0</ele><time>2026-04-04T15:11:43.188Z</time></trkpt><trkpt lat="44.6645617" lon="9.478395"><ele>895.8</ele><time>2026-04-04T15:11:44.189Z</time></trkpt><trkpt lat="44.6645767" lon="9.4785067"><ele>895.5999999999999</ele><time>2026-04-04T15:11:45.19Z</time></trkpt><trkpt lat="44.6646033" lon="9.4786183"><ele>895.4</ele><time>2026-04-04T15:11:46.189Z</time></trkpt><trkpt lat="44.66464" lon="9.478735"><ele>895.2</ele><time>2026-04-04T15:11:47.188Z</time></trkpt><trkpt lat="44.6646983" lon="9.478855"><ele>895.0</ele><time>2026-04-04T15:11:48.188Z</time></trkpt><trkpt lat="44.664775" lon="9.47899"><ele>894.0</ele><time>2026-04-04T15:11:49.189Z</time></trkpt><trkpt lat="44.6648483" lon="9.479115"><ele>893.0</ele><time>2026-04-04T15:11:50.189Z</time></trkpt><trkpt lat="44.6649283" lon="9.4792367"><ele>892.0</ele><time>2026-04-04T15:11:51.19Z</time></trkpt><trkpt lat="44.6649967" lon="9.479355"><ele>891.0</ele><time>2026-04-04T15:11:52.191Z</time></trkpt><trkpt lat="44.66506" lon="9.47947"><ele>890.0</ele><time>2026-04-04T15:11:53.19Z</time></trkpt><trkpt lat="44.6651067" lon="9.479565"><ele>888.6666666666667</ele><time>2026-04-04T15:11:54.19Z</time></trkpt><trkpt lat="44.6651367" lon="9.4796667"><ele>887.3333333333334</ele><time>2026-04-04T15:11:55.19Z</time></trkpt><trkpt lat="44.6651467" lon="9.47976"><ele>886.0</ele><time>2026-04-04T15:11:56.192Z</time></trkpt><trkpt lat="44.6650817" lon="9.479885"><ele>884.6666666666667</ele><time>2026-04-04T15:11:58.19Z</time></trkpt><trkpt lat="44.6650167" lon="9.4799033"><ele>883.3333333333334</ele><time>2026-04-04T15:11:59.19Z</time></trkpt><trkpt lat="44.6649433" lon="9.479905"><ele>882.0</ele><time>2026-04-04T15:12:00.188Z</time></trkpt><trkpt lat="44.66488" lon="9.4798933"><ele>882.0</ele><time>2026-04-04T15:12:01.189Z</time></trkpt><trkpt lat="44.66479" lon="9.47984"><ele>882.0</ele><time>2026-04-04T15:12:02.189Z</time></trkpt><trkpt lat="44.66468" lon="9.4797667"><ele>882.0</ele><time>2026-04-04T15:12:03.188Z</time></trkpt><trkpt lat="44.66458" lon="9.47971"><ele>882.0</ele><time>2026-04-04T15:12:04.188Z</time></trkpt><trkpt lat="44.6644733" lon="9.4796717"><ele>882.0</ele><time>2026-04-04T15:12:05.188Z</time></trkpt><trkpt lat="44.6643567" lon="9.4796583"><ele>879.4000000000001</ele><time>2026-04-04T15:12:06.191Z</time></trkpt><trkpt lat="44.664235" lon="9.4796617"><ele>876.8000000000001</ele><time>2026-04-04T15:12:07.19Z</time></trkpt><trkpt lat="44.66412" lon="9.4796683"><ele>874.2</ele><time>2026-04-04T15:12:08.19Z</time></trkpt><trkpt lat="44.6640133" lon="9.4796733"><ele>871.6</ele><time>2026-04-04T15:12:09.188Z</time></trkpt><trkpt lat="44.6639217" lon="9.4796667"><ele>869.0</ele><time>2026-04-04T15:12:10.188Z</time></trkpt><trkpt lat="44.663845" lon="9.47964"><ele>870.4285714285714</ele><time>2026-04-04T15:12:11.189Z</time></trkpt><trkpt lat="44.6637817" lon="9.4795983"><ele>871.8571428571428</ele><time>2026-04-04T15:12:12.188Z</time></trkpt><trkpt lat="44.6637367" lon="9.4795283"><ele>873.2857142857142</ele><time>2026-04-04T15:12:13.188Z</time></trkpt><trkpt lat="44.6637083" lon="9.4794383"><ele>874.7142857142858</ele><time>2026-04-04T15:12:14.188Z</time></trkpt><trkpt lat="44.6637017" lon="9.4793283"><ele>876.1428571428571</ele><time>2026-04-04T15:12:15.188Z</time></trkpt><trkpt lat="44.663695" lon="9.4792317"><ele>877.5714285714286</ele><time>2026-04-04T15:12:16.188Z</time></trkpt><trkpt lat="44.6636867" lon="9.4791383"><ele>879.0</ele><time>2026-04-04T15:12:17.189Z</time></trkpt><trkpt lat="44.66368" lon="9.4790333"><ele>879.0</ele><time>2026-04-04T15:12:18.188Z</time></trkpt><trkpt lat="44.663675" lon="9.4789"><ele>879.0</ele><time>2026-04-04T15:12:19.189Z</time></trkpt><trkpt lat="44.663665" lon="9.47871"><ele>879.0</ele><time>2026-04-04T15:12:20.189Z</time></trkpt><trkpt lat="44.663655" lon="9.4784967"><ele>879.0</ele><time>2026-04-04T15:12:21.188Z</time></trkpt><trkpt lat="44.663645" lon="9.4782833"><ele>880.25</ele><time>2026-04-04T15:12:22.188Z</time></trkpt><trkpt lat="44.6636433" lon="9.4780867"><ele>881.5</ele><time>2026-04-04T15:12:23.189Z</time></trkpt><trkpt lat="44.66365" lon="9.4779"><ele>882.75</ele><time>2026-04-04T15:12:24.188Z</time></trkpt><trkpt lat="44.6636667" lon="9.4777317"><ele>884.0</ele><time>2026-04-04T15:12:25.188Z</time></trkpt><trkpt lat="44.6636917" lon="9.47757"><ele>884.0</ele><time>2026-04-04T15:12:26.188Z</time></trkpt><trkpt lat="44.66372" lon="9.47741"><ele>884.0</ele><time>2026-04-04T15:12:27.188Z</time></trkpt><trkpt lat="44.663755" lon="9.4772217"><ele>884.0</ele><time>2026-04-04T15:12:28.189Z</time></trkpt><trkpt lat="44.6637883" lon="9.4770433"><ele>884.0</ele><time>2026-04-04T15:12:29.188Z</time></trkpt><trkpt lat="44.6638167" lon="9.4768767"><ele>882.5</ele><time>2026-04-04T15:12:30.189Z</time></trkpt><trkpt lat="44.6638183" lon="9.476715"><ele>881.0</ele><time>2026-04-04T15:12:31.188Z</time></trkpt><trkpt lat="44.66379" lon="9.4765567"><ele>879.5</ele><time>2026-04-04T15:12:32.188Z</time></trkpt><trkpt lat="44.66374" lon="9.4764133"><ele>878.0</ele><time>2026-04-04T15:12:33.189Z</time></trkpt><trkpt lat="44.6636617" lon="9.476305"><ele>876.0</ele><time>2026-04-04T15:12:34.189Z</time></trkpt><trkpt lat="44.6635617" lon="9.4762433"><ele>874.0</ele><time>2026-04-04T15:12:35.19Z</time></trkpt><trkpt lat="44.6634533" lon="9.4762083"><ele>872.0</ele><time>2026-04-04T15:12:36.19Z</time></trkpt><trkpt lat="44.6633517" lon="9.4761767"><ele>870.0</ele><time>2026-04-04T15:12:37.188Z</time></trkpt><trkpt lat="44.663275" lon="9.476115"><ele>868.0</ele><time>2026-04-04T15:12:38.188Z</time></trkpt><trkpt lat="44.663215" lon="9.4760317"><ele>868.0</ele><time>2026-04-04T15:12:39.188Z</time></trkpt><trkpt lat="44.6631783" lon="9.475915"><ele>868.0</ele><time>2026-04-04T15:12:40.188Z</time></trkpt><trkpt lat="44.6631767" lon="9.475715"><ele>868.0</ele><time>2026-04-04T15:12:41.189Z</time></trkpt><trkpt lat="44.6631633" lon="9.4754833"><ele>868.0</ele><time>2026-04-04T15:12:42.189Z</time></trkpt><trkpt lat="44.6631267" lon="9.4752033"><ele>870.3333333333333</ele><time>2026-04-04T15:12:43.188Z</time></trkpt><trkpt lat="44.663085" lon="9.4749183"><ele>872.6666666666667</ele><time>2026-04-04T15:12:44.189Z</time></trkpt><trkpt lat="44.6630317" lon="9.4746567"><ele>875.0</ele><time>2026-04-04T15:12:45.189Z</time></trkpt><trkpt lat="44.6629733" lon="9.4744267"><ele>876.5</ele><time>2026-04-04T15:12:46.188Z</time></trkpt><trkpt lat="44.6629117" lon="9.4742317"><ele>878.0</ele><time>2026-04-04T15:12:47.189Z</time></trkpt><trkpt lat="44.6628583" lon="9.4740767"><ele>879.5</ele><time>2026-04-04T15:12:48.188Z</time></trkpt><trkpt lat="44.66282" lon="9.4739533"><ele>881.0</ele><time>2026-04-04T15:12:49.19Z</time></trkpt><trkpt lat="44.6628" lon="9.4738333"><ele>881.0</ele><time>2026-04-04T15:12:50.189Z</time></trkpt><trkpt lat="44.66285" lon="9.4737533"><ele>880.9999999999999</ele><time>2026-04-04T15:12:51.19Z</time></trkpt><trkpt lat="44.662915" lon="9.473725"><ele>880.9999999999999</ele><time>2026-04-04T15:12:52.19Z</time></trkpt><trkpt lat="44.662995" lon="9.4737517"><ele>881.0</ele><time>2026-04-04T15:12:53.188Z</time></trkpt><trkpt lat="44.6630733" lon="9.4738583"><ele>881.0</ele><time>2026-04-04T15:12:54.188Z</time></trkpt><trkpt lat="44.6631433" lon="9.47402"><ele>881.0</ele><time>2026-04-04T15:12:55.187Z</time></trkpt><trkpt lat="44.6632167" lon="9.47425"><ele>881.0</ele><time>2026-04-04T15:12:56.188Z</time></trkpt><trkpt lat="44.6632833" lon="9.4744667"><ele>881.0</ele><time>2026-04-04T15:12:57.188Z</time></trkpt><trkpt lat="44.6633483" lon="9.4746317"><ele>881.5000000000001</ele><time>2026-04-04T15:12:58.188Z</time></trkpt><trkpt lat="44.6634167" lon="9.4747367"><ele>882.0</ele><time>2026-04-04T15:12:59.188Z</time></trkpt><trkpt lat="44.6635017" lon="9.474785"><ele>882.5</ele><time>2026-04-04T15:13:00.189Z</time></trkpt><trkpt lat="44.663585" lon="9.47479"><ele>883.0</ele><time>2026-04-04T15:13:01.188Z</time></trkpt><trkpt lat="44.6636283" lon="9.4747033"><ele>883.5000000000001</ele><time>2026-04-04T15:13:02.188Z</time></trkpt><trkpt lat="44.6636317" lon="9.4745667"><ele>884.0</ele><time>2026-04-04T15:13:03.188Z</time></trkpt><trkpt lat="44.6636183" lon="9.4744167"><ele>883.0</ele><time>2026-04-04T15:13:04.188Z</time></trkpt><trkpt lat="44.6635683" lon="9.474195"><ele>882.0</ele><time>2026-04-04T15:13:05.188Z</time></trkpt><trkpt lat="44.663525" lon="9.47391"><ele>881.0</ele><time>2026-04-04T15:13:06.188Z</time></trkpt><trkpt lat="44.6635017" lon="9.4736067"><ele>883.0</ele><time>2026-04-04T15:13:07.189Z</time></trkpt><trkpt lat="44.6634933" lon="9.473315"><ele>885.0</ele><time>2026-04-04T15:13:08.189Z</time></trkpt><trkpt lat="44.6635133" lon="9.4730367"><ele>887.0</ele><time>2026-04-04T15:13:09.188Z</time></trkpt><trkpt lat="44.66356" lon="9.47275"><ele>893.0</ele><time>2026-04-04T15:13:10.19Z</time></trkpt><trkpt lat="44.6636167" lon="9.47247"><ele>899.0</ele><time>2026-04-04T15:13:11.189Z</time></trkpt><trkpt lat="44.6636667" lon="9.472245"><ele>905.0</ele><time>2026-04-04T15:13:12.188Z</time></trkpt><trkpt lat="44.6636833" lon="9.4720833"><ele>906.25</ele><time>2026-04-04T15:13:13.189Z</time></trkpt><trkpt lat="44.6636617" lon="9.4719333"><ele>907.5</ele><time>2026-04-04T15:13:14.188Z</time></trkpt><trkpt lat="44.6635917" lon="9.47179"><ele>908.75</ele><time>2026-04-04T15:13:15.188Z</time></trkpt><trkpt lat="44.6634583" lon="9.4716467"><ele>910.0</ele><time>2026-04-04T15:13:16.188Z</time></trkpt><trkpt lat="44.663315" lon="9.4715117"><ele>909.25</ele><time>2026-04-04T15:13:17.188Z</time></trkpt><trkpt lat="44.6632033" lon="9.471395"><ele>908.5</ele><time>2026-04-04T15:13:18.188Z</time></trkpt><trkpt lat="44.66312" lon="9.471265"><ele>907.75</ele><time>2026-04-04T15:13:19.19Z</time></trkpt><trkpt lat="44.6630517" lon="9.4710833"><ele>907.0</ele><time>2026-04-04T15:13:20.189Z</time></trkpt><trkpt lat="44.662985" lon="9.47087"><ele>907.0</ele><time>2026-04-04T15:13:21.188Z</time></trkpt><trkpt lat="44.662895" lon="9.4706633"><ele>907.0</ele><time>2026-04-04T15:13:22.188Z</time></trkpt><trkpt lat="44.6627667" lon="9.4704883"><ele>907.0</ele><time>2026-04-04T15:13:23.191Z</time></trkpt><trkpt lat="44.6626517" lon="9.47036"><ele>907.1666666666666</ele><time>2026-04-04T15:13:24.188Z</time></trkpt><trkpt lat="44.6625717" lon="9.4702517"><ele>907.3333333333333</ele><time>2026-04-04T15:13:25.188Z</time></trkpt><trkpt lat="44.662545" lon="9.470145"><ele>907.5</ele><time>2026-04-04T15:13:26.189Z</time></trkpt><trkpt lat="44.6625533" lon="9.4700417"><ele>907.6666666666667</ele><time>2026-04-04T15:13:27.188Z</time></trkpt><trkpt lat="44.66262" lon="9.47"><ele>907.8333333333334</ele><time>2026-04-04T15:13:28.188Z</time></trkpt><trkpt lat="44.6627167" lon="9.4700217"><ele>908.0</ele><time>2026-04-04T15:13:29.189Z</time></trkpt><trkpt lat="44.662825" lon="9.4700783"><ele>907.6666666666667</ele><time>2026-04-04T15:13:30.188Z</time></trkpt><trkpt lat="44.6629567" lon="9.4702067"><ele>907.3333333333333</ele><time>2026-04-04T15:13:31.19Z</time></trkpt><trkpt lat="44.6631083" lon="9.4703917"><ele>907.0</ele><time>2026-04-04T15:13:32.188Z</time></trkpt><trkpt lat="44.6632617" lon="9.4705783"><ele>907.0</ele><time>2026-04-04T15:13:33.188Z</time></trkpt><trkpt lat="44.66342" lon="9.4707267"><ele>907.0</ele><time>2026-04-04T15:13:34.188Z</time></trkpt><trkpt lat="44.6636083" lon="9.4708383"><ele>907.0</ele><time>2026-04-04T15:13:35.188Z</time></trkpt><trkpt lat="44.6638117" lon="9.4709417"><ele>911.3333333333333</ele><time>2026-04-04T15:13:36.188Z</time></trkpt><trkpt lat="44.664005" lon="9.4710367"><ele>915.6666666666667</ele><time>2026-04-04T15:13:37.19Z</time></trkpt><trkpt lat="44.6641733" lon="9.4711233"><ele>920.0</ele><time>2026-04-04T15:13:38.19Z</time></trkpt><trkpt lat="44.6643183" lon="9.4711967"><ele>920.0</ele><time>2026-04-04T15:13:39.19Z</time></trkpt><trkpt lat="44.664435" lon="9.4712517"><ele>920.0</ele><time>2026-04-04T15:13:40.189Z</time></trkpt><trkpt lat="44.664535" lon="9.47127"><ele>920.0</ele><time>2026-04-04T15:13:41.188Z</time></trkpt><trkpt lat="44.6646217" lon="9.4712233"><ele>920.0</ele><time>2026-04-04T15:13:42.188Z</time></trkpt><trkpt lat="44.6646867" lon="9.47114"><ele>920.0</ele><time>2026-04-04T15:13:43.189Z</time></trkpt><trkpt lat="44.66471" lon="9.4710167"><ele>921.0</ele><time>2026-04-04T15:13:44.188Z</time></trkpt><trkpt lat="44.6646583" lon="9.4708567"><ele>922.0</ele><time>2026-04-04T15:13:45.188Z</time></trkpt><trkpt lat="44.6645817" lon="9.4706917"><ele>923.0</ele><time>2026-04-04T15:13:46.188Z</time></trkpt><trkpt lat="44.6644467" lon="9.470495"><ele>925.0</ele><time>2026-04-04T15:13:47.189Z</time></trkpt><trkpt lat="44.6642817" lon="9.470255"><ele>927.0</ele><time>2026-04-04T15:13:48.188Z</time></trkpt><trkpt lat="44.6641167" lon="9.4700083"><ele>927.0</ele><time>2026-04-04T15:13:49.188Z</time></trkpt><trkpt lat="44.6639683" lon="9.4697583"><ele>927.0</ele><time>2026-04-04T15:13:50.189Z</time></trkpt><trkpt lat="44.6638317" lon="9.4694933"><ele>927.0</ele><time>2026-04-04T15:13:51.188Z</time></trkpt><trkpt lat="44.6636983" lon="9.4691883"><ele>927.0</ele><time>2026-04-04T15:13:52.189Z</time></trkpt><trkpt lat="44.66357" lon="9.468845"><ele>933.0</ele><time>2026-04-04T15:13:53.188Z</time></trkpt><trkpt lat="44.6634383" lon="9.4684983"><ele>939.0</ele><time>2026-04-04T15:13:54.188Z</time></trkpt><trkpt lat="44.6633233" lon="9.4681933"><ele>942.3333333333333</ele><time>2026-04-04T15:13:55.188Z</time></trkpt><trkpt lat="44.66323" lon="9.4679383"><ele>945.6666666666666</ele><time>2026-04-04T15:13:56.19Z</time></trkpt><trkpt lat="44.6631617" lon="9.467735"><ele>949.0</ele><time>2026-04-04T15:13:57.189Z</time></trkpt><trkpt lat="44.6631217" lon="9.4675833"><ele>949.0</ele><time>2026-04-04T15:13:58.188Z</time></trkpt><trkpt lat="44.663105" lon="9.4674583"><ele>949.0000000000001</ele><time>2026-04-04T15:13:59.188Z</time></trkpt><trkpt lat="44.663115" lon="9.46734"><ele>949.0000000000001</ele><time>2026-04-04T15:14:00.188Z</time></trkpt><trkpt lat="44.6631767" lon="9.467255"><ele>949.0</ele><time>2026-04-04T15:14:01.189Z</time></trkpt><trkpt lat="44.6632717" lon="9.4672333"><ele>949.0</ele><time>2026-04-04T15:14:02.191Z</time></trkpt><trkpt lat="44.663375" lon="9.4672667"><ele>949.0</ele><time>2026-04-04T15:14:03.19Z</time></trkpt><trkpt lat="44.6634983" lon="9.46733"><ele>949.0</ele><time>2026-04-04T15:14:04.188Z</time></trkpt><trkpt lat="44.6636683" lon="9.4674417"><ele>949.0</ele><time>2026-04-04T15:14:05.188Z</time></trkpt><trkpt lat="44.6639" lon="9.4675783"><ele>952.0</ele><time>2026-04-04T15:14:06.189Z</time></trkpt><trkpt lat="44.664155" lon="9.4677267"><ele>955.0</ele><time>2026-04-04T15:14:07.188Z</time></trkpt><trkpt lat="44.66442" lon="9.4678967"><ele>955.5</ele><time>2026-04-04T15:14:08.189Z</time></trkpt><trkpt lat="44.6646667" lon="9.4680667"><ele>956.0</ele><time>2026-04-04T15:14:09.191Z</time></trkpt><trkpt lat="44.6648967" lon="9.4682333"><ele>956.0</ele><time>2026-04-04T15:14:10.188Z</time></trkpt><trkpt lat="44.6650883" lon="9.4683717"><ele>956.0</ele><time>2026-04-04T15:14:11.189Z</time></trkpt><trkpt lat="44.665225" lon="9.4684683"><ele>956.0</ele><time>2026-04-04T15:14:12.188Z</time></trkpt><trkpt lat="44.6653367" lon="9.46851"><ele>957.5</ele><time>2026-04-04T15:14:13.188Z</time></trkpt><trkpt lat="44.6654633" lon="9.4685"><ele>959.0</ele><time>2026-04-04T15:14:14.188Z</time></trkpt><trkpt lat="44.665585" lon="9.4684267"><ele>960.5</ele><time>2026-04-04T15:14:15.188Z</time></trkpt><trkpt lat="44.6656917" lon="9.4682967"><ele>962.0</ele><time>2026-04-04T15:14:16.189Z</time></trkpt><trkpt lat="44.6657867" lon="9.4681017"><ele>963.6666666666667</ele><time>2026-04-04T15:14:17.188Z</time></trkpt><trkpt lat="44.665855" lon="9.467845"><ele>965.3333333333333</ele><time>2026-04-04T15:14:18.188Z</time></trkpt><trkpt lat="44.6659133" lon="9.467525"><ele>967.0</ele><time>2026-04-04T15:14:19.188Z</time></trkpt><trkpt lat="44.6659733" lon="9.4671667"><ele>968.5</ele><time>2026-04-04T15:14:20.188Z</time></trkpt><trkpt lat="44.6660283" lon="9.4668233"><ele>970.0</ele><time>2026-04-04T15:14:21.188Z</time></trkpt><trkpt lat="44.666075" lon="9.4665233"><ele>971.0</ele><time>2026-04-04T15:14:22.188Z</time></trkpt><trkpt lat="44.6660983" lon="9.46627"><ele>972.0</ele><time>2026-04-04T15:14:23.189Z</time></trkpt><trkpt lat="44.6661017" lon="9.46606"><ele>973.0</ele><time>2026-04-04T15:14:24.188Z</time></trkpt><trkpt lat="44.6660567" lon="9.4658533"><ele>973.0</ele><time>2026-04-04T15:14:25.189Z</time></trkpt><trkpt lat="44.6659567" lon="9.4656417"><ele>973.0</ele><time>2026-04-04T15:14:26.189Z</time></trkpt><trkpt lat="44.6658067" lon="9.4654283"><ele>973.0</ele><time>2026-04-04T15:14:27.189Z</time></trkpt><trkpt lat="44.6656467" lon="9.46521"><ele>974.0</ele><time>2026-04-04T15:14:28.188Z</time></trkpt><trkpt lat="44.66548" lon="9.4649967"><ele>975.0</ele><time>2026-04-04T15:14:29.188Z</time></trkpt><trkpt lat="44.665315" lon="9.4647983"><ele>976.0</ele><time>2026-04-04T15:14:30.189Z</time></trkpt><trkpt lat="44.6651617" lon="9.4646467"><ele>979.3333333333333</ele><time>2026-04-04T15:14:31.189Z</time></trkpt><trkpt lat="44.6650233" lon="9.4645517"><ele>982.6666666666667</ele><time>2026-04-04T15:14:32.189Z</time></trkpt><trkpt lat="44.664875" lon="9.4645183"><ele>986.0</ele><time>2026-04-04T15:14:33.191Z</time></trkpt><trkpt lat="44.66471" lon="9.4645367"><ele>986.0</ele><time>2026-04-04T15:14:34.188Z</time></trkpt><trkpt lat="44.6645617" lon="9.46455"><ele>986.0</ele><time>2026-04-04T15:14:35.188Z</time></trkpt><trkpt lat="44.6644267" lon="9.4645217"><ele>986.0</ele><time>2026-04-04T15:14:36.189Z</time></trkpt><trkpt lat="44.6642833" lon="9.4644367"><ele>986.0</ele><time>2026-04-04T15:14:37.189Z</time></trkpt><trkpt lat="44.6641367" lon="9.46428"><ele>985.5</ele><time>2026-04-04T15:14:38.188Z</time></trkpt><trkpt lat="44.6639717" lon="9.4640733"><ele>985.0</ele><time>2026-04-04T15:14:39.188Z</time></trkpt><trkpt lat="44.6637883" lon="9.4638333"><ele>984.6666666666666</ele><time>2026-04-04T15:14:40.189Z</time></trkpt><trkpt lat="44.66361" lon="9.4635967"><ele>984.3333333333333</ele><time>2026-04-04T15:14:41.188Z</time></trkpt><trkpt lat="44.663465" lon="9.4633983"><ele>984.0</ele><time>2026-04-04T15:14:42.188Z</time></trkpt><trkpt lat="44.6633583" lon="9.4632333"><ele>984.0</ele><time>2026-04-04T15:14:43.189Z</time></trkpt><trkpt lat="44.6632833" lon="9.463055"><ele>984.0</ele><time>2026-04-04T15:14:44.188Z</time></trkpt><trkpt lat="44.66325" lon="9.462835"><ele>984.0</ele><time>2026-04-04T15:14:45.188Z</time></trkpt><trkpt lat="44.6632383" lon="9.462615"><ele>986.5</ele><time>2026-04-04T15:14:46.19Z</time></trkpt><trkpt lat="44.6632083" lon="9.4624333"><ele>989.0</ele><time>2026-04-04T15:14:47.189Z</time></trkpt><trkpt lat="44.6631383" lon="9.4622833"><ele>991.5</ele><time>2026-04-04T15:14:48.188Z</time></trkpt><trkpt lat="44.6630317" lon="9.4621517"><ele>994.0</ele><time>2026-04-04T15:14:49.189Z</time></trkpt><trkpt lat="44.662885" lon="9.4620167"><ele>995.0</ele><time>2026-04-04T15:14:50.19Z</time></trkpt><trkpt lat="44.6627083" lon="9.4618567"><ele>996.0</ele><time>2026-04-04T15:14:51.188Z</time></trkpt><trkpt lat="44.6625167" lon="9.4616783"><ele>997.0</ele><time>2026-04-04T15:14:52.189Z</time></trkpt><trkpt lat="44.6623467" lon="9.4615167"><ele>997.0</ele><time>2026-04-04T15:14:53.188Z</time></trkpt><trkpt lat="44.6622267" lon="9.46139"><ele>997.0</ele><time>2026-04-04T15:14:54.188Z</time></trkpt><trkpt lat="44.66215" lon="9.4612633"><ele>997.0</ele><time>2026-04-04T15:14:55.189Z</time></trkpt><trkpt lat="44.6621133" lon="9.4610917"><ele>997.0</ele><time>2026-04-04T15:14:56.188Z</time></trkpt><trkpt lat="44.6621267" lon="9.46088"><ele>999.3333333333333</ele><time>2026-04-04T15:14:57.188Z</time></trkpt><trkpt lat="44.6621583" lon="9.4606217"><ele>1001.6666666666667</ele><time>2026-04-04T15:14:58.188Z</time></trkpt><trkpt lat="44.6621983" lon="9.4603117"><ele>1004.0</ele><time>2026-04-04T15:14:59.188Z</time></trkpt><trkpt lat="44.6622433" lon="9.459955"><ele>1007.0</ele><time>2026-04-04T15:15:00.188Z</time></trkpt><trkpt lat="44.6622933" lon="9.4595667"><ele>1010.0</ele><time>2026-04-04T15:15:01.189Z</time></trkpt><trkpt lat="44.6623417" lon="9.45916"><ele>1013.0</ele><time>2026-04-04T15:15:02.189Z</time></trkpt><trkpt lat="44.6623867" lon="9.4587833"><ele>1016.0</ele><time>2026-04-04T15:15:03.189Z</time></trkpt><trkpt lat="44.662415" lon="9.45844"><ele>1016.0</ele><time>2026-04-04T15:15:04.188Z</time></trkpt><trkpt lat="44.662415" lon="9.4580917"><ele>1016.0</ele><time>2026-04-04T15:15:05.188Z</time></trkpt><trkpt lat="44.6624033" lon="9.4577417"><ele>1016.0</ele><time>2026-04-04T15:15:06.188Z</time></trkpt><trkpt lat="44.66239" lon="9.45743"><ele>1016.0</ele><time>2026-04-04T15:15:07.189Z</time></trkpt><trkpt lat="44.6623783" lon="9.4571867"><ele>1016.0</ele><time>2026-04-04T15:15:08.189Z</time></trkpt><trkpt lat="44.6623583" lon="9.4570017"><ele>1017.25</ele><time>2026-04-04T15:15:09.188Z</time></trkpt><trkpt lat="44.6623017" lon="9.4568483"><ele>1018.5</ele><time>2026-04-04T15:15:10.189Z</time></trkpt><trkpt lat="44.6621983" lon="9.456735"><ele>1019.75</ele><time>2026-04-04T15:15:11.188Z</time></trkpt><trkpt lat="44.6620567" lon="9.4566783"><ele>1021.0</ele><time>2026-04-04T15:15:12.188Z</time></trkpt><trkpt lat="44.6618733" lon="9.4566783"><ele>1022.0</ele><time>2026-04-04T15:15:13.188Z</time></trkpt><trkpt lat="44.6616517" lon="9.456695"><ele>1023.0</ele><time>2026-04-04T15:15:14.189Z</time></trkpt><trkpt lat="44.6614433" lon="9.4567067"><ele>1024.0</ele><time>2026-04-04T15:15:15.19Z</time></trkpt><trkpt lat="44.6612617" lon="9.45674"><ele>1026.0</ele><time>2026-04-04T15:15:16.191Z</time></trkpt><trkpt lat="44.6610967" lon="9.4568283"><ele>1028.0</ele><time>2026-04-04T15:15:17.188Z</time></trkpt><trkpt lat="44.660945" lon="9.45698"><ele>1030.0</ele><time>2026-04-04T15:15:18.189Z</time></trkpt><trkpt lat="44.6608183" lon="9.4571367"><ele>1027.0</ele><time>2026-04-04T15:15:19.189Z</time></trkpt><trkpt lat="44.6607033" lon="9.4572317"><ele>1024.0</ele><time>2026-04-04T15:15:20.19Z</time></trkpt><trkpt lat="44.6605867" lon="9.4572817"><ele>1021.0</ele><time>2026-04-04T15:15:21.192Z</time></trkpt><trkpt lat="44.6604733" lon="9.4572667"><ele>1018.0</ele><time>2026-04-04T15:15:22.192Z</time></trkpt><trkpt lat="44.6603567" lon="9.4571583"><ele>1022.6666666666666</ele><time>2026-04-04T15:15:23.19Z</time></trkpt><trkpt lat="44.6602267" lon="9.457"><ele>1027.3333333333333</ele><time>2026-04-04T15:15:24.19Z</time></trkpt><trkpt lat="44.66007" lon="9.4568567"><ele>1032.0</ele><time>2026-04-04T15:15:25.221Z</time></trkpt><trkpt lat="44.6598667" lon="9.45674"><ele>1032.0</ele><time>2026-04-04T15:15:26.191Z</time></trkpt><trkpt lat="44.6596233" lon="9.4566367"><ele>1032.0</ele><time>2026-04-04T15:15:27.191Z</time></trkpt><trkpt lat="44.6593517" lon="9.4565433"><ele>1033.0</ele><time>2026-04-04T15:15:28.19Z</time></trkpt><trkpt lat="44.6590883" lon="9.456455"><ele>1034.0</ele><time>2026-04-04T15:15:29.188Z</time></trkpt><trkpt lat="44.6588517" lon="9.456385"><ele>1034.0</ele><time>2026-04-04T15:15:30.189Z</time></trkpt><trkpt lat="44.6586333" lon="9.4563467"><ele>1034.0</ele><time>2026-04-04T15:15:31.188Z</time></trkpt><trkpt lat="44.6584167" lon="9.4563467"><ele>1034.0</ele><time>2026-04-04T15:15:32.189Z</time></trkpt><trkpt lat="44.658185" lon="9.4563833"><ele>1034.0</ele><time>2026-04-04T15:15:33.188Z</time></trkpt><trkpt lat="44.6579617" lon="9.4564383"><ele>1034.0</ele><time>2026-04-04T15:15:34.19Z</time></trkpt><trkpt lat="44.657775" lon="9.45649"><ele>1034.0</ele><time>2026-04-04T15:15:35.188Z</time></trkpt><trkpt lat="44.65763" lon="9.4565183"><ele>1034.25</ele><time>2026-04-04T15:15:36.188Z</time></trkpt><trkpt lat="44.65752" lon="9.4565033"><ele>1034.5</ele><time>2026-04-04T15:15:37.189Z</time></trkpt><trkpt lat="44.65743" lon="9.45643"><ele>1034.75</ele><time>2026-04-04T15:15:38.188Z</time></trkpt><trkpt lat="44.65735" lon="9.4562917"><ele>1035.0</ele><time>2026-04-04T15:15:39.189Z</time></trkpt><trkpt lat="44.657285" lon="9.4560967"><ele>1037.75</ele><time>2026-04-04T15:15:40.191Z</time></trkpt><trkpt lat="44.6572333" lon="9.4558917"><ele>1040.5</ele><time>2026-04-04T15:15:41.189Z</time></trkpt><trkpt lat="44.6571917" lon="9.4557133"><ele>1043.25</ele><time>2026-04-04T15:15:42.188Z</time></trkpt><trkpt lat="44.65717" lon="9.4555383"><ele>1046.0</ele><time>2026-04-04T15:15:43.188Z</time></trkpt><trkpt lat="44.6571767" lon="9.4553567"><ele>1045.6</ele><time>2026-04-04T15:15:44.188Z</time></trkpt><trkpt lat="44.6571833" lon="9.4552033"><ele>1045.1999999999998</ele><time>2026-04-04T15:15:45.188Z</time></trkpt><trkpt lat="44.657145" lon="9.455095"><ele>1044.8000000000002</ele><time>2026-04-04T15:15:46.188Z</time></trkpt><trkpt lat="44.6570617" lon="9.4549917"><ele>1044.4</ele><time>2026-04-04T15:15:47.188Z</time></trkpt><trkpt lat="44.6569333" lon="9.4549183"><ele>1044.0</ele><time>2026-04-04T15:15:48.188Z</time></trkpt><trkpt lat="44.6567833" lon="9.4548833"><ele>1044.0</ele><time>2026-04-04T15:15:49.193Z</time></trkpt><trkpt lat="44.6566383" lon="9.4548367"><ele>1044.0</ele><time>2026-04-04T15:15:50.189Z</time></trkpt><trkpt lat="44.6565033" lon="9.4547733"><ele>1044.0</ele><time>2026-04-04T15:15:51.19Z</time></trkpt><trkpt lat="44.6563683" lon="9.4546583"><ele>1044.0</ele><time>2026-04-04T15:15:52.19Z</time></trkpt><trkpt lat="44.6562367" lon="9.454505"><ele>1045.6666666666667</ele><time>2026-04-04T15:15:53.19Z</time></trkpt><trkpt lat="44.65613" lon="9.45432"><ele>1047.3333333333335</ele><time>2026-04-04T15:15:54.19Z</time></trkpt><trkpt lat="44.656045" lon="9.4541183"><ele>1049.0</ele><time>2026-04-04T15:15:55.191Z</time></trkpt><trkpt lat="44.655975" lon="9.4538817"><ele>1049.6666666666667</ele><time>2026-04-04T15:15:56.19Z</time></trkpt><trkpt lat="44.6559067" lon="9.4536117"><ele>1050.3333333333333</ele><time>2026-04-04T15:15:57.19Z</time></trkpt><trkpt lat="44.65584" lon="9.4533617"><ele>1051.0</ele><time>2026-04-04T15:15:58.19Z</time></trkpt><trkpt lat="44.6557767" lon="9.4531283"><ele>1053.3333333333333</ele><time>2026-04-04T15:15:59.189Z</time></trkpt><trkpt lat="44.6557183" lon="9.4529067"><ele>1055.6666666666667</ele><time>2026-04-04T15:16:00.189Z</time></trkpt><trkpt lat="44.6556667" lon="9.45269"><ele>1058.0</ele><time>2026-04-04T15:16:01.188Z</time></trkpt><trkpt lat="44.6556133" lon="9.452485"><ele>1058.0</ele><time>2026-04-04T15:16:02.188Z</time></trkpt><trkpt lat="44.6555467" lon="9.4522983"><ele>1058.0</ele><time>2026-04-04T15:16:03.188Z</time></trkpt><trkpt lat="44.6554567" lon="9.452125"><ele>1058.0</ele><time>2026-04-04T15:16:04.188Z</time></trkpt><trkpt lat="44.655335" lon="9.451965"><ele>1057.3333333333335</ele><time>2026-04-04T15:16:05.189Z</time></trkpt><trkpt lat="44.6551967" lon="9.4518217"><ele>1056.6666666666667</ele><time>2026-04-04T15:16:06.188Z</time></trkpt><trkpt lat="44.65506" lon="9.4516917"><ele>1056.0</ele><time>2026-04-04T15:16:07.19Z</time></trkpt><trkpt lat="44.6549283" lon="9.451575"><ele>1056.0</ele><time>2026-04-04T15:16:08.189Z</time></trkpt><trkpt lat="44.6547933" lon="9.4514717"><ele>1056.0</ele><time>2026-04-04T15:16:09.19Z</time></trkpt><trkpt lat="44.654645" lon="9.4513967"><ele>1056.0</ele><time>2026-04-04T15:16:10.19Z</time></trkpt><trkpt lat="44.6544983" lon="9.451355"><ele>1057.0</ele><time>2026-04-04T15:16:11.19Z</time></trkpt><trkpt lat="44.654365" lon="9.4513233"><ele>1058.0</ele><time>2026-04-04T15:16:12.188Z</time></trkpt><trkpt lat="44.65425" lon="9.4512917"><ele>1059.0</ele><time>2026-04-04T15:16:13.189Z</time></trkpt><trkpt lat="44.6541533" lon="9.451245"><ele>1060.0</ele><time>2026-04-04T15:16:14.189Z</time></trkpt><trkpt lat="44.6540783" lon="9.4511717"><ele>1061.0</ele><time>2026-04-04T15:16:15.188Z</time></trkpt><trkpt lat="44.6540183" lon="9.451085"><ele>1061.0</ele><time>2026-04-04T15:16:16.188Z</time></trkpt><trkpt lat="44.6539783" lon="9.4509867"><ele>1061.0</ele><time>2026-04-04T15:16:17.188Z</time></trkpt><trkpt lat="44.6539533" lon="9.4508883"><ele>1061.0</ele><time>2026-04-04T15:16:18.19Z</time></trkpt><trkpt lat="44.6539367" lon="9.4507833"><ele>1061.0</ele><time>2026-04-04T15:16:19.189Z</time></trkpt><trkpt lat="44.6539283" lon="9.4506667"><ele>1061.0</ele><time>2026-04-04T15:16:20.193Z</time></trkpt><trkpt lat="44.6539333" lon="9.450535"><ele>1061.0</ele><time>2026-04-04T15:16:21.191Z</time></trkpt><trkpt lat="44.6539483" lon="9.45039"><ele>1061.25</ele><time>2026-04-04T15:16:22.19Z</time></trkpt><trkpt lat="44.65397" lon="9.450235"><ele>1061.5</ele><time>2026-04-04T15:16:23.19Z</time></trkpt><trkpt lat="44.6539933" lon="9.4500733"><ele>1061.75</ele><time>2026-04-04T15:16:24.192Z</time></trkpt><trkpt lat="44.6540233" lon="9.4499167"><ele>1062.0</ele><time>2026-04-04T15:16:25.191Z</time></trkpt><trkpt lat="44.654055" lon="9.4497617"><ele>1059.75</ele><time>2026-04-04T15:16:26.191Z</time></trkpt><trkpt lat="44.6540867" lon="9.4496083"><ele>1057.5</ele><time>2026-04-04T15:16:27.19Z</time></trkpt><trkpt lat="44.6541267" lon="9.449445"><ele>1055.25</ele><time>2026-04-04T15:16:28.191Z</time></trkpt><trkpt lat="44.6541717" lon="9.4492783"><ele>1053.0</ele><time>2026-04-04T15:16:29.19Z</time></trkpt><trkpt lat="44.6542217" lon="9.4490983"><ele>1053.0</ele><time>2026-04-04T15:16:30.19Z</time></trkpt><trkpt lat="44.6542767" lon="9.44892"><ele>1053.0</ele><time>2026-04-04T15:16:31.188Z</time></trkpt><trkpt lat="44.65433" lon="9.4487483"><ele>1053.0</ele><time>2026-04-04T15:16:32.188Z</time></trkpt><trkpt lat="44.65438" lon="9.4485917"><ele>1053.0</ele><time>2026-04-04T15:16:33.188Z</time></trkpt><trkpt lat="44.6544283" lon="9.4484567"><ele>1053.0</ele><time>2026-04-04T15:16:34.189Z</time></trkpt><trkpt lat="44.6544867" lon="9.4483417"><ele>1053.0</ele><time>2026-04-04T15:16:35.189Z</time></trkpt><trkpt lat="44.654565" lon="9.4482433"><ele>1053.0</ele><time>2026-04-04T15:16:36.188Z</time></trkpt><trkpt lat="44.6546767" lon="9.4481567"><ele>1053.0</ele><time>2026-04-04T15:16:37.188Z</time></trkpt><trkpt lat="44.6548117" lon="9.448075"><ele>1053.0</ele><time>2026-04-04T15:16:38.188Z</time></trkpt><trkpt lat="44.6549583" lon="9.4480033"><ele>1053.0</ele><time>2026-04-04T15:16:39.188Z</time></trkpt><trkpt lat="44.6550967" lon="9.4479517"><ele>1053.0</ele><time>2026-04-04T15:16:40.188Z</time></trkpt><trkpt lat="44.65522" lon="9.4479133"><ele>1053.0</ele><time>2026-04-04T15:16:41.191Z</time></trkpt><trkpt lat="44.65534" lon="9.4478933"><ele>1052.2</ele><time>2026-04-04T15:16:42.188Z</time></trkpt><trkpt lat="44.6554467" lon="9.4478767"><ele>1051.4</ele><time>2026-04-04T15:16:43.188Z</time></trkpt><trkpt lat="44.655535" lon="9.447845"><ele>1050.6000000000001</ele><time>2026-04-04T15:16:44.188Z</time></trkpt><trkpt lat="44.65561" lon="9.4477833"><ele>1049.8</ele><time>2026-04-04T15:16:45.188Z</time></trkpt><trkpt lat="44.6556733" lon="9.4477117"><ele>1049.0</ele><time>2026-04-04T15:16:46.189Z</time></trkpt><trkpt lat="44.6557183" lon="9.447595"><ele>1049.0</ele><time>2026-04-04T15:16:47.189Z</time></trkpt><trkpt lat="44.6556767" lon="9.447315"><ele>1049.0</ele><time>2026-04-04T15:16:48.188Z</time></trkpt><trkpt lat="44.655655" lon="9.4470583"><ele>1049.0</ele><time>2026-04-04T15:16:49.19Z</time></trkpt><trkpt lat="44.6556433" lon="9.4468283"><ele>1047.75</ele><time>2026-04-04T15:16:50.19Z</time></trkpt><trkpt lat="44.6556367" lon="9.446635"><ele>1046.5</ele><time>2026-04-04T15:16:51.191Z</time></trkpt><trkpt lat="44.6556617" lon="9.4464667"><ele>1045.25</ele><time>2026-04-04T15:16:52.19Z</time></trkpt><trkpt lat="44.6557117" lon="9.4463083"><ele>1044.0</ele><time>2026-04-04T15:16:53.192Z</time></trkpt><trkpt lat="44.6558067" lon="9.4461617"><ele>1042.25</ele><time>2026-04-04T15:16:54.191Z</time></trkpt><trkpt lat="44.6559317" lon="9.44603"><ele>1040.5</ele><time>2026-04-04T15:16:55.191Z</time></trkpt><trkpt lat="44.6560583" lon="9.4459367"><ele>1038.75</ele><time>2026-04-04T15:16:56.191Z</time></trkpt><trkpt lat="44.6561967" lon="9.4458933"><ele>1037.0</ele><time>2026-04-04T15:16:57.19Z</time></trkpt><trkpt lat="44.6563333" lon="9.4458833"><ele>1037.0</ele><time>2026-04-04T15:16:58.19Z</time></trkpt><trkpt lat="44.6564583" lon="9.4458667"><ele>1037.0</ele><time>2026-04-04T15:16:59.19Z</time></trkpt><trkpt lat="44.6565833" lon="9.4458033"><ele>1037.0</ele><time>2026-04-04T15:17:00.19Z</time></trkpt><trkpt lat="44.6566983" lon="9.4456917"><ele>1037.0</ele><time>2026-04-04T15:17:01.191Z</time></trkpt><trkpt lat="44.65681" lon="9.4455617"><ele>1032.6666666666667</ele><time>2026-04-04T15:17:02.191Z</time></trkpt><trkpt lat="44.65692" lon="9.4454483"><ele>1028.3333333333333</ele><time>2026-04-04T15:17:03.188Z</time></trkpt><trkpt lat="44.6570533" lon="9.445375"><ele>1024.0</ele><time>2026-04-04T15:17:04.189Z</time></trkpt><trkpt lat="44.6572183" lon="9.4453133"><ele>1024.0</ele><time>2026-04-04T15:17:05.189Z</time></trkpt><trkpt lat="44.6573983" lon="9.4452667"><ele>1024.0</ele><time>2026-04-04T15:17:06.189Z</time></trkpt><trkpt lat="44.657565" lon="9.4452267"><ele>1024.0</ele><time>2026-04-04T15:17:07.188Z</time></trkpt><trkpt lat="44.657715" lon="9.4452"><ele>1022.3333333333333</ele><time>2026-04-04T15:17:08.19Z</time></trkpt><trkpt lat="44.6578617" lon="9.4452117"><ele>1020.6666666666667</ele><time>2026-04-04T15:17:09.189Z</time></trkpt><trkpt lat="44.658005" lon="9.4452467"><ele>1019.0</ele><time>2026-04-04T15:17:10.19Z</time></trkpt><trkpt lat="44.6581633" lon="9.4452867"><ele>1019.0</ele><time>2026-04-04T15:17:11.188Z</time></trkpt><trkpt lat="44.658335" lon="9.4453"><ele>1019.0</ele><time>2026-04-04T15:17:12.19Z</time></trkpt><trkpt lat="44.6585083" lon="9.4452917"><ele>1019.0</ele><time>2026-04-04T15:17:13.19Z</time></trkpt><trkpt lat="44.6586733" lon="9.4452833"><ele>1018.0</ele><time>2026-04-04T15:17:14.189Z</time></trkpt><trkpt lat="44.6588267" lon="9.4452617"><ele>1017.0</ele><time>2026-04-04T15:17:15.19Z</time></trkpt><trkpt lat="44.6589633" lon="9.4451967"><ele>1016.0</ele><time>2026-04-04T15:17:16.188Z</time></trkpt><trkpt lat="44.6590933" lon="9.4450933"><ele>1015.0</ele><time>2026-04-04T15:17:17.189Z</time></trkpt><trkpt lat="44.6592183" lon="9.4449583"><ele>1015.0</ele><time>2026-04-04T15:17:18.189Z</time></trkpt><trkpt lat="44.6593517" lon="9.4448033"><ele>1015.0</ele><time>2026-04-04T15:17:19.188Z</time></trkpt><trkpt lat="44.65949" lon="9.444635"><ele>1015.0</ele><time>2026-04-04T15:17:20.19Z</time></trkpt><trkpt lat="44.659625" lon="9.444465"><ele>1014.6666666666666</ele><time>2026-04-04T15:17:21.191Z</time></trkpt><trkpt lat="44.6597567" lon="9.444305"><ele>1014.3333333333333</ele><time>2026-04-04T15:17:22.191Z</time></trkpt><trkpt lat="44.6598817" lon="9.4441533"><ele>1014.0</ele><time>2026-04-04T15:17:23.191Z</time></trkpt><trkpt lat="44.66" lon="9.4440167"><ele>1014.0</ele><time>2026-04-04T15:17:24.189Z</time></trkpt><trkpt lat="44.6601117" lon="9.4439067"><ele>1014.0</ele><time>2026-04-04T15:17:25.188Z</time></trkpt><trkpt lat="44.6602233" lon="9.4438367"><ele>1014.0</ele><time>2026-04-04T15:17:26.188Z</time></trkpt><trkpt lat="44.6603533" lon="9.4437883"><ele>1014.0</ele><time>2026-04-04T15:17:27.188Z</time></trkpt><trkpt lat="44.6605083" lon="9.4437617"><ele>1008.3333333333333</ele><time>2026-04-04T15:17:28.188Z</time></trkpt><trkpt lat="44.660675" lon="9.4437433"><ele>1002.6666666666666</ele><time>2026-04-04T15:17:29.188Z</time></trkpt><trkpt lat="44.6608367" lon="9.443735"><ele>997.0</ele><time>2026-04-04T15:17:30.189Z</time></trkpt><trkpt lat="44.66099" lon="9.4437267"><ele>997.5</ele><time>2026-04-04T15:17:31.189Z</time></trkpt><trkpt lat="44.661135" lon="9.4437183"><ele>998.0</ele><time>2026-04-04T15:17:32.188Z</time></trkpt><trkpt lat="44.6612617" lon="9.4437183"><ele>998.5</ele><time>2026-04-04T15:17:33.189Z</time></trkpt><trkpt lat="44.66137" lon="9.4437333"><ele>999.0</ele><time>2026-04-04T15:17:34.189Z</time></trkpt><trkpt lat="44.6614567" lon="9.4437733"><ele>1001.4000000000001</ele><time>2026-04-04T15:17:35.188Z</time></trkpt><trkpt lat="44.66153" lon="9.4438517"><ele>1003.8000000000001</ele><time>2026-04-04T15:17:36.188Z</time></trkpt><trkpt lat="44.6615983" lon="9.4439733"><ele>1006.1999999999999</ele><time>2026-04-04T15:17:37.189Z</time></trkpt><trkpt lat="44.6616633" lon="9.4440983"><ele>1008.5999999999999</ele><time>2026-04-04T15:17:38.189Z</time></trkpt><trkpt lat="44.6617367" lon="9.4441967"><ele>1011.0</ele><time>2026-04-04T15:17:39.189Z</time></trkpt><trkpt lat="44.661815" lon="9.444265"><ele>1011.0</ele><time>2026-04-04T15:17:40.188Z</time></trkpt><trkpt lat="44.66189" lon="9.44431"><ele>1010.9999999999999</ele><time>2026-04-04T15:17:41.189Z</time></trkpt><trkpt lat="44.661975" lon="9.444285"><ele>1010.9999999999999</ele><time>2026-04-04T15:17:42.193Z</time></trkpt><trkpt lat="44.6620517" lon="9.44423"><ele>1011.0</ele><time>2026-04-04T15:17:43.19Z</time></trkpt><trkpt lat="44.662125" lon="9.4441033"><ele>1011.0</ele><time>2026-04-04T15:17:44.188Z</time></trkpt><trkpt lat="44.662165" lon="9.4439433"><ele>1012.25</ele><time>2026-04-04T15:17:45.188Z</time></trkpt><trkpt lat="44.6621633" lon="9.4437733"><ele>1013.5</ele><time>2026-04-04T15:17:46.188Z</time></trkpt><trkpt lat="44.6621517" lon="9.4435833"><ele>1014.75</ele><time>2026-04-04T15:17:47.189Z</time></trkpt><trkpt lat="44.6621383" lon="9.443385"><ele>1016.0</ele><time>2026-04-04T15:17:48.191Z</time></trkpt><trkpt lat="44.6621383" lon="9.44319"><ele>1016.0</ele><time>2026-04-04T15:17:49.193Z</time></trkpt><trkpt lat="44.6621567" lon="9.4429883"><ele>1016.0</ele><time>2026-04-04T15:17:50.191Z</time></trkpt><trkpt lat="44.66219" lon="9.44279"><ele>1016.0</ele><time>2026-04-04T15:17:51.192Z</time></trkpt><trkpt lat="44.66223" lon="9.4425933"><ele>1016.0</ele><time>2026-04-04T15:17:52.19Z</time></trkpt><trkpt lat="44.66227" lon="9.4424"><ele>1015.0</ele><time>2026-04-04T15:17:53.192Z</time></trkpt><trkpt lat="44.6623117" lon="9.4422083"><ele>1014.0</ele><time>2026-04-04T15:17:54.189Z</time></trkpt><trkpt lat="44.66235" lon="9.44202"><ele>1013.0</ele><time>2026-04-04T15:17:55.189Z</time></trkpt><trkpt lat="44.6623867" lon="9.44184"><ele>1012.0</ele><time>2026-04-04T15:17:56.189Z</time></trkpt><trkpt lat="44.6624233" lon="9.44167"><ele>1009.6</ele><time>2026-04-04T15:17:57.188Z</time></trkpt><trkpt lat="44.6624567" lon="9.4415183"><ele>1007.2</ele><time>2026-04-04T15:17:58.189Z</time></trkpt><trkpt lat="44.6624917" lon="9.44139"><ele>1004.8</ele><time>2026-04-04T15:17:59.19Z</time></trkpt><trkpt lat="44.66253" lon="9.441295"><ele>1002.4</ele><time>2026-04-04T15:18:00.192Z</time></trkpt><trkpt lat="44.6625783" lon="9.4412333"><ele>1000.0</ele><time>2026-04-04T15:18:01.189Z</time></trkpt><trkpt lat="44.6627017" lon="9.4412083"><ele>1000.4</ele><time>2026-04-04T15:18:03.188Z</time></trkpt><trkpt lat="44.66279" lon="9.4412533"><ele>1000.8</ele><time>2026-04-04T15:18:04.189Z</time></trkpt><trkpt lat="44.6628967" lon="9.4413083"><ele>1001.2</ele><time>2026-04-04T15:18:05.19Z</time></trkpt><trkpt lat="44.6630017" lon="9.4413217"><ele>1001.6</ele><time>2026-04-04T15:18:06.189Z</time></trkpt><trkpt lat="44.6631" lon="9.4412917"><ele>1002.0</ele><time>2026-04-04T15:18:07.189Z</time></trkpt><trkpt lat="44.6631783" lon="9.441215"><ele>1002.0</ele><time>2026-04-04T15:18:08.188Z</time></trkpt><trkpt lat="44.6632467" lon="9.44111"><ele>1002.0</ele><time>2026-04-04T15:18:09.191Z</time></trkpt><trkpt lat="44.6633" lon="9.4409933"><ele>1002.0</ele><time>2026-04-04T15:18:10.19Z</time></trkpt><trkpt lat="44.6633417" lon="9.4408683"><ele>1002.0</ele><time>2026-04-04T15:18:11.188Z</time></trkpt><trkpt lat="44.66337" lon="9.4407317"><ele>1002.0</ele><time>2026-04-04T15:18:12.189Z</time></trkpt><trkpt lat="44.6633867" lon="9.4405867"><ele>999.6</ele><time>2026-04-04T15:18:13.188Z</time></trkpt><trkpt lat="44.663395" lon="9.4404433"><ele>997.2</ele><time>2026-04-04T15:18:14.189Z</time></trkpt><trkpt lat="44.663405" lon="9.440305"><ele>994.8</ele><time>2026-04-04T15:18:15.188Z</time></trkpt><trkpt lat="44.6634217" lon="9.44017"><ele>992.4</ele><time>2026-04-04T15:18:16.188Z</time></trkpt><trkpt lat="44.66345" lon="9.440045"><ele>990.0</ele><time>2026-04-04T15:18:17.19Z</time></trkpt><trkpt lat="44.6635033" lon="9.4399383"><ele>990.0</ele><time>2026-04-04T15:18:18.189Z</time></trkpt><trkpt lat="44.6635733" lon="9.4398233"><ele>990.0</ele><time>2026-04-04T15:18:19.189Z</time></trkpt><trkpt lat="44.66365" lon="9.4397017"><ele>990.0</ele><time>2026-04-04T15:18:20.188Z</time></trkpt><trkpt lat="44.6637283" lon="9.4395783"><ele>990.0</ele><time>2026-04-04T15:18:21.189Z</time></trkpt><trkpt lat="44.6638017" lon="9.4394583"><ele>992.1666666666666</ele><time>2026-04-04T15:18:22.188Z</time></trkpt><trkpt lat="44.663865" lon="9.4393433"><ele>994.3333333333333</ele><time>2026-04-04T15:18:23.189Z</time></trkpt><trkpt lat="44.6639217" lon="9.4392317"><ele>996.5</ele><time>2026-04-04T15:18:24.188Z</time></trkpt><trkpt lat="44.6639633" lon="9.43913"><ele>998.6666666666666</ele><time>2026-04-04T15:18:25.188Z</time></trkpt><trkpt lat="44.6639933" lon="9.439045"><ele>1000.8333333333333</ele><time>2026-04-04T15:18:26.188Z</time></trkpt><trkpt lat="44.6640117" lon="9.4389433"><ele>1003.0</ele><time>2026-04-04T15:18:28.188Z</time></trkpt><trkpt lat="44.663955" lon="9.4388867"><ele>1003.0</ele><time>2026-04-04T15:19:24.188Z</time></trkpt><trkpt lat="44.6638417" lon="9.4388133"><ele>1003.0</ele><time>2026-04-04T15:19:26.189Z</time></trkpt><trkpt lat="44.6637583" lon="9.438775"><ele>1003.0</ele><time>2026-04-04T15:19:27.188Z</time></trkpt><trkpt lat="44.6636533" lon="9.43873"><ele>1003.0</ele><time>2026-04-04T15:19:28.188Z</time></trkpt><trkpt lat="44.6635383" lon="9.4386867"><ele>1003.0</ele><time>2026-04-04T15:19:29.188Z</time></trkpt><trkpt lat="44.6634267" lon="9.438645"><ele>999.5999999999999</ele><time>2026-04-04T15:19:30.189Z</time></trkpt><trkpt lat="44.6633333" lon="9.4385933"><ele>996.1999999999999</ele><time>2026-04-04T15:19:31.19Z</time></trkpt><trkpt lat="44.66326" lon="9.43852"><ele>992.8</ele><time>2026-04-04T15:19:32.19Z</time></trkpt><trkpt lat="44.6631983" lon="9.438425"><ele>989.4</ele><time>2026-04-04T15:19:33.19Z</time></trkpt><trkpt lat="44.6631467" lon="9.438305"><ele>986.0</ele><time>2026-04-04T15:19:34.189Z</time></trkpt><trkpt lat="44.6631233" lon="9.438135"><ele>985.6666666666667</ele><time>2026-04-04T15:19:35.189Z</time></trkpt><trkpt lat="44.6631083" lon="9.43794"><ele>985.3333333333333</ele><time>2026-04-04T15:19:36.191Z</time></trkpt><trkpt lat="44.6630983" lon="9.4377183"><ele>985.0</ele><time>2026-04-04T15:19:37.191Z</time></trkpt><trkpt lat="44.6630967" lon="9.4374983"><ele>985.0</ele><time>2026-04-04T15:19:38.188Z</time></trkpt><trkpt lat="44.663105" lon="9.4372767"><ele>985.0</ele><time>2026-04-04T15:19:39.189Z</time></trkpt><trkpt lat="44.6631217" lon="9.437075"><ele>985.0</ele><time>2026-04-04T15:19:40.188Z</time></trkpt><trkpt lat="44.6631467" lon="9.436885"><ele>985.0</ele><time>2026-04-04T15:19:41.188Z</time></trkpt><trkpt lat="44.663185" lon="9.4366917"><ele>984.3333333333333</ele><time>2026-04-04T15:19:42.188Z</time></trkpt><trkpt lat="44.6632467" lon="9.4364767"><ele>983.6666666666667</ele><time>2026-04-04T15:19:43.188Z</time></trkpt><trkpt lat="44.6633283" lon="9.4362383"><ele>983.0</ele><time>2026-04-04T15:19:44.188Z</time></trkpt><trkpt lat="44.6634117" lon="9.43599"><ele>983.3333333333334</ele><time>2026-04-04T15:19:45.189Z</time></trkpt><trkpt lat="44.6634917" lon="9.4357467"><ele>983.6666666666667</ele><time>2026-04-04T15:19:46.188Z</time></trkpt><trkpt lat="44.6635683" lon="9.4355183"><ele>984.0</ele><time>2026-04-04T15:19:47.189Z</time></trkpt><trkpt lat="44.6636433" lon="9.4352983"><ele>984.0</ele><time>2026-04-04T15:19:48.189Z</time></trkpt><trkpt lat="44.663715" lon="9.435085"><ele>984.0</ele><time>2026-04-04T15:19:49.188Z</time></trkpt><trkpt lat="44.663775" lon="9.4348783"><ele>984.0</ele><time>2026-04-04T15:19:50.188Z</time></trkpt><trkpt lat="44.663825" lon="9.4346717"><ele>979.3333333333333</ele><time>2026-04-04T15:19:51.189Z</time></trkpt><trkpt lat="44.6638683" lon="9.4344633"><ele>974.6666666666666</ele><time>2026-04-04T15:19:52.19Z</time></trkpt><trkpt lat="44.6639017" lon="9.4342483"><ele>970.0</ele><time>2026-04-04T15:19:53.19Z</time></trkpt><trkpt lat="44.66393" lon="9.4340417"><ele>970.0</ele><time>2026-04-04T15:19:54.189Z</time></trkpt><trkpt lat="44.6639583" lon="9.4338583"><ele>970.0</ele><time>2026-04-04T15:19:55.188Z</time></trkpt><trkpt lat="44.663995" lon="9.4337067"><ele>970.0</ele><time>2026-04-04T15:19:56.189Z</time></trkpt><trkpt lat="44.6640533" lon="9.4335783"><ele>970.0</ele><time>2026-04-04T15:19:57.188Z</time></trkpt><trkpt lat="44.6641433" lon="9.4334667"><ele>968.0</ele><time>2026-04-04T15:19:58.188Z</time></trkpt><trkpt lat="44.6642333" lon="9.4333733"><ele>966.0</ele><time>2026-04-04T15:19:59.188Z</time></trkpt><trkpt lat="44.6643117" lon="9.4332767"><ele>964.0</ele><time>2026-04-04T15:20:00.188Z</time></trkpt><trkpt lat="44.6643683" lon="9.4331583"><ele>962.0</ele><time>2026-04-04T15:20:01.188Z</time></trkpt><trkpt lat="44.6644083" lon="9.4330117"><ele>960.0</ele><time>2026-04-04T15:20:02.189Z</time></trkpt><trkpt lat="44.664435" lon="9.432845"><ele>961.75</ele><time>2026-04-04T15:20:03.188Z</time></trkpt><trkpt lat="44.6644617" lon="9.4326783"><ele>963.5</ele><time>2026-04-04T15:20:04.189Z</time></trkpt><trkpt lat="44.6644967" lon="9.4325267"><ele>965.25</ele><time>2026-04-04T15:20:05.19Z</time></trkpt><trkpt lat="44.6645617" lon="9.4323933"><ele>967.0</ele><time>2026-04-04T15:20:06.188Z</time></trkpt><trkpt lat="44.6646483" lon="9.43229"><ele>967.0</ele><time>2026-04-04T15:20:07.188Z</time></trkpt><trkpt lat="44.6647617" lon="9.43221"><ele>967.0</ele><time>2026-04-04T15:20:08.193Z</time></trkpt><trkpt lat="44.66489" lon="9.4321433"><ele>967.0</ele><time>2026-04-04T15:20:09.188Z</time></trkpt><trkpt lat="44.6650233" lon="9.43206"><ele>967.0</ele><time>2026-04-04T15:20:10.189Z</time></trkpt><trkpt lat="44.6651467" lon="9.4319617"><ele>962.0</ele><time>2026-04-04T15:20:11.188Z</time></trkpt><trkpt lat="44.6652617" lon="9.43188"><ele>957.0</ele><time>2026-04-04T15:20:12.188Z</time></trkpt><trkpt lat="44.6653783" lon="9.431825"><ele>952.0</ele><time>2026-04-04T15:20:13.188Z</time></trkpt><trkpt lat="44.6655" lon="9.4318033"><ele>947.0</ele><time>2026-04-04T15:20:14.19Z</time></trkpt><trkpt lat="44.6656267" lon="9.4317817"><ele>947.0</ele><time>2026-04-04T15:20:15.189Z</time></trkpt><trkpt lat="44.6657567" lon="9.4317417"><ele>947.0</ele><time>2026-04-04T15:20:16.19Z</time></trkpt><trkpt lat="44.6658867" lon="9.4316867"><ele>947.0</ele><time>2026-04-04T15:20:17.19Z</time></trkpt><trkpt lat="44.6660117" lon="9.431605"><ele>947.0</ele><time>2026-04-04T15:20:18.19Z</time></trkpt><trkpt lat="44.6661333" lon="9.431525"><ele>948.0</ele><time>2026-04-04T15:20:19.191Z</time></trkpt><trkpt lat="44.6662533" lon="9.4314483"><ele>949.0</ele><time>2026-04-04T15:20:20.191Z</time></trkpt><trkpt lat="44.6663733" lon="9.4313783"><ele>950.0</ele><time>2026-04-04T15:20:21.19Z</time></trkpt><trkpt lat="44.6664767" lon="9.4313133"><ele>951.0</ele><time>2026-04-04T15:20:22.191Z</time></trkpt><trkpt lat="44.6665583" lon="9.4312483"><ele>948.1666666666666</ele><time>2026-04-04T15:20:23.19Z</time></trkpt><trkpt lat="44.666625" lon="9.43118"><ele>945.3333333333333</ele><time>2026-04-04T15:20:24.192Z</time></trkpt><trkpt lat="44.6666667" lon="9.4311083"><ele>942.5</ele><time>2026-04-04T15:20:25.189Z</time></trkpt><trkpt lat="44.6666083" lon="9.4309933"><ele>939.6666666666666</ele><time>2026-04-04T15:20:27.189Z</time></trkpt><trkpt lat="44.666535" lon="9.4309833"><ele>936.8333333333333</ele><time>2026-04-04T15:20:28.189Z</time></trkpt><trkpt lat="44.6664533" lon="9.4309883"><ele>934.0</ele><time>2026-04-04T15:20:29.188Z</time></trkpt><trkpt lat="44.6663583" lon="9.4310133"><ele>934.0</ele><time>2026-04-04T15:20:30.19Z</time></trkpt><trkpt lat="44.6662517" lon="9.4310617"><ele>934.0000000000001</ele><time>2026-04-04T15:20:31.188Z</time></trkpt><trkpt lat="44.66615" lon="9.4311033"><ele>934.0000000000001</ele><time>2026-04-04T15:20:32.189Z</time></trkpt><trkpt lat="44.6660567" lon="9.4311317"><ele>934.0</ele><time>2026-04-04T15:20:33.188Z</time></trkpt><trkpt lat="44.665975" lon="9.431135"><ele>934.0</ele><time>2026-04-04T15:20:34.188Z</time></trkpt><trkpt lat="44.665905" lon="9.4311017"><ele>933.9999999999999</ele><time>2026-04-04T15:20:35.189Z</time></trkpt><trkpt lat="44.6658767" lon="9.4310217"><ele>934.0</ele><time>2026-04-04T15:20:36.188Z</time></trkpt><trkpt lat="44.6658967" lon="9.430925"><ele>934.0</ele><time>2026-04-04T15:20:37.188Z</time></trkpt><trkpt lat="44.6659433" lon="9.430835"><ele>934.0</ele><time>2026-04-04T15:20:38.19Z</time></trkpt><trkpt lat="44.66604" lon="9.4307867"><ele>933.9999999999999</ele><time>2026-04-04T15:20:39.188Z</time></trkpt><trkpt lat="44.6661667" lon="9.4307383"><ele>934.0</ele><time>2026-04-04T15:20:40.188Z</time></trkpt><trkpt lat="44.6663017" lon="9.43066"><ele>934.0</ele><time>2026-04-04T15:20:41.188Z</time></trkpt><trkpt lat="44.6664233" lon="9.430535"><ele>934.0</ele><time>2026-04-04T15:20:42.189Z</time></trkpt><trkpt lat="44.6665317" lon="9.4303533"><ele>934.0</ele><time>2026-04-04T15:20:43.188Z</time></trkpt><trkpt lat="44.6666233" lon="9.4301483"><ele>929.0</ele><time>2026-04-04T15:20:44.19Z</time></trkpt><trkpt lat="44.666715" lon="9.4299517"><ele>924.0</ele><time>2026-04-04T15:20:45.188Z</time></trkpt><trkpt lat="44.666815" lon="9.429775"><ele>919.0</ele><time>2026-04-04T15:20:46.19Z</time></trkpt><trkpt lat="44.6669317" lon="9.42961"><ele>919.6666666666666</ele><time>2026-04-04T15:20:47.189Z</time></trkpt><trkpt lat="44.66706" lon="9.4294683"><ele>920.3333333333333</ele><time>2026-04-04T15:20:48.189Z</time></trkpt><trkpt lat="44.6671883" lon="9.42935"><ele>921.0</ele><time>2026-04-04T15:20:49.188Z</time></trkpt><trkpt lat="44.6673" lon="9.429245"><ele>921.0</ele><time>2026-04-04T15:20:50.189Z</time></trkpt><trkpt lat="44.6673917" lon="9.429155"><ele>921.0</ele><time>2026-04-04T15:20:51.189Z</time></trkpt><trkpt lat="44.667455" lon="9.429035"><ele>921.0</ele><time>2026-04-04T15:20:52.188Z</time></trkpt><trkpt lat="44.667485" lon="9.428885"><ele>921.0</ele><time>2026-04-04T15:20:53.188Z</time></trkpt><trkpt lat="44.6674783" lon="9.428705"><ele>918.75</ele><time>2026-04-04T15:20:54.188Z</time></trkpt><trkpt lat="44.6674517" lon="9.428505"><ele>916.5</ele><time>2026-04-04T15:20:55.189Z</time></trkpt><trkpt lat="44.6674217" lon="9.4282983"><ele>914.25</ele><time>2026-04-04T15:20:56.189Z</time></trkpt><trkpt lat="44.6673933" lon="9.4280933"><ele>912.0</ele><time>2026-04-04T15:20:57.188Z</time></trkpt><trkpt lat="44.66737" lon="9.4278983"><ele>910.75</ele><time>2026-04-04T15:20:58.188Z</time></trkpt><trkpt lat="44.6673483" lon="9.4277117"><ele>909.5</ele><time>2026-04-04T15:20:59.188Z</time></trkpt><trkpt lat="44.667325" lon="9.4275317"><ele>908.25</ele><time>2026-04-04T15:21:00.19Z</time></trkpt><trkpt lat="44.6673017" lon="9.4273633"><ele>907.0</ele><time>2026-04-04T15:21:01.19Z</time></trkpt><trkpt lat="44.6672867" lon="9.4272117"><ele>906.4000000000001</ele><time>2026-04-04T15:21:02.188Z</time></trkpt><trkpt lat="44.6672933" lon="9.427085"><ele>905.8000000000001</ele><time>2026-04-04T15:21:03.189Z</time></trkpt><trkpt lat="44.66732" lon="9.4269733"><ele>905.2</ele><time>2026-04-04T15:21:04.188Z</time></trkpt><trkpt lat="44.667375" lon="9.4268717"><ele>904.6</ele><time>2026-04-04T15:21:05.189Z</time></trkpt><trkpt lat="44.6674833" lon="9.426795"><ele>904.0</ele><time>2026-04-04T15:21:06.188Z</time></trkpt><trkpt lat="44.6676" lon="9.426715"><ele>904.0</ele><time>2026-04-04T15:21:07.188Z</time></trkpt><trkpt lat="44.6677117" lon="9.42665"><ele>904.0</ele><time>2026-04-04T15:21:08.188Z</time></trkpt><trkpt lat="44.6678317" lon="9.426615"><ele>904.0</ele><time>2026-04-04T15:21:09.189Z</time></trkpt><trkpt lat="44.6679567" lon="9.4266083"><ele>904.0</ele><time>2026-04-04T15:21:10.189Z</time></trkpt><trkpt lat="44.6680867" lon="9.4266267"><ele>902.5</ele><time>2026-04-04T15:21:11.189Z</time></trkpt><trkpt lat="44.6682133" lon="9.4266733"><ele>901.0</ele><time>2026-04-04T15:21:12.19Z</time></trkpt><trkpt lat="44.66833" lon="9.42675"><ele>899.5</ele><time>2026-04-04T15:21:13.189Z</time></trkpt><trkpt lat="44.66843" lon="9.4268633"><ele>898.0</ele><time>2026-04-04T15:21:14.189Z</time></trkpt><trkpt lat="44.6685117" lon="9.42701"><ele>899.5</ele><time>2026-04-04T15:21:15.188Z</time></trkpt><trkpt lat="44.66859" lon="9.42717"><ele>901.0</ele><time>2026-04-04T15:21:16.188Z</time></trkpt><trkpt lat="44.6686733" lon="9.4273267"><ele>902.5</ele><time>2026-04-04T15:21:17.188Z</time></trkpt><trkpt lat="44.6687517" lon="9.4274617"><ele>904.0</ele><time>2026-04-04T15:21:18.189Z</time></trkpt><trkpt lat="44.6688367" lon="9.4275667"><ele>904.0</ele><time>2026-04-04T15:21:19.189Z</time></trkpt><trkpt lat="44.6689333" lon="9.4276383"><ele>904.0</ele><time>2026-04-04T15:21:20.188Z</time></trkpt><trkpt lat="44.66904" lon="9.4276733"><ele>904.0</ele><time>2026-04-04T15:21:21.188Z</time></trkpt><trkpt lat="44.6691517" lon="9.4276583"><ele>904.0</ele><time>2026-04-04T15:21:22.188Z</time></trkpt><trkpt lat="44.6692617" lon="9.4275917"><ele>904.0</ele><time>2026-04-04T15:21:23.189Z</time></trkpt><trkpt lat="44.66936" lon="9.42746"><ele>904.0</ele><time>2026-04-04T15:21:24.188Z</time></trkpt><trkpt lat="44.66944" lon="9.42727"><ele>904.0</ele><time>2026-04-04T15:21:25.188Z</time></trkpt><trkpt lat="44.66951" lon="9.4270267"><ele>909.5</ele><time>2026-04-04T15:21:26.19Z</time></trkpt><trkpt lat="44.6695867" lon="9.4267317"><ele>915.0</ele><time>2026-04-04T15:21:27.189Z</time></trkpt><trkpt lat="44.66967" lon="9.4263967"><ele>911.5</ele><time>2026-04-04T15:21:28.189Z</time></trkpt><trkpt lat="44.6697467" lon="9.4260667"><ele>908.0</ele><time>2026-04-04T15:21:29.189Z</time></trkpt><trkpt lat="44.669805" lon="9.4257533"><ele>904.3333333333334</ele><time>2026-04-04T15:21:30.188Z</time></trkpt><trkpt lat="44.669845" lon="9.425465"><ele>900.6666666666667</ele><time>2026-04-04T15:21:31.189Z</time></trkpt><trkpt lat="44.669885" lon="9.425195"><ele>897.0</ele><time>2026-04-04T15:21:32.188Z</time></trkpt><trkpt lat="44.6699233" lon="9.42494"><ele>897.0</ele><time>2026-04-04T15:21:33.188Z</time></trkpt><trkpt lat="44.6699683" lon="9.424695"><ele>897.0</ele><time>2026-04-04T15:21:34.189Z</time></trkpt><trkpt lat="44.6700283" lon="9.424465"><ele>897.0</ele><time>2026-04-04T15:21:35.189Z</time></trkpt><trkpt lat="44.67011" lon="9.4242383"><ele>895.75</ele><time>2026-04-04T15:21:36.188Z</time></trkpt><trkpt lat="44.6701967" lon="9.42403"><ele>894.5</ele><time>2026-04-04T15:21:37.188Z</time></trkpt><trkpt lat="44.6702667" lon="9.4238533"><ele>893.25</ele><time>2026-04-04T15:21:38.189Z</time></trkpt><trkpt lat="44.6703217" lon="9.4237117"><ele>892.0</ele><time>2026-04-04T15:21:39.189Z</time></trkpt><trkpt lat="44.670345" lon="9.4235733"><ele>891.0</ele><time>2026-04-04T15:21:40.188Z</time></trkpt><trkpt lat="44.6703367" lon="9.4234217"><ele>890.0</ele><time>2026-04-04T15:21:41.188Z</time></trkpt><trkpt lat="44.6702767" lon="9.4232567"><ele>889.0</ele><time>2026-04-04T15:21:42.189Z</time></trkpt><trkpt lat="44.67021" lon="9.42307"><ele>888.0</ele><time>2026-04-04T15:21:43.189Z</time></trkpt><trkpt lat="44.67016" lon="9.4228683"><ele>887.0</ele><time>2026-04-04T15:21:44.19Z</time></trkpt><trkpt lat="44.6701467" lon="9.4226267"><ele>886.0</ele><time>2026-04-04T15:21:45.189Z</time></trkpt><trkpt lat="44.67015" lon="9.4223533"><ele>885.0</ele><time>2026-04-04T15:21:46.188Z</time></trkpt><trkpt lat="44.6701517" lon="9.4220867"><ele>883.6666666666667</ele><time>2026-04-04T15:21:47.188Z</time></trkpt><trkpt lat="44.670155" lon="9.4218433"><ele>882.3333333333334</ele><time>2026-04-04T15:21:48.189Z</time></trkpt><trkpt lat="44.6701567" lon="9.4216267"><ele>881.0</ele><time>2026-04-04T15:21:49.188Z</time></trkpt><trkpt lat="44.6701733" lon="9.4214333"><ele>879.6666666666667</ele><time>2026-04-04T15:21:50.188Z</time></trkpt><trkpt lat="44.6702667" lon="9.42116"><ele>878.3333333333333</ele><time>2026-04-04T15:21:52.189Z</time></trkpt><trkpt lat="44.6703683" lon="9.421085"><ele>877.0</ele><time>2026-04-04T15:21:53.188Z</time></trkpt><trkpt lat="44.6705033" lon="9.4210533"><ele>879.75</ele><time>2026-04-04T15:21:54.188Z</time></trkpt><trkpt lat="44.67066" lon="9.4210567"><ele>882.5</ele><time>2026-04-04T15:21:55.19Z</time></trkpt><trkpt lat="44.6707983" lon="9.4210267"><ele>885.25</ele><time>2026-04-04T15:21:56.191Z</time></trkpt><trkpt lat="44.6709167" lon="9.4209583"><ele>888.0</ele><time>2026-04-04T15:21:57.19Z</time></trkpt><trkpt lat="44.67102" lon="9.4208367"><ele>889.5</ele><time>2026-04-04T15:21:58.19Z</time></trkpt><trkpt lat="44.6711117" lon="9.4206517"><ele>891.0</ele><time>2026-04-04T15:21:59.191Z</time></trkpt><trkpt lat="44.67119" lon="9.4204867"><ele>892.5</ele><time>2026-04-04T15:22:00.192Z</time></trkpt><trkpt lat="44.6712683" lon="9.4203567"><ele>894.0</ele><time>2026-04-04T15:22:01.195Z</time></trkpt><trkpt lat="44.6713633" lon="9.4202817"><ele>894.0</ele><time>2026-04-04T15:22:02.191Z</time></trkpt><trkpt lat="44.6714767" lon="9.420265"><ele>894.0</ele><time>2026-04-04T15:22:03.19Z</time></trkpt><trkpt lat="44.6715917" lon="9.420295"><ele>894.0</ele><time>2026-04-04T15:22:04.19Z</time></trkpt><trkpt lat="44.67169" lon="9.4203783"><ele>894.0</ele><time>2026-04-04T15:22:05.192Z</time></trkpt><trkpt lat="44.671785" lon="9.4205217"><ele>894.0</ele><time>2026-04-04T15:22:06.191Z</time></trkpt><trkpt lat="44.6718717" lon="9.42065"><ele>894.0</ele><time>2026-04-04T15:22:07.19Z</time></trkpt><trkpt lat="44.67197" lon="9.4207483"><ele>894.0</ele><time>2026-04-04T15:22:08.191Z</time></trkpt><trkpt lat="44.6720933" lon="9.4207883"><ele>894.0</ele><time>2026-04-04T15:22:09.19Z</time></trkpt><trkpt lat="44.67224" lon="9.4208033"><ele>891.3333333333333</ele><time>2026-04-04T15:22:10.19Z</time></trkpt><trkpt lat="44.6724283" lon="9.42078"><ele>888.6666666666666</ele><time>2026-04-04T15:22:11.192Z</time></trkpt><trkpt lat="44.672595" lon="9.4207517"><ele>886.0</ele><time>2026-04-04T15:22:12.191Z</time></trkpt><trkpt lat="44.6727467" lon="9.4206983"><ele>888.6666666666666</ele><time>2026-04-04T15:22:13.191Z</time></trkpt><trkpt lat="44.6729" lon="9.4205867"><ele>891.3333333333333</ele><time>2026-04-04T15:22:14.191Z</time></trkpt><trkpt lat="44.6730683" lon="9.42047"><ele>894.0</ele><time>2026-04-04T15:22:15.19Z</time></trkpt><trkpt lat="44.6732483" lon="9.4203667"><ele>886.6666666666667</ele><time>2026-04-04T15:22:16.188Z</time></trkpt><trkpt lat="44.6734217" lon="9.4202983"><ele>879.3333333333334</ele><time>2026-04-04T15:22:17.188Z</time></trkpt><trkpt lat="44.6735867" lon="9.42027"><ele>872.0</ele><time>2026-04-04T15:22:18.189Z</time></trkpt><trkpt lat="44.6737333" lon="9.4202517"><ele>872.0</ele><time>2026-04-04T15:22:19.189Z</time></trkpt><trkpt lat="44.673875" lon="9.42022"><ele>872.0</ele><time>2026-04-04T15:22:20.19Z</time></trkpt><trkpt lat="44.67401" lon="9.42013"><ele>872.0</ele><time>2026-04-04T15:22:21.189Z</time></trkpt><trkpt lat="44.6741417" lon="9.4200417"><ele>872.0</ele><time>2026-04-04T15:22:22.189Z</time></trkpt><trkpt lat="44.6742467" lon="9.4199917"><ele>872.0</ele><time>2026-04-04T15:22:23.188Z</time></trkpt><trkpt lat="44.6743367" lon="9.4199933"><ele>872.0</ele><time>2026-04-04T15:22:24.189Z</time></trkpt><trkpt lat="44.674415" lon="9.420055"><ele>872.0</ele><time>2026-04-04T15:22:25.189Z</time></trkpt><trkpt lat="44.674485" lon="9.4201783"><ele>872.0</ele><time>2026-04-04T15:22:26.191Z</time></trkpt><trkpt lat="44.6745483" lon="9.42033"><ele>872.0</ele><time>2026-04-04T15:22:27.188Z</time></trkpt><trkpt lat="44.674615" lon="9.4204933"><ele>872.75</ele><time>2026-04-04T15:22:28.191Z</time></trkpt><trkpt lat="44.67469" lon="9.420645"><ele>873.5</ele><time>2026-04-04T15:22:29.193Z</time></trkpt><trkpt lat="44.67478" lon="9.4207733"><ele>874.25</ele><time>2026-04-04T15:22:30.19Z</time></trkpt><trkpt lat="44.6748967" lon="9.4208633"><ele>875.0</ele><time>2026-04-04T15:22:31.19Z</time></trkpt><trkpt lat="44.6750283" lon="9.4209267"><ele>875.0</ele><time>2026-04-04T15:22:32.189Z</time></trkpt><trkpt lat="44.6751767" lon="9.4209683"><ele>875.0</ele><time>2026-04-04T15:22:33.188Z</time></trkpt><trkpt lat="44.6753217" lon="9.4210033"><ele>875.0</ele><time>2026-04-04T15:22:34.188Z</time></trkpt><trkpt lat="44.6754617" lon="9.4210567"><ele>875.0</ele><time>2026-04-04T15:22:35.189Z</time></trkpt><trkpt lat="44.6756" lon="9.4211383"><ele>875.3333333333334</ele><time>2026-04-04T15:22:36.19Z</time></trkpt><trkpt lat="44.6757433" lon="9.421245"><ele>875.6666666666667</ele><time>2026-04-04T15:22:37.19Z</time></trkpt><trkpt lat="44.6758883" lon="9.4213617"><ele>876.0</ele><time>2026-04-04T15:22:38.191Z</time></trkpt><trkpt lat="44.6760317" lon="9.42148"><ele>869.3333333333333</ele><time>2026-04-04T15:22:39.189Z</time></trkpt><trkpt lat="44.67617" lon="9.421605"><ele>862.6666666666666</ele><time>2026-04-04T15:22:40.19Z</time></trkpt><trkpt lat="44.6763" lon="9.42175"><ele>856.0</ele><time>2026-04-04T15:22:41.188Z</time></trkpt><trkpt lat="44.6764217" lon="9.4218967"><ele>856.0</ele><time>2026-04-04T15:22:42.189Z</time></trkpt><trkpt lat="44.6765267" lon="9.4220317"><ele>856.0</ele><time>2026-04-04T15:22:43.188Z</time></trkpt><trkpt lat="44.676625" lon="9.4221333"><ele>856.0</ele><time>2026-04-04T15:22:44.191Z</time></trkpt><trkpt lat="44.6767217" lon="9.4221883"><ele>856.0</ele><time>2026-04-04T15:22:45.193Z</time></trkpt><trkpt lat="44.6768183" lon="9.4221983"><ele>857.0</ele><time>2026-04-04T15:22:46.19Z</time></trkpt><trkpt lat="44.67691" lon="9.422155"><ele>858.0</ele><time>2026-04-04T15:22:47.191Z</time></trkpt><trkpt lat="44.676995" lon="9.422065"><ele>859.0</ele><time>2026-04-04T15:22:48.192Z</time></trkpt><trkpt lat="44.6770683" lon="9.4219267"><ele>860.0</ele><time>2026-04-04T15:22:49.19Z</time></trkpt><trkpt lat="44.677135" lon="9.4217283"><ele>860.0</ele><time>2026-04-04T15:22:50.197Z</time></trkpt><trkpt lat="44.6771933" lon="9.4215183"><ele>860.0</ele><time>2026-04-04T15:22:51.19Z</time></trkpt><trkpt lat="44.6772417" lon="9.4213067"><ele>860.0</ele><time>2026-04-04T15:22:52.19Z</time></trkpt><trkpt lat="44.6772833" lon="9.421095"><ele>860.5</ele><time>2026-04-04T15:22:53.19Z</time></trkpt><trkpt lat="44.6773217" lon="9.4208883"><ele>861.0</ele><time>2026-04-04T15:22:54.189Z</time></trkpt><trkpt lat="44.6773667" lon="9.4206883"><ele>861.5</ele><time>2026-04-04T15:22:55.188Z</time></trkpt><trkpt lat="44.6774117" lon="9.4205033"><ele>862.0</ele><time>2026-04-04T15:22:56.19Z</time></trkpt><trkpt lat="44.6774583" lon="9.4203333"><ele>860.6</ele><time>2026-04-04T15:22:57.19Z</time></trkpt><trkpt lat="44.6775033" lon="9.420185"><ele>859.2</ele><time>2026-04-04T15:22:58.189Z</time></trkpt><trkpt lat="44.67756" lon="9.420055"><ele>857.8</ele><time>2026-04-04T15:22:59.189Z</time></trkpt><trkpt lat="44.6776417" lon="9.4199567"><ele>856.4</ele><time>2026-04-04T15:23:00.188Z</time></trkpt><trkpt lat="44.677745" lon="9.4199017"><ele>855.0</ele><time>2026-04-04T15:23:01.188Z</time></trkpt><trkpt lat="44.6778667" lon="9.4198917"><ele>855.0</ele><time>2026-04-04T15:23:02.189Z</time></trkpt><trkpt lat="44.6780033" lon="9.4199117"><ele>855.0</ele><time>2026-04-04T15:23:03.188Z</time></trkpt><trkpt lat="44.6781417" lon="9.4199633"><ele>855.0</ele><time>2026-04-04T15:23:04.188Z</time></trkpt><trkpt lat="44.678275" lon="9.4200283"><ele>855.0</ele><time>2026-04-04T15:23:05.189Z</time></trkpt><trkpt lat="44.6783917" lon="9.4201183"><ele>855.0</ele><time>2026-04-04T15:23:06.188Z</time></trkpt><trkpt lat="44.67849" lon="9.4202033"><ele>855.0</ele><time>2026-04-04T15:23:07.188Z</time></trkpt><trkpt lat="44.6785817" lon="9.4202583"><ele>855.0</ele><time>2026-04-04T15:23:08.189Z</time></trkpt><trkpt lat="44.6786733" lon="9.4202717"><ele>855.0</ele><time>2026-04-04T15:23:09.189Z</time></trkpt><trkpt lat="44.6787633" lon="9.4202517"><ele>855.0</ele><time>2026-04-04T15:23:10.188Z</time></trkpt><trkpt lat="44.6788483" lon="9.4202"><ele>857.2</ele><time>2026-04-04T15:23:11.188Z</time></trkpt><trkpt lat="44.678915" lon="9.4201267"><ele>859.4</ele><time>2026-04-04T15:23:12.189Z</time></trkpt><trkpt lat="44.6789667" lon="9.4200317"><ele>861.5999999999999</ele><time>2026-04-04T15:23:13.189Z</time></trkpt><trkpt lat="44.678985" lon="9.419905"><ele>863.8</ele><time>2026-04-04T15:23:14.189Z</time></trkpt><trkpt lat="44.6789667" lon="9.4197767"><ele>866.0</ele><time>2026-04-04T15:23:15.188Z</time></trkpt><trkpt lat="44.6789283" lon="9.4196517"><ele>867.5999999999999</ele><time>2026-04-04T15:23:16.19Z</time></trkpt><trkpt lat="44.67888" lon="9.4195217"><ele>869.1999999999999</ele><time>2026-04-04T15:23:17.189Z</time></trkpt><trkpt lat="44.6788233" lon="9.4193983"><ele>870.8000000000001</ele><time>2026-04-04T15:23:18.19Z</time></trkpt><trkpt lat="44.67877" lon="9.4192683"><ele>872.4000000000001</ele><time>2026-04-04T15:23:19.189Z</time></trkpt><trkpt lat="44.6787217" lon="9.4191567"><ele>874.0</ele><time>2026-04-04T15:23:20.19Z</time></trkpt><trkpt lat="44.67867" lon="9.4190483"><ele>874.0</ele><time>2026-04-04T15:23:21.19Z</time></trkpt><trkpt lat="44.6786167" lon="9.4189383"><ele>874.0000000000001</ele><time>2026-04-04T15:23:22.192Z</time></trkpt><trkpt lat="44.6785567" lon="9.4188283"><ele>874.0000000000001</ele><time>2026-04-04T15:23:23.191Z</time></trkpt><trkpt lat="44.6784983" lon="9.4187083"><ele>874.0</ele><time>2026-04-04T15:23:24.189Z</time></trkpt><trkpt lat="44.6784533" lon="9.418585"><ele>874.0</ele><time>2026-04-04T15:23:25.189Z</time></trkpt><trkpt lat="44.67842" lon="9.4184417"><ele>867.5</ele><time>2026-04-04T15:23:26.189Z</time></trkpt><trkpt lat="44.6784017" lon="9.41828"><ele>861.0</ele><time>2026-04-04T15:23:27.188Z</time></trkpt><trkpt lat="44.678395" lon="9.418115"><ele>854.5</ele><time>2026-04-04T15:23:28.189Z</time></trkpt><trkpt lat="44.6783983" lon="9.4179483"><ele>848.0</ele><time>2026-04-04T15:23:29.188Z</time></trkpt><trkpt lat="44.6784033" lon="9.4177917"><ele>848.0000000000001</ele><time>2026-04-04T15:23:30.188Z</time></trkpt><trkpt lat="44.6784033" lon="9.4176483"><ele>848.0</ele><time>2026-04-04T15:23:31.188Z</time></trkpt><trkpt lat="44.6784017" lon="9.4175367"><ele>848.0</ele><time>2026-04-04T15:23:32.189Z</time></trkpt><trkpt lat="44.6784067" lon="9.4174"><ele>848.0</ele><time>2026-04-04T15:23:34.189Z</time></trkpt><trkpt lat="44.6784683" lon="9.41743"><ele>848.0000000000001</ele><time>2026-04-04T15:23:37.188Z</time></trkpt><trkpt lat="44.6785033" lon="9.4175333"><ele>848.0</ele><time>2026-04-04T15:23:39.188Z</time></trkpt><trkpt lat="44.678525" lon="9.4176833"><ele>848.0</ele><time>2026-04-04T15:23:41.188Z</time></trkpt><trkpt lat="44.6785467" lon="9.417845"><ele>848.0</ele><time>2026-04-04T15:23:43.189Z</time></trkpt><trkpt lat="44.6785667" lon="9.4180117"><ele>848.0</ele><time>2026-04-04T15:23:45.188Z</time></trkpt><trkpt lat="44.6785967" lon="9.418145"><ele>848.0</ele><time>2026-04-04T15:23:47.191Z</time></trkpt><trkpt lat="44.6786633" lon="9.41826"><ele>848.0</ele><time>2026-04-04T15:24:14.192Z</time></trkpt><trkpt lat="44.6787483" lon="9.4182767"><ele>851.8</ele><time>2026-04-04T15:24:16.191Z</time></trkpt><trkpt lat="44.67882" lon="9.41819"><ele>855.5999999999999</ele><time>2026-04-04T15:24:18.191Z</time></trkpt><trkpt lat="44.678865" lon="9.4180183"><ele>859.4000000000001</ele><time>2026-04-04T15:24:20.191Z</time></trkpt><trkpt lat="44.6788883" lon="9.4179117"><ele>863.2</ele><time>2026-04-04T15:24:21.191Z</time></trkpt><trkpt lat="44.6789183" lon="9.4178183"><ele>867.0</ele><time>2026-04-04T15:24:22.19Z</time></trkpt><trkpt lat="44.6789617" lon="9.4177267"><ele>867.0</ele><time>2026-04-04T15:24:23.191Z</time></trkpt><trkpt lat="44.6790183" lon="9.4176217"><ele>867.0</ele><time>2026-04-04T15:24:24.189Z</time></trkpt><trkpt lat="44.6790917" lon="9.4174867"><ele>867.0</ele><time>2026-04-04T15:24:25.189Z</time></trkpt><trkpt lat="44.6791667" lon="9.4173533"><ele>867.0</ele><time>2026-04-04T15:24:26.19Z</time></trkpt><trkpt lat="44.6792317" lon="9.4172417"><ele>867.0</ele><time>2026-04-04T15:24:27.193Z</time></trkpt><trkpt lat="44.679295" lon="9.4171517"><ele>866.8</ele><time>2026-04-04T15:24:28.192Z</time></trkpt><trkpt lat="44.6793633" lon="9.4170767"><ele>866.6</ele><time>2026-04-04T15:24:29.188Z</time></trkpt><trkpt lat="44.6794433" lon="9.4170033"><ele>866.3999999999999</ele><time>2026-04-04T15:24:30.189Z</time></trkpt><trkpt lat="44.6795267" lon="9.41693"><ele>866.1999999999999</ele><time>2026-04-04T15:24:31.188Z</time></trkpt><trkpt lat="44.67961" lon="9.416845"><ele>866.0</ele><time>2026-04-04T15:24:32.191Z</time></trkpt><trkpt lat="44.6796883" lon="9.4167633"><ele>868.0000000000001</ele><time>2026-04-04T15:24:33.191Z</time></trkpt><trkpt lat="44.6797583" lon="9.4167"><ele>870.0</ele><time>2026-04-04T15:24:34.189Z</time></trkpt><trkpt lat="44.6798167" lon="9.4166583"><ele>872.0</ele><time>2026-04-04T15:24:35.189Z</time></trkpt><trkpt lat="44.67992" lon="9.416675"><ele>874.0</ele><time>2026-04-04T15:24:37.19Z</time></trkpt><trkpt lat="44.6799633" lon="9.416755"><ele>876.0000000000001</ele><time>2026-04-04T15:24:38.189Z</time></trkpt><trkpt lat="44.6800033" lon="9.4168567"><ele>878.0</ele><time>2026-04-04T15:24:39.189Z</time></trkpt><trkpt lat="44.6800483" lon="9.4169783"><ele>878.0</ele><time>2026-04-04T15:24:40.189Z</time></trkpt><trkpt lat="44.6801017" lon="9.4171033"><ele>878.0</ele><time>2026-04-04T15:24:41.188Z</time></trkpt><trkpt lat="44.6801617" lon="9.41721"><ele>878.0</ele><time>2026-04-04T15:24:42.189Z</time></trkpt><trkpt lat="44.6802317" lon="9.417305"><ele>878.0</ele><time>2026-04-04T15:24:43.189Z</time></trkpt><trkpt lat="44.6802967" lon="9.4173917"><ele>878.0</ele><time>2026-04-04T15:24:44.189Z</time></trkpt><trkpt lat="44.680345" lon="9.4174667"><ele>878.8</ele><time>2026-04-04T15:24:45.19Z</time></trkpt><trkpt lat="44.6803567" lon="9.4176133"><ele>879.5999999999999</ele><time>2026-04-04T15:24:47.19Z</time></trkpt><trkpt lat="44.6802733" lon="9.4177333"><ele>880.4000000000001</ele><time>2026-04-04T15:24:49.19Z</time></trkpt><trkpt lat="44.6802117" lon="9.4177917"><ele>881.2</ele><time>2026-04-04T15:24:50.191Z</time></trkpt><trkpt lat="44.68012" lon="9.4178383"><ele>882.0</ele><time>2026-04-04T15:24:51.192Z</time></trkpt><trkpt lat="44.68003" lon="9.41788"><ele>882.0</ele><time>2026-04-04T15:24:52.191Z</time></trkpt><trkpt lat="44.6799417" lon="9.41792"><ele>882.0</ele><time>2026-04-04T15:24:53.191Z</time></trkpt><trkpt lat="44.679865" lon="9.4179683"><ele>882.0</ele><time>2026-04-04T15:24:54.193Z</time></trkpt><trkpt lat="44.67981" lon="9.41803"><ele>882.0</ele><time>2026-04-04T15:24:55.191Z</time></trkpt><trkpt lat="44.6797683" lon="9.4180983"><ele>882.0</ele><time>2026-04-04T15:24:56.192Z</time></trkpt><trkpt lat="44.67974" lon="9.41819"><ele>882.0</ele><time>2026-04-04T15:24:57.191Z</time></trkpt><trkpt lat="44.6797317" lon="9.4183033"><ele>884.2</ele><time>2026-04-04T15:24:58.188Z</time></trkpt><trkpt lat="44.6797433" lon="9.418435"><ele>886.4000000000001</ele><time>2026-04-04T15:24:59.189Z</time></trkpt><trkpt lat="44.6797683" lon="9.4185783"><ele>888.5999999999999</ele><time>2026-04-04T15:25:00.19Z</time></trkpt><trkpt lat="44.6797983" lon="9.4187083"><ele>890.8</ele><time>2026-04-04T15:25:01.191Z</time></trkpt><trkpt lat="44.67984" lon="9.4188333"><ele>893.0</ele><time>2026-04-04T15:25:02.19Z</time></trkpt><trkpt lat="44.679875" lon="9.41895"><ele>894.5999999999999</ele><time>2026-04-04T15:25:03.191Z</time></trkpt><trkpt lat="44.6799117" lon="9.41904"><ele>896.1999999999999</ele><time>2026-04-04T15:25:04.191Z</time></trkpt><trkpt lat="44.6799667" lon="9.4190867"><ele>897.8</ele><time>2026-04-04T15:25:05.191Z</time></trkpt><trkpt lat="44.6800683" lon="9.4190933"><ele>899.4</ele><time>2026-04-04T15:25:07.19Z</time></trkpt><trkpt lat="44.680145" lon="9.418965"><ele>901.0</ele><time>2026-04-04T15:25:09.191Z</time></trkpt><trkpt lat="44.6801767" lon="9.4188433"><ele>899.4</ele><time>2026-04-04T15:25:10.191Z</time></trkpt><trkpt lat="44.6802017" lon="9.418695"><ele>897.8</ele><time>2026-04-04T15:25:11.19Z</time></trkpt><trkpt lat="44.680235" lon="9.4185833"><ele>896.1999999999999</ele><time>2026-04-04T15:25:12.189Z</time></trkpt><trkpt lat="44.68027" lon="9.4185033"><ele>894.5999999999999</ele><time>2026-04-04T15:25:13.19Z</time></trkpt><trkpt lat="44.6803383" lon="9.4183867"><ele>893.0</ele><time>2026-04-04T15:25:15.191Z</time></trkpt><trkpt lat="44.680425" lon="9.418295"><ele>894.2</ele><time>2026-04-04T15:25:17.191Z</time></trkpt><trkpt lat="44.6804867" lon="9.4182417"><ele>895.4</ele><time>2026-04-04T15:25:18.191Z</time></trkpt><trkpt lat="44.6805667" lon="9.4181883"><ele>896.6000000000001</ele><time>2026-04-04T15:25:19.191Z</time></trkpt><trkpt lat="44.6806733" lon="9.41812"><ele>897.8000000000001</ele><time>2026-04-04T15:25:20.192Z</time></trkpt><trkpt lat="44.6808033" lon="9.4180417"><ele>899.0</ele><time>2026-04-04T15:25:21.191Z</time></trkpt><trkpt lat="44.6809117" lon="9.417975"><ele>899.0</ele><time>2026-04-04T15:25:22.191Z</time></trkpt><trkpt lat="44.6810167" lon="9.4178933"><ele>899.0</ele><time>2026-04-04T15:25:23.191Z</time></trkpt><trkpt lat="44.68111" lon="9.4178"><ele>899.0</ele><time>2026-04-04T15:25:24.191Z</time></trkpt><trkpt lat="44.6811933" lon="9.41769"><ele>899.0</ele><time>2026-04-04T15:25:25.192Z</time></trkpt><trkpt lat="44.6812783" lon="9.41757"><ele>902.4000000000001</ele><time>2026-04-04T15:25:26.191Z</time></trkpt><trkpt lat="44.6813567" lon="9.4174367"><ele>905.8000000000001</ele><time>2026-04-04T15:25:27.193Z</time></trkpt><trkpt lat="44.6814283" lon="9.4173183"><ele>909.1999999999999</ele><time>2026-04-04T15:25:28.191Z</time></trkpt><trkpt lat="44.6814983" lon="9.4172317"><ele>912.5999999999999</ele><time>2026-04-04T15:25:29.191Z</time></trkpt><trkpt lat="44.681575" lon="9.4171517"><ele>916.0</ele><time>2026-04-04T15:25:30.191Z</time></trkpt><trkpt lat="44.6816533" lon="9.417075"><ele>916.0</ele><time>2026-04-04T15:25:31.192Z</time></trkpt><trkpt lat="44.6817267" lon="9.4170017"><ele>915.9999999999999</ele><time>2026-04-04T15:25:32.192Z</time></trkpt><trkpt lat="44.6817933" lon="9.4169167"><ele>915.9999999999999</ele><time>2026-04-04T15:25:33.191Z</time></trkpt><trkpt lat="44.681845" lon="9.4168217"><ele>916.0</ele><time>2026-04-04T15:25:34.192Z</time></trkpt><trkpt lat="44.681885" lon="9.4167083"><ele>916.0</ele><time>2026-04-04T15:25:35.191Z</time></trkpt><trkpt lat="44.681925" lon="9.416565"><ele>921.25</ele><time>2026-04-04T15:25:36.189Z</time></trkpt><trkpt lat="44.6819667" lon="9.4164233"><ele>926.5</ele><time>2026-04-04T15:25:37.189Z</time></trkpt><trkpt lat="44.68201" lon="9.41628"><ele>931.75</ele><time>2026-04-04T15:25:38.19Z</time></trkpt><trkpt lat="44.6820617" lon="9.41614"><ele>937.0</ele><time>2026-04-04T15:25:39.188Z</time></trkpt><trkpt lat="44.6821233" lon="9.415995"><ele>937.0</ele><time>2026-04-04T15:25:40.188Z</time></trkpt><trkpt lat="44.6821983" lon="9.415835"><ele>937.0</ele><time>2026-04-04T15:25:41.189Z</time></trkpt><trkpt lat="44.68228" lon="9.4156783"><ele>937.0</ele><time>2026-04-04T15:25:42.189Z</time></trkpt><trkpt lat="44.6823567" lon="9.4155383"><ele>937.0</ele><time>2026-04-04T15:25:43.19Z</time></trkpt><trkpt lat="44.6824217" lon="9.4154217"><ele>936.9999999999999</ele><time>2026-04-04T15:25:44.189Z</time></trkpt><trkpt lat="44.6824717" lon="9.4153217"><ele>937.0</ele><time>2026-04-04T15:25:45.189Z</time></trkpt><trkpt lat="44.6825033" lon="9.415225"><ele>937.0</ele><time>2026-04-04T15:25:46.189Z</time></trkpt><trkpt lat="44.68252" lon="9.4151183"><ele>937.0</ele><time>2026-04-04T15:25:47.189Z</time></trkpt><trkpt lat="44.6825183" lon="9.4149917"><ele>936.9999999999999</ele><time>2026-04-04T15:25:48.189Z</time></trkpt><trkpt lat="44.6825083" lon="9.41484"><ele>937.0</ele><time>2026-04-04T15:25:49.188Z</time></trkpt><trkpt lat="44.6824867" lon="9.414705"><ele>939.3333333333333</ele><time>2026-04-04T15:25:50.191Z</time></trkpt><trkpt lat="44.6824517" lon="9.4145967"><ele>941.6666666666666</ele><time>2026-04-04T15:25:51.189Z</time></trkpt><trkpt lat="44.6824133" lon="9.4145033"><ele>944.0</ele><time>2026-04-04T15:25:52.19Z</time></trkpt><trkpt lat="44.6823717" lon="9.41443"><ele>946.3333333333333</ele><time>2026-04-04T15:25:53.188Z</time></trkpt><trkpt lat="44.6822983" lon="9.4144217"><ele>948.6666666666666</ele><time>2026-04-04T15:25:54.189Z</time></trkpt><trkpt lat="44.6822167" lon="9.4144183"><ele>951.0</ele><time>2026-04-04T15:25:55.188Z</time></trkpt><trkpt lat="44.6821217" lon="9.4144433"><ele>951.0</ele><time>2026-04-04T15:25:56.189Z</time></trkpt><trkpt lat="44.68203" lon="9.4144817"><ele>951.0</ele><time>2026-04-04T15:25:57.189Z</time></trkpt><trkpt lat="44.6819533" lon="9.4145033"><ele>951.0</ele><time>2026-04-04T15:25:58.188Z</time></trkpt><trkpt lat="44.6818817" lon="9.4144933"><ele>951.0</ele><time>2026-04-04T15:25:59.189Z</time></trkpt><trkpt lat="44.68182" lon="9.4144617"><ele>951.0</ele><time>2026-04-04T15:26:00.189Z</time></trkpt><trkpt lat="44.6817633" lon="9.4144133"><ele>951.0</ele><time>2026-04-04T15:26:01.189Z</time></trkpt><trkpt lat="44.681695" lon="9.4142867"><ele>951.0</ele><time>2026-04-04T15:26:03.188Z</time></trkpt><trkpt lat="44.6817133" lon="9.414145"><ele>951.0</ele><time>2026-04-04T15:26:05.189Z</time></trkpt><trkpt lat="44.6817717" lon="9.41411"><ele>951.0</ele><time>2026-04-04T15:26:06.19Z</time></trkpt><trkpt lat="44.6818367" lon="9.4140833"><ele>951.0</ele><time>2026-04-04T15:26:07.19Z</time></trkpt><trkpt lat="44.68192" lon="9.41406"><ele>951.0</ele><time>2026-04-04T15:26:08.189Z</time></trkpt><trkpt lat="44.68202" lon="9.41404"><ele>951.0</ele><time>2026-04-04T15:26:09.189Z</time></trkpt><trkpt lat="44.6821217" lon="9.41402"><ele>951.0</ele><time>2026-04-04T15:26:10.189Z</time></trkpt><trkpt lat="44.6822167" lon="9.414005"><ele>950.9999999999999</ele><time>2026-04-04T15:26:11.188Z</time></trkpt><trkpt lat="44.6823017" lon="9.4140067"><ele>950.9999999999999</ele><time>2026-04-04T15:26:12.187Z</time></trkpt><trkpt lat="44.6823867" lon="9.4140333"><ele>951.0</ele><time>2026-04-04T15:26:13.19Z</time></trkpt><trkpt lat="44.68247" lon="9.41411"><ele>951.0</ele><time>2026-04-04T15:26:14.189Z</time></trkpt><trkpt lat="44.6825717" lon="9.4142067"><ele>951.0</ele><time>2026-04-04T15:26:15.189Z</time></trkpt><trkpt lat="44.682685" lon="9.4143167"><ele>951.0</ele><time>2026-04-04T15:26:16.187Z</time></trkpt><trkpt lat="44.6827983" lon="9.414425"><ele>951.0</ele><time>2026-04-04T15:26:17.188Z</time></trkpt><trkpt lat="44.6829083" lon="9.4145167"><ele>951.0</ele><time>2026-04-04T15:26:18.188Z</time></trkpt><trkpt lat="44.683015" lon="9.4145967"><ele>952.4</ele><time>2026-04-04T15:26:19.374Z</time></trkpt><trkpt lat="44.6831767" lon="9.4147317"><ele>953.8</ele><time>2026-04-04T15:26:21.187Z</time></trkpt><trkpt lat="44.6832283" lon="9.414795"><ele>955.1999999999999</ele><time>2026-04-04T15:26:22.188Z</time></trkpt><trkpt lat="44.6832617" lon="9.4148717"><ele>956.5999999999999</ele><time>2026-04-04T15:26:23.189Z</time></trkpt><trkpt lat="44.6832783" lon="9.41498"><ele>958.0</ele><time>2026-04-04T15:26:24.188Z</time></trkpt><trkpt lat="44.6832917" lon="9.4151117"><ele>957.9999999999999</ele><time>2026-04-04T15:26:25.19Z</time></trkpt><trkpt lat="44.6833117" lon="9.4152467"><ele>958.0</ele><time>2026-04-04T15:26:26.19Z</time></trkpt><trkpt lat="44.6833367" lon="9.41537"><ele>958.0</ele><time>2026-04-04T15:26:27.19Z</time></trkpt><trkpt lat="44.68337" lon="9.4154817"><ele>958.0</ele><time>2026-04-04T15:26:28.191Z</time></trkpt><trkpt lat="44.683415" lon="9.4155783"><ele>957.9999999999999</ele><time>2026-04-04T15:26:29.19Z</time></trkpt><trkpt lat="44.6834683" lon="9.415665"><ele>958.0</ele><time>2026-04-04T15:26:30.19Z</time></trkpt><trkpt lat="44.68353" lon="9.4157467"><ele>958.3333333333333</ele><time>2026-04-04T15:26:31.19Z</time></trkpt><trkpt lat="44.6835933" lon="9.4158233"><ele>958.6666666666666</ele><time>2026-04-04T15:26:32.19Z</time></trkpt><trkpt lat="44.6836617" lon="9.4159033"><ele>959.0</ele><time>2026-04-04T15:26:33.19Z</time></trkpt><trkpt lat="44.6837267" lon="9.415985"><ele>959.3333333333333</ele><time>2026-04-04T15:26:34.19Z</time></trkpt><trkpt lat="44.6837933" lon="9.4160667"><ele>959.6666666666666</ele><time>2026-04-04T15:26:35.191Z</time></trkpt><trkpt lat="44.6838583" lon="9.4161583"><ele>960.0</ele><time>2026-04-04T15:26:36.19Z</time></trkpt><trkpt lat="44.683995" lon="9.4163617"><ele>961.4</ele><time>2026-04-04T15:26:38.19Z</time></trkpt><trkpt lat="44.6840617" lon="9.4164617"><ele>962.8</ele><time>2026-04-04T15:26:39.19Z</time></trkpt><trkpt lat="44.6841333" lon="9.416555"><ele>964.2</ele><time>2026-04-04T15:26:40.189Z</time></trkpt><trkpt lat="44.6842067" lon="9.4166317"><ele>965.6</ele><time>2026-04-04T15:26:41.191Z</time></trkpt><trkpt lat="44.6842867" lon="9.416715"><ele>967.0</ele><time>2026-04-04T15:26:42.188Z</time></trkpt><trkpt lat="44.6843717" lon="9.4168067"><ele>966.2</ele><time>2026-04-04T15:26:43.188Z</time></trkpt><trkpt lat="44.6844617" lon="9.416885"><ele>965.4000000000001</ele><time>2026-04-04T15:26:44.188Z</time></trkpt><trkpt lat="44.6845517" lon="9.4169667"><ele>964.5999999999999</ele><time>2026-04-04T15:26:45.188Z</time></trkpt><trkpt lat="44.6846417" lon="9.4170433"><ele>963.8</ele><time>2026-04-04T15:26:46.188Z</time></trkpt><trkpt lat="44.6847283" lon="9.4171117"><ele>963.0</ele><time>2026-04-04T15:26:47.187Z</time></trkpt><trkpt lat="44.6848067" lon="9.4171533"><ele>963.0</ele><time>2026-04-04T15:26:48.187Z</time></trkpt><trkpt lat="44.6848867" lon="9.4171667"><ele>963.0</ele><time>2026-04-04T15:26:49.188Z</time></trkpt><trkpt lat="44.684975" lon="9.4171567"><ele>963.0</ele><time>2026-04-04T15:26:50.189Z</time></trkpt><trkpt lat="44.6850583" lon="9.4171217"><ele>963.0</ele><time>2026-04-04T15:26:51.188Z</time></trkpt><trkpt lat="44.68514" lon="9.4170667"><ele>963.0</ele><time>2026-04-04T15:26:52.189Z</time></trkpt><trkpt lat="44.6852167" lon="9.417035"><ele>963.0</ele><time>2026-04-04T15:26:53.187Z</time></trkpt><trkpt lat="44.6852883" lon="9.4170217"><ele>960.6666666666666</ele><time>2026-04-04T15:26:54.187Z</time></trkpt><trkpt lat="44.6853617" lon="9.4170333"><ele>958.3333333333333</ele><time>2026-04-04T15:26:55.189Z</time></trkpt><trkpt lat="44.6854367" lon="9.4170683"><ele>956.0</ele><time>2026-04-04T15:26:56.189Z</time></trkpt><trkpt lat="44.6855117" lon="9.4171317"><ele>953.6666666666666</ele><time>2026-04-04T15:26:57.188Z</time></trkpt><trkpt lat="44.685575" lon="9.4172133"><ele>951.3333333333333</ele><time>2026-04-04T15:26:58.188Z</time></trkpt><trkpt lat="44.6856283" lon="9.4172833"><ele>949.0</ele><time>2026-04-04T15:26:59.189Z</time></trkpt><trkpt lat="44.6857267" lon="9.41737"><ele>949.0</ele><time>2026-04-04T15:27:01.188Z</time></trkpt><trkpt lat="44.685805" lon="9.4173667"><ele>949.0000000000001</ele><time>2026-04-04T15:27:03.19Z</time></trkpt><trkpt lat="44.6858133" lon="9.4172717"><ele>949.0000000000001</ele><time>2026-04-04T15:27:05.19Z</time></trkpt><trkpt lat="44.68575" lon="9.417165"><ele>949.0</ele><time>2026-04-04T15:27:07.19Z</time></trkpt><trkpt lat="44.68565" lon="9.4170633"><ele>949.0</ele><time>2026-04-04T15:27:08.191Z</time></trkpt><trkpt lat="44.6855483" lon="9.41696"><ele>947.6</ele><time>2026-04-04T15:27:09.187Z</time></trkpt><trkpt lat="44.68545" lon="9.416855"><ele>946.2</ele><time>2026-04-04T15:27:10.189Z</time></trkpt><trkpt lat="44.6853567" lon="9.4167583"><ele>944.8000000000001</ele><time>2026-04-04T15:27:11.188Z</time></trkpt><trkpt lat="44.6852683" lon="9.4166817"><ele>943.4000000000001</ele><time>2026-04-04T15:27:12.188Z</time></trkpt><trkpt lat="44.685195" lon="9.416625"><ele>942.0</ele><time>2026-04-04T15:27:13.188Z</time></trkpt><trkpt lat="44.685135" lon="9.4165733"><ele>942.0</ele><time>2026-04-04T15:27:14.188Z</time></trkpt><trkpt lat="44.6850767" lon="9.4164667"><ele>942.0</ele><time>2026-04-04T15:27:16.188Z</time></trkpt><trkpt lat="44.68516" lon="9.41638"><ele>942.0</ele><time>2026-04-04T15:27:19.188Z</time></trkpt><trkpt lat="44.685225" lon="9.4163783"><ele>942.0</ele><time>2026-04-04T15:27:20.188Z</time></trkpt><trkpt lat="44.68532" lon="9.4164117"><ele>942.0</ele><time>2026-04-04T15:27:21.19Z</time></trkpt><trkpt lat="44.6854467" lon="9.41648"><ele>937.6666666666667</ele><time>2026-04-04T15:27:22.191Z</time></trkpt><trkpt lat="44.6855917" lon="9.4166"><ele>933.3333333333334</ele><time>2026-04-04T15:27:23.189Z</time></trkpt><trkpt lat="44.6857217" lon="9.416705"><ele>929.0</ele><time>2026-04-04T15:27:24.19Z</time></trkpt><trkpt lat="44.6858433" lon="9.4167967"><ele>929.0</ele><time>2026-04-04T15:27:25.19Z</time></trkpt><trkpt lat="44.6859617" lon="9.41687"><ele>929.0</ele><time>2026-04-04T15:27:26.19Z</time></trkpt><trkpt lat="44.6860783" lon="9.4169217"><ele>929.0</ele><time>2026-04-04T15:27:27.19Z</time></trkpt><trkpt lat="44.6861983" lon="9.4169417"><ele>929.0</ele><time>2026-04-04T15:27:28.19Z</time></trkpt><trkpt lat="44.68632" lon="9.4169333"><ele>926.0</ele><time>2026-04-04T15:27:29.191Z</time></trkpt><trkpt lat="44.6864233" lon="9.4169167"><ele>923.0000000000001</ele><time>2026-04-04T15:27:30.192Z</time></trkpt><trkpt lat="44.6865183" lon="9.416895"><ele>920.0000000000001</ele><time>2026-04-04T15:27:31.187Z</time></trkpt><trkpt lat="44.686615" lon="9.4168783"><ele>917.0</ele><time>2026-04-04T15:27:32.188Z</time></trkpt><trkpt lat="44.6867167" lon="9.4168683"><ele>914.0</ele><time>2026-04-04T15:27:33.188Z</time></trkpt><trkpt lat="44.6868117" lon="9.416875"><ele>914.0</ele><time>2026-04-04T15:27:34.188Z</time></trkpt><trkpt lat="44.6869" lon="9.4169017"><ele>914.0000000000001</ele><time>2026-04-04T15:27:35.188Z</time></trkpt><trkpt lat="44.6869833" lon="9.4169433"><ele>914.0000000000001</ele><time>2026-04-04T15:27:36.188Z</time></trkpt><trkpt lat="44.687065" lon="9.4170183"><ele>914.0</ele><time>2026-04-04T15:27:37.189Z</time></trkpt><trkpt lat="44.6871383" lon="9.4171017"><ele>914.0</ele><time>2026-04-04T15:27:38.188Z</time></trkpt><trkpt lat="44.6872067" lon="9.4172"><ele>916.3333333333334</ele><time>2026-04-04T15:27:39.188Z</time></trkpt><trkpt lat="44.6872683" lon="9.4172967"><ele>918.6666666666667</ele><time>2026-04-04T15:27:40.187Z</time></trkpt><trkpt lat="44.6873317" lon="9.4173717"><ele>921.0</ele><time>2026-04-04T15:27:41.188Z</time></trkpt><trkpt lat="44.687405" lon="9.4174217"><ele>923.3333333333333</ele><time>2026-04-04T15:27:42.188Z</time></trkpt><trkpt lat="44.68749" lon="9.4174483"><ele>925.6666666666666</ele><time>2026-04-04T15:27:43.189Z</time></trkpt><trkpt lat="44.6875717" lon="9.417455"><ele>928.0</ele><time>2026-04-04T15:27:44.188Z</time></trkpt><trkpt lat="44.6876517" lon="9.4174417"><ele>928.0</ele><time>2026-04-04T15:27:45.188Z</time></trkpt><trkpt lat="44.68774" lon="9.417405"><ele>928.0</ele><time>2026-04-04T15:27:46.188Z</time></trkpt><trkpt lat="44.6878367" lon="9.417355"><ele>928.0</ele><time>2026-04-04T15:27:47.188Z</time></trkpt><trkpt lat="44.6879317" lon="9.4173017"><ele>928.0</ele><time>2026-04-04T15:27:48.189Z</time></trkpt><trkpt lat="44.6880267" lon="9.4172633"><ele>928.0</ele><time>2026-04-04T15:27:49.188Z</time></trkpt><trkpt lat="44.6881183" lon="9.4172517"><ele>928.2</ele><time>2026-04-04T15:27:50.19Z</time></trkpt><trkpt lat="44.6882167" lon="9.417255"><ele>928.4</ele><time>2026-04-04T15:27:51.191Z</time></trkpt><trkpt lat="44.68833" lon="9.4172717"><ele>928.6000000000001</ele><time>2026-04-04T15:27:52.189Z</time></trkpt><trkpt lat="44.688435" lon="9.4172917"><ele>928.8000000000001</ele><time>2026-04-04T15:27:53.19Z</time></trkpt><trkpt lat="44.6885383" lon="9.4173"><ele>929.0</ele><time>2026-04-04T15:27:54.19Z</time></trkpt><trkpt lat="44.6886383" lon="9.41728"><ele>929.0</ele><time>2026-04-04T15:27:55.19Z</time></trkpt><trkpt lat="44.688735" lon="9.41722"><ele>929.0</ele><time>2026-04-04T15:27:56.19Z</time></trkpt><trkpt lat="44.6888317" lon="9.4171367"><ele>929.0</ele><time>2026-04-04T15:27:57.19Z</time></trkpt><trkpt lat="44.6889283" lon="9.4170417"><ele>929.0</ele><time>2026-04-04T15:27:58.19Z</time></trkpt><trkpt lat="44.6890183" lon="9.41694"><ele>924.8000000000001</ele><time>2026-04-04T15:27:59.19Z</time></trkpt><trkpt lat="44.68911" lon="9.4168417"><ele>920.6000000000001</ele><time>2026-04-04T15:28:00.189Z</time></trkpt><trkpt lat="44.6892033" lon="9.4167417"><ele>916.4</ele><time>2026-04-04T15:28:01.191Z</time></trkpt><trkpt lat="44.6892933" lon="9.4166633"><ele>912.2</ele><time>2026-04-04T15:28:02.19Z</time></trkpt><trkpt lat="44.6893817" lon="9.4165983"><ele>908.0</ele><time>2026-04-04T15:28:03.19Z</time></trkpt><trkpt lat="44.689475" lon="9.416545"><ele>906.2</ele><time>2026-04-04T15:28:04.191Z</time></trkpt><trkpt lat="44.6895717" lon="9.4165017"><ele>904.4</ele><time>2026-04-04T15:28:05.191Z</time></trkpt><trkpt lat="44.6896667" lon="9.4164867"><ele>902.6000000000001</ele><time>2026-04-04T15:28:06.19Z</time></trkpt><trkpt lat="44.6897483" lon="9.4164767"><ele>900.8000000000001</ele><time>2026-04-04T15:28:07.19Z</time></trkpt><trkpt lat="44.689835" lon="9.4164783"><ele>899.0</ele><time>2026-04-04T15:28:08.19Z</time></trkpt><trkpt lat="44.6899167" lon="9.4165067"><ele>899.0000000000001</ele><time>2026-04-04T15:28:09.19Z</time></trkpt><trkpt lat="44.6899933" lon="9.4165833"><ele>899.0</ele><time>2026-04-04T15:28:10.189Z</time></trkpt><trkpt lat="44.6900633" lon="9.4166617"><ele>899.0</ele><time>2026-04-04T15:28:11.189Z</time></trkpt><trkpt lat="44.6901317" lon="9.41674"><ele>899.0</ele><time>2026-04-04T15:28:12.19Z</time></trkpt><trkpt lat="44.6902067" lon="9.4167967"><ele>899.0000000000001</ele><time>2026-04-04T15:28:13.19Z</time></trkpt><trkpt lat="44.6902817" lon="9.4168317"><ele>899.0</ele><time>2026-04-04T15:28:14.19Z</time></trkpt><trkpt lat="44.6903617" lon="9.4168617"><ele>897.0</ele><time>2026-04-04T15:28:15.19Z</time></trkpt><trkpt lat="44.69044" lon="9.41687"><ele>895.0000000000001</ele><time>2026-04-04T15:28:16.191Z</time></trkpt><trkpt lat="44.690535" lon="9.41687"><ele>893.0000000000001</ele><time>2026-04-04T15:28:17.19Z</time></trkpt><trkpt lat="44.6906433" lon="9.416895"><ele>891.0</ele><time>2026-04-04T15:28:18.191Z</time></trkpt><trkpt lat="44.6907583" lon="9.4169383"><ele>889.0</ele><time>2026-04-04T15:28:19.19Z</time></trkpt><trkpt lat="44.6908683" lon="9.4169917"><ele>889.0</ele><time>2026-04-04T15:28:20.19Z</time></trkpt><trkpt lat="44.6909717" lon="9.417045"><ele>889.0000000000001</ele><time>2026-04-04T15:28:21.191Z</time></trkpt><trkpt lat="44.6910733" lon="9.4170933"><ele>889.0000000000001</ele><time>2026-04-04T15:28:22.19Z</time></trkpt><trkpt lat="44.6911683" lon="9.4171383"><ele>889.0</ele><time>2026-04-04T15:28:23.19Z</time></trkpt><trkpt lat="44.691255" lon="9.417185"><ele>889.0</ele><time>2026-04-04T15:28:24.19Z</time></trkpt><trkpt lat="44.6913383" lon="9.417255"><ele>888.8333333333333</ele><time>2026-04-04T15:28:25.189Z</time></trkpt><trkpt lat="44.69142" lon="9.417325"><ele>888.6666666666666</ele><time>2026-04-04T15:28:26.19Z</time></trkpt><trkpt lat="44.6914883" lon="9.417395"><ele>888.5</ele><time>2026-04-04T15:28:27.19Z</time></trkpt><trkpt lat="44.6915617" lon="9.4174717"><ele>888.3333333333333</ele><time>2026-04-04T15:28:28.189Z</time></trkpt><trkpt lat="44.6916217" lon="9.417555"><ele>888.1666666666666</ele><time>2026-04-04T15:28:29.191Z</time></trkpt><trkpt lat="44.691675" lon="9.417655"><ele>888.0</ele><time>2026-04-04T15:28:30.189Z</time></trkpt><trkpt lat="44.6917267" lon="9.4177517"><ele>888.0</ele><time>2026-04-04T15:28:31.188Z</time></trkpt><trkpt lat="44.69177" lon="9.417845"><ele>888.0</ele><time>2026-04-04T15:28:32.189Z</time></trkpt><trkpt lat="44.6918133" lon="9.4179217"><ele>888.0</ele><time>2026-04-04T15:28:33.19Z</time></trkpt><trkpt lat="44.6919083" lon="9.418005"><ele>888.0</ele><time>2026-04-04T15:28:35.189Z</time></trkpt><trkpt lat="44.6919967" lon="9.417935"><ele>888.0</ele><time>2026-04-04T15:28:37.191Z</time></trkpt><trkpt lat="44.69203" lon="9.417765"><ele>888.0</ele><time>2026-04-04T15:28:39.19Z</time></trkpt><trkpt lat="44.6920133" lon="9.4176767"><ele>888.0</ele><time>2026-04-04T15:28:40.187Z</time></trkpt><trkpt lat="44.6919583" lon="9.4175367"><ele>888.0</ele><time>2026-04-04T15:28:42.188Z</time></trkpt><trkpt lat="44.6919183" lon="9.417435"><ele>888.0</ele><time>2026-04-04T15:28:44.188Z</time></trkpt><trkpt lat="44.6918817" lon="9.4173467"><ele>888.0</ele><time>2026-04-04T15:29:28.187Z</time></trkpt><trkpt lat="44.6919333" lon="9.4174083"><ele>888.0</ele><time>2026-04-04T15:29:44.188Z</time></trkpt><trkpt lat="44.6919917" lon="9.4174833"><ele>885.8</ele><time>2026-04-04T15:29:48.188Z</time></trkpt><trkpt lat="44.69204" lon="9.4175533"><ele>883.5999999999999</ele><time>2026-04-04T15:29:52.189Z</time></trkpt><trkpt lat="44.692095" lon="9.41768"><ele>881.4000000000001</ele><time>2026-04-04T15:29:55.191Z</time></trkpt><trkpt lat="44.6921533" lon="9.4178383"><ele>879.2</ele><time>2026-04-04T15:29:57.191Z</time></trkpt><trkpt lat="44.692185" lon="9.4179317"><ele>877.0</ele><time>2026-04-04T15:29:58.19Z</time></trkpt><trkpt lat="44.6922267" lon="9.4180267"><ele>876.9999999999999</ele><time>2026-04-04T15:29:59.192Z</time></trkpt><trkpt lat="44.6922683" lon="9.41811"><ele>877.0</ele><time>2026-04-04T15:30:00.191Z</time></trkpt><trkpt lat="44.6923083" lon="9.4182"><ele>877.0</ele><time>2026-04-04T15:30:01.19Z</time></trkpt><trkpt lat="44.6923467" lon="9.41829"><ele>877.0</ele><time>2026-04-04T15:30:02.19Z</time></trkpt><trkpt lat="44.692415" lon="9.4184767"><ele>876.9999999999999</ele><time>2026-04-04T15:30:04.189Z</time></trkpt><trkpt lat="44.6924567" lon="9.41856"><ele>877.0</ele><time>2026-04-04T15:30:05.19Z</time></trkpt><trkpt lat="44.6925283" lon="9.4186833"><ele>876.9999999999999</ele><time>2026-04-04T15:30:07.19Z</time></trkpt><trkpt lat="44.6925917" lon="9.4187817"><ele>877.0</ele><time>2026-04-04T15:30:09.19Z</time></trkpt><trkpt lat="44.69262" lon="9.4188917"><ele>877.0</ele><time>2026-04-04T15:30:11.188Z</time></trkpt><trkpt lat="44.6925983" lon="9.4190467"><ele>877.0</ele><time>2026-04-04T15:30:13.189Z</time></trkpt><trkpt lat="44.692575" lon="9.4191533"><ele>876.9999999999999</ele><time>2026-04-04T15:30:14.191Z</time></trkpt><trkpt lat="44.69256" lon="9.4192567"><ele>877.0</ele><time>2026-04-04T15:30:15.19Z</time></trkpt><trkpt lat="44.6925583" lon="9.419355"><ele>879.6</ele><time>2026-04-04T15:30:16.189Z</time></trkpt><trkpt lat="44.692555" lon="9.419445"><ele>882.2</ele><time>2026-04-04T15:30:17.189Z</time></trkpt><trkpt lat="44.6925683" lon="9.4196133"><ele>884.8</ele><time>2026-04-04T15:30:19.189Z</time></trkpt><trkpt lat="44.6925733" lon="9.4197846"><ele>887.4</ele><time>2026-04-04T15:30:21.188Z</time></trkpt><trkpt lat="44.6925642" lon="9.4199581"><ele>890.0</ele><time>2026-04-04T15:30:23.188Z</time></trkpt><trkpt lat="44.6925577" lon="9.420049"><ele>889.8333333333334</ele><time>2026-04-04T15:30:24.192Z</time></trkpt><trkpt lat="44.6925473" lon="9.4202071"><ele>889.6666666666667</ele><time>2026-04-04T15:30:26.188Z</time></trkpt><trkpt lat="44.6925606" lon="9.4203198"><ele>889.5</ele><time>2026-04-04T15:30:28.188Z</time></trkpt><trkpt lat="44.6925955" lon="9.4204087"><ele>889.3333333333333</ele><time>2026-04-04T15:30:30.189Z</time></trkpt><trkpt lat="44.6926742" lon="9.4204769"><ele>889.1666666666666</ele><time>2026-04-04T15:30:33.19Z</time></trkpt><trkpt lat="44.6927564" lon="9.4204715"><ele>889.0</ele><time>2026-04-04T15:30:36.19Z</time></trkpt><trkpt lat="44.6928108" lon="9.4203933"><ele>888.9999999999999</ele><time>2026-04-04T15:30:39.189Z</time></trkpt><trkpt lat="44.692872" lon="9.4203325"><ele>889.0</ele><time>2026-04-04T15:30:41.189Z</time></trkpt><trkpt lat="44.6929429" lon="9.4202978"><ele>889.0</ele><time>2026-04-04T15:30:43.189Z</time></trkpt><trkpt lat="44.6930238" lon="9.4203201"><ele>889.0</ele><time>2026-04-04T15:30:45.188Z</time></trkpt><trkpt lat="44.693108" lon="9.4204087"><ele>888.9999999999999</ele><time>2026-04-04T15:30:47.189Z</time></trkpt><trkpt lat="44.6931543" lon="9.4205214"><ele>889.0</ele><time>2026-04-04T15:30:49.188Z</time></trkpt><trkpt lat="44.6931645" lon="9.4206479"><ele>890.3333333333333</ele><time>2026-04-04T15:30:51.188Z</time></trkpt><trkpt lat="44.6931581" lon="9.4208104"><ele>891.6666666666666</ele><time>2026-04-04T15:30:53.188Z</time></trkpt><trkpt lat="44.6931463" lon="9.4209104"><ele>893.0</ele><time>2026-04-04T15:30:54.189Z</time></trkpt><trkpt lat="44.6931378" lon="9.4210009"><ele>894.3333333333333</ele><time>2026-04-04T15:30:55.189Z</time></trkpt><trkpt lat="44.6931368" lon="9.4211431"><ele>895.6666666666666</ele><time>2026-04-04T15:30:57.189Z</time></trkpt><trkpt lat="44.6931707" lon="9.4212566"><ele>897.0</ele><time>2026-04-04T15:30:59.188Z</time></trkpt><trkpt lat="44.6932337" lon="9.4213067"><ele>897.0</ele><time>2026-04-04T15:31:01.189Z</time></trkpt><trkpt lat="44.6933206" lon="9.4213107"><ele>897.0</ele><time>2026-04-04T15:31:03.189Z</time></trkpt><trkpt lat="44.6934081" lon="9.4212595"><ele>897.0</ele><time>2026-04-04T15:31:05.189Z</time></trkpt><trkpt lat="44.6935003" lon="9.4212019"><ele>897.0</ele><time>2026-04-04T15:31:07.188Z</time></trkpt><trkpt lat="44.6935991" lon="9.4211866"><ele>897.0</ele><time>2026-04-04T15:31:09.19Z</time></trkpt><trkpt lat="44.6937056" lon="9.4211919"><ele>898.4000000000001</ele><time>2026-04-04T15:31:11.192Z</time></trkpt><trkpt lat="44.6938109" lon="9.4212075"><ele>899.8000000000001</ele><time>2026-04-04T15:31:13.19Z</time></trkpt><trkpt lat="44.6939045" lon="9.4212391"><ele>901.2</ele><time>2026-04-04T15:31:15.19Z</time></trkpt><trkpt lat="44.6939996" lon="9.4212945"><ele>902.6</ele><time>2026-04-04T15:31:17.191Z</time></trkpt><trkpt lat="44.6940921" lon="9.4212927"><ele>904.0</ele><time>2026-04-04T15:31:19.189Z</time></trkpt><trkpt lat="44.694166" lon="9.4212468"><ele>903.9999999999999</ele><time>2026-04-04T15:31:21.19Z</time></trkpt><trkpt lat="44.6942317" lon="9.4212312"><ele>904.0</ele><time>2026-04-04T15:31:23.192Z</time></trkpt><trkpt lat="44.6942805" lon="9.4213287"><ele>904.0</ele><time>2026-04-04T15:31:27.19Z</time></trkpt><trkpt lat="44.6942792" lon="9.4214838"><ele>904.0</ele><time>2026-04-04T15:31:29.19Z</time></trkpt><trkpt lat="44.6942709" lon="9.4215793"><ele>903.9999999999999</ele><time>2026-04-04T15:31:30.19Z</time></trkpt><trkpt lat="44.6942655" lon="9.4216728"><ele>904.0</ele><time>2026-04-04T15:31:31.19Z</time></trkpt><trkpt lat="44.6942594" lon="9.4217967"><ele>906.4999999999999</ele><time>2026-04-04T15:31:33.191Z</time></trkpt><trkpt lat="44.6942369" lon="9.4219288"><ele>909.0</ele><time>2026-04-04T15:31:35.19Z</time></trkpt><trkpt lat="44.694201" lon="9.4220783"><ele>911.5</ele><time>2026-04-04T15:31:37.188Z</time></trkpt><trkpt lat="44.6941799" lon="9.4221882"><ele>914.0</ele><time>2026-04-04T15:31:39.188Z</time></trkpt><trkpt lat="44.694159" lon="9.4222775"><ele>916.4999999999999</ele><time>2026-04-04T15:31:41.191Z</time></trkpt><trkpt lat="44.6941376" lon="9.4223745"><ele>919.0</ele><time>2026-04-04T15:31:43.19Z</time></trkpt><trkpt lat="44.6941062" lon="9.4224836"><ele>920.2</ele><time>2026-04-04T15:31:45.188Z</time></trkpt><trkpt lat="44.6940673" lon="9.4226068"><ele>921.4000000000001</ele><time>2026-04-04T15:31:47.188Z</time></trkpt><trkpt lat="44.6940279" lon="9.4227562"><ele>922.6</ele><time>2026-04-04T15:31:49.188Z</time></trkpt><trkpt lat="44.6939894" lon="9.4229259"><ele>923.8</ele><time>2026-04-04T15:31:51.189Z</time></trkpt><trkpt lat="44.6939694" lon="9.4230102"><ele>925.0</ele><time>2026-04-04T15:31:52.188Z</time></trkpt><trkpt lat="44.6939118" lon="9.4231494"><ele>925.8333333333333</ele><time>2026-04-04T15:31:54.19Z</time></trkpt><trkpt lat="44.6938507" lon="9.4232658"><ele>926.6666666666666</ele><time>2026-04-04T15:31:56.191Z</time></trkpt><trkpt lat="44.6937998" lon="9.4233559"><ele>927.5</ele><time>2026-04-04T15:31:58.19Z</time></trkpt><trkpt lat="44.6937551" lon="9.4234469"><ele>928.3333333333333</ele><time>2026-04-04T15:32:00.189Z</time></trkpt><trkpt lat="44.6937039" lon="9.4235349"><ele>929.1666666666666</ele><time>2026-04-04T15:32:02.19Z</time></trkpt><trkpt lat="44.6936241" lon="9.4235919"><ele>930.0</ele><time>2026-04-04T15:32:04.193Z</time></trkpt><trkpt lat="44.6935204" lon="9.4236209"><ele>930.0</ele><time>2026-04-04T15:32:06.19Z</time></trkpt><trkpt lat="44.6934228" lon="9.4236526"><ele>930.0</ele><time>2026-04-04T15:32:08.19Z</time></trkpt><trkpt lat="44.6933165" lon="9.4237103"><ele>930.0</ele><time>2026-04-04T15:32:10.19Z</time></trkpt><trkpt lat="44.6932175" lon="9.4237836"><ele>930.0</ele><time>2026-04-04T15:32:12.189Z</time></trkpt><trkpt lat="44.6931243" lon="9.4238654"><ele>930.0</ele><time>2026-04-04T15:32:14.189Z</time></trkpt><trkpt lat="44.6930745" lon="9.4239593"><ele>932.8</ele><time>2026-04-04T15:32:16.188Z</time></trkpt><trkpt lat="44.693051" lon="9.4240969"><ele>935.6</ele><time>2026-04-04T15:32:18.189Z</time></trkpt><trkpt lat="44.6930422" lon="9.4242669"><ele>938.4000000000001</ele><time>2026-04-04T15:32:20.189Z</time></trkpt><trkpt lat="44.6930461" lon="9.4244226"><ele>941.2</ele><time>2026-04-04T15:32:22.187Z</time></trkpt><trkpt lat="44.6930751" lon="9.4245475"><ele>944.0</ele><time>2026-04-04T15:32:24.188Z</time></trkpt><trkpt lat="44.6931451" lon="9.4246113"><ele>944.0000000000001</ele><time>2026-04-04T15:32:26.191Z</time></trkpt><trkpt lat="44.6932248" lon="9.4245951"><ele>944.0</ele><time>2026-04-04T15:32:28.189Z</time></trkpt><trkpt lat="44.6932864" lon="9.4245464"><ele>944.0</ele><time>2026-04-04T15:32:29.191Z</time></trkpt><trkpt lat="44.6933544" lon="9.4244796"><ele>944.0</ele><time>2026-04-04T15:32:30.191Z</time></trkpt><trkpt lat="44.6934205" lon="9.4244016"><ele>944.0000000000001</ele><time>2026-04-04T15:32:31.191Z</time></trkpt><trkpt lat="44.6934692" lon="9.4243246"><ele>944.0</ele><time>2026-04-04T15:32:32.19Z</time></trkpt><trkpt lat="44.6935085" lon="9.4242476"><ele>944.0</ele><time>2026-04-04T15:32:33.191Z</time></trkpt><trkpt lat="44.6935758" lon="9.4241339"><ele>944.0000000000001</ele><time>2026-04-04T15:32:35.193Z</time></trkpt><trkpt lat="44.6936384" lon="9.4240974"><ele>944.0000000000001</ele><time>2026-04-04T15:32:37.19Z</time></trkpt><trkpt lat="44.6937079" lon="9.4241104"><ele>944.0</ele><time>2026-04-04T15:32:39.189Z</time></trkpt><trkpt lat="44.6938213" lon="9.4241714"><ele>944.0</ele><time>2026-04-04T15:32:41.189Z</time></trkpt><trkpt lat="44.6939396" lon="9.4241826"><ele>947.0</ele><time>2026-04-04T15:32:43.19Z</time></trkpt><trkpt lat="44.6940471" lon="9.4241433"><ele>950.0</ele><time>2026-04-04T15:32:45.19Z</time></trkpt><trkpt lat="44.6941511" lon="9.424064"><ele>953.0</ele><time>2026-04-04T15:32:47.188Z</time></trkpt><trkpt lat="44.6942577" lon="9.4239983"><ele>956.0</ele><time>2026-04-04T15:32:49.188Z</time></trkpt><trkpt lat="44.6943863" lon="9.4239687"><ele>957.0000000000001</ele><time>2026-04-04T15:32:51.191Z</time></trkpt><trkpt lat="44.6944545" lon="9.4239658"><ele>958.0</ele><time>2026-04-04T15:32:52.189Z</time></trkpt><trkpt lat="44.6945673" lon="9.4239819"><ele>959.0</ele><time>2026-04-04T15:32:54.191Z</time></trkpt><trkpt lat="44.6946475" lon="9.4240286"><ele>960.0</ele><time>2026-04-04T15:32:56.188Z</time></trkpt><trkpt lat="44.6946985" lon="9.4240925"><ele>961.0000000000001</ele><time>2026-04-04T15:32:58.188Z</time></trkpt><trkpt lat="44.6947434" lon="9.4241584"><ele>962.0</ele><time>2026-04-04T15:33:07.191Z</time></trkpt><trkpt lat="44.6947727" lon="9.4242442"><ele>962.0000000000001</ele><time>2026-04-04T15:33:09.191Z</time></trkpt><trkpt lat="44.6947975" lon="9.4243575"><ele>962.0</ele><time>2026-04-04T15:33:11.188Z</time></trkpt><trkpt lat="44.6948038" lon="9.4244487"><ele>962.0</ele><time>2026-04-04T15:33:13.189Z</time></trkpt><trkpt lat="44.6947577" lon="9.4245463"><ele>962.0</ele><time>2026-04-04T15:33:36.191Z</time></trkpt><trkpt lat="44.6946873" lon="9.4246049"><ele>962.0000000000001</ele><time>2026-04-04T15:33:38.19Z</time></trkpt><trkpt lat="44.6946049" lon="9.4246957"><ele>962.0</ele><time>2026-04-04T15:33:40.189Z</time></trkpt><trkpt lat="44.694537" lon="9.4247995"><ele>962.8</ele><time>2026-04-04T15:33:42.188Z</time></trkpt><trkpt lat="44.694491" lon="9.4249101"><ele>963.6</ele><time>2026-04-04T15:33:44.188Z</time></trkpt><trkpt lat="44.6944546" lon="9.4250371"><ele>964.3999999999999</ele><time>2026-04-04T15:33:46.188Z</time></trkpt><trkpt lat="44.6944229" lon="9.4251688"><ele>965.1999999999999</ele><time>2026-04-04T15:33:48.189Z</time></trkpt><trkpt lat="44.6944005" lon="9.4253125"><ele>966.0</ele><time>2026-04-04T15:33:50.188Z</time></trkpt><trkpt lat="44.6943909" lon="9.4254363"><ele>967.8</ele><time>2026-04-04T15:33:52.188Z</time></trkpt><trkpt lat="44.6943855" lon="9.4255705"><ele>969.5999999999999</ele><time>2026-04-04T15:33:54.189Z</time></trkpt><trkpt lat="44.694387" lon="9.4257109"><ele>971.4</ele><time>2026-04-04T15:33:56.19Z</time></trkpt><trkpt lat="44.6944019" lon="9.4258406"><ele>973.2</ele><time>2026-04-04T15:33:58.189Z</time></trkpt><trkpt lat="44.6944103" lon="9.4259604"><ele>975.0</ele><time>2026-04-04T15:34:00.188Z</time></trkpt><trkpt lat="44.6943871" lon="9.4260683"><ele>975.0</ele><time>2026-04-04T15:34:02.194Z</time></trkpt><trkpt lat="44.6943323" lon="9.4261665"><ele>975.0</ele><time>2026-04-04T15:34:04.19Z</time></trkpt><trkpt lat="44.6942425" lon="9.4262443"><ele>975.0</ele><time>2026-04-04T15:34:06.19Z</time></trkpt><trkpt lat="44.6941549" lon="9.4263114"><ele>975.0</ele><time>2026-04-04T15:34:08.191Z</time></trkpt><trkpt lat="44.6940983" lon="9.4264234"><ele>975.0</ele><time>2026-04-04T15:34:10.189Z</time></trkpt><trkpt lat="44.6940551" lon="9.4265611"><ele>977.8</ele><time>2026-04-04T15:34:12.19Z</time></trkpt><trkpt lat="44.6940036" lon="9.4266511"><ele>980.6</ele><time>2026-04-04T15:34:14.189Z</time></trkpt><trkpt lat="44.6939261" lon="9.4266851"><ele>983.4000000000001</ele><time>2026-04-04T15:34:16.188Z</time></trkpt><trkpt lat="44.6938206" lon="9.4266861"><ele>986.2</ele><time>2026-04-04T15:34:18.188Z</time></trkpt><trkpt lat="44.6937318" lon="9.4267267"><ele>989.0</ele><time>2026-04-04T15:34:20.188Z</time></trkpt><trkpt lat="44.6936664" lon="9.4268085"><ele>989.0</ele><time>2026-04-04T15:34:22.188Z</time></trkpt><trkpt lat="44.6936202" lon="9.4269096"><ele>989.0000000000001</ele><time>2026-04-04T15:34:24.189Z</time></trkpt><trkpt lat="44.6935803" lon="9.4270489"><ele>989.0000000000001</ele><time>2026-04-04T15:34:26.19Z</time></trkpt><trkpt lat="44.693556" lon="9.4272082"><ele>989.0</ele><time>2026-04-04T15:34:28.19Z</time></trkpt><trkpt lat="44.693543" lon="9.4273399"><ele>989.0</ele><time>2026-04-04T15:34:30.19Z</time></trkpt><trkpt lat="44.6935191" lon="9.4274516"><ele>989.5000000000001</ele><time>2026-04-04T15:34:32.19Z</time></trkpt><trkpt lat="44.6934766" lon="9.4275667"><ele>990.0</ele><time>2026-04-04T15:34:34.19Z</time></trkpt><trkpt lat="44.6933949" lon="9.4276965"><ele>990.5</ele><time>2026-04-04T15:34:36.191Z</time></trkpt><trkpt lat="44.6933511" lon="9.4277608"><ele>991.0</ele><time>2026-04-04T15:34:37.19Z</time></trkpt><trkpt lat="44.6933003" lon="9.4278599"><ele>991.5000000000001</ele><time>2026-04-04T15:34:39.19Z</time></trkpt><trkpt lat="44.6932789" lon="9.4279488"><ele>992.0</ele><time>2026-04-04T15:34:41.191Z</time></trkpt><trkpt lat="44.6932715" lon="9.4280644"><ele>994.1666666666667</ele><time>2026-04-04T15:34:44.19Z</time></trkpt><trkpt lat="44.6932475" lon="9.4282025"><ele>996.3333333333334</ele><time>2026-04-04T15:34:47.19Z</time></trkpt><trkpt lat="44.6932068" lon="9.4283174"><ele>998.5</ele><time>2026-04-04T15:34:49.189Z</time></trkpt><trkpt lat="44.6931521" lon="9.4284329"><ele>1000.6666666666667</ele><time>2026-04-04T15:34:51.19Z</time></trkpt><trkpt lat="44.6931123" lon="9.428512"><ele>1002.8333333333334</ele><time>2026-04-04T15:34:54.191Z</time></trkpt><trkpt lat="44.6930617" lon="9.428575"><ele>1005.0</ele><time>2026-04-04T15:34:58.189Z</time></trkpt><trkpt lat="44.6929633" lon="9.4286867"><ele>1005.0</ele><time>2026-04-04T15:35:09.188Z</time></trkpt><trkpt lat="44.6928767" lon="9.4287317"><ele>1005.0</ele><time>2026-04-04T15:35:10.19Z</time></trkpt><trkpt lat="44.6928017" lon="9.428785"><ele>1005.0</ele><time>2026-04-04T15:35:11.189Z</time></trkpt><trkpt lat="44.692725" lon="9.428855"><ele>1005.0</ele><time>2026-04-04T15:35:12.189Z</time></trkpt><trkpt lat="44.6926667" lon="9.4289417"><ele>1005.0</ele><time>2026-04-04T15:35:13.189Z</time></trkpt><trkpt lat="44.69263" lon="9.4290317"><ele>1005.0</ele><time>2026-04-04T15:35:14.189Z</time></trkpt><trkpt lat="44.6926267" lon="9.4291833"><ele>1005.6</ele><time>2026-04-04T15:35:16.189Z</time></trkpt><trkpt lat="44.6927217" lon="9.42926"><ele>1006.2</ele><time>2026-04-04T15:35:18.189Z</time></trkpt><trkpt lat="44.6928033" lon="9.429275"><ele>1006.8</ele><time>2026-04-04T15:35:19.189Z</time></trkpt><trkpt lat="44.6929067" lon="9.429255"><ele>1007.4</ele><time>2026-04-04T15:35:20.192Z</time></trkpt><trkpt lat="44.693015" lon="9.429235"><ele>1008.0</ele><time>2026-04-04T15:35:21.19Z</time></trkpt><trkpt lat="44.6931567" lon="9.4292083"><ele>1012.6666666666667</ele><time>2026-04-04T15:35:22.19Z</time></trkpt><trkpt lat="44.693305" lon="9.429155"><ele>1017.3333333333334</ele><time>2026-04-04T15:35:23.191Z</time></trkpt><trkpt lat="44.6934567" lon="9.4290767"><ele>1022.0</ele><time>2026-04-04T15:35:24.19Z</time></trkpt><trkpt lat="44.6936017" lon="9.42899"><ele>1025.3333333333335</ele><time>2026-04-04T15:35:25.189Z</time></trkpt><trkpt lat="44.69374" lon="9.4289233"><ele>1028.6666666666667</ele><time>2026-04-04T15:35:26.189Z</time></trkpt><trkpt lat="44.693885" lon="9.428865"><ele>1032.0</ele><time>2026-04-04T15:35:27.188Z</time></trkpt><trkpt lat="44.69404" lon="9.4288133"><ele>1032.6666666666667</ele><time>2026-04-04T15:35:28.189Z</time></trkpt><trkpt lat="44.6942033" lon="9.42877"><ele>1033.3333333333335</ele><time>2026-04-04T15:35:29.188Z</time></trkpt><trkpt lat="44.69436" lon="9.428735"><ele>1034.0</ele><time>2026-04-04T15:35:30.189Z</time></trkpt><trkpt lat="44.6944983" lon="9.4287133"><ele>1034.0</ele><time>2026-04-04T15:35:31.19Z</time></trkpt><trkpt lat="44.69462" lon="9.4286717"><ele>1034.0</ele><time>2026-04-04T15:35:32.189Z</time></trkpt><trkpt lat="44.6947333" lon="9.4286033"><ele>1034.0</ele><time>2026-04-04T15:35:33.188Z</time></trkpt><trkpt lat="44.6948483" lon="9.4285067"><ele>1034.0</ele><time>2026-04-04T15:35:34.189Z</time></trkpt><trkpt lat="44.6949583" lon="9.4283883"><ele>1034.0</ele><time>2026-04-04T15:35:35.188Z</time></trkpt><trkpt lat="44.6950683" lon="9.428265"><ele>1034.0</ele><time>2026-04-04T15:35:36.19Z</time></trkpt><trkpt lat="44.6951783" lon="9.4281417"><ele>1034.0</ele><time>2026-04-04T15:35:37.188Z</time></trkpt><trkpt lat="44.69528" lon="9.4280233"><ele>1034.0</ele><time>2026-04-04T15:35:38.189Z</time></trkpt><trkpt lat="44.6953683" lon="9.427925"><ele>1032.8</ele><time>2026-04-04T15:35:39.191Z</time></trkpt><trkpt lat="44.695435" lon="9.42785"><ele>1031.6000000000001</ele><time>2026-04-04T15:35:40.189Z</time></trkpt><trkpt lat="44.6954967" lon="9.4277917"><ele>1030.4</ele><time>2026-04-04T15:35:41.188Z</time></trkpt><trkpt lat="44.69556" lon="9.4277467"><ele>1029.2</ele><time>2026-04-04T15:35:42.189Z</time></trkpt><trkpt lat="44.69568" lon="9.42772"><ele>1028.0</ele><time>2026-04-04T15:35:44.189Z</time></trkpt><trkpt lat="44.6958083" lon="9.4277783"><ele>1028.0</ele><time>2026-04-04T15:35:46.189Z</time></trkpt><trkpt lat="44.6958717" lon="9.427845"><ele>1028.0</ele><time>2026-04-04T15:35:47.189Z</time></trkpt><trkpt lat="44.6959267" lon="9.427905"><ele>1028.0</ele><time>2026-04-04T15:35:48.189Z</time></trkpt><trkpt lat="44.69601" lon="9.4280333"><ele>1028.0</ele><time>2026-04-04T15:35:50.191Z</time></trkpt><trkpt lat="44.6960567" lon="9.4281133"><ele>1028.0</ele><time>2026-04-04T15:35:51.19Z</time></trkpt><trkpt lat="44.6961133" lon="9.4281883"><ele>1028.0</ele><time>2026-04-04T15:35:52.19Z</time></trkpt><trkpt lat="44.6961767" lon="9.4282483"><ele>1030.5</ele><time>2026-04-04T15:35:53.191Z</time></trkpt><trkpt lat="44.6962467" lon="9.4282883"><ele>1033.0</ele><time>2026-04-04T15:35:54.189Z</time></trkpt><trkpt lat="44.6963217" lon="9.428315"><ele>1035.5</ele><time>2026-04-04T15:35:55.189Z</time></trkpt><trkpt lat="44.69641" lon="9.428335"><ele>1038.0</ele><time>2026-04-04T15:35:56.19Z</time></trkpt><trkpt lat="44.6965017" lon="9.42835"><ele>1040.5</ele><time>2026-04-04T15:35:57.188Z</time></trkpt><trkpt lat="44.6965867" lon="9.42836"><ele>1043.0</ele><time>2026-04-04T15:35:58.188Z</time></trkpt><trkpt lat="44.6966667" lon="9.4283517"><ele>1043.0</ele><time>2026-04-04T15:35:59.189Z</time></trkpt><trkpt lat="44.6967367" lon="9.4283333"><ele>1043.0</ele><time>2026-04-04T15:36:00.188Z</time></trkpt><trkpt lat="44.696815" lon="9.4283"><ele>1043.0</ele><time>2026-04-04T15:36:01.188Z</time></trkpt><trkpt lat="44.6969017" lon="9.428265"><ele>1043.0</ele><time>2026-04-04T15:36:02.188Z</time></trkpt><trkpt lat="44.6969917" lon="9.4282417"><ele>1043.0</ele><time>2026-04-04T15:36:03.188Z</time></trkpt><trkpt lat="44.6970867" lon="9.4282217"><ele>1043.0</ele><time>2026-04-04T15:36:04.188Z</time></trkpt><trkpt lat="44.6971917" lon="9.428215"><ele>1044.4</ele><time>2026-04-04T15:36:05.188Z</time></trkpt><trkpt lat="44.697305" lon="9.4282167"><ele>1045.8</ele><time>2026-04-04T15:36:06.189Z</time></trkpt><trkpt lat="44.6974167" lon="9.42823"><ele>1047.2</ele><time>2026-04-04T15:36:07.189Z</time></trkpt><trkpt lat="44.6975283" lon="9.4282533"><ele>1048.6</ele><time>2026-04-04T15:36:08.192Z</time></trkpt><trkpt lat="44.6976367" lon="9.4282717"><ele>1050.0</ele><time>2026-04-04T15:36:09.19Z</time></trkpt><trkpt lat="44.6977483" lon="9.4282867"><ele>1051.8</ele><time>2026-04-04T15:36:10.188Z</time></trkpt><trkpt lat="44.6978517" lon="9.4282867"><ele>1053.6</ele><time>2026-04-04T15:36:11.188Z</time></trkpt><trkpt lat="44.6979417" lon="9.4282833"><ele>1055.4</ele><time>2026-04-04T15:36:12.188Z</time></trkpt><trkpt lat="44.6980183" lon="9.4282733"><ele>1057.2</ele><time>2026-04-04T15:36:13.189Z</time></trkpt><trkpt lat="44.6981183" lon="9.4282467"><ele>1059.0</ele><time>2026-04-04T15:36:15.19Z</time></trkpt><trkpt lat="44.6981817" lon="9.4281683"><ele>1059.0</ele><time>2026-04-04T15:36:17.191Z</time></trkpt><trkpt lat="44.6982033" lon="9.428005"><ele>1059.0</ele><time>2026-04-04T15:36:19.189Z</time></trkpt><trkpt lat="44.6982017" lon="9.4278983"><ele>1059.0</ele><time>2026-04-04T15:36:20.189Z</time></trkpt><trkpt lat="44.6981933" lon="9.4277817"><ele>1059.0</ele><time>2026-04-04T15:36:21.189Z</time></trkpt><trkpt lat="44.6981817" lon="9.4276817"><ele>1059.0</ele><time>2026-04-04T15:36:22.19Z</time></trkpt><trkpt lat="44.698175" lon="9.42759"><ele>1059.0</ele><time>2026-04-04T15:36:23.191Z</time></trkpt><trkpt lat="44.69819" lon="9.4274417"><ele>1059.1666666666667</ele><time>2026-04-04T15:36:25.188Z</time></trkpt><trkpt lat="44.698255" lon="9.427305"><ele>1059.3333333333333</ele><time>2026-04-04T15:36:27.188Z</time></trkpt><trkpt lat="44.6983333" lon="9.427205"><ele>1059.5</ele><time>2026-04-04T15:36:29.188Z</time></trkpt><trkpt lat="44.6983817" lon="9.4271417"><ele>1059.6666666666665</ele><time>2026-04-04T15:36:31.188Z</time></trkpt><trkpt lat="44.6984667" lon="9.427165"><ele>1059.8333333333333</ele><time>2026-04-04T15:36:54.19Z</time></trkpt><trkpt lat="44.6984467" lon="9.4272633"><ele>1060.0</ele><time>2026-04-04T15:36:57.189Z</time></trkpt><trkpt lat="44.698475" lon="9.42735"><ele>1060.0</ele><time>2026-04-04T15:36:59.189Z</time></trkpt><trkpt lat="44.6985117" lon="9.427455"><ele>1060.0</ele><time>2026-04-04T15:37:01.188Z</time></trkpt><trkpt lat="44.6985467" lon="9.427575"><ele>1060.0</ele><time>2026-04-04T15:37:03.192Z</time></trkpt><trkpt lat="44.6985833" lon="9.4277533"><ele>1060.0</ele><time>2026-04-04T15:37:05.19Z</time></trkpt><trkpt lat="44.698595" lon="9.4278633"><ele>1060.0</ele><time>2026-04-04T15:37:06.19Z</time></trkpt><trkpt lat="44.698615" lon="9.4279817"><ele>1062.3333333333333</ele><time>2026-04-04T15:37:07.19Z</time></trkpt><trkpt lat="44.698625" lon="9.4281067"><ele>1064.6666666666665</ele><time>2026-04-04T15:37:08.19Z</time></trkpt><trkpt lat="44.6986383" lon="9.42823"><ele>1067.0</ele><time>2026-04-04T15:37:09.19Z</time></trkpt><trkpt lat="44.69866" lon="9.4283533"><ele>1069.3333333333333</ele><time>2026-04-04T15:37:10.19Z</time></trkpt><trkpt lat="44.698675" lon="9.4284733"><ele>1071.6666666666667</ele><time>2026-04-04T15:37:11.191Z</time></trkpt><trkpt lat="44.6986967" lon="9.4285883"><ele>1074.0</ele><time>2026-04-04T15:37:12.19Z</time></trkpt><trkpt lat="44.6987167" lon="9.4286967"><ele>1070.3333333333333</ele><time>2026-04-04T15:37:13.19Z</time></trkpt><trkpt lat="44.698745" lon="9.4290717"><ele>1066.6666666666665</ele><time>2026-04-04T15:37:17.19Z</time></trkpt><trkpt lat="44.6987167" lon="9.429195"><ele>1063.0</ele><time>2026-04-04T15:37:19.19Z</time></trkpt><trkpt lat="44.698655" lon="9.4293033"><ele>1063.0</ele><time>2026-04-04T15:37:21.188Z</time></trkpt><trkpt lat="44.6985833" lon="9.4294033"><ele>1063.0</ele><time>2026-04-04T15:37:23.19Z</time></trkpt><trkpt lat="44.6984817" lon="9.429515"><ele>1063.0</ele><time>2026-04-04T15:37:25.19Z</time></trkpt><trkpt lat="44.69843" lon="9.42958"><ele>1063.0</ele><time>2026-04-04T15:37:26.189Z</time></trkpt><trkpt lat="44.6983833" lon="9.4296583"><ele>1063.0</ele><time>2026-04-04T15:37:27.19Z</time></trkpt><trkpt lat="44.698345" lon="9.42974"><ele>1063.0</ele><time>2026-04-04T15:37:28.191Z</time></trkpt><trkpt lat="44.6983183" lon="9.429825"><ele>1063.8333333333333</ele><time>2026-04-04T15:37:29.191Z</time></trkpt><trkpt lat="44.69827" lon="9.42997"><ele>1064.6666666666665</ele><time>2026-04-04T15:37:31.189Z</time></trkpt><trkpt lat="44.698245" lon="9.43008"><ele>1065.5</ele><time>2026-04-04T15:37:33.188Z</time></trkpt><trkpt lat="44.69822" lon="9.430195"><ele>1066.3333333333333</ele><time>2026-04-04T15:37:35.19Z</time></trkpt><trkpt lat="44.6981717" lon="9.4302733"><ele>1067.1666666666667</ele><time>2026-04-04T15:37:37.189Z</time></trkpt><trkpt lat="44.6980967" lon="9.43028"><ele>1068.0</ele><time>2026-04-04T15:37:39.189Z</time></trkpt><trkpt lat="44.6979967" lon="9.4302733"><ele>1068.0</ele><time>2026-04-04T15:37:41.189Z</time></trkpt><trkpt lat="44.6978733" lon="9.4303033"><ele>1068.0</ele><time>2026-04-04T15:37:43.188Z</time></trkpt><trkpt lat="44.6978067" lon="9.4303183"><ele>1068.0</ele><time>2026-04-04T15:37:44.189Z</time></trkpt><trkpt lat="44.697745" lon="9.4303417"><ele>1068.0</ele><time>2026-04-04T15:37:45.19Z</time></trkpt><trkpt lat="44.6976583" lon="9.4304167"><ele>1068.0</ele><time>2026-04-04T15:37:47.189Z</time></trkpt><trkpt lat="44.6976083" lon="9.4305433"><ele>1071.0</ele><time>2026-04-04T15:37:49.19Z</time></trkpt><trkpt lat="44.6975733" lon="9.430665"><ele>1074.0</ele><time>2026-04-04T15:37:51.188Z</time></trkpt><trkpt lat="44.6975167" lon="9.4307667"><ele>1077.0</ele><time>2026-04-04T15:37:53.189Z</time></trkpt><trkpt lat="44.6974333" lon="9.43082"><ele>1080.0</ele><time>2026-04-04T15:37:55.188Z</time></trkpt><trkpt lat="44.697335" lon="9.43082"><ele>1083.0</ele><time>2026-04-04T15:37:57.19Z</time></trkpt><trkpt lat="44.6972217" lon="9.4307933"><ele>1083.0</ele><time>2026-04-04T15:37:59.189Z</time></trkpt><trkpt lat="44.6971033" lon="9.4307883"><ele>1083.0</ele><time>2026-04-04T15:38:01.189Z</time></trkpt><trkpt lat="44.696985" lon="9.4308017"><ele>1083.0</ele><time>2026-04-04T15:38:03.189Z</time></trkpt><trkpt lat="44.6968683" lon="9.430815"><ele>1083.0</ele><time>2026-04-04T15:38:05.191Z</time></trkpt><trkpt lat="44.69675" lon="9.430825"><ele>1083.142857142857</ele><time>2026-04-04T15:38:07.191Z</time></trkpt><trkpt lat="44.6966333" lon="9.4308117"><ele>1083.2857142857144</ele><time>2026-04-04T15:38:09.191Z</time></trkpt><trkpt lat="44.69657" lon="9.4308017"><ele>1083.4285714285716</ele><time>2026-04-04T15:38:10.19Z</time></trkpt><trkpt lat="44.6965067" lon="9.4307933"><ele>1083.5714285714287</ele><time>2026-04-04T15:38:11.189Z</time></trkpt><trkpt lat="44.6964417" lon="9.4307883"><ele>1083.7142857142858</ele><time>2026-04-04T15:38:12.19Z</time></trkpt><trkpt lat="44.6963783" lon="9.430795"><ele>1083.857142857143</ele><time>2026-04-04T15:38:13.191Z</time></trkpt><trkpt lat="44.6963117" lon="9.4308067"><ele>1084.0</ele><time>2026-04-04T15:38:14.189Z</time></trkpt><trkpt lat="44.6962433" lon="9.4308183"><ele>1084.0</ele><time>2026-04-04T15:38:15.19Z</time></trkpt><trkpt lat="44.6961733" lon="9.43083"><ele>1084.0</ele><time>2026-04-04T15:38:16.188Z</time></trkpt><trkpt lat="44.6961033" lon="9.4308433"><ele>1084.0</ele><time>2026-04-04T15:38:17.189Z</time></trkpt><trkpt lat="44.6960367" lon="9.4308617"><ele>1084.0</ele><time>2026-04-04T15:38:18.19Z</time></trkpt><trkpt lat="44.69592" lon="9.4309067"><ele>1084.0</ele><time>2026-04-04T15:38:20.188Z</time></trkpt><trkpt lat="44.69583" lon="9.4309483"><ele>1084.0</ele><time>2026-04-04T15:38:22.188Z</time></trkpt><trkpt lat="44.6957767" lon="9.43104"><ele>1084.0</ele><time>2026-04-04T15:38:25.188Z</time></trkpt><trkpt lat="44.69578" lon="9.4311333"><ele>1084.0</ele><time>2026-04-04T15:38:27.188Z</time></trkpt><trkpt lat="44.69579" lon="9.4312583"><ele>1084.0</ele><time>2026-04-04T15:38:29.188Z</time></trkpt><trkpt lat="44.695795" lon="9.431385"><ele>1084.0</ele><time>2026-04-04T15:38:31.189Z</time></trkpt><trkpt lat="44.6958" lon="9.4315517"><ele>1084.0</ele><time>2026-04-04T15:38:33.188Z</time></trkpt><trkpt lat="44.695795" lon="9.4317133"><ele>1086.6000000000001</ele><time>2026-04-04T15:38:35.189Z</time></trkpt><trkpt lat="44.6957583" lon="9.4318583"><ele>1089.2</ele><time>2026-04-04T15:38:37.188Z</time></trkpt><trkpt lat="44.6957133" lon="9.4320117"><ele>1091.8000000000002</ele><time>2026-04-04T15:38:39.189Z</time></trkpt><trkpt lat="44.6956583" lon="9.4321383"><ele>1094.4</ele><time>2026-04-04T15:38:41.191Z</time></trkpt><trkpt lat="44.6955917" lon="9.4322683"><ele>1097.0</ele><time>2026-04-04T15:38:43.188Z</time></trkpt><trkpt lat="44.6955317" lon="9.432385"><ele>1098.2</ele><time>2026-04-04T15:38:45.189Z</time></trkpt><trkpt lat="44.69548" lon="9.4324883"><ele>1099.4</ele><time>2026-04-04T15:38:47.191Z</time></trkpt><trkpt lat="44.6954067" lon="9.432555"><ele>1100.6</ele><time>2026-04-04T15:38:49.19Z</time></trkpt><trkpt lat="44.6953133" lon="9.4326"><ele>1101.8</ele><time>2026-04-04T15:38:51.19Z</time></trkpt><trkpt lat="44.695215" lon="9.4326417"><ele>1103.0</ele><time>2026-04-04T15:38:53.188Z</time></trkpt><trkpt lat="44.6951217" lon="9.4327167"><ele>1103.0</ele><time>2026-04-04T15:38:55.188Z</time></trkpt><trkpt lat="44.695045" lon="9.4328167"><ele>1103.0</ele><time>2026-04-04T15:38:57.188Z</time></trkpt><trkpt lat="44.695005" lon="9.4329283"><ele>1103.0</ele><time>2026-04-04T15:38:59.189Z</time></trkpt><trkpt lat="44.6949533" lon="9.4330617"><ele>1103.0</ele><time>2026-04-04T15:39:01.189Z</time></trkpt><trkpt lat="44.6948831" lon="9.4331889"><ele>1103.0</ele><time>2026-04-04T15:39:03.188Z</time></trkpt><trkpt lat="44.6948128" lon="9.4333056"><ele>1107.4</ele><time>2026-04-04T15:39:05.189Z</time></trkpt><trkpt lat="44.6947608" lon="9.4334448"><ele>1111.8</ele><time>2026-04-04T15:39:07.189Z</time></trkpt><trkpt lat="44.6947194" lon="9.4335746"><ele>1116.2</ele><time>2026-04-04T15:39:09.189Z</time></trkpt><trkpt lat="44.6946569" lon="9.4337138"><ele>1120.6</ele><time>2026-04-04T15:39:11.188Z</time></trkpt><trkpt lat="44.6946033" lon="9.4338238"><ele>1125.0</ele><time>2026-04-04T15:39:13.188Z</time></trkpt><trkpt lat="44.6945845" lon="9.4339128"><ele>1125.5714285714287</ele><time>2026-04-04T15:39:15.188Z</time></trkpt><trkpt lat="44.6945743" lon="9.4340012"><ele>1126.1428571428573</ele><time>2026-04-04T15:39:17.189Z</time></trkpt><trkpt lat="44.6945733" lon="9.4340966"><ele>1126.7142857142858</ele><time>2026-04-04T15:39:19.19Z</time></trkpt><trkpt lat="44.6945816" lon="9.4341939"><ele>1127.2857142857142</ele><time>2026-04-04T15:39:21.191Z</time></trkpt><trkpt lat="44.6946005" lon="9.4342822"><ele>1127.8571428571427</ele><time>2026-04-04T15:39:23.194Z</time></trkpt><trkpt lat="44.6946329" lon="9.4343818"><ele>1128.4285714285713</ele><time>2026-04-04T15:39:25.192Z</time></trkpt><trkpt lat="44.6946624" lon="9.4345077"><ele>1129.0</ele><time>2026-04-04T15:39:27.191Z</time></trkpt><trkpt lat="44.6946522" lon="9.4346153"><ele>1128.4</ele><time>2026-04-04T15:39:29.192Z</time></trkpt><trkpt lat="44.6945674" lon="9.4346728"><ele>1127.8000000000002</ele><time>2026-04-04T15:39:32.191Z</time></trkpt><trkpt lat="44.6944783" lon="9.4346546"><ele>1127.1999999999998</ele><time>2026-04-04T15:39:34.189Z</time></trkpt><trkpt lat="44.6943833" lon="9.4346256"><ele>1126.6</ele><time>2026-04-04T15:39:36.192Z</time></trkpt><trkpt lat="44.6942916" lon="9.4346384"><ele>1126.0</ele><time>2026-04-04T15:39:38.189Z</time></trkpt><trkpt lat="44.6942142" lon="9.4346986"><ele>1125.6</ele><time>2026-04-04T15:39:40.19Z</time></trkpt><trkpt lat="44.6941249" lon="9.4348087"><ele>1125.1999999999998</ele><time>2026-04-04T15:39:42.189Z</time></trkpt><trkpt lat="44.6940703" lon="9.4348658"><ele>1124.8000000000002</ele><time>2026-04-04T15:39:43.191Z</time></trkpt><trkpt lat="44.6940118" lon="9.4349166"><ele>1124.4</ele><time>2026-04-04T15:39:44.195Z</time></trkpt><trkpt lat="44.6939203" lon="9.4350004"><ele>1124.0</ele><time>2026-04-04T15:39:46.188Z</time></trkpt><trkpt lat="44.6938446" lon="9.4350748"><ele>1124.0</ele><time>2026-04-04T15:39:48.189Z</time></trkpt><trkpt lat="44.6937559" lon="9.4351586"><ele>1124.0</ele><time>2026-04-04T15:39:50.191Z</time></trkpt><trkpt lat="44.6936856" lon="9.4352516"><ele>1124.0</ele><time>2026-04-04T15:39:52.191Z</time></trkpt><trkpt lat="44.6936408" lon="9.4353871"><ele>1124.0</ele><time>2026-04-04T15:39:54.192Z</time></trkpt><trkpt lat="44.6936181" lon="9.4355384"><ele>1124.0</ele><time>2026-04-04T15:39:56.191Z</time></trkpt><trkpt lat="44.6936146" lon="9.4356825"><ele>1124.0</ele><time>2026-04-04T15:39:58.191Z</time></trkpt><trkpt lat="44.6936043" lon="9.4358371"><ele>1124.0</ele><time>2026-04-04T15:40:00.189Z</time></trkpt><trkpt lat="44.6935658" lon="9.4359804"><ele>1124.0</ele><time>2026-04-04T15:40:02.187Z</time></trkpt><trkpt lat="44.6935095" lon="9.4361312"><ele>1124.0</ele><time>2026-04-04T15:40:04.188Z</time></trkpt><trkpt lat="44.6934603" lon="9.4362862"><ele>1125.6666666666667</ele><time>2026-04-04T15:40:06.188Z</time></trkpt><trkpt lat="44.6934425" lon="9.436424"><ele>1127.3333333333335</ele><time>2026-04-04T15:40:08.188Z</time></trkpt><trkpt lat="44.6934585" lon="9.4365285"><ele>1129.0</ele><time>2026-04-04T15:40:10.188Z</time></trkpt><trkpt lat="44.6934742" lon="9.436637"><ele>1130.6666666666667</ele><time>2026-04-04T15:40:32.188Z</time></trkpt><trkpt lat="44.6934948" lon="9.4368001"><ele>1132.3333333333333</ele><time>2026-04-04T15:40:34.188Z</time></trkpt><trkpt lat="44.6935015" lon="9.4369051"><ele>1134.0</ele><time>2026-04-04T15:40:36.189Z</time></trkpt><trkpt lat="44.6935034" lon="9.4368032"><ele>1134.0</ele><time>2026-04-04T15:41:09.19Z</time></trkpt><trkpt lat="44.6934939" lon="9.436673"><ele>1134.0</ele><time>2026-04-04T15:41:11.188Z</time></trkpt><trkpt lat="44.6934701" lon="9.4365596"><ele>1134.0</ele><time>2026-04-04T15:41:13.187Z</time></trkpt><trkpt lat="44.693485" lon="9.4364483"><ele>1134.0</ele><time>2026-04-04T15:41:54.188Z</time></trkpt><trkpt lat="44.6935533" lon="9.43648"><ele>1134.0</ele><time>2026-04-04T15:41:57.188Z</time></trkpt><trkpt lat="44.6936117" lon="9.436535"><ele>1134.0</ele><time>2026-04-04T15:41:59.189Z</time></trkpt><trkpt lat="44.6936467" lon="9.4366217"><ele>1136.0</ele><time>2026-04-04T15:42:03.189Z</time></trkpt><trkpt lat="44.6936417" lon="9.4367217"><ele>1138.0</ele><time>2026-04-04T15:42:05.188Z</time></trkpt><trkpt lat="44.6937333" lon="9.436665"><ele>1140.0</ele><time>2026-04-04T15:42:46.188Z</time></trkpt><trkpt lat="44.6937817" lon="9.436585"><ele>1142.0</ele><time>2026-04-04T15:42:47.188Z</time></trkpt><trkpt lat="44.6938283" lon="9.4365183"><ele>1144.0</ele><time>2026-04-04T15:42:48.19Z</time></trkpt><trkpt lat="44.693915" lon="9.4364233"><ele>1146.0</ele><time>2026-04-04T15:42:50.189Z</time></trkpt><trkpt lat="44.69402" lon="9.4363817"><ele>1146.0</ele><time>2026-04-04T15:42:52.188Z</time></trkpt><trkpt lat="44.694085" lon="9.4363633"><ele>1146.0</ele><time>2026-04-04T15:42:53.189Z</time></trkpt><trkpt lat="44.6941483" lon="9.4363517"><ele>1146.0</ele><time>2026-04-04T15:42:54.188Z</time></trkpt><trkpt lat="44.6942533" lon="9.436325"><ele>1146.0</ele><time>2026-04-04T15:42:56.188Z</time></trkpt><trkpt lat="44.69431" lon="9.4362783"><ele>1136.0</ele><time>2026-04-04T15:42:58.189Z</time></trkpt></trkseg></trk></gpx>